<?xml version="1.0"?>
<gpx xmlns="http://www.topografix.com/GPX/1/1" xmlns:xsi="http://www.w3.org/2001/XMLSchema-instance" version="1.1" creator="GPX RubyGem 1.0.0 -- http://dougfales.github.io/gpx/" xsi:schemaLocation="http://www.topografix.com/GPX/1/1 http://www.topografix.com/GPX/1/1/gpx.xsd">
  <metadata>
    <name/>
    <time>2026-05-08T16:53:19+00:00</time>
    <bound minlat="90.0" minlon="180.0" maxlat="-90.0" maxlon="-180.0"/>
  </metadata>
  <trk>
    <name/>
    <trkseg>
      <trkpt lat="44.33356" lon="6.86647">
        <time>2023-04-16T06:16:56+00:00</time>
        <ele>2259.0</ele>
      </trkpt>
      <trkpt lat="44.33355" lon="6.86648">
        <time>2023-04-16T06:16:57+00:00</time>
        <ele>2259.0</ele>
      </trkpt>
      <trkpt lat="44.33353" lon="6.86652">
        <time>2023-04-16T06:17:01+00:00</time>
        <ele>2258.0</ele>
      </trkpt>
      <trkpt lat="44.33351" lon="6.86651">
        <time>2023-04-16T06:17:02+00:00</time>
        <ele>2258.0</ele>
      </trkpt>
      <trkpt lat="44.3335" lon="6.86652">
        <time>2023-04-16T06:17:03+00:00</time>
        <ele>2257.0</ele>
      </trkpt>
      <trkpt lat="44.33349" lon="6.86653">
        <time>2023-04-16T06:17:04+00:00</time>
        <ele>2257.0</ele>
      </trkpt>
      <trkpt lat="44.33348" lon="6.86654">
        <time>2023-04-16T06:17:05+00:00</time>
        <ele>2257.0</ele>
      </trkpt>
      <trkpt lat="44.33347" lon="6.86655">
        <time>2023-04-16T06:17:06+00:00</time>
        <ele>2257.0</ele>
      </trkpt>
      <trkpt lat="44.33344" lon="6.86664">
        <time>2023-04-16T06:17:11+00:00</time>
        <ele>2256.0</ele>
      </trkpt>
      <trkpt lat="44.33343" lon="6.86667">
        <time>2023-04-16T06:17:13+00:00</time>
        <ele>2256.0</ele>
      </trkpt>
      <trkpt lat="44.33339" lon="6.86675">
        <time>2023-04-16T06:17:18+00:00</time>
        <ele>2255.0</ele>
      </trkpt>
      <trkpt lat="44.33336" lon="6.86682">
        <time>2023-04-16T06:17:22+00:00</time>
        <ele>2254.0</ele>
      </trkpt>
      <trkpt lat="44.33335" lon="6.86684">
        <time>2023-04-16T06:17:23+00:00</time>
        <ele>2253.0</ele>
      </trkpt>
      <trkpt lat="44.33334" lon="6.86685">
        <time>2023-04-16T06:17:24+00:00</time>
        <ele>2253.0</ele>
      </trkpt>
      <trkpt lat="44.33334" lon="6.86687">
        <time>2023-04-16T06:17:25+00:00</time>
        <ele>2253.0</ele>
      </trkpt>
      <trkpt lat="44.33333" lon="6.86689">
        <time>2023-04-16T06:17:28+00:00</time>
        <ele>2253.0</ele>
      </trkpt>
      <trkpt lat="44.33333" lon="6.86688">
        <time>2023-04-16T06:17:30+00:00</time>
        <ele>2253.0</ele>
      </trkpt>
      <trkpt lat="44.33331" lon="6.86693">
        <time>2023-04-16T06:17:34+00:00</time>
        <ele>2252.0</ele>
      </trkpt>
      <trkpt lat="44.3333" lon="6.86701">
        <time>2023-04-16T06:17:41+00:00</time>
        <ele>2251.0</ele>
      </trkpt>
      <trkpt lat="44.33333" lon="6.86695">
        <time>2023-04-16T06:17:46+00:00</time>
        <ele>2252.0</ele>
      </trkpt>
      <trkpt lat="44.33334" lon="6.86695">
        <time>2023-04-16T06:17:47+00:00</time>
        <ele>2253.0</ele>
      </trkpt>
      <trkpt lat="44.33335" lon="6.86697">
        <time>2023-04-16T06:17:49+00:00</time>
        <ele>2253.0</ele>
      </trkpt>
      <trkpt lat="44.33335" lon="6.86696">
        <time>2023-04-16T06:17:50+00:00</time>
        <ele>2253.0</ele>
      </trkpt>
      <trkpt lat="44.33335" lon="6.86697">
        <time>2023-04-16T06:17:51+00:00</time>
        <ele>2253.0</ele>
      </trkpt>
      <trkpt lat="44.33335" lon="6.86698">
        <time>2023-04-16T06:17:53+00:00</time>
        <ele>2253.0</ele>
      </trkpt>
      <trkpt lat="44.33337" lon="6.86702">
        <time>2023-04-16T06:18:07+00:00</time>
        <ele>2254.0</ele>
      </trkpt>
      <trkpt lat="44.3334" lon="6.86703">
        <time>2023-04-16T06:18:11+00:00</time>
        <ele>2256.0</ele>
      </trkpt>
      <trkpt lat="44.33343" lon="6.86706">
        <time>2023-04-16T06:18:17+00:00</time>
        <ele>2256.0</ele>
      </trkpt>
      <trkpt lat="44.33345" lon="6.86713">
        <time>2023-04-16T06:18:23+00:00</time>
        <ele>2256.0</ele>
      </trkpt>
      <trkpt lat="44.33346" lon="6.86716">
        <time>2023-04-16T06:18:25+00:00</time>
        <ele>2256.0</ele>
      </trkpt>
      <trkpt lat="44.33346" lon="6.86718">
        <time>2023-04-16T06:18:26+00:00</time>
        <ele>2256.0</ele>
      </trkpt>
      <trkpt lat="44.33347" lon="6.86722">
        <time>2023-04-16T06:18:28+00:00</time>
        <ele>2256.0</ele>
      </trkpt>
      <trkpt lat="44.33348" lon="6.86728">
        <time>2023-04-16T06:18:31+00:00</time>
        <ele>2256.0</ele>
      </trkpt>
      <trkpt lat="44.33349" lon="6.86731">
        <time>2023-04-16T06:18:33+00:00</time>
        <ele>2256.0</ele>
      </trkpt>
      <trkpt lat="44.3335" lon="6.86733">
        <time>2023-04-16T06:18:34+00:00</time>
        <ele>2256.0</ele>
      </trkpt>
      <trkpt lat="44.3335" lon="6.86735">
        <time>2023-04-16T06:18:35+00:00</time>
        <ele>2256.0</ele>
      </trkpt>
      <trkpt lat="44.3335" lon="6.86741">
        <time>2023-04-16T06:18:37+00:00</time>
        <ele>2255.0</ele>
      </trkpt>
      <trkpt lat="44.3335" lon="6.8675">
        <time>2023-04-16T06:18:42+00:00</time>
        <ele>2254.0</ele>
      </trkpt>
      <trkpt lat="44.33351" lon="6.86762">
        <time>2023-04-16T06:18:49+00:00</time>
        <ele>2253.0</ele>
      </trkpt>
      <trkpt lat="44.33351" lon="6.86763">
        <time>2023-04-16T06:18:50+00:00</time>
        <ele>2253.0</ele>
      </trkpt>
      <trkpt lat="44.33352" lon="6.86765">
        <time>2023-04-16T06:18:51+00:00</time>
        <ele>2253.0</ele>
      </trkpt>
      <trkpt lat="44.33352" lon="6.86767">
        <time>2023-04-16T06:18:52+00:00</time>
        <ele>2253.0</ele>
      </trkpt>
      <trkpt lat="44.33353" lon="6.86772">
        <time>2023-04-16T06:18:55+00:00</time>
        <ele>2253.0</ele>
      </trkpt>
      <trkpt lat="44.33355" lon="6.86783">
        <time>2023-04-16T06:19:01+00:00</time>
        <ele>2252.0</ele>
      </trkpt>
      <trkpt lat="44.33356" lon="6.8679">
        <time>2023-04-16T06:19:08+00:00</time>
        <ele>2252.0</ele>
      </trkpt>
      <trkpt lat="44.33356" lon="6.86791">
        <time>2023-04-16T06:19:09+00:00</time>
        <ele>2252.0</ele>
      </trkpt>
      <trkpt lat="44.33357" lon="6.86796">
        <time>2023-04-16T06:19:13+00:00</time>
        <ele>2252.0</ele>
      </trkpt>
      <trkpt lat="44.33359" lon="6.86803">
        <time>2023-04-16T06:19:19+00:00</time>
        <ele>2253.0</ele>
      </trkpt>
      <trkpt lat="44.3336" lon="6.8681">
        <time>2023-04-16T06:19:24+00:00</time>
        <ele>2253.0</ele>
      </trkpt>
      <trkpt lat="44.33361" lon="6.86819">
        <time>2023-04-16T06:19:30+00:00</time>
        <ele>2254.0</ele>
      </trkpt>
      <trkpt lat="44.33363" lon="6.86829">
        <time>2023-04-16T06:19:36+00:00</time>
        <ele>2255.0</ele>
      </trkpt>
      <trkpt lat="44.33363" lon="6.86831">
        <time>2023-04-16T06:19:38+00:00</time>
        <ele>2255.0</ele>
      </trkpt>
      <trkpt lat="44.33361" lon="6.86848">
        <time>2023-04-16T06:19:48+00:00</time>
        <ele>2256.0</ele>
      </trkpt>
      <trkpt lat="44.33359" lon="6.86854">
        <time>2023-04-16T06:19:52+00:00</time>
        <ele>2255.0</ele>
      </trkpt>
      <trkpt lat="44.33353" lon="6.86874">
        <time>2023-04-16T06:20:05+00:00</time>
        <ele>2255.0</ele>
      </trkpt>
      <trkpt lat="44.33351" lon="6.8688">
        <time>2023-04-16T06:20:09+00:00</time>
        <ele>2255.0</ele>
      </trkpt>
      <trkpt lat="44.3335" lon="6.86885">
        <time>2023-04-16T06:20:12+00:00</time>
        <ele>2255.0</ele>
      </trkpt>
      <trkpt lat="44.33347" lon="6.86908">
        <time>2023-04-16T06:20:26+00:00</time>
        <ele>2255.0</ele>
      </trkpt>
      <trkpt lat="44.33346" lon="6.86921">
        <time>2023-04-16T06:20:34+00:00</time>
        <ele>2255.0</ele>
      </trkpt>
      <trkpt lat="44.33346" lon="6.86927">
        <time>2023-04-16T06:20:38+00:00</time>
        <ele>2254.0</ele>
      </trkpt>
      <trkpt lat="44.33347" lon="6.86953">
        <time>2023-04-16T06:20:55+00:00</time>
        <ele>2254.0</ele>
      </trkpt>
      <trkpt lat="44.33356" lon="6.86971">
        <time>2023-04-16T06:21:08+00:00</time>
        <ele>2254.0</ele>
      </trkpt>
      <trkpt lat="44.33369" lon="6.87013">
        <time>2023-04-16T06:21:46+00:00</time>
        <ele>2257.0</ele>
      </trkpt>
      <trkpt lat="44.3337" lon="6.87022">
        <time>2023-04-16T06:21:51+00:00</time>
        <ele>2257.0</ele>
      </trkpt>
      <trkpt lat="44.33372" lon="6.87032">
        <time>2023-04-16T06:21:58+00:00</time>
        <ele>2258.0</ele>
      </trkpt>
      <trkpt lat="44.33375" lon="6.87043">
        <time>2023-04-16T06:22:06+00:00</time>
        <ele>2260.0</ele>
      </trkpt>
      <trkpt lat="44.33377" lon="6.87057">
        <time>2023-04-16T06:22:15+00:00</time>
        <ele>2260.0</ele>
      </trkpt>
      <trkpt lat="44.33378" lon="6.8706">
        <time>2023-04-16T06:22:17+00:00</time>
        <ele>2260.0</ele>
      </trkpt>
      <trkpt lat="44.33378" lon="6.87062">
        <time>2023-04-16T06:22:18+00:00</time>
        <ele>2260.0</ele>
      </trkpt>
      <trkpt lat="44.33378" lon="6.87063">
        <time>2023-04-16T06:22:19+00:00</time>
        <ele>2260.0</ele>
      </trkpt>
      <trkpt lat="44.33378" lon="6.87065">
        <time>2023-04-16T06:22:20+00:00</time>
        <ele>2260.0</ele>
      </trkpt>
      <trkpt lat="44.33379" lon="6.87068">
        <time>2023-04-16T06:22:22+00:00</time>
        <ele>2261.0</ele>
      </trkpt>
      <trkpt lat="44.33379" lon="6.8707">
        <time>2023-04-16T06:22:23+00:00</time>
        <ele>2261.0</ele>
      </trkpt>
      <trkpt lat="44.3338" lon="6.87071">
        <time>2023-04-16T06:22:24+00:00</time>
        <ele>2261.0</ele>
      </trkpt>
      <trkpt lat="44.3338" lon="6.87076">
        <time>2023-04-16T06:22:27+00:00</time>
        <ele>2261.0</ele>
      </trkpt>
      <trkpt lat="44.3338" lon="6.87078">
        <time>2023-04-16T06:22:28+00:00</time>
        <ele>2261.0</ele>
      </trkpt>
      <trkpt lat="44.3338" lon="6.87079">
        <time>2023-04-16T06:22:29+00:00</time>
        <ele>2261.0</ele>
      </trkpt>
      <trkpt lat="44.33381" lon="6.87082">
        <time>2023-04-16T06:22:31+00:00</time>
        <ele>2261.0</ele>
      </trkpt>
      <trkpt lat="44.33381" lon="6.87088">
        <time>2023-04-16T06:22:34+00:00</time>
        <ele>2261.0</ele>
      </trkpt>
      <trkpt lat="44.33382" lon="6.87091">
        <time>2023-04-16T06:22:36+00:00</time>
        <ele>2261.0</ele>
      </trkpt>
      <trkpt lat="44.33382" lon="6.87096">
        <time>2023-04-16T06:22:39+00:00</time>
        <ele>2261.0</ele>
      </trkpt>
      <trkpt lat="44.33383" lon="6.87118">
        <time>2023-04-16T06:22:53+00:00</time>
        <ele>2261.0</ele>
      </trkpt>
      <trkpt lat="44.33389" lon="6.87128">
        <time>2023-04-16T06:23:04+00:00</time>
        <ele>2260.0</ele>
      </trkpt>
      <trkpt lat="44.33394" lon="6.87131">
        <time>2023-04-16T06:23:09+00:00</time>
        <ele>2259.0</ele>
      </trkpt>
      <trkpt lat="44.334" lon="6.87131">
        <time>2023-04-16T06:23:14+00:00</time>
        <ele>2258.0</ele>
      </trkpt>
      <trkpt lat="44.33401" lon="6.8713">
        <time>2023-04-16T06:23:19+00:00</time>
        <ele>2258.0</ele>
      </trkpt>
      <trkpt lat="44.33401" lon="6.87131">
        <time>2023-04-16T06:23:35+00:00</time>
        <ele>2258.0</ele>
      </trkpt>
      <trkpt lat="44.33402" lon="6.87132">
        <time>2023-04-16T06:23:39+00:00</time>
        <ele>2257.0</ele>
      </trkpt>
      <trkpt lat="44.33403" lon="6.87132">
        <time>2023-04-16T06:23:43+00:00</time>
        <ele>2257.0</ele>
      </trkpt>
      <trkpt lat="44.33403" lon="6.87131">
        <time>2023-04-16T06:23:47+00:00</time>
        <ele>2257.0</ele>
      </trkpt>
      <trkpt lat="44.33403" lon="6.87131">
        <time>2023-04-16T06:23:51+00:00</time>
        <ele>2257.0</ele>
      </trkpt>
      <trkpt lat="44.33402" lon="6.87129">
        <time>2023-04-16T06:23:55+00:00</time>
        <ele>2258.0</ele>
      </trkpt>
      <trkpt lat="44.33402" lon="6.87129">
        <time>2023-04-16T06:23:59+00:00</time>
        <ele>2258.0</ele>
      </trkpt>
      <trkpt lat="44.334" lon="6.87127">
        <time>2023-04-16T06:24:10+00:00</time>
        <ele>2259.0</ele>
      </trkpt>
      <trkpt lat="44.33398" lon="6.87132">
        <time>2023-04-16T06:24:27+00:00</time>
        <ele>2259.0</ele>
      </trkpt>
      <trkpt lat="44.33402" lon="6.87131">
        <time>2023-04-16T06:24:51+00:00</time>
        <ele>2257.0</ele>
      </trkpt>
      <trkpt lat="44.33401" lon="6.87132">
        <time>2023-04-16T06:25:11+00:00</time>
        <ele>2257.0</ele>
      </trkpt>
      <trkpt lat="44.334" lon="6.87133">
        <time>2023-04-16T06:25:24+00:00</time>
        <ele>2258.0</ele>
      </trkpt>
      <trkpt lat="44.334" lon="6.87129">
        <time>2023-04-16T06:25:32+00:00</time>
        <ele>2258.0</ele>
      </trkpt>
      <trkpt lat="44.33399" lon="6.87127">
        <time>2023-04-16T06:25:34+00:00</time>
        <ele>2259.0</ele>
      </trkpt>
      <trkpt lat="44.33399" lon="6.87126">
        <time>2023-04-16T06:25:36+00:00</time>
        <ele>2259.0</ele>
      </trkpt>
      <trkpt lat="44.33399" lon="6.87127">
        <time>2023-04-16T06:25:38+00:00</time>
        <ele>2259.0</ele>
      </trkpt>
      <trkpt lat="44.334" lon="6.87127">
        <time>2023-04-16T06:25:45+00:00</time>
        <ele>2259.0</ele>
      </trkpt>
      <trkpt lat="44.334" lon="6.87125">
        <time>2023-04-16T06:25:52+00:00</time>
        <ele>2259.0</ele>
      </trkpt>
      <trkpt lat="44.33399" lon="6.87126">
        <time>2023-04-16T06:25:59+00:00</time>
        <ele>2259.0</ele>
      </trkpt>
      <trkpt lat="44.33399" lon="6.87126">
        <time>2023-04-16T06:26:03+00:00</time>
        <ele>2259.0</ele>
      </trkpt>
      <trkpt lat="44.33399" lon="6.87125">
        <time>2023-04-16T06:26:06+00:00</time>
        <ele>2259.0</ele>
      </trkpt>
      <trkpt lat="44.33398" lon="6.87127">
        <time>2023-04-16T06:26:51+00:00</time>
        <ele>2259.0</ele>
      </trkpt>
      <trkpt lat="44.33401" lon="6.87128">
        <time>2023-04-16T06:26:59+00:00</time>
        <ele>2258.0</ele>
      </trkpt>
      <trkpt lat="44.33401" lon="6.87128">
        <time>2023-04-16T06:27:01+00:00</time>
        <ele>2258.0</ele>
      </trkpt>
      <trkpt lat="44.33401" lon="6.87127">
        <time>2023-04-16T06:27:04+00:00</time>
        <ele>2258.0</ele>
      </trkpt>
      <trkpt lat="44.33401" lon="6.87128">
        <time>2023-04-16T06:27:13+00:00</time>
        <ele>2258.0</ele>
      </trkpt>
      <trkpt lat="44.33399" lon="6.87127">
        <time>2023-04-16T06:27:22+00:00</time>
        <ele>2259.0</ele>
      </trkpt>
      <trkpt lat="44.33398" lon="6.87127">
        <time>2023-04-16T06:27:31+00:00</time>
        <ele>2259.0</ele>
      </trkpt>
      <trkpt lat="44.334" lon="6.87123">
        <time>2023-04-16T06:28:17+00:00</time>
        <ele>2259.0</ele>
      </trkpt>
      <trkpt lat="44.33401" lon="6.87124">
        <time>2023-04-16T06:28:22+00:00</time>
        <ele>2259.0</ele>
      </trkpt>
      <trkpt lat="44.33401" lon="6.87124">
        <time>2023-04-16T06:28:24+00:00</time>
        <ele>2259.0</ele>
      </trkpt>
      <trkpt lat="44.33401" lon="6.87123">
        <time>2023-04-16T06:28:33+00:00</time>
        <ele>2259.0</ele>
      </trkpt>
      <trkpt lat="44.33403" lon="6.87125">
        <time>2023-04-16T06:28:37+00:00</time>
        <ele>2258.0</ele>
      </trkpt>
      <trkpt lat="44.33404" lon="6.87125">
        <time>2023-04-16T06:28:38+00:00</time>
        <ele>2258.0</ele>
      </trkpt>
      <trkpt lat="44.33405" lon="6.87125">
        <time>2023-04-16T06:28:39+00:00</time>
        <ele>2257.0</ele>
      </trkpt>
      <trkpt lat="44.33407" lon="6.87131">
        <time>2023-04-16T06:28:41+00:00</time>
        <ele>2256.0</ele>
      </trkpt>
      <trkpt lat="44.33405" lon="6.87135">
        <time>2023-04-16T06:28:42+00:00</time>
        <ele>2255.0</ele>
      </trkpt>
      <trkpt lat="44.33403" lon="6.87139">
        <time>2023-04-16T06:28:43+00:00</time>
        <ele>2255.0</ele>
      </trkpt>
      <trkpt lat="44.334" lon="6.87151">
        <time>2023-04-16T06:28:46+00:00</time>
        <ele>2254.0</ele>
      </trkpt>
      <trkpt lat="44.33404" lon="6.87156">
        <time>2023-04-16T06:28:48+00:00</time>
        <ele>2251.0</ele>
      </trkpt>
      <trkpt lat="44.33406" lon="6.87159">
        <time>2023-04-16T06:28:49+00:00</time>
        <ele>2250.0</ele>
      </trkpt>
      <trkpt lat="44.33407" lon="6.87163">
        <time>2023-04-16T06:28:50+00:00</time>
        <ele>2248.0</ele>
      </trkpt>
      <trkpt lat="44.33407" lon="6.87168">
        <time>2023-04-16T06:28:51+00:00</time>
        <ele>2247.0</ele>
      </trkpt>
      <trkpt lat="44.33409" lon="6.87172">
        <time>2023-04-16T06:28:52+00:00</time>
        <ele>2245.0</ele>
      </trkpt>
      <trkpt lat="44.33411" lon="6.87175">
        <time>2023-04-16T06:28:53+00:00</time>
        <ele>2243.0</ele>
      </trkpt>
      <trkpt lat="44.33414" lon="6.87179">
        <time>2023-04-16T06:28:54+00:00</time>
        <ele>2240.0</ele>
      </trkpt>
      <trkpt lat="44.33418" lon="6.87182">
        <time>2023-04-16T06:28:55+00:00</time>
        <ele>2238.0</ele>
      </trkpt>
      <trkpt lat="44.33423" lon="6.87181">
        <time>2023-04-16T06:28:56+00:00</time>
        <ele>2236.0</ele>
      </trkpt>
      <trkpt lat="44.33428" lon="6.87178">
        <time>2023-04-16T06:28:57+00:00</time>
        <ele>2234.0</ele>
      </trkpt>
      <trkpt lat="44.33432" lon="6.87174">
        <time>2023-04-16T06:28:58+00:00</time>
        <ele>2233.0</ele>
      </trkpt>
      <trkpt lat="44.33433" lon="6.87171">
        <time>2023-04-16T06:28:59+00:00</time>
        <ele>2234.0</ele>
      </trkpt>
      <trkpt lat="44.33434" lon="6.87169">
        <time>2023-04-16T06:29:00+00:00</time>
        <ele>2234.0</ele>
      </trkpt>
      <trkpt lat="44.33435" lon="6.87167">
        <time>2023-04-16T06:29:02+00:00</time>
        <ele>2234.0</ele>
      </trkpt>
      <trkpt lat="44.33437" lon="6.87165">
        <time>2023-04-16T06:29:04+00:00</time>
        <ele>2234.0</ele>
      </trkpt>
      <trkpt lat="44.33439" lon="6.87164">
        <time>2023-04-16T06:29:05+00:00</time>
        <ele>2233.0</ele>
      </trkpt>
      <trkpt lat="44.3344" lon="6.87163">
        <time>2023-04-16T06:29:06+00:00</time>
        <ele>2233.0</ele>
      </trkpt>
      <trkpt lat="44.33441" lon="6.87162">
        <time>2023-04-16T06:29:07+00:00</time>
        <ele>2233.0</ele>
      </trkpt>
      <trkpt lat="44.33443" lon="6.87161">
        <time>2023-04-16T06:29:08+00:00</time>
        <ele>2232.0</ele>
      </trkpt>
      <trkpt lat="44.33449" lon="6.8716">
        <time>2023-04-16T06:29:11+00:00</time>
        <ele>2230.0</ele>
      </trkpt>
      <trkpt lat="44.33455" lon="6.87163">
        <time>2023-04-16T06:29:13+00:00</time>
        <ele>2226.0</ele>
      </trkpt>
      <trkpt lat="44.33459" lon="6.87164">
        <time>2023-04-16T06:29:14+00:00</time>
        <ele>2224.0</ele>
      </trkpt>
      <trkpt lat="44.33464" lon="6.87163">
        <time>2023-04-16T06:29:15+00:00</time>
        <ele>2221.0</ele>
      </trkpt>
      <trkpt lat="44.33468" lon="6.87161">
        <time>2023-04-16T06:29:16+00:00</time>
        <ele>2220.0</ele>
      </trkpt>
      <trkpt lat="44.33472" lon="6.8716">
        <time>2023-04-16T06:29:17+00:00</time>
        <ele>2218.0</ele>
      </trkpt>
      <trkpt lat="44.33476" lon="6.87159">
        <time>2023-04-16T06:29:18+00:00</time>
        <ele>2216.0</ele>
      </trkpt>
      <trkpt lat="44.3348" lon="6.87157">
        <time>2023-04-16T06:29:19+00:00</time>
        <ele>2215.0</ele>
      </trkpt>
      <trkpt lat="44.33485" lon="6.87157">
        <time>2023-04-16T06:29:20+00:00</time>
        <ele>2212.0</ele>
      </trkpt>
      <trkpt lat="44.3349" lon="6.87157">
        <time>2023-04-16T06:29:21+00:00</time>
        <ele>2210.0</ele>
      </trkpt>
      <trkpt lat="44.33496" lon="6.87158">
        <time>2023-04-16T06:29:22+00:00</time>
        <ele>2207.0</ele>
      </trkpt>
      <trkpt lat="44.33501" lon="6.87159">
        <time>2023-04-16T06:29:23+00:00</time>
        <ele>2205.0</ele>
      </trkpt>
      <trkpt lat="44.33505" lon="6.87159">
        <time>2023-04-16T06:29:24+00:00</time>
        <ele>2204.0</ele>
      </trkpt>
      <trkpt lat="44.3351" lon="6.87159">
        <time>2023-04-16T06:29:25+00:00</time>
        <ele>2202.0</ele>
      </trkpt>
      <trkpt lat="44.33513" lon="6.87159">
        <time>2023-04-16T06:29:26+00:00</time>
        <ele>2201.0</ele>
      </trkpt>
      <trkpt lat="44.33517" lon="6.8716">
        <time>2023-04-16T06:29:27+00:00</time>
        <ele>2201.0</ele>
      </trkpt>
      <trkpt lat="44.33521" lon="6.87162">
        <time>2023-04-16T06:29:28+00:00</time>
        <ele>2200.0</ele>
      </trkpt>
      <trkpt lat="44.3353" lon="6.87165">
        <time>2023-04-16T06:29:30+00:00</time>
        <ele>2199.0</ele>
      </trkpt>
      <trkpt lat="44.33532" lon="6.87174">
        <time>2023-04-16T06:29:32+00:00</time>
        <ele>2196.0</ele>
      </trkpt>
      <trkpt lat="44.33529" lon="6.87179">
        <time>2023-04-16T06:29:34+00:00</time>
        <ele>2195.0</ele>
      </trkpt>
      <trkpt lat="44.33529" lon="6.87179">
        <time>2023-04-16T06:29:35+00:00</time>
        <ele>2195.0</ele>
      </trkpt>
      <trkpt lat="44.3353" lon="6.87179">
        <time>2023-04-16T06:29:36+00:00</time>
        <ele>2195.0</ele>
      </trkpt>
      <trkpt lat="44.3353" lon="6.87178">
        <time>2023-04-16T06:29:39+00:00</time>
        <ele>2195.0</ele>
      </trkpt>
      <trkpt lat="44.33527" lon="6.87176">
        <time>2023-04-16T06:29:50+00:00</time>
        <ele>2195.0</ele>
      </trkpt>
      <trkpt lat="44.33527" lon="6.87175">
        <time>2023-04-16T06:30:07+00:00</time>
        <ele>2196.0</ele>
      </trkpt>
      <trkpt lat="44.33526" lon="6.87175">
        <time>2023-04-16T06:30:08+00:00</time>
        <ele>2196.0</ele>
      </trkpt>
      <trkpt lat="44.33525" lon="6.8718">
        <time>2023-04-16T06:30:12+00:00</time>
        <ele>2194.0</ele>
      </trkpt>
      <trkpt lat="44.33523" lon="6.87183">
        <time>2023-04-16T06:30:13+00:00</time>
        <ele>2193.0</ele>
      </trkpt>
      <trkpt lat="44.33517" lon="6.87191">
        <time>2023-04-16T06:30:16+00:00</time>
        <ele>2189.0</ele>
      </trkpt>
      <trkpt lat="44.33515" lon="6.87195">
        <time>2023-04-16T06:30:17+00:00</time>
        <ele>2187.0</ele>
      </trkpt>
      <trkpt lat="44.33513" lon="6.872">
        <time>2023-04-16T06:30:18+00:00</time>
        <ele>2184.0</ele>
      </trkpt>
      <trkpt lat="44.3351" lon="6.87204">
        <time>2023-04-16T06:30:19+00:00</time>
        <ele>2184.0</ele>
      </trkpt>
      <trkpt lat="44.33508" lon="6.87209">
        <time>2023-04-16T06:30:20+00:00</time>
        <ele>2182.0</ele>
      </trkpt>
      <trkpt lat="44.33506" lon="6.87215">
        <time>2023-04-16T06:30:21+00:00</time>
        <ele>2180.0</ele>
      </trkpt>
      <trkpt lat="44.33503" lon="6.87221">
        <time>2023-04-16T06:30:22+00:00</time>
        <ele>2179.0</ele>
      </trkpt>
      <trkpt lat="44.33501" lon="6.87225">
        <time>2023-04-16T06:30:23+00:00</time>
        <ele>2178.0</ele>
      </trkpt>
      <trkpt lat="44.33498" lon="6.87231">
        <time>2023-04-16T06:30:24+00:00</time>
        <ele>2177.0</ele>
      </trkpt>
      <trkpt lat="44.33496" lon="6.87237">
        <time>2023-04-16T06:30:25+00:00</time>
        <ele>2176.0</ele>
      </trkpt>
      <trkpt lat="44.33494" lon="6.87243">
        <time>2023-04-16T06:30:26+00:00</time>
        <ele>2174.0</ele>
      </trkpt>
      <trkpt lat="44.33493" lon="6.8725">
        <time>2023-04-16T06:30:27+00:00</time>
        <ele>2173.0</ele>
      </trkpt>
      <trkpt lat="44.33491" lon="6.87255">
        <time>2023-04-16T06:30:28+00:00</time>
        <ele>2172.0</ele>
      </trkpt>
      <trkpt lat="44.33492" lon="6.87259">
        <time>2023-04-16T06:30:29+00:00</time>
        <ele>2170.0</ele>
      </trkpt>
      <trkpt lat="44.33494" lon="6.8726">
        <time>2023-04-16T06:30:30+00:00</time>
        <ele>2169.0</ele>
      </trkpt>
      <trkpt lat="44.33496" lon="6.87259">
        <time>2023-04-16T06:30:31+00:00</time>
        <ele>2169.0</ele>
      </trkpt>
      <trkpt lat="44.33497" lon="6.87258">
        <time>2023-04-16T06:30:32+00:00</time>
        <ele>2169.0</ele>
      </trkpt>
      <trkpt lat="44.33497" lon="6.87258">
        <time>2023-04-16T06:30:33+00:00</time>
        <ele>2169.0</ele>
      </trkpt>
      <trkpt lat="44.33498" lon="6.87258">
        <time>2023-04-16T06:30:34+00:00</time>
        <ele>2169.0</ele>
      </trkpt>
      <trkpt lat="44.33499" lon="6.87266">
        <time>2023-04-16T06:31:01+00:00</time>
        <ele>2166.0</ele>
      </trkpt>
      <trkpt lat="44.33499" lon="6.87281">
        <time>2023-04-16T06:31:04+00:00</time>
        <ele>2161.0</ele>
      </trkpt>
      <trkpt lat="44.33499" lon="6.87287">
        <time>2023-04-16T06:31:05+00:00</time>
        <ele>2159.0</ele>
      </trkpt>
      <trkpt lat="44.33499" lon="6.87293">
        <time>2023-04-16T06:31:06+00:00</time>
        <ele>2156.0</ele>
      </trkpt>
      <trkpt lat="44.33499" lon="6.87299">
        <time>2023-04-16T06:31:07+00:00</time>
        <ele>2155.0</ele>
      </trkpt>
      <trkpt lat="44.33499" lon="6.87307">
        <time>2023-04-16T06:31:08+00:00</time>
        <ele>2153.0</ele>
      </trkpt>
      <trkpt lat="44.33498" lon="6.87313">
        <time>2023-04-16T06:31:09+00:00</time>
        <ele>2152.0</ele>
      </trkpt>
      <trkpt lat="44.33499" lon="6.8732">
        <time>2023-04-16T06:31:10+00:00</time>
        <ele>2150.0</ele>
      </trkpt>
      <trkpt lat="44.335" lon="6.87328">
        <time>2023-04-16T06:31:11+00:00</time>
        <ele>2148.0</ele>
      </trkpt>
      <trkpt lat="44.33502" lon="6.87335">
        <time>2023-04-16T06:31:12+00:00</time>
        <ele>2145.0</ele>
      </trkpt>
      <trkpt lat="44.33504" lon="6.87342">
        <time>2023-04-16T06:31:13+00:00</time>
        <ele>2143.0</ele>
      </trkpt>
      <trkpt lat="44.33505" lon="6.8735">
        <time>2023-04-16T06:31:14+00:00</time>
        <ele>2140.0</ele>
      </trkpt>
      <trkpt lat="44.33506" lon="6.87356">
        <time>2023-04-16T06:31:15+00:00</time>
        <ele>2138.0</ele>
      </trkpt>
      <trkpt lat="44.33508" lon="6.87363">
        <time>2023-04-16T06:31:16+00:00</time>
        <ele>2136.0</ele>
      </trkpt>
      <trkpt lat="44.33509" lon="6.87371">
        <time>2023-04-16T06:31:17+00:00</time>
        <ele>2134.0</ele>
      </trkpt>
      <trkpt lat="44.33509" lon="6.87377">
        <time>2023-04-16T06:31:18+00:00</time>
        <ele>2133.0</ele>
      </trkpt>
      <trkpt lat="44.33512" lon="6.87383">
        <time>2023-04-16T06:31:19+00:00</time>
        <ele>2130.0</ele>
      </trkpt>
      <trkpt lat="44.33513" lon="6.87389">
        <time>2023-04-16T06:31:20+00:00</time>
        <ele>2129.0</ele>
      </trkpt>
      <trkpt lat="44.33514" lon="6.87396">
        <time>2023-04-16T06:31:21+00:00</time>
        <ele>2128.0</ele>
      </trkpt>
      <trkpt lat="44.33517" lon="6.87401">
        <time>2023-04-16T06:31:22+00:00</time>
        <ele>2127.0</ele>
      </trkpt>
      <trkpt lat="44.3352" lon="6.87406">
        <time>2023-04-16T06:31:23+00:00</time>
        <ele>2125.0</ele>
      </trkpt>
      <trkpt lat="44.33524" lon="6.87411">
        <time>2023-04-16T06:31:24+00:00</time>
        <ele>2122.0</ele>
      </trkpt>
      <trkpt lat="44.33527" lon="6.87415">
        <time>2023-04-16T06:31:25+00:00</time>
        <ele>2119.0</ele>
      </trkpt>
      <trkpt lat="44.33528" lon="6.8742">
        <time>2023-04-16T06:31:26+00:00</time>
        <ele>2118.0</ele>
      </trkpt>
      <trkpt lat="44.3353" lon="6.87426">
        <time>2023-04-16T06:31:27+00:00</time>
        <ele>2115.0</ele>
      </trkpt>
      <trkpt lat="44.3353" lon="6.87431">
        <time>2023-04-16T06:31:28+00:00</time>
        <ele>2114.0</ele>
      </trkpt>
      <trkpt lat="44.33529" lon="6.87436">
        <time>2023-04-16T06:31:29+00:00</time>
        <ele>2113.0</ele>
      </trkpt>
      <trkpt lat="44.3353" lon="6.87442">
        <time>2023-04-16T06:31:30+00:00</time>
        <ele>2111.0</ele>
      </trkpt>
      <trkpt lat="44.33529" lon="6.87449">
        <time>2023-04-16T06:31:31+00:00</time>
        <ele>2109.0</ele>
      </trkpt>
      <trkpt lat="44.33527" lon="6.87456">
        <time>2023-04-16T06:31:32+00:00</time>
        <ele>2108.0</ele>
      </trkpt>
      <trkpt lat="44.33528" lon="6.87462">
        <time>2023-04-16T06:31:33+00:00</time>
        <ele>2106.0</ele>
      </trkpt>
      <trkpt lat="44.3353" lon="6.87467">
        <time>2023-04-16T06:31:34+00:00</time>
        <ele>2104.0</ele>
      </trkpt>
      <trkpt lat="44.3353" lon="6.87473">
        <time>2023-04-16T06:31:35+00:00</time>
        <ele>2102.0</ele>
      </trkpt>
      <trkpt lat="44.33529" lon="6.8748">
        <time>2023-04-16T06:31:36+00:00</time>
        <ele>2101.0</ele>
      </trkpt>
      <trkpt lat="44.33529" lon="6.87486">
        <time>2023-04-16T06:31:37+00:00</time>
        <ele>2100.0</ele>
      </trkpt>
      <trkpt lat="44.33531" lon="6.87491">
        <time>2023-04-16T06:31:38+00:00</time>
        <ele>2098.0</ele>
      </trkpt>
      <trkpt lat="44.33536" lon="6.87497">
        <time>2023-04-16T06:31:39+00:00</time>
        <ele>2094.0</ele>
      </trkpt>
      <trkpt lat="44.33537" lon="6.87504">
        <time>2023-04-16T06:31:40+00:00</time>
        <ele>2092.0</ele>
      </trkpt>
      <trkpt lat="44.33541" lon="6.8751">
        <time>2023-04-16T06:31:41+00:00</time>
        <ele>2089.0</ele>
      </trkpt>
      <trkpt lat="44.33544" lon="6.87517">
        <time>2023-04-16T06:31:42+00:00</time>
        <ele>2086.0</ele>
      </trkpt>
      <trkpt lat="44.33545" lon="6.87524">
        <time>2023-04-16T06:31:43+00:00</time>
        <ele>2084.0</ele>
      </trkpt>
      <trkpt lat="44.33546" lon="6.8753">
        <time>2023-04-16T06:31:44+00:00</time>
        <ele>2082.0</ele>
      </trkpt>
      <trkpt lat="44.3355" lon="6.87537">
        <time>2023-04-16T06:31:45+00:00</time>
        <ele>2079.0</ele>
      </trkpt>
      <trkpt lat="44.3355" lon="6.87544">
        <time>2023-04-16T06:31:46+00:00</time>
        <ele>2078.0</ele>
      </trkpt>
      <trkpt lat="44.33548" lon="6.8755">
        <time>2023-04-16T06:31:47+00:00</time>
        <ele>2078.0</ele>
      </trkpt>
      <trkpt lat="44.33548" lon="6.87557">
        <time>2023-04-16T06:31:48+00:00</time>
        <ele>2076.0</ele>
      </trkpt>
      <trkpt lat="44.33549" lon="6.87563">
        <time>2023-04-16T06:31:49+00:00</time>
        <ele>2075.0</ele>
      </trkpt>
      <trkpt lat="44.33549" lon="6.8757">
        <time>2023-04-16T06:31:50+00:00</time>
        <ele>2074.0</ele>
      </trkpt>
      <trkpt lat="44.33551" lon="6.87575">
        <time>2023-04-16T06:31:51+00:00</time>
        <ele>2072.0</ele>
      </trkpt>
      <trkpt lat="44.33554" lon="6.87582">
        <time>2023-04-16T06:31:52+00:00</time>
        <ele>2070.0</ele>
      </trkpt>
      <trkpt lat="44.33555" lon="6.87588">
        <time>2023-04-16T06:31:53+00:00</time>
        <ele>2068.0</ele>
      </trkpt>
      <trkpt lat="44.33558" lon="6.87589">
        <time>2023-04-16T06:31:54+00:00</time>
        <ele>2067.0</ele>
      </trkpt>
      <trkpt lat="44.33559" lon="6.87589">
        <time>2023-04-16T06:31:55+00:00</time>
        <ele>2066.0</ele>
      </trkpt>
      <trkpt lat="44.3356" lon="6.87587">
        <time>2023-04-16T06:31:57+00:00</time>
        <ele>2066.0</ele>
      </trkpt>
      <trkpt lat="44.33561" lon="6.87584">
        <time>2023-04-16T06:32:01+00:00</time>
        <ele>2067.0</ele>
      </trkpt>
      <trkpt lat="44.33563" lon="6.8758">
        <time>2023-04-16T06:32:05+00:00</time>
        <ele>2067.0</ele>
      </trkpt>
      <trkpt lat="44.33566" lon="6.87578">
        <time>2023-04-16T06:32:26+00:00</time>
        <ele>2066.0</ele>
      </trkpt>
      <trkpt lat="44.33569" lon="6.87581">
        <time>2023-04-16T06:32:27+00:00</time>
        <ele>2065.0</ele>
      </trkpt>
      <trkpt lat="44.33571" lon="6.87585">
        <time>2023-04-16T06:32:28+00:00</time>
        <ele>2063.0</ele>
      </trkpt>
      <trkpt lat="44.33573" lon="6.87589">
        <time>2023-04-16T06:32:29+00:00</time>
        <ele>2062.0</ele>
      </trkpt>
      <trkpt lat="44.33575" lon="6.87594">
        <time>2023-04-16T06:32:30+00:00</time>
        <ele>2061.0</ele>
      </trkpt>
      <trkpt lat="44.33575" lon="6.87598">
        <time>2023-04-16T06:32:31+00:00</time>
        <ele>2060.0</ele>
      </trkpt>
      <trkpt lat="44.33575" lon="6.87603">
        <time>2023-04-16T06:32:32+00:00</time>
        <ele>2059.0</ele>
      </trkpt>
      <trkpt lat="44.33576" lon="6.87606">
        <time>2023-04-16T06:32:33+00:00</time>
        <ele>2059.0</ele>
      </trkpt>
      <trkpt lat="44.33578" lon="6.87612">
        <time>2023-04-16T06:32:35+00:00</time>
        <ele>2057.0</ele>
      </trkpt>
      <trkpt lat="44.3358" lon="6.87619">
        <time>2023-04-16T06:32:37+00:00</time>
        <ele>2056.0</ele>
      </trkpt>
      <trkpt lat="44.3358" lon="6.87627">
        <time>2023-04-16T06:32:39+00:00</time>
        <ele>2054.0</ele>
      </trkpt>
      <trkpt lat="44.33582" lon="6.87631">
        <time>2023-04-16T06:32:40+00:00</time>
        <ele>2053.0</ele>
      </trkpt>
      <trkpt lat="44.33584" lon="6.87633">
        <time>2023-04-16T06:32:41+00:00</time>
        <ele>2052.0</ele>
      </trkpt>
      <trkpt lat="44.33586" lon="6.87637">
        <time>2023-04-16T06:32:42+00:00</time>
        <ele>2051.0</ele>
      </trkpt>
      <trkpt lat="44.33587" lon="6.87641">
        <time>2023-04-16T06:32:43+00:00</time>
        <ele>2050.0</ele>
      </trkpt>
      <trkpt lat="44.33588" lon="6.87643">
        <time>2023-04-16T06:32:44+00:00</time>
        <ele>2049.0</ele>
      </trkpt>
      <trkpt lat="44.33589" lon="6.87645">
        <time>2023-04-16T06:32:45+00:00</time>
        <ele>2048.0</ele>
      </trkpt>
      <trkpt lat="44.33591" lon="6.87647">
        <time>2023-04-16T06:32:47+00:00</time>
        <ele>2047.0</ele>
      </trkpt>
      <trkpt lat="44.33594" lon="6.87647">
        <time>2023-04-16T06:32:49+00:00</time>
        <ele>2045.0</ele>
      </trkpt>
      <trkpt lat="44.33601" lon="6.87645">
        <time>2023-04-16T06:32:51+00:00</time>
        <ele>2042.0</ele>
      </trkpt>
      <trkpt lat="44.33605" lon="6.87644">
        <time>2023-04-16T06:32:53+00:00</time>
        <ele>2040.0</ele>
      </trkpt>
      <trkpt lat="44.3361" lon="6.8764">
        <time>2023-04-16T06:32:59+00:00</time>
        <ele>2038.0</ele>
      </trkpt>
      <trkpt lat="44.33613" lon="6.87636">
        <time>2023-04-16T06:33:05+00:00</time>
        <ele>2039.0</ele>
      </trkpt>
      <trkpt lat="44.33617" lon="6.87632">
        <time>2023-04-16T06:33:13+00:00</time>
        <ele>2039.0</ele>
      </trkpt>
      <trkpt lat="44.33621" lon="6.87629">
        <time>2023-04-16T06:33:16+00:00</time>
        <ele>2038.0</ele>
      </trkpt>
      <trkpt lat="44.33624" lon="6.87628">
        <time>2023-04-16T06:33:18+00:00</time>
        <ele>2037.0</ele>
      </trkpt>
      <trkpt lat="44.33626" lon="6.87629">
        <time>2023-04-16T06:33:19+00:00</time>
        <ele>2036.0</ele>
      </trkpt>
      <trkpt lat="44.33627" lon="6.87631">
        <time>2023-04-16T06:33:20+00:00</time>
        <ele>2035.0</ele>
      </trkpt>
      <trkpt lat="44.33627" lon="6.87633">
        <time>2023-04-16T06:33:21+00:00</time>
        <ele>2035.0</ele>
      </trkpt>
      <trkpt lat="44.33627" lon="6.87634">
        <time>2023-04-16T06:33:22+00:00</time>
        <ele>2035.0</ele>
      </trkpt>
      <trkpt lat="44.33626" lon="6.87638">
        <time>2023-04-16T06:33:24+00:00</time>
        <ele>2034.0</ele>
      </trkpt>
      <trkpt lat="44.33626" lon="6.8764">
        <time>2023-04-16T06:33:27+00:00</time>
        <ele>2033.0</ele>
      </trkpt>
      <trkpt lat="44.33626" lon="6.87643">
        <time>2023-04-16T06:33:31+00:00</time>
        <ele>2032.0</ele>
      </trkpt>
      <trkpt lat="44.33628" lon="6.87644">
        <time>2023-04-16T06:33:39+00:00</time>
        <ele>2031.0</ele>
      </trkpt>
      <trkpt lat="44.33628" lon="6.87642">
        <time>2023-04-16T06:33:45+00:00</time>
        <ele>2032.0</ele>
      </trkpt>
      <trkpt lat="44.33628" lon="6.87642">
        <time>2023-04-16T06:33:46+00:00</time>
        <ele>2032.0</ele>
      </trkpt>
      <trkpt lat="44.33629" lon="6.87641">
        <time>2023-04-16T06:33:47+00:00</time>
        <ele>2032.0</ele>
      </trkpt>
      <trkpt lat="44.3363" lon="6.87639">
        <time>2023-04-16T06:33:53+00:00</time>
        <ele>2032.0</ele>
      </trkpt>
      <trkpt lat="44.33633" lon="6.87634">
        <time>2023-04-16T06:34:14+00:00</time>
        <ele>2034.0</ele>
      </trkpt>
      <trkpt lat="44.33634" lon="6.87637">
        <time>2023-04-16T06:34:31+00:00</time>
        <ele>2033.0</ele>
      </trkpt>
      <trkpt lat="44.33635" lon="6.87639">
        <time>2023-04-16T06:34:32+00:00</time>
        <ele>2032.0</ele>
      </trkpt>
      <trkpt lat="44.33636" lon="6.8764">
        <time>2023-04-16T06:34:34+00:00</time>
        <ele>2032.0</ele>
      </trkpt>
      <trkpt lat="44.33638" lon="6.87638">
        <time>2023-04-16T06:34:44+00:00</time>
        <ele>2033.0</ele>
      </trkpt>
      <trkpt lat="44.33636" lon="6.87639">
        <time>2023-04-16T06:35:03+00:00</time>
        <ele>2032.0</ele>
      </trkpt>
      <trkpt lat="44.33636" lon="6.87638">
        <time>2023-04-16T06:35:05+00:00</time>
        <ele>2033.0</ele>
      </trkpt>
      <trkpt lat="44.33637" lon="6.87635">
        <time>2023-04-16T06:35:13+00:00</time>
        <ele>2033.0</ele>
      </trkpt>
      <trkpt lat="44.33637" lon="6.87635">
        <time>2023-04-16T06:35:16+00:00</time>
        <ele>2033.0</ele>
      </trkpt>
      <trkpt lat="44.33638" lon="6.87637">
        <time>2023-04-16T06:35:52+00:00</time>
        <ele>2033.0</ele>
      </trkpt>
      <trkpt lat="44.33639" lon="6.87641">
        <time>2023-04-16T06:35:54+00:00</time>
        <ele>2032.0</ele>
      </trkpt>
      <trkpt lat="44.33645" lon="6.87643">
        <time>2023-04-16T06:36:01+00:00</time>
        <ele>2031.0</ele>
      </trkpt>
      <trkpt lat="44.33646" lon="6.87645">
        <time>2023-04-16T06:36:03+00:00</time>
        <ele>2031.0</ele>
      </trkpt>
      <trkpt lat="44.33647" lon="6.87646">
        <time>2023-04-16T06:36:04+00:00</time>
        <ele>2031.0</ele>
      </trkpt>
      <trkpt lat="44.33651" lon="6.87649">
        <time>2023-04-16T06:36:08+00:00</time>
        <ele>2031.0</ele>
      </trkpt>
      <trkpt lat="44.33655" lon="6.8765">
        <time>2023-04-16T06:36:14+00:00</time>
        <ele>2032.0</ele>
      </trkpt>
      <trkpt lat="44.33656" lon="6.87654">
        <time>2023-04-16T06:36:19+00:00</time>
        <ele>2033.0</ele>
      </trkpt>
      <trkpt lat="44.33656" lon="6.87658">
        <time>2023-04-16T06:36:21+00:00</time>
        <ele>2033.0</ele>
      </trkpt>
      <trkpt lat="44.33654" lon="6.87664">
        <time>2023-04-16T06:36:28+00:00</time>
        <ele>2033.0</ele>
      </trkpt>
      <trkpt lat="44.3365" lon="6.87668">
        <time>2023-04-16T06:36:32+00:00</time>
        <ele>2033.0</ele>
      </trkpt>
      <trkpt lat="44.33649" lon="6.8767">
        <time>2023-04-16T06:36:33+00:00</time>
        <ele>2033.0</ele>
      </trkpt>
      <trkpt lat="44.33644" lon="6.87674">
        <time>2023-04-16T06:36:41+00:00</time>
        <ele>2033.0</ele>
      </trkpt>
      <trkpt lat="44.33644" lon="6.87674">
        <time>2023-04-16T06:36:42+00:00</time>
        <ele>2033.0</ele>
      </trkpt>
      <trkpt lat="44.33645" lon="6.87681">
        <time>2023-04-16T06:36:49+00:00</time>
        <ele>2036.0</ele>
      </trkpt>
      <trkpt lat="44.33649" lon="6.87684">
        <time>2023-04-16T06:36:58+00:00</time>
        <ele>2037.0</ele>
      </trkpt>
      <trkpt lat="44.33645" lon="6.87686">
        <time>2023-04-16T06:37:10+00:00</time>
        <ele>2038.0</ele>
      </trkpt>
      <trkpt lat="44.33649" lon="6.87684">
        <time>2023-04-16T06:37:52+00:00</time>
        <ele>2037.0</ele>
      </trkpt>
      <trkpt lat="44.33645" lon="6.87687">
        <time>2023-04-16T06:39:17+00:00</time>
        <ele>2038.0</ele>
      </trkpt>
      <trkpt lat="44.33644" lon="6.87691">
        <time>2023-04-16T06:39:31+00:00</time>
        <ele>2040.0</ele>
      </trkpt>
      <trkpt lat="44.33645" lon="6.8769">
        <time>2023-04-16T06:39:40+00:00</time>
        <ele>2039.0</ele>
      </trkpt>
      <trkpt lat="44.33646" lon="6.87686">
        <time>2023-04-16T06:40:03+00:00</time>
        <ele>2038.0</ele>
      </trkpt>
      <trkpt lat="44.3365" lon="6.87685">
        <time>2023-04-16T06:40:34+00:00</time>
        <ele>2037.0</ele>
      </trkpt>
      <trkpt lat="44.33643" lon="6.87689">
        <time>2023-04-16T06:41:21+00:00</time>
        <ele>2039.0</ele>
      </trkpt>
      <trkpt lat="44.33644" lon="6.87688">
        <time>2023-04-16T06:41:36+00:00</time>
        <ele>2039.0</ele>
      </trkpt>
      <trkpt lat="44.33644" lon="6.87688">
        <time>2023-04-16T06:41:44+00:00</time>
        <ele>2039.0</ele>
      </trkpt>
      <trkpt lat="44.33648" lon="6.87685">
        <time>2023-04-16T06:41:59+00:00</time>
        <ele>2038.0</ele>
      </trkpt>
      <trkpt lat="44.33651" lon="6.87688">
        <time>2023-04-16T06:42:25+00:00</time>
        <ele>2038.0</ele>
      </trkpt>
      <trkpt lat="44.33651" lon="6.87698">
        <time>2023-04-16T06:42:54+00:00</time>
        <ele>2041.0</ele>
      </trkpt>
      <trkpt lat="44.33653" lon="6.87699">
        <time>2023-04-16T06:42:57+00:00</time>
        <ele>2041.0</ele>
      </trkpt>
      <trkpt lat="44.33656" lon="6.877">
        <time>2023-04-16T06:43:01+00:00</time>
        <ele>2041.0</ele>
      </trkpt>
      <trkpt lat="44.3366" lon="6.87701">
        <time>2023-04-16T06:43:05+00:00</time>
        <ele>2040.0</ele>
      </trkpt>
      <trkpt lat="44.33663" lon="6.87703">
        <time>2023-04-16T06:43:07+00:00</time>
        <ele>2039.0</ele>
      </trkpt>
      <trkpt lat="44.33665" lon="6.87705">
        <time>2023-04-16T06:43:09+00:00</time>
        <ele>2039.0</ele>
      </trkpt>
      <trkpt lat="44.3367" lon="6.87723">
        <time>2023-04-16T06:43:24+00:00</time>
        <ele>2041.0</ele>
      </trkpt>
      <trkpt lat="44.33668" lon="6.87726">
        <time>2023-04-16T06:44:00+00:00</time>
        <ele>2042.0</ele>
      </trkpt>
      <trkpt lat="44.33671" lon="6.87727">
        <time>2023-04-16T06:44:19+00:00</time>
        <ele>2042.0</ele>
      </trkpt>
      <trkpt lat="44.33673" lon="6.87724">
        <time>2023-04-16T06:44:26+00:00</time>
        <ele>2041.0</ele>
      </trkpt>
      <trkpt lat="44.33674" lon="6.87723">
        <time>2023-04-16T06:44:33+00:00</time>
        <ele>2040.0</ele>
      </trkpt>
      <trkpt lat="44.33676" lon="6.8772">
        <time>2023-04-16T06:44:38+00:00</time>
        <ele>2039.0</ele>
      </trkpt>
      <trkpt lat="44.33679" lon="6.87713">
        <time>2023-04-16T06:44:52+00:00</time>
        <ele>2038.0</ele>
      </trkpt>
      <trkpt lat="44.33677" lon="6.87713">
        <time>2023-04-16T06:44:56+00:00</time>
        <ele>2038.0</ele>
      </trkpt>
      <trkpt lat="44.33674" lon="6.87715">
        <time>2023-04-16T06:45:05+00:00</time>
        <ele>2039.0</ele>
      </trkpt>
      <trkpt lat="44.33673" lon="6.87717">
        <time>2023-04-16T06:45:12+00:00</time>
        <ele>2040.0</ele>
      </trkpt>
      <trkpt lat="44.33668" lon="6.87725">
        <time>2023-04-16T06:45:32+00:00</time>
        <ele>2042.0</ele>
      </trkpt>
      <trkpt lat="44.33667" lon="6.87726">
        <time>2023-04-16T06:45:35+00:00</time>
        <ele>2043.0</ele>
      </trkpt>
      <trkpt lat="44.33665" lon="6.87727">
        <time>2023-04-16T06:45:37+00:00</time>
        <ele>2044.0</ele>
      </trkpt>
      <trkpt lat="44.33667" lon="6.87725">
        <time>2023-04-16T06:45:38+00:00</time>
        <ele>2042.0</ele>
      </trkpt>
      <trkpt lat="44.33673" lon="6.87724">
        <time>2023-04-16T06:45:55+00:00</time>
        <ele>2041.0</ele>
      </trkpt>
      <trkpt lat="44.33673" lon="6.87724">
        <time>2023-04-16T06:46:01+00:00</time>
        <ele>2041.0</ele>
      </trkpt>
      <trkpt lat="44.33672" lon="6.87725">
        <time>2023-04-16T06:46:11+00:00</time>
        <ele>2041.0</ele>
      </trkpt>
      <trkpt lat="44.33672" lon="6.87724">
        <time>2023-04-16T06:46:20+00:00</time>
        <ele>2041.0</ele>
      </trkpt>
      <trkpt lat="44.3367" lon="6.87722">
        <time>2023-04-16T06:46:33+00:00</time>
        <ele>2041.0</ele>
      </trkpt>
      <trkpt lat="44.33677" lon="6.87723">
        <time>2023-04-16T06:46:57+00:00</time>
        <ele>2040.0</ele>
      </trkpt>
      <trkpt lat="44.33678" lon="6.87727">
        <time>2023-04-16T06:47:00+00:00</time>
        <ele>2040.0</ele>
      </trkpt>
      <trkpt lat="44.33678" lon="6.87731">
        <time>2023-04-16T06:47:02+00:00</time>
        <ele>2041.0</ele>
      </trkpt>
      <trkpt lat="44.33682" lon="6.8774">
        <time>2023-04-16T06:47:11+00:00</time>
        <ele>2041.0</ele>
      </trkpt>
      <trkpt lat="44.33679" lon="6.87744">
        <time>2023-04-16T06:47:13+00:00</time>
        <ele>2043.0</ele>
      </trkpt>
      <trkpt lat="44.33678" lon="6.87746">
        <time>2023-04-16T06:47:14+00:00</time>
        <ele>2043.0</ele>
      </trkpt>
      <trkpt lat="44.33679" lon="6.8775">
        <time>2023-04-16T06:47:17+00:00</time>
        <ele>2044.0</ele>
      </trkpt>
      <trkpt lat="44.33681" lon="6.87755">
        <time>2023-04-16T06:47:21+00:00</time>
        <ele>2044.0</ele>
      </trkpt>
      <trkpt lat="44.33681" lon="6.87757">
        <time>2023-04-16T06:47:23+00:00</time>
        <ele>2044.0</ele>
      </trkpt>
      <trkpt lat="44.33681" lon="6.87758">
        <time>2023-04-16T06:47:24+00:00</time>
        <ele>2044.0</ele>
      </trkpt>
      <trkpt lat="44.33682" lon="6.87761">
        <time>2023-04-16T06:47:27+00:00</time>
        <ele>2044.0</ele>
      </trkpt>
      <trkpt lat="44.33685" lon="6.87764">
        <time>2023-04-16T06:47:31+00:00</time>
        <ele>2043.0</ele>
      </trkpt>
      <trkpt lat="44.33686" lon="6.87765">
        <time>2023-04-16T06:47:32+00:00</time>
        <ele>2043.0</ele>
      </trkpt>
      <trkpt lat="44.33688" lon="6.87764">
        <time>2023-04-16T06:47:33+00:00</time>
        <ele>2042.0</ele>
      </trkpt>
      <trkpt lat="44.3369" lon="6.87768">
        <time>2023-04-16T06:47:38+00:00</time>
        <ele>2042.0</ele>
      </trkpt>
      <trkpt lat="44.33692" lon="6.87772">
        <time>2023-04-16T06:47:42+00:00</time>
        <ele>2042.0</ele>
      </trkpt>
      <trkpt lat="44.33692" lon="6.87775">
        <time>2023-04-16T06:47:44+00:00</time>
        <ele>2042.0</ele>
      </trkpt>
      <trkpt lat="44.33691" lon="6.87777">
        <time>2023-04-16T06:47:46+00:00</time>
        <ele>2043.0</ele>
      </trkpt>
      <trkpt lat="44.3369" lon="6.87779">
        <time>2023-04-16T06:47:47+00:00</time>
        <ele>2043.0</ele>
      </trkpt>
      <trkpt lat="44.33689" lon="6.8778">
        <time>2023-04-16T06:47:48+00:00</time>
        <ele>2043.0</ele>
      </trkpt>
      <trkpt lat="44.33689" lon="6.87781">
        <time>2023-04-16T06:47:49+00:00</time>
        <ele>2043.0</ele>
      </trkpt>
      <trkpt lat="44.33688" lon="6.87786">
        <time>2023-04-16T06:47:53+00:00</time>
        <ele>2044.0</ele>
      </trkpt>
      <trkpt lat="44.33688" lon="6.87789">
        <time>2023-04-16T06:47:57+00:00</time>
        <ele>2044.0</ele>
      </trkpt>
      <trkpt lat="44.33686" lon="6.87794">
        <time>2023-04-16T06:48:02+00:00</time>
        <ele>2045.0</ele>
      </trkpt>
      <trkpt lat="44.33686" lon="6.87798">
        <time>2023-04-16T06:48:05+00:00</time>
        <ele>2046.0</ele>
      </trkpt>
      <trkpt lat="44.33686" lon="6.87799">
        <time>2023-04-16T06:48:07+00:00</time>
        <ele>2046.0</ele>
      </trkpt>
      <trkpt lat="44.33684" lon="6.87808">
        <time>2023-04-16T06:48:50+00:00</time>
        <ele>2047.0</ele>
      </trkpt>
      <trkpt lat="44.33685" lon="6.87807">
        <time>2023-04-16T06:49:23+00:00</time>
        <ele>2047.0</ele>
      </trkpt>
      <trkpt lat="44.33685" lon="6.87807">
        <time>2023-04-16T06:49:31+00:00</time>
        <ele>2047.0</ele>
      </trkpt>
      <trkpt lat="44.33682" lon="6.87816">
        <time>2023-04-16T06:49:39+00:00</time>
        <ele>2049.0</ele>
      </trkpt>
      <trkpt lat="44.33683" lon="6.87819">
        <time>2023-04-16T06:49:41+00:00</time>
        <ele>2049.0</ele>
      </trkpt>
      <trkpt lat="44.33686" lon="6.87826">
        <time>2023-04-16T06:49:48+00:00</time>
        <ele>2049.0</ele>
      </trkpt>
      <trkpt lat="44.33689" lon="6.87835">
        <time>2023-04-16T06:49:56+00:00</time>
        <ele>2050.0</ele>
      </trkpt>
      <trkpt lat="44.33691" lon="6.87841">
        <time>2023-04-16T06:50:02+00:00</time>
        <ele>2051.0</ele>
      </trkpt>
      <trkpt lat="44.33692" lon="6.87843">
        <time>2023-04-16T06:50:04+00:00</time>
        <ele>2051.0</ele>
      </trkpt>
      <trkpt lat="44.33692" lon="6.87844">
        <time>2023-04-16T06:50:05+00:00</time>
        <ele>2051.0</ele>
      </trkpt>
      <trkpt lat="44.33692" lon="6.87851">
        <time>2023-04-16T06:50:11+00:00</time>
        <ele>2052.0</ele>
      </trkpt>
      <trkpt lat="44.33691" lon="6.87853">
        <time>2023-04-16T06:50:13+00:00</time>
        <ele>2052.0</ele>
      </trkpt>
      <trkpt lat="44.33693" lon="6.87856">
        <time>2023-04-16T06:50:16+00:00</time>
        <ele>2052.0</ele>
      </trkpt>
      <trkpt lat="44.33694" lon="6.87859">
        <time>2023-04-16T06:50:19+00:00</time>
        <ele>2052.0</ele>
      </trkpt>
      <trkpt lat="44.33695" lon="6.8786">
        <time>2023-04-16T06:50:20+00:00</time>
        <ele>2052.0</ele>
      </trkpt>
      <trkpt lat="44.33695" lon="6.87869">
        <time>2023-04-16T06:50:27+00:00</time>
        <ele>2053.0</ele>
      </trkpt>
      <trkpt lat="44.33697" lon="6.87872">
        <time>2023-04-16T06:50:29+00:00</time>
        <ele>2053.0</ele>
      </trkpt>
      <trkpt lat="44.33699" lon="6.87883">
        <time>2023-04-16T06:50:38+00:00</time>
        <ele>2054.0</ele>
      </trkpt>
      <trkpt lat="44.33699" lon="6.87887">
        <time>2023-04-16T06:50:41+00:00</time>
        <ele>2055.0</ele>
      </trkpt>
      <trkpt lat="44.33701" lon="6.87899">
        <time>2023-04-16T06:50:51+00:00</time>
        <ele>2059.0</ele>
      </trkpt>
      <trkpt lat="44.33703" lon="6.87906">
        <time>2023-04-16T06:50:58+00:00</time>
        <ele>2061.0</ele>
      </trkpt>
      <trkpt lat="44.33721" lon="6.87921">
        <time>2023-04-16T06:51:13+00:00</time>
        <ele>2058.0</ele>
      </trkpt>
      <trkpt lat="44.33728" lon="6.87934">
        <time>2023-04-16T06:51:24+00:00</time>
        <ele>2059.0</ele>
      </trkpt>
      <trkpt lat="44.33729" lon="6.87936">
        <time>2023-04-16T06:51:26+00:00</time>
        <ele>2059.0</ele>
      </trkpt>
      <trkpt lat="44.3373" lon="6.87937">
        <time>2023-04-16T06:51:27+00:00</time>
        <ele>2059.0</ele>
      </trkpt>
      <trkpt lat="44.33731" lon="6.87939">
        <time>2023-04-16T06:51:29+00:00</time>
        <ele>2059.0</ele>
      </trkpt>
      <trkpt lat="44.33732" lon="6.87942">
        <time>2023-04-16T06:51:32+00:00</time>
        <ele>2060.0</ele>
      </trkpt>
      <trkpt lat="44.33734" lon="6.87944">
        <time>2023-04-16T06:51:34+00:00</time>
        <ele>2060.0</ele>
      </trkpt>
      <trkpt lat="44.33734" lon="6.87945">
        <time>2023-04-16T06:51:35+00:00</time>
        <ele>2060.0</ele>
      </trkpt>
      <trkpt lat="44.33743" lon="6.87954">
        <time>2023-04-16T06:51:47+00:00</time>
        <ele>2060.0</ele>
      </trkpt>
      <trkpt lat="44.33744" lon="6.87955">
        <time>2023-04-16T06:51:49+00:00</time>
        <ele>2060.0</ele>
      </trkpt>
      <trkpt lat="44.33747" lon="6.87958">
        <time>2023-04-16T06:51:53+00:00</time>
        <ele>2060.0</ele>
      </trkpt>
      <trkpt lat="44.33756" lon="6.87971">
        <time>2023-04-16T06:52:07+00:00</time>
        <ele>2060.0</ele>
      </trkpt>
      <trkpt lat="44.33759" lon="6.87975">
        <time>2023-04-16T06:52:11+00:00</time>
        <ele>2059.0</ele>
      </trkpt>
      <trkpt lat="44.3376" lon="6.87977">
        <time>2023-04-16T06:52:13+00:00</time>
        <ele>2059.0</ele>
      </trkpt>
      <trkpt lat="44.3376" lon="6.87979">
        <time>2023-04-16T06:52:14+00:00</time>
        <ele>2060.0</ele>
      </trkpt>
      <trkpt lat="44.33761" lon="6.8798">
        <time>2023-04-16T06:52:15+00:00</time>
        <ele>2060.0</ele>
      </trkpt>
      <trkpt lat="44.33761" lon="6.87981">
        <time>2023-04-16T06:52:16+00:00</time>
        <ele>2060.0</ele>
      </trkpt>
      <trkpt lat="44.33762" lon="6.87983">
        <time>2023-04-16T06:52:18+00:00</time>
        <ele>2060.0</ele>
      </trkpt>
      <trkpt lat="44.33762" lon="6.87985">
        <time>2023-04-16T06:52:19+00:00</time>
        <ele>2061.0</ele>
      </trkpt>
      <trkpt lat="44.33762" lon="6.87986">
        <time>2023-04-16T06:52:20+00:00</time>
        <ele>2061.0</ele>
      </trkpt>
      <trkpt lat="44.33766" lon="6.87989">
        <time>2023-04-16T06:52:24+00:00</time>
        <ele>2060.0</ele>
      </trkpt>
      <trkpt lat="44.33767" lon="6.8799">
        <time>2023-04-16T06:52:25+00:00</time>
        <ele>2060.0</ele>
      </trkpt>
      <trkpt lat="44.3377" lon="6.87993">
        <time>2023-04-16T06:52:29+00:00</time>
        <ele>2060.0</ele>
      </trkpt>
      <trkpt lat="44.33781" lon="6.88">
        <time>2023-04-16T06:52:40+00:00</time>
        <ele>2058.0</ele>
      </trkpt>
      <trkpt lat="44.33777" lon="6.88008">
        <time>2023-04-16T06:52:44+00:00</time>
        <ele>2062.0</ele>
      </trkpt>
      <trkpt lat="44.3378" lon="6.88011">
        <time>2023-04-16T06:52:50+00:00</time>
        <ele>2062.0</ele>
      </trkpt>
      <trkpt lat="44.33788" lon="6.88014">
        <time>2023-04-16T06:52:57+00:00</time>
        <ele>2062.0</ele>
      </trkpt>
      <trkpt lat="44.33793" lon="6.88019">
        <time>2023-04-16T06:53:05+00:00</time>
        <ele>2063.0</ele>
      </trkpt>
      <trkpt lat="44.33793" lon="6.88021">
        <time>2023-04-16T06:53:07+00:00</time>
        <ele>2063.0</ele>
      </trkpt>
      <trkpt lat="44.33798" lon="6.88024">
        <time>2023-04-16T06:53:14+00:00</time>
        <ele>2064.0</ele>
      </trkpt>
      <trkpt lat="44.338" lon="6.88025">
        <time>2023-04-16T06:53:16+00:00</time>
        <ele>2063.0</ele>
      </trkpt>
      <trkpt lat="44.33806" lon="6.8803">
        <time>2023-04-16T06:53:23+00:00</time>
        <ele>2063.0</ele>
      </trkpt>
      <trkpt lat="44.33807" lon="6.88031">
        <time>2023-04-16T06:53:25+00:00</time>
        <ele>2063.0</ele>
      </trkpt>
      <trkpt lat="44.33807" lon="6.88033">
        <time>2023-04-16T06:53:27+00:00</time>
        <ele>2064.0</ele>
      </trkpt>
      <trkpt lat="44.33807" lon="6.88035">
        <time>2023-04-16T06:53:40+00:00</time>
        <ele>2064.0</ele>
      </trkpt>
      <trkpt lat="44.33809" lon="6.88038">
        <time>2023-04-16T06:53:45+00:00</time>
        <ele>2064.0</ele>
      </trkpt>
      <trkpt lat="44.33809" lon="6.88037">
        <time>2023-04-16T06:53:51+00:00</time>
        <ele>2064.0</ele>
      </trkpt>
      <trkpt lat="44.33809" lon="6.88041">
        <time>2023-04-16T06:54:10+00:00</time>
        <ele>2065.0</ele>
      </trkpt>
      <trkpt lat="44.33807" lon="6.88042">
        <time>2023-04-16T06:54:17+00:00</time>
        <ele>2065.0</ele>
      </trkpt>
      <trkpt lat="44.33807" lon="6.8804">
        <time>2023-04-16T06:54:24+00:00</time>
        <ele>2065.0</ele>
      </trkpt>
      <trkpt lat="44.33811" lon="6.88038">
        <time>2023-04-16T06:54:30+00:00</time>
        <ele>2064.0</ele>
      </trkpt>
      <trkpt lat="44.33808" lon="6.8804">
        <time>2023-04-16T06:54:36+00:00</time>
        <ele>2065.0</ele>
      </trkpt>
      <trkpt lat="44.33808" lon="6.88038">
        <time>2023-04-16T06:54:40+00:00</time>
        <ele>2064.0</ele>
      </trkpt>
      <trkpt lat="44.33805" lon="6.88038">
        <time>2023-04-16T06:54:52+00:00</time>
        <ele>2065.0</ele>
      </trkpt>
      <trkpt lat="44.33807" lon="6.88039">
        <time>2023-04-16T06:55:04+00:00</time>
        <ele>2065.0</ele>
      </trkpt>
      <trkpt lat="44.33809" lon="6.8804">
        <time>2023-04-16T06:55:09+00:00</time>
        <ele>2064.0</ele>
      </trkpt>
      <trkpt lat="44.33811" lon="6.88045">
        <time>2023-04-16T06:55:13+00:00</time>
        <ele>2065.0</ele>
      </trkpt>
      <trkpt lat="44.33812" lon="6.88048">
        <time>2023-04-16T06:55:17+00:00</time>
        <ele>2065.0</ele>
      </trkpt>
      <trkpt lat="44.33814" lon="6.88052">
        <time>2023-04-16T06:55:23+00:00</time>
        <ele>2064.0</ele>
      </trkpt>
      <trkpt lat="44.33816" lon="6.88055">
        <time>2023-04-16T06:55:26+00:00</time>
        <ele>2064.0</ele>
      </trkpt>
      <trkpt lat="44.33814" lon="6.88069">
        <time>2023-04-16T06:55:34+00:00</time>
        <ele>2066.0</ele>
      </trkpt>
      <trkpt lat="44.33814" lon="6.88072">
        <time>2023-04-16T06:55:36+00:00</time>
        <ele>2066.0</ele>
      </trkpt>
      <trkpt lat="44.33814" lon="6.88073">
        <time>2023-04-16T06:55:37+00:00</time>
        <ele>2066.0</ele>
      </trkpt>
      <trkpt lat="44.33812" lon="6.88075">
        <time>2023-04-16T06:55:38+00:00</time>
        <ele>2067.0</ele>
      </trkpt>
      <trkpt lat="44.33813" lon="6.88082">
        <time>2023-04-16T06:55:43+00:00</time>
        <ele>2068.0</ele>
      </trkpt>
      <trkpt lat="44.33813" lon="6.88083">
        <time>2023-04-16T06:55:44+00:00</time>
        <ele>2068.0</ele>
      </trkpt>
      <trkpt lat="44.33814" lon="6.88084">
        <time>2023-04-16T06:55:45+00:00</time>
        <ele>2068.0</ele>
      </trkpt>
      <trkpt lat="44.33815" lon="6.88089">
        <time>2023-04-16T06:55:49+00:00</time>
        <ele>2069.0</ele>
      </trkpt>
      <trkpt lat="44.33816" lon="6.88093">
        <time>2023-04-16T06:55:52+00:00</time>
        <ele>2069.0</ele>
      </trkpt>
      <trkpt lat="44.33818" lon="6.88102">
        <time>2023-04-16T06:56:00+00:00</time>
        <ele>2069.0</ele>
      </trkpt>
      <trkpt lat="44.3382" lon="6.88105">
        <time>2023-04-16T06:56:03+00:00</time>
        <ele>2069.0</ele>
      </trkpt>
      <trkpt lat="44.33821" lon="6.88107">
        <time>2023-04-16T06:56:05+00:00</time>
        <ele>2069.0</ele>
      </trkpt>
      <trkpt lat="44.33822" lon="6.88109">
        <time>2023-04-16T06:56:07+00:00</time>
        <ele>2069.0</ele>
      </trkpt>
      <trkpt lat="44.33822" lon="6.88109">
        <time>2023-04-16T06:56:08+00:00</time>
        <ele>2069.0</ele>
      </trkpt>
      <trkpt lat="44.33823" lon="6.8811">
        <time>2023-04-16T06:56:09+00:00</time>
        <ele>2069.0</ele>
      </trkpt>
      <trkpt lat="44.33825" lon="6.88111">
        <time>2023-04-16T06:56:12+00:00</time>
        <ele>2069.0</ele>
      </trkpt>
      <trkpt lat="44.33826" lon="6.88111">
        <time>2023-04-16T06:56:13+00:00</time>
        <ele>2069.0</ele>
      </trkpt>
      <trkpt lat="44.33827" lon="6.88112">
        <time>2023-04-16T06:56:14+00:00</time>
        <ele>2069.0</ele>
      </trkpt>
      <trkpt lat="44.33828" lon="6.88113">
        <time>2023-04-16T06:56:15+00:00</time>
        <ele>2069.0</ele>
      </trkpt>
      <trkpt lat="44.33829" lon="6.88114">
        <time>2023-04-16T06:56:16+00:00</time>
        <ele>2069.0</ele>
      </trkpt>
      <trkpt lat="44.3383" lon="6.88115">
        <time>2023-04-16T06:56:17+00:00</time>
        <ele>2069.0</ele>
      </trkpt>
      <trkpt lat="44.33831" lon="6.88115">
        <time>2023-04-16T06:56:18+00:00</time>
        <ele>2069.0</ele>
      </trkpt>
      <trkpt lat="44.33833" lon="6.88116">
        <time>2023-04-16T06:56:20+00:00</time>
        <ele>2069.0</ele>
      </trkpt>
      <trkpt lat="44.33835" lon="6.88119">
        <time>2023-04-16T06:56:23+00:00</time>
        <ele>2069.0</ele>
      </trkpt>
      <trkpt lat="44.33842" lon="6.88136">
        <time>2023-04-16T06:56:37+00:00</time>
        <ele>2069.0</ele>
      </trkpt>
      <trkpt lat="44.33842" lon="6.88138">
        <time>2023-04-16T06:56:39+00:00</time>
        <ele>2070.0</ele>
      </trkpt>
      <trkpt lat="44.33848" lon="6.88155">
        <time>2023-04-16T06:56:54+00:00</time>
        <ele>2071.0</ele>
      </trkpt>
      <trkpt lat="44.33848" lon="6.88156">
        <time>2023-04-16T06:56:55+00:00</time>
        <ele>2071.0</ele>
      </trkpt>
      <trkpt lat="44.33848" lon="6.88169">
        <time>2023-04-16T06:57:04+00:00</time>
        <ele>2073.0</ele>
      </trkpt>
      <trkpt lat="44.33849" lon="6.88187">
        <time>2023-04-16T06:57:17+00:00</time>
        <ele>2074.0</ele>
      </trkpt>
      <trkpt lat="44.33849" lon="6.88193">
        <time>2023-04-16T06:57:21+00:00</time>
        <ele>2075.0</ele>
      </trkpt>
      <trkpt lat="44.33851" lon="6.88213">
        <time>2023-04-16T06:57:34+00:00</time>
        <ele>2077.0</ele>
      </trkpt>
      <trkpt lat="44.33857" lon="6.88227">
        <time>2023-04-16T06:57:46+00:00</time>
        <ele>2079.0</ele>
      </trkpt>
      <trkpt lat="44.33861" lon="6.88234">
        <time>2023-04-16T06:57:54+00:00</time>
        <ele>2080.0</ele>
      </trkpt>
      <trkpt lat="44.33862" lon="6.88237">
        <time>2023-04-16T06:57:57+00:00</time>
        <ele>2081.0</ele>
      </trkpt>
      <trkpt lat="44.33871" lon="6.88242">
        <time>2023-04-16T06:58:10+00:00</time>
        <ele>2081.0</ele>
      </trkpt>
      <trkpt lat="44.33874" lon="6.88243">
        <time>2023-04-16T06:58:14+00:00</time>
        <ele>2081.0</ele>
      </trkpt>
      <trkpt lat="44.33874" lon="6.88244">
        <time>2023-04-16T06:58:15+00:00</time>
        <ele>2081.0</ele>
      </trkpt>
      <trkpt lat="44.33879" lon="6.88245">
        <time>2023-04-16T06:58:35+00:00</time>
        <ele>2080.0</ele>
      </trkpt>
      <trkpt lat="44.33886" lon="6.88242">
        <time>2023-04-16T06:58:45+00:00</time>
        <ele>2078.0</ele>
      </trkpt>
      <trkpt lat="44.33893" lon="6.88239">
        <time>2023-04-16T06:59:04+00:00</time>
        <ele>2077.0</ele>
      </trkpt>
      <trkpt lat="44.33895" lon="6.88238">
        <time>2023-04-16T06:59:05+00:00</time>
        <ele>2077.0</ele>
      </trkpt>
      <trkpt lat="44.33896" lon="6.88248">
        <time>2023-04-16T06:59:20+00:00</time>
        <ele>2079.0</ele>
      </trkpt>
      <trkpt lat="44.3391" lon="6.88259">
        <time>2023-04-16T06:59:34+00:00</time>
        <ele>2079.0</ele>
      </trkpt>
      <trkpt lat="44.3392" lon="6.88269">
        <time>2023-04-16T06:59:45+00:00</time>
        <ele>2080.0</ele>
      </trkpt>
      <trkpt lat="44.33918" lon="6.88274">
        <time>2023-04-16T06:59:53+00:00</time>
        <ele>2081.0</ele>
      </trkpt>
      <trkpt lat="44.33919" lon="6.88275">
        <time>2023-04-16T06:59:58+00:00</time>
        <ele>2082.0</ele>
      </trkpt>
      <trkpt lat="44.33924" lon="6.88275">
        <time>2023-04-16T07:00:02+00:00</time>
        <ele>2082.0</ele>
      </trkpt>
      <trkpt lat="44.33935" lon="6.88281">
        <time>2023-04-16T07:00:12+00:00</time>
        <ele>2083.0</ele>
      </trkpt>
      <trkpt lat="44.33939" lon="6.88286">
        <time>2023-04-16T07:00:17+00:00</time>
        <ele>2083.0</ele>
      </trkpt>
      <trkpt lat="44.33939" lon="6.88287">
        <time>2023-04-16T07:00:18+00:00</time>
        <ele>2083.0</ele>
      </trkpt>
      <trkpt lat="44.33941" lon="6.88289">
        <time>2023-04-16T07:00:20+00:00</time>
        <ele>2083.0</ele>
      </trkpt>
      <trkpt lat="44.33949" lon="6.88297">
        <time>2023-04-16T07:00:28+00:00</time>
        <ele>2084.0</ele>
      </trkpt>
      <trkpt lat="44.33954" lon="6.88303">
        <time>2023-04-16T07:00:33+00:00</time>
        <ele>2084.0</ele>
      </trkpt>
      <trkpt lat="44.33963" lon="6.88318">
        <time>2023-04-16T07:00:45+00:00</time>
        <ele>2085.0</ele>
      </trkpt>
      <trkpt lat="44.33964" lon="6.88319">
        <time>2023-04-16T07:00:46+00:00</time>
        <ele>2085.0</ele>
      </trkpt>
      <trkpt lat="44.33965" lon="6.88326">
        <time>2023-04-16T07:00:51+00:00</time>
        <ele>2085.0</ele>
      </trkpt>
      <trkpt lat="44.33965" lon="6.88348">
        <time>2023-04-16T07:01:04+00:00</time>
        <ele>2088.0</ele>
      </trkpt>
      <trkpt lat="44.33969" lon="6.88363">
        <time>2023-04-16T07:01:15+00:00</time>
        <ele>2091.0</ele>
      </trkpt>
      <trkpt lat="44.33973" lon="6.88369">
        <time>2023-04-16T07:01:32+00:00</time>
        <ele>2091.0</ele>
      </trkpt>
      <trkpt lat="44.33976" lon="6.88369">
        <time>2023-04-16T07:01:35+00:00</time>
        <ele>2090.0</ele>
      </trkpt>
      <trkpt lat="44.33979" lon="6.8837">
        <time>2023-04-16T07:01:38+00:00</time>
        <ele>2090.0</ele>
      </trkpt>
      <trkpt lat="44.33991" lon="6.88371">
        <time>2023-04-16T07:01:52+00:00</time>
        <ele>2090.0</ele>
      </trkpt>
      <trkpt lat="44.33993" lon="6.88372">
        <time>2023-04-16T07:01:54+00:00</time>
        <ele>2090.0</ele>
      </trkpt>
      <trkpt lat="44.34" lon="6.88376">
        <time>2023-04-16T07:02:01+00:00</time>
        <ele>2090.0</ele>
      </trkpt>
      <trkpt lat="44.34001" lon="6.88377">
        <time>2023-04-16T07:02:03+00:00</time>
        <ele>2091.0</ele>
      </trkpt>
      <trkpt lat="44.34008" lon="6.88382">
        <time>2023-04-16T07:02:11+00:00</time>
        <ele>2092.0</ele>
      </trkpt>
      <trkpt lat="44.34009" lon="6.88382">
        <time>2023-04-16T07:02:12+00:00</time>
        <ele>2092.0</ele>
      </trkpt>
      <trkpt lat="44.34017" lon="6.88384">
        <time>2023-04-16T07:02:19+00:00</time>
        <ele>2093.0</ele>
      </trkpt>
      <trkpt lat="44.34018" lon="6.88385">
        <time>2023-04-16T07:02:20+00:00</time>
        <ele>2093.0</ele>
      </trkpt>
      <trkpt lat="44.34022" lon="6.88389">
        <time>2023-04-16T07:02:24+00:00</time>
        <ele>2094.0</ele>
      </trkpt>
      <trkpt lat="44.34033" lon="6.88399">
        <time>2023-04-16T07:02:37+00:00</time>
        <ele>2096.0</ele>
      </trkpt>
      <trkpt lat="44.34034" lon="6.88401">
        <time>2023-04-16T07:02:39+00:00</time>
        <ele>2097.0</ele>
      </trkpt>
      <trkpt lat="44.34039" lon="6.88406">
        <time>2023-04-16T07:02:47+00:00</time>
        <ele>2098.0</ele>
      </trkpt>
      <trkpt lat="44.34042" lon="6.88409">
        <time>2023-04-16T07:02:51+00:00</time>
        <ele>2098.0</ele>
      </trkpt>
      <trkpt lat="44.34043" lon="6.88409">
        <time>2023-04-16T07:02:52+00:00</time>
        <ele>2098.0</ele>
      </trkpt>
      <trkpt lat="44.34064" lon="6.88429">
        <time>2023-04-16T07:03:16+00:00</time>
        <ele>2099.0</ele>
      </trkpt>
      <trkpt lat="44.34071" lon="6.88437">
        <time>2023-04-16T07:03:26+00:00</time>
        <ele>2099.0</ele>
      </trkpt>
      <trkpt lat="44.34077" lon="6.88448">
        <time>2023-04-16T07:03:37+00:00</time>
        <ele>2101.0</ele>
      </trkpt>
      <trkpt lat="44.34085" lon="6.88454">
        <time>2023-04-16T07:03:45+00:00</time>
        <ele>2101.0</ele>
      </trkpt>
      <trkpt lat="44.34087" lon="6.88455">
        <time>2023-04-16T07:03:46+00:00</time>
        <ele>2101.0</ele>
      </trkpt>
      <trkpt lat="44.3409" lon="6.88462">
        <time>2023-04-16T07:03:51+00:00</time>
        <ele>2101.0</ele>
      </trkpt>
      <trkpt lat="44.34099" lon="6.8847">
        <time>2023-04-16T07:04:13+00:00</time>
        <ele>2102.0</ele>
      </trkpt>
      <trkpt lat="44.34101" lon="6.88471">
        <time>2023-04-16T07:04:18+00:00</time>
        <ele>2102.0</ele>
      </trkpt>
      <trkpt lat="44.34104" lon="6.88474">
        <time>2023-04-16T07:04:22+00:00</time>
        <ele>2101.0</ele>
      </trkpt>
      <trkpt lat="44.34105" lon="6.88476">
        <time>2023-04-16T07:04:25+00:00</time>
        <ele>2101.0</ele>
      </trkpt>
      <trkpt lat="44.34109" lon="6.88477">
        <time>2023-04-16T07:04:44+00:00</time>
        <ele>2100.0</ele>
      </trkpt>
      <trkpt lat="44.34107" lon="6.88479">
        <time>2023-04-16T07:04:55+00:00</time>
        <ele>2101.0</ele>
      </trkpt>
      <trkpt lat="44.34107" lon="6.88478">
        <time>2023-04-16T07:05:05+00:00</time>
        <ele>2101.0</ele>
      </trkpt>
      <trkpt lat="44.34106" lon="6.8848">
        <time>2023-04-16T07:05:14+00:00</time>
        <ele>2101.0</ele>
      </trkpt>
      <trkpt lat="44.34106" lon="6.8848">
        <time>2023-04-16T07:05:22+00:00</time>
        <ele>2101.0</ele>
      </trkpt>
      <trkpt lat="44.34109" lon="6.88478">
        <time>2023-04-16T07:05:46+00:00</time>
        <ele>2100.0</ele>
      </trkpt>
      <trkpt lat="44.34108" lon="6.88479">
        <time>2023-04-16T07:05:52+00:00</time>
        <ele>2100.0</ele>
      </trkpt>
      <trkpt lat="44.34107" lon="6.88478">
        <time>2023-04-16T07:06:17+00:00</time>
        <ele>2101.0</ele>
      </trkpt>
      <trkpt lat="44.34109" lon="6.88479">
        <time>2023-04-16T07:06:28+00:00</time>
        <ele>2100.0</ele>
      </trkpt>
      <trkpt lat="44.3411" lon="6.88481">
        <time>2023-04-16T07:06:30+00:00</time>
        <ele>2100.0</ele>
      </trkpt>
      <trkpt lat="44.34113" lon="6.88484">
        <time>2023-04-16T07:06:33+00:00</time>
        <ele>2100.0</ele>
      </trkpt>
      <trkpt lat="44.34114" lon="6.88487">
        <time>2023-04-16T07:06:35+00:00</time>
        <ele>2101.0</ele>
      </trkpt>
      <trkpt lat="44.34116" lon="6.8849">
        <time>2023-04-16T07:06:38+00:00</time>
        <ele>2102.0</ele>
      </trkpt>
      <trkpt lat="44.34118" lon="6.88492">
        <time>2023-04-16T07:06:40+00:00</time>
        <ele>2102.0</ele>
      </trkpt>
      <trkpt lat="44.34119" lon="6.88494">
        <time>2023-04-16T07:06:42+00:00</time>
        <ele>2102.0</ele>
      </trkpt>
      <trkpt lat="44.34124" lon="6.88499">
        <time>2023-04-16T07:06:47+00:00</time>
        <ele>2103.0</ele>
      </trkpt>
      <trkpt lat="44.34125" lon="6.885">
        <time>2023-04-16T07:06:48+00:00</time>
        <ele>2103.0</ele>
      </trkpt>
      <trkpt lat="44.34127" lon="6.88501">
        <time>2023-04-16T07:06:50+00:00</time>
        <ele>2104.0</ele>
      </trkpt>
      <trkpt lat="44.34129" lon="6.88507">
        <time>2023-04-16T07:06:56+00:00</time>
        <ele>2104.0</ele>
      </trkpt>
      <trkpt lat="44.34131" lon="6.88509">
        <time>2023-04-16T07:06:59+00:00</time>
        <ele>2104.0</ele>
      </trkpt>
      <trkpt lat="44.34131" lon="6.88511">
        <time>2023-04-16T07:07:01+00:00</time>
        <ele>2104.0</ele>
      </trkpt>
      <trkpt lat="44.34133" lon="6.88514">
        <time>2023-04-16T07:07:05+00:00</time>
        <ele>2105.0</ele>
      </trkpt>
      <trkpt lat="44.34134" lon="6.88514">
        <time>2023-04-16T07:07:07+00:00</time>
        <ele>2105.0</ele>
      </trkpt>
      <trkpt lat="44.34136" lon="6.88515">
        <time>2023-04-16T07:07:09+00:00</time>
        <ele>2105.0</ele>
      </trkpt>
      <trkpt lat="44.34136" lon="6.88516">
        <time>2023-04-16T07:07:11+00:00</time>
        <ele>2106.0</ele>
      </trkpt>
      <trkpt lat="44.34136" lon="6.88518">
        <time>2023-04-16T07:07:13+00:00</time>
        <ele>2106.0</ele>
      </trkpt>
      <trkpt lat="44.3414" lon="6.88524">
        <time>2023-04-16T07:07:20+00:00</time>
        <ele>2107.0</ele>
      </trkpt>
      <trkpt lat="44.34144" lon="6.8853">
        <time>2023-04-16T07:07:26+00:00</time>
        <ele>2107.0</ele>
      </trkpt>
      <trkpt lat="44.34145" lon="6.88542">
        <time>2023-04-16T07:07:35+00:00</time>
        <ele>2108.0</ele>
      </trkpt>
      <trkpt lat="44.34149" lon="6.88559">
        <time>2023-04-16T07:07:47+00:00</time>
        <ele>2107.0</ele>
      </trkpt>
      <trkpt lat="44.34154" lon="6.88576">
        <time>2023-04-16T07:08:02+00:00</time>
        <ele>2109.0</ele>
      </trkpt>
      <trkpt lat="44.34157" lon="6.88591">
        <time>2023-04-16T07:08:15+00:00</time>
        <ele>2111.0</ele>
      </trkpt>
      <trkpt lat="44.34157" lon="6.88592">
        <time>2023-04-16T07:08:16+00:00</time>
        <ele>2111.0</ele>
      </trkpt>
      <trkpt lat="44.34162" lon="6.88608">
        <time>2023-04-16T07:08:30+00:00</time>
        <ele>2113.0</ele>
      </trkpt>
      <trkpt lat="44.3417" lon="6.88618">
        <time>2023-04-16T07:08:44+00:00</time>
        <ele>2113.0</ele>
      </trkpt>
      <trkpt lat="44.34171" lon="6.88619">
        <time>2023-04-16T07:08:45+00:00</time>
        <ele>2114.0</ele>
      </trkpt>
      <trkpt lat="44.34175" lon="6.88622">
        <time>2023-04-16T07:08:49+00:00</time>
        <ele>2114.0</ele>
      </trkpt>
      <trkpt lat="44.34184" lon="6.88627">
        <time>2023-04-16T07:09:00+00:00</time>
        <ele>2114.0</ele>
      </trkpt>
      <trkpt lat="44.34197" lon="6.88634">
        <time>2023-04-16T07:09:13+00:00</time>
        <ele>2114.0</ele>
      </trkpt>
      <trkpt lat="44.34202" lon="6.88637">
        <time>2023-04-16T07:09:18+00:00</time>
        <ele>2114.0</ele>
      </trkpt>
      <trkpt lat="44.34208" lon="6.88647">
        <time>2023-04-16T07:09:28+00:00</time>
        <ele>2116.0</ele>
      </trkpt>
      <trkpt lat="44.34218" lon="6.88658">
        <time>2023-04-16T07:09:40+00:00</time>
        <ele>2118.0</ele>
      </trkpt>
      <trkpt lat="44.34225" lon="6.88673">
        <time>2023-04-16T07:09:54+00:00</time>
        <ele>2118.0</ele>
      </trkpt>
      <trkpt lat="44.34235" lon="6.88694">
        <time>2023-04-16T07:10:13+00:00</time>
        <ele>2122.0</ele>
      </trkpt>
      <trkpt lat="44.34239" lon="6.88699">
        <time>2023-04-16T07:10:18+00:00</time>
        <ele>2122.0</ele>
      </trkpt>
      <trkpt lat="44.34243" lon="6.88704">
        <time>2023-04-16T07:10:22+00:00</time>
        <ele>2122.0</ele>
      </trkpt>
      <trkpt lat="44.34247" lon="6.88711">
        <time>2023-04-16T07:10:29+00:00</time>
        <ele>2123.0</ele>
      </trkpt>
      <trkpt lat="44.34249" lon="6.88713">
        <time>2023-04-16T07:10:31+00:00</time>
        <ele>2123.0</ele>
      </trkpt>
      <trkpt lat="44.34251" lon="6.88717">
        <time>2023-04-16T07:10:35+00:00</time>
        <ele>2123.0</ele>
      </trkpt>
      <trkpt lat="44.34258" lon="6.88731">
        <time>2023-04-16T07:10:48+00:00</time>
        <ele>2126.0</ele>
      </trkpt>
      <trkpt lat="44.34265" lon="6.88741">
        <time>2023-04-16T07:10:59+00:00</time>
        <ele>2127.0</ele>
      </trkpt>
      <trkpt lat="44.34266" lon="6.88742">
        <time>2023-04-16T07:11:00+00:00</time>
        <ele>2127.0</ele>
      </trkpt>
      <trkpt lat="44.34268" lon="6.88744">
        <time>2023-04-16T07:11:02+00:00</time>
        <ele>2128.0</ele>
      </trkpt>
      <trkpt lat="44.34269" lon="6.88746">
        <time>2023-04-16T07:11:04+00:00</time>
        <ele>2128.0</ele>
      </trkpt>
      <trkpt lat="44.3427" lon="6.88748">
        <time>2023-04-16T07:11:06+00:00</time>
        <ele>2128.0</ele>
      </trkpt>
      <trkpt lat="44.34272" lon="6.88749">
        <time>2023-04-16T07:11:08+00:00</time>
        <ele>2128.0</ele>
      </trkpt>
      <trkpt lat="44.34273" lon="6.88752">
        <time>2023-04-16T07:11:11+00:00</time>
        <ele>2129.0</ele>
      </trkpt>
      <trkpt lat="44.34277" lon="6.88757">
        <time>2023-04-16T07:11:18+00:00</time>
        <ele>2130.0</ele>
      </trkpt>
      <trkpt lat="44.34278" lon="6.88757">
        <time>2023-04-16T07:11:19+00:00</time>
        <ele>2130.0</ele>
      </trkpt>
      <trkpt lat="44.34279" lon="6.8876">
        <time>2023-04-16T07:11:24+00:00</time>
        <ele>2131.0</ele>
      </trkpt>
      <trkpt lat="44.34279" lon="6.88761">
        <time>2023-04-16T07:11:25+00:00</time>
        <ele>2131.0</ele>
      </trkpt>
      <trkpt lat="44.34281" lon="6.88764">
        <time>2023-04-16T07:11:31+00:00</time>
        <ele>2132.0</ele>
      </trkpt>
      <trkpt lat="44.34282" lon="6.88764">
        <time>2023-04-16T07:11:32+00:00</time>
        <ele>2132.0</ele>
      </trkpt>
      <trkpt lat="44.34282" lon="6.88765">
        <time>2023-04-16T07:11:33+00:00</time>
        <ele>2132.0</ele>
      </trkpt>
      <trkpt lat="44.34283" lon="6.88766">
        <time>2023-04-16T07:11:34+00:00</time>
        <ele>2132.0</ele>
      </trkpt>
      <trkpt lat="44.34284" lon="6.88766">
        <time>2023-04-16T07:11:35+00:00</time>
        <ele>2132.0</ele>
      </trkpt>
      <trkpt lat="44.34284" lon="6.88767">
        <time>2023-04-16T07:11:36+00:00</time>
        <ele>2132.0</ele>
      </trkpt>
      <trkpt lat="44.34284" lon="6.88768">
        <time>2023-04-16T07:11:37+00:00</time>
        <ele>2133.0</ele>
      </trkpt>
      <trkpt lat="44.34284" lon="6.88768">
        <time>2023-04-16T07:11:38+00:00</time>
        <ele>2133.0</ele>
      </trkpt>
      <trkpt lat="44.34284" lon="6.88769">
        <time>2023-04-16T07:11:39+00:00</time>
        <ele>2133.0</ele>
      </trkpt>
      <trkpt lat="44.34285" lon="6.88769">
        <time>2023-04-16T07:11:40+00:00</time>
        <ele>2133.0</ele>
      </trkpt>
      <trkpt lat="44.34285" lon="6.8877">
        <time>2023-04-16T07:11:41+00:00</time>
        <ele>2133.0</ele>
      </trkpt>
      <trkpt lat="44.34286" lon="6.88771">
        <time>2023-04-16T07:11:43+00:00</time>
        <ele>2134.0</ele>
      </trkpt>
      <trkpt lat="44.34288" lon="6.88773">
        <time>2023-04-16T07:11:47+00:00</time>
        <ele>2134.0</ele>
      </trkpt>
      <trkpt lat="44.3429" lon="6.88773">
        <time>2023-04-16T07:11:54+00:00</time>
        <ele>2134.0</ele>
      </trkpt>
      <trkpt lat="44.34289" lon="6.88773">
        <time>2023-04-16T07:12:03+00:00</time>
        <ele>2134.0</ele>
      </trkpt>
      <trkpt lat="44.34291" lon="6.88778">
        <time>2023-04-16T07:12:09+00:00</time>
        <ele>2135.0</ele>
      </trkpt>
      <trkpt lat="44.34293" lon="6.88782">
        <time>2023-04-16T07:12:14+00:00</time>
        <ele>2137.0</ele>
      </trkpt>
      <trkpt lat="44.34296" lon="6.88784">
        <time>2023-04-16T07:12:17+00:00</time>
        <ele>2138.0</ele>
      </trkpt>
      <trkpt lat="44.34298" lon="6.88787">
        <time>2023-04-16T07:12:21+00:00</time>
        <ele>2139.0</ele>
      </trkpt>
      <trkpt lat="44.343" lon="6.8879">
        <time>2023-04-16T07:12:27+00:00</time>
        <ele>2140.0</ele>
      </trkpt>
      <trkpt lat="44.343" lon="6.88791">
        <time>2023-04-16T07:12:28+00:00</time>
        <ele>2141.0</ele>
      </trkpt>
      <trkpt lat="44.34301" lon="6.88793">
        <time>2023-04-16T07:12:32+00:00</time>
        <ele>2142.0</ele>
      </trkpt>
      <trkpt lat="44.343" lon="6.88795">
        <time>2023-04-16T07:12:37+00:00</time>
        <ele>2143.0</ele>
      </trkpt>
      <trkpt lat="44.34301" lon="6.88795">
        <time>2023-04-16T07:12:39+00:00</time>
        <ele>2143.0</ele>
      </trkpt>
      <trkpt lat="44.34306" lon="6.88797">
        <time>2023-04-16T07:12:45+00:00</time>
        <ele>2143.0</ele>
      </trkpt>
      <trkpt lat="44.34308" lon="6.88799">
        <time>2023-04-16T07:12:48+00:00</time>
        <ele>2144.0</ele>
      </trkpt>
      <trkpt lat="44.34309" lon="6.88802">
        <time>2023-04-16T07:12:56+00:00</time>
        <ele>2146.0</ele>
      </trkpt>
      <trkpt lat="44.3431" lon="6.88803">
        <time>2023-04-16T07:13:00+00:00</time>
        <ele>2146.0</ele>
      </trkpt>
      <trkpt lat="44.34315" lon="6.88806">
        <time>2023-04-16T07:13:09+00:00</time>
        <ele>2148.0</ele>
      </trkpt>
      <trkpt lat="44.34316" lon="6.88806">
        <time>2023-04-16T07:13:10+00:00</time>
        <ele>2148.0</ele>
      </trkpt>
      <trkpt lat="44.34318" lon="6.88807">
        <time>2023-04-16T07:13:12+00:00</time>
        <ele>2148.0</ele>
      </trkpt>
      <trkpt lat="44.3432" lon="6.88807">
        <time>2023-04-16T07:13:15+00:00</time>
        <ele>2148.0</ele>
      </trkpt>
      <trkpt lat="44.34323" lon="6.88806">
        <time>2023-04-16T07:13:21+00:00</time>
        <ele>2147.0</ele>
      </trkpt>
      <trkpt lat="44.34325" lon="6.88806">
        <time>2023-04-16T07:13:25+00:00</time>
        <ele>2147.0</ele>
      </trkpt>
      <trkpt lat="44.34328" lon="6.88808">
        <time>2023-04-16T07:13:29+00:00</time>
        <ele>2147.0</ele>
      </trkpt>
      <trkpt lat="44.34329" lon="6.88808">
        <time>2023-04-16T07:13:30+00:00</time>
        <ele>2147.0</ele>
      </trkpt>
      <trkpt lat="44.34329" lon="6.88809">
        <time>2023-04-16T07:13:40+00:00</time>
        <ele>2148.0</ele>
      </trkpt>
      <trkpt lat="44.34333" lon="6.88811">
        <time>2023-04-16T07:13:56+00:00</time>
        <ele>2148.0</ele>
      </trkpt>
      <trkpt lat="44.34338" lon="6.88812">
        <time>2023-04-16T07:14:04+00:00</time>
        <ele>2148.0</ele>
      </trkpt>
      <trkpt lat="44.34342" lon="6.88813">
        <time>2023-04-16T07:14:10+00:00</time>
        <ele>2147.0</ele>
      </trkpt>
      <trkpt lat="44.34344" lon="6.88814">
        <time>2023-04-16T07:14:11+00:00</time>
        <ele>2147.0</ele>
      </trkpt>
      <trkpt lat="44.34344" lon="6.88814">
        <time>2023-04-16T07:14:12+00:00</time>
        <ele>2147.0</ele>
      </trkpt>
      <trkpt lat="44.34345" lon="6.88814">
        <time>2023-04-16T07:14:13+00:00</time>
        <ele>2147.0</ele>
      </trkpt>
      <trkpt lat="44.34346" lon="6.88816">
        <time>2023-04-16T07:14:16+00:00</time>
        <ele>2147.0</ele>
      </trkpt>
      <trkpt lat="44.34348" lon="6.88817">
        <time>2023-04-16T07:14:20+00:00</time>
        <ele>2147.0</ele>
      </trkpt>
      <trkpt lat="44.3435" lon="6.88822">
        <time>2023-04-16T07:14:25+00:00</time>
        <ele>2147.0</ele>
      </trkpt>
      <trkpt lat="44.34359" lon="6.88839">
        <time>2023-04-16T07:14:31+00:00</time>
        <ele>2147.0</ele>
      </trkpt>
      <trkpt lat="44.3436" lon="6.88841">
        <time>2023-04-16T07:14:32+00:00</time>
        <ele>2147.0</ele>
      </trkpt>
      <trkpt lat="44.34361" lon="6.88843">
        <time>2023-04-16T07:14:34+00:00</time>
        <ele>2147.0</ele>
      </trkpt>
      <trkpt lat="44.34363" lon="6.88846">
        <time>2023-04-16T07:14:43+00:00</time>
        <ele>2147.0</ele>
      </trkpt>
      <trkpt lat="44.34364" lon="6.88846">
        <time>2023-04-16T07:14:48+00:00</time>
        <ele>2146.0</ele>
      </trkpt>
      <trkpt lat="44.34363" lon="6.88845">
        <time>2023-04-16T07:14:52+00:00</time>
        <ele>2146.0</ele>
      </trkpt>
      <trkpt lat="44.34363" lon="6.88844">
        <time>2023-04-16T07:15:18+00:00</time>
        <ele>2146.0</ele>
      </trkpt>
      <trkpt lat="44.34361" lon="6.88842">
        <time>2023-04-16T07:15:54+00:00</time>
        <ele>2147.0</ele>
      </trkpt>
      <trkpt lat="44.34362" lon="6.88847">
        <time>2023-04-16T07:16:00+00:00</time>
        <ele>2147.0</ele>
      </trkpt>
      <trkpt lat="44.34363" lon="6.88851">
        <time>2023-04-16T07:16:03+00:00</time>
        <ele>2148.0</ele>
      </trkpt>
      <trkpt lat="44.34365" lon="6.88854">
        <time>2023-04-16T07:16:05+00:00</time>
        <ele>2147.0</ele>
      </trkpt>
      <trkpt lat="44.34369" lon="6.88866">
        <time>2023-04-16T07:16:13+00:00</time>
        <ele>2147.0</ele>
      </trkpt>
      <trkpt lat="44.34374" lon="6.88882">
        <time>2023-04-16T07:16:24+00:00</time>
        <ele>2147.0</ele>
      </trkpt>
      <trkpt lat="44.34375" lon="6.88883">
        <time>2023-04-16T07:16:25+00:00</time>
        <ele>2146.0</ele>
      </trkpt>
      <trkpt lat="44.34375" lon="6.88885">
        <time>2023-04-16T07:16:26+00:00</time>
        <ele>2146.0</ele>
      </trkpt>
      <trkpt lat="44.34376" lon="6.88886">
        <time>2023-04-16T07:16:27+00:00</time>
        <ele>2146.0</ele>
      </trkpt>
      <trkpt lat="44.34376" lon="6.88887">
        <time>2023-04-16T07:16:28+00:00</time>
        <ele>2146.0</ele>
      </trkpt>
      <trkpt lat="44.34377" lon="6.88889">
        <time>2023-04-16T07:16:29+00:00</time>
        <ele>2146.0</ele>
      </trkpt>
      <trkpt lat="44.34379" lon="6.88895">
        <time>2023-04-16T07:16:35+00:00</time>
        <ele>2145.0</ele>
      </trkpt>
      <trkpt lat="44.34379" lon="6.88897">
        <time>2023-04-16T07:16:36+00:00</time>
        <ele>2146.0</ele>
      </trkpt>
      <trkpt lat="44.3438" lon="6.88898">
        <time>2023-04-16T07:16:37+00:00</time>
        <ele>2145.0</ele>
      </trkpt>
      <trkpt lat="44.3438" lon="6.88899">
        <time>2023-04-16T07:16:38+00:00</time>
        <ele>2145.0</ele>
      </trkpt>
      <trkpt lat="44.34381" lon="6.88901">
        <time>2023-04-16T07:16:42+00:00</time>
        <ele>2145.0</ele>
      </trkpt>
      <trkpt lat="44.34381" lon="6.88902">
        <time>2023-04-16T07:16:43+00:00</time>
        <ele>2145.0</ele>
      </trkpt>
      <trkpt lat="44.34382" lon="6.88904">
        <time>2023-04-16T07:16:44+00:00</time>
        <ele>2145.0</ele>
      </trkpt>
      <trkpt lat="44.34382" lon="6.88905">
        <time>2023-04-16T07:16:45+00:00</time>
        <ele>2146.0</ele>
      </trkpt>
      <trkpt lat="44.34383" lon="6.88906">
        <time>2023-04-16T07:16:46+00:00</time>
        <ele>2146.0</ele>
      </trkpt>
      <trkpt lat="44.34383" lon="6.88909">
        <time>2023-04-16T07:16:49+00:00</time>
        <ele>2146.0</ele>
      </trkpt>
      <trkpt lat="44.34384" lon="6.88911">
        <time>2023-04-16T07:16:51+00:00</time>
        <ele>2146.0</ele>
      </trkpt>
      <trkpt lat="44.34384" lon="6.88914">
        <time>2023-04-16T07:16:53+00:00</time>
        <ele>2146.0</ele>
      </trkpt>
      <trkpt lat="44.34386" lon="6.88918">
        <time>2023-04-16T07:16:57+00:00</time>
        <ele>2147.0</ele>
      </trkpt>
      <trkpt lat="44.34386" lon="6.88919">
        <time>2023-04-16T07:17:01+00:00</time>
        <ele>2147.0</ele>
      </trkpt>
      <trkpt lat="44.34384" lon="6.8893">
        <time>2023-04-16T07:17:10+00:00</time>
        <ele>2149.0</ele>
      </trkpt>
      <trkpt lat="44.34388" lon="6.88945">
        <time>2023-04-16T07:17:21+00:00</time>
        <ele>2149.0</ele>
      </trkpt>
      <trkpt lat="44.3439" lon="6.88951">
        <time>2023-04-16T07:17:25+00:00</time>
        <ele>2149.0</ele>
      </trkpt>
      <trkpt lat="44.34395" lon="6.88968">
        <time>2023-04-16T07:17:36+00:00</time>
        <ele>2149.0</ele>
      </trkpt>
      <trkpt lat="44.34397" lon="6.88973">
        <time>2023-04-16T07:17:40+00:00</time>
        <ele>2149.0</ele>
      </trkpt>
      <trkpt lat="44.34402" lon="6.88987">
        <time>2023-04-16T07:17:50+00:00</time>
        <ele>2149.0</ele>
      </trkpt>
      <trkpt lat="44.34405" lon="6.88999">
        <time>2023-04-16T07:18:00+00:00</time>
        <ele>2151.0</ele>
      </trkpt>
      <trkpt lat="44.34409" lon="6.89013">
        <time>2023-04-16T07:18:12+00:00</time>
        <ele>2152.0</ele>
      </trkpt>
      <trkpt lat="44.34411" lon="6.89017">
        <time>2023-04-16T07:18:15+00:00</time>
        <ele>2153.0</ele>
      </trkpt>
      <trkpt lat="44.34415" lon="6.89031">
        <time>2023-04-16T07:18:28+00:00</time>
        <ele>2154.0</ele>
      </trkpt>
      <trkpt lat="44.34417" lon="6.89037">
        <time>2023-04-16T07:18:34+00:00</time>
        <ele>2154.0</ele>
      </trkpt>
      <trkpt lat="44.3442" lon="6.89042">
        <time>2023-04-16T07:18:39+00:00</time>
        <ele>2153.0</ele>
      </trkpt>
      <trkpt lat="44.34423" lon="6.89056">
        <time>2023-04-16T07:18:51+00:00</time>
        <ele>2156.0</ele>
      </trkpt>
      <trkpt lat="44.3443" lon="6.89067">
        <time>2023-04-16T07:19:02+00:00</time>
        <ele>2157.0</ele>
      </trkpt>
      <trkpt lat="44.34436" lon="6.89077">
        <time>2023-04-16T07:19:13+00:00</time>
        <ele>2158.0</ele>
      </trkpt>
      <trkpt lat="44.34443" lon="6.89087">
        <time>2023-04-16T07:19:23+00:00</time>
        <ele>2159.0</ele>
      </trkpt>
      <trkpt lat="44.34452" lon="6.89098">
        <time>2023-04-16T07:19:35+00:00</time>
        <ele>2160.0</ele>
      </trkpt>
      <trkpt lat="44.34457" lon="6.89108">
        <time>2023-04-16T07:19:47+00:00</time>
        <ele>2160.0</ele>
      </trkpt>
      <trkpt lat="44.34458" lon="6.89114">
        <time>2023-04-16T07:19:53+00:00</time>
        <ele>2161.0</ele>
      </trkpt>
      <trkpt lat="44.3446" lon="6.89117">
        <time>2023-04-16T07:19:56+00:00</time>
        <ele>2161.0</ele>
      </trkpt>
      <trkpt lat="44.34462" lon="6.89123">
        <time>2023-04-16T07:20:01+00:00</time>
        <ele>2162.0</ele>
      </trkpt>
      <trkpt lat="44.34462" lon="6.89127">
        <time>2023-04-16T07:20:04+00:00</time>
        <ele>2162.0</ele>
      </trkpt>
      <trkpt lat="44.34464" lon="6.8913">
        <time>2023-04-16T07:20:06+00:00</time>
        <ele>2163.0</ele>
      </trkpt>
      <trkpt lat="44.34466" lon="6.89138">
        <time>2023-04-16T07:20:12+00:00</time>
        <ele>2164.0</ele>
      </trkpt>
      <trkpt lat="44.34467" lon="6.89145">
        <time>2023-04-16T07:20:18+00:00</time>
        <ele>2165.0</ele>
      </trkpt>
      <trkpt lat="44.34468" lon="6.89146">
        <time>2023-04-16T07:20:19+00:00</time>
        <ele>2165.0</ele>
      </trkpt>
      <trkpt lat="44.34469" lon="6.89149">
        <time>2023-04-16T07:20:21+00:00</time>
        <ele>2165.0</ele>
      </trkpt>
      <trkpt lat="44.3447" lon="6.89155">
        <time>2023-04-16T07:20:27+00:00</time>
        <ele>2165.0</ele>
      </trkpt>
      <trkpt lat="44.3447" lon="6.8916">
        <time>2023-04-16T07:20:32+00:00</time>
        <ele>2165.0</ele>
      </trkpt>
      <trkpt lat="44.34471" lon="6.89162">
        <time>2023-04-16T07:20:34+00:00</time>
        <ele>2165.0</ele>
      </trkpt>
      <trkpt lat="44.34472" lon="6.89181">
        <time>2023-04-16T07:20:48+00:00</time>
        <ele>2167.0</ele>
      </trkpt>
      <trkpt lat="44.34477" lon="6.89201">
        <time>2023-04-16T07:21:04+00:00</time>
        <ele>2166.0</ele>
      </trkpt>
      <trkpt lat="44.34477" lon="6.89212">
        <time>2023-04-16T07:21:13+00:00</time>
        <ele>2167.0</ele>
      </trkpt>
      <trkpt lat="44.34477" lon="6.89214">
        <time>2023-04-16T07:21:15+00:00</time>
        <ele>2167.0</ele>
      </trkpt>
      <trkpt lat="44.34478" lon="6.8922">
        <time>2023-04-16T07:21:20+00:00</time>
        <ele>2168.0</ele>
      </trkpt>
      <trkpt lat="44.3448" lon="6.89226">
        <time>2023-04-16T07:21:24+00:00</time>
        <ele>2168.0</ele>
      </trkpt>
      <trkpt lat="44.34483" lon="6.89236">
        <time>2023-04-16T07:21:31+00:00</time>
        <ele>2169.0</ele>
      </trkpt>
      <trkpt lat="44.34485" lon="6.89243">
        <time>2023-04-16T07:21:37+00:00</time>
        <ele>2170.0</ele>
      </trkpt>
      <trkpt lat="44.34489" lon="6.89258">
        <time>2023-04-16T07:21:49+00:00</time>
        <ele>2170.0</ele>
      </trkpt>
      <trkpt lat="44.34491" lon="6.89275">
        <time>2023-04-16T07:22:01+00:00</time>
        <ele>2171.0</ele>
      </trkpt>
      <trkpt lat="44.34492" lon="6.89279">
        <time>2023-04-16T07:22:04+00:00</time>
        <ele>2171.0</ele>
      </trkpt>
      <trkpt lat="44.34492" lon="6.89294">
        <time>2023-04-16T07:22:17+00:00</time>
        <ele>2173.0</ele>
      </trkpt>
      <trkpt lat="44.34494" lon="6.89311">
        <time>2023-04-16T07:22:31+00:00</time>
        <ele>2173.0</ele>
      </trkpt>
      <trkpt lat="44.34494" lon="6.89312">
        <time>2023-04-16T07:22:32+00:00</time>
        <ele>2173.0</ele>
      </trkpt>
      <trkpt lat="44.34496" lon="6.89328">
        <time>2023-04-16T07:22:45+00:00</time>
        <ele>2174.0</ele>
      </trkpt>
      <trkpt lat="44.34496" lon="6.89331">
        <time>2023-04-16T07:22:47+00:00</time>
        <ele>2174.0</ele>
      </trkpt>
      <trkpt lat="44.34497" lon="6.89332">
        <time>2023-04-16T07:22:48+00:00</time>
        <ele>2174.0</ele>
      </trkpt>
      <trkpt lat="44.34497" lon="6.89334">
        <time>2023-04-16T07:22:50+00:00</time>
        <ele>2174.0</ele>
      </trkpt>
      <trkpt lat="44.34502" lon="6.89351">
        <time>2023-04-16T07:23:05+00:00</time>
        <ele>2176.0</ele>
      </trkpt>
      <trkpt lat="44.34511" lon="6.89366">
        <time>2023-04-16T07:23:19+00:00</time>
        <ele>2177.0</ele>
      </trkpt>
      <trkpt lat="44.34511" lon="6.89367">
        <time>2023-04-16T07:23:20+00:00</time>
        <ele>2177.0</ele>
      </trkpt>
      <trkpt lat="44.34514" lon="6.89373">
        <time>2023-04-16T07:23:26+00:00</time>
        <ele>2177.0</ele>
      </trkpt>
      <trkpt lat="44.34517" lon="6.89375">
        <time>2023-04-16T07:23:29+00:00</time>
        <ele>2177.0</ele>
      </trkpt>
      <trkpt lat="44.34521" lon="6.89382">
        <time>2023-04-16T07:23:36+00:00</time>
        <ele>2178.0</ele>
      </trkpt>
      <trkpt lat="44.34522" lon="6.89383">
        <time>2023-04-16T07:23:37+00:00</time>
        <ele>2178.0</ele>
      </trkpt>
      <trkpt lat="44.34529" lon="6.89392">
        <time>2023-04-16T07:23:48+00:00</time>
        <ele>2179.0</ele>
      </trkpt>
      <trkpt lat="44.3453" lon="6.89392">
        <time>2023-04-16T07:23:49+00:00</time>
        <ele>2179.0</ele>
      </trkpt>
      <trkpt lat="44.3453" lon="6.89393">
        <time>2023-04-16T07:23:50+00:00</time>
        <ele>2179.0</ele>
      </trkpt>
      <trkpt lat="44.34536" lon="6.89402">
        <time>2023-04-16T07:23:59+00:00</time>
        <ele>2180.0</ele>
      </trkpt>
      <trkpt lat="44.34542" lon="6.89412">
        <time>2023-04-16T07:24:09+00:00</time>
        <ele>2181.0</ele>
      </trkpt>
      <trkpt lat="44.34547" lon="6.89427">
        <time>2023-04-16T07:24:24+00:00</time>
        <ele>2181.0</ele>
      </trkpt>
      <trkpt lat="44.3455" lon="6.89434">
        <time>2023-04-16T07:24:31+00:00</time>
        <ele>2182.0</ele>
      </trkpt>
      <trkpt lat="44.34556" lon="6.89447">
        <time>2023-04-16T07:24:44+00:00</time>
        <ele>2183.0</ele>
      </trkpt>
      <trkpt lat="44.34561" lon="6.89457">
        <time>2023-04-16T07:24:52+00:00</time>
        <ele>2183.0</ele>
      </trkpt>
      <trkpt lat="44.34564" lon="6.89463">
        <time>2023-04-16T07:24:57+00:00</time>
        <ele>2184.0</ele>
      </trkpt>
      <trkpt lat="44.34579" lon="6.89476">
        <time>2023-04-16T07:25:15+00:00</time>
        <ele>2184.0</ele>
      </trkpt>
      <trkpt lat="44.34585" lon="6.8948">
        <time>2023-04-16T07:25:21+00:00</time>
        <ele>2184.0</ele>
      </trkpt>
      <trkpt lat="44.34587" lon="6.89481">
        <time>2023-04-16T07:25:23+00:00</time>
        <ele>2184.0</ele>
      </trkpt>
      <trkpt lat="44.346" lon="6.89501">
        <time>2023-04-16T07:25:42+00:00</time>
        <ele>2185.0</ele>
      </trkpt>
      <trkpt lat="44.34615" lon="6.89522">
        <time>2023-04-16T07:26:04+00:00</time>
        <ele>2187.0</ele>
      </trkpt>
      <trkpt lat="44.34616" lon="6.89523">
        <time>2023-04-16T07:26:05+00:00</time>
        <ele>2187.0</ele>
      </trkpt>
      <trkpt lat="44.3462" lon="6.89525">
        <time>2023-04-16T07:26:10+00:00</time>
        <ele>2187.0</ele>
      </trkpt>
      <trkpt lat="44.34623" lon="6.89527">
        <time>2023-04-16T07:26:13+00:00</time>
        <ele>2188.0</ele>
      </trkpt>
      <trkpt lat="44.34624" lon="6.89527">
        <time>2023-04-16T07:26:14+00:00</time>
        <ele>2188.0</ele>
      </trkpt>
      <trkpt lat="44.34625" lon="6.89529">
        <time>2023-04-16T07:26:17+00:00</time>
        <ele>2188.0</ele>
      </trkpt>
      <trkpt lat="44.34631" lon="6.89533">
        <time>2023-04-16T07:26:24+00:00</time>
        <ele>2189.0</ele>
      </trkpt>
      <trkpt lat="44.34635" lon="6.89536">
        <time>2023-04-16T07:26:29+00:00</time>
        <ele>2189.0</ele>
      </trkpt>
      <trkpt lat="44.34636" lon="6.89537">
        <time>2023-04-16T07:26:30+00:00</time>
        <ele>2190.0</ele>
      </trkpt>
      <trkpt lat="44.34637" lon="6.89537">
        <time>2023-04-16T07:26:31+00:00</time>
        <ele>2190.0</ele>
      </trkpt>
      <trkpt lat="44.34645" lon="6.89541">
        <time>2023-04-16T07:26:40+00:00</time>
        <ele>2191.0</ele>
      </trkpt>
      <trkpt lat="44.34653" lon="6.89548">
        <time>2023-04-16T07:26:51+00:00</time>
        <ele>2193.0</ele>
      </trkpt>
      <trkpt lat="44.34659" lon="6.89555">
        <time>2023-04-16T07:27:00+00:00</time>
        <ele>2194.0</ele>
      </trkpt>
      <trkpt lat="44.34669" lon="6.89562">
        <time>2023-04-16T07:27:11+00:00</time>
        <ele>2195.0</ele>
      </trkpt>
      <trkpt lat="44.34675" lon="6.89567">
        <time>2023-04-16T07:27:19+00:00</time>
        <ele>2196.0</ele>
      </trkpt>
      <trkpt lat="44.34681" lon="6.89575">
        <time>2023-04-16T07:27:27+00:00</time>
        <ele>2198.0</ele>
      </trkpt>
      <trkpt lat="44.34683" lon="6.89581">
        <time>2023-04-16T07:27:34+00:00</time>
        <ele>2199.0</ele>
      </trkpt>
      <trkpt lat="44.34684" lon="6.89587">
        <time>2023-04-16T07:27:40+00:00</time>
        <ele>2200.0</ele>
      </trkpt>
      <trkpt lat="44.34684" lon="6.89593">
        <time>2023-04-16T07:27:47+00:00</time>
        <ele>2201.0</ele>
      </trkpt>
      <trkpt lat="44.34684" lon="6.89594">
        <time>2023-04-16T07:27:48+00:00</time>
        <ele>2201.0</ele>
      </trkpt>
      <trkpt lat="44.34681" lon="6.896">
        <time>2023-04-16T07:27:55+00:00</time>
        <ele>2202.0</ele>
      </trkpt>
      <trkpt lat="44.34679" lon="6.89604">
        <time>2023-04-16T07:27:59+00:00</time>
        <ele>2203.0</ele>
      </trkpt>
      <trkpt lat="44.3468" lon="6.89612">
        <time>2023-04-16T07:28:08+00:00</time>
        <ele>2205.0</ele>
      </trkpt>
      <trkpt lat="44.3468" lon="6.89615">
        <time>2023-04-16T07:28:12+00:00</time>
        <ele>2205.0</ele>
      </trkpt>
      <trkpt lat="44.34686" lon="6.89619">
        <time>2023-04-16T07:28:20+00:00</time>
        <ele>2206.0</ele>
      </trkpt>
      <trkpt lat="44.34687" lon="6.89623">
        <time>2023-04-16T07:28:26+00:00</time>
        <ele>2207.0</ele>
      </trkpt>
      <trkpt lat="44.34687" lon="6.89627">
        <time>2023-04-16T07:28:31+00:00</time>
        <ele>2208.0</ele>
      </trkpt>
      <trkpt lat="44.34687" lon="6.89632">
        <time>2023-04-16T07:28:37+00:00</time>
        <ele>2209.0</ele>
      </trkpt>
      <trkpt lat="44.34686" lon="6.89637">
        <time>2023-04-16T07:28:43+00:00</time>
        <ele>2210.0</ele>
      </trkpt>
      <trkpt lat="44.34686" lon="6.89641">
        <time>2023-04-16T07:28:48+00:00</time>
        <ele>2211.0</ele>
      </trkpt>
      <trkpt lat="44.34687" lon="6.89646">
        <time>2023-04-16T07:28:53+00:00</time>
        <ele>2212.0</ele>
      </trkpt>
      <trkpt lat="44.34687" lon="6.89654">
        <time>2023-04-16T07:29:02+00:00</time>
        <ele>2213.0</ele>
      </trkpt>
      <trkpt lat="44.34684" lon="6.8966">
        <time>2023-04-16T07:29:10+00:00</time>
        <ele>2215.0</ele>
      </trkpt>
      <trkpt lat="44.34683" lon="6.89665">
        <time>2023-04-16T07:29:15+00:00</time>
        <ele>2215.0</ele>
      </trkpt>
      <trkpt lat="44.34682" lon="6.89671">
        <time>2023-04-16T07:29:22+00:00</time>
        <ele>2216.0</ele>
      </trkpt>
      <trkpt lat="44.34683" lon="6.89677">
        <time>2023-04-16T07:29:28+00:00</time>
        <ele>2217.0</ele>
      </trkpt>
      <trkpt lat="44.34685" lon="6.89683">
        <time>2023-04-16T07:29:33+00:00</time>
        <ele>2218.0</ele>
      </trkpt>
      <trkpt lat="44.34685" lon="6.89686">
        <time>2023-04-16T07:29:36+00:00</time>
        <ele>2219.0</ele>
      </trkpt>
      <trkpt lat="44.34685" lon="6.89693">
        <time>2023-04-16T07:29:43+00:00</time>
        <ele>2220.0</ele>
      </trkpt>
      <trkpt lat="44.34685" lon="6.89699">
        <time>2023-04-16T07:29:49+00:00</time>
        <ele>2220.0</ele>
      </trkpt>
      <trkpt lat="44.34686" lon="6.89705">
        <time>2023-04-16T07:29:55+00:00</time>
        <ele>2221.0</ele>
      </trkpt>
      <trkpt lat="44.34687" lon="6.89708">
        <time>2023-04-16T07:29:59+00:00</time>
        <ele>2222.0</ele>
      </trkpt>
      <trkpt lat="44.34689" lon="6.89716">
        <time>2023-04-16T07:30:09+00:00</time>
        <ele>2223.0</ele>
      </trkpt>
      <trkpt lat="44.34689" lon="6.89719">
        <time>2023-04-16T07:30:11+00:00</time>
        <ele>2223.0</ele>
      </trkpt>
      <trkpt lat="44.34687" lon="6.89728">
        <time>2023-04-16T07:30:28+00:00</time>
        <ele>2225.0</ele>
      </trkpt>
      <trkpt lat="44.34684" lon="6.89733">
        <time>2023-04-16T07:30:34+00:00</time>
        <ele>2226.0</ele>
      </trkpt>
      <trkpt lat="44.34681" lon="6.89736">
        <time>2023-04-16T07:30:39+00:00</time>
        <ele>2226.0</ele>
      </trkpt>
      <trkpt lat="44.3468" lon="6.89737">
        <time>2023-04-16T07:30:40+00:00</time>
        <ele>2226.0</ele>
      </trkpt>
      <trkpt lat="44.34676" lon="6.89743">
        <time>2023-04-16T07:30:49+00:00</time>
        <ele>2227.0</ele>
      </trkpt>
      <trkpt lat="44.34675" lon="6.89745">
        <time>2023-04-16T07:30:51+00:00</time>
        <ele>2228.0</ele>
      </trkpt>
      <trkpt lat="44.34674" lon="6.89745">
        <time>2023-04-16T07:30:52+00:00</time>
        <ele>2228.0</ele>
      </trkpt>
      <trkpt lat="44.34674" lon="6.89746">
        <time>2023-04-16T07:30:53+00:00</time>
        <ele>2228.0</ele>
      </trkpt>
      <trkpt lat="44.34673" lon="6.89747">
        <time>2023-04-16T07:30:54+00:00</time>
        <ele>2228.0</ele>
      </trkpt>
      <trkpt lat="44.34673" lon="6.89748">
        <time>2023-04-16T07:30:55+00:00</time>
        <ele>2228.0</ele>
      </trkpt>
      <trkpt lat="44.34672" lon="6.89752">
        <time>2023-04-16T07:30:59+00:00</time>
        <ele>2229.0</ele>
      </trkpt>
      <trkpt lat="44.34671" lon="6.89754">
        <time>2023-04-16T07:31:01+00:00</time>
        <ele>2230.0</ele>
      </trkpt>
      <trkpt lat="44.34669" lon="6.89757">
        <time>2023-04-16T07:31:06+00:00</time>
        <ele>2230.0</ele>
      </trkpt>
      <trkpt lat="44.34668" lon="6.89762">
        <time>2023-04-16T07:31:11+00:00</time>
        <ele>2231.0</ele>
      </trkpt>
      <trkpt lat="44.34666" lon="6.89767">
        <time>2023-04-16T07:31:16+00:00</time>
        <ele>2232.0</ele>
      </trkpt>
      <trkpt lat="44.34663" lon="6.89772">
        <time>2023-04-16T07:31:23+00:00</time>
        <ele>2233.0</ele>
      </trkpt>
      <trkpt lat="44.34662" lon="6.89774">
        <time>2023-04-16T07:31:26+00:00</time>
        <ele>2233.0</ele>
      </trkpt>
      <trkpt lat="44.3466" lon="6.89776">
        <time>2023-04-16T07:31:28+00:00</time>
        <ele>2234.0</ele>
      </trkpt>
      <trkpt lat="44.34656" lon="6.8978">
        <time>2023-04-16T07:31:33+00:00</time>
        <ele>2234.0</ele>
      </trkpt>
      <trkpt lat="44.34647" lon="6.8979">
        <time>2023-04-16T07:31:47+00:00</time>
        <ele>2236.0</ele>
      </trkpt>
      <trkpt lat="44.34642" lon="6.89797">
        <time>2023-04-16T07:31:55+00:00</time>
        <ele>2236.0</ele>
      </trkpt>
      <trkpt lat="44.34636" lon="6.89806">
        <time>2023-04-16T07:32:05+00:00</time>
        <ele>2237.0</ele>
      </trkpt>
      <trkpt lat="44.34634" lon="6.8981">
        <time>2023-04-16T07:32:09+00:00</time>
        <ele>2238.0</ele>
      </trkpt>
      <trkpt lat="44.34633" lon="6.89811">
        <time>2023-04-16T07:32:10+00:00</time>
        <ele>2238.0</ele>
      </trkpt>
      <trkpt lat="44.34632" lon="6.89812">
        <time>2023-04-16T07:32:12+00:00</time>
        <ele>2238.0</ele>
      </trkpt>
      <trkpt lat="44.3463" lon="6.89814">
        <time>2023-04-16T07:32:14+00:00</time>
        <ele>2238.0</ele>
      </trkpt>
      <trkpt lat="44.34629" lon="6.89814">
        <time>2023-04-16T07:32:15+00:00</time>
        <ele>2238.0</ele>
      </trkpt>
      <trkpt lat="44.34629" lon="6.89815">
        <time>2023-04-16T07:32:16+00:00</time>
        <ele>2238.0</ele>
      </trkpt>
      <trkpt lat="44.34628" lon="6.89816">
        <time>2023-04-16T07:32:17+00:00</time>
        <ele>2238.0</ele>
      </trkpt>
      <trkpt lat="44.34628" lon="6.89817">
        <time>2023-04-16T07:32:18+00:00</time>
        <ele>2238.0</ele>
      </trkpt>
      <trkpt lat="44.34627" lon="6.89819">
        <time>2023-04-16T07:32:20+00:00</time>
        <ele>2239.0</ele>
      </trkpt>
      <trkpt lat="44.34623" lon="6.89824">
        <time>2023-04-16T07:32:26+00:00</time>
        <ele>2239.0</ele>
      </trkpt>
      <trkpt lat="44.34622" lon="6.89825">
        <time>2023-04-16T07:32:28+00:00</time>
        <ele>2239.0</ele>
      </trkpt>
      <trkpt lat="44.34616" lon="6.89834">
        <time>2023-04-16T07:32:37+00:00</time>
        <ele>2240.0</ele>
      </trkpt>
      <trkpt lat="44.34613" lon="6.8984">
        <time>2023-04-16T07:32:42+00:00</time>
        <ele>2240.0</ele>
      </trkpt>
      <trkpt lat="44.34606" lon="6.89855">
        <time>2023-04-16T07:32:57+00:00</time>
        <ele>2242.0</ele>
      </trkpt>
      <trkpt lat="44.34602" lon="6.89864">
        <time>2023-04-16T07:33:06+00:00</time>
        <ele>2242.0</ele>
      </trkpt>
      <trkpt lat="44.346" lon="6.89866">
        <time>2023-04-16T07:33:08+00:00</time>
        <ele>2242.0</ele>
      </trkpt>
      <trkpt lat="44.34599" lon="6.89867">
        <time>2023-04-16T07:33:09+00:00</time>
        <ele>2242.0</ele>
      </trkpt>
      <trkpt lat="44.34595" lon="6.89877">
        <time>2023-04-16T07:33:18+00:00</time>
        <ele>2244.0</ele>
      </trkpt>
      <trkpt lat="44.34593" lon="6.89882">
        <time>2023-04-16T07:33:23+00:00</time>
        <ele>2244.0</ele>
      </trkpt>
      <trkpt lat="44.34591" lon="6.89885">
        <time>2023-04-16T07:33:27+00:00</time>
        <ele>2245.0</ele>
      </trkpt>
      <trkpt lat="44.34591" lon="6.89886">
        <time>2023-04-16T07:33:28+00:00</time>
        <ele>2245.0</ele>
      </trkpt>
      <trkpt lat="44.34589" lon="6.89889">
        <time>2023-04-16T07:33:31+00:00</time>
        <ele>2245.0</ele>
      </trkpt>
      <trkpt lat="44.34587" lon="6.89896">
        <time>2023-04-16T07:33:37+00:00</time>
        <ele>2246.0</ele>
      </trkpt>
      <trkpt lat="44.34586" lon="6.89904">
        <time>2023-04-16T07:33:44+00:00</time>
        <ele>2247.0</ele>
      </trkpt>
      <trkpt lat="44.34585" lon="6.89909">
        <time>2023-04-16T07:33:49+00:00</time>
        <ele>2248.0</ele>
      </trkpt>
      <trkpt lat="44.34585" lon="6.89913">
        <time>2023-04-16T07:33:52+00:00</time>
        <ele>2248.0</ele>
      </trkpt>
      <trkpt lat="44.34585" lon="6.89914">
        <time>2023-04-16T07:33:53+00:00</time>
        <ele>2248.0</ele>
      </trkpt>
      <trkpt lat="44.34582" lon="6.89923">
        <time>2023-04-16T07:34:01+00:00</time>
        <ele>2249.0</ele>
      </trkpt>
      <trkpt lat="44.34581" lon="6.89926">
        <time>2023-04-16T07:34:03+00:00</time>
        <ele>2249.0</ele>
      </trkpt>
      <trkpt lat="44.34581" lon="6.8993">
        <time>2023-04-16T07:34:07+00:00</time>
        <ele>2250.0</ele>
      </trkpt>
      <trkpt lat="44.34581" lon="6.89931">
        <time>2023-04-16T07:34:08+00:00</time>
        <ele>2250.0</ele>
      </trkpt>
      <trkpt lat="44.34582" lon="6.89934">
        <time>2023-04-16T07:34:11+00:00</time>
        <ele>2250.0</ele>
      </trkpt>
      <trkpt lat="44.34581" lon="6.89936">
        <time>2023-04-16T07:34:13+00:00</time>
        <ele>2250.0</ele>
      </trkpt>
      <trkpt lat="44.34578" lon="6.8994">
        <time>2023-04-16T07:34:17+00:00</time>
        <ele>2250.0</ele>
      </trkpt>
      <trkpt lat="44.34576" lon="6.89944">
        <time>2023-04-16T07:34:20+00:00</time>
        <ele>2250.0</ele>
      </trkpt>
      <trkpt lat="44.34576" lon="6.89945">
        <time>2023-04-16T07:34:21+00:00</time>
        <ele>2250.0</ele>
      </trkpt>
      <trkpt lat="44.34576" lon="6.89946">
        <time>2023-04-16T07:34:22+00:00</time>
        <ele>2250.0</ele>
      </trkpt>
      <trkpt lat="44.34575" lon="6.8995">
        <time>2023-04-16T07:34:26+00:00</time>
        <ele>2250.0</ele>
      </trkpt>
      <trkpt lat="44.34576" lon="6.89953">
        <time>2023-04-16T07:34:29+00:00</time>
        <ele>2250.0</ele>
      </trkpt>
      <trkpt lat="44.34577" lon="6.89957">
        <time>2023-04-16T07:34:32+00:00</time>
        <ele>2251.0</ele>
      </trkpt>
      <trkpt lat="44.34582" lon="6.89968">
        <time>2023-04-16T07:34:40+00:00</time>
        <ele>2251.0</ele>
      </trkpt>
      <trkpt lat="44.34583" lon="6.89971">
        <time>2023-04-16T07:34:42+00:00</time>
        <ele>2252.0</ele>
      </trkpt>
      <trkpt lat="44.34587" lon="6.89978">
        <time>2023-04-16T07:34:48+00:00</time>
        <ele>2252.0</ele>
      </trkpt>
      <trkpt lat="44.34589" lon="6.89982">
        <time>2023-04-16T07:34:51+00:00</time>
        <ele>2252.0</ele>
      </trkpt>
      <trkpt lat="44.34594" lon="6.89994">
        <time>2023-04-16T07:35:02+00:00</time>
        <ele>2253.0</ele>
      </trkpt>
      <trkpt lat="44.34595" lon="6.90001">
        <time>2023-04-16T07:35:08+00:00</time>
        <ele>2253.0</ele>
      </trkpt>
      <trkpt lat="44.34596" lon="6.90003">
        <time>2023-04-16T07:35:10+00:00</time>
        <ele>2253.0</ele>
      </trkpt>
      <trkpt lat="44.34599" lon="6.90012">
        <time>2023-04-16T07:35:20+00:00</time>
        <ele>2253.0</ele>
      </trkpt>
      <trkpt lat="44.34601" lon="6.90019">
        <time>2023-04-16T07:35:28+00:00</time>
        <ele>2253.0</ele>
      </trkpt>
      <trkpt lat="44.34602" lon="6.9002">
        <time>2023-04-16T07:35:29+00:00</time>
        <ele>2254.0</ele>
      </trkpt>
      <trkpt lat="44.34617" lon="6.90038">
        <time>2023-04-16T07:35:48+00:00</time>
        <ele>2255.0</ele>
      </trkpt>
      <trkpt lat="44.34618" lon="6.90039">
        <time>2023-04-16T07:35:49+00:00</time>
        <ele>2255.0</ele>
      </trkpt>
      <trkpt lat="44.3463" lon="6.90049">
        <time>2023-04-16T07:36:02+00:00</time>
        <ele>2255.0</ele>
      </trkpt>
      <trkpt lat="44.34633" lon="6.90058">
        <time>2023-04-16T07:36:08+00:00</time>
        <ele>2255.0</ele>
      </trkpt>
      <trkpt lat="44.34637" lon="6.90065">
        <time>2023-04-16T07:36:26+00:00</time>
        <ele>2255.0</ele>
      </trkpt>
      <trkpt lat="44.34641" lon="6.90072">
        <time>2023-04-16T07:36:36+00:00</time>
        <ele>2256.0</ele>
      </trkpt>
      <trkpt lat="44.34651" lon="6.90078">
        <time>2023-04-16T07:36:52+00:00</time>
        <ele>2256.0</ele>
      </trkpt>
      <trkpt lat="44.34656" lon="6.90081">
        <time>2023-04-16T07:36:59+00:00</time>
        <ele>2256.0</ele>
      </trkpt>
      <trkpt lat="44.34657" lon="6.90082">
        <time>2023-04-16T07:37:00+00:00</time>
        <ele>2256.0</ele>
      </trkpt>
      <trkpt lat="44.34664" lon="6.90086">
        <time>2023-04-16T07:37:07+00:00</time>
        <ele>2257.0</ele>
      </trkpt>
      <trkpt lat="44.34669" lon="6.90088">
        <time>2023-04-16T07:37:12+00:00</time>
        <ele>2257.0</ele>
      </trkpt>
      <trkpt lat="44.3467" lon="6.90089">
        <time>2023-04-16T07:37:14+00:00</time>
        <ele>2258.0</ele>
      </trkpt>
      <trkpt lat="44.34671" lon="6.90089">
        <time>2023-04-16T07:37:15+00:00</time>
        <ele>2258.0</ele>
      </trkpt>
      <trkpt lat="44.34679" lon="6.90093">
        <time>2023-04-16T07:37:22+00:00</time>
        <ele>2258.0</ele>
      </trkpt>
      <trkpt lat="44.34683" lon="6.90094">
        <time>2023-04-16T07:37:24+00:00</time>
        <ele>2259.0</ele>
      </trkpt>
      <trkpt lat="44.34692" lon="6.901">
        <time>2023-04-16T07:37:33+00:00</time>
        <ele>2260.0</ele>
      </trkpt>
      <trkpt lat="44.34697" lon="6.90104">
        <time>2023-04-16T07:37:38+00:00</time>
        <ele>2260.0</ele>
      </trkpt>
      <trkpt lat="44.34711" lon="6.90113">
        <time>2023-04-16T07:37:50+00:00</time>
        <ele>2261.0</ele>
      </trkpt>
      <trkpt lat="44.34717" lon="6.90121">
        <time>2023-04-16T07:37:59+00:00</time>
        <ele>2262.0</ele>
      </trkpt>
      <trkpt lat="44.34721" lon="6.90125">
        <time>2023-04-16T07:38:04+00:00</time>
        <ele>2262.0</ele>
      </trkpt>
      <trkpt lat="44.34724" lon="6.90128">
        <time>2023-04-16T07:38:07+00:00</time>
        <ele>2263.0</ele>
      </trkpt>
      <trkpt lat="44.34735" lon="6.90134">
        <time>2023-04-16T07:38:18+00:00</time>
        <ele>2263.0</ele>
      </trkpt>
      <trkpt lat="44.34741" lon="6.90138">
        <time>2023-04-16T07:38:26+00:00</time>
        <ele>2264.0</ele>
      </trkpt>
      <trkpt lat="44.34746" lon="6.9014">
        <time>2023-04-16T07:38:32+00:00</time>
        <ele>2264.0</ele>
      </trkpt>
      <trkpt lat="44.34751" lon="6.90142">
        <time>2023-04-16T07:38:37+00:00</time>
        <ele>2265.0</ele>
      </trkpt>
      <trkpt lat="44.34754" lon="6.90143">
        <time>2023-04-16T07:38:40+00:00</time>
        <ele>2265.0</ele>
      </trkpt>
      <trkpt lat="44.34756" lon="6.90144">
        <time>2023-04-16T07:38:42+00:00</time>
        <ele>2266.0</ele>
      </trkpt>
      <trkpt lat="44.34761" lon="6.90147">
        <time>2023-04-16T07:38:48+00:00</time>
        <ele>2266.0</ele>
      </trkpt>
      <trkpt lat="44.34766" lon="6.9015">
        <time>2023-04-16T07:38:54+00:00</time>
        <ele>2267.0</ele>
      </trkpt>
      <trkpt lat="44.34773" lon="6.90157">
        <time>2023-04-16T07:39:05+00:00</time>
        <ele>2269.0</ele>
      </trkpt>
      <trkpt lat="44.34775" lon="6.90157">
        <time>2023-04-16T07:39:07+00:00</time>
        <ele>2270.0</ele>
      </trkpt>
      <trkpt lat="44.3478" lon="6.90158">
        <time>2023-04-16T07:39:14+00:00</time>
        <ele>2271.0</ele>
      </trkpt>
      <trkpt lat="44.34781" lon="6.90158">
        <time>2023-04-16T07:39:15+00:00</time>
        <ele>2271.0</ele>
      </trkpt>
      <trkpt lat="44.34784" lon="6.90159">
        <time>2023-04-16T07:39:19+00:00</time>
        <ele>2272.0</ele>
      </trkpt>
      <trkpt lat="44.34788" lon="6.90156">
        <time>2023-04-16T07:39:28+00:00</time>
        <ele>2272.0</ele>
      </trkpt>
      <trkpt lat="44.34792" lon="6.90157">
        <time>2023-04-16T07:39:33+00:00</time>
        <ele>2273.0</ele>
      </trkpt>
      <trkpt lat="44.34793" lon="6.90158">
        <time>2023-04-16T07:39:36+00:00</time>
        <ele>2274.0</ele>
      </trkpt>
      <trkpt lat="44.34798" lon="6.90162">
        <time>2023-04-16T07:39:43+00:00</time>
        <ele>2275.0</ele>
      </trkpt>
      <trkpt lat="44.34801" lon="6.90166">
        <time>2023-04-16T07:39:49+00:00</time>
        <ele>2276.0</ele>
      </trkpt>
      <trkpt lat="44.34803" lon="6.90175">
        <time>2023-04-16T07:39:58+00:00</time>
        <ele>2277.0</ele>
      </trkpt>
      <trkpt lat="44.34804" lon="6.90179">
        <time>2023-04-16T07:40:04+00:00</time>
        <ele>2277.0</ele>
      </trkpt>
      <trkpt lat="44.34805" lon="6.9018">
        <time>2023-04-16T07:40:06+00:00</time>
        <ele>2278.0</ele>
      </trkpt>
      <trkpt lat="44.34807" lon="6.90182">
        <time>2023-04-16T07:40:09+00:00</time>
        <ele>2278.0</ele>
      </trkpt>
      <trkpt lat="44.34809" lon="6.90185">
        <time>2023-04-16T07:40:12+00:00</time>
        <ele>2279.0</ele>
      </trkpt>
      <trkpt lat="44.34812" lon="6.90193">
        <time>2023-04-16T07:40:20+00:00</time>
        <ele>2281.0</ele>
      </trkpt>
      <trkpt lat="44.34815" lon="6.90198">
        <time>2023-04-16T07:40:26+00:00</time>
        <ele>2282.0</ele>
      </trkpt>
      <trkpt lat="44.34814" lon="6.90206">
        <time>2023-04-16T07:40:34+00:00</time>
        <ele>2283.0</ele>
      </trkpt>
      <trkpt lat="44.34815" lon="6.90208">
        <time>2023-04-16T07:40:37+00:00</time>
        <ele>2284.0</ele>
      </trkpt>
      <trkpt lat="44.34814" lon="6.9021">
        <time>2023-04-16T07:40:39+00:00</time>
        <ele>2284.0</ele>
      </trkpt>
      <trkpt lat="44.34815" lon="6.90214">
        <time>2023-04-16T07:40:44+00:00</time>
        <ele>2285.0</ele>
      </trkpt>
      <trkpt lat="44.34816" lon="6.90215">
        <time>2023-04-16T07:40:46+00:00</time>
        <ele>2286.0</ele>
      </trkpt>
      <trkpt lat="44.34816" lon="6.90216">
        <time>2023-04-16T07:40:48+00:00</time>
        <ele>2286.0</ele>
      </trkpt>
      <trkpt lat="44.34817" lon="6.90218">
        <time>2023-04-16T07:40:52+00:00</time>
        <ele>2287.0</ele>
      </trkpt>
      <trkpt lat="44.34818" lon="6.90218">
        <time>2023-04-16T07:40:55+00:00</time>
        <ele>2287.0</ele>
      </trkpt>
      <trkpt lat="44.3482" lon="6.90221">
        <time>2023-04-16T07:41:04+00:00</time>
        <ele>2288.0</ele>
      </trkpt>
      <trkpt lat="44.34821" lon="6.90222">
        <time>2023-04-16T07:41:07+00:00</time>
        <ele>2289.0</ele>
      </trkpt>
      <trkpt lat="44.34825" lon="6.90224">
        <time>2023-04-16T07:41:13+00:00</time>
        <ele>2291.0</ele>
      </trkpt>
      <trkpt lat="44.34829" lon="6.90224">
        <time>2023-04-16T07:41:21+00:00</time>
        <ele>2292.0</ele>
      </trkpt>
      <trkpt lat="44.34833" lon="6.90224">
        <time>2023-04-16T07:41:27+00:00</time>
        <ele>2293.0</ele>
      </trkpt>
      <trkpt lat="44.34837" lon="6.90227">
        <time>2023-04-16T07:41:33+00:00</time>
        <ele>2295.0</ele>
      </trkpt>
      <trkpt lat="44.3484" lon="6.90227">
        <time>2023-04-16T07:41:38+00:00</time>
        <ele>2296.0</ele>
      </trkpt>
      <trkpt lat="44.34842" lon="6.90227">
        <time>2023-04-16T07:41:40+00:00</time>
        <ele>2296.0</ele>
      </trkpt>
      <trkpt lat="44.34845" lon="6.90227">
        <time>2023-04-16T07:41:46+00:00</time>
        <ele>2297.0</ele>
      </trkpt>
      <trkpt lat="44.3485" lon="6.90227">
        <time>2023-04-16T07:41:52+00:00</time>
        <ele>2299.0</ele>
      </trkpt>
      <trkpt lat="44.34852" lon="6.90228">
        <time>2023-04-16T07:41:56+00:00</time>
        <ele>2300.0</ele>
      </trkpt>
      <trkpt lat="44.34854" lon="6.90231">
        <time>2023-04-16T07:42:00+00:00</time>
        <ele>2301.0</ele>
      </trkpt>
      <trkpt lat="44.34854" lon="6.90233">
        <time>2023-04-16T07:42:01+00:00</time>
        <ele>2302.0</ele>
      </trkpt>
      <trkpt lat="44.34853" lon="6.90234">
        <time>2023-04-16T07:42:02+00:00</time>
        <ele>2302.0</ele>
      </trkpt>
      <trkpt lat="44.3485" lon="6.90237">
        <time>2023-04-16T07:42:08+00:00</time>
        <ele>2302.0</ele>
      </trkpt>
      <trkpt lat="44.34846" lon="6.90241">
        <time>2023-04-16T07:42:16+00:00</time>
        <ele>2302.0</ele>
      </trkpt>
      <trkpt lat="44.34844" lon="6.90242">
        <time>2023-04-16T07:42:19+00:00</time>
        <ele>2302.0</ele>
      </trkpt>
      <trkpt lat="44.34843" lon="6.90245">
        <time>2023-04-16T07:42:23+00:00</time>
        <ele>2303.0</ele>
      </trkpt>
      <trkpt lat="44.34842" lon="6.90251">
        <time>2023-04-16T07:42:31+00:00</time>
        <ele>2304.0</ele>
      </trkpt>
      <trkpt lat="44.34842" lon="6.90252">
        <time>2023-04-16T07:42:37+00:00</time>
        <ele>2305.0</ele>
      </trkpt>
      <trkpt lat="44.34843" lon="6.90252">
        <time>2023-04-16T07:42:38+00:00</time>
        <ele>2305.0</ele>
      </trkpt>
      <trkpt lat="44.34844" lon="6.90253">
        <time>2023-04-16T07:42:40+00:00</time>
        <ele>2306.0</ele>
      </trkpt>
      <trkpt lat="44.34847" lon="6.90255">
        <time>2023-04-16T07:42:45+00:00</time>
        <ele>2307.0</ele>
      </trkpt>
      <trkpt lat="44.34848" lon="6.90256">
        <time>2023-04-16T07:42:49+00:00</time>
        <ele>2308.0</ele>
      </trkpt>
      <trkpt lat="44.34848" lon="6.90256">
        <time>2023-04-16T07:42:51+00:00</time>
        <ele>2308.0</ele>
      </trkpt>
      <trkpt lat="44.34849" lon="6.90256">
        <time>2023-04-16T07:42:55+00:00</time>
        <ele>2308.0</ele>
      </trkpt>
      <trkpt lat="44.34851" lon="6.90257">
        <time>2023-04-16T07:42:59+00:00</time>
        <ele>2309.0</ele>
      </trkpt>
      <trkpt lat="44.34855" lon="6.90257">
        <time>2023-04-16T07:43:04+00:00</time>
        <ele>2311.0</ele>
      </trkpt>
      <trkpt lat="44.34858" lon="6.90258">
        <time>2023-04-16T07:43:11+00:00</time>
        <ele>2312.0</ele>
      </trkpt>
      <trkpt lat="44.34856" lon="6.90265">
        <time>2023-04-16T07:43:20+00:00</time>
        <ele>2313.0</ele>
      </trkpt>
      <trkpt lat="44.34853" lon="6.90271">
        <time>2023-04-16T07:43:28+00:00</time>
        <ele>2314.0</ele>
      </trkpt>
      <trkpt lat="44.34851" lon="6.90277">
        <time>2023-04-16T07:43:35+00:00</time>
        <ele>2314.0</ele>
      </trkpt>
      <trkpt lat="44.34849" lon="6.90281">
        <time>2023-04-16T07:43:42+00:00</time>
        <ele>2314.0</ele>
      </trkpt>
      <trkpt lat="44.34848" lon="6.90282">
        <time>2023-04-16T07:43:44+00:00</time>
        <ele>2314.0</ele>
      </trkpt>
      <trkpt lat="44.34847" lon="6.90282">
        <time>2023-04-16T07:43:45+00:00</time>
        <ele>2313.0</ele>
      </trkpt>
      <trkpt lat="44.34847" lon="6.90282">
        <time>2023-04-16T07:43:46+00:00</time>
        <ele>2313.0</ele>
      </trkpt>
      <trkpt lat="44.34847" lon="6.90283">
        <time>2023-04-16T07:43:47+00:00</time>
        <ele>2314.0</ele>
      </trkpt>
      <trkpt lat="44.34847" lon="6.90283">
        <time>2023-04-16T07:43:48+00:00</time>
        <ele>2314.0</ele>
      </trkpt>
      <trkpt lat="44.34845" lon="6.90283">
        <time>2023-04-16T07:43:52+00:00</time>
        <ele>2313.0</ele>
      </trkpt>
      <trkpt lat="44.34846" lon="6.90283">
        <time>2023-04-16T07:43:56+00:00</time>
        <ele>2313.0</ele>
      </trkpt>
      <trkpt lat="44.34852" lon="6.90283">
        <time>2023-04-16T07:44:02+00:00</time>
        <ele>2316.0</ele>
      </trkpt>
      <trkpt lat="44.34852" lon="6.90284">
        <time>2023-04-16T07:44:03+00:00</time>
        <ele>2316.0</ele>
      </trkpt>
      <trkpt lat="44.34853" lon="6.90284">
        <time>2023-04-16T07:44:05+00:00</time>
        <ele>2317.0</ele>
      </trkpt>
      <trkpt lat="44.34855" lon="6.90285">
        <time>2023-04-16T07:44:09+00:00</time>
        <ele>2318.0</ele>
      </trkpt>
      <trkpt lat="44.34857" lon="6.90285">
        <time>2023-04-16T07:44:13+00:00</time>
        <ele>2319.0</ele>
      </trkpt>
      <trkpt lat="44.34861" lon="6.90285">
        <time>2023-04-16T07:44:17+00:00</time>
        <ele>2320.0</ele>
      </trkpt>
      <trkpt lat="44.34863" lon="6.90282">
        <time>2023-04-16T07:44:24+00:00</time>
        <ele>2321.0</ele>
      </trkpt>
      <trkpt lat="44.34864" lon="6.9028">
        <time>2023-04-16T07:44:26+00:00</time>
        <ele>2321.0</ele>
      </trkpt>
      <trkpt lat="44.34865" lon="6.90279">
        <time>2023-04-16T07:44:30+00:00</time>
        <ele>2321.0</ele>
      </trkpt>
      <trkpt lat="44.34864" lon="6.90279">
        <time>2023-04-16T07:44:31+00:00</time>
        <ele>2320.0</ele>
      </trkpt>
      <trkpt lat="44.34865" lon="6.90281">
        <time>2023-04-16T07:44:36+00:00</time>
        <ele>2322.0</ele>
      </trkpt>
      <trkpt lat="44.34866" lon="6.90281">
        <time>2023-04-16T07:44:40+00:00</time>
        <ele>2322.0</ele>
      </trkpt>
      <trkpt lat="44.34863" lon="6.90281">
        <time>2023-04-16T07:44:45+00:00</time>
        <ele>2320.0</ele>
      </trkpt>
      <trkpt lat="44.34864" lon="6.90284">
        <time>2023-04-16T07:44:50+00:00</time>
        <ele>2322.0</ele>
      </trkpt>
      <trkpt lat="44.34864" lon="6.90287">
        <time>2023-04-16T07:44:53+00:00</time>
        <ele>2323.0</ele>
      </trkpt>
      <trkpt lat="44.34865" lon="6.90291">
        <time>2023-04-16T07:44:57+00:00</time>
        <ele>2324.0</ele>
      </trkpt>
      <trkpt lat="44.34865" lon="6.90296">
        <time>2023-04-16T07:45:02+00:00</time>
        <ele>2325.0</ele>
      </trkpt>
      <trkpt lat="44.34865" lon="6.90299">
        <time>2023-04-16T07:45:07+00:00</time>
        <ele>2326.0</ele>
      </trkpt>
      <trkpt lat="44.34863" lon="6.90303">
        <time>2023-04-16T07:45:12+00:00</time>
        <ele>2326.0</ele>
      </trkpt>
      <trkpt lat="44.34862" lon="6.90305">
        <time>2023-04-16T07:45:14+00:00</time>
        <ele>2326.0</ele>
      </trkpt>
      <trkpt lat="44.34863" lon="6.90306">
        <time>2023-04-16T07:45:17+00:00</time>
        <ele>2327.0</ele>
      </trkpt>
      <trkpt lat="44.34862" lon="6.90308">
        <time>2023-04-16T07:45:23+00:00</time>
        <ele>2327.0</ele>
      </trkpt>
      <trkpt lat="44.34861" lon="6.90316">
        <time>2023-04-16T07:45:32+00:00</time>
        <ele>2329.0</ele>
      </trkpt>
      <trkpt lat="44.34862" lon="6.90321">
        <time>2023-04-16T07:45:37+00:00</time>
        <ele>2330.0</ele>
      </trkpt>
      <trkpt lat="44.3486" lon="6.90319">
        <time>2023-04-16T07:45:45+00:00</time>
        <ele>2329.0</ele>
      </trkpt>
      <trkpt lat="44.34859" lon="6.90319">
        <time>2023-04-16T07:45:47+00:00</time>
        <ele>2329.0</ele>
      </trkpt>
      <trkpt lat="44.3486" lon="6.90319">
        <time>2023-04-16T07:45:48+00:00</time>
        <ele>2329.0</ele>
      </trkpt>
      <trkpt lat="44.3486" lon="6.90319">
        <time>2023-04-16T07:45:49+00:00</time>
        <ele>2329.0</ele>
      </trkpt>
      <trkpt lat="44.34861" lon="6.90318">
        <time>2023-04-16T07:45:50+00:00</time>
        <ele>2329.0</ele>
      </trkpt>
      <trkpt lat="44.34862" lon="6.90318">
        <time>2023-04-16T07:45:52+00:00</time>
        <ele>2330.0</ele>
      </trkpt>
      <trkpt lat="44.34864" lon="6.90317">
        <time>2023-04-16T07:45:56+00:00</time>
        <ele>2330.0</ele>
      </trkpt>
      <trkpt lat="44.34869" lon="6.90319">
        <time>2023-04-16T07:46:01+00:00</time>
        <ele>2333.0</ele>
      </trkpt>
      <trkpt lat="44.34867" lon="6.90324">
        <time>2023-04-16T07:46:12+00:00</time>
        <ele>2333.0</ele>
      </trkpt>
      <trkpt lat="44.34865" lon="6.90325">
        <time>2023-04-16T07:46:14+00:00</time>
        <ele>2333.0</ele>
      </trkpt>
      <trkpt lat="44.34864" lon="6.90327">
        <time>2023-04-16T07:46:17+00:00</time>
        <ele>2333.0</ele>
      </trkpt>
      <trkpt lat="44.34864" lon="6.90328">
        <time>2023-04-16T07:46:19+00:00</time>
        <ele>2333.0</ele>
      </trkpt>
      <trkpt lat="44.34863" lon="6.90329">
        <time>2023-04-16T07:46:24+00:00</time>
        <ele>2333.0</ele>
      </trkpt>
      <trkpt lat="44.34864" lon="6.90332">
        <time>2023-04-16T07:46:27+00:00</time>
        <ele>2334.0</ele>
      </trkpt>
      <trkpt lat="44.34865" lon="6.90337">
        <time>2023-04-16T07:46:33+00:00</time>
        <ele>2336.0</ele>
      </trkpt>
      <trkpt lat="44.34867" lon="6.90341">
        <time>2023-04-16T07:46:38+00:00</time>
        <ele>2337.0</ele>
      </trkpt>
      <trkpt lat="44.34869" lon="6.90345">
        <time>2023-04-16T07:46:44+00:00</time>
        <ele>2339.0</ele>
      </trkpt>
      <trkpt lat="44.3487" lon="6.90349">
        <time>2023-04-16T07:46:49+00:00</time>
        <ele>2340.0</ele>
      </trkpt>
      <trkpt lat="44.34872" lon="6.90353">
        <time>2023-04-16T07:46:54+00:00</time>
        <ele>2342.0</ele>
      </trkpt>
      <trkpt lat="44.34876" lon="6.90359">
        <time>2023-04-16T07:46:59+00:00</time>
        <ele>2344.0</ele>
      </trkpt>
      <trkpt lat="44.34876" lon="6.9036">
        <time>2023-04-16T07:47:00+00:00</time>
        <ele>2344.0</ele>
      </trkpt>
      <trkpt lat="44.34878" lon="6.90365">
        <time>2023-04-16T07:47:05+00:00</time>
        <ele>2345.0</ele>
      </trkpt>
      <trkpt lat="44.34878" lon="6.90369">
        <time>2023-04-16T07:47:10+00:00</time>
        <ele>2346.0</ele>
      </trkpt>
      <trkpt lat="44.34879" lon="6.90374">
        <time>2023-04-16T07:47:17+00:00</time>
        <ele>2347.0</ele>
      </trkpt>
      <trkpt lat="44.3488" lon="6.9038">
        <time>2023-04-16T07:47:23+00:00</time>
        <ele>2348.0</ele>
      </trkpt>
      <trkpt lat="44.3488" lon="6.90383">
        <time>2023-04-16T07:47:27+00:00</time>
        <ele>2349.0</ele>
      </trkpt>
      <trkpt lat="44.34882" lon="6.90389">
        <time>2023-04-16T07:47:34+00:00</time>
        <ele>2350.0</ele>
      </trkpt>
      <trkpt lat="44.34884" lon="6.90392">
        <time>2023-04-16T07:47:37+00:00</time>
        <ele>2351.0</ele>
      </trkpt>
      <trkpt lat="44.34885" lon="6.90395">
        <time>2023-04-16T07:47:41+00:00</time>
        <ele>2351.0</ele>
      </trkpt>
      <trkpt lat="44.34887" lon="6.90402">
        <time>2023-04-16T07:47:49+00:00</time>
        <ele>2352.0</ele>
      </trkpt>
      <trkpt lat="44.34888" lon="6.90404">
        <time>2023-04-16T07:47:51+00:00</time>
        <ele>2352.0</ele>
      </trkpt>
      <trkpt lat="44.3489" lon="6.90408">
        <time>2023-04-16T07:47:58+00:00</time>
        <ele>2353.0</ele>
      </trkpt>
      <trkpt lat="44.34891" lon="6.90407">
        <time>2023-04-16T07:48:21+00:00</time>
        <ele>2353.0</ele>
      </trkpt>
      <trkpt lat="44.3489" lon="6.90408">
        <time>2023-04-16T07:48:30+00:00</time>
        <ele>2353.0</ele>
      </trkpt>
      <trkpt lat="44.34889" lon="6.90408">
        <time>2023-04-16T07:48:34+00:00</time>
        <ele>2353.0</ele>
      </trkpt>
      <trkpt lat="44.34887" lon="6.90408">
        <time>2023-04-16T07:48:46+00:00</time>
        <ele>2352.0</ele>
      </trkpt>
      <trkpt lat="44.34887" lon="6.90408">
        <time>2023-04-16T07:48:48+00:00</time>
        <ele>2352.0</ele>
      </trkpt>
      <trkpt lat="44.34887" lon="6.90408">
        <time>2023-04-16T07:48:49+00:00</time>
        <ele>2352.0</ele>
      </trkpt>
      <trkpt lat="44.34886" lon="6.90408">
        <time>2023-04-16T07:48:50+00:00</time>
        <ele>2352.0</ele>
      </trkpt>
      <trkpt lat="44.34885" lon="6.90407">
        <time>2023-04-16T07:48:52+00:00</time>
        <ele>2352.0</ele>
      </trkpt>
      <trkpt lat="44.34886" lon="6.90407">
        <time>2023-04-16T07:48:57+00:00</time>
        <ele>2352.0</ele>
      </trkpt>
      <trkpt lat="44.34886" lon="6.90407">
        <time>2023-04-16T07:48:58+00:00</time>
        <ele>2352.0</ele>
      </trkpt>
      <trkpt lat="44.34887" lon="6.90407">
        <time>2023-04-16T07:48:59+00:00</time>
        <ele>2352.0</ele>
      </trkpt>
      <trkpt lat="44.34887" lon="6.90407">
        <time>2023-04-16T07:49:03+00:00</time>
        <ele>2352.0</ele>
      </trkpt>
      <trkpt lat="44.34887" lon="6.90408">
        <time>2023-04-16T07:49:11+00:00</time>
        <ele>2352.0</ele>
      </trkpt>
      <trkpt lat="44.34888" lon="6.90408">
        <time>2023-04-16T07:49:14+00:00</time>
        <ele>2352.0</ele>
      </trkpt>
      <trkpt lat="44.34889" lon="6.90409">
        <time>2023-04-16T07:49:19+00:00</time>
        <ele>2353.0</ele>
      </trkpt>
      <trkpt lat="44.34889" lon="6.90414">
        <time>2023-04-16T07:49:23+00:00</time>
        <ele>2353.0</ele>
      </trkpt>
      <trkpt lat="44.34889" lon="6.90419">
        <time>2023-04-16T07:49:26+00:00</time>
        <ele>2353.0</ele>
      </trkpt>
      <trkpt lat="44.34887" lon="6.90431">
        <time>2023-04-16T07:49:36+00:00</time>
        <ele>2353.0</ele>
      </trkpt>
      <trkpt lat="44.34886" lon="6.90437">
        <time>2023-04-16T07:49:41+00:00</time>
        <ele>2353.0</ele>
      </trkpt>
      <trkpt lat="44.34887" lon="6.90469">
        <time>2023-04-16T07:50:04+00:00</time>
        <ele>2354.0</ele>
      </trkpt>
      <trkpt lat="44.34886" lon="6.90472">
        <time>2023-04-16T07:50:07+00:00</time>
        <ele>2354.0</ele>
      </trkpt>
      <trkpt lat="44.34885" lon="6.90476">
        <time>2023-04-16T07:50:11+00:00</time>
        <ele>2354.0</ele>
      </trkpt>
      <trkpt lat="44.34885" lon="6.90485">
        <time>2023-04-16T07:50:19+00:00</time>
        <ele>2355.0</ele>
      </trkpt>
      <trkpt lat="44.34886" lon="6.90492">
        <time>2023-04-16T07:50:25+00:00</time>
        <ele>2355.0</ele>
      </trkpt>
      <trkpt lat="44.34886" lon="6.90493">
        <time>2023-04-16T07:50:26+00:00</time>
        <ele>2355.0</ele>
      </trkpt>
      <trkpt lat="44.34887" lon="6.90496">
        <time>2023-04-16T07:50:29+00:00</time>
        <ele>2356.0</ele>
      </trkpt>
      <trkpt lat="44.34889" lon="6.90501">
        <time>2023-04-16T07:50:33+00:00</time>
        <ele>2356.0</ele>
      </trkpt>
      <trkpt lat="44.3489" lon="6.90504">
        <time>2023-04-16T07:50:36+00:00</time>
        <ele>2357.0</ele>
      </trkpt>
      <trkpt lat="44.3489" lon="6.90506">
        <time>2023-04-16T07:50:37+00:00</time>
        <ele>2357.0</ele>
      </trkpt>
      <trkpt lat="44.34891" lon="6.90507">
        <time>2023-04-16T07:50:38+00:00</time>
        <ele>2357.0</ele>
      </trkpt>
      <trkpt lat="44.34892" lon="6.90509">
        <time>2023-04-16T07:50:40+00:00</time>
        <ele>2357.0</ele>
      </trkpt>
      <trkpt lat="44.34893" lon="6.9051">
        <time>2023-04-16T07:50:41+00:00</time>
        <ele>2357.0</ele>
      </trkpt>
      <trkpt lat="44.34893" lon="6.90511">
        <time>2023-04-16T07:50:42+00:00</time>
        <ele>2357.0</ele>
      </trkpt>
      <trkpt lat="44.34895" lon="6.90516">
        <time>2023-04-16T07:50:47+00:00</time>
        <ele>2358.0</ele>
      </trkpt>
      <trkpt lat="44.34897" lon="6.90522">
        <time>2023-04-16T07:50:54+00:00</time>
        <ele>2359.0</ele>
      </trkpt>
      <trkpt lat="44.34898" lon="6.90526">
        <time>2023-04-16T07:50:57+00:00</time>
        <ele>2359.0</ele>
      </trkpt>
      <trkpt lat="44.34902" lon="6.90534">
        <time>2023-04-16T07:51:04+00:00</time>
        <ele>2360.0</ele>
      </trkpt>
      <trkpt lat="44.34903" lon="6.90537">
        <time>2023-04-16T07:51:06+00:00</time>
        <ele>2360.0</ele>
      </trkpt>
      <trkpt lat="44.34906" lon="6.90546">
        <time>2023-04-16T07:51:15+00:00</time>
        <ele>2362.0</ele>
      </trkpt>
      <trkpt lat="44.34908" lon="6.90549">
        <time>2023-04-16T07:51:18+00:00</time>
        <ele>2362.0</ele>
      </trkpt>
      <trkpt lat="44.3491" lon="6.90554">
        <time>2023-04-16T07:51:24+00:00</time>
        <ele>2363.0</ele>
      </trkpt>
      <trkpt lat="44.34912" lon="6.9056">
        <time>2023-04-16T07:51:31+00:00</time>
        <ele>2364.0</ele>
      </trkpt>
      <trkpt lat="44.34913" lon="6.90569">
        <time>2023-04-16T07:51:40+00:00</time>
        <ele>2365.0</ele>
      </trkpt>
      <trkpt lat="44.34914" lon="6.90574">
        <time>2023-04-16T07:51:45+00:00</time>
        <ele>2366.0</ele>
      </trkpt>
      <trkpt lat="44.34916" lon="6.90577">
        <time>2023-04-16T07:51:48+00:00</time>
        <ele>2367.0</ele>
      </trkpt>
      <trkpt lat="44.34918" lon="6.90583">
        <time>2023-04-16T07:51:55+00:00</time>
        <ele>2368.0</ele>
      </trkpt>
      <trkpt lat="44.34919" lon="6.90588">
        <time>2023-04-16T07:52:02+00:00</time>
        <ele>2369.0</ele>
      </trkpt>
      <trkpt lat="44.34919" lon="6.90591">
        <time>2023-04-16T07:52:05+00:00</time>
        <ele>2369.0</ele>
      </trkpt>
      <trkpt lat="44.34922" lon="6.90595">
        <time>2023-04-16T07:52:12+00:00</time>
        <ele>2370.0</ele>
      </trkpt>
      <trkpt lat="44.34924" lon="6.90602">
        <time>2023-04-16T07:52:19+00:00</time>
        <ele>2371.0</ele>
      </trkpt>
      <trkpt lat="44.34926" lon="6.90608">
        <time>2023-04-16T07:52:24+00:00</time>
        <ele>2372.0</ele>
      </trkpt>
      <trkpt lat="44.34927" lon="6.90613">
        <time>2023-04-16T07:52:31+00:00</time>
        <ele>2373.0</ele>
      </trkpt>
      <trkpt lat="44.34927" lon="6.90618">
        <time>2023-04-16T07:52:36+00:00</time>
        <ele>2374.0</ele>
      </trkpt>
      <trkpt lat="44.34927" lon="6.90625">
        <time>2023-04-16T07:52:42+00:00</time>
        <ele>2375.0</ele>
      </trkpt>
      <trkpt lat="44.34929" lon="6.90636">
        <time>2023-04-16T07:52:51+00:00</time>
        <ele>2376.0</ele>
      </trkpt>
      <trkpt lat="44.34928" lon="6.90641">
        <time>2023-04-16T07:52:58+00:00</time>
        <ele>2377.0</ele>
      </trkpt>
      <trkpt lat="44.34928" lon="6.90644">
        <time>2023-04-16T07:53:01+00:00</time>
        <ele>2377.0</ele>
      </trkpt>
      <trkpt lat="44.34929" lon="6.90648">
        <time>2023-04-16T07:53:05+00:00</time>
        <ele>2377.0</ele>
      </trkpt>
      <trkpt lat="44.34933" lon="6.90655">
        <time>2023-04-16T07:53:11+00:00</time>
        <ele>2378.0</ele>
      </trkpt>
      <trkpt lat="44.34935" lon="6.90663">
        <time>2023-04-16T07:53:18+00:00</time>
        <ele>2379.0</ele>
      </trkpt>
      <trkpt lat="44.34936" lon="6.9067">
        <time>2023-04-16T07:53:26+00:00</time>
        <ele>2380.0</ele>
      </trkpt>
      <trkpt lat="44.34935" lon="6.90671">
        <time>2023-04-16T07:53:27+00:00</time>
        <ele>2380.0</ele>
      </trkpt>
      <trkpt lat="44.34936" lon="6.90677">
        <time>2023-04-16T07:53:36+00:00</time>
        <ele>2381.0</ele>
      </trkpt>
      <trkpt lat="44.34937" lon="6.90683">
        <time>2023-04-16T07:53:40+00:00</time>
        <ele>2381.0</ele>
      </trkpt>
      <trkpt lat="44.34938" lon="6.90691">
        <time>2023-04-16T07:53:47+00:00</time>
        <ele>2382.0</ele>
      </trkpt>
      <trkpt lat="44.34936" lon="6.90699">
        <time>2023-04-16T07:53:55+00:00</time>
        <ele>2383.0</ele>
      </trkpt>
      <trkpt lat="44.34937" lon="6.90701">
        <time>2023-04-16T07:53:57+00:00</time>
        <ele>2384.0</ele>
      </trkpt>
      <trkpt lat="44.34937" lon="6.90709">
        <time>2023-04-16T07:54:04+00:00</time>
        <ele>2385.0</ele>
      </trkpt>
      <trkpt lat="44.34938" lon="6.90716">
        <time>2023-04-16T07:54:11+00:00</time>
        <ele>2386.0</ele>
      </trkpt>
      <trkpt lat="44.34941" lon="6.90722">
        <time>2023-04-16T07:54:19+00:00</time>
        <ele>2387.0</ele>
      </trkpt>
      <trkpt lat="44.34943" lon="6.90733">
        <time>2023-04-16T07:54:27+00:00</time>
        <ele>2388.0</ele>
      </trkpt>
      <trkpt lat="44.34946" lon="6.90742">
        <time>2023-04-16T07:54:36+00:00</time>
        <ele>2389.0</ele>
      </trkpt>
      <trkpt lat="44.34946" lon="6.90751">
        <time>2023-04-16T07:54:43+00:00</time>
        <ele>2390.0</ele>
      </trkpt>
      <trkpt lat="44.34946" lon="6.90752">
        <time>2023-04-16T07:54:44+00:00</time>
        <ele>2391.0</ele>
      </trkpt>
      <trkpt lat="44.34948" lon="6.90758">
        <time>2023-04-16T07:54:48+00:00</time>
        <ele>2392.0</ele>
      </trkpt>
      <trkpt lat="44.34947" lon="6.90761">
        <time>2023-04-16T07:54:52+00:00</time>
        <ele>2392.0</ele>
      </trkpt>
      <trkpt lat="44.34944" lon="6.90765">
        <time>2023-04-16T07:54:58+00:00</time>
        <ele>2392.0</ele>
      </trkpt>
      <trkpt lat="44.34943" lon="6.90767">
        <time>2023-04-16T07:55:03+00:00</time>
        <ele>2392.0</ele>
      </trkpt>
      <trkpt lat="44.34943" lon="6.9077">
        <time>2023-04-16T07:55:06+00:00</time>
        <ele>2393.0</ele>
      </trkpt>
      <trkpt lat="44.34944" lon="6.90772">
        <time>2023-04-16T07:55:08+00:00</time>
        <ele>2393.0</ele>
      </trkpt>
      <trkpt lat="44.34944" lon="6.90774">
        <time>2023-04-16T07:55:10+00:00</time>
        <ele>2394.0</ele>
      </trkpt>
      <trkpt lat="44.34944" lon="6.90782">
        <time>2023-04-16T07:55:17+00:00</time>
        <ele>2395.0</ele>
      </trkpt>
      <trkpt lat="44.34945" lon="6.90785">
        <time>2023-04-16T07:55:20+00:00</time>
        <ele>2396.0</ele>
      </trkpt>
      <trkpt lat="44.34945" lon="6.90786">
        <time>2023-04-16T07:55:21+00:00</time>
        <ele>2396.0</ele>
      </trkpt>
      <trkpt lat="44.34946" lon="6.90792">
        <time>2023-04-16T07:55:26+00:00</time>
        <ele>2398.0</ele>
      </trkpt>
      <trkpt lat="44.34947" lon="6.90795">
        <time>2023-04-16T07:55:29+00:00</time>
        <ele>2398.0</ele>
      </trkpt>
      <trkpt lat="44.34949" lon="6.90805">
        <time>2023-04-16T07:55:38+00:00</time>
        <ele>2401.0</ele>
      </trkpt>
      <trkpt lat="44.3495" lon="6.90811">
        <time>2023-04-16T07:55:45+00:00</time>
        <ele>2402.0</ele>
      </trkpt>
      <trkpt lat="44.3495" lon="6.90819">
        <time>2023-04-16T07:55:54+00:00</time>
        <ele>2403.0</ele>
      </trkpt>
      <trkpt lat="44.3495" lon="6.90827">
        <time>2023-04-16T07:56:03+00:00</time>
        <ele>2405.0</ele>
      </trkpt>
      <trkpt lat="44.34948" lon="6.90831">
        <time>2023-04-16T07:56:09+00:00</time>
        <ele>2406.0</ele>
      </trkpt>
      <trkpt lat="44.34948" lon="6.90835">
        <time>2023-04-16T07:56:16+00:00</time>
        <ele>2406.0</ele>
      </trkpt>
      <trkpt lat="44.34947" lon="6.90839">
        <time>2023-04-16T07:56:21+00:00</time>
        <ele>2407.0</ele>
      </trkpt>
      <trkpt lat="44.34947" lon="6.90843">
        <time>2023-04-16T07:56:26+00:00</time>
        <ele>2408.0</ele>
      </trkpt>
      <trkpt lat="44.34948" lon="6.90846">
        <time>2023-04-16T07:56:33+00:00</time>
        <ele>2409.0</ele>
      </trkpt>
      <trkpt lat="44.3495" lon="6.90849">
        <time>2023-04-16T07:56:39+00:00</time>
        <ele>2410.0</ele>
      </trkpt>
      <trkpt lat="44.34953" lon="6.90852">
        <time>2023-04-16T07:56:45+00:00</time>
        <ele>2411.0</ele>
      </trkpt>
      <trkpt lat="44.34956" lon="6.90855">
        <time>2023-04-16T07:56:51+00:00</time>
        <ele>2412.0</ele>
      </trkpt>
      <trkpt lat="44.34958" lon="6.90858">
        <time>2023-04-16T07:56:57+00:00</time>
        <ele>2413.0</ele>
      </trkpt>
      <trkpt lat="44.3496" lon="6.9086">
        <time>2023-04-16T07:57:02+00:00</time>
        <ele>2413.0</ele>
      </trkpt>
      <trkpt lat="44.34964" lon="6.90865">
        <time>2023-04-16T07:57:09+00:00</time>
        <ele>2414.0</ele>
      </trkpt>
      <trkpt lat="44.34968" lon="6.9087">
        <time>2023-04-16T07:57:15+00:00</time>
        <ele>2415.0</ele>
      </trkpt>
      <trkpt lat="44.34968" lon="6.90871">
        <time>2023-04-16T07:57:16+00:00</time>
        <ele>2415.0</ele>
      </trkpt>
      <trkpt lat="44.3497" lon="6.90878">
        <time>2023-04-16T07:57:23+00:00</time>
        <ele>2417.0</ele>
      </trkpt>
      <trkpt lat="44.3497" lon="6.90885">
        <time>2023-04-16T07:57:30+00:00</time>
        <ele>2417.0</ele>
      </trkpt>
      <trkpt lat="44.34968" lon="6.9089">
        <time>2023-04-16T07:57:35+00:00</time>
        <ele>2418.0</ele>
      </trkpt>
      <trkpt lat="44.34968" lon="6.9089">
        <time>2023-04-16T07:57:36+00:00</time>
        <ele>2418.0</ele>
      </trkpt>
      <trkpt lat="44.34967" lon="6.90896">
        <time>2023-04-16T07:57:43+00:00</time>
        <ele>2419.0</ele>
      </trkpt>
      <trkpt lat="44.34967" lon="6.909">
        <time>2023-04-16T07:57:47+00:00</time>
        <ele>2419.0</ele>
      </trkpt>
      <trkpt lat="44.34967" lon="6.90902">
        <time>2023-04-16T07:57:50+00:00</time>
        <ele>2419.0</ele>
      </trkpt>
      <trkpt lat="44.34968" lon="6.90906">
        <time>2023-04-16T07:57:54+00:00</time>
        <ele>2420.0</ele>
      </trkpt>
      <trkpt lat="44.34968" lon="6.90916">
        <time>2023-04-16T07:58:03+00:00</time>
        <ele>2420.0</ele>
      </trkpt>
      <trkpt lat="44.34968" lon="6.90926">
        <time>2023-04-16T07:58:12+00:00</time>
        <ele>2421.0</ele>
      </trkpt>
      <trkpt lat="44.34968" lon="6.90934">
        <time>2023-04-16T07:58:19+00:00</time>
        <ele>2422.0</ele>
      </trkpt>
      <trkpt lat="44.34968" lon="6.90939">
        <time>2023-04-16T07:58:24+00:00</time>
        <ele>2422.0</ele>
      </trkpt>
      <trkpt lat="44.34967" lon="6.9094">
        <time>2023-04-16T07:58:25+00:00</time>
        <ele>2422.0</ele>
      </trkpt>
      <trkpt lat="44.34967" lon="6.90943">
        <time>2023-04-16T07:58:28+00:00</time>
        <ele>2423.0</ele>
      </trkpt>
      <trkpt lat="44.34967" lon="6.90945">
        <time>2023-04-16T07:58:30+00:00</time>
        <ele>2423.0</ele>
      </trkpt>
      <trkpt lat="44.34964" lon="6.90953">
        <time>2023-04-16T07:58:39+00:00</time>
        <ele>2424.0</ele>
      </trkpt>
      <trkpt lat="44.34963" lon="6.90958">
        <time>2023-04-16T07:58:44+00:00</time>
        <ele>2425.0</ele>
      </trkpt>
      <trkpt lat="44.34963" lon="6.9096">
        <time>2023-04-16T07:58:47+00:00</time>
        <ele>2425.0</ele>
      </trkpt>
      <trkpt lat="44.34964" lon="6.90965">
        <time>2023-04-16T07:58:51+00:00</time>
        <ele>2426.0</ele>
      </trkpt>
      <trkpt lat="44.34963" lon="6.90969">
        <time>2023-04-16T07:58:55+00:00</time>
        <ele>2426.0</ele>
      </trkpt>
      <trkpt lat="44.34959" lon="6.90977">
        <time>2023-04-16T07:59:05+00:00</time>
        <ele>2428.0</ele>
      </trkpt>
      <trkpt lat="44.34959" lon="6.90983">
        <time>2023-04-16T07:59:10+00:00</time>
        <ele>2429.0</ele>
      </trkpt>
      <trkpt lat="44.34959" lon="6.90986">
        <time>2023-04-16T07:59:14+00:00</time>
        <ele>2429.0</ele>
      </trkpt>
      <trkpt lat="44.34959" lon="6.90989">
        <time>2023-04-16T07:59:17+00:00</time>
        <ele>2430.0</ele>
      </trkpt>
      <trkpt lat="44.34959" lon="6.90995">
        <time>2023-04-16T07:59:23+00:00</time>
        <ele>2430.0</ele>
      </trkpt>
      <trkpt lat="44.34958" lon="6.90997">
        <time>2023-04-16T07:59:24+00:00</time>
        <ele>2430.0</ele>
      </trkpt>
      <trkpt lat="44.34957" lon="6.90999">
        <time>2023-04-16T07:59:26+00:00</time>
        <ele>2431.0</ele>
      </trkpt>
      <trkpt lat="44.34956" lon="6.91004">
        <time>2023-04-16T07:59:32+00:00</time>
        <ele>2431.0</ele>
      </trkpt>
      <trkpt lat="44.34957" lon="6.91012">
        <time>2023-04-16T07:59:41+00:00</time>
        <ele>2432.0</ele>
      </trkpt>
      <trkpt lat="44.34956" lon="6.91024">
        <time>2023-04-16T07:59:52+00:00</time>
        <ele>2433.0</ele>
      </trkpt>
      <trkpt lat="44.34954" lon="6.91033">
        <time>2023-04-16T08:00:01+00:00</time>
        <ele>2433.0</ele>
      </trkpt>
      <trkpt lat="44.34954" lon="6.91036">
        <time>2023-04-16T08:00:03+00:00</time>
        <ele>2434.0</ele>
      </trkpt>
      <trkpt lat="44.34952" lon="6.91047">
        <time>2023-04-16T08:00:13+00:00</time>
        <ele>2435.0</ele>
      </trkpt>
      <trkpt lat="44.34952" lon="6.91048">
        <time>2023-04-16T08:00:14+00:00</time>
        <ele>2435.0</ele>
      </trkpt>
      <trkpt lat="44.34952" lon="6.91049">
        <time>2023-04-16T08:00:15+00:00</time>
        <ele>2435.0</ele>
      </trkpt>
      <trkpt lat="44.34953" lon="6.91054">
        <time>2023-04-16T08:00:19+00:00</time>
        <ele>2436.0</ele>
      </trkpt>
      <trkpt lat="44.34953" lon="6.91059">
        <time>2023-04-16T08:00:23+00:00</time>
        <ele>2436.0</ele>
      </trkpt>
      <trkpt lat="44.34954" lon="6.91064">
        <time>2023-04-16T08:00:27+00:00</time>
        <ele>2437.0</ele>
      </trkpt>
      <trkpt lat="44.34955" lon="6.91073">
        <time>2023-04-16T08:00:36+00:00</time>
        <ele>2438.0</ele>
      </trkpt>
      <trkpt lat="44.34956" lon="6.91081">
        <time>2023-04-16T08:00:44+00:00</time>
        <ele>2439.0</ele>
      </trkpt>
      <trkpt lat="44.34957" lon="6.91086">
        <time>2023-04-16T08:00:48+00:00</time>
        <ele>2440.0</ele>
      </trkpt>
      <trkpt lat="44.34954" lon="6.91095">
        <time>2023-04-16T08:00:58+00:00</time>
        <ele>2441.0</ele>
      </trkpt>
      <trkpt lat="44.34953" lon="6.91095">
        <time>2023-04-16T08:00:59+00:00</time>
        <ele>2441.0</ele>
      </trkpt>
      <trkpt lat="44.34949" lon="6.91098">
        <time>2023-04-16T08:01:14+00:00</time>
        <ele>2442.0</ele>
      </trkpt>
      <trkpt lat="44.34946" lon="6.9109">
        <time>2023-04-16T08:01:27+00:00</time>
        <ele>2441.0</ele>
      </trkpt>
      <trkpt lat="44.34952" lon="6.91099">
        <time>2023-04-16T08:01:34+00:00</time>
        <ele>2442.0</ele>
      </trkpt>
      <trkpt lat="44.34952" lon="6.91098">
        <time>2023-04-16T08:01:52+00:00</time>
        <ele>2442.0</ele>
      </trkpt>
      <trkpt lat="44.34954" lon="6.9111">
        <time>2023-04-16T08:02:00+00:00</time>
        <ele>2444.0</ele>
      </trkpt>
      <trkpt lat="44.34955" lon="6.91115">
        <time>2023-04-16T08:02:05+00:00</time>
        <ele>2445.0</ele>
      </trkpt>
      <trkpt lat="44.34955" lon="6.91119">
        <time>2023-04-16T08:02:08+00:00</time>
        <ele>2446.0</ele>
      </trkpt>
      <trkpt lat="44.34954" lon="6.91123">
        <time>2023-04-16T08:02:11+00:00</time>
        <ele>2446.0</ele>
      </trkpt>
      <trkpt lat="44.34954" lon="6.91125">
        <time>2023-04-16T08:02:13+00:00</time>
        <ele>2447.0</ele>
      </trkpt>
      <trkpt lat="44.34954" lon="6.91126">
        <time>2023-04-16T08:02:14+00:00</time>
        <ele>2447.0</ele>
      </trkpt>
      <trkpt lat="44.34955" lon="6.91128">
        <time>2023-04-16T08:02:16+00:00</time>
        <ele>2447.0</ele>
      </trkpt>
      <trkpt lat="44.34956" lon="6.91131">
        <time>2023-04-16T08:02:18+00:00</time>
        <ele>2448.0</ele>
      </trkpt>
      <trkpt lat="44.34957" lon="6.91134">
        <time>2023-04-16T08:02:22+00:00</time>
        <ele>2449.0</ele>
      </trkpt>
      <trkpt lat="44.34957" lon="6.91135">
        <time>2023-04-16T08:02:23+00:00</time>
        <ele>2449.0</ele>
      </trkpt>
      <trkpt lat="44.34957" lon="6.91139">
        <time>2023-04-16T08:02:26+00:00</time>
        <ele>2450.0</ele>
      </trkpt>
      <trkpt lat="44.34957" lon="6.9114">
        <time>2023-04-16T08:02:27+00:00</time>
        <ele>2450.0</ele>
      </trkpt>
      <trkpt lat="44.34956" lon="6.91148">
        <time>2023-04-16T08:02:35+00:00</time>
        <ele>2452.0</ele>
      </trkpt>
      <trkpt lat="44.34957" lon="6.91154">
        <time>2023-04-16T08:02:42+00:00</time>
        <ele>2454.0</ele>
      </trkpt>
      <trkpt lat="44.34956" lon="6.91157">
        <time>2023-04-16T08:02:45+00:00</time>
        <ele>2454.0</ele>
      </trkpt>
      <trkpt lat="44.34956" lon="6.91158">
        <time>2023-04-16T08:02:46+00:00</time>
        <ele>2454.0</ele>
      </trkpt>
      <trkpt lat="44.34957" lon="6.91159">
        <time>2023-04-16T08:02:47+00:00</time>
        <ele>2455.0</ele>
      </trkpt>
      <trkpt lat="44.34957" lon="6.91162">
        <time>2023-04-16T08:02:50+00:00</time>
        <ele>2456.0</ele>
      </trkpt>
      <trkpt lat="44.34957" lon="6.91164">
        <time>2023-04-16T08:02:52+00:00</time>
        <ele>2456.0</ele>
      </trkpt>
      <trkpt lat="44.34959" lon="6.91169">
        <time>2023-04-16T08:02:58+00:00</time>
        <ele>2458.0</ele>
      </trkpt>
      <trkpt lat="44.34957" lon="6.9117">
        <time>2023-04-16T08:03:00+00:00</time>
        <ele>2458.0</ele>
      </trkpt>
      <trkpt lat="44.34957" lon="6.91171">
        <time>2023-04-16T08:03:03+00:00</time>
        <ele>2458.0</ele>
      </trkpt>
      <trkpt lat="44.34957" lon="6.91174">
        <time>2023-04-16T08:03:07+00:00</time>
        <ele>2459.0</ele>
      </trkpt>
      <trkpt lat="44.34957" lon="6.91175">
        <time>2023-04-16T08:03:08+00:00</time>
        <ele>2459.0</ele>
      </trkpt>
      <trkpt lat="44.34955" lon="6.91182">
        <time>2023-04-16T08:03:16+00:00</time>
        <ele>2460.0</ele>
      </trkpt>
      <trkpt lat="44.34955" lon="6.91183">
        <time>2023-04-16T08:03:17+00:00</time>
        <ele>2460.0</ele>
      </trkpt>
      <trkpt lat="44.34955" lon="6.91184">
        <time>2023-04-16T08:03:18+00:00</time>
        <ele>2461.0</ele>
      </trkpt>
      <trkpt lat="44.34954" lon="6.9119">
        <time>2023-04-16T08:03:24+00:00</time>
        <ele>2462.0</ele>
      </trkpt>
      <trkpt lat="44.34953" lon="6.91194">
        <time>2023-04-16T08:03:29+00:00</time>
        <ele>2463.0</ele>
      </trkpt>
      <trkpt lat="44.3495" lon="6.91199">
        <time>2023-04-16T08:03:36+00:00</time>
        <ele>2463.0</ele>
      </trkpt>
      <trkpt lat="44.34948" lon="6.91205">
        <time>2023-04-16T08:03:42+00:00</time>
        <ele>2464.0</ele>
      </trkpt>
      <trkpt lat="44.34947" lon="6.9121">
        <time>2023-04-16T08:03:47+00:00</time>
        <ele>2464.0</ele>
      </trkpt>
      <trkpt lat="44.34946" lon="6.91212">
        <time>2023-04-16T08:03:49+00:00</time>
        <ele>2464.0</ele>
      </trkpt>
      <trkpt lat="44.34945" lon="6.91216">
        <time>2023-04-16T08:03:53+00:00</time>
        <ele>2465.0</ele>
      </trkpt>
      <trkpt lat="44.34945" lon="6.91218">
        <time>2023-04-16T08:03:55+00:00</time>
        <ele>2465.0</ele>
      </trkpt>
      <trkpt lat="44.34943" lon="6.91224">
        <time>2023-04-16T08:04:01+00:00</time>
        <ele>2466.0</ele>
      </trkpt>
      <trkpt lat="44.34943" lon="6.91225">
        <time>2023-04-16T08:04:02+00:00</time>
        <ele>2466.0</ele>
      </trkpt>
      <trkpt lat="44.34943" lon="6.91227">
        <time>2023-04-16T08:04:07+00:00</time>
        <ele>2466.0</ele>
      </trkpt>
      <trkpt lat="44.34943" lon="6.91231">
        <time>2023-04-16T08:04:12+00:00</time>
        <ele>2467.0</ele>
      </trkpt>
      <trkpt lat="44.34944" lon="6.91232">
        <time>2023-04-16T08:04:16+00:00</time>
        <ele>2468.0</ele>
      </trkpt>
      <trkpt lat="44.34944" lon="6.91232">
        <time>2023-04-16T08:04:17+00:00</time>
        <ele>2468.0</ele>
      </trkpt>
      <trkpt lat="44.34944" lon="6.91232">
        <time>2023-04-16T08:04:18+00:00</time>
        <ele>2468.0</ele>
      </trkpt>
      <trkpt lat="44.34944" lon="6.91233">
        <time>2023-04-16T08:04:21+00:00</time>
        <ele>2468.0</ele>
      </trkpt>
      <trkpt lat="44.34945" lon="6.91235">
        <time>2023-04-16T08:04:24+00:00</time>
        <ele>2469.0</ele>
      </trkpt>
      <trkpt lat="44.34945" lon="6.91235">
        <time>2023-04-16T08:04:27+00:00</time>
        <ele>2469.0</ele>
      </trkpt>
      <trkpt lat="44.34947" lon="6.91235">
        <time>2023-04-16T08:04:31+00:00</time>
        <ele>2470.0</ele>
      </trkpt>
      <trkpt lat="44.34947" lon="6.91235">
        <time>2023-04-16T08:04:32+00:00</time>
        <ele>2470.0</ele>
      </trkpt>
      <trkpt lat="44.34951" lon="6.91237">
        <time>2023-04-16T08:04:40+00:00</time>
        <ele>2472.0</ele>
      </trkpt>
      <trkpt lat="44.34952" lon="6.91237">
        <time>2023-04-16T08:04:41+00:00</time>
        <ele>2473.0</ele>
      </trkpt>
      <trkpt lat="44.34953" lon="6.91237">
        <time>2023-04-16T08:04:43+00:00</time>
        <ele>2473.0</ele>
      </trkpt>
      <trkpt lat="44.34954" lon="6.91237">
        <time>2023-04-16T08:04:44+00:00</time>
        <ele>2474.0</ele>
      </trkpt>
      <trkpt lat="44.34955" lon="6.91237">
        <time>2023-04-16T08:04:45+00:00</time>
        <ele>2474.0</ele>
      </trkpt>
      <trkpt lat="44.34956" lon="6.91237">
        <time>2023-04-16T08:04:47+00:00</time>
        <ele>2474.0</ele>
      </trkpt>
      <trkpt lat="44.34959" lon="6.91238">
        <time>2023-04-16T08:04:52+00:00</time>
        <ele>2476.0</ele>
      </trkpt>
      <trkpt lat="44.34961" lon="6.91238">
        <time>2023-04-16T08:04:55+00:00</time>
        <ele>2477.0</ele>
      </trkpt>
      <trkpt lat="44.34963" lon="6.91238">
        <time>2023-04-16T08:04:59+00:00</time>
        <ele>2477.0</ele>
      </trkpt>
      <trkpt lat="44.34965" lon="6.91239">
        <time>2023-04-16T08:05:04+00:00</time>
        <ele>2478.0</ele>
      </trkpt>
      <trkpt lat="44.34967" lon="6.91239">
        <time>2023-04-16T08:05:09+00:00</time>
        <ele>2479.0</ele>
      </trkpt>
      <trkpt lat="44.34968" lon="6.91239">
        <time>2023-04-16T08:05:11+00:00</time>
        <ele>2479.0</ele>
      </trkpt>
      <trkpt lat="44.34973" lon="6.91241">
        <time>2023-04-16T08:05:18+00:00</time>
        <ele>2482.0</ele>
      </trkpt>
      <trkpt lat="44.34977" lon="6.91244">
        <time>2023-04-16T08:05:25+00:00</time>
        <ele>2484.0</ele>
      </trkpt>
      <trkpt lat="44.34977" lon="6.91244">
        <time>2023-04-16T08:05:26+00:00</time>
        <ele>2484.0</ele>
      </trkpt>
      <trkpt lat="44.3498" lon="6.91244">
        <time>2023-04-16T08:05:35+00:00</time>
        <ele>2485.0</ele>
      </trkpt>
      <trkpt lat="44.34982" lon="6.91246">
        <time>2023-04-16T08:05:39+00:00</time>
        <ele>2487.0</ele>
      </trkpt>
      <trkpt lat="44.34985" lon="6.91247">
        <time>2023-04-16T08:05:44+00:00</time>
        <ele>2488.0</ele>
      </trkpt>
      <trkpt lat="44.34986" lon="6.91247">
        <time>2023-04-16T08:05:45+00:00</time>
        <ele>2488.0</ele>
      </trkpt>
      <trkpt lat="44.34987" lon="6.91248">
        <time>2023-04-16T08:05:50+00:00</time>
        <ele>2489.0</ele>
      </trkpt>
      <trkpt lat="44.34985" lon="6.91252">
        <time>2023-04-16T08:05:55+00:00</time>
        <ele>2490.0</ele>
      </trkpt>
      <trkpt lat="44.34983" lon="6.91254">
        <time>2023-04-16T08:05:59+00:00</time>
        <ele>2490.0</ele>
      </trkpt>
      <trkpt lat="44.34981" lon="6.91259">
        <time>2023-04-16T08:06:04+00:00</time>
        <ele>2491.0</ele>
      </trkpt>
      <trkpt lat="44.3498" lon="6.91261">
        <time>2023-04-16T08:06:07+00:00</time>
        <ele>2491.0</ele>
      </trkpt>
      <trkpt lat="44.34979" lon="6.91262">
        <time>2023-04-16T08:06:09+00:00</time>
        <ele>2492.0</ele>
      </trkpt>
      <trkpt lat="44.34977" lon="6.91266">
        <time>2023-04-16T08:06:16+00:00</time>
        <ele>2492.0</ele>
      </trkpt>
      <trkpt lat="44.34977" lon="6.91266">
        <time>2023-04-16T08:06:17+00:00</time>
        <ele>2492.0</ele>
      </trkpt>
      <trkpt lat="44.34976" lon="6.91266">
        <time>2023-04-16T08:06:21+00:00</time>
        <ele>2492.0</ele>
      </trkpt>
      <trkpt lat="44.3498" lon="6.91267">
        <time>2023-04-16T08:06:33+00:00</time>
        <ele>2493.0</ele>
      </trkpt>
      <trkpt lat="44.34983" lon="6.91268">
        <time>2023-04-16T08:06:40+00:00</time>
        <ele>2495.0</ele>
      </trkpt>
      <trkpt lat="44.34986" lon="6.9127">
        <time>2023-04-16T08:06:45+00:00</time>
        <ele>2496.0</ele>
      </trkpt>
      <trkpt lat="44.34988" lon="6.91271">
        <time>2023-04-16T08:06:49+00:00</time>
        <ele>2497.0</ele>
      </trkpt>
      <trkpt lat="44.34988" lon="6.91271">
        <time>2023-04-16T08:06:50+00:00</time>
        <ele>2497.0</ele>
      </trkpt>
      <trkpt lat="44.34989" lon="6.9127">
        <time>2023-04-16T08:06:51+00:00</time>
        <ele>2497.0</ele>
      </trkpt>
      <trkpt lat="44.34989" lon="6.9127">
        <time>2023-04-16T08:06:52+00:00</time>
        <ele>2497.0</ele>
      </trkpt>
      <trkpt lat="44.34989" lon="6.91271">
        <time>2023-04-16T08:06:53+00:00</time>
        <ele>2497.0</ele>
      </trkpt>
      <trkpt lat="44.34993" lon="6.91276">
        <time>2023-04-16T08:06:59+00:00</time>
        <ele>2500.0</ele>
      </trkpt>
      <trkpt lat="44.34994" lon="6.91278">
        <time>2023-04-16T08:07:03+00:00</time>
        <ele>2501.0</ele>
      </trkpt>
      <trkpt lat="44.34995" lon="6.91278">
        <time>2023-04-16T08:07:06+00:00</time>
        <ele>2502.0</ele>
      </trkpt>
      <trkpt lat="44.34998" lon="6.91279">
        <time>2023-04-16T08:07:26+00:00</time>
        <ele>2503.0</ele>
      </trkpt>
      <trkpt lat="44.34999" lon="6.91281">
        <time>2023-04-16T08:07:29+00:00</time>
        <ele>2504.0</ele>
      </trkpt>
      <trkpt lat="44.35001" lon="6.91285">
        <time>2023-04-16T08:07:35+00:00</time>
        <ele>2505.0</ele>
      </trkpt>
      <trkpt lat="44.35002" lon="6.91288">
        <time>2023-04-16T08:07:37+00:00</time>
        <ele>2507.0</ele>
      </trkpt>
      <trkpt lat="44.35003" lon="6.91289">
        <time>2023-04-16T08:07:40+00:00</time>
        <ele>2507.0</ele>
      </trkpt>
      <trkpt lat="44.35005" lon="6.91292">
        <time>2023-04-16T08:07:46+00:00</time>
        <ele>2508.0</ele>
      </trkpt>
      <trkpt lat="44.35007" lon="6.91292">
        <time>2023-04-16T08:07:50+00:00</time>
        <ele>2508.0</ele>
      </trkpt>
      <trkpt lat="44.35009" lon="6.91294">
        <time>2023-04-16T08:07:55+00:00</time>
        <ele>2509.0</ele>
      </trkpt>
      <trkpt lat="44.35009" lon="6.91295">
        <time>2023-04-16T08:07:57+00:00</time>
        <ele>2509.0</ele>
      </trkpt>
      <trkpt lat="44.35008" lon="6.91296">
        <time>2023-04-16T08:07:59+00:00</time>
        <ele>2510.0</ele>
      </trkpt>
      <trkpt lat="44.35008" lon="6.91298">
        <time>2023-04-16T08:08:02+00:00</time>
        <ele>2510.0</ele>
      </trkpt>
      <trkpt lat="44.35008" lon="6.91298">
        <time>2023-04-16T08:08:04+00:00</time>
        <ele>2510.0</ele>
      </trkpt>
      <trkpt lat="44.35009" lon="6.91301">
        <time>2023-04-16T08:08:11+00:00</time>
        <ele>2511.0</ele>
      </trkpt>
      <trkpt lat="44.3501" lon="6.91302">
        <time>2023-04-16T08:08:15+00:00</time>
        <ele>2512.0</ele>
      </trkpt>
      <trkpt lat="44.35012" lon="6.91302">
        <time>2023-04-16T08:08:19+00:00</time>
        <ele>2512.0</ele>
      </trkpt>
      <trkpt lat="44.35014" lon="6.91305">
        <time>2023-04-16T08:08:25+00:00</time>
        <ele>2513.0</ele>
      </trkpt>
      <trkpt lat="44.35014" lon="6.9131">
        <time>2023-04-16T08:08:30+00:00</time>
        <ele>2514.0</ele>
      </trkpt>
      <trkpt lat="44.35015" lon="6.91313">
        <time>2023-04-16T08:08:34+00:00</time>
        <ele>2515.0</ele>
      </trkpt>
      <trkpt lat="44.35017" lon="6.91317">
        <time>2023-04-16T08:08:39+00:00</time>
        <ele>2516.0</ele>
      </trkpt>
      <trkpt lat="44.3502" lon="6.9132">
        <time>2023-04-16T08:08:45+00:00</time>
        <ele>2517.0</ele>
      </trkpt>
      <trkpt lat="44.35022" lon="6.91322">
        <time>2023-04-16T08:08:51+00:00</time>
        <ele>2518.0</ele>
      </trkpt>
      <trkpt lat="44.35025" lon="6.91325">
        <time>2023-04-16T08:09:20+00:00</time>
        <ele>2519.0</ele>
      </trkpt>
      <trkpt lat="44.35025" lon="6.91331">
        <time>2023-04-16T08:09:26+00:00</time>
        <ele>2520.0</ele>
      </trkpt>
      <trkpt lat="44.35025" lon="6.91336">
        <time>2023-04-16T08:09:33+00:00</time>
        <ele>2521.0</ele>
      </trkpt>
      <trkpt lat="44.35025" lon="6.91339">
        <time>2023-04-16T08:09:38+00:00</time>
        <ele>2522.0</ele>
      </trkpt>
      <trkpt lat="44.35025" lon="6.91345">
        <time>2023-04-16T08:09:44+00:00</time>
        <ele>2523.0</ele>
      </trkpt>
      <trkpt lat="44.35025" lon="6.9135">
        <time>2023-04-16T08:09:51+00:00</time>
        <ele>2524.0</ele>
      </trkpt>
      <trkpt lat="44.35027" lon="6.91356">
        <time>2023-04-16T08:09:58+00:00</time>
        <ele>2526.0</ele>
      </trkpt>
      <trkpt lat="44.35029" lon="6.91359">
        <time>2023-04-16T08:10:02+00:00</time>
        <ele>2526.0</ele>
      </trkpt>
      <trkpt lat="44.3503" lon="6.91362">
        <time>2023-04-16T08:10:04+00:00</time>
        <ele>2527.0</ele>
      </trkpt>
      <trkpt lat="44.3503" lon="6.91364">
        <time>2023-04-16T08:10:06+00:00</time>
        <ele>2527.0</ele>
      </trkpt>
      <trkpt lat="44.35031" lon="6.9137">
        <time>2023-04-16T08:10:13+00:00</time>
        <ele>2528.0</ele>
      </trkpt>
      <trkpt lat="44.35031" lon="6.91375">
        <time>2023-04-16T08:10:19+00:00</time>
        <ele>2529.0</ele>
      </trkpt>
      <trkpt lat="44.35032" lon="6.9138">
        <time>2023-04-16T08:10:25+00:00</time>
        <ele>2530.0</ele>
      </trkpt>
      <trkpt lat="44.35034" lon="6.91385">
        <time>2023-04-16T08:10:31+00:00</time>
        <ele>2531.0</ele>
      </trkpt>
      <trkpt lat="44.35035" lon="6.91391">
        <time>2023-04-16T08:10:38+00:00</time>
        <ele>2531.0</ele>
      </trkpt>
      <trkpt lat="44.35036" lon="6.91398">
        <time>2023-04-16T08:10:45+00:00</time>
        <ele>2532.0</ele>
      </trkpt>
      <trkpt lat="44.35037" lon="6.91402">
        <time>2023-04-16T08:10:49+00:00</time>
        <ele>2533.0</ele>
      </trkpt>
      <trkpt lat="44.35038" lon="6.91404">
        <time>2023-04-16T08:10:51+00:00</time>
        <ele>2533.0</ele>
      </trkpt>
      <trkpt lat="44.35037" lon="6.91413">
        <time>2023-04-16T08:10:59+00:00</time>
        <ele>2534.0</ele>
      </trkpt>
      <trkpt lat="44.35037" lon="6.91417">
        <time>2023-04-16T08:11:04+00:00</time>
        <ele>2534.0</ele>
      </trkpt>
      <trkpt lat="44.35036" lon="6.91419">
        <time>2023-04-16T08:11:06+00:00</time>
        <ele>2535.0</ele>
      </trkpt>
      <trkpt lat="44.35037" lon="6.91425">
        <time>2023-04-16T08:11:12+00:00</time>
        <ele>2535.0</ele>
      </trkpt>
      <trkpt lat="44.35036" lon="6.91426">
        <time>2023-04-16T08:11:14+00:00</time>
        <ele>2535.0</ele>
      </trkpt>
      <trkpt lat="44.35034" lon="6.91425">
        <time>2023-04-16T08:11:19+00:00</time>
        <ele>2535.0</ele>
      </trkpt>
      <trkpt lat="44.35035" lon="6.91433">
        <time>2023-04-16T08:11:42+00:00</time>
        <ele>2535.0</ele>
      </trkpt>
      <trkpt lat="44.35033" lon="6.91433">
        <time>2023-04-16T08:12:01+00:00</time>
        <ele>2535.0</ele>
      </trkpt>
      <trkpt lat="44.3503" lon="6.91438">
        <time>2023-04-16T08:12:33+00:00</time>
        <ele>2536.0</ele>
      </trkpt>
      <trkpt lat="44.35029" lon="6.91439">
        <time>2023-04-16T08:12:34+00:00</time>
        <ele>2536.0</ele>
      </trkpt>
      <trkpt lat="44.35028" lon="6.91442">
        <time>2023-04-16T08:12:37+00:00</time>
        <ele>2536.0</ele>
      </trkpt>
      <trkpt lat="44.35025" lon="6.91448">
        <time>2023-04-16T08:12:43+00:00</time>
        <ele>2537.0</ele>
      </trkpt>
      <trkpt lat="44.35025" lon="6.91452">
        <time>2023-04-16T08:12:46+00:00</time>
        <ele>2537.0</ele>
      </trkpt>
      <trkpt lat="44.35025" lon="6.91458">
        <time>2023-04-16T08:12:50+00:00</time>
        <ele>2537.0</ele>
      </trkpt>
      <trkpt lat="44.35025" lon="6.91469">
        <time>2023-04-16T08:12:58+00:00</time>
        <ele>2537.0</ele>
      </trkpt>
      <trkpt lat="44.35022" lon="6.91475">
        <time>2023-04-16T08:13:03+00:00</time>
        <ele>2537.0</ele>
      </trkpt>
      <trkpt lat="44.35017" lon="6.91485">
        <time>2023-04-16T08:13:12+00:00</time>
        <ele>2538.0</ele>
      </trkpt>
      <trkpt lat="44.35016" lon="6.91487">
        <time>2023-04-16T08:13:14+00:00</time>
        <ele>2539.0</ele>
      </trkpt>
      <trkpt lat="44.35013" lon="6.91494">
        <time>2023-04-16T08:13:21+00:00</time>
        <ele>2540.0</ele>
      </trkpt>
      <trkpt lat="44.3501" lon="6.91505">
        <time>2023-04-16T08:13:31+00:00</time>
        <ele>2542.0</ele>
      </trkpt>
      <trkpt lat="44.35008" lon="6.91513">
        <time>2023-04-16T08:13:40+00:00</time>
        <ele>2543.0</ele>
      </trkpt>
      <trkpt lat="44.35007" lon="6.91522">
        <time>2023-04-16T08:13:48+00:00</time>
        <ele>2544.0</ele>
      </trkpt>
      <trkpt lat="44.35005" lon="6.91529">
        <time>2023-04-16T08:13:55+00:00</time>
        <ele>2545.0</ele>
      </trkpt>
      <trkpt lat="44.35003" lon="6.91536">
        <time>2023-04-16T08:14:03+00:00</time>
        <ele>2547.0</ele>
      </trkpt>
      <trkpt lat="44.35002" lon="6.91545">
        <time>2023-04-16T08:14:11+00:00</time>
        <ele>2549.0</ele>
      </trkpt>
      <trkpt lat="44.35002" lon="6.91546">
        <time>2023-04-16T08:14:12+00:00</time>
        <ele>2549.0</ele>
      </trkpt>
      <trkpt lat="44.35001" lon="6.91551">
        <time>2023-04-16T08:14:19+00:00</time>
        <ele>2550.0</ele>
      </trkpt>
      <trkpt lat="44.34999" lon="6.91559">
        <time>2023-04-16T08:14:27+00:00</time>
        <ele>2551.0</ele>
      </trkpt>
      <trkpt lat="44.35" lon="6.91566">
        <time>2023-04-16T08:14:34+00:00</time>
        <ele>2551.0</ele>
      </trkpt>
      <trkpt lat="44.34997" lon="6.91571">
        <time>2023-04-16T08:14:42+00:00</time>
        <ele>2552.0</ele>
      </trkpt>
      <trkpt lat="44.34995" lon="6.91577">
        <time>2023-04-16T08:14:51+00:00</time>
        <ele>2553.0</ele>
      </trkpt>
      <trkpt lat="44.34995" lon="6.91585">
        <time>2023-04-16T08:14:59+00:00</time>
        <ele>2553.0</ele>
      </trkpt>
      <trkpt lat="44.34995" lon="6.91589">
        <time>2023-04-16T08:15:03+00:00</time>
        <ele>2553.0</ele>
      </trkpt>
      <trkpt lat="44.34992" lon="6.91592">
        <time>2023-04-16T08:15:09+00:00</time>
        <ele>2554.0</ele>
      </trkpt>
      <trkpt lat="44.34989" lon="6.91595">
        <time>2023-04-16T08:15:16+00:00</time>
        <ele>2555.0</ele>
      </trkpt>
      <trkpt lat="44.34987" lon="6.91601">
        <time>2023-04-16T08:15:23+00:00</time>
        <ele>2556.0</ele>
      </trkpt>
      <trkpt lat="44.34987" lon="6.91609">
        <time>2023-04-16T08:15:32+00:00</time>
        <ele>2556.0</ele>
      </trkpt>
      <trkpt lat="44.34984" lon="6.91615">
        <time>2023-04-16T08:15:40+00:00</time>
        <ele>2558.0</ele>
      </trkpt>
      <trkpt lat="44.34983" lon="6.9162">
        <time>2023-04-16T08:15:45+00:00</time>
        <ele>2559.0</ele>
      </trkpt>
      <trkpt lat="44.34983" lon="6.91621">
        <time>2023-04-16T08:15:46+00:00</time>
        <ele>2559.0</ele>
      </trkpt>
      <trkpt lat="44.34979" lon="6.91632">
        <time>2023-04-16T08:15:57+00:00</time>
        <ele>2561.0</ele>
      </trkpt>
      <trkpt lat="44.34978" lon="6.91637">
        <time>2023-04-16T08:16:01+00:00</time>
        <ele>2562.0</ele>
      </trkpt>
      <trkpt lat="44.34977" lon="6.91639">
        <time>2023-04-16T08:16:03+00:00</time>
        <ele>2562.0</ele>
      </trkpt>
      <trkpt lat="44.34976" lon="6.91641">
        <time>2023-04-16T08:16:05+00:00</time>
        <ele>2563.0</ele>
      </trkpt>
      <trkpt lat="44.34976" lon="6.91646">
        <time>2023-04-16T08:16:09+00:00</time>
        <ele>2563.0</ele>
      </trkpt>
      <trkpt lat="44.34975" lon="6.91651">
        <time>2023-04-16T08:16:16+00:00</time>
        <ele>2564.0</ele>
      </trkpt>
      <trkpt lat="44.34975" lon="6.91653">
        <time>2023-04-16T08:16:19+00:00</time>
        <ele>2564.0</ele>
      </trkpt>
      <trkpt lat="44.34974" lon="6.91655">
        <time>2023-04-16T08:16:22+00:00</time>
        <ele>2565.0</ele>
      </trkpt>
      <trkpt lat="44.34973" lon="6.91658">
        <time>2023-04-16T08:16:25+00:00</time>
        <ele>2565.0</ele>
      </trkpt>
      <trkpt lat="44.34972" lon="6.9166">
        <time>2023-04-16T08:16:27+00:00</time>
        <ele>2566.0</ele>
      </trkpt>
      <trkpt lat="44.34971" lon="6.91661">
        <time>2023-04-16T08:16:28+00:00</time>
        <ele>2566.0</ele>
      </trkpt>
      <trkpt lat="44.34971" lon="6.91662">
        <time>2023-04-16T08:16:29+00:00</time>
        <ele>2567.0</ele>
      </trkpt>
      <trkpt lat="44.34971" lon="6.91663">
        <time>2023-04-16T08:16:30+00:00</time>
        <ele>2567.0</ele>
      </trkpt>
      <trkpt lat="44.3497" lon="6.91663">
        <time>2023-04-16T08:16:31+00:00</time>
        <ele>2567.0</ele>
      </trkpt>
      <trkpt lat="44.3497" lon="6.91663">
        <time>2023-04-16T08:16:32+00:00</time>
        <ele>2567.0</ele>
      </trkpt>
      <trkpt lat="44.3497" lon="6.91664">
        <time>2023-04-16T08:16:33+00:00</time>
        <ele>2567.0</ele>
      </trkpt>
      <trkpt lat="44.34969" lon="6.91665">
        <time>2023-04-16T08:16:34+00:00</time>
        <ele>2568.0</ele>
      </trkpt>
      <trkpt lat="44.34969" lon="6.91665">
        <time>2023-04-16T08:16:35+00:00</time>
        <ele>2568.0</ele>
      </trkpt>
      <trkpt lat="44.34969" lon="6.91666">
        <time>2023-04-16T08:16:36+00:00</time>
        <ele>2568.0</ele>
      </trkpt>
      <trkpt lat="44.34969" lon="6.91667">
        <time>2023-04-16T08:16:37+00:00</time>
        <ele>2568.0</ele>
      </trkpt>
      <trkpt lat="44.34969" lon="6.91668">
        <time>2023-04-16T08:16:38+00:00</time>
        <ele>2568.0</ele>
      </trkpt>
      <trkpt lat="44.34968" lon="6.91671">
        <time>2023-04-16T08:16:41+00:00</time>
        <ele>2569.0</ele>
      </trkpt>
      <trkpt lat="44.34968" lon="6.91672">
        <time>2023-04-16T08:16:43+00:00</time>
        <ele>2569.0</ele>
      </trkpt>
      <trkpt lat="44.34968" lon="6.91676">
        <time>2023-04-16T08:16:46+00:00</time>
        <ele>2570.0</ele>
      </trkpt>
      <trkpt lat="44.34968" lon="6.91677">
        <time>2023-04-16T08:16:47+00:00</time>
        <ele>2570.0</ele>
      </trkpt>
      <trkpt lat="44.34968" lon="6.91678">
        <time>2023-04-16T08:16:49+00:00</time>
        <ele>2570.0</ele>
      </trkpt>
      <trkpt lat="44.34967" lon="6.9168">
        <time>2023-04-16T08:16:51+00:00</time>
        <ele>2570.0</ele>
      </trkpt>
      <trkpt lat="44.34968" lon="6.91682">
        <time>2023-04-16T08:16:53+00:00</time>
        <ele>2571.0</ele>
      </trkpt>
      <trkpt lat="44.34968" lon="6.91684">
        <time>2023-04-16T08:16:54+00:00</time>
        <ele>2571.0</ele>
      </trkpt>
      <trkpt lat="44.34968" lon="6.91684">
        <time>2023-04-16T08:16:55+00:00</time>
        <ele>2571.0</ele>
      </trkpt>
      <trkpt lat="44.34967" lon="6.91685">
        <time>2023-04-16T08:16:57+00:00</time>
        <ele>2571.0</ele>
      </trkpt>
      <trkpt lat="44.34967" lon="6.91686">
        <time>2023-04-16T08:16:58+00:00</time>
        <ele>2571.0</ele>
      </trkpt>
      <trkpt lat="44.34967" lon="6.91688">
        <time>2023-04-16T08:17:00+00:00</time>
        <ele>2572.0</ele>
      </trkpt>
      <trkpt lat="44.34967" lon="6.9169">
        <time>2023-04-16T08:17:02+00:00</time>
        <ele>2572.0</ele>
      </trkpt>
      <trkpt lat="44.34966" lon="6.91694">
        <time>2023-04-16T08:17:06+00:00</time>
        <ele>2574.0</ele>
      </trkpt>
      <trkpt lat="44.34964" lon="6.91697">
        <time>2023-04-16T08:17:10+00:00</time>
        <ele>2575.0</ele>
      </trkpt>
      <trkpt lat="44.34962" lon="6.91704">
        <time>2023-04-16T08:17:18+00:00</time>
        <ele>2577.0</ele>
      </trkpt>
      <trkpt lat="44.34961" lon="6.9171">
        <time>2023-04-16T08:17:24+00:00</time>
        <ele>2579.0</ele>
      </trkpt>
      <trkpt lat="44.34961" lon="6.91715">
        <time>2023-04-16T08:17:31+00:00</time>
        <ele>2580.0</ele>
      </trkpt>
      <trkpt lat="44.34959" lon="6.91719">
        <time>2023-04-16T08:17:38+00:00</time>
        <ele>2582.0</ele>
      </trkpt>
      <trkpt lat="44.34959" lon="6.91722">
        <time>2023-04-16T08:17:44+00:00</time>
        <ele>2582.0</ele>
      </trkpt>
      <trkpt lat="44.34959" lon="6.91726">
        <time>2023-04-16T08:17:50+00:00</time>
        <ele>2583.0</ele>
      </trkpt>
      <trkpt lat="44.34959" lon="6.91731">
        <time>2023-04-16T08:17:56+00:00</time>
        <ele>2585.0</ele>
      </trkpt>
      <trkpt lat="44.34959" lon="6.91736">
        <time>2023-04-16T08:18:03+00:00</time>
        <ele>2586.0</ele>
      </trkpt>
      <trkpt lat="44.34959" lon="6.9174">
        <time>2023-04-16T08:18:08+00:00</time>
        <ele>2587.0</ele>
      </trkpt>
      <trkpt lat="44.34958" lon="6.91746">
        <time>2023-04-16T08:18:15+00:00</time>
        <ele>2589.0</ele>
      </trkpt>
      <trkpt lat="44.34956" lon="6.91751">
        <time>2023-04-16T08:18:22+00:00</time>
        <ele>2590.0</ele>
      </trkpt>
      <trkpt lat="44.34955" lon="6.91755">
        <time>2023-04-16T08:18:27+00:00</time>
        <ele>2592.0</ele>
      </trkpt>
      <trkpt lat="44.34953" lon="6.91763">
        <time>2023-04-16T08:18:37+00:00</time>
        <ele>2594.0</ele>
      </trkpt>
      <trkpt lat="44.34951" lon="6.91767">
        <time>2023-04-16T08:18:42+00:00</time>
        <ele>2595.0</ele>
      </trkpt>
      <trkpt lat="44.34951" lon="6.91771">
        <time>2023-04-16T08:18:49+00:00</time>
        <ele>2596.0</ele>
      </trkpt>
      <trkpt lat="44.3495" lon="6.91777">
        <time>2023-04-16T08:18:56+00:00</time>
        <ele>2597.0</ele>
      </trkpt>
      <trkpt lat="44.34949" lon="6.91777">
        <time>2023-04-16T08:18:59+00:00</time>
        <ele>2597.0</ele>
      </trkpt>
      <trkpt lat="44.34948" lon="6.91778">
        <time>2023-04-16T08:19:05+00:00</time>
        <ele>2598.0</ele>
      </trkpt>
      <trkpt lat="44.34948" lon="6.91785">
        <time>2023-04-16T08:19:16+00:00</time>
        <ele>2599.0</ele>
      </trkpt>
      <trkpt lat="44.34949" lon="6.91788">
        <time>2023-04-16T08:19:22+00:00</time>
        <ele>2600.0</ele>
      </trkpt>
      <trkpt lat="44.34949" lon="6.91792">
        <time>2023-04-16T08:19:28+00:00</time>
        <ele>2601.0</ele>
      </trkpt>
      <trkpt lat="44.34943" lon="6.91794">
        <time>2023-04-16T08:19:37+00:00</time>
        <ele>2601.0</ele>
      </trkpt>
      <trkpt lat="44.3494" lon="6.91795">
        <time>2023-04-16T08:19:42+00:00</time>
        <ele>2601.0</ele>
      </trkpt>
      <trkpt lat="44.34939" lon="6.91796">
        <time>2023-04-16T08:19:48+00:00</time>
        <ele>2602.0</ele>
      </trkpt>
      <trkpt lat="44.34941" lon="6.91804">
        <time>2023-04-16T08:19:57+00:00</time>
        <ele>2605.0</ele>
      </trkpt>
      <trkpt lat="44.34943" lon="6.91808">
        <time>2023-04-16T08:20:03+00:00</time>
        <ele>2607.0</ele>
      </trkpt>
      <trkpt lat="44.34942" lon="6.91814">
        <time>2023-04-16T08:20:11+00:00</time>
        <ele>2609.0</ele>
      </trkpt>
      <trkpt lat="44.34942" lon="6.91817">
        <time>2023-04-16T08:20:15+00:00</time>
        <ele>2610.0</ele>
      </trkpt>
      <trkpt lat="44.3494" lon="6.91818">
        <time>2023-04-16T08:20:20+00:00</time>
        <ele>2611.0</ele>
      </trkpt>
      <trkpt lat="44.34934" lon="6.9182">
        <time>2023-04-16T08:20:36+00:00</time>
        <ele>2613.0</ele>
      </trkpt>
      <trkpt lat="44.3493" lon="6.91818">
        <time>2023-04-16T08:20:42+00:00</time>
        <ele>2614.0</ele>
      </trkpt>
      <trkpt lat="44.34927" lon="6.91816">
        <time>2023-04-16T08:20:50+00:00</time>
        <ele>2614.0</ele>
      </trkpt>
      <trkpt lat="44.34922" lon="6.91812">
        <time>2023-04-16T08:20:58+00:00</time>
        <ele>2614.0</ele>
      </trkpt>
      <trkpt lat="44.34922" lon="6.91812">
        <time>2023-04-16T08:21:09+00:00</time>
        <ele>2614.0</ele>
      </trkpt>
      <trkpt lat="44.3492" lon="6.91806">
        <time>2023-04-16T08:21:17+00:00</time>
        <ele>2613.0</ele>
      </trkpt>
      <trkpt lat="44.34917" lon="6.91801">
        <time>2023-04-16T08:21:22+00:00</time>
        <ele>2612.0</ele>
      </trkpt>
      <trkpt lat="44.34917" lon="6.91799">
        <time>2023-04-16T08:21:24+00:00</time>
        <ele>2612.0</ele>
      </trkpt>
      <trkpt lat="44.34915" lon="6.91794">
        <time>2023-04-16T08:21:30+00:00</time>
        <ele>2611.0</ele>
      </trkpt>
      <trkpt lat="44.34912" lon="6.9179">
        <time>2023-04-16T08:21:37+00:00</time>
        <ele>2612.0</ele>
      </trkpt>
      <trkpt lat="44.3491" lon="6.91787">
        <time>2023-04-16T08:21:41+00:00</time>
        <ele>2613.0</ele>
      </trkpt>
      <trkpt lat="44.3491" lon="6.91787">
        <time>2023-04-16T08:21:42+00:00</time>
        <ele>2613.0</ele>
      </trkpt>
      <trkpt lat="44.3491" lon="6.91786">
        <time>2023-04-16T08:21:43+00:00</time>
        <ele>2613.0</ele>
      </trkpt>
      <trkpt lat="44.34909" lon="6.91786">
        <time>2023-04-16T08:21:44+00:00</time>
        <ele>2613.0</ele>
      </trkpt>
      <trkpt lat="44.34909" lon="6.91785">
        <time>2023-04-16T08:21:45+00:00</time>
        <ele>2613.0</ele>
      </trkpt>
      <trkpt lat="44.34908" lon="6.91784">
        <time>2023-04-16T08:21:47+00:00</time>
        <ele>2614.0</ele>
      </trkpt>
      <trkpt lat="44.34908" lon="6.91783">
        <time>2023-04-16T08:21:48+00:00</time>
        <ele>2613.0</ele>
      </trkpt>
      <trkpt lat="44.34907" lon="6.91783">
        <time>2023-04-16T08:21:49+00:00</time>
        <ele>2614.0</ele>
      </trkpt>
      <trkpt lat="44.34906" lon="6.91781">
        <time>2023-04-16T08:21:52+00:00</time>
        <ele>2614.0</ele>
      </trkpt>
      <trkpt lat="44.34904" lon="6.91778">
        <time>2023-04-16T08:21:57+00:00</time>
        <ele>2615.0</ele>
      </trkpt>
      <trkpt lat="44.34903" lon="6.91778">
        <time>2023-04-16T08:21:58+00:00</time>
        <ele>2616.0</ele>
      </trkpt>
      <trkpt lat="44.34901" lon="6.91776">
        <time>2023-04-16T08:22:02+00:00</time>
        <ele>2617.0</ele>
      </trkpt>
      <trkpt lat="44.34899" lon="6.91774">
        <time>2023-04-16T08:22:04+00:00</time>
        <ele>2618.0</ele>
      </trkpt>
      <trkpt lat="44.34899" lon="6.91774">
        <time>2023-04-16T08:22:05+00:00</time>
        <ele>2618.0</ele>
      </trkpt>
      <trkpt lat="44.34899" lon="6.91773">
        <time>2023-04-16T08:22:07+00:00</time>
        <ele>2617.0</ele>
      </trkpt>
      <trkpt lat="44.34898" lon="6.91772">
        <time>2023-04-16T08:22:11+00:00</time>
        <ele>2618.0</ele>
      </trkpt>
      <trkpt lat="44.34896" lon="6.9177">
        <time>2023-04-16T08:22:16+00:00</time>
        <ele>2619.0</ele>
      </trkpt>
      <trkpt lat="44.34896" lon="6.91768">
        <time>2023-04-16T08:22:23+00:00</time>
        <ele>2619.0</ele>
      </trkpt>
      <trkpt lat="44.34896" lon="6.91768">
        <time>2023-04-16T08:22:35+00:00</time>
        <ele>2619.0</ele>
      </trkpt>
      <trkpt lat="44.34895" lon="6.91768">
        <time>2023-04-16T08:22:43+00:00</time>
        <ele>2619.0</ele>
      </trkpt>
      <trkpt lat="44.34893" lon="6.91768">
        <time>2023-04-16T08:23:02+00:00</time>
        <ele>2621.0</ele>
      </trkpt>
      <trkpt lat="44.34893" lon="6.91769">
        <time>2023-04-16T08:23:04+00:00</time>
        <ele>2621.0</ele>
      </trkpt>
      <trkpt lat="44.34895" lon="6.91769">
        <time>2023-04-16T08:23:10+00:00</time>
        <ele>2620.0</ele>
      </trkpt>
      <trkpt lat="44.34896" lon="6.91769">
        <time>2023-04-16T08:23:20+00:00</time>
        <ele>2619.0</ele>
      </trkpt>
      <trkpt lat="44.34896" lon="6.91769">
        <time>2023-04-16T08:23:31+00:00</time>
        <ele>2619.0</ele>
      </trkpt>
      <trkpt lat="44.34896" lon="6.91768">
        <time>2023-04-16T08:23:55+00:00</time>
        <ele>2619.0</ele>
      </trkpt>
      <trkpt lat="44.34896" lon="6.9177">
        <time>2023-04-16T08:24:08+00:00</time>
        <ele>2619.0</ele>
      </trkpt>
      <trkpt lat="44.34897" lon="6.91769">
        <time>2023-04-16T08:24:17+00:00</time>
        <ele>2618.0</ele>
      </trkpt>
      <trkpt lat="44.3489" lon="6.91762">
        <time>2023-04-16T08:24:34+00:00</time>
        <ele>2621.0</ele>
      </trkpt>
      <trkpt lat="44.34886" lon="6.91758">
        <time>2023-04-16T08:24:39+00:00</time>
        <ele>2623.0</ele>
      </trkpt>
      <trkpt lat="44.34886" lon="6.91757">
        <time>2023-04-16T08:24:40+00:00</time>
        <ele>2623.0</ele>
      </trkpt>
      <trkpt lat="44.34883" lon="6.91753">
        <time>2023-04-16T08:24:46+00:00</time>
        <ele>2624.0</ele>
      </trkpt>
      <trkpt lat="44.3488" lon="6.91745">
        <time>2023-04-16T08:24:55+00:00</time>
        <ele>2623.0</ele>
      </trkpt>
      <trkpt lat="44.34879" lon="6.91743">
        <time>2023-04-16T08:25:08+00:00</time>
        <ele>2622.0</ele>
      </trkpt>
      <trkpt lat="44.34878" lon="6.91749">
        <time>2023-04-16T08:25:22+00:00</time>
        <ele>2624.0</ele>
      </trkpt>
      <trkpt lat="44.34877" lon="6.9175">
        <time>2023-04-16T08:25:23+00:00</time>
        <ele>2624.0</ele>
      </trkpt>
      <trkpt lat="44.34877" lon="6.91751">
        <time>2023-04-16T08:25:24+00:00</time>
        <ele>2625.0</ele>
      </trkpt>
      <trkpt lat="44.34875" lon="6.91758">
        <time>2023-04-16T08:25:30+00:00</time>
        <ele>2627.0</ele>
      </trkpt>
      <trkpt lat="44.34873" lon="6.91762">
        <time>2023-04-16T08:25:35+00:00</time>
        <ele>2628.0</ele>
      </trkpt>
      <trkpt lat="44.34869" lon="6.91766">
        <time>2023-04-16T08:25:41+00:00</time>
        <ele>2629.0</ele>
      </trkpt>
      <trkpt lat="44.34863" lon="6.9177">
        <time>2023-04-16T08:25:50+00:00</time>
        <ele>2631.0</ele>
      </trkpt>
      <trkpt lat="44.3486" lon="6.91772">
        <time>2023-04-16T08:25:54+00:00</time>
        <ele>2631.0</ele>
      </trkpt>
      <trkpt lat="44.34855" lon="6.91777">
        <time>2023-04-16T08:26:02+00:00</time>
        <ele>2632.0</ele>
      </trkpt>
      <trkpt lat="44.34853" lon="6.91779">
        <time>2023-04-16T08:26:05+00:00</time>
        <ele>2632.0</ele>
      </trkpt>
      <trkpt lat="44.34852" lon="6.9178">
        <time>2023-04-16T08:26:06+00:00</time>
        <ele>2632.0</ele>
      </trkpt>
      <trkpt lat="44.34847" lon="6.91783">
        <time>2023-04-16T08:26:11+00:00</time>
        <ele>2632.0</ele>
      </trkpt>
      <trkpt lat="44.34821" lon="6.91795">
        <time>2023-04-16T08:26:30+00:00</time>
        <ele>2632.0</ele>
      </trkpt>
      <trkpt lat="44.34818" lon="6.91796">
        <time>2023-04-16T08:26:32+00:00</time>
        <ele>2633.0</ele>
      </trkpt>
      <trkpt lat="44.34816" lon="6.91797">
        <time>2023-04-16T08:26:35+00:00</time>
        <ele>2633.0</ele>
      </trkpt>
      <trkpt lat="44.3481" lon="6.91803">
        <time>2023-04-16T08:26:45+00:00</time>
        <ele>2635.0</ele>
      </trkpt>
      <trkpt lat="44.34808" lon="6.91806">
        <time>2023-04-16T08:27:11+00:00</time>
        <ele>2636.0</ele>
      </trkpt>
      <trkpt lat="44.34805" lon="6.9181">
        <time>2023-04-16T08:27:16+00:00</time>
        <ele>2637.0</ele>
      </trkpt>
      <trkpt lat="44.34803" lon="6.91814">
        <time>2023-04-16T08:27:22+00:00</time>
        <ele>2638.0</ele>
      </trkpt>
      <trkpt lat="44.34803" lon="6.9182">
        <time>2023-04-16T08:27:27+00:00</time>
        <ele>2640.0</ele>
      </trkpt>
      <trkpt lat="44.34803" lon="6.91823">
        <time>2023-04-16T08:27:29+00:00</time>
        <ele>2641.0</ele>
      </trkpt>
      <trkpt lat="44.34802" lon="6.91825">
        <time>2023-04-16T08:27:32+00:00</time>
        <ele>2642.0</ele>
      </trkpt>
      <trkpt lat="44.34799" lon="6.91828">
        <time>2023-04-16T08:27:39+00:00</time>
        <ele>2643.0</ele>
      </trkpt>
      <trkpt lat="44.34796" lon="6.9183">
        <time>2023-04-16T08:27:43+00:00</time>
        <ele>2644.0</ele>
      </trkpt>
      <trkpt lat="44.34794" lon="6.91833">
        <time>2023-04-16T08:27:48+00:00</time>
        <ele>2646.0</ele>
      </trkpt>
      <trkpt lat="44.34793" lon="6.91837">
        <time>2023-04-16T08:27:54+00:00</time>
        <ele>2647.0</ele>
      </trkpt>
      <trkpt lat="44.34794" lon="6.91845">
        <time>2023-04-16T08:28:02+00:00</time>
        <ele>2649.0</ele>
      </trkpt>
      <trkpt lat="44.34792" lon="6.91847">
        <time>2023-04-16T08:28:05+00:00</time>
        <ele>2650.0</ele>
      </trkpt>
      <trkpt lat="44.34791" lon="6.91849">
        <time>2023-04-16T08:28:08+00:00</time>
        <ele>2651.0</ele>
      </trkpt>
      <trkpt lat="44.34788" lon="6.91849">
        <time>2023-04-16T08:28:14+00:00</time>
        <ele>2650.0</ele>
      </trkpt>
      <trkpt lat="44.34786" lon="6.91849">
        <time>2023-04-16T08:28:18+00:00</time>
        <ele>2650.0</ele>
      </trkpt>
      <trkpt lat="44.34786" lon="6.91849">
        <time>2023-04-16T08:28:19+00:00</time>
        <ele>2650.0</ele>
      </trkpt>
      <trkpt lat="44.34784" lon="6.9185">
        <time>2023-04-16T08:28:29+00:00</time>
        <ele>2651.0</ele>
      </trkpt>
      <trkpt lat="44.34783" lon="6.91855">
        <time>2023-04-16T08:28:48+00:00</time>
        <ele>2653.0</ele>
      </trkpt>
      <trkpt lat="44.34784" lon="6.91858">
        <time>2023-04-16T08:28:51+00:00</time>
        <ele>2654.0</ele>
      </trkpt>
      <trkpt lat="44.34786" lon="6.91859">
        <time>2023-04-16T08:28:53+00:00</time>
        <ele>2654.0</ele>
      </trkpt>
      <trkpt lat="44.34786" lon="6.91861">
        <time>2023-04-16T08:28:55+00:00</time>
        <ele>2655.0</ele>
      </trkpt>
      <trkpt lat="44.34784" lon="6.91862">
        <time>2023-04-16T08:28:58+00:00</time>
        <ele>2656.0</ele>
      </trkpt>
      <trkpt lat="44.3478" lon="6.91862">
        <time>2023-04-16T08:29:05+00:00</time>
        <ele>2657.0</ele>
      </trkpt>
      <trkpt lat="44.34776" lon="6.91862">
        <time>2023-04-16T08:29:12+00:00</time>
        <ele>2658.0</ele>
      </trkpt>
      <trkpt lat="44.34776" lon="6.91862">
        <time>2023-04-16T08:29:13+00:00</time>
        <ele>2658.0</ele>
      </trkpt>
      <trkpt lat="44.34774" lon="6.91861">
        <time>2023-04-16T08:29:17+00:00</time>
        <ele>2658.0</ele>
      </trkpt>
      <trkpt lat="44.34774" lon="6.91861">
        <time>2023-04-16T08:29:18+00:00</time>
        <ele>2658.0</ele>
      </trkpt>
      <trkpt lat="44.34773" lon="6.91862">
        <time>2023-04-16T08:29:20+00:00</time>
        <ele>2659.0</ele>
      </trkpt>
      <trkpt lat="44.34772" lon="6.91862">
        <time>2023-04-16T08:29:21+00:00</time>
        <ele>2659.0</ele>
      </trkpt>
      <trkpt lat="44.34772" lon="6.91863">
        <time>2023-04-16T08:29:23+00:00</time>
        <ele>2659.0</ele>
      </trkpt>
      <trkpt lat="44.34771" lon="6.91865">
        <time>2023-04-16T08:29:25+00:00</time>
        <ele>2660.0</ele>
      </trkpt>
      <trkpt lat="44.34771" lon="6.91865">
        <time>2023-04-16T08:29:26+00:00</time>
        <ele>2660.0</ele>
      </trkpt>
      <trkpt lat="44.34772" lon="6.9187">
        <time>2023-04-16T08:29:32+00:00</time>
        <ele>2662.0</ele>
      </trkpt>
      <trkpt lat="44.34769" lon="6.91872">
        <time>2023-04-16T08:29:38+00:00</time>
        <ele>2663.0</ele>
      </trkpt>
      <trkpt lat="44.34766" lon="6.91872">
        <time>2023-04-16T08:29:43+00:00</time>
        <ele>2664.0</ele>
      </trkpt>
      <trkpt lat="44.3476" lon="6.91868">
        <time>2023-04-16T08:30:02+00:00</time>
        <ele>2665.0</ele>
      </trkpt>
      <trkpt lat="44.34758" lon="6.91867">
        <time>2023-04-16T08:30:08+00:00</time>
        <ele>2666.0</ele>
      </trkpt>
      <trkpt lat="44.34757" lon="6.9187">
        <time>2023-04-16T08:30:13+00:00</time>
        <ele>2667.0</ele>
      </trkpt>
      <trkpt lat="44.34758" lon="6.91876">
        <time>2023-04-16T08:30:20+00:00</time>
        <ele>2668.0</ele>
      </trkpt>
      <trkpt lat="44.34758" lon="6.91877">
        <time>2023-04-16T08:30:21+00:00</time>
        <ele>2669.0</ele>
      </trkpt>
      <trkpt lat="44.34757" lon="6.91879">
        <time>2023-04-16T08:30:24+00:00</time>
        <ele>2669.0</ele>
      </trkpt>
      <trkpt lat="44.34757" lon="6.91881">
        <time>2023-04-16T08:30:26+00:00</time>
        <ele>2670.0</ele>
      </trkpt>
      <trkpt lat="44.34757" lon="6.91883">
        <time>2023-04-16T08:30:29+00:00</time>
        <ele>2671.0</ele>
      </trkpt>
      <trkpt lat="44.34756" lon="6.91886">
        <time>2023-04-16T08:30:32+00:00</time>
        <ele>2672.0</ele>
      </trkpt>
      <trkpt lat="44.34757" lon="6.91892">
        <time>2023-04-16T08:30:38+00:00</time>
        <ele>2673.0</ele>
      </trkpt>
      <trkpt lat="44.34758" lon="6.91896">
        <time>2023-04-16T08:30:45+00:00</time>
        <ele>2674.0</ele>
      </trkpt>
      <trkpt lat="44.34759" lon="6.91899">
        <time>2023-04-16T08:30:49+00:00</time>
        <ele>2674.0</ele>
      </trkpt>
      <trkpt lat="44.3476" lon="6.91899">
        <time>2023-04-16T08:30:50+00:00</time>
        <ele>2674.0</ele>
      </trkpt>
      <trkpt lat="44.34761" lon="6.919">
        <time>2023-04-16T08:30:51+00:00</time>
        <ele>2674.0</ele>
      </trkpt>
      <trkpt lat="44.34761" lon="6.91901">
        <time>2023-04-16T08:30:52+00:00</time>
        <ele>2674.0</ele>
      </trkpt>
      <trkpt lat="44.34761" lon="6.91903">
        <time>2023-04-16T08:30:55+00:00</time>
        <ele>2675.0</ele>
      </trkpt>
      <trkpt lat="44.34764" lon="6.91906">
        <time>2023-04-16T08:31:00+00:00</time>
        <ele>2675.0</ele>
      </trkpt>
      <trkpt lat="44.34768" lon="6.91913">
        <time>2023-04-16T08:31:09+00:00</time>
        <ele>2675.0</ele>
      </trkpt>
      <trkpt lat="44.34769" lon="6.91915">
        <time>2023-04-16T08:31:11+00:00</time>
        <ele>2675.0</ele>
      </trkpt>
      <trkpt lat="44.34771" lon="6.91922">
        <time>2023-04-16T08:31:19+00:00</time>
        <ele>2675.0</ele>
      </trkpt>
      <trkpt lat="44.34774" lon="6.91931">
        <time>2023-04-16T08:31:29+00:00</time>
        <ele>2676.0</ele>
      </trkpt>
      <trkpt lat="44.34775" lon="6.91938">
        <time>2023-04-16T08:31:37+00:00</time>
        <ele>2676.0</ele>
      </trkpt>
      <trkpt lat="44.34777" lon="6.91944">
        <time>2023-04-16T08:31:43+00:00</time>
        <ele>2676.0</ele>
      </trkpt>
      <trkpt lat="44.34777" lon="6.91947">
        <time>2023-04-16T08:31:46+00:00</time>
        <ele>2677.0</ele>
      </trkpt>
      <trkpt lat="44.34778" lon="6.91949">
        <time>2023-04-16T08:31:48+00:00</time>
        <ele>2677.0</ele>
      </trkpt>
      <trkpt lat="44.34779" lon="6.91958">
        <time>2023-04-16T08:31:57+00:00</time>
        <ele>2677.0</ele>
      </trkpt>
      <trkpt lat="44.3478" lon="6.9196">
        <time>2023-04-16T08:31:59+00:00</time>
        <ele>2677.0</ele>
      </trkpt>
      <trkpt lat="44.3478" lon="6.91964">
        <time>2023-04-16T08:32:02+00:00</time>
        <ele>2678.0</ele>
      </trkpt>
      <trkpt lat="44.34782" lon="6.91978">
        <time>2023-04-16T08:32:15+00:00</time>
        <ele>2679.0</ele>
      </trkpt>
      <trkpt lat="44.34782" lon="6.91981">
        <time>2023-04-16T08:32:17+00:00</time>
        <ele>2679.0</ele>
      </trkpt>
      <trkpt lat="44.34785" lon="6.91986">
        <time>2023-04-16T08:32:22+00:00</time>
        <ele>2679.0</ele>
      </trkpt>
      <trkpt lat="44.34786" lon="6.91993">
        <time>2023-04-16T08:32:28+00:00</time>
        <ele>2680.0</ele>
      </trkpt>
      <trkpt lat="44.34786" lon="6.91995">
        <time>2023-04-16T08:32:30+00:00</time>
        <ele>2680.0</ele>
      </trkpt>
      <trkpt lat="44.34787" lon="6.91997">
        <time>2023-04-16T08:32:32+00:00</time>
        <ele>2681.0</ele>
      </trkpt>
      <trkpt lat="44.34787" lon="6.91998">
        <time>2023-04-16T08:32:33+00:00</time>
        <ele>2681.0</ele>
      </trkpt>
      <trkpt lat="44.34788" lon="6.92006">
        <time>2023-04-16T08:32:41+00:00</time>
        <ele>2682.0</ele>
      </trkpt>
      <trkpt lat="44.34789" lon="6.92008">
        <time>2023-04-16T08:32:42+00:00</time>
        <ele>2683.0</ele>
      </trkpt>
      <trkpt lat="44.34788" lon="6.9201">
        <time>2023-04-16T08:32:45+00:00</time>
        <ele>2683.0</ele>
      </trkpt>
      <trkpt lat="44.34788" lon="6.92016">
        <time>2023-04-16T08:32:51+00:00</time>
        <ele>2684.0</ele>
      </trkpt>
      <trkpt lat="44.34789" lon="6.92024">
        <time>2023-04-16T08:32:59+00:00</time>
        <ele>2685.0</ele>
      </trkpt>
      <trkpt lat="44.34789" lon="6.92027">
        <time>2023-04-16T08:33:02+00:00</time>
        <ele>2686.0</ele>
      </trkpt>
      <trkpt lat="44.34789" lon="6.92031">
        <time>2023-04-16T08:33:05+00:00</time>
        <ele>2687.0</ele>
      </trkpt>
      <trkpt lat="44.3479" lon="6.92038">
        <time>2023-04-16T08:33:13+00:00</time>
        <ele>2688.0</ele>
      </trkpt>
      <trkpt lat="44.3479" lon="6.92039">
        <time>2023-04-16T08:33:14+00:00</time>
        <ele>2688.0</ele>
      </trkpt>
      <trkpt lat="44.34789" lon="6.92046">
        <time>2023-04-16T08:33:22+00:00</time>
        <ele>2690.0</ele>
      </trkpt>
      <trkpt lat="44.34787" lon="6.92053">
        <time>2023-04-16T08:33:29+00:00</time>
        <ele>2691.0</ele>
      </trkpt>
      <trkpt lat="44.34785" lon="6.92062">
        <time>2023-04-16T08:33:37+00:00</time>
        <ele>2693.0</ele>
      </trkpt>
      <trkpt lat="44.34785" lon="6.92069">
        <time>2023-04-16T08:33:44+00:00</time>
        <ele>2695.0</ele>
      </trkpt>
      <trkpt lat="44.34786" lon="6.92072">
        <time>2023-04-16T08:33:47+00:00</time>
        <ele>2695.0</ele>
      </trkpt>
      <trkpt lat="44.34785" lon="6.92084">
        <time>2023-04-16T08:33:58+00:00</time>
        <ele>2699.0</ele>
      </trkpt>
      <trkpt lat="44.34784" lon="6.92091">
        <time>2023-04-16T08:34:05+00:00</time>
        <ele>2701.0</ele>
      </trkpt>
      <trkpt lat="44.34782" lon="6.92099">
        <time>2023-04-16T08:34:14+00:00</time>
        <ele>2700.0</ele>
      </trkpt>
      <trkpt lat="44.34782" lon="6.92101">
        <time>2023-04-16T08:34:15+00:00</time>
        <ele>2700.0</ele>
      </trkpt>
      <trkpt lat="44.34781" lon="6.92103">
        <time>2023-04-16T08:34:18+00:00</time>
        <ele>2700.0</ele>
      </trkpt>
      <trkpt lat="44.34781" lon="6.92108">
        <time>2023-04-16T08:34:23+00:00</time>
        <ele>2698.0</ele>
      </trkpt>
      <trkpt lat="44.34781" lon="6.92115">
        <time>2023-04-16T08:34:30+00:00</time>
        <ele>2697.0</ele>
      </trkpt>
      <trkpt lat="44.34781" lon="6.92116">
        <time>2023-04-16T08:34:31+00:00</time>
        <ele>2696.0</ele>
      </trkpt>
      <trkpt lat="44.34779" lon="6.92121">
        <time>2023-04-16T08:34:37+00:00</time>
        <ele>2697.0</ele>
      </trkpt>
      <trkpt lat="44.34779" lon="6.92123">
        <time>2023-04-16T08:34:39+00:00</time>
        <ele>2696.0</ele>
      </trkpt>
      <trkpt lat="44.34779" lon="6.92134">
        <time>2023-04-16T08:34:49+00:00</time>
        <ele>2693.0</ele>
      </trkpt>
      <trkpt lat="44.34779" lon="6.92135">
        <time>2023-04-16T08:34:50+00:00</time>
        <ele>2693.0</ele>
      </trkpt>
      <trkpt lat="44.34778" lon="6.92139">
        <time>2023-04-16T08:34:56+00:00</time>
        <ele>2692.0</ele>
      </trkpt>
      <trkpt lat="44.34776" lon="6.92147">
        <time>2023-04-16T08:35:05+00:00</time>
        <ele>2692.0</ele>
      </trkpt>
      <trkpt lat="44.34775" lon="6.92153">
        <time>2023-04-16T08:35:12+00:00</time>
        <ele>2693.0</ele>
      </trkpt>
      <trkpt lat="44.34775" lon="6.9216">
        <time>2023-04-16T08:35:19+00:00</time>
        <ele>2695.0</ele>
      </trkpt>
      <trkpt lat="44.34774" lon="6.92165">
        <time>2023-04-16T08:35:25+00:00</time>
        <ele>2697.0</ele>
      </trkpt>
      <trkpt lat="44.34774" lon="6.92166">
        <time>2023-04-16T08:35:26+00:00</time>
        <ele>2697.0</ele>
      </trkpt>
      <trkpt lat="44.34774" lon="6.92167">
        <time>2023-04-16T08:35:27+00:00</time>
        <ele>2697.0</ele>
      </trkpt>
      <trkpt lat="44.34774" lon="6.92167">
        <time>2023-04-16T08:35:28+00:00</time>
        <ele>2697.0</ele>
      </trkpt>
      <trkpt lat="44.34774" lon="6.92168">
        <time>2023-04-16T08:35:29+00:00</time>
        <ele>2697.0</ele>
      </trkpt>
      <trkpt lat="44.34774" lon="6.92169">
        <time>2023-04-16T08:35:30+00:00</time>
        <ele>2697.0</ele>
      </trkpt>
      <trkpt lat="44.34774" lon="6.92171">
        <time>2023-04-16T08:35:31+00:00</time>
        <ele>2698.0</ele>
      </trkpt>
      <trkpt lat="44.34774" lon="6.92172">
        <time>2023-04-16T08:35:32+00:00</time>
        <ele>2698.0</ele>
      </trkpt>
      <trkpt lat="44.34774" lon="6.92174">
        <time>2023-04-16T08:35:35+00:00</time>
        <ele>2699.0</ele>
      </trkpt>
      <trkpt lat="44.34773" lon="6.92176">
        <time>2023-04-16T08:35:37+00:00</time>
        <ele>2700.0</ele>
      </trkpt>
      <trkpt lat="44.34773" lon="6.9218">
        <time>2023-04-16T08:35:43+00:00</time>
        <ele>2701.0</ele>
      </trkpt>
      <trkpt lat="44.34773" lon="6.92185">
        <time>2023-04-16T08:35:49+00:00</time>
        <ele>2702.0</ele>
      </trkpt>
      <trkpt lat="44.34773" lon="6.92189">
        <time>2023-04-16T08:35:53+00:00</time>
        <ele>2703.0</ele>
      </trkpt>
      <trkpt lat="44.34774" lon="6.92191">
        <time>2023-04-16T08:35:55+00:00</time>
        <ele>2703.0</ele>
      </trkpt>
      <trkpt lat="44.34774" lon="6.92191">
        <time>2023-04-16T08:35:56+00:00</time>
        <ele>2703.0</ele>
      </trkpt>
      <trkpt lat="44.34775" lon="6.92192">
        <time>2023-04-16T08:36:02+00:00</time>
        <ele>2703.0</ele>
      </trkpt>
      <trkpt lat="44.34775" lon="6.92191">
        <time>2023-04-16T08:36:05+00:00</time>
        <ele>2703.0</ele>
      </trkpt>
      <trkpt lat="44.34775" lon="6.92191">
        <time>2023-04-16T08:36:08+00:00</time>
        <ele>2703.0</ele>
      </trkpt>
      <trkpt lat="44.34775" lon="6.92191">
        <time>2023-04-16T08:36:12+00:00</time>
        <ele>2703.0</ele>
      </trkpt>
      <trkpt lat="44.34775" lon="6.92191">
        <time>2023-04-16T08:36:16+00:00</time>
        <ele>2703.0</ele>
      </trkpt>
      <trkpt lat="44.34777" lon="6.92198">
        <time>2023-04-16T08:36:27+00:00</time>
        <ele>2703.0</ele>
      </trkpt>
      <trkpt lat="44.34777" lon="6.92199">
        <time>2023-04-16T08:36:28+00:00</time>
        <ele>2704.0</ele>
      </trkpt>
      <trkpt lat="44.34777" lon="6.92203">
        <time>2023-04-16T08:36:34+00:00</time>
        <ele>2704.0</ele>
      </trkpt>
      <trkpt lat="44.34778" lon="6.92205">
        <time>2023-04-16T08:36:40+00:00</time>
        <ele>2704.0</ele>
      </trkpt>
      <trkpt lat="44.34778" lon="6.92207">
        <time>2023-04-16T08:36:46+00:00</time>
        <ele>2705.0</ele>
      </trkpt>
      <trkpt lat="44.34779" lon="6.92208">
        <time>2023-04-16T08:36:51+00:00</time>
        <ele>2704.0</ele>
      </trkpt>
      <trkpt lat="44.34779" lon="6.92209">
        <time>2023-04-16T08:36:53+00:00</time>
        <ele>2705.0</ele>
      </trkpt>
      <trkpt lat="44.3478" lon="6.92213">
        <time>2023-04-16T08:36:58+00:00</time>
        <ele>2705.0</ele>
      </trkpt>
      <trkpt lat="44.34781" lon="6.92214">
        <time>2023-04-16T08:37:00+00:00</time>
        <ele>2705.0</ele>
      </trkpt>
      <trkpt lat="44.34781" lon="6.92215">
        <time>2023-04-16T08:37:01+00:00</time>
        <ele>2705.0</ele>
      </trkpt>
      <trkpt lat="44.34781" lon="6.92216">
        <time>2023-04-16T08:37:02+00:00</time>
        <ele>2705.0</ele>
      </trkpt>
      <trkpt lat="44.34776" lon="6.92217">
        <time>2023-04-16T08:37:14+00:00</time>
        <ele>2708.0</ele>
      </trkpt>
      <trkpt lat="44.34775" lon="6.92217">
        <time>2023-04-16T08:37:17+00:00</time>
        <ele>2708.0</ele>
      </trkpt>
      <trkpt lat="44.34771" lon="6.92217">
        <time>2023-04-16T08:37:21+00:00</time>
        <ele>2710.0</ele>
      </trkpt>
      <trkpt lat="44.34771" lon="6.92217">
        <time>2023-04-16T08:37:22+00:00</time>
        <ele>2710.0</ele>
      </trkpt>
      <trkpt lat="44.3477" lon="6.92217">
        <time>2023-04-16T08:37:23+00:00</time>
        <ele>2711.0</ele>
      </trkpt>
      <trkpt lat="44.34769" lon="6.92217">
        <time>2023-04-16T08:37:25+00:00</time>
        <ele>2711.0</ele>
      </trkpt>
      <trkpt lat="44.34769" lon="6.92217">
        <time>2023-04-16T08:37:28+00:00</time>
        <ele>2711.0</ele>
      </trkpt>
      <trkpt lat="44.34769" lon="6.92219">
        <time>2023-04-16T08:37:31+00:00</time>
        <ele>2712.0</ele>
      </trkpt>
      <trkpt lat="44.34771" lon="6.92224">
        <time>2023-04-16T08:37:48+00:00</time>
        <ele>2712.0</ele>
      </trkpt>
      <trkpt lat="44.34771" lon="6.92225">
        <time>2023-04-16T08:37:49+00:00</time>
        <ele>2712.0</ele>
      </trkpt>
      <trkpt lat="44.34772" lon="6.92226">
        <time>2023-04-16T08:37:51+00:00</time>
        <ele>2712.0</ele>
      </trkpt>
      <trkpt lat="44.34773" lon="6.92228">
        <time>2023-04-16T08:37:56+00:00</time>
        <ele>2712.0</ele>
      </trkpt>
      <trkpt lat="44.34772" lon="6.92228">
        <time>2023-04-16T08:37:57+00:00</time>
        <ele>2712.0</ele>
      </trkpt>
      <trkpt lat="44.34769" lon="6.9223">
        <time>2023-04-16T08:38:03+00:00</time>
        <ele>2714.0</ele>
      </trkpt>
      <trkpt lat="44.34762" lon="6.92228">
        <time>2023-04-16T08:38:12+00:00</time>
        <ele>2717.0</ele>
      </trkpt>
      <trkpt lat="44.34759" lon="6.92227">
        <time>2023-04-16T08:38:18+00:00</time>
        <ele>2719.0</ele>
      </trkpt>
      <trkpt lat="44.34762" lon="6.92229">
        <time>2023-04-16T08:38:34+00:00</time>
        <ele>2717.0</ele>
      </trkpt>
      <trkpt lat="44.34764" lon="6.92236">
        <time>2023-04-16T08:38:43+00:00</time>
        <ele>2718.0</ele>
      </trkpt>
      <trkpt lat="44.34766" lon="6.92239">
        <time>2023-04-16T08:38:47+00:00</time>
        <ele>2718.0</ele>
      </trkpt>
      <trkpt lat="44.34761" lon="6.9224">
        <time>2023-04-16T08:38:55+00:00</time>
        <ele>2721.0</ele>
      </trkpt>
      <trkpt lat="44.34755" lon="6.92237">
        <time>2023-04-16T08:39:04+00:00</time>
        <ele>2723.0</ele>
      </trkpt>
      <trkpt lat="44.34754" lon="6.92234">
        <time>2023-04-16T08:39:16+00:00</time>
        <ele>2723.0</ele>
      </trkpt>
      <trkpt lat="44.34754" lon="6.92237">
        <time>2023-04-16T08:39:28+00:00</time>
        <ele>2724.0</ele>
      </trkpt>
      <trkpt lat="44.34754" lon="6.92237">
        <time>2023-04-16T08:39:32+00:00</time>
        <ele>2724.0</ele>
      </trkpt>
      <trkpt lat="44.34754" lon="6.92237">
        <time>2023-04-16T08:39:45+00:00</time>
        <ele>2724.0</ele>
      </trkpt>
      <trkpt lat="44.34754" lon="6.92236">
        <time>2023-04-16T08:39:56+00:00</time>
        <ele>2724.0</ele>
      </trkpt>
      <trkpt lat="44.34755" lon="6.92236">
        <time>2023-04-16T08:40:04+00:00</time>
        <ele>2723.0</ele>
      </trkpt>
      <trkpt lat="44.34755" lon="6.92235">
        <time>2023-04-16T08:40:06+00:00</time>
        <ele>2723.0</ele>
      </trkpt>
      <trkpt lat="44.34755" lon="6.92235">
        <time>2023-04-16T08:40:09+00:00</time>
        <ele>2723.0</ele>
      </trkpt>
      <trkpt lat="44.34755" lon="6.92235">
        <time>2023-04-16T08:40:10+00:00</time>
        <ele>2723.0</ele>
      </trkpt>
      <trkpt lat="44.34755" lon="6.92235">
        <time>2023-04-16T08:40:14+00:00</time>
        <ele>2723.0</ele>
      </trkpt>
      <trkpt lat="44.34755" lon="6.92235">
        <time>2023-04-16T08:40:18+00:00</time>
        <ele>2723.0</ele>
      </trkpt>
      <trkpt lat="44.34756" lon="6.92237">
        <time>2023-04-16T08:40:32+00:00</time>
        <ele>2723.0</ele>
      </trkpt>
      <trkpt lat="44.34755" lon="6.92238">
        <time>2023-04-16T08:40:37+00:00</time>
        <ele>2723.0</ele>
      </trkpt>
      <trkpt lat="44.3476" lon="6.9225">
        <time>2023-04-16T08:40:56+00:00</time>
        <ele>2723.0</ele>
      </trkpt>
      <trkpt lat="44.34759" lon="6.92255">
        <time>2023-04-16T08:41:02+00:00</time>
        <ele>2725.0</ele>
      </trkpt>
      <trkpt lat="44.34759" lon="6.92256">
        <time>2023-04-16T08:41:08+00:00</time>
        <ele>2725.0</ele>
      </trkpt>
      <trkpt lat="44.34759" lon="6.92258">
        <time>2023-04-16T08:41:15+00:00</time>
        <ele>2725.0</ele>
      </trkpt>
      <trkpt lat="44.3476" lon="6.92256">
        <time>2023-04-16T08:41:29+00:00</time>
        <ele>2724.0</ele>
      </trkpt>
      <trkpt lat="44.34761" lon="6.92256">
        <time>2023-04-16T08:42:19+00:00</time>
        <ele>2724.0</ele>
      </trkpt>
      <trkpt lat="44.34763" lon="6.92256">
        <time>2023-04-16T08:42:28+00:00</time>
        <ele>2723.0</ele>
      </trkpt>
      <trkpt lat="44.3476" lon="6.92256">
        <time>2023-04-16T08:43:23+00:00</time>
        <ele>2724.0</ele>
      </trkpt>
      <trkpt lat="44.34759" lon="6.92254">
        <time>2023-04-16T08:43:29+00:00</time>
        <ele>2724.0</ele>
      </trkpt>
      <trkpt lat="44.34759" lon="6.92254">
        <time>2023-04-16T08:43:31+00:00</time>
        <ele>2724.0</ele>
      </trkpt>
      <trkpt lat="44.34759" lon="6.92254">
        <time>2023-04-16T08:43:32+00:00</time>
        <ele>2724.0</ele>
      </trkpt>
      <trkpt lat="44.34759" lon="6.92255">
        <time>2023-04-16T08:43:37+00:00</time>
        <ele>2725.0</ele>
      </trkpt>
      <trkpt lat="44.34759" lon="6.92256">
        <time>2023-04-16T08:43:39+00:00</time>
        <ele>2725.0</ele>
      </trkpt>
      <trkpt lat="44.34759" lon="6.92256">
        <time>2023-04-16T08:43:41+00:00</time>
        <ele>2725.0</ele>
      </trkpt>
      <trkpt lat="44.34759" lon="6.92256">
        <time>2023-04-16T08:43:42+00:00</time>
        <ele>2725.0</ele>
      </trkpt>
      <trkpt lat="44.34759" lon="6.92256">
        <time>2023-04-16T08:43:43+00:00</time>
        <ele>2725.0</ele>
      </trkpt>
      <trkpt lat="44.34759" lon="6.92256">
        <time>2023-04-16T08:43:44+00:00</time>
        <ele>2725.0</ele>
      </trkpt>
      <trkpt lat="44.34759" lon="6.92256">
        <time>2023-04-16T08:43:45+00:00</time>
        <ele>2725.0</ele>
      </trkpt>
      <trkpt lat="44.34759" lon="6.92256">
        <time>2023-04-16T08:43:46+00:00</time>
        <ele>2725.0</ele>
      </trkpt>
      <trkpt lat="44.34759" lon="6.92256">
        <time>2023-04-16T08:43:48+00:00</time>
        <ele>2725.0</ele>
      </trkpt>
      <trkpt lat="44.34759" lon="6.92257">
        <time>2023-04-16T08:43:53+00:00</time>
        <ele>2725.0</ele>
      </trkpt>
      <trkpt lat="44.3476" lon="6.92256">
        <time>2023-04-16T08:43:58+00:00</time>
        <ele>2724.0</ele>
      </trkpt>
      <trkpt lat="44.3476" lon="6.92257">
        <time>2023-04-16T08:44:11+00:00</time>
        <ele>2724.0</ele>
      </trkpt>
      <trkpt lat="44.3476" lon="6.92257">
        <time>2023-04-16T08:44:16+00:00</time>
        <ele>2724.0</ele>
      </trkpt>
      <trkpt lat="44.3476" lon="6.92258">
        <time>2023-04-16T08:44:20+00:00</time>
        <ele>2725.0</ele>
      </trkpt>
      <trkpt lat="44.3476" lon="6.92258">
        <time>2023-04-16T08:44:21+00:00</time>
        <ele>2725.0</ele>
      </trkpt>
      <trkpt lat="44.34757" lon="6.92257">
        <time>2023-04-16T08:44:40+00:00</time>
        <ele>2726.0</ele>
      </trkpt>
      <trkpt lat="44.34753" lon="6.92252">
        <time>2023-04-16T08:44:49+00:00</time>
        <ele>2727.0</ele>
      </trkpt>
      <trkpt lat="44.34752" lon="6.92251">
        <time>2023-04-16T08:44:51+00:00</time>
        <ele>2727.0</ele>
      </trkpt>
      <trkpt lat="44.3475" lon="6.9225">
        <time>2023-04-16T08:44:56+00:00</time>
        <ele>2728.0</ele>
      </trkpt>
      <trkpt lat="44.34748" lon="6.9225">
        <time>2023-04-16T08:45:01+00:00</time>
        <ele>2729.0</ele>
      </trkpt>
      <trkpt lat="44.34747" lon="6.92249">
        <time>2023-04-16T08:45:02+00:00</time>
        <ele>2729.0</ele>
      </trkpt>
      <trkpt lat="44.34746" lon="6.92248">
        <time>2023-04-16T08:45:04+00:00</time>
        <ele>2729.0</ele>
      </trkpt>
      <trkpt lat="44.34745" lon="6.92247">
        <time>2023-04-16T08:45:08+00:00</time>
        <ele>2729.0</ele>
      </trkpt>
      <trkpt lat="44.34742" lon="6.92245">
        <time>2023-04-16T08:45:15+00:00</time>
        <ele>2731.0</ele>
      </trkpt>
      <trkpt lat="44.3474" lon="6.92243">
        <time>2023-04-16T08:45:23+00:00</time>
        <ele>2731.0</ele>
      </trkpt>
      <trkpt lat="44.34738" lon="6.92241">
        <time>2023-04-16T08:45:33+00:00</time>
        <ele>2732.0</ele>
      </trkpt>
      <trkpt lat="44.34738" lon="6.92239">
        <time>2023-04-16T08:45:39+00:00</time>
        <ele>2732.0</ele>
      </trkpt>
      <trkpt lat="44.34735" lon="6.92237">
        <time>2023-04-16T08:45:54+00:00</time>
        <ele>2733.0</ele>
      </trkpt>
      <trkpt lat="44.34733" lon="6.92233">
        <time>2023-04-16T08:46:03+00:00</time>
        <ele>2733.0</ele>
      </trkpt>
      <trkpt lat="44.34731" lon="6.92233">
        <time>2023-04-16T08:46:10+00:00</time>
        <ele>2734.0</ele>
      </trkpt>
      <trkpt lat="44.34728" lon="6.92231">
        <time>2023-04-16T08:46:22+00:00</time>
        <ele>2736.0</ele>
      </trkpt>
      <trkpt lat="44.34728" lon="6.92231">
        <time>2023-04-16T08:46:28+00:00</time>
        <ele>2736.0</ele>
      </trkpt>
      <trkpt lat="44.34726" lon="6.92229">
        <time>2023-04-16T08:46:37+00:00</time>
        <ele>2737.0</ele>
      </trkpt>
      <trkpt lat="44.34724" lon="6.92228">
        <time>2023-04-16T08:46:48+00:00</time>
        <ele>2738.0</ele>
      </trkpt>
      <trkpt lat="44.34718" lon="6.92226">
        <time>2023-04-16T08:47:05+00:00</time>
        <ele>2742.0</ele>
      </trkpt>
      <trkpt lat="44.34718" lon="6.92225">
        <time>2023-04-16T08:47:11+00:00</time>
        <ele>2742.0</ele>
      </trkpt>
      <trkpt lat="44.34716" lon="6.92225">
        <time>2023-04-16T08:47:21+00:00</time>
        <ele>2744.0</ele>
      </trkpt>
      <trkpt lat="44.34714" lon="6.92222">
        <time>2023-04-16T08:47:30+00:00</time>
        <ele>2745.0</ele>
      </trkpt>
      <trkpt lat="44.34711" lon="6.92221">
        <time>2023-04-16T08:47:43+00:00</time>
        <ele>2747.0</ele>
      </trkpt>
      <trkpt lat="44.34708" lon="6.9222">
        <time>2023-04-16T08:47:52+00:00</time>
        <ele>2749.0</ele>
      </trkpt>
      <trkpt lat="44.34708" lon="6.92219">
        <time>2023-04-16T08:47:57+00:00</time>
        <ele>2749.0</ele>
      </trkpt>
      <trkpt lat="44.34707" lon="6.92219">
        <time>2023-04-16T08:48:03+00:00</time>
        <ele>2749.0</ele>
      </trkpt>
      <trkpt lat="44.34706" lon="6.92219">
        <time>2023-04-16T08:48:12+00:00</time>
        <ele>2750.0</ele>
      </trkpt>
      <trkpt lat="44.34705" lon="6.92216">
        <time>2023-04-16T08:48:22+00:00</time>
        <ele>2750.0</ele>
      </trkpt>
      <trkpt lat="44.34701" lon="6.92217">
        <time>2023-04-16T08:48:30+00:00</time>
        <ele>2753.0</ele>
      </trkpt>
      <trkpt lat="44.347" lon="6.92217">
        <time>2023-04-16T08:48:34+00:00</time>
        <ele>2754.0</ele>
      </trkpt>
      <trkpt lat="44.34698" lon="6.92217">
        <time>2023-04-16T08:48:51+00:00</time>
        <ele>2755.0</ele>
      </trkpt>
      <trkpt lat="44.34696" lon="6.92217">
        <time>2023-04-16T08:48:57+00:00</time>
        <ele>2756.0</ele>
      </trkpt>
      <trkpt lat="44.34694" lon="6.92216">
        <time>2023-04-16T08:49:03+00:00</time>
        <ele>2757.0</ele>
      </trkpt>
      <trkpt lat="44.34696" lon="6.92214">
        <time>2023-04-16T08:49:18+00:00</time>
        <ele>2756.0</ele>
      </trkpt>
      <trkpt lat="44.34693" lon="6.92213">
        <time>2023-04-16T08:49:25+00:00</time>
        <ele>2758.0</ele>
      </trkpt>
      <trkpt lat="44.34691" lon="6.92212">
        <time>2023-04-16T08:49:32+00:00</time>
        <ele>2759.0</ele>
      </trkpt>
      <trkpt lat="44.34689" lon="6.9221">
        <time>2023-04-16T08:49:43+00:00</time>
        <ele>2760.0</ele>
      </trkpt>
      <trkpt lat="44.34689" lon="6.9221">
        <time>2023-04-16T08:49:48+00:00</time>
        <ele>2760.0</ele>
      </trkpt>
      <trkpt lat="44.34689" lon="6.9221">
        <time>2023-04-16T08:49:49+00:00</time>
        <ele>2760.0</ele>
      </trkpt>
      <trkpt lat="44.34689" lon="6.9221">
        <time>2023-04-16T08:49:50+00:00</time>
        <ele>2760.0</ele>
      </trkpt>
      <trkpt lat="44.34687" lon="6.9221">
        <time>2023-04-16T08:49:54+00:00</time>
        <ele>2761.0</ele>
      </trkpt>
      <trkpt lat="44.34687" lon="6.9221">
        <time>2023-04-16T08:49:56+00:00</time>
        <ele>2761.0</ele>
      </trkpt>
      <trkpt lat="44.34686" lon="6.9221">
        <time>2023-04-16T08:49:58+00:00</time>
        <ele>2761.0</ele>
      </trkpt>
      <trkpt lat="44.34686" lon="6.92209">
        <time>2023-04-16T08:50:02+00:00</time>
        <ele>2761.0</ele>
      </trkpt>
      <trkpt lat="44.34685" lon="6.92209">
        <time>2023-04-16T08:50:04+00:00</time>
        <ele>2762.0</ele>
      </trkpt>
      <trkpt lat="44.34686" lon="6.92208">
        <time>2023-04-16T08:50:09+00:00</time>
        <ele>2761.0</ele>
      </trkpt>
      <trkpt lat="44.34687" lon="6.92214">
        <time>2023-04-16T08:50:23+00:00</time>
        <ele>2761.0</ele>
      </trkpt>
      <trkpt lat="44.34688" lon="6.92217">
        <time>2023-04-16T08:50:32+00:00</time>
        <ele>2761.0</ele>
      </trkpt>
      <trkpt lat="44.34689" lon="6.92217">
        <time>2023-04-16T08:50:34+00:00</time>
        <ele>2761.0</ele>
      </trkpt>
      <trkpt lat="44.3469" lon="6.92218">
        <time>2023-04-16T08:50:36+00:00</time>
        <ele>2760.0</ele>
      </trkpt>
      <trkpt lat="44.34694" lon="6.92222">
        <time>2023-04-16T08:50:41+00:00</time>
        <ele>2758.0</ele>
      </trkpt>
      <trkpt lat="44.34694" lon="6.92222">
        <time>2023-04-16T08:50:44+00:00</time>
        <ele>2758.0</ele>
      </trkpt>
      <trkpt lat="44.34693" lon="6.92222">
        <time>2023-04-16T08:50:46+00:00</time>
        <ele>2759.0</ele>
      </trkpt>
      <trkpt lat="44.34693" lon="6.92222">
        <time>2023-04-16T08:51:01+00:00</time>
        <ele>2759.0</ele>
      </trkpt>
      <trkpt lat="44.34692" lon="6.92221">
        <time>2023-04-16T08:51:07+00:00</time>
        <ele>2759.0</ele>
      </trkpt>
      <trkpt lat="44.34691" lon="6.92221">
        <time>2023-04-16T08:51:10+00:00</time>
        <ele>2760.0</ele>
      </trkpt>
      <trkpt lat="44.34691" lon="6.92221">
        <time>2023-04-16T08:51:11+00:00</time>
        <ele>2760.0</ele>
      </trkpt>
      <trkpt lat="44.3469" lon="6.9222">
        <time>2023-04-16T08:51:13+00:00</time>
        <ele>2760.0</ele>
      </trkpt>
      <trkpt lat="44.34688" lon="6.9222">
        <time>2023-04-16T08:51:19+00:00</time>
        <ele>2761.0</ele>
      </trkpt>
      <trkpt lat="44.34685" lon="6.92218">
        <time>2023-04-16T08:51:32+00:00</time>
        <ele>2762.0</ele>
      </trkpt>
      <trkpt lat="44.34683" lon="6.92218">
        <time>2023-04-16T08:51:38+00:00</time>
        <ele>2763.0</ele>
      </trkpt>
      <trkpt lat="44.34682" lon="6.92218">
        <time>2023-04-16T08:51:41+00:00</time>
        <ele>2763.0</ele>
      </trkpt>
      <trkpt lat="44.34682" lon="6.92218">
        <time>2023-04-16T08:51:42+00:00</time>
        <ele>2763.0</ele>
      </trkpt>
      <trkpt lat="44.34682" lon="6.92219">
        <time>2023-04-16T08:51:43+00:00</time>
        <ele>2764.0</ele>
      </trkpt>
      <trkpt lat="44.34681" lon="6.9222">
        <time>2023-04-16T08:51:45+00:00</time>
        <ele>2764.0</ele>
      </trkpt>
      <trkpt lat="44.3468" lon="6.92221">
        <time>2023-04-16T08:51:48+00:00</time>
        <ele>2764.0</ele>
      </trkpt>
      <trkpt lat="44.3468" lon="6.92221">
        <time>2023-04-16T08:51:49+00:00</time>
        <ele>2764.0</ele>
      </trkpt>
      <trkpt lat="44.3468" lon="6.9222">
        <time>2023-04-16T08:51:51+00:00</time>
        <ele>2764.0</ele>
      </trkpt>
      <trkpt lat="44.3468" lon="6.9222">
        <time>2023-04-16T08:51:54+00:00</time>
        <ele>2764.0</ele>
      </trkpt>
      <trkpt lat="44.3468" lon="6.9222">
        <time>2023-04-16T08:51:56+00:00</time>
        <ele>2764.0</ele>
      </trkpt>
      <trkpt lat="44.3468" lon="6.9222">
        <time>2023-04-16T08:51:57+00:00</time>
        <ele>2764.0</ele>
      </trkpt>
      <trkpt lat="44.3468" lon="6.9222">
        <time>2023-04-16T08:51:58+00:00</time>
        <ele>2764.0</ele>
      </trkpt>
      <trkpt lat="44.3468" lon="6.9222">
        <time>2023-04-16T08:51:59+00:00</time>
        <ele>2764.0</ele>
      </trkpt>
      <trkpt lat="44.3468" lon="6.9222">
        <time>2023-04-16T08:52:01+00:00</time>
        <ele>2764.0</ele>
      </trkpt>
      <trkpt lat="44.3468" lon="6.9222">
        <time>2023-04-16T08:52:03+00:00</time>
        <ele>2764.0</ele>
      </trkpt>
      <trkpt lat="44.34679" lon="6.9222">
        <time>2023-04-16T08:52:05+00:00</time>
        <ele>2765.0</ele>
      </trkpt>
      <trkpt lat="44.34679" lon="6.9222">
        <time>2023-04-16T08:52:06+00:00</time>
        <ele>2765.0</ele>
      </trkpt>
      <trkpt lat="44.34678" lon="6.9222">
        <time>2023-04-16T08:52:08+00:00</time>
        <ele>2765.0</ele>
      </trkpt>
      <trkpt lat="44.34678" lon="6.9222">
        <time>2023-04-16T08:52:09+00:00</time>
        <ele>2765.0</ele>
      </trkpt>
      <trkpt lat="44.34678" lon="6.92221">
        <time>2023-04-16T08:52:12+00:00</time>
        <ele>2765.0</ele>
      </trkpt>
      <trkpt lat="44.34677" lon="6.92221">
        <time>2023-04-16T08:52:13+00:00</time>
        <ele>2766.0</ele>
      </trkpt>
      <trkpt lat="44.34677" lon="6.92221">
        <time>2023-04-16T08:52:15+00:00</time>
        <ele>2766.0</ele>
      </trkpt>
      <trkpt lat="44.34676" lon="6.92222">
        <time>2023-04-16T08:52:19+00:00</time>
        <ele>2766.0</ele>
      </trkpt>
      <trkpt lat="44.34674" lon="6.92223">
        <time>2023-04-16T08:52:24+00:00</time>
        <ele>2767.0</ele>
      </trkpt>
      <trkpt lat="44.34673" lon="6.92224">
        <time>2023-04-16T08:52:27+00:00</time>
        <ele>2767.0</ele>
      </trkpt>
      <trkpt lat="44.34673" lon="6.92226">
        <time>2023-04-16T08:52:32+00:00</time>
        <ele>2767.0</ele>
      </trkpt>
      <trkpt lat="44.34673" lon="6.92226">
        <time>2023-04-16T08:52:33+00:00</time>
        <ele>2767.0</ele>
      </trkpt>
      <trkpt lat="44.34672" lon="6.92226">
        <time>2023-04-16T08:52:40+00:00</time>
        <ele>2768.0</ele>
      </trkpt>
      <trkpt lat="44.34671" lon="6.92224">
        <time>2023-04-16T08:52:43+00:00</time>
        <ele>2768.0</ele>
      </trkpt>
      <trkpt lat="44.34671" lon="6.92223">
        <time>2023-04-16T08:52:45+00:00</time>
        <ele>2768.0</ele>
      </trkpt>
      <trkpt lat="44.34671" lon="6.92224">
        <time>2023-04-16T08:52:46+00:00</time>
        <ele>2768.0</ele>
      </trkpt>
      <trkpt lat="44.34671" lon="6.92224">
        <time>2023-04-16T08:52:47+00:00</time>
        <ele>2768.0</ele>
      </trkpt>
      <trkpt lat="44.34671" lon="6.92224">
        <time>2023-04-16T08:52:49+00:00</time>
        <ele>2768.0</ele>
      </trkpt>
      <trkpt lat="44.3467" lon="6.92223">
        <time>2023-04-16T08:52:53+00:00</time>
        <ele>2768.0</ele>
      </trkpt>
      <trkpt lat="44.34668" lon="6.92222">
        <time>2023-04-16T08:52:58+00:00</time>
        <ele>2769.0</ele>
      </trkpt>
      <trkpt lat="44.34668" lon="6.92221">
        <time>2023-04-16T08:53:00+00:00</time>
        <ele>2769.0</ele>
      </trkpt>
      <trkpt lat="44.3466" lon="6.92215">
        <time>2023-04-16T08:53:20+00:00</time>
        <ele>2772.0</ele>
      </trkpt>
      <trkpt lat="44.34657" lon="6.92214">
        <time>2023-04-16T08:53:35+00:00</time>
        <ele>2773.0</ele>
      </trkpt>
      <trkpt lat="44.34655" lon="6.92214">
        <time>2023-04-16T08:53:40+00:00</time>
        <ele>2774.0</ele>
      </trkpt>
      <trkpt lat="44.34653" lon="6.92215">
        <time>2023-04-16T08:53:47+00:00</time>
        <ele>2775.0</ele>
      </trkpt>
      <trkpt lat="44.34651" lon="6.92215">
        <time>2023-04-16T08:53:52+00:00</time>
        <ele>2776.0</ele>
      </trkpt>
      <trkpt lat="44.34642" lon="6.92213">
        <time>2023-04-16T08:54:04+00:00</time>
        <ele>2779.0</ele>
      </trkpt>
      <trkpt lat="44.34641" lon="6.92212">
        <time>2023-04-16T08:54:05+00:00</time>
        <ele>2779.0</ele>
      </trkpt>
      <trkpt lat="44.34636" lon="6.92207">
        <time>2023-04-16T08:54:14+00:00</time>
        <ele>2781.0</ele>
      </trkpt>
      <trkpt lat="44.34636" lon="6.92206">
        <time>2023-04-16T08:54:15+00:00</time>
        <ele>2781.0</ele>
      </trkpt>
      <trkpt lat="44.34636" lon="6.92205">
        <time>2023-04-16T08:54:16+00:00</time>
        <ele>2781.0</ele>
      </trkpt>
      <trkpt lat="44.34635" lon="6.92205">
        <time>2023-04-16T08:54:18+00:00</time>
        <ele>2782.0</ele>
      </trkpt>
      <trkpt lat="44.34635" lon="6.92205">
        <time>2023-04-16T08:54:20+00:00</time>
        <ele>2782.0</ele>
      </trkpt>
      <trkpt lat="44.34635" lon="6.92206">
        <time>2023-04-16T08:54:25+00:00</time>
        <ele>2782.0</ele>
      </trkpt>
      <trkpt lat="44.34634" lon="6.92206">
        <time>2023-04-16T08:54:29+00:00</time>
        <ele>2782.0</ele>
      </trkpt>
      <trkpt lat="44.34634" lon="6.92206">
        <time>2023-04-16T08:54:37+00:00</time>
        <ele>2782.0</ele>
      </trkpt>
      <trkpt lat="44.34634" lon="6.92205">
        <time>2023-04-16T08:54:51+00:00</time>
        <ele>2782.0</ele>
      </trkpt>
      <trkpt lat="44.34632" lon="6.92202">
        <time>2023-04-16T08:54:54+00:00</time>
        <ele>2783.0</ele>
      </trkpt>
      <trkpt lat="44.34631" lon="6.922">
        <time>2023-04-16T08:54:57+00:00</time>
        <ele>2783.0</ele>
      </trkpt>
      <trkpt lat="44.34627" lon="6.92199">
        <time>2023-04-16T08:55:07+00:00</time>
        <ele>2784.0</ele>
      </trkpt>
      <trkpt lat="44.34626" lon="6.92196">
        <time>2023-04-16T08:55:15+00:00</time>
        <ele>2784.0</ele>
      </trkpt>
      <trkpt lat="44.34626" lon="6.92196">
        <time>2023-04-16T08:55:16+00:00</time>
        <ele>2784.0</ele>
      </trkpt>
      <trkpt lat="44.34625" lon="6.92194">
        <time>2023-04-16T08:55:20+00:00</time>
        <ele>2784.0</ele>
      </trkpt>
      <trkpt lat="44.34625" lon="6.92194">
        <time>2023-04-16T08:55:21+00:00</time>
        <ele>2784.0</ele>
      </trkpt>
      <trkpt lat="44.34624" lon="6.92194">
        <time>2023-04-16T08:55:23+00:00</time>
        <ele>2784.0</ele>
      </trkpt>
      <trkpt lat="44.34624" lon="6.92193">
        <time>2023-04-16T08:55:25+00:00</time>
        <ele>2784.0</ele>
      </trkpt>
      <trkpt lat="44.34624" lon="6.92193">
        <time>2023-04-16T08:55:31+00:00</time>
        <ele>2784.0</ele>
      </trkpt>
      <trkpt lat="44.34624" lon="6.92194">
        <time>2023-04-16T08:55:35+00:00</time>
        <ele>2784.0</ele>
      </trkpt>
      <trkpt lat="44.34624" lon="6.92193">
        <time>2023-04-16T08:55:36+00:00</time>
        <ele>2784.0</ele>
      </trkpt>
      <trkpt lat="44.34624" lon="6.92193">
        <time>2023-04-16T08:55:37+00:00</time>
        <ele>2784.0</ele>
      </trkpt>
      <trkpt lat="44.34623" lon="6.92192">
        <time>2023-04-16T08:55:40+00:00</time>
        <ele>2784.0</ele>
      </trkpt>
      <trkpt lat="44.34622" lon="6.92191">
        <time>2023-04-16T08:55:46+00:00</time>
        <ele>2784.0</ele>
      </trkpt>
      <trkpt lat="44.34621" lon="6.9219">
        <time>2023-04-16T08:55:47+00:00</time>
        <ele>2784.0</ele>
      </trkpt>
      <trkpt lat="44.34619" lon="6.92187">
        <time>2023-04-16T08:55:53+00:00</time>
        <ele>2784.0</ele>
      </trkpt>
      <trkpt lat="44.3462" lon="6.92187">
        <time>2023-04-16T08:56:05+00:00</time>
        <ele>2784.0</ele>
      </trkpt>
      <trkpt lat="44.34618" lon="6.92174">
        <time>2023-04-16T08:56:27+00:00</time>
        <ele>2784.0</ele>
      </trkpt>
      <trkpt lat="44.34615" lon="6.92171">
        <time>2023-04-16T08:56:32+00:00</time>
        <ele>2785.0</ele>
      </trkpt>
      <trkpt lat="44.34614" lon="6.92168">
        <time>2023-04-16T08:56:39+00:00</time>
        <ele>2787.0</ele>
      </trkpt>
      <trkpt lat="44.34613" lon="6.92167">
        <time>2023-04-16T08:56:40+00:00</time>
        <ele>2787.0</ele>
      </trkpt>
      <trkpt lat="44.34613" lon="6.92167">
        <time>2023-04-16T08:56:41+00:00</time>
        <ele>2787.0</ele>
      </trkpt>
      <trkpt lat="44.34612" lon="6.92165">
        <time>2023-04-16T08:56:43+00:00</time>
        <ele>2788.0</ele>
      </trkpt>
      <trkpt lat="44.34612" lon="6.92165">
        <time>2023-04-16T08:56:44+00:00</time>
        <ele>2788.0</ele>
      </trkpt>
      <trkpt lat="44.34612" lon="6.92164">
        <time>2023-04-16T08:56:45+00:00</time>
        <ele>2789.0</ele>
      </trkpt>
      <trkpt lat="44.34612" lon="6.92164">
        <time>2023-04-16T08:56:47+00:00</time>
        <ele>2789.0</ele>
      </trkpt>
      <trkpt lat="44.34612" lon="6.92164">
        <time>2023-04-16T08:56:49+00:00</time>
        <ele>2789.0</ele>
      </trkpt>
      <trkpt lat="44.34612" lon="6.92162">
        <time>2023-04-16T08:56:52+00:00</time>
        <ele>2790.0</ele>
      </trkpt>
      <trkpt lat="44.34611" lon="6.92162">
        <time>2023-04-16T08:56:55+00:00</time>
        <ele>2790.0</ele>
      </trkpt>
      <trkpt lat="44.34611" lon="6.92161">
        <time>2023-04-16T08:56:56+00:00</time>
        <ele>2791.0</ele>
      </trkpt>
      <trkpt lat="44.34611" lon="6.92161">
        <time>2023-04-16T08:56:57+00:00</time>
        <ele>2791.0</ele>
      </trkpt>
      <trkpt lat="44.3461" lon="6.9216">
        <time>2023-04-16T08:56:58+00:00</time>
        <ele>2791.0</ele>
      </trkpt>
      <trkpt lat="44.3461" lon="6.92159">
        <time>2023-04-16T08:57:00+00:00</time>
        <ele>2792.0</ele>
      </trkpt>
      <trkpt lat="44.3461" lon="6.92159">
        <time>2023-04-16T08:57:01+00:00</time>
        <ele>2792.0</ele>
      </trkpt>
      <trkpt lat="44.3461" lon="6.92158">
        <time>2023-04-16T08:57:02+00:00</time>
        <ele>2792.0</ele>
      </trkpt>
      <trkpt lat="44.34609" lon="6.92158">
        <time>2023-04-16T08:57:03+00:00</time>
        <ele>2793.0</ele>
      </trkpt>
      <trkpt lat="44.34608" lon="6.92156">
        <time>2023-04-16T08:57:06+00:00</time>
        <ele>2794.0</ele>
      </trkpt>
      <trkpt lat="44.34607" lon="6.9215">
        <time>2023-04-16T08:57:16+00:00</time>
        <ele>2797.0</ele>
      </trkpt>
      <trkpt lat="44.34605" lon="6.92145">
        <time>2023-04-16T08:57:26+00:00</time>
        <ele>2800.0</ele>
      </trkpt>
      <trkpt lat="44.34602" lon="6.92138">
        <time>2023-04-16T08:57:40+00:00</time>
        <ele>2803.0</ele>
      </trkpt>
      <trkpt lat="44.34601" lon="6.92138">
        <time>2023-04-16T08:57:41+00:00</time>
        <ele>2803.0</ele>
      </trkpt>
      <trkpt lat="44.346" lon="6.92137">
        <time>2023-04-16T08:57:44+00:00</time>
        <ele>2804.0</ele>
      </trkpt>
      <trkpt lat="44.34598" lon="6.92136">
        <time>2023-04-16T08:57:55+00:00</time>
        <ele>2805.0</ele>
      </trkpt>
      <trkpt lat="44.34596" lon="6.92131">
        <time>2023-04-16T08:58:03+00:00</time>
        <ele>2807.0</ele>
      </trkpt>
      <trkpt lat="44.34596" lon="6.92131">
        <time>2023-04-16T08:58:07+00:00</time>
        <ele>2807.0</ele>
      </trkpt>
      <trkpt lat="44.34595" lon="6.92129">
        <time>2023-04-16T08:58:13+00:00</time>
        <ele>2808.0</ele>
      </trkpt>
      <trkpt lat="44.34592" lon="6.92122">
        <time>2023-04-16T08:58:29+00:00</time>
        <ele>2811.0</ele>
      </trkpt>
      <trkpt lat="44.34591" lon="6.92121">
        <time>2023-04-16T08:58:31+00:00</time>
        <ele>2812.0</ele>
      </trkpt>
      <trkpt lat="44.3459" lon="6.92118">
        <time>2023-04-16T08:58:36+00:00</time>
        <ele>2812.0</ele>
      </trkpt>
      <trkpt lat="44.34587" lon="6.92116">
        <time>2023-04-16T08:58:46+00:00</time>
        <ele>2814.0</ele>
      </trkpt>
      <trkpt lat="44.34586" lon="6.92117">
        <time>2023-04-16T08:58:53+00:00</time>
        <ele>2814.0</ele>
      </trkpt>
      <trkpt lat="44.34586" lon="6.92113">
        <time>2023-04-16T08:58:59+00:00</time>
        <ele>2814.0</ele>
      </trkpt>
      <trkpt lat="44.34587" lon="6.92109">
        <time>2023-04-16T08:59:09+00:00</time>
        <ele>2813.0</ele>
      </trkpt>
      <trkpt lat="44.34587" lon="6.92111">
        <time>2023-04-16T08:59:18+00:00</time>
        <ele>2813.0</ele>
      </trkpt>
      <trkpt lat="44.34587" lon="6.92112">
        <time>2023-04-16T08:59:20+00:00</time>
        <ele>2813.0</ele>
      </trkpt>
      <trkpt lat="44.34587" lon="6.92115">
        <time>2023-04-16T08:59:26+00:00</time>
        <ele>2814.0</ele>
      </trkpt>
      <trkpt lat="44.34586" lon="6.92115">
        <time>2023-04-16T08:59:31+00:00</time>
        <ele>2814.0</ele>
      </trkpt>
      <trkpt lat="44.34587" lon="6.92116">
        <time>2023-04-16T08:59:34+00:00</time>
        <ele>2814.0</ele>
      </trkpt>
      <trkpt lat="44.34587" lon="6.92116">
        <time>2023-04-16T08:59:38+00:00</time>
        <ele>2814.0</ele>
      </trkpt>
      <trkpt lat="44.34586" lon="6.92119">
        <time>2023-04-16T08:59:46+00:00</time>
        <ele>2814.0</ele>
      </trkpt>
      <trkpt lat="44.34584" lon="6.9212">
        <time>2023-04-16T08:59:54+00:00</time>
        <ele>2814.0</ele>
      </trkpt>
      <trkpt lat="44.34582" lon="6.9212">
        <time>2023-04-16T08:59:57+00:00</time>
        <ele>2815.0</ele>
      </trkpt>
      <trkpt lat="44.3458" lon="6.92119">
        <time>2023-04-16T09:00:07+00:00</time>
        <ele>2816.0</ele>
      </trkpt>
      <trkpt lat="44.34579" lon="6.92119">
        <time>2023-04-16T09:00:08+00:00</time>
        <ele>2816.0</ele>
      </trkpt>
      <trkpt lat="44.34578" lon="6.92119">
        <time>2023-04-16T09:00:11+00:00</time>
        <ele>2817.0</ele>
      </trkpt>
      <trkpt lat="44.34578" lon="6.9212">
        <time>2023-04-16T09:00:12+00:00</time>
        <ele>2817.0</ele>
      </trkpt>
      <trkpt lat="44.34577" lon="6.92121">
        <time>2023-04-16T09:00:14+00:00</time>
        <ele>2817.0</ele>
      </trkpt>
      <trkpt lat="44.34577" lon="6.9212">
        <time>2023-04-16T09:00:17+00:00</time>
        <ele>2817.0</ele>
      </trkpt>
      <trkpt lat="44.34577" lon="6.9212">
        <time>2023-04-16T09:00:18+00:00</time>
        <ele>2817.0</ele>
      </trkpt>
      <trkpt lat="44.34577" lon="6.9212">
        <time>2023-04-16T09:00:19+00:00</time>
        <ele>2817.0</ele>
      </trkpt>
      <trkpt lat="44.34574" lon="6.92123">
        <time>2023-04-16T09:00:31+00:00</time>
        <ele>2817.0</ele>
      </trkpt>
      <trkpt lat="44.34573" lon="6.92124">
        <time>2023-04-16T09:00:36+00:00</time>
        <ele>2817.0</ele>
      </trkpt>
      <trkpt lat="44.34571" lon="6.92126">
        <time>2023-04-16T09:00:43+00:00</time>
        <ele>2816.0</ele>
      </trkpt>
      <trkpt lat="44.34571" lon="6.92126">
        <time>2023-04-16T09:00:46+00:00</time>
        <ele>2816.0</ele>
      </trkpt>
      <trkpt lat="44.34571" lon="6.92126">
        <time>2023-04-16T09:00:49+00:00</time>
        <ele>2816.0</ele>
      </trkpt>
      <trkpt lat="44.34569" lon="6.92127">
        <time>2023-04-16T09:00:57+00:00</time>
        <ele>2815.0</ele>
      </trkpt>
      <trkpt lat="44.34568" lon="6.92127">
        <time>2023-04-16T09:00:58+00:00</time>
        <ele>2815.0</ele>
      </trkpt>
      <trkpt lat="44.34568" lon="6.92127">
        <time>2023-04-16T09:00:59+00:00</time>
        <ele>2815.0</ele>
      </trkpt>
      <trkpt lat="44.34567" lon="6.92127">
        <time>2023-04-16T09:01:01+00:00</time>
        <ele>2815.0</ele>
      </trkpt>
      <trkpt lat="44.34566" lon="6.92126">
        <time>2023-04-16T09:01:03+00:00</time>
        <ele>2815.0</ele>
      </trkpt>
      <trkpt lat="44.34566" lon="6.92125">
        <time>2023-04-16T09:01:05+00:00</time>
        <ele>2816.0</ele>
      </trkpt>
      <trkpt lat="44.34566" lon="6.92124">
        <time>2023-04-16T09:01:07+00:00</time>
        <ele>2816.0</ele>
      </trkpt>
      <trkpt lat="44.34565" lon="6.92123">
        <time>2023-04-16T09:01:09+00:00</time>
        <ele>2817.0</ele>
      </trkpt>
      <trkpt lat="44.34563" lon="6.92122">
        <time>2023-04-16T09:01:13+00:00</time>
        <ele>2817.0</ele>
      </trkpt>
      <trkpt lat="44.34559" lon="6.9212">
        <time>2023-04-16T09:01:21+00:00</time>
        <ele>2817.0</ele>
      </trkpt>
      <trkpt lat="44.34558" lon="6.9212">
        <time>2023-04-16T09:01:24+00:00</time>
        <ele>2817.0</ele>
      </trkpt>
      <trkpt lat="44.34558" lon="6.9212">
        <time>2023-04-16T09:01:28+00:00</time>
        <ele>2817.0</ele>
      </trkpt>
      <trkpt lat="44.34553" lon="6.92112">
        <time>2023-04-16T09:01:50+00:00</time>
        <ele>2819.0</ele>
      </trkpt>
      <trkpt lat="44.34552" lon="6.92109">
        <time>2023-04-16T09:01:54+00:00</time>
        <ele>2819.0</ele>
      </trkpt>
      <trkpt lat="44.3455" lon="6.92106">
        <time>2023-04-16T09:02:00+00:00</time>
        <ele>2820.0</ele>
      </trkpt>
      <trkpt lat="44.34549" lon="6.92103">
        <time>2023-04-16T09:02:05+00:00</time>
        <ele>2820.0</ele>
      </trkpt>
      <trkpt lat="44.34548" lon="6.921">
        <time>2023-04-16T09:02:13+00:00</time>
        <ele>2821.0</ele>
      </trkpt>
      <trkpt lat="44.34547" lon="6.92095">
        <time>2023-04-16T09:02:21+00:00</time>
        <ele>2822.0</ele>
      </trkpt>
      <trkpt lat="44.34546" lon="6.92092">
        <time>2023-04-16T09:02:24+00:00</time>
        <ele>2823.0</ele>
      </trkpt>
      <trkpt lat="44.34546" lon="6.92091">
        <time>2023-04-16T09:02:25+00:00</time>
        <ele>2823.0</ele>
      </trkpt>
      <trkpt lat="44.34547" lon="6.92084">
        <time>2023-04-16T09:02:33+00:00</time>
        <ele>2824.0</ele>
      </trkpt>
      <trkpt lat="44.34546" lon="6.92081">
        <time>2023-04-16T09:02:36+00:00</time>
        <ele>2825.0</ele>
      </trkpt>
      <trkpt lat="44.34547" lon="6.92077">
        <time>2023-04-16T09:02:40+00:00</time>
        <ele>2825.0</ele>
      </trkpt>
      <trkpt lat="44.34547" lon="6.92074">
        <time>2023-04-16T09:02:44+00:00</time>
        <ele>2826.0</ele>
      </trkpt>
      <trkpt lat="44.34547" lon="6.92072">
        <time>2023-04-16T09:02:49+00:00</time>
        <ele>2826.0</ele>
      </trkpt>
      <trkpt lat="44.34546" lon="6.92071">
        <time>2023-04-16T09:02:55+00:00</time>
        <ele>2826.0</ele>
      </trkpt>
      <trkpt lat="44.34546" lon="6.9207">
        <time>2023-04-16T09:03:06+00:00</time>
        <ele>2826.0</ele>
      </trkpt>
      <trkpt lat="44.34546" lon="6.9207">
        <time>2023-04-16T09:03:07+00:00</time>
        <ele>2826.0</ele>
      </trkpt>
      <trkpt lat="44.34545" lon="6.9207">
        <time>2023-04-16T09:03:08+00:00</time>
        <ele>2826.0</ele>
      </trkpt>
      <trkpt lat="44.34545" lon="6.92071">
        <time>2023-04-16T09:03:09+00:00</time>
        <ele>2826.0</ele>
      </trkpt>
      <trkpt lat="44.34545" lon="6.92071">
        <time>2023-04-16T09:03:10+00:00</time>
        <ele>2826.0</ele>
      </trkpt>
      <trkpt lat="44.34545" lon="6.9207">
        <time>2023-04-16T09:03:11+00:00</time>
        <ele>2826.0</ele>
      </trkpt>
      <trkpt lat="44.34544" lon="6.9207">
        <time>2023-04-16T09:03:13+00:00</time>
        <ele>2826.0</ele>
      </trkpt>
      <trkpt lat="44.34544" lon="6.92071">
        <time>2023-04-16T09:03:15+00:00</time>
        <ele>2826.0</ele>
      </trkpt>
      <trkpt lat="44.34543" lon="6.9207">
        <time>2023-04-16T09:03:19+00:00</time>
        <ele>2826.0</ele>
      </trkpt>
      <trkpt lat="44.34543" lon="6.9207">
        <time>2023-04-16T09:03:20+00:00</time>
        <ele>2826.0</ele>
      </trkpt>
      <trkpt lat="44.34544" lon="6.9207">
        <time>2023-04-16T09:03:23+00:00</time>
        <ele>2826.0</ele>
      </trkpt>
      <trkpt lat="44.34544" lon="6.92069">
        <time>2023-04-16T09:03:25+00:00</time>
        <ele>2826.0</ele>
      </trkpt>
      <trkpt lat="44.34545" lon="6.92066">
        <time>2023-04-16T09:03:33+00:00</time>
        <ele>2826.0</ele>
      </trkpt>
      <trkpt lat="44.34546" lon="6.92064">
        <time>2023-04-16T09:03:41+00:00</time>
        <ele>2827.0</ele>
      </trkpt>
      <trkpt lat="44.34546" lon="6.92065">
        <time>2023-04-16T09:03:43+00:00</time>
        <ele>2827.0</ele>
      </trkpt>
      <trkpt lat="44.34546" lon="6.92065">
        <time>2023-04-16T09:03:45+00:00</time>
        <ele>2827.0</ele>
      </trkpt>
      <trkpt lat="44.34546" lon="6.92065">
        <time>2023-04-16T09:03:49+00:00</time>
        <ele>2827.0</ele>
      </trkpt>
      <trkpt lat="44.34547" lon="6.92066">
        <time>2023-04-16T09:03:55+00:00</time>
        <ele>2827.0</ele>
      </trkpt>
      <trkpt lat="44.34548" lon="6.92067">
        <time>2023-04-16T09:04:01+00:00</time>
        <ele>2827.0</ele>
      </trkpt>
      <trkpt lat="44.34547" lon="6.92067">
        <time>2023-04-16T09:04:17+00:00</time>
        <ele>2827.0</ele>
      </trkpt>
      <trkpt lat="44.34546" lon="6.92068">
        <time>2023-04-16T09:04:23+00:00</time>
        <ele>2826.0</ele>
      </trkpt>
      <trkpt lat="44.34546" lon="6.92067">
        <time>2023-04-16T09:04:25+00:00</time>
        <ele>2826.0</ele>
      </trkpt>
      <trkpt lat="44.34546" lon="6.92067">
        <time>2023-04-16T09:04:28+00:00</time>
        <ele>2826.0</ele>
      </trkpt>
      <trkpt lat="44.34545" lon="6.92066">
        <time>2023-04-16T09:04:34+00:00</time>
        <ele>2826.0</ele>
      </trkpt>
      <trkpt lat="44.34546" lon="6.92067">
        <time>2023-04-16T09:04:36+00:00</time>
        <ele>2826.0</ele>
      </trkpt>
      <trkpt lat="44.34545" lon="6.92066">
        <time>2023-04-16T09:04:39+00:00</time>
        <ele>2826.0</ele>
      </trkpt>
      <trkpt lat="44.34545" lon="6.92066">
        <time>2023-04-16T09:04:47+00:00</time>
        <ele>2826.0</ele>
      </trkpt>
      <trkpt lat="44.34545" lon="6.92066">
        <time>2023-04-16T09:04:48+00:00</time>
        <ele>2826.0</ele>
      </trkpt>
      <trkpt lat="44.34545" lon="6.92066">
        <time>2023-04-16T09:04:50+00:00</time>
        <ele>2826.0</ele>
      </trkpt>
      <trkpt lat="44.34545" lon="6.92064">
        <time>2023-04-16T09:04:57+00:00</time>
        <ele>2826.0</ele>
      </trkpt>
      <trkpt lat="44.34545" lon="6.92064">
        <time>2023-04-16T09:05:01+00:00</time>
        <ele>2826.0</ele>
      </trkpt>
      <trkpt lat="44.34544" lon="6.92064">
        <time>2023-04-16T09:05:13+00:00</time>
        <ele>2826.0</ele>
      </trkpt>
      <trkpt lat="44.34545" lon="6.92063">
        <time>2023-04-16T09:05:18+00:00</time>
        <ele>2826.0</ele>
      </trkpt>
      <trkpt lat="44.34545" lon="6.92064">
        <time>2023-04-16T09:05:27+00:00</time>
        <ele>2826.0</ele>
      </trkpt>
      <trkpt lat="44.34545" lon="6.92064">
        <time>2023-04-16T09:05:32+00:00</time>
        <ele>2826.0</ele>
      </trkpt>
      <trkpt lat="44.34546" lon="6.92066">
        <time>2023-04-16T09:05:42+00:00</time>
        <ele>2827.0</ele>
      </trkpt>
      <trkpt lat="44.34546" lon="6.92066">
        <time>2023-04-16T09:05:45+00:00</time>
        <ele>2827.0</ele>
      </trkpt>
      <trkpt lat="44.34546" lon="6.92065">
        <time>2023-04-16T09:05:46+00:00</time>
        <ele>2827.0</ele>
      </trkpt>
      <trkpt lat="44.34545" lon="6.92065">
        <time>2023-04-16T09:05:47+00:00</time>
        <ele>2827.0</ele>
      </trkpt>
      <trkpt lat="44.34545" lon="6.92065">
        <time>2023-04-16T09:05:48+00:00</time>
        <ele>2827.0</ele>
      </trkpt>
      <trkpt lat="44.34546" lon="6.92065">
        <time>2023-04-16T09:05:54+00:00</time>
        <ele>2827.0</ele>
      </trkpt>
      <trkpt lat="44.34546" lon="6.92066">
        <time>2023-04-16T09:05:58+00:00</time>
        <ele>2827.0</ele>
      </trkpt>
      <trkpt lat="44.34546" lon="6.92067">
        <time>2023-04-16T09:06:04+00:00</time>
        <ele>2826.0</ele>
      </trkpt>
      <trkpt lat="44.34546" lon="6.92067">
        <time>2023-04-16T09:06:08+00:00</time>
        <ele>2826.0</ele>
      </trkpt>
      <trkpt lat="44.34546" lon="6.92066">
        <time>2023-04-16T09:06:21+00:00</time>
        <ele>2827.0</ele>
      </trkpt>
      <trkpt lat="44.34547" lon="6.92066">
        <time>2023-04-16T09:07:00+00:00</time>
        <ele>2827.0</ele>
      </trkpt>
      <trkpt lat="44.34547" lon="6.92066">
        <time>2023-04-16T09:07:14+00:00</time>
        <ele>2827.0</ele>
      </trkpt>
      <trkpt lat="44.34546" lon="6.92066">
        <time>2023-04-16T09:07:20+00:00</time>
        <ele>2827.0</ele>
      </trkpt>
      <trkpt lat="44.34546" lon="6.92066">
        <time>2023-04-16T09:07:21+00:00</time>
        <ele>2827.0</ele>
      </trkpt>
      <trkpt lat="44.34545" lon="6.92068">
        <time>2023-04-16T09:07:29+00:00</time>
        <ele>2826.0</ele>
      </trkpt>
      <trkpt lat="44.34545" lon="6.92069">
        <time>2023-04-16T09:07:34+00:00</time>
        <ele>2826.0</ele>
      </trkpt>
      <trkpt lat="44.34545" lon="6.92069">
        <time>2023-04-16T09:07:36+00:00</time>
        <ele>2826.0</ele>
      </trkpt>
      <trkpt lat="44.34545" lon="6.92069">
        <time>2023-04-16T09:07:39+00:00</time>
        <ele>2826.0</ele>
      </trkpt>
      <trkpt lat="44.34545" lon="6.92069">
        <time>2023-04-16T09:07:42+00:00</time>
        <ele>2826.0</ele>
      </trkpt>
      <trkpt lat="44.34546" lon="6.92067">
        <time>2023-04-16T09:07:47+00:00</time>
        <ele>2826.0</ele>
      </trkpt>
      <trkpt lat="44.34546" lon="6.92067">
        <time>2023-04-16T09:07:50+00:00</time>
        <ele>2826.0</ele>
      </trkpt>
      <trkpt lat="44.34546" lon="6.92066">
        <time>2023-04-16T09:07:52+00:00</time>
        <ele>2827.0</ele>
      </trkpt>
      <trkpt lat="44.34546" lon="6.92067">
        <time>2023-04-16T09:07:56+00:00</time>
        <ele>2826.0</ele>
      </trkpt>
      <trkpt lat="44.34546" lon="6.92067">
        <time>2023-04-16T09:07:57+00:00</time>
        <ele>2826.0</ele>
      </trkpt>
      <trkpt lat="44.34546" lon="6.92067">
        <time>2023-04-16T09:08:02+00:00</time>
        <ele>2826.0</ele>
      </trkpt>
      <trkpt lat="44.34546" lon="6.92067">
        <time>2023-04-16T09:08:03+00:00</time>
        <ele>2826.0</ele>
      </trkpt>
      <trkpt lat="44.34547" lon="6.92068">
        <time>2023-04-16T09:08:05+00:00</time>
        <ele>2826.0</ele>
      </trkpt>
      <trkpt lat="44.34547" lon="6.92068">
        <time>2023-04-16T09:08:06+00:00</time>
        <ele>2826.0</ele>
      </trkpt>
      <trkpt lat="44.34547" lon="6.92068">
        <time>2023-04-16T09:08:07+00:00</time>
        <ele>2826.0</ele>
      </trkpt>
      <trkpt lat="44.34547" lon="6.92068">
        <time>2023-04-16T09:08:10+00:00</time>
        <ele>2826.0</ele>
      </trkpt>
      <trkpt lat="44.34547" lon="6.92069">
        <time>2023-04-16T09:08:11+00:00</time>
        <ele>2826.0</ele>
      </trkpt>
      <trkpt lat="44.34547" lon="6.92069">
        <time>2023-04-16T09:08:15+00:00</time>
        <ele>2826.0</ele>
      </trkpt>
      <trkpt lat="44.34547" lon="6.92068">
        <time>2023-04-16T09:08:19+00:00</time>
        <ele>2826.0</ele>
      </trkpt>
      <trkpt lat="44.34547" lon="6.92067">
        <time>2023-04-16T09:08:22+00:00</time>
        <ele>2827.0</ele>
      </trkpt>
      <trkpt lat="44.34547" lon="6.92066">
        <time>2023-04-16T09:08:30+00:00</time>
        <ele>2827.0</ele>
      </trkpt>
      <trkpt lat="44.34548" lon="6.92068">
        <time>2023-04-16T09:08:47+00:00</time>
        <ele>2827.0</ele>
      </trkpt>
      <trkpt lat="44.34548" lon="6.92068">
        <time>2023-04-16T09:08:53+00:00</time>
        <ele>2827.0</ele>
      </trkpt>
      <trkpt lat="44.34548" lon="6.92067">
        <time>2023-04-16T09:09:35+00:00</time>
        <ele>2827.0</ele>
      </trkpt>
      <trkpt lat="44.34548" lon="6.92066">
        <time>2023-04-16T09:09:41+00:00</time>
        <ele>2827.0</ele>
      </trkpt>
      <trkpt lat="44.34547" lon="6.92066">
        <time>2023-04-16T09:09:50+00:00</time>
        <ele>2827.0</ele>
      </trkpt>
      <trkpt lat="44.34547" lon="6.92066">
        <time>2023-04-16T09:09:53+00:00</time>
        <ele>2827.0</ele>
      </trkpt>
      <trkpt lat="44.34547" lon="6.92066">
        <time>2023-04-16T09:10:03+00:00</time>
        <ele>2827.0</ele>
      </trkpt>
      <trkpt lat="44.34546" lon="6.92067">
        <time>2023-04-16T09:10:35+00:00</time>
        <ele>2826.0</ele>
      </trkpt>
      <trkpt lat="44.34546" lon="6.92067">
        <time>2023-04-16T09:10:37+00:00</time>
        <ele>2826.0</ele>
      </trkpt>
      <trkpt lat="44.34546" lon="6.92068">
        <time>2023-04-16T09:10:46+00:00</time>
        <ele>2826.0</ele>
      </trkpt>
      <trkpt lat="44.34547" lon="6.92069">
        <time>2023-04-16T09:10:52+00:00</time>
        <ele>2826.0</ele>
      </trkpt>
      <trkpt lat="44.34547" lon="6.92069">
        <time>2023-04-16T09:10:59+00:00</time>
        <ele>2826.0</ele>
      </trkpt>
      <trkpt lat="44.34547" lon="6.92069">
        <time>2023-04-16T09:11:18+00:00</time>
        <ele>2826.0</ele>
      </trkpt>
      <trkpt lat="44.34547" lon="6.92069">
        <time>2023-04-16T09:11:30+00:00</time>
        <ele>2826.0</ele>
      </trkpt>
      <trkpt lat="44.34546" lon="6.92068">
        <time>2023-04-16T09:11:42+00:00</time>
        <ele>2826.0</ele>
      </trkpt>
      <trkpt lat="44.34546" lon="6.92068">
        <time>2023-04-16T09:11:51+00:00</time>
        <ele>2826.0</ele>
      </trkpt>
      <trkpt lat="44.34546" lon="6.92068">
        <time>2023-04-16T09:11:59+00:00</time>
        <ele>2826.0</ele>
      </trkpt>
      <trkpt lat="44.34546" lon="6.92068">
        <time>2023-04-16T09:12:07+00:00</time>
        <ele>2826.0</ele>
      </trkpt>
      <trkpt lat="44.34546" lon="6.92068">
        <time>2023-04-16T09:12:34+00:00</time>
        <ele>2826.0</ele>
      </trkpt>
      <trkpt lat="44.34546" lon="6.92068">
        <time>2023-04-16T09:12:48+00:00</time>
        <ele>2826.0</ele>
      </trkpt>
      <trkpt lat="44.34546" lon="6.92068">
        <time>2023-04-16T09:13:01+00:00</time>
        <ele>2826.0</ele>
      </trkpt>
      <trkpt lat="44.34546" lon="6.92068">
        <time>2023-04-16T09:13:11+00:00</time>
        <ele>2826.0</ele>
      </trkpt>
      <trkpt lat="44.34546" lon="6.92068">
        <time>2023-04-16T09:13:17+00:00</time>
        <ele>2826.0</ele>
      </trkpt>
      <trkpt lat="44.34546" lon="6.92068">
        <time>2023-04-16T09:13:35+00:00</time>
        <ele>2826.0</ele>
      </trkpt>
      <trkpt lat="44.34547" lon="6.92068">
        <time>2023-04-16T09:13:43+00:00</time>
        <ele>2826.0</ele>
      </trkpt>
      <trkpt lat="44.34547" lon="6.92068">
        <time>2023-04-16T09:13:51+00:00</time>
        <ele>2826.0</ele>
      </trkpt>
      <trkpt lat="44.34547" lon="6.92068">
        <time>2023-04-16T09:14:35+00:00</time>
        <ele>2826.0</ele>
      </trkpt>
      <trkpt lat="44.34547" lon="6.92067">
        <time>2023-04-16T09:14:46+00:00</time>
        <ele>2827.0</ele>
      </trkpt>
      <trkpt lat="44.34547" lon="6.92067">
        <time>2023-04-16T09:14:55+00:00</time>
        <ele>2827.0</ele>
      </trkpt>
      <trkpt lat="44.34547" lon="6.92067">
        <time>2023-04-16T09:15:11+00:00</time>
        <ele>2827.0</ele>
      </trkpt>
      <trkpt lat="44.34547" lon="6.92068">
        <time>2023-04-16T09:15:27+00:00</time>
        <ele>2826.0</ele>
      </trkpt>
      <trkpt lat="44.34547" lon="6.92068">
        <time>2023-04-16T09:15:31+00:00</time>
        <ele>2826.0</ele>
      </trkpt>
      <trkpt lat="44.34547" lon="6.92068">
        <time>2023-04-16T09:15:36+00:00</time>
        <ele>2826.0</ele>
      </trkpt>
      <trkpt lat="44.34547" lon="6.92068">
        <time>2023-04-16T09:15:52+00:00</time>
        <ele>2826.0</ele>
      </trkpt>
      <trkpt lat="44.34547" lon="6.92068">
        <time>2023-04-16T09:15:54+00:00</time>
        <ele>2826.0</ele>
      </trkpt>
      <trkpt lat="44.34547" lon="6.92068">
        <time>2023-04-16T09:15:56+00:00</time>
        <ele>2826.0</ele>
      </trkpt>
      <trkpt lat="44.34547" lon="6.92068">
        <time>2023-04-16T09:15:57+00:00</time>
        <ele>2826.0</ele>
      </trkpt>
      <trkpt lat="44.34548" lon="6.92068">
        <time>2023-04-16T09:16:03+00:00</time>
        <ele>2827.0</ele>
      </trkpt>
      <trkpt lat="44.34548" lon="6.92068">
        <time>2023-04-16T09:16:04+00:00</time>
        <ele>2827.0</ele>
      </trkpt>
      <trkpt lat="44.34548" lon="6.92068">
        <time>2023-04-16T09:16:09+00:00</time>
        <ele>2827.0</ele>
      </trkpt>
      <trkpt lat="44.34548" lon="6.92068">
        <time>2023-04-16T09:16:15+00:00</time>
        <ele>2827.0</ele>
      </trkpt>
      <trkpt lat="44.34548" lon="6.92068">
        <time>2023-04-16T09:16:21+00:00</time>
        <ele>2827.0</ele>
      </trkpt>
      <trkpt lat="44.34548" lon="6.92068">
        <time>2023-04-16T09:16:25+00:00</time>
        <ele>2827.0</ele>
      </trkpt>
      <trkpt lat="44.34548" lon="6.92068">
        <time>2023-04-16T09:16:26+00:00</time>
        <ele>2827.0</ele>
      </trkpt>
      <trkpt lat="44.34548" lon="6.92068">
        <time>2023-04-16T09:16:29+00:00</time>
        <ele>2827.0</ele>
      </trkpt>
      <trkpt lat="44.34549" lon="6.92068">
        <time>2023-04-16T09:16:30+00:00</time>
        <ele>2827.0</ele>
      </trkpt>
      <trkpt lat="44.34549" lon="6.92068">
        <time>2023-04-16T09:16:31+00:00</time>
        <ele>2827.0</ele>
      </trkpt>
      <trkpt lat="44.3455" lon="6.92069">
        <time>2023-04-16T09:16:32+00:00</time>
        <ele>2827.0</ele>
      </trkpt>
      <trkpt lat="44.3455" lon="6.92069">
        <time>2023-04-16T09:16:33+00:00</time>
        <ele>2827.0</ele>
      </trkpt>
      <trkpt lat="44.3455" lon="6.92069">
        <time>2023-04-16T09:16:34+00:00</time>
        <ele>2827.0</ele>
      </trkpt>
      <trkpt lat="44.3455" lon="6.92069">
        <time>2023-04-16T09:16:35+00:00</time>
        <ele>2827.0</ele>
      </trkpt>
      <trkpt lat="44.3455" lon="6.92069">
        <time>2023-04-16T09:16:36+00:00</time>
        <ele>2827.0</ele>
      </trkpt>
      <trkpt lat="44.34551" lon="6.92069">
        <time>2023-04-16T09:16:37+00:00</time>
        <ele>2827.0</ele>
      </trkpt>
      <trkpt lat="44.34551" lon="6.9207">
        <time>2023-04-16T09:16:40+00:00</time>
        <ele>2827.0</ele>
      </trkpt>
      <trkpt lat="44.34551" lon="6.9207">
        <time>2023-04-16T09:16:43+00:00</time>
        <ele>2827.0</ele>
      </trkpt>
      <trkpt lat="44.34551" lon="6.9207">
        <time>2023-04-16T09:16:49+00:00</time>
        <ele>2827.0</ele>
      </trkpt>
      <trkpt lat="44.34551" lon="6.9207">
        <time>2023-04-16T09:16:53+00:00</time>
        <ele>2827.0</ele>
      </trkpt>
      <trkpt lat="44.34551" lon="6.9207">
        <time>2023-04-16T09:16:56+00:00</time>
        <ele>2827.0</ele>
      </trkpt>
      <trkpt lat="44.34551" lon="6.9207">
        <time>2023-04-16T09:17:17+00:00</time>
        <ele>2827.0</ele>
      </trkpt>
      <trkpt lat="44.34551" lon="6.9207">
        <time>2023-04-16T09:17:26+00:00</time>
        <ele>2827.0</ele>
      </trkpt>
      <trkpt lat="44.34551" lon="6.9207">
        <time>2023-04-16T09:17:28+00:00</time>
        <ele>2827.0</ele>
      </trkpt>
      <trkpt lat="44.34551" lon="6.9207">
        <time>2023-04-16T09:17:34+00:00</time>
        <ele>2827.0</ele>
      </trkpt>
      <trkpt lat="44.34551" lon="6.9207">
        <time>2023-04-16T09:17:40+00:00</time>
        <ele>2827.0</ele>
      </trkpt>
      <trkpt lat="44.34551" lon="6.9207">
        <time>2023-04-16T09:17:43+00:00</time>
        <ele>2827.0</ele>
      </trkpt>
      <trkpt lat="44.34551" lon="6.9207">
        <time>2023-04-16T09:17:48+00:00</time>
        <ele>2827.0</ele>
      </trkpt>
      <trkpt lat="44.34551" lon="6.9207">
        <time>2023-04-16T09:18:00+00:00</time>
        <ele>2827.0</ele>
      </trkpt>
      <trkpt lat="44.34551" lon="6.9207">
        <time>2023-04-16T09:18:07+00:00</time>
        <ele>2827.0</ele>
      </trkpt>
      <trkpt lat="44.34551" lon="6.9207">
        <time>2023-04-16T09:18:16+00:00</time>
        <ele>2827.0</ele>
      </trkpt>
      <trkpt lat="44.34551" lon="6.9207">
        <time>2023-04-16T09:18:26+00:00</time>
        <ele>2827.0</ele>
      </trkpt>
      <trkpt lat="44.34551" lon="6.9207">
        <time>2023-04-16T09:18:35+00:00</time>
        <ele>2827.0</ele>
      </trkpt>
      <trkpt lat="44.34551" lon="6.92069">
        <time>2023-04-16T09:18:42+00:00</time>
        <ele>2827.0</ele>
      </trkpt>
      <trkpt lat="44.34551" lon="6.92069">
        <time>2023-04-16T09:18:50+00:00</time>
        <ele>2827.0</ele>
      </trkpt>
      <trkpt lat="44.34551" lon="6.9207">
        <time>2023-04-16T09:19:07+00:00</time>
        <ele>2827.0</ele>
      </trkpt>
      <trkpt lat="44.34555" lon="6.92066">
        <time>2023-04-16T09:19:10+00:00</time>
        <ele>2827.0</ele>
      </trkpt>
      <trkpt lat="44.34564" lon="6.92049">
        <time>2023-04-16T09:19:16+00:00</time>
        <ele>2824.0</ele>
      </trkpt>
      <trkpt lat="44.34566" lon="6.92046">
        <time>2023-04-16T09:19:18+00:00</time>
        <ele>2824.0</ele>
      </trkpt>
      <trkpt lat="44.34568" lon="6.92045">
        <time>2023-04-16T09:19:19+00:00</time>
        <ele>2823.0</ele>
      </trkpt>
      <trkpt lat="44.3457" lon="6.92046">
        <time>2023-04-16T09:19:20+00:00</time>
        <ele>2822.0</ele>
      </trkpt>
      <trkpt lat="44.34574" lon="6.92052">
        <time>2023-04-16T09:19:22+00:00</time>
        <ele>2821.0</ele>
      </trkpt>
      <trkpt lat="44.34578" lon="6.92062">
        <time>2023-04-16T09:19:27+00:00</time>
        <ele>2819.0</ele>
      </trkpt>
      <trkpt lat="44.34579" lon="6.92067">
        <time>2023-04-16T09:19:29+00:00</time>
        <ele>2818.0</ele>
      </trkpt>
      <trkpt lat="44.3458" lon="6.92072">
        <time>2023-04-16T09:19:31+00:00</time>
        <ele>2818.0</ele>
      </trkpt>
      <trkpt lat="44.3458" lon="6.92075">
        <time>2023-04-16T09:19:32+00:00</time>
        <ele>2817.0</ele>
      </trkpt>
      <trkpt lat="44.34581" lon="6.92078">
        <time>2023-04-16T09:19:33+00:00</time>
        <ele>2817.0</ele>
      </trkpt>
      <trkpt lat="44.34582" lon="6.92081">
        <time>2023-04-16T09:19:35+00:00</time>
        <ele>2816.0</ele>
      </trkpt>
      <trkpt lat="44.34582" lon="6.92083">
        <time>2023-04-16T09:19:36+00:00</time>
        <ele>2816.0</ele>
      </trkpt>
      <trkpt lat="44.34583" lon="6.92085">
        <time>2023-04-16T09:19:37+00:00</time>
        <ele>2816.0</ele>
      </trkpt>
      <trkpt lat="44.34585" lon="6.92087">
        <time>2023-04-16T09:19:38+00:00</time>
        <ele>2815.0</ele>
      </trkpt>
      <trkpt lat="44.34586" lon="6.92088">
        <time>2023-04-16T09:19:39+00:00</time>
        <ele>2814.0</ele>
      </trkpt>
      <trkpt lat="44.3459" lon="6.92086">
        <time>2023-04-16T09:19:41+00:00</time>
        <ele>2812.0</ele>
      </trkpt>
      <trkpt lat="44.34592" lon="6.92086">
        <time>2023-04-16T09:19:42+00:00</time>
        <ele>2811.0</ele>
      </trkpt>
      <trkpt lat="44.34595" lon="6.92088">
        <time>2023-04-16T09:19:43+00:00</time>
        <ele>2809.0</ele>
      </trkpt>
      <trkpt lat="44.34596" lon="6.92091">
        <time>2023-04-16T09:19:44+00:00</time>
        <ele>2808.0</ele>
      </trkpt>
      <trkpt lat="44.34598" lon="6.92094">
        <time>2023-04-16T09:19:45+00:00</time>
        <ele>2807.0</ele>
      </trkpt>
      <trkpt lat="44.34599" lon="6.92096">
        <time>2023-04-16T09:19:46+00:00</time>
        <ele>2807.0</ele>
      </trkpt>
      <trkpt lat="44.346" lon="6.92096">
        <time>2023-04-16T09:19:47+00:00</time>
        <ele>2806.0</ele>
      </trkpt>
      <trkpt lat="44.34603" lon="6.92091">
        <time>2023-04-16T09:19:49+00:00</time>
        <ele>2804.0</ele>
      </trkpt>
      <trkpt lat="44.34604" lon="6.92088">
        <time>2023-04-16T09:19:50+00:00</time>
        <ele>2803.0</ele>
      </trkpt>
      <trkpt lat="44.34605" lon="6.92083">
        <time>2023-04-16T09:19:52+00:00</time>
        <ele>2803.0</ele>
      </trkpt>
      <trkpt lat="44.34606" lon="6.92077">
        <time>2023-04-16T09:19:54+00:00</time>
        <ele>2802.0</ele>
      </trkpt>
      <trkpt lat="44.34607" lon="6.92072">
        <time>2023-04-16T09:19:56+00:00</time>
        <ele>2801.0</ele>
      </trkpt>
      <trkpt lat="44.34609" lon="6.92061">
        <time>2023-04-16T09:20:00+00:00</time>
        <ele>2799.0</ele>
      </trkpt>
      <trkpt lat="44.34609" lon="6.92058">
        <time>2023-04-16T09:20:02+00:00</time>
        <ele>2799.0</ele>
      </trkpt>
      <trkpt lat="44.34609" lon="6.92058">
        <time>2023-04-16T09:20:03+00:00</time>
        <ele>2799.0</ele>
      </trkpt>
      <trkpt lat="44.34609" lon="6.92058">
        <time>2023-04-16T09:20:05+00:00</time>
        <ele>2799.0</ele>
      </trkpt>
      <trkpt lat="44.34612" lon="6.92052">
        <time>2023-04-16T09:20:11+00:00</time>
        <ele>2797.0</ele>
      </trkpt>
      <trkpt lat="44.34615" lon="6.92048">
        <time>2023-04-16T09:20:14+00:00</time>
        <ele>2795.0</ele>
      </trkpt>
      <trkpt lat="44.34616" lon="6.92049">
        <time>2023-04-16T09:20:15+00:00</time>
        <ele>2794.0</ele>
      </trkpt>
      <trkpt lat="44.34618" lon="6.92051">
        <time>2023-04-16T09:20:16+00:00</time>
        <ele>2793.0</ele>
      </trkpt>
      <trkpt lat="44.34619" lon="6.92053">
        <time>2023-04-16T09:20:18+00:00</time>
        <ele>2793.0</ele>
      </trkpt>
      <trkpt lat="44.3462" lon="6.92056">
        <time>2023-04-16T09:20:20+00:00</time>
        <ele>2793.0</ele>
      </trkpt>
      <trkpt lat="44.34622" lon="6.92059">
        <time>2023-04-16T09:20:22+00:00</time>
        <ele>2792.0</ele>
      </trkpt>
      <trkpt lat="44.34624" lon="6.92064">
        <time>2023-04-16T09:20:25+00:00</time>
        <ele>2791.0</ele>
      </trkpt>
      <trkpt lat="44.34625" lon="6.92066">
        <time>2023-04-16T09:20:27+00:00</time>
        <ele>2791.0</ele>
      </trkpt>
      <trkpt lat="44.34626" lon="6.92068">
        <time>2023-04-16T09:20:30+00:00</time>
        <ele>2790.0</ele>
      </trkpt>
      <trkpt lat="44.34626" lon="6.92068">
        <time>2023-04-16T09:20:31+00:00</time>
        <ele>2790.0</ele>
      </trkpt>
      <trkpt lat="44.34628" lon="6.92067">
        <time>2023-04-16T09:20:33+00:00</time>
        <ele>2789.0</ele>
      </trkpt>
      <trkpt lat="44.3463" lon="6.92065">
        <time>2023-04-16T09:20:34+00:00</time>
        <ele>2788.0</ele>
      </trkpt>
      <trkpt lat="44.34631" lon="6.92065">
        <time>2023-04-16T09:20:35+00:00</time>
        <ele>2788.0</ele>
      </trkpt>
      <trkpt lat="44.34633" lon="6.92065">
        <time>2023-04-16T09:20:36+00:00</time>
        <ele>2787.0</ele>
      </trkpt>
      <trkpt lat="44.34635" lon="6.92066">
        <time>2023-04-16T09:20:38+00:00</time>
        <ele>2786.0</ele>
      </trkpt>
      <trkpt lat="44.34638" lon="6.92066">
        <time>2023-04-16T09:20:40+00:00</time>
        <ele>2784.0</ele>
      </trkpt>
      <trkpt lat="44.3464" lon="6.92067">
        <time>2023-04-16T09:20:41+00:00</time>
        <ele>2783.0</ele>
      </trkpt>
      <trkpt lat="44.34641" lon="6.92068">
        <time>2023-04-16T09:20:42+00:00</time>
        <ele>2783.0</ele>
      </trkpt>
      <trkpt lat="44.34643" lon="6.92068">
        <time>2023-04-16T09:20:43+00:00</time>
        <ele>2782.0</ele>
      </trkpt>
      <trkpt lat="44.34645" lon="6.92068">
        <time>2023-04-16T09:20:44+00:00</time>
        <ele>2781.0</ele>
      </trkpt>
      <trkpt lat="44.34647" lon="6.92069">
        <time>2023-04-16T09:20:45+00:00</time>
        <ele>2780.0</ele>
      </trkpt>
      <trkpt lat="44.34652" lon="6.92069">
        <time>2023-04-16T09:20:47+00:00</time>
        <ele>2778.0</ele>
      </trkpt>
      <trkpt lat="44.34655" lon="6.92068">
        <time>2023-04-16T09:20:48+00:00</time>
        <ele>2776.0</ele>
      </trkpt>
      <trkpt lat="44.34657" lon="6.92068">
        <time>2023-04-16T09:20:49+00:00</time>
        <ele>2775.0</ele>
      </trkpt>
      <trkpt lat="44.34659" lon="6.92067">
        <time>2023-04-16T09:20:50+00:00</time>
        <ele>2774.0</ele>
      </trkpt>
      <trkpt lat="44.34659" lon="6.92066">
        <time>2023-04-16T09:20:51+00:00</time>
        <ele>2774.0</ele>
      </trkpt>
      <trkpt lat="44.34659" lon="6.92066">
        <time>2023-04-16T09:20:52+00:00</time>
        <ele>2774.0</ele>
      </trkpt>
      <trkpt lat="44.34659" lon="6.92066">
        <time>2023-04-16T09:20:53+00:00</time>
        <ele>2774.0</ele>
      </trkpt>
      <trkpt lat="44.34659" lon="6.92066">
        <time>2023-04-16T09:20:55+00:00</time>
        <ele>2774.0</ele>
      </trkpt>
      <trkpt lat="44.34659" lon="6.92066">
        <time>2023-04-16T09:20:56+00:00</time>
        <ele>2774.0</ele>
      </trkpt>
      <trkpt lat="44.34658" lon="6.92066">
        <time>2023-04-16T09:20:58+00:00</time>
        <ele>2774.0</ele>
      </trkpt>
      <trkpt lat="44.34658" lon="6.92066">
        <time>2023-04-16T09:21:00+00:00</time>
        <ele>2774.0</ele>
      </trkpt>
      <trkpt lat="44.34658" lon="6.92066">
        <time>2023-04-16T09:21:01+00:00</time>
        <ele>2774.0</ele>
      </trkpt>
      <trkpt lat="44.34657" lon="6.92066">
        <time>2023-04-16T09:21:06+00:00</time>
        <ele>2775.0</ele>
      </trkpt>
      <trkpt lat="44.34657" lon="6.92066">
        <time>2023-04-16T09:21:08+00:00</time>
        <ele>2775.0</ele>
      </trkpt>
      <trkpt lat="44.34656" lon="6.92065">
        <time>2023-04-16T09:21:13+00:00</time>
        <ele>2775.0</ele>
      </trkpt>
      <trkpt lat="44.34658" lon="6.92063">
        <time>2023-04-16T09:21:18+00:00</time>
        <ele>2774.0</ele>
      </trkpt>
      <trkpt lat="44.34658" lon="6.92065">
        <time>2023-04-16T09:21:25+00:00</time>
        <ele>2774.0</ele>
      </trkpt>
      <trkpt lat="44.34657" lon="6.92066">
        <time>2023-04-16T09:21:53+00:00</time>
        <ele>2775.0</ele>
      </trkpt>
      <trkpt lat="44.34657" lon="6.92066">
        <time>2023-04-16T09:21:55+00:00</time>
        <ele>2775.0</ele>
      </trkpt>
      <trkpt lat="44.34656" lon="6.92067">
        <time>2023-04-16T09:22:05+00:00</time>
        <ele>2775.0</ele>
      </trkpt>
      <trkpt lat="44.34657" lon="6.92067">
        <time>2023-04-16T09:22:13+00:00</time>
        <ele>2775.0</ele>
      </trkpt>
      <trkpt lat="44.34656" lon="6.92067">
        <time>2023-04-16T09:22:24+00:00</time>
        <ele>2775.0</ele>
      </trkpt>
      <trkpt lat="44.34656" lon="6.92067">
        <time>2023-04-16T09:22:27+00:00</time>
        <ele>2775.0</ele>
      </trkpt>
      <trkpt lat="44.34656" lon="6.92067">
        <time>2023-04-16T09:22:39+00:00</time>
        <ele>2775.0</ele>
      </trkpt>
      <trkpt lat="44.34662" lon="6.92062">
        <time>2023-04-16T09:22:47+00:00</time>
        <ele>2771.0</ele>
      </trkpt>
      <trkpt lat="44.34665" lon="6.92057">
        <time>2023-04-16T09:22:51+00:00</time>
        <ele>2768.0</ele>
      </trkpt>
      <trkpt lat="44.34665" lon="6.92055">
        <time>2023-04-16T09:22:52+00:00</time>
        <ele>2768.0</ele>
      </trkpt>
      <trkpt lat="44.34666" lon="6.92051">
        <time>2023-04-16T09:22:54+00:00</time>
        <ele>2767.0</ele>
      </trkpt>
      <trkpt lat="44.3467" lon="6.92049">
        <time>2023-04-16T09:22:56+00:00</time>
        <ele>2764.0</ele>
      </trkpt>
      <trkpt lat="44.34672" lon="6.92047">
        <time>2023-04-16T09:22:58+00:00</time>
        <ele>2762.0</ele>
      </trkpt>
      <trkpt lat="44.34671" lon="6.92042">
        <time>2023-04-16T09:23:01+00:00</time>
        <ele>2761.0</ele>
      </trkpt>
      <trkpt lat="44.34672" lon="6.92039">
        <time>2023-04-16T09:23:03+00:00</time>
        <ele>2760.0</ele>
      </trkpt>
      <trkpt lat="44.34675" lon="6.92038">
        <time>2023-04-16T09:23:05+00:00</time>
        <ele>2758.0</ele>
      </trkpt>
      <trkpt lat="44.34675" lon="6.92038">
        <time>2023-04-16T09:23:06+00:00</time>
        <ele>2758.0</ele>
      </trkpt>
      <trkpt lat="44.34677" lon="6.92037">
        <time>2023-04-16T09:23:08+00:00</time>
        <ele>2756.0</ele>
      </trkpt>
      <trkpt lat="44.34678" lon="6.92037">
        <time>2023-04-16T09:23:09+00:00</time>
        <ele>2756.0</ele>
      </trkpt>
      <trkpt lat="44.34678" lon="6.92035">
        <time>2023-04-16T09:23:10+00:00</time>
        <ele>2755.0</ele>
      </trkpt>
      <trkpt lat="44.34678" lon="6.92031">
        <time>2023-04-16T09:23:12+00:00</time>
        <ele>2754.0</ele>
      </trkpt>
      <trkpt lat="44.34678" lon="6.9203">
        <time>2023-04-16T09:23:13+00:00</time>
        <ele>2754.0</ele>
      </trkpt>
      <trkpt lat="44.3468" lon="6.92029">
        <time>2023-04-16T09:23:15+00:00</time>
        <ele>2752.0</ele>
      </trkpt>
      <trkpt lat="44.34684" lon="6.9203">
        <time>2023-04-16T09:23:17+00:00</time>
        <ele>2750.0</ele>
      </trkpt>
      <trkpt lat="44.34686" lon="6.92029">
        <time>2023-04-16T09:23:19+00:00</time>
        <ele>2748.0</ele>
      </trkpt>
      <trkpt lat="44.34685" lon="6.9202">
        <time>2023-04-16T09:23:21+00:00</time>
        <ele>2746.0</ele>
      </trkpt>
      <trkpt lat="44.34684" lon="6.92017">
        <time>2023-04-16T09:23:22+00:00</time>
        <ele>2746.0</ele>
      </trkpt>
      <trkpt lat="44.34685" lon="6.92014">
        <time>2023-04-16T09:23:23+00:00</time>
        <ele>2744.0</ele>
      </trkpt>
      <trkpt lat="44.3469" lon="6.92016">
        <time>2023-04-16T09:23:25+00:00</time>
        <ele>2741.0</ele>
      </trkpt>
      <trkpt lat="44.34691" lon="6.92014">
        <time>2023-04-16T09:23:26+00:00</time>
        <ele>2740.0</ele>
      </trkpt>
      <trkpt lat="44.34693" lon="6.92012">
        <time>2023-04-16T09:23:27+00:00</time>
        <ele>2737.0</ele>
      </trkpt>
      <trkpt lat="44.34696" lon="6.92012">
        <time>2023-04-16T09:23:28+00:00</time>
        <ele>2735.0</ele>
      </trkpt>
      <trkpt lat="44.34699" lon="6.92013">
        <time>2023-04-16T09:23:29+00:00</time>
        <ele>2733.0</ele>
      </trkpt>
      <trkpt lat="44.347" lon="6.92015">
        <time>2023-04-16T09:23:30+00:00</time>
        <ele>2732.0</ele>
      </trkpt>
      <trkpt lat="44.347" lon="6.92015">
        <time>2023-04-16T09:23:31+00:00</time>
        <ele>2732.0</ele>
      </trkpt>
      <trkpt lat="44.34701" lon="6.92015">
        <time>2023-04-16T09:23:32+00:00</time>
        <ele>2731.0</ele>
      </trkpt>
      <trkpt lat="44.34702" lon="6.92013">
        <time>2023-04-16T09:23:33+00:00</time>
        <ele>2730.0</ele>
      </trkpt>
      <trkpt lat="44.34704" lon="6.92005">
        <time>2023-04-16T09:23:35+00:00</time>
        <ele>2727.0</ele>
      </trkpt>
      <trkpt lat="44.34704" lon="6.92">
        <time>2023-04-16T09:23:36+00:00</time>
        <ele>2726.0</ele>
      </trkpt>
      <trkpt lat="44.34705" lon="6.91997">
        <time>2023-04-16T09:23:37+00:00</time>
        <ele>2724.0</ele>
      </trkpt>
      <trkpt lat="44.34705" lon="6.91994">
        <time>2023-04-16T09:23:38+00:00</time>
        <ele>2723.0</ele>
      </trkpt>
      <trkpt lat="44.34706" lon="6.91992">
        <time>2023-04-16T09:23:39+00:00</time>
        <ele>2722.0</ele>
      </trkpt>
      <trkpt lat="44.34708" lon="6.91991">
        <time>2023-04-16T09:23:40+00:00</time>
        <ele>2720.0</ele>
      </trkpt>
      <trkpt lat="44.3471" lon="6.91993">
        <time>2023-04-16T09:23:41+00:00</time>
        <ele>2719.0</ele>
      </trkpt>
      <trkpt lat="44.34715" lon="6.91997">
        <time>2023-04-16T09:23:43+00:00</time>
        <ele>2716.0</ele>
      </trkpt>
      <trkpt lat="44.34718" lon="6.91995">
        <time>2023-04-16T09:23:44+00:00</time>
        <ele>2713.0</ele>
      </trkpt>
      <trkpt lat="44.3472" lon="6.91991">
        <time>2023-04-16T09:23:45+00:00</time>
        <ele>2711.0</ele>
      </trkpt>
      <trkpt lat="44.34724" lon="6.91991">
        <time>2023-04-16T09:23:46+00:00</time>
        <ele>2707.0</ele>
      </trkpt>
      <trkpt lat="44.34728" lon="6.91995">
        <time>2023-04-16T09:23:47+00:00</time>
        <ele>2705.0</ele>
      </trkpt>
      <trkpt lat="44.34731" lon="6.91998">
        <time>2023-04-16T09:23:48+00:00</time>
        <ele>2704.0</ele>
      </trkpt>
      <trkpt lat="44.34735" lon="6.92">
        <time>2023-04-16T09:23:49+00:00</time>
        <ele>2701.0</ele>
      </trkpt>
      <trkpt lat="44.34737" lon="6.92">
        <time>2023-04-16T09:23:50+00:00</time>
        <ele>2700.0</ele>
      </trkpt>
      <trkpt lat="44.3474" lon="6.91999">
        <time>2023-04-16T09:23:51+00:00</time>
        <ele>2698.0</ele>
      </trkpt>
      <trkpt lat="44.34743" lon="6.91998">
        <time>2023-04-16T09:23:52+00:00</time>
        <ele>2696.0</ele>
      </trkpt>
      <trkpt lat="44.34746" lon="6.91997">
        <time>2023-04-16T09:23:53+00:00</time>
        <ele>2693.0</ele>
      </trkpt>
      <trkpt lat="44.3475" lon="6.91997">
        <time>2023-04-16T09:23:54+00:00</time>
        <ele>2692.0</ele>
      </trkpt>
      <trkpt lat="44.34753" lon="6.91997">
        <time>2023-04-16T09:23:55+00:00</time>
        <ele>2690.0</ele>
      </trkpt>
      <trkpt lat="44.34755" lon="6.91997">
        <time>2023-04-16T09:23:56+00:00</time>
        <ele>2690.0</ele>
      </trkpt>
      <trkpt lat="44.34755" lon="6.91995">
        <time>2023-04-16T09:23:57+00:00</time>
        <ele>2689.0</ele>
      </trkpt>
      <trkpt lat="44.34754" lon="6.91995">
        <time>2023-04-16T09:23:58+00:00</time>
        <ele>2690.0</ele>
      </trkpt>
      <trkpt lat="44.34754" lon="6.91994">
        <time>2023-04-16T09:23:59+00:00</time>
        <ele>2690.0</ele>
      </trkpt>
      <trkpt lat="44.34753" lon="6.91994">
        <time>2023-04-16T09:24:00+00:00</time>
        <ele>2690.0</ele>
      </trkpt>
      <trkpt lat="44.34749" lon="6.91993">
        <time>2023-04-16T09:24:19+00:00</time>
        <ele>2691.0</ele>
      </trkpt>
      <trkpt lat="44.3475" lon="6.91993">
        <time>2023-04-16T09:24:24+00:00</time>
        <ele>2691.0</ele>
      </trkpt>
      <trkpt lat="44.3475" lon="6.91993">
        <time>2023-04-16T09:24:25+00:00</time>
        <ele>2691.0</ele>
      </trkpt>
      <trkpt lat="44.3475" lon="6.91993">
        <time>2023-04-16T09:24:26+00:00</time>
        <ele>2691.0</ele>
      </trkpt>
      <trkpt lat="44.3475" lon="6.91992">
        <time>2023-04-16T09:24:27+00:00</time>
        <ele>2691.0</ele>
      </trkpt>
      <trkpt lat="44.34751" lon="6.91989">
        <time>2023-04-16T09:24:31+00:00</time>
        <ele>2690.0</ele>
      </trkpt>
      <trkpt lat="44.3475" lon="6.91985">
        <time>2023-04-16T09:24:33+00:00</time>
        <ele>2689.0</ele>
      </trkpt>
      <trkpt lat="44.34753" lon="6.91977">
        <time>2023-04-16T09:24:35+00:00</time>
        <ele>2687.0</ele>
      </trkpt>
      <trkpt lat="44.34766" lon="6.91972">
        <time>2023-04-16T09:24:37+00:00</time>
        <ele>2682.0</ele>
      </trkpt>
      <trkpt lat="44.34774" lon="6.91972">
        <time>2023-04-16T09:24:38+00:00</time>
        <ele>2680.0</ele>
      </trkpt>
      <trkpt lat="44.34783" lon="6.91973">
        <time>2023-04-16T09:24:39+00:00</time>
        <ele>2678.0</ele>
      </trkpt>
      <trkpt lat="44.34792" lon="6.91974">
        <time>2023-04-16T09:24:40+00:00</time>
        <ele>2677.0</ele>
      </trkpt>
      <trkpt lat="44.34798" lon="6.91973">
        <time>2023-04-16T09:24:41+00:00</time>
        <ele>2677.0</ele>
      </trkpt>
      <trkpt lat="44.34803" lon="6.91973">
        <time>2023-04-16T09:24:42+00:00</time>
        <ele>2676.0</ele>
      </trkpt>
      <trkpt lat="44.3481" lon="6.91969">
        <time>2023-04-16T09:24:44+00:00</time>
        <ele>2676.0</ele>
      </trkpt>
      <trkpt lat="44.3481" lon="6.91957">
        <time>2023-04-16T09:24:49+00:00</time>
        <ele>2674.0</ele>
      </trkpt>
      <trkpt lat="44.3481" lon="6.91956">
        <time>2023-04-16T09:24:50+00:00</time>
        <ele>2674.0</ele>
      </trkpt>
      <trkpt lat="44.34809" lon="6.91954">
        <time>2023-04-16T09:24:56+00:00</time>
        <ele>2674.0</ele>
      </trkpt>
      <trkpt lat="44.34802" lon="6.91953">
        <time>2023-04-16T09:25:03+00:00</time>
        <ele>2674.0</ele>
      </trkpt>
      <trkpt lat="44.34798" lon="6.91954">
        <time>2023-04-16T09:25:06+00:00</time>
        <ele>2674.0</ele>
      </trkpt>
      <trkpt lat="44.34797" lon="6.91953">
        <time>2023-04-16T09:25:07+00:00</time>
        <ele>2674.0</ele>
      </trkpt>
      <trkpt lat="44.34808" lon="6.91958">
        <time>2023-04-16T09:25:26+00:00</time>
        <ele>2675.0</ele>
      </trkpt>
      <trkpt lat="44.34809" lon="6.91955">
        <time>2023-04-16T09:25:41+00:00</time>
        <ele>2674.0</ele>
      </trkpt>
      <trkpt lat="44.34811" lon="6.91952">
        <time>2023-04-16T09:25:44+00:00</time>
        <ele>2674.0</ele>
      </trkpt>
      <trkpt lat="44.34813" lon="6.9195">
        <time>2023-04-16T09:25:54+00:00</time>
        <ele>2673.0</ele>
      </trkpt>
      <trkpt lat="44.34815" lon="6.91947">
        <time>2023-04-16T09:26:02+00:00</time>
        <ele>2673.0</ele>
      </trkpt>
      <trkpt lat="44.34821" lon="6.91946">
        <time>2023-04-16T09:26:04+00:00</time>
        <ele>2673.0</ele>
      </trkpt>
      <trkpt lat="44.3483" lon="6.91938">
        <time>2023-04-16T09:26:06+00:00</time>
        <ele>2670.0</ele>
      </trkpt>
      <trkpt lat="44.34835" lon="6.91934">
        <time>2023-04-16T09:26:07+00:00</time>
        <ele>2669.0</ele>
      </trkpt>
      <trkpt lat="44.3484" lon="6.9193">
        <time>2023-04-16T09:26:08+00:00</time>
        <ele>2668.0</ele>
      </trkpt>
      <trkpt lat="44.34847" lon="6.9193">
        <time>2023-04-16T09:26:09+00:00</time>
        <ele>2666.0</ele>
      </trkpt>
      <trkpt lat="44.34854" lon="6.91931">
        <time>2023-04-16T09:26:10+00:00</time>
        <ele>2665.0</ele>
      </trkpt>
      <trkpt lat="44.3486" lon="6.91933">
        <time>2023-04-16T09:26:11+00:00</time>
        <ele>2664.0</ele>
      </trkpt>
      <trkpt lat="44.34866" lon="6.91934">
        <time>2023-04-16T09:26:12+00:00</time>
        <ele>2662.0</ele>
      </trkpt>
      <trkpt lat="44.34873" lon="6.91933">
        <time>2023-04-16T09:26:13+00:00</time>
        <ele>2660.0</ele>
      </trkpt>
      <trkpt lat="44.34879" lon="6.91931">
        <time>2023-04-16T09:26:14+00:00</time>
        <ele>2657.0</ele>
      </trkpt>
      <trkpt lat="44.34885" lon="6.91929">
        <time>2023-04-16T09:26:15+00:00</time>
        <ele>2656.0</ele>
      </trkpt>
      <trkpt lat="44.3489" lon="6.91926">
        <time>2023-04-16T09:26:16+00:00</time>
        <ele>2656.0</ele>
      </trkpt>
      <trkpt lat="44.34896" lon="6.91924">
        <time>2023-04-16T09:26:17+00:00</time>
        <ele>2656.0</ele>
      </trkpt>
      <trkpt lat="44.34902" lon="6.91922">
        <time>2023-04-16T09:26:18+00:00</time>
        <ele>2655.0</ele>
      </trkpt>
      <trkpt lat="44.34907" lon="6.91918">
        <time>2023-04-16T09:26:19+00:00</time>
        <ele>2655.0</ele>
      </trkpt>
      <trkpt lat="44.34912" lon="6.91914">
        <time>2023-04-16T09:26:20+00:00</time>
        <ele>2654.0</ele>
      </trkpt>
      <trkpt lat="44.34917" lon="6.9191">
        <time>2023-04-16T09:26:21+00:00</time>
        <ele>2653.0</ele>
      </trkpt>
      <trkpt lat="44.34921" lon="6.91904">
        <time>2023-04-16T09:26:22+00:00</time>
        <ele>2651.0</ele>
      </trkpt>
      <trkpt lat="44.34924" lon="6.91895">
        <time>2023-04-16T09:26:23+00:00</time>
        <ele>2646.0</ele>
      </trkpt>
      <trkpt lat="44.34926" lon="6.91884">
        <time>2023-04-16T09:26:24+00:00</time>
        <ele>2641.0</ele>
      </trkpt>
      <trkpt lat="44.34929" lon="6.91874">
        <time>2023-04-16T09:26:25+00:00</time>
        <ele>2636.0</ele>
      </trkpt>
      <trkpt lat="44.34931" lon="6.91865">
        <time>2023-04-16T09:26:26+00:00</time>
        <ele>2632.0</ele>
      </trkpt>
      <trkpt lat="44.34928" lon="6.91853">
        <time>2023-04-16T09:26:27+00:00</time>
        <ele>2628.0</ele>
      </trkpt>
      <trkpt lat="44.34926" lon="6.91843">
        <time>2023-04-16T09:26:28+00:00</time>
        <ele>2625.0</ele>
      </trkpt>
      <trkpt lat="44.34925" lon="6.91831">
        <time>2023-04-16T09:26:29+00:00</time>
        <ele>2621.0</ele>
      </trkpt>
      <trkpt lat="44.34926" lon="6.9182">
        <time>2023-04-16T09:26:30+00:00</time>
        <ele>2616.0</ele>
      </trkpt>
      <trkpt lat="44.3493" lon="6.91812">
        <time>2023-04-16T09:26:31+00:00</time>
        <ele>2612.0</ele>
      </trkpt>
      <trkpt lat="44.34936" lon="6.91808">
        <time>2023-04-16T09:26:32+00:00</time>
        <ele>2608.0</ele>
      </trkpt>
      <trkpt lat="44.34944" lon="6.91807">
        <time>2023-04-16T09:26:33+00:00</time>
        <ele>2606.0</ele>
      </trkpt>
      <trkpt lat="44.34949" lon="6.91805">
        <time>2023-04-16T09:26:34+00:00</time>
        <ele>2606.0</ele>
      </trkpt>
      <trkpt lat="44.3495" lon="6.91799">
        <time>2023-04-16T09:26:35+00:00</time>
        <ele>2603.0</ele>
      </trkpt>
      <trkpt lat="44.34947" lon="6.9179">
        <time>2023-04-16T09:26:36+00:00</time>
        <ele>2601.0</ele>
      </trkpt>
      <trkpt lat="44.34944" lon="6.91781">
        <time>2023-04-16T09:26:37+00:00</time>
        <ele>2599.0</ele>
      </trkpt>
      <trkpt lat="44.34945" lon="6.91774">
        <time>2023-04-16T09:26:38+00:00</time>
        <ele>2597.0</ele>
      </trkpt>
      <trkpt lat="44.34949" lon="6.91767">
        <time>2023-04-16T09:26:39+00:00</time>
        <ele>2595.0</ele>
      </trkpt>
      <trkpt lat="44.34957" lon="6.91762">
        <time>2023-04-16T09:26:40+00:00</time>
        <ele>2593.0</ele>
      </trkpt>
      <trkpt lat="44.34965" lon="6.91757">
        <time>2023-04-16T09:26:41+00:00</time>
        <ele>2592.0</ele>
      </trkpt>
      <trkpt lat="44.34971" lon="6.91754">
        <time>2023-04-16T09:26:42+00:00</time>
        <ele>2591.0</ele>
      </trkpt>
      <trkpt lat="44.34977" lon="6.91752">
        <time>2023-04-16T09:26:43+00:00</time>
        <ele>2590.0</ele>
      </trkpt>
      <trkpt lat="44.3498" lon="6.91747">
        <time>2023-04-16T09:26:44+00:00</time>
        <ele>2589.0</ele>
      </trkpt>
      <trkpt lat="44.3498" lon="6.91742">
        <time>2023-04-16T09:26:45+00:00</time>
        <ele>2588.0</ele>
      </trkpt>
      <trkpt lat="44.34976" lon="6.91739">
        <time>2023-04-16T09:26:47+00:00</time>
        <ele>2587.0</ele>
      </trkpt>
      <trkpt lat="44.34975" lon="6.91739">
        <time>2023-04-16T09:26:48+00:00</time>
        <ele>2587.0</ele>
      </trkpt>
      <trkpt lat="44.34974" lon="6.91739">
        <time>2023-04-16T09:26:49+00:00</time>
        <ele>2587.0</ele>
      </trkpt>
      <trkpt lat="44.34974" lon="6.9174">
        <time>2023-04-16T09:26:50+00:00</time>
        <ele>2587.0</ele>
      </trkpt>
      <trkpt lat="44.34973" lon="6.91741">
        <time>2023-04-16T09:26:53+00:00</time>
        <ele>2587.0</ele>
      </trkpt>
      <trkpt lat="44.34972" lon="6.91742">
        <time>2023-04-16T09:26:55+00:00</time>
        <ele>2588.0</ele>
      </trkpt>
      <trkpt lat="44.34971" lon="6.91743">
        <time>2023-04-16T09:26:58+00:00</time>
        <ele>2588.0</ele>
      </trkpt>
      <trkpt lat="44.34969" lon="6.91744">
        <time>2023-04-16T09:27:03+00:00</time>
        <ele>2588.0</ele>
      </trkpt>
      <trkpt lat="44.34971" lon="6.91744">
        <time>2023-04-16T09:27:19+00:00</time>
        <ele>2588.0</ele>
      </trkpt>
      <trkpt lat="44.34971" lon="6.91744">
        <time>2023-04-16T09:27:21+00:00</time>
        <ele>2588.0</ele>
      </trkpt>
      <trkpt lat="44.34972" lon="6.91744">
        <time>2023-04-16T09:27:24+00:00</time>
        <ele>2588.0</ele>
      </trkpt>
      <trkpt lat="44.34971" lon="6.91744">
        <time>2023-04-16T09:27:27+00:00</time>
        <ele>2588.0</ele>
      </trkpt>
      <trkpt lat="44.34967" lon="6.91743">
        <time>2023-04-16T09:27:32+00:00</time>
        <ele>2588.0</ele>
      </trkpt>
      <trkpt lat="44.34966" lon="6.9171">
        <time>2023-04-16T09:27:37+00:00</time>
        <ele>2578.0</ele>
      </trkpt>
      <trkpt lat="44.34966" lon="6.917">
        <time>2023-04-16T09:27:38+00:00</time>
        <ele>2575.0</ele>
      </trkpt>
      <trkpt lat="44.34967" lon="6.9169">
        <time>2023-04-16T09:27:39+00:00</time>
        <ele>2572.0</ele>
      </trkpt>
      <trkpt lat="44.34969" lon="6.91679">
        <time>2023-04-16T09:27:40+00:00</time>
        <ele>2570.0</ele>
      </trkpt>
      <trkpt lat="44.34972" lon="6.9167">
        <time>2023-04-16T09:27:41+00:00</time>
        <ele>2568.0</ele>
      </trkpt>
      <trkpt lat="44.34975" lon="6.91661">
        <time>2023-04-16T09:27:42+00:00</time>
        <ele>2565.0</ele>
      </trkpt>
      <trkpt lat="44.34977" lon="6.91652">
        <time>2023-04-16T09:27:43+00:00</time>
        <ele>2564.0</ele>
      </trkpt>
      <trkpt lat="44.3498" lon="6.91644">
        <time>2023-04-16T09:27:44+00:00</time>
        <ele>2562.0</ele>
      </trkpt>
      <trkpt lat="44.34983" lon="6.91635">
        <time>2023-04-16T09:27:45+00:00</time>
        <ele>2561.0</ele>
      </trkpt>
      <trkpt lat="44.34988" lon="6.91616">
        <time>2023-04-16T09:27:47+00:00</time>
        <ele>2557.0</ele>
      </trkpt>
      <trkpt lat="44.3499" lon="6.91606">
        <time>2023-04-16T09:27:48+00:00</time>
        <ele>2555.0</ele>
      </trkpt>
      <trkpt lat="44.34991" lon="6.91597">
        <time>2023-04-16T09:27:49+00:00</time>
        <ele>2555.0</ele>
      </trkpt>
      <trkpt lat="44.34994" lon="6.91588">
        <time>2023-04-16T09:27:50+00:00</time>
        <ele>2554.0</ele>
      </trkpt>
      <trkpt lat="44.34997" lon="6.91578">
        <time>2023-04-16T09:27:51+00:00</time>
        <ele>2553.0</ele>
      </trkpt>
      <trkpt lat="44.34998" lon="6.91568">
        <time>2023-04-16T09:27:52+00:00</time>
        <ele>2552.0</ele>
      </trkpt>
      <trkpt lat="44.35" lon="6.91558">
        <time>2023-04-16T09:27:53+00:00</time>
        <ele>2551.0</ele>
      </trkpt>
      <trkpt lat="44.35003" lon="6.91548">
        <time>2023-04-16T09:27:54+00:00</time>
        <ele>2549.0</ele>
      </trkpt>
      <trkpt lat="44.35006" lon="6.91537">
        <time>2023-04-16T09:27:55+00:00</time>
        <ele>2546.0</ele>
      </trkpt>
      <trkpt lat="44.35009" lon="6.91527">
        <time>2023-04-16T09:27:56+00:00</time>
        <ele>2544.0</ele>
      </trkpt>
      <trkpt lat="44.35012" lon="6.91517">
        <time>2023-04-16T09:27:57+00:00</time>
        <ele>2543.0</ele>
      </trkpt>
      <trkpt lat="44.35014" lon="6.91506">
        <time>2023-04-16T09:27:58+00:00</time>
        <ele>2541.0</ele>
      </trkpt>
      <trkpt lat="44.35017" lon="6.91495">
        <time>2023-04-16T09:27:59+00:00</time>
        <ele>2539.0</ele>
      </trkpt>
      <trkpt lat="44.35019" lon="6.91485">
        <time>2023-04-16T09:28:00+00:00</time>
        <ele>2538.0</ele>
      </trkpt>
      <trkpt lat="44.35021" lon="6.91476">
        <time>2023-04-16T09:28:01+00:00</time>
        <ele>2537.0</ele>
      </trkpt>
      <trkpt lat="44.35024" lon="6.91468">
        <time>2023-04-16T09:28:02+00:00</time>
        <ele>2537.0</ele>
      </trkpt>
      <trkpt lat="44.35026" lon="6.9146">
        <time>2023-04-16T09:28:03+00:00</time>
        <ele>2537.0</ele>
      </trkpt>
      <trkpt lat="44.35027" lon="6.91453">
        <time>2023-04-16T09:28:04+00:00</time>
        <ele>2536.0</ele>
      </trkpt>
      <trkpt lat="44.35026" lon="6.91446">
        <time>2023-04-16T09:28:05+00:00</time>
        <ele>2537.0</ele>
      </trkpt>
      <trkpt lat="44.35025" lon="6.9144">
        <time>2023-04-16T09:28:06+00:00</time>
        <ele>2536.0</ele>
      </trkpt>
      <trkpt lat="44.35024" lon="6.91435">
        <time>2023-04-16T09:28:07+00:00</time>
        <ele>2536.0</ele>
      </trkpt>
      <trkpt lat="44.35021" lon="6.91429">
        <time>2023-04-16T09:28:09+00:00</time>
        <ele>2536.0</ele>
      </trkpt>
      <trkpt lat="44.3502" lon="6.91429">
        <time>2023-04-16T09:28:10+00:00</time>
        <ele>2537.0</ele>
      </trkpt>
      <trkpt lat="44.35019" lon="6.9143">
        <time>2023-04-16T09:28:11+00:00</time>
        <ele>2537.0</ele>
      </trkpt>
      <trkpt lat="44.35019" lon="6.9143">
        <time>2023-04-16T09:28:12+00:00</time>
        <ele>2537.0</ele>
      </trkpt>
      <trkpt lat="44.35019" lon="6.91431">
        <time>2023-04-16T09:28:14+00:00</time>
        <ele>2537.0</ele>
      </trkpt>
      <trkpt lat="44.35019" lon="6.91432">
        <time>2023-04-16T09:28:16+00:00</time>
        <ele>2537.0</ele>
      </trkpt>
      <trkpt lat="44.35018" lon="6.91435">
        <time>2023-04-16T09:28:28+00:00</time>
        <ele>2537.0</ele>
      </trkpt>
      <trkpt lat="44.35018" lon="6.91435">
        <time>2023-04-16T09:28:38+00:00</time>
        <ele>2537.0</ele>
      </trkpt>
      <trkpt lat="44.35017" lon="6.91436">
        <time>2023-04-16T09:28:46+00:00</time>
        <ele>2537.0</ele>
      </trkpt>
      <trkpt lat="44.35019" lon="6.91435">
        <time>2023-04-16T09:28:54+00:00</time>
        <ele>2537.0</ele>
      </trkpt>
      <trkpt lat="44.35018" lon="6.91435">
        <time>2023-04-16T09:28:57+00:00</time>
        <ele>2537.0</ele>
      </trkpt>
      <trkpt lat="44.35017" lon="6.91437">
        <time>2023-04-16T09:29:03+00:00</time>
        <ele>2537.0</ele>
      </trkpt>
      <trkpt lat="44.35016" lon="6.91437">
        <time>2023-04-16T09:29:04+00:00</time>
        <ele>2537.0</ele>
      </trkpt>
      <trkpt lat="44.35017" lon="6.91436">
        <time>2023-04-16T09:29:06+00:00</time>
        <ele>2537.0</ele>
      </trkpt>
      <trkpt lat="44.35016" lon="6.91436">
        <time>2023-04-16T09:29:11+00:00</time>
        <ele>2537.0</ele>
      </trkpt>
      <trkpt lat="44.35015" lon="6.91436">
        <time>2023-04-16T09:29:14+00:00</time>
        <ele>2538.0</ele>
      </trkpt>
      <trkpt lat="44.35014" lon="6.91436">
        <time>2023-04-16T09:29:22+00:00</time>
        <ele>2538.0</ele>
      </trkpt>
      <trkpt lat="44.35016" lon="6.91434">
        <time>2023-04-16T09:29:56+00:00</time>
        <ele>2537.0</ele>
      </trkpt>
      <trkpt lat="44.35017" lon="6.91435">
        <time>2023-04-16T09:30:03+00:00</time>
        <ele>2537.0</ele>
      </trkpt>
      <trkpt lat="44.35022" lon="6.91433">
        <time>2023-04-16T09:30:11+00:00</time>
        <ele>2536.0</ele>
      </trkpt>
      <trkpt lat="44.35019" lon="6.91435">
        <time>2023-04-16T09:30:28+00:00</time>
        <ele>2537.0</ele>
      </trkpt>
      <trkpt lat="44.35018" lon="6.91435">
        <time>2023-04-16T09:30:37+00:00</time>
        <ele>2537.0</ele>
      </trkpt>
      <trkpt lat="44.35017" lon="6.91436">
        <time>2023-04-16T09:30:46+00:00</time>
        <ele>2537.0</ele>
      </trkpt>
      <trkpt lat="44.35018" lon="6.91435">
        <time>2023-04-16T09:31:45+00:00</time>
        <ele>2537.0</ele>
      </trkpt>
      <trkpt lat="44.35018" lon="6.91436">
        <time>2023-04-16T09:31:55+00:00</time>
        <ele>2537.0</ele>
      </trkpt>
      <trkpt lat="44.35021" lon="6.91436">
        <time>2023-04-16T09:32:11+00:00</time>
        <ele>2537.0</ele>
      </trkpt>
      <trkpt lat="44.35018" lon="6.91435">
        <time>2023-04-16T09:32:26+00:00</time>
        <ele>2537.0</ele>
      </trkpt>
      <trkpt lat="44.35017" lon="6.91436">
        <time>2023-04-16T09:32:28+00:00</time>
        <ele>2537.0</ele>
      </trkpt>
      <trkpt lat="44.35015" lon="6.91438">
        <time>2023-04-16T09:32:32+00:00</time>
        <ele>2538.0</ele>
      </trkpt>
      <trkpt lat="44.35015" lon="6.91438">
        <time>2023-04-16T09:32:36+00:00</time>
        <ele>2538.0</ele>
      </trkpt>
      <trkpt lat="44.35015" lon="6.91437">
        <time>2023-04-16T09:32:42+00:00</time>
        <ele>2538.0</ele>
      </trkpt>
      <trkpt lat="44.35017" lon="6.91435">
        <time>2023-04-16T09:32:57+00:00</time>
        <ele>2537.0</ele>
      </trkpt>
      <trkpt lat="44.35023" lon="6.91424">
        <time>2023-04-16T09:33:02+00:00</time>
        <ele>2536.0</ele>
      </trkpt>
      <trkpt lat="44.35028" lon="6.91409">
        <time>2023-04-16T09:33:05+00:00</time>
        <ele>2534.0</ele>
      </trkpt>
      <trkpt lat="44.3503" lon="6.91401">
        <time>2023-04-16T09:33:06+00:00</time>
        <ele>2533.0</ele>
      </trkpt>
      <trkpt lat="44.35031" lon="6.91393">
        <time>2023-04-16T09:33:07+00:00</time>
        <ele>2532.0</ele>
      </trkpt>
      <trkpt lat="44.35031" lon="6.91386">
        <time>2023-04-16T09:33:08+00:00</time>
        <ele>2531.0</ele>
      </trkpt>
      <trkpt lat="44.35031" lon="6.91379">
        <time>2023-04-16T09:33:09+00:00</time>
        <ele>2530.0</ele>
      </trkpt>
      <trkpt lat="44.35029" lon="6.91372">
        <time>2023-04-16T09:33:10+00:00</time>
        <ele>2529.0</ele>
      </trkpt>
      <trkpt lat="44.35028" lon="6.91366">
        <time>2023-04-16T09:33:11+00:00</time>
        <ele>2528.0</ele>
      </trkpt>
      <trkpt lat="44.35027" lon="6.91359">
        <time>2023-04-16T09:33:12+00:00</time>
        <ele>2526.0</ele>
      </trkpt>
      <trkpt lat="44.35026" lon="6.91353">
        <time>2023-04-16T09:33:13+00:00</time>
        <ele>2525.0</ele>
      </trkpt>
      <trkpt lat="44.35025" lon="6.91347">
        <time>2023-04-16T09:33:14+00:00</time>
        <ele>2524.0</ele>
      </trkpt>
      <trkpt lat="44.35023" lon="6.9134">
        <time>2023-04-16T09:33:15+00:00</time>
        <ele>2522.0</ele>
      </trkpt>
      <trkpt lat="44.35023" lon="6.91334">
        <time>2023-04-16T09:33:16+00:00</time>
        <ele>2520.0</ele>
      </trkpt>
      <trkpt lat="44.35023" lon="6.91327">
        <time>2023-04-16T09:33:17+00:00</time>
        <ele>2519.0</ele>
      </trkpt>
      <trkpt lat="44.35024" lon="6.91322">
        <time>2023-04-16T09:33:18+00:00</time>
        <ele>2518.0</ele>
      </trkpt>
      <trkpt lat="44.35026" lon="6.91317">
        <time>2023-04-16T09:33:19+00:00</time>
        <ele>2517.0</ele>
      </trkpt>
      <trkpt lat="44.35026" lon="6.91312">
        <time>2023-04-16T09:33:20+00:00</time>
        <ele>2516.0</ele>
      </trkpt>
      <trkpt lat="44.35025" lon="6.91295">
        <time>2023-04-16T09:33:24+00:00</time>
        <ele>2512.0</ele>
      </trkpt>
      <trkpt lat="44.35027" lon="6.91289">
        <time>2023-04-16T09:33:25+00:00</time>
        <ele>2511.0</ele>
      </trkpt>
      <trkpt lat="44.35029" lon="6.91285">
        <time>2023-04-16T09:33:26+00:00</time>
        <ele>2510.0</ele>
      </trkpt>
      <trkpt lat="44.3503" lon="6.9128">
        <time>2023-04-16T09:33:27+00:00</time>
        <ele>2509.0</ele>
      </trkpt>
      <trkpt lat="44.3503" lon="6.91275">
        <time>2023-04-16T09:33:28+00:00</time>
        <ele>2508.0</ele>
      </trkpt>
      <trkpt lat="44.3503" lon="6.91268">
        <time>2023-04-16T09:33:29+00:00</time>
        <ele>2506.0</ele>
      </trkpt>
      <trkpt lat="44.3503" lon="6.91261">
        <time>2023-04-16T09:33:30+00:00</time>
        <ele>2504.0</ele>
      </trkpt>
      <trkpt lat="44.35031" lon="6.91254">
        <time>2023-04-16T09:33:31+00:00</time>
        <ele>2502.0</ele>
      </trkpt>
      <trkpt lat="44.35031" lon="6.91248">
        <time>2023-04-16T09:33:32+00:00</time>
        <ele>2500.0</ele>
      </trkpt>
      <trkpt lat="44.35031" lon="6.91241">
        <time>2023-04-16T09:33:33+00:00</time>
        <ele>2498.0</ele>
      </trkpt>
      <trkpt lat="44.35031" lon="6.91234">
        <time>2023-04-16T09:33:34+00:00</time>
        <ele>2496.0</ele>
      </trkpt>
      <trkpt lat="44.3503" lon="6.91228">
        <time>2023-04-16T09:33:35+00:00</time>
        <ele>2494.0</ele>
      </trkpt>
      <trkpt lat="44.35028" lon="6.91222">
        <time>2023-04-16T09:33:36+00:00</time>
        <ele>2491.0</ele>
      </trkpt>
      <trkpt lat="44.35027" lon="6.91216">
        <time>2023-04-16T09:33:37+00:00</time>
        <ele>2488.0</ele>
      </trkpt>
      <trkpt lat="44.35026" lon="6.9121">
        <time>2023-04-16T09:33:38+00:00</time>
        <ele>2486.0</ele>
      </trkpt>
      <trkpt lat="44.35024" lon="6.91204">
        <time>2023-04-16T09:33:39+00:00</time>
        <ele>2483.0</ele>
      </trkpt>
      <trkpt lat="44.35025" lon="6.91197">
        <time>2023-04-16T09:33:40+00:00</time>
        <ele>2481.0</ele>
      </trkpt>
      <trkpt lat="44.35025" lon="6.91191">
        <time>2023-04-16T09:33:41+00:00</time>
        <ele>2478.0</ele>
      </trkpt>
      <trkpt lat="44.35023" lon="6.91184">
        <time>2023-04-16T09:33:42+00:00</time>
        <ele>2475.0</ele>
      </trkpt>
      <trkpt lat="44.35022" lon="6.91178">
        <time>2023-04-16T09:33:43+00:00</time>
        <ele>2472.0</ele>
      </trkpt>
      <trkpt lat="44.35021" lon="6.91172">
        <time>2023-04-16T09:33:44+00:00</time>
        <ele>2470.0</ele>
      </trkpt>
      <trkpt lat="44.35018" lon="6.91166">
        <time>2023-04-16T09:33:45+00:00</time>
        <ele>2467.0</ele>
      </trkpt>
      <trkpt lat="44.35016" lon="6.9116">
        <time>2023-04-16T09:33:46+00:00</time>
        <ele>2464.0</ele>
      </trkpt>
      <trkpt lat="44.35014" lon="6.91153">
        <time>2023-04-16T09:33:47+00:00</time>
        <ele>2461.0</ele>
      </trkpt>
      <trkpt lat="44.35011" lon="6.91146">
        <time>2023-04-16T09:33:48+00:00</time>
        <ele>2458.0</ele>
      </trkpt>
      <trkpt lat="44.35009" lon="6.91139">
        <time>2023-04-16T09:33:49+00:00</time>
        <ele>2455.0</ele>
      </trkpt>
      <trkpt lat="44.35006" lon="6.91131">
        <time>2023-04-16T09:33:50+00:00</time>
        <ele>2451.0</ele>
      </trkpt>
      <trkpt lat="44.35003" lon="6.91123">
        <time>2023-04-16T09:33:51+00:00</time>
        <ele>2448.0</ele>
      </trkpt>
      <trkpt lat="44.35" lon="6.91116">
        <time>2023-04-16T09:33:52+00:00</time>
        <ele>2446.0</ele>
      </trkpt>
      <trkpt lat="44.34998" lon="6.91108">
        <time>2023-04-16T09:33:53+00:00</time>
        <ele>2443.0</ele>
      </trkpt>
      <trkpt lat="44.34995" lon="6.911">
        <time>2023-04-16T09:33:54+00:00</time>
        <ele>2441.0</ele>
      </trkpt>
      <trkpt lat="44.34993" lon="6.91092">
        <time>2023-04-16T09:33:55+00:00</time>
        <ele>2439.0</ele>
      </trkpt>
      <trkpt lat="44.34991" lon="6.91083">
        <time>2023-04-16T09:33:56+00:00</time>
        <ele>2437.0</ele>
      </trkpt>
      <trkpt lat="44.34987" lon="6.91074">
        <time>2023-04-16T09:33:57+00:00</time>
        <ele>2435.0</ele>
      </trkpt>
      <trkpt lat="44.34984" lon="6.91065">
        <time>2023-04-16T09:33:58+00:00</time>
        <ele>2434.0</ele>
      </trkpt>
      <trkpt lat="44.34982" lon="6.91056">
        <time>2023-04-16T09:33:59+00:00</time>
        <ele>2432.0</ele>
      </trkpt>
      <trkpt lat="44.3498" lon="6.91045">
        <time>2023-04-16T09:34:00+00:00</time>
        <ele>2431.0</ele>
      </trkpt>
      <trkpt lat="44.3498" lon="6.91035">
        <time>2023-04-16T09:34:01+00:00</time>
        <ele>2430.0</ele>
      </trkpt>
      <trkpt lat="44.34979" lon="6.91016">
        <time>2023-04-16T09:34:03+00:00</time>
        <ele>2428.0</ele>
      </trkpt>
      <trkpt lat="44.34979" lon="6.91007">
        <time>2023-04-16T09:34:04+00:00</time>
        <ele>2426.0</ele>
      </trkpt>
      <trkpt lat="44.34979" lon="6.90999">
        <time>2023-04-16T09:34:05+00:00</time>
        <ele>2425.0</ele>
      </trkpt>
      <trkpt lat="44.34979" lon="6.9099">
        <time>2023-04-16T09:34:06+00:00</time>
        <ele>2424.0</ele>
      </trkpt>
      <trkpt lat="44.34979" lon="6.90982">
        <time>2023-04-16T09:34:07+00:00</time>
        <ele>2423.0</ele>
      </trkpt>
      <trkpt lat="44.34978" lon="6.90974">
        <time>2023-04-16T09:34:08+00:00</time>
        <ele>2423.0</ele>
      </trkpt>
      <trkpt lat="44.34978" lon="6.90966">
        <time>2023-04-16T09:34:09+00:00</time>
        <ele>2422.0</ele>
      </trkpt>
      <trkpt lat="44.34978" lon="6.9096">
        <time>2023-04-16T09:34:10+00:00</time>
        <ele>2421.0</ele>
      </trkpt>
      <trkpt lat="44.34977" lon="6.9095">
        <time>2023-04-16T09:34:12+00:00</time>
        <ele>2421.0</ele>
      </trkpt>
      <trkpt lat="44.34976" lon="6.90944">
        <time>2023-04-16T09:34:14+00:00</time>
        <ele>2421.0</ele>
      </trkpt>
      <trkpt lat="44.34975" lon="6.9094">
        <time>2023-04-16T09:34:16+00:00</time>
        <ele>2421.0</ele>
      </trkpt>
      <trkpt lat="44.34975" lon="6.90938">
        <time>2023-04-16T09:34:17+00:00</time>
        <ele>2420.0</ele>
      </trkpt>
      <trkpt lat="44.34975" lon="6.90935">
        <time>2023-04-16T09:34:19+00:00</time>
        <ele>2420.0</ele>
      </trkpt>
      <trkpt lat="44.34974" lon="6.90927">
        <time>2023-04-16T09:34:23+00:00</time>
        <ele>2420.0</ele>
      </trkpt>
      <trkpt lat="44.34974" lon="6.90927">
        <time>2023-04-16T09:34:27+00:00</time>
        <ele>2420.0</ele>
      </trkpt>
      <trkpt lat="44.34974" lon="6.90929">
        <time>2023-04-16T09:34:29+00:00</time>
        <ele>2420.0</ele>
      </trkpt>
      <trkpt lat="44.34974" lon="6.90928">
        <time>2023-04-16T09:34:34+00:00</time>
        <ele>2420.0</ele>
      </trkpt>
      <trkpt lat="44.34974" lon="6.90927">
        <time>2023-04-16T09:34:36+00:00</time>
        <ele>2420.0</ele>
      </trkpt>
      <trkpt lat="44.34975" lon="6.90927">
        <time>2023-04-16T09:34:40+00:00</time>
        <ele>2420.0</ele>
      </trkpt>
      <trkpt lat="44.34975" lon="6.90927">
        <time>2023-04-16T09:34:44+00:00</time>
        <ele>2420.0</ele>
      </trkpt>
      <trkpt lat="44.34974" lon="6.90929">
        <time>2023-04-16T09:34:51+00:00</time>
        <ele>2420.0</ele>
      </trkpt>
      <trkpt lat="44.34974" lon="6.90928">
        <time>2023-04-16T09:34:56+00:00</time>
        <ele>2420.0</ele>
      </trkpt>
      <trkpt lat="44.34974" lon="6.90928">
        <time>2023-04-16T09:34:57+00:00</time>
        <ele>2420.0</ele>
      </trkpt>
      <trkpt lat="44.34975" lon="6.90927">
        <time>2023-04-16T09:35:01+00:00</time>
        <ele>2420.0</ele>
      </trkpt>
      <trkpt lat="44.34975" lon="6.90927">
        <time>2023-04-16T09:35:03+00:00</time>
        <ele>2420.0</ele>
      </trkpt>
      <trkpt lat="44.34976" lon="6.90926">
        <time>2023-04-16T09:35:05+00:00</time>
        <ele>2420.0</ele>
      </trkpt>
      <trkpt lat="44.34975" lon="6.90926">
        <time>2023-04-16T09:35:10+00:00</time>
        <ele>2420.0</ele>
      </trkpt>
      <trkpt lat="44.34977" lon="6.90926">
        <time>2023-04-16T09:35:14+00:00</time>
        <ele>2419.0</ele>
      </trkpt>
      <trkpt lat="44.34976" lon="6.90926">
        <time>2023-04-16T09:35:17+00:00</time>
        <ele>2420.0</ele>
      </trkpt>
      <trkpt lat="44.34979" lon="6.90927">
        <time>2023-04-16T09:35:21+00:00</time>
        <ele>2419.0</ele>
      </trkpt>
      <trkpt lat="44.3498" lon="6.90927">
        <time>2023-04-16T09:35:22+00:00</time>
        <ele>2419.0</ele>
      </trkpt>
      <trkpt lat="44.34977" lon="6.90929">
        <time>2023-04-16T09:35:26+00:00</time>
        <ele>2420.0</ele>
      </trkpt>
      <trkpt lat="44.34968" lon="6.9093">
        <time>2023-04-16T09:35:31+00:00</time>
        <ele>2421.0</ele>
      </trkpt>
      <trkpt lat="44.34963" lon="6.9093">
        <time>2023-04-16T09:35:43+00:00</time>
        <ele>2422.0</ele>
      </trkpt>
      <trkpt lat="44.34964" lon="6.90929">
        <time>2023-04-16T09:35:52+00:00</time>
        <ele>2422.0</ele>
      </trkpt>
      <trkpt lat="44.34966" lon="6.90929">
        <time>2023-04-16T09:36:00+00:00</time>
        <ele>2422.0</ele>
      </trkpt>
      <trkpt lat="44.34963" lon="6.9093">
        <time>2023-04-16T09:36:09+00:00</time>
        <ele>2422.0</ele>
      </trkpt>
      <trkpt lat="44.34974" lon="6.90924">
        <time>2023-04-16T09:36:21+00:00</time>
        <ele>2420.0</ele>
      </trkpt>
      <trkpt lat="44.34973" lon="6.90923">
        <time>2023-04-16T09:36:22+00:00</time>
        <ele>2420.0</ele>
      </trkpt>
      <trkpt lat="44.34972" lon="6.90921">
        <time>2023-04-16T09:36:23+00:00</time>
        <ele>2420.0</ele>
      </trkpt>
      <trkpt lat="44.34972" lon="6.90919">
        <time>2023-04-16T09:36:24+00:00</time>
        <ele>2420.0</ele>
      </trkpt>
      <trkpt lat="44.3497" lon="6.90917">
        <time>2023-04-16T09:36:26+00:00</time>
        <ele>2420.0</ele>
      </trkpt>
      <trkpt lat="44.34969" lon="6.90916">
        <time>2023-04-16T09:36:29+00:00</time>
        <ele>2420.0</ele>
      </trkpt>
      <trkpt lat="44.34967" lon="6.90914">
        <time>2023-04-16T09:36:35+00:00</time>
        <ele>2420.0</ele>
      </trkpt>
      <trkpt lat="44.34966" lon="6.90912">
        <time>2023-04-16T09:36:36+00:00</time>
        <ele>2420.0</ele>
      </trkpt>
      <trkpt lat="44.34965" lon="6.90908">
        <time>2023-04-16T09:36:37+00:00</time>
        <ele>2420.0</ele>
      </trkpt>
      <trkpt lat="44.34963" lon="6.90887">
        <time>2023-04-16T09:36:41+00:00</time>
        <ele>2418.0</ele>
      </trkpt>
      <trkpt lat="44.34962" lon="6.9088">
        <time>2023-04-16T09:36:42+00:00</time>
        <ele>2417.0</ele>
      </trkpt>
      <trkpt lat="44.3496" lon="6.90874">
        <time>2023-04-16T09:36:43+00:00</time>
        <ele>2416.0</ele>
      </trkpt>
      <trkpt lat="44.34957" lon="6.90868">
        <time>2023-04-16T09:36:44+00:00</time>
        <ele>2415.0</ele>
      </trkpt>
      <trkpt lat="44.34954" lon="6.90862">
        <time>2023-04-16T09:36:45+00:00</time>
        <ele>2413.0</ele>
      </trkpt>
      <trkpt lat="44.3495" lon="6.90857">
        <time>2023-04-16T09:36:46+00:00</time>
        <ele>2412.0</ele>
      </trkpt>
      <trkpt lat="44.34948" lon="6.90851">
        <time>2023-04-16T09:36:47+00:00</time>
        <ele>2410.0</ele>
      </trkpt>
      <trkpt lat="44.34948" lon="6.90844">
        <time>2023-04-16T09:36:48+00:00</time>
        <ele>2408.0</ele>
      </trkpt>
      <trkpt lat="44.34948" lon="6.90837">
        <time>2023-04-16T09:36:49+00:00</time>
        <ele>2407.0</ele>
      </trkpt>
      <trkpt lat="44.34949" lon="6.90828">
        <time>2023-04-16T09:36:50+00:00</time>
        <ele>2405.0</ele>
      </trkpt>
      <trkpt lat="44.3495" lon="6.90819">
        <time>2023-04-16T09:36:51+00:00</time>
        <ele>2403.0</ele>
      </trkpt>
      <trkpt lat="44.3495" lon="6.90809">
        <time>2023-04-16T09:36:52+00:00</time>
        <ele>2402.0</ele>
      </trkpt>
      <trkpt lat="44.3495" lon="6.90799">
        <time>2023-04-16T09:36:53+00:00</time>
        <ele>2400.0</ele>
      </trkpt>
      <trkpt lat="44.3495" lon="6.90788">
        <time>2023-04-16T09:36:54+00:00</time>
        <ele>2397.0</ele>
      </trkpt>
      <trkpt lat="44.34951" lon="6.90777">
        <time>2023-04-16T09:36:55+00:00</time>
        <ele>2395.0</ele>
      </trkpt>
      <trkpt lat="44.34951" lon="6.90767">
        <time>2023-04-16T09:36:56+00:00</time>
        <ele>2393.0</ele>
      </trkpt>
      <trkpt lat="44.3495" lon="6.90757">
        <time>2023-04-16T09:36:57+00:00</time>
        <ele>2392.0</ele>
      </trkpt>
      <trkpt lat="44.34949" lon="6.90746">
        <time>2023-04-16T09:36:58+00:00</time>
        <ele>2390.0</ele>
      </trkpt>
      <trkpt lat="44.34948" lon="6.90736">
        <time>2023-04-16T09:36:59+00:00</time>
        <ele>2388.0</ele>
      </trkpt>
      <trkpt lat="44.34947" lon="6.90725">
        <time>2023-04-16T09:37:00+00:00</time>
        <ele>2387.0</ele>
      </trkpt>
      <trkpt lat="44.34947" lon="6.90713">
        <time>2023-04-16T09:37:01+00:00</time>
        <ele>2385.0</ele>
      </trkpt>
      <trkpt lat="44.34947" lon="6.90701">
        <time>2023-04-16T09:37:02+00:00</time>
        <ele>2384.0</ele>
      </trkpt>
      <trkpt lat="44.34947" lon="6.90689">
        <time>2023-04-16T09:37:03+00:00</time>
        <ele>2382.0</ele>
      </trkpt>
      <trkpt lat="44.34946" lon="6.90677">
        <time>2023-04-16T09:37:04+00:00</time>
        <ele>2380.0</ele>
      </trkpt>
      <trkpt lat="44.34945" lon="6.90666">
        <time>2023-04-16T09:37:05+00:00</time>
        <ele>2379.0</ele>
      </trkpt>
      <trkpt lat="44.34944" lon="6.90655">
        <time>2023-04-16T09:37:06+00:00</time>
        <ele>2378.0</ele>
      </trkpt>
      <trkpt lat="44.34943" lon="6.90644">
        <time>2023-04-16T09:37:07+00:00</time>
        <ele>2376.0</ele>
      </trkpt>
      <trkpt lat="44.34942" lon="6.90635">
        <time>2023-04-16T09:37:08+00:00</time>
        <ele>2375.0</ele>
      </trkpt>
      <trkpt lat="44.3494" lon="6.90626">
        <time>2023-04-16T09:37:09+00:00</time>
        <ele>2374.0</ele>
      </trkpt>
      <trkpt lat="44.34938" lon="6.90618">
        <time>2023-04-16T09:37:10+00:00</time>
        <ele>2373.0</ele>
      </trkpt>
      <trkpt lat="44.34936" lon="6.90613">
        <time>2023-04-16T09:37:11+00:00</time>
        <ele>2373.0</ele>
      </trkpt>
      <trkpt lat="44.34934" lon="6.9061">
        <time>2023-04-16T09:37:12+00:00</time>
        <ele>2373.0</ele>
      </trkpt>
      <trkpt lat="44.34933" lon="6.90609">
        <time>2023-04-16T09:37:13+00:00</time>
        <ele>2372.0</ele>
      </trkpt>
      <trkpt lat="44.34932" lon="6.9061">
        <time>2023-04-16T09:37:14+00:00</time>
        <ele>2373.0</ele>
      </trkpt>
      <trkpt lat="44.34932" lon="6.9061">
        <time>2023-04-16T09:37:15+00:00</time>
        <ele>2373.0</ele>
      </trkpt>
      <trkpt lat="44.34932" lon="6.90611">
        <time>2023-04-16T09:37:16+00:00</time>
        <ele>2373.0</ele>
      </trkpt>
      <trkpt lat="44.34932" lon="6.90611">
        <time>2023-04-16T09:37:17+00:00</time>
        <ele>2373.0</ele>
      </trkpt>
      <trkpt lat="44.34932" lon="6.9061">
        <time>2023-04-16T09:37:18+00:00</time>
        <ele>2373.0</ele>
      </trkpt>
      <trkpt lat="44.34931" lon="6.90609">
        <time>2023-04-16T09:37:19+00:00</time>
        <ele>2372.0</ele>
      </trkpt>
      <trkpt lat="44.3493" lon="6.90606">
        <time>2023-04-16T09:37:21+00:00</time>
        <ele>2372.0</ele>
      </trkpt>
      <trkpt lat="44.34928" lon="6.90603">
        <time>2023-04-16T09:37:22+00:00</time>
        <ele>2371.0</ele>
      </trkpt>
      <trkpt lat="44.34927" lon="6.906">
        <time>2023-04-16T09:37:23+00:00</time>
        <ele>2371.0</ele>
      </trkpt>
      <trkpt lat="44.34916" lon="6.90578">
        <time>2023-04-16T09:37:27+00:00</time>
        <ele>2367.0</ele>
      </trkpt>
      <trkpt lat="44.34912" lon="6.90569">
        <time>2023-04-16T09:37:28+00:00</time>
        <ele>2365.0</ele>
      </trkpt>
      <trkpt lat="44.34908" lon="6.90559">
        <time>2023-04-16T09:37:29+00:00</time>
        <ele>2363.0</ele>
      </trkpt>
      <trkpt lat="44.34903" lon="6.9055">
        <time>2023-04-16T09:37:30+00:00</time>
        <ele>2361.0</ele>
      </trkpt>
      <trkpt lat="44.34898" lon="6.9054">
        <time>2023-04-16T09:37:31+00:00</time>
        <ele>2360.0</ele>
      </trkpt>
      <trkpt lat="44.34892" lon="6.90531">
        <time>2023-04-16T09:37:32+00:00</time>
        <ele>2359.0</ele>
      </trkpt>
      <trkpt lat="44.34886" lon="6.90525">
        <time>2023-04-16T09:37:33+00:00</time>
        <ele>2358.0</ele>
      </trkpt>
      <trkpt lat="44.34881" lon="6.90519">
        <time>2023-04-16T09:37:34+00:00</time>
        <ele>2357.0</ele>
      </trkpt>
      <trkpt lat="44.34876" lon="6.90514">
        <time>2023-04-16T09:37:35+00:00</time>
        <ele>2356.0</ele>
      </trkpt>
      <trkpt lat="44.34871" lon="6.9051">
        <time>2023-04-16T09:37:36+00:00</time>
        <ele>2355.0</ele>
      </trkpt>
      <trkpt lat="44.34865" lon="6.90509">
        <time>2023-04-16T09:37:37+00:00</time>
        <ele>2354.0</ele>
      </trkpt>
      <trkpt lat="44.34859" lon="6.90509">
        <time>2023-04-16T09:37:38+00:00</time>
        <ele>2354.0</ele>
      </trkpt>
      <trkpt lat="44.34838" lon="6.90512">
        <time>2023-04-16T09:37:41+00:00</time>
        <ele>2351.0</ele>
      </trkpt>
      <trkpt lat="44.34831" lon="6.90511">
        <time>2023-04-16T09:37:42+00:00</time>
        <ele>2350.0</ele>
      </trkpt>
      <trkpt lat="44.34822" lon="6.90504">
        <time>2023-04-16T09:37:44+00:00</time>
        <ele>2350.0</ele>
      </trkpt>
      <trkpt lat="44.34824" lon="6.90491">
        <time>2023-04-16T09:37:46+00:00</time>
        <ele>2349.0</ele>
      </trkpt>
      <trkpt lat="44.34826" lon="6.90485">
        <time>2023-04-16T09:37:47+00:00</time>
        <ele>2349.0</ele>
      </trkpt>
      <trkpt lat="44.34829" lon="6.90474">
        <time>2023-04-16T09:37:49+00:00</time>
        <ele>2348.0</ele>
      </trkpt>
      <trkpt lat="44.34831" lon="6.90464">
        <time>2023-04-16T09:37:52+00:00</time>
        <ele>2348.0</ele>
      </trkpt>
      <trkpt lat="44.34831" lon="6.90463">
        <time>2023-04-16T09:37:53+00:00</time>
        <ele>2348.0</ele>
      </trkpt>
      <trkpt lat="44.34829" lon="6.90462">
        <time>2023-04-16T09:37:56+00:00</time>
        <ele>2348.0</ele>
      </trkpt>
      <trkpt lat="44.34828" lon="6.90462">
        <time>2023-04-16T09:37:58+00:00</time>
        <ele>2348.0</ele>
      </trkpt>
      <trkpt lat="44.34828" lon="6.90462">
        <time>2023-04-16T09:37:59+00:00</time>
        <ele>2348.0</ele>
      </trkpt>
      <trkpt lat="44.34828" lon="6.90462">
        <time>2023-04-16T09:38:00+00:00</time>
        <ele>2348.0</ele>
      </trkpt>
      <trkpt lat="44.34828" lon="6.90462">
        <time>2023-04-16T09:38:01+00:00</time>
        <ele>2348.0</ele>
      </trkpt>
      <trkpt lat="44.34827" lon="6.90463">
        <time>2023-04-16T09:38:03+00:00</time>
        <ele>2348.0</ele>
      </trkpt>
      <trkpt lat="44.34828" lon="6.90462">
        <time>2023-04-16T09:38:10+00:00</time>
        <ele>2348.0</ele>
      </trkpt>
      <trkpt lat="44.34829" lon="6.90462">
        <time>2023-04-16T09:38:12+00:00</time>
        <ele>2348.0</ele>
      </trkpt>
      <trkpt lat="44.34829" lon="6.90462">
        <time>2023-04-16T09:38:16+00:00</time>
        <ele>2348.0</ele>
      </trkpt>
      <trkpt lat="44.34826" lon="6.90464">
        <time>2023-04-16T09:38:19+00:00</time>
        <ele>2348.0</ele>
      </trkpt>
      <trkpt lat="44.34823" lon="6.90462">
        <time>2023-04-16T09:38:23+00:00</time>
        <ele>2348.0</ele>
      </trkpt>
      <trkpt lat="44.34825" lon="6.90434">
        <time>2023-04-16T09:38:28+00:00</time>
        <ele>2345.0</ele>
      </trkpt>
      <trkpt lat="44.34827" lon="6.9042">
        <time>2023-04-16T09:38:30+00:00</time>
        <ele>2344.0</ele>
      </trkpt>
      <trkpt lat="44.34827" lon="6.90413">
        <time>2023-04-16T09:38:31+00:00</time>
        <ele>2342.0</ele>
      </trkpt>
      <trkpt lat="44.34826" lon="6.90409">
        <time>2023-04-16T09:38:32+00:00</time>
        <ele>2341.0</ele>
      </trkpt>
      <trkpt lat="44.34825" lon="6.90406">
        <time>2023-04-16T09:38:33+00:00</time>
        <ele>2341.0</ele>
      </trkpt>
      <trkpt lat="44.34825" lon="6.90406">
        <time>2023-04-16T09:38:34+00:00</time>
        <ele>2341.0</ele>
      </trkpt>
      <trkpt lat="44.34825" lon="6.90405">
        <time>2023-04-16T09:38:35+00:00</time>
        <ele>2341.0</ele>
      </trkpt>
      <trkpt lat="44.34825" lon="6.90406">
        <time>2023-04-16T09:38:36+00:00</time>
        <ele>2341.0</ele>
      </trkpt>
      <trkpt lat="44.34824" lon="6.90406">
        <time>2023-04-16T09:38:43+00:00</time>
        <ele>2341.0</ele>
      </trkpt>
      <trkpt lat="44.34824" lon="6.90405">
        <time>2023-04-16T09:38:46+00:00</time>
        <ele>2340.0</ele>
      </trkpt>
      <trkpt lat="44.34825" lon="6.90402">
        <time>2023-04-16T09:38:48+00:00</time>
        <ele>2340.0</ele>
      </trkpt>
      <trkpt lat="44.34825" lon="6.90401">
        <time>2023-04-16T09:38:49+00:00</time>
        <ele>2340.0</ele>
      </trkpt>
      <trkpt lat="44.34825" lon="6.90395">
        <time>2023-04-16T09:38:54+00:00</time>
        <ele>2339.0</ele>
      </trkpt>
      <trkpt lat="44.34828" lon="6.90387">
        <time>2023-04-16T09:38:59+00:00</time>
        <ele>2338.0</ele>
      </trkpt>
      <trkpt lat="44.34829" lon="6.90385">
        <time>2023-04-16T09:39:00+00:00</time>
        <ele>2337.0</ele>
      </trkpt>
      <trkpt lat="44.34829" lon="6.90374">
        <time>2023-04-16T09:39:06+00:00</time>
        <ele>2335.0</ele>
      </trkpt>
      <trkpt lat="44.34829" lon="6.90373">
        <time>2023-04-16T09:39:07+00:00</time>
        <ele>2335.0</ele>
      </trkpt>
      <trkpt lat="44.34829" lon="6.9037">
        <time>2023-04-16T09:39:13+00:00</time>
        <ele>2334.0</ele>
      </trkpt>
      <trkpt lat="44.34831" lon="6.90371">
        <time>2023-04-16T09:39:23+00:00</time>
        <ele>2335.0</ele>
      </trkpt>
      <trkpt lat="44.34831" lon="6.90371">
        <time>2023-04-16T09:39:24+00:00</time>
        <ele>2335.0</ele>
      </trkpt>
      <trkpt lat="44.34831" lon="6.90371">
        <time>2023-04-16T09:39:25+00:00</time>
        <ele>2335.0</ele>
      </trkpt>
      <trkpt lat="44.34831" lon="6.9037">
        <time>2023-04-16T09:39:26+00:00</time>
        <ele>2334.0</ele>
      </trkpt>
      <trkpt lat="44.3483" lon="6.90369">
        <time>2023-04-16T09:39:27+00:00</time>
        <ele>2334.0</ele>
      </trkpt>
      <trkpt lat="44.3483" lon="6.90368">
        <time>2023-04-16T09:39:29+00:00</time>
        <ele>2334.0</ele>
      </trkpt>
      <trkpt lat="44.34842" lon="6.90368">
        <time>2023-04-16T09:39:35+00:00</time>
        <ele>2335.0</ele>
      </trkpt>
      <trkpt lat="44.34841" lon="6.90359">
        <time>2023-04-16T09:39:43+00:00</time>
        <ele>2332.0</ele>
      </trkpt>
      <trkpt lat="44.3484" lon="6.90352">
        <time>2023-04-16T09:39:53+00:00</time>
        <ele>2331.0</ele>
      </trkpt>
      <trkpt lat="44.34839" lon="6.90349">
        <time>2023-04-16T09:39:56+00:00</time>
        <ele>2330.0</ele>
      </trkpt>
      <trkpt lat="44.3484" lon="6.90345">
        <time>2023-04-16T09:40:01+00:00</time>
        <ele>2329.0</ele>
      </trkpt>
      <trkpt lat="44.3484" lon="6.90347">
        <time>2023-04-16T09:40:07+00:00</time>
        <ele>2330.0</ele>
      </trkpt>
      <trkpt lat="44.34839" lon="6.9034">
        <time>2023-04-16T09:40:33+00:00</time>
        <ele>2328.0</ele>
      </trkpt>
      <trkpt lat="44.34838" lon="6.90336">
        <time>2023-04-16T09:40:35+00:00</time>
        <ele>2327.0</ele>
      </trkpt>
      <trkpt lat="44.34837" lon="6.9033">
        <time>2023-04-16T09:40:39+00:00</time>
        <ele>2324.0</ele>
      </trkpt>
      <trkpt lat="44.34837" lon="6.90326">
        <time>2023-04-16T09:40:43+00:00</time>
        <ele>2323.0</ele>
      </trkpt>
      <trkpt lat="44.34836" lon="6.90323">
        <time>2023-04-16T09:40:44+00:00</time>
        <ele>2322.0</ele>
      </trkpt>
      <trkpt lat="44.34826" lon="6.90314">
        <time>2023-04-16T09:40:46+00:00</time>
        <ele>2316.0</ele>
      </trkpt>
      <trkpt lat="44.3482" lon="6.90311">
        <time>2023-04-16T09:40:47+00:00</time>
        <ele>2314.0</ele>
      </trkpt>
      <trkpt lat="44.34817" lon="6.90306">
        <time>2023-04-16T09:40:48+00:00</time>
        <ele>2311.0</ele>
      </trkpt>
      <trkpt lat="44.34814" lon="6.90299">
        <time>2023-04-16T09:40:49+00:00</time>
        <ele>2308.0</ele>
      </trkpt>
      <trkpt lat="44.3481" lon="6.90294">
        <time>2023-04-16T09:40:50+00:00</time>
        <ele>2305.0</ele>
      </trkpt>
      <trkpt lat="44.34806" lon="6.90289">
        <time>2023-04-16T09:40:51+00:00</time>
        <ele>2303.0</ele>
      </trkpt>
      <trkpt lat="44.34802" lon="6.90284">
        <time>2023-04-16T09:40:52+00:00</time>
        <ele>2300.0</ele>
      </trkpt>
      <trkpt lat="44.348" lon="6.90278">
        <time>2023-04-16T09:40:53+00:00</time>
        <ele>2298.0</ele>
      </trkpt>
      <trkpt lat="44.34798" lon="6.90274">
        <time>2023-04-16T09:40:54+00:00</time>
        <ele>2297.0</ele>
      </trkpt>
      <trkpt lat="44.34796" lon="6.90271">
        <time>2023-04-16T09:40:55+00:00</time>
        <ele>2296.0</ele>
      </trkpt>
      <trkpt lat="44.34795" lon="6.90267">
        <time>2023-04-16T09:40:56+00:00</time>
        <ele>2295.0</ele>
      </trkpt>
      <trkpt lat="44.34795" lon="6.90262">
        <time>2023-04-16T09:40:57+00:00</time>
        <ele>2294.0</ele>
      </trkpt>
      <trkpt lat="44.34794" lon="6.90256">
        <time>2023-04-16T09:40:58+00:00</time>
        <ele>2292.0</ele>
      </trkpt>
      <trkpt lat="44.34791" lon="6.90241">
        <time>2023-04-16T09:41:00+00:00</time>
        <ele>2287.0</ele>
      </trkpt>
      <trkpt lat="44.34787" lon="6.9023">
        <time>2023-04-16T09:41:01+00:00</time>
        <ele>2283.0</ele>
      </trkpt>
      <trkpt lat="44.3478" lon="6.90218">
        <time>2023-04-16T09:41:02+00:00</time>
        <ele>2279.0</ele>
      </trkpt>
      <trkpt lat="44.3477" lon="6.90207">
        <time>2023-04-16T09:41:03+00:00</time>
        <ele>2274.0</ele>
      </trkpt>
      <trkpt lat="44.3476" lon="6.90199">
        <time>2023-04-16T09:41:04+00:00</time>
        <ele>2272.0</ele>
      </trkpt>
      <trkpt lat="44.3475" lon="6.90193">
        <time>2023-04-16T09:41:05+00:00</time>
        <ele>2270.0</ele>
      </trkpt>
      <trkpt lat="44.3474" lon="6.90187">
        <time>2023-04-16T09:41:06+00:00</time>
        <ele>2269.0</ele>
      </trkpt>
      <trkpt lat="44.34731" lon="6.9018">
        <time>2023-04-16T09:41:07+00:00</time>
        <ele>2267.0</ele>
      </trkpt>
      <trkpt lat="44.34713" lon="6.90164">
        <time>2023-04-16T09:41:09+00:00</time>
        <ele>2265.0</ele>
      </trkpt>
      <trkpt lat="44.34705" lon="6.90155">
        <time>2023-04-16T09:41:10+00:00</time>
        <ele>2263.0</ele>
      </trkpt>
      <trkpt lat="44.34698" lon="6.90145">
        <time>2023-04-16T09:41:11+00:00</time>
        <ele>2262.0</ele>
      </trkpt>
      <trkpt lat="44.34691" lon="6.90135">
        <time>2023-04-16T09:41:12+00:00</time>
        <ele>2260.0</ele>
      </trkpt>
      <trkpt lat="44.34685" lon="6.90125">
        <time>2023-04-16T09:41:13+00:00</time>
        <ele>2259.0</ele>
      </trkpt>
      <trkpt lat="44.34679" lon="6.90115">
        <time>2023-04-16T09:41:14+00:00</time>
        <ele>2259.0</ele>
      </trkpt>
      <trkpt lat="44.34668" lon="6.90097">
        <time>2023-04-16T09:41:16+00:00</time>
        <ele>2257.0</ele>
      </trkpt>
      <trkpt lat="44.34653" lon="6.90074">
        <time>2023-04-16T09:41:19+00:00</time>
        <ele>2256.0</ele>
      </trkpt>
      <trkpt lat="44.3463" lon="6.90042">
        <time>2023-04-16T09:41:24+00:00</time>
        <ele>2255.0</ele>
      </trkpt>
      <trkpt lat="44.34623" lon="6.90035">
        <time>2023-04-16T09:41:26+00:00</time>
        <ele>2255.0</ele>
      </trkpt>
      <trkpt lat="44.3461" lon="6.90033">
        <time>2023-04-16T09:41:31+00:00</time>
        <ele>2254.0</ele>
      </trkpt>
      <trkpt lat="44.3461" lon="6.90032">
        <time>2023-04-16T09:41:33+00:00</time>
        <ele>2254.0</ele>
      </trkpt>
      <trkpt lat="44.34611" lon="6.90034">
        <time>2023-04-16T09:41:44+00:00</time>
        <ele>2254.0</ele>
      </trkpt>
      <trkpt lat="44.34611" lon="6.90034">
        <time>2023-04-16T09:41:56+00:00</time>
        <ele>2254.0</ele>
      </trkpt>
      <trkpt lat="44.3461" lon="6.90034">
        <time>2023-04-16T09:41:57+00:00</time>
        <ele>2254.0</ele>
      </trkpt>
      <trkpt lat="44.3461" lon="6.90034">
        <time>2023-04-16T09:41:58+00:00</time>
        <ele>2254.0</ele>
      </trkpt>
      <trkpt lat="44.3461" lon="6.90034">
        <time>2023-04-16T09:41:59+00:00</time>
        <ele>2254.0</ele>
      </trkpt>
      <trkpt lat="44.3461" lon="6.90033">
        <time>2023-04-16T09:42:01+00:00</time>
        <ele>2254.0</ele>
      </trkpt>
      <trkpt lat="44.34608" lon="6.90032">
        <time>2023-04-16T09:42:06+00:00</time>
        <ele>2254.0</ele>
      </trkpt>
      <trkpt lat="44.34605" lon="6.9003">
        <time>2023-04-16T09:42:08+00:00</time>
        <ele>2254.0</ele>
      </trkpt>
      <trkpt lat="44.346" lon="6.90026">
        <time>2023-04-16T09:42:12+00:00</time>
        <ele>2253.0</ele>
      </trkpt>
      <trkpt lat="44.34599" lon="6.90024">
        <time>2023-04-16T09:42:13+00:00</time>
        <ele>2253.0</ele>
      </trkpt>
      <trkpt lat="44.34594" lon="6.90018">
        <time>2023-04-16T09:42:17+00:00</time>
        <ele>2253.0</ele>
      </trkpt>
      <trkpt lat="44.34592" lon="6.90016">
        <time>2023-04-16T09:42:18+00:00</time>
        <ele>2252.0</ele>
      </trkpt>
      <trkpt lat="44.34591" lon="6.90013">
        <time>2023-04-16T09:42:20+00:00</time>
        <ele>2252.0</ele>
      </trkpt>
      <trkpt lat="44.34589" lon="6.90012">
        <time>2023-04-16T09:42:21+00:00</time>
        <ele>2252.0</ele>
      </trkpt>
      <trkpt lat="44.34586" lon="6.90011">
        <time>2023-04-16T09:42:23+00:00</time>
        <ele>2252.0</ele>
      </trkpt>
      <trkpt lat="44.34581" lon="6.9001">
        <time>2023-04-16T09:42:25+00:00</time>
        <ele>2252.0</ele>
      </trkpt>
      <trkpt lat="44.34579" lon="6.90009">
        <time>2023-04-16T09:42:26+00:00</time>
        <ele>2252.0</ele>
      </trkpt>
      <trkpt lat="44.34571" lon="6.90006">
        <time>2023-04-16T09:42:29+00:00</time>
        <ele>2252.0</ele>
      </trkpt>
      <trkpt lat="44.34532" lon="6.8999">
        <time>2023-04-16T09:42:45+00:00</time>
        <ele>2250.0</ele>
      </trkpt>
      <trkpt lat="44.34518" lon="6.89979">
        <time>2023-04-16T09:42:55+00:00</time>
        <ele>2250.0</ele>
      </trkpt>
      <trkpt lat="44.34517" lon="6.89978">
        <time>2023-04-16T09:42:56+00:00</time>
        <ele>2250.0</ele>
      </trkpt>
      <trkpt lat="44.34515" lon="6.89976">
        <time>2023-04-16T09:42:57+00:00</time>
        <ele>2250.0</ele>
      </trkpt>
      <trkpt lat="44.34513" lon="6.89975">
        <time>2023-04-16T09:42:58+00:00</time>
        <ele>2250.0</ele>
      </trkpt>
      <trkpt lat="44.34512" lon="6.89973">
        <time>2023-04-16T09:42:59+00:00</time>
        <ele>2250.0</ele>
      </trkpt>
      <trkpt lat="44.34509" lon="6.89969">
        <time>2023-04-16T09:43:01+00:00</time>
        <ele>2250.0</ele>
      </trkpt>
      <trkpt lat="44.34493" lon="6.89952">
        <time>2023-04-16T09:43:10+00:00</time>
        <ele>2249.0</ele>
      </trkpt>
      <trkpt lat="44.34491" lon="6.89953">
        <time>2023-04-16T09:43:14+00:00</time>
        <ele>2249.0</ele>
      </trkpt>
      <trkpt lat="44.34491" lon="6.89953">
        <time>2023-04-16T09:43:36+00:00</time>
        <ele>2249.0</ele>
      </trkpt>
      <trkpt lat="44.34491" lon="6.89953">
        <time>2023-04-16T09:43:40+00:00</time>
        <ele>2249.0</ele>
      </trkpt>
      <trkpt lat="44.34491" lon="6.89953">
        <time>2023-04-16T09:43:42+00:00</time>
        <ele>2249.0</ele>
      </trkpt>
      <trkpt lat="44.3449" lon="6.89952">
        <time>2023-04-16T09:43:44+00:00</time>
        <ele>2249.0</ele>
      </trkpt>
      <trkpt lat="44.34488" lon="6.89949">
        <time>2023-04-16T09:43:46+00:00</time>
        <ele>2248.0</ele>
      </trkpt>
      <trkpt lat="44.34484" lon="6.89946">
        <time>2023-04-16T09:43:48+00:00</time>
        <ele>2248.0</ele>
      </trkpt>
      <trkpt lat="44.34451" lon="6.89915">
        <time>2023-04-16T09:44:00+00:00</time>
        <ele>2247.0</ele>
      </trkpt>
      <trkpt lat="44.34449" lon="6.89914">
        <time>2023-04-16T09:44:02+00:00</time>
        <ele>2247.0</ele>
      </trkpt>
      <trkpt lat="44.34449" lon="6.89914">
        <time>2023-04-16T09:44:03+00:00</time>
        <ele>2247.0</ele>
      </trkpt>
      <trkpt lat="44.34449" lon="6.89912">
        <time>2023-04-16T09:44:11+00:00</time>
        <ele>2247.0</ele>
      </trkpt>
      <trkpt lat="44.34449" lon="6.89912">
        <time>2023-04-16T09:44:15+00:00</time>
        <ele>2247.0</ele>
      </trkpt>
      <trkpt lat="44.34449" lon="6.89912">
        <time>2023-04-16T09:44:16+00:00</time>
        <ele>2247.0</ele>
      </trkpt>
      <trkpt lat="44.34449" lon="6.89912">
        <time>2023-04-16T09:44:20+00:00</time>
        <ele>2247.0</ele>
      </trkpt>
      <trkpt lat="44.34449" lon="6.89912">
        <time>2023-04-16T09:44:21+00:00</time>
        <ele>2247.0</ele>
      </trkpt>
      <trkpt lat="44.34449" lon="6.89912">
        <time>2023-04-16T09:44:25+00:00</time>
        <ele>2247.0</ele>
      </trkpt>
      <trkpt lat="44.3445" lon="6.89912">
        <time>2023-04-16T09:44:27+00:00</time>
        <ele>2247.0</ele>
      </trkpt>
      <trkpt lat="44.3445" lon="6.89912">
        <time>2023-04-16T09:44:28+00:00</time>
        <ele>2247.0</ele>
      </trkpt>
      <trkpt lat="44.3445" lon="6.89912">
        <time>2023-04-16T09:44:31+00:00</time>
        <ele>2247.0</ele>
      </trkpt>
      <trkpt lat="44.3445" lon="6.89912">
        <time>2023-04-16T09:44:34+00:00</time>
        <ele>2247.0</ele>
      </trkpt>
      <trkpt lat="44.34451" lon="6.89912">
        <time>2023-04-16T09:44:38+00:00</time>
        <ele>2247.0</ele>
      </trkpt>
      <trkpt lat="44.34451" lon="6.89911">
        <time>2023-04-16T09:44:59+00:00</time>
        <ele>2247.0</ele>
      </trkpt>
      <trkpt lat="44.34451" lon="6.89911">
        <time>2023-04-16T09:45:03+00:00</time>
        <ele>2247.0</ele>
      </trkpt>
      <trkpt lat="44.34451" lon="6.89911">
        <time>2023-04-16T09:45:05+00:00</time>
        <ele>2247.0</ele>
      </trkpt>
      <trkpt lat="44.34451" lon="6.89911">
        <time>2023-04-16T09:45:08+00:00</time>
        <ele>2247.0</ele>
      </trkpt>
      <trkpt lat="44.34451" lon="6.89911">
        <time>2023-04-16T09:45:12+00:00</time>
        <ele>2247.0</ele>
      </trkpt>
      <trkpt lat="44.34451" lon="6.89911">
        <time>2023-04-16T09:45:21+00:00</time>
        <ele>2247.0</ele>
      </trkpt>
      <trkpt lat="44.34451" lon="6.89911">
        <time>2023-04-16T09:45:27+00:00</time>
        <ele>2247.0</ele>
      </trkpt>
      <trkpt lat="44.34451" lon="6.89911">
        <time>2023-04-16T09:45:35+00:00</time>
        <ele>2247.0</ele>
      </trkpt>
      <trkpt lat="44.34451" lon="6.89911">
        <time>2023-04-16T09:45:46+00:00</time>
        <ele>2247.0</ele>
      </trkpt>
      <trkpt lat="44.34451" lon="6.8991">
        <time>2023-04-16T09:46:04+00:00</time>
        <ele>2247.0</ele>
      </trkpt>
      <trkpt lat="44.34452" lon="6.8991">
        <time>2023-04-16T09:46:08+00:00</time>
        <ele>2247.0</ele>
      </trkpt>
      <trkpt lat="44.34452" lon="6.8991">
        <time>2023-04-16T09:46:11+00:00</time>
        <ele>2247.0</ele>
      </trkpt>
      <trkpt lat="44.34452" lon="6.8991">
        <time>2023-04-16T09:46:23+00:00</time>
        <ele>2247.0</ele>
      </trkpt>
      <trkpt lat="44.34452" lon="6.8991">
        <time>2023-04-16T09:46:24+00:00</time>
        <ele>2247.0</ele>
      </trkpt>
      <trkpt lat="44.34452" lon="6.8991">
        <time>2023-04-16T09:46:25+00:00</time>
        <ele>2247.0</ele>
      </trkpt>
      <trkpt lat="44.34452" lon="6.8991">
        <time>2023-04-16T09:46:26+00:00</time>
        <ele>2247.0</ele>
      </trkpt>
      <trkpt lat="44.34452" lon="6.8991">
        <time>2023-04-16T09:46:27+00:00</time>
        <ele>2247.0</ele>
      </trkpt>
      <trkpt lat="44.34452" lon="6.8991">
        <time>2023-04-16T09:46:28+00:00</time>
        <ele>2247.0</ele>
      </trkpt>
      <trkpt lat="44.34452" lon="6.8991">
        <time>2023-04-16T09:46:29+00:00</time>
        <ele>2247.0</ele>
      </trkpt>
      <trkpt lat="44.34452" lon="6.8991">
        <time>2023-04-16T09:46:30+00:00</time>
        <ele>2247.0</ele>
      </trkpt>
      <trkpt lat="44.34452" lon="6.8991">
        <time>2023-04-16T09:46:31+00:00</time>
        <ele>2247.0</ele>
      </trkpt>
      <trkpt lat="44.34452" lon="6.8991">
        <time>2023-04-16T09:46:32+00:00</time>
        <ele>2247.0</ele>
      </trkpt>
      <trkpt lat="44.34452" lon="6.8991">
        <time>2023-04-16T09:46:33+00:00</time>
        <ele>2247.0</ele>
      </trkpt>
      <trkpt lat="44.34452" lon="6.8991">
        <time>2023-04-16T09:46:35+00:00</time>
        <ele>2247.0</ele>
      </trkpt>
      <trkpt lat="44.34452" lon="6.8991">
        <time>2023-04-16T09:46:37+00:00</time>
        <ele>2247.0</ele>
      </trkpt>
      <trkpt lat="44.34452" lon="6.8991">
        <time>2023-04-16T09:46:51+00:00</time>
        <ele>2247.0</ele>
      </trkpt>
      <trkpt lat="44.34452" lon="6.8991">
        <time>2023-04-16T09:47:24+00:00</time>
        <ele>2247.0</ele>
      </trkpt>
      <trkpt lat="44.34452" lon="6.8991">
        <time>2023-04-16T09:47:31+00:00</time>
        <ele>2247.0</ele>
      </trkpt>
      <trkpt lat="44.34452" lon="6.8991">
        <time>2023-04-16T09:47:55+00:00</time>
        <ele>2247.0</ele>
      </trkpt>
      <trkpt lat="44.34452" lon="6.8991">
        <time>2023-04-16T09:48:08+00:00</time>
        <ele>2247.0</ele>
      </trkpt>
      <trkpt lat="44.34452" lon="6.8991">
        <time>2023-04-16T09:48:09+00:00</time>
        <ele>2247.0</ele>
      </trkpt>
      <trkpt lat="44.34451" lon="6.8991">
        <time>2023-04-16T09:48:18+00:00</time>
        <ele>2247.0</ele>
      </trkpt>
      <trkpt lat="44.34451" lon="6.89911">
        <time>2023-04-16T09:48:28+00:00</time>
        <ele>2247.0</ele>
      </trkpt>
      <trkpt lat="44.3445" lon="6.89913">
        <time>2023-04-16T09:48:35+00:00</time>
        <ele>2247.0</ele>
      </trkpt>
      <trkpt lat="44.3445" lon="6.89913">
        <time>2023-04-16T09:48:36+00:00</time>
        <ele>2247.0</ele>
      </trkpt>
      <trkpt lat="44.3445" lon="6.89912">
        <time>2023-04-16T09:48:37+00:00</time>
        <ele>2247.0</ele>
      </trkpt>
      <trkpt lat="44.34451" lon="6.89912">
        <time>2023-04-16T09:48:38+00:00</time>
        <ele>2247.0</ele>
      </trkpt>
      <trkpt lat="44.34451" lon="6.89912">
        <time>2023-04-16T09:48:39+00:00</time>
        <ele>2247.0</ele>
      </trkpt>
      <trkpt lat="44.34451" lon="6.89912">
        <time>2023-04-16T09:48:40+00:00</time>
        <ele>2247.0</ele>
      </trkpt>
      <trkpt lat="44.34451" lon="6.89912">
        <time>2023-04-16T09:48:41+00:00</time>
        <ele>2247.0</ele>
      </trkpt>
      <trkpt lat="44.34451" lon="6.89912">
        <time>2023-04-16T09:48:42+00:00</time>
        <ele>2247.0</ele>
      </trkpt>
      <trkpt lat="44.34451" lon="6.89912">
        <time>2023-04-16T09:48:43+00:00</time>
        <ele>2247.0</ele>
      </trkpt>
      <trkpt lat="44.34451" lon="6.89912">
        <time>2023-04-16T09:48:46+00:00</time>
        <ele>2247.0</ele>
      </trkpt>
      <trkpt lat="44.3445" lon="6.89912">
        <time>2023-04-16T09:48:51+00:00</time>
        <ele>2247.0</ele>
      </trkpt>
      <trkpt lat="44.34451" lon="6.89912">
        <time>2023-04-16T09:48:57+00:00</time>
        <ele>2247.0</ele>
      </trkpt>
      <trkpt lat="44.3445" lon="6.89911">
        <time>2023-04-16T09:49:15+00:00</time>
        <ele>2247.0</ele>
      </trkpt>
      <trkpt lat="44.3445" lon="6.89911">
        <time>2023-04-16T09:49:28+00:00</time>
        <ele>2247.0</ele>
      </trkpt>
      <trkpt lat="44.34439" lon="6.89915">
        <time>2023-04-16T09:49:47+00:00</time>
        <ele>2248.0</ele>
      </trkpt>
      <trkpt lat="44.34438" lon="6.89918">
        <time>2023-04-16T09:49:50+00:00</time>
        <ele>2248.0</ele>
      </trkpt>
      <trkpt lat="44.34437" lon="6.89919">
        <time>2023-04-16T09:49:52+00:00</time>
        <ele>2248.0</ele>
      </trkpt>
      <trkpt lat="44.34436" lon="6.89919">
        <time>2023-04-16T09:49:53+00:00</time>
        <ele>2248.0</ele>
      </trkpt>
      <trkpt lat="44.34434" lon="6.89922">
        <time>2023-04-16T09:49:59+00:00</time>
        <ele>2249.0</ele>
      </trkpt>
      <trkpt lat="44.34434" lon="6.89922">
        <time>2023-04-16T09:50:01+00:00</time>
        <ele>2249.0</ele>
      </trkpt>
      <trkpt lat="44.34432" lon="6.89926">
        <time>2023-04-16T09:50:07+00:00</time>
        <ele>2249.0</ele>
      </trkpt>
      <trkpt lat="44.34432" lon="6.89927">
        <time>2023-04-16T09:50:08+00:00</time>
        <ele>2249.0</ele>
      </trkpt>
      <trkpt lat="44.3443" lon="6.89928">
        <time>2023-04-16T09:50:10+00:00</time>
        <ele>2250.0</ele>
      </trkpt>
      <trkpt lat="44.3443" lon="6.89929">
        <time>2023-04-16T09:50:11+00:00</time>
        <ele>2250.0</ele>
      </trkpt>
      <trkpt lat="44.34426" lon="6.89933">
        <time>2023-04-16T09:50:20+00:00</time>
        <ele>2251.0</ele>
      </trkpt>
      <trkpt lat="44.34426" lon="6.89933">
        <time>2023-04-16T09:50:21+00:00</time>
        <ele>2251.0</ele>
      </trkpt>
      <trkpt lat="44.34426" lon="6.89933">
        <time>2023-04-16T09:50:22+00:00</time>
        <ele>2251.0</ele>
      </trkpt>
      <trkpt lat="44.34424" lon="6.89936">
        <time>2023-04-16T09:50:27+00:00</time>
        <ele>2251.0</ele>
      </trkpt>
      <trkpt lat="44.34424" lon="6.89937">
        <time>2023-04-16T09:50:28+00:00</time>
        <ele>2251.0</ele>
      </trkpt>
      <trkpt lat="44.34421" lon="6.8994">
        <time>2023-04-16T09:50:32+00:00</time>
        <ele>2251.0</ele>
      </trkpt>
      <trkpt lat="44.34413" lon="6.8995">
        <time>2023-04-16T09:50:43+00:00</time>
        <ele>2253.0</ele>
      </trkpt>
      <trkpt lat="44.34412" lon="6.89951">
        <time>2023-04-16T09:50:45+00:00</time>
        <ele>2253.0</ele>
      </trkpt>
      <trkpt lat="44.34409" lon="6.89954">
        <time>2023-04-16T09:50:50+00:00</time>
        <ele>2254.0</ele>
      </trkpt>
      <trkpt lat="44.34407" lon="6.89955">
        <time>2023-04-16T09:50:54+00:00</time>
        <ele>2254.0</ele>
      </trkpt>
      <trkpt lat="44.34405" lon="6.89955">
        <time>2023-04-16T09:50:57+00:00</time>
        <ele>2254.0</ele>
      </trkpt>
      <trkpt lat="44.34401" lon="6.89956">
        <time>2023-04-16T09:51:01+00:00</time>
        <ele>2255.0</ele>
      </trkpt>
      <trkpt lat="44.34398" lon="6.89957">
        <time>2023-04-16T09:51:04+00:00</time>
        <ele>2256.0</ele>
      </trkpt>
      <trkpt lat="44.34395" lon="6.89956">
        <time>2023-04-16T09:51:07+00:00</time>
        <ele>2256.0</ele>
      </trkpt>
      <trkpt lat="44.3439" lon="6.89954">
        <time>2023-04-16T09:51:13+00:00</time>
        <ele>2258.0</ele>
      </trkpt>
      <trkpt lat="44.34387" lon="6.89953">
        <time>2023-04-16T09:51:17+00:00</time>
        <ele>2259.0</ele>
      </trkpt>
      <trkpt lat="44.34385" lon="6.89953">
        <time>2023-04-16T09:51:20+00:00</time>
        <ele>2259.0</ele>
      </trkpt>
      <trkpt lat="44.34384" lon="6.89953">
        <time>2023-04-16T09:51:21+00:00</time>
        <ele>2260.0</ele>
      </trkpt>
      <trkpt lat="44.34384" lon="6.89952">
        <time>2023-04-16T09:51:22+00:00</time>
        <ele>2260.0</ele>
      </trkpt>
      <trkpt lat="44.3438" lon="6.8995">
        <time>2023-04-16T09:51:28+00:00</time>
        <ele>2261.0</ele>
      </trkpt>
      <trkpt lat="44.34378" lon="6.89949">
        <time>2023-04-16T09:51:39+00:00</time>
        <ele>2262.0</ele>
      </trkpt>
      <trkpt lat="44.34374" lon="6.89945">
        <time>2023-04-16T09:51:46+00:00</time>
        <ele>2264.0</ele>
      </trkpt>
      <trkpt lat="44.3437" lon="6.89942">
        <time>2023-04-16T09:51:52+00:00</time>
        <ele>2265.0</ele>
      </trkpt>
      <trkpt lat="44.34368" lon="6.8994">
        <time>2023-04-16T09:51:57+00:00</time>
        <ele>2266.0</ele>
      </trkpt>
      <trkpt lat="44.34365" lon="6.89937">
        <time>2023-04-16T09:52:02+00:00</time>
        <ele>2268.0</ele>
      </trkpt>
      <trkpt lat="44.34363" lon="6.89937">
        <time>2023-04-16T09:52:07+00:00</time>
        <ele>2269.0</ele>
      </trkpt>
      <trkpt lat="44.34362" lon="6.8994">
        <time>2023-04-16T09:52:11+00:00</time>
        <ele>2269.0</ele>
      </trkpt>
      <trkpt lat="44.34361" lon="6.89942">
        <time>2023-04-16T09:52:14+00:00</time>
        <ele>2270.0</ele>
      </trkpt>
      <trkpt lat="44.3436" lon="6.89944">
        <time>2023-04-16T09:52:16+00:00</time>
        <ele>2271.0</ele>
      </trkpt>
      <trkpt lat="44.3436" lon="6.89945">
        <time>2023-04-16T09:52:17+00:00</time>
        <ele>2271.0</ele>
      </trkpt>
      <trkpt lat="44.3436" lon="6.89949">
        <time>2023-04-16T09:52:21+00:00</time>
        <ele>2271.0</ele>
      </trkpt>
      <trkpt lat="44.34358" lon="6.89953">
        <time>2023-04-16T09:52:25+00:00</time>
        <ele>2272.0</ele>
      </trkpt>
      <trkpt lat="44.34357" lon="6.89955">
        <time>2023-04-16T09:52:27+00:00</time>
        <ele>2273.0</ele>
      </trkpt>
      <trkpt lat="44.34357" lon="6.89955">
        <time>2023-04-16T09:52:28+00:00</time>
        <ele>2273.0</ele>
      </trkpt>
      <trkpt lat="44.34357" lon="6.89961">
        <time>2023-04-16T09:52:35+00:00</time>
        <ele>2273.0</ele>
      </trkpt>
      <trkpt lat="44.34356" lon="6.89966">
        <time>2023-04-16T09:52:41+00:00</time>
        <ele>2274.0</ele>
      </trkpt>
      <trkpt lat="44.34356" lon="6.89967">
        <time>2023-04-16T09:52:42+00:00</time>
        <ele>2274.0</ele>
      </trkpt>
      <trkpt lat="44.34356" lon="6.89968">
        <time>2023-04-16T09:52:44+00:00</time>
        <ele>2274.0</ele>
      </trkpt>
      <trkpt lat="44.34355" lon="6.89969">
        <time>2023-04-16T09:52:46+00:00</time>
        <ele>2275.0</ele>
      </trkpt>
      <trkpt lat="44.34356" lon="6.89971">
        <time>2023-04-16T09:52:48+00:00</time>
        <ele>2275.0</ele>
      </trkpt>
      <trkpt lat="44.34355" lon="6.89971">
        <time>2023-04-16T09:52:49+00:00</time>
        <ele>2275.0</ele>
      </trkpt>
      <trkpt lat="44.34354" lon="6.89976">
        <time>2023-04-16T09:52:54+00:00</time>
        <ele>2276.0</ele>
      </trkpt>
      <trkpt lat="44.34353" lon="6.89978">
        <time>2023-04-16T09:52:56+00:00</time>
        <ele>2277.0</ele>
      </trkpt>
      <trkpt lat="44.34353" lon="6.89979">
        <time>2023-04-16T09:52:57+00:00</time>
        <ele>2277.0</ele>
      </trkpt>
      <trkpt lat="44.34352" lon="6.8998">
        <time>2023-04-16T09:52:58+00:00</time>
        <ele>2277.0</ele>
      </trkpt>
      <trkpt lat="44.34353" lon="6.89981">
        <time>2023-04-16T09:52:59+00:00</time>
        <ele>2277.0</ele>
      </trkpt>
      <trkpt lat="44.34351" lon="6.89984">
        <time>2023-04-16T09:53:04+00:00</time>
        <ele>2278.0</ele>
      </trkpt>
      <trkpt lat="44.34351" lon="6.89985">
        <time>2023-04-16T09:53:05+00:00</time>
        <ele>2278.0</ele>
      </trkpt>
      <trkpt lat="44.3435" lon="6.89985">
        <time>2023-04-16T09:53:07+00:00</time>
        <ele>2279.0</ele>
      </trkpt>
      <trkpt lat="44.34351" lon="6.89985">
        <time>2023-04-16T09:53:09+00:00</time>
        <ele>2278.0</ele>
      </trkpt>
      <trkpt lat="44.34348" lon="6.8998">
        <time>2023-04-16T09:53:19+00:00</time>
        <ele>2279.0</ele>
      </trkpt>
      <trkpt lat="44.34346" lon="6.89977">
        <time>2023-04-16T09:53:23+00:00</time>
        <ele>2280.0</ele>
      </trkpt>
      <trkpt lat="44.34343" lon="6.89973">
        <time>2023-04-16T09:53:28+00:00</time>
        <ele>2281.0</ele>
      </trkpt>
      <trkpt lat="44.34342" lon="6.89972">
        <time>2023-04-16T09:53:29+00:00</time>
        <ele>2282.0</ele>
      </trkpt>
      <trkpt lat="44.34341" lon="6.89971">
        <time>2023-04-16T09:53:30+00:00</time>
        <ele>2282.0</ele>
      </trkpt>
      <trkpt lat="44.3434" lon="6.8997">
        <time>2023-04-16T09:53:31+00:00</time>
        <ele>2282.0</ele>
      </trkpt>
      <trkpt lat="44.34339" lon="6.89969">
        <time>2023-04-16T09:53:32+00:00</time>
        <ele>2283.0</ele>
      </trkpt>
      <trkpt lat="44.34338" lon="6.89967">
        <time>2023-04-16T09:53:34+00:00</time>
        <ele>2283.0</ele>
      </trkpt>
      <trkpt lat="44.34337" lon="6.89966">
        <time>2023-04-16T09:53:35+00:00</time>
        <ele>2283.0</ele>
      </trkpt>
      <trkpt lat="44.34336" lon="6.89964">
        <time>2023-04-16T09:53:38+00:00</time>
        <ele>2283.0</ele>
      </trkpt>
      <trkpt lat="44.34335" lon="6.89961">
        <time>2023-04-16T09:53:50+00:00</time>
        <ele>2284.0</ele>
      </trkpt>
      <trkpt lat="44.34335" lon="6.8996">
        <time>2023-04-16T09:54:01+00:00</time>
        <ele>2284.0</ele>
      </trkpt>
      <trkpt lat="44.3433" lon="6.89955">
        <time>2023-04-16T09:54:09+00:00</time>
        <ele>2285.0</ele>
      </trkpt>
      <trkpt lat="44.34329" lon="6.89954">
        <time>2023-04-16T09:54:11+00:00</time>
        <ele>2286.0</ele>
      </trkpt>
      <trkpt lat="44.34328" lon="6.89954">
        <time>2023-04-16T09:54:14+00:00</time>
        <ele>2286.0</ele>
      </trkpt>
      <trkpt lat="44.34326" lon="6.89954">
        <time>2023-04-16T09:54:17+00:00</time>
        <ele>2287.0</ele>
      </trkpt>
      <trkpt lat="44.34324" lon="6.89954">
        <time>2023-04-16T09:54:20+00:00</time>
        <ele>2288.0</ele>
      </trkpt>
      <trkpt lat="44.34321" lon="6.89954">
        <time>2023-04-16T09:54:23+00:00</time>
        <ele>2289.0</ele>
      </trkpt>
      <trkpt lat="44.3432" lon="6.89954">
        <time>2023-04-16T09:54:27+00:00</time>
        <ele>2289.0</ele>
      </trkpt>
      <trkpt lat="44.34317" lon="6.89952">
        <time>2023-04-16T09:54:33+00:00</time>
        <ele>2290.0</ele>
      </trkpt>
      <trkpt lat="44.34314" lon="6.8995">
        <time>2023-04-16T09:54:38+00:00</time>
        <ele>2291.0</ele>
      </trkpt>
      <trkpt lat="44.3431" lon="6.89948">
        <time>2023-04-16T09:54:43+00:00</time>
        <ele>2292.0</ele>
      </trkpt>
      <trkpt lat="44.34309" lon="6.89947">
        <time>2023-04-16T09:54:45+00:00</time>
        <ele>2292.0</ele>
      </trkpt>
      <trkpt lat="44.34306" lon="6.89945">
        <time>2023-04-16T09:54:50+00:00</time>
        <ele>2293.0</ele>
      </trkpt>
      <trkpt lat="44.34303" lon="6.89945">
        <time>2023-04-16T09:54:54+00:00</time>
        <ele>2294.0</ele>
      </trkpt>
      <trkpt lat="44.343" lon="6.89946">
        <time>2023-04-16T09:54:57+00:00</time>
        <ele>2294.0</ele>
      </trkpt>
      <trkpt lat="44.34299" lon="6.89947">
        <time>2023-04-16T09:55:00+00:00</time>
        <ele>2294.0</ele>
      </trkpt>
      <trkpt lat="44.34298" lon="6.89948">
        <time>2023-04-16T09:55:01+00:00</time>
        <ele>2295.0</ele>
      </trkpt>
      <trkpt lat="44.34296" lon="6.89949">
        <time>2023-04-16T09:55:03+00:00</time>
        <ele>2295.0</ele>
      </trkpt>
      <trkpt lat="44.34295" lon="6.8995">
        <time>2023-04-16T09:55:05+00:00</time>
        <ele>2295.0</ele>
      </trkpt>
      <trkpt lat="44.34295" lon="6.8995">
        <time>2023-04-16T09:55:06+00:00</time>
        <ele>2295.0</ele>
      </trkpt>
      <trkpt lat="44.34294" lon="6.89951">
        <time>2023-04-16T09:55:07+00:00</time>
        <ele>2295.0</ele>
      </trkpt>
      <trkpt lat="44.34294" lon="6.89951">
        <time>2023-04-16T09:55:08+00:00</time>
        <ele>2295.0</ele>
      </trkpt>
      <trkpt lat="44.34293" lon="6.89952">
        <time>2023-04-16T09:55:10+00:00</time>
        <ele>2296.0</ele>
      </trkpt>
      <trkpt lat="44.34291" lon="6.89954">
        <time>2023-04-16T09:55:13+00:00</time>
        <ele>2296.0</ele>
      </trkpt>
      <trkpt lat="44.34288" lon="6.89961">
        <time>2023-04-16T09:55:22+00:00</time>
        <ele>2298.0</ele>
      </trkpt>
      <trkpt lat="44.34286" lon="6.89967">
        <time>2023-04-16T09:55:28+00:00</time>
        <ele>2299.0</ele>
      </trkpt>
      <trkpt lat="44.34286" lon="6.89968">
        <time>2023-04-16T09:55:29+00:00</time>
        <ele>2299.0</ele>
      </trkpt>
      <trkpt lat="44.34286" lon="6.89969">
        <time>2023-04-16T09:55:30+00:00</time>
        <ele>2299.0</ele>
      </trkpt>
      <trkpt lat="44.34286" lon="6.89972">
        <time>2023-04-16T09:55:33+00:00</time>
        <ele>2299.0</ele>
      </trkpt>
      <trkpt lat="44.34285" lon="6.89976">
        <time>2023-04-16T09:55:39+00:00</time>
        <ele>2300.0</ele>
      </trkpt>
      <trkpt lat="44.34285" lon="6.89976">
        <time>2023-04-16T09:55:40+00:00</time>
        <ele>2300.0</ele>
      </trkpt>
      <trkpt lat="44.34285" lon="6.89976">
        <time>2023-04-16T09:55:41+00:00</time>
        <ele>2300.0</ele>
      </trkpt>
      <trkpt lat="44.34285" lon="6.89977">
        <time>2023-04-16T09:55:48+00:00</time>
        <ele>2300.0</ele>
      </trkpt>
      <trkpt lat="44.34285" lon="6.89977">
        <time>2023-04-16T09:55:51+00:00</time>
        <ele>2300.0</ele>
      </trkpt>
      <trkpt lat="44.34285" lon="6.89977">
        <time>2023-04-16T09:55:54+00:00</time>
        <ele>2300.0</ele>
      </trkpt>
      <trkpt lat="44.34285" lon="6.89988">
        <time>2023-04-16T09:56:04+00:00</time>
        <ele>2301.0</ele>
      </trkpt>
      <trkpt lat="44.34285" lon="6.8999">
        <time>2023-04-16T09:56:06+00:00</time>
        <ele>2301.0</ele>
      </trkpt>
      <trkpt lat="44.34284" lon="6.89995">
        <time>2023-04-16T09:56:10+00:00</time>
        <ele>2302.0</ele>
      </trkpt>
      <trkpt lat="44.34283" lon="6.90001">
        <time>2023-04-16T09:56:16+00:00</time>
        <ele>2303.0</ele>
      </trkpt>
      <trkpt lat="44.34283" lon="6.90004">
        <time>2023-04-16T09:56:19+00:00</time>
        <ele>2303.0</ele>
      </trkpt>
      <trkpt lat="44.34283" lon="6.90007">
        <time>2023-04-16T09:56:21+00:00</time>
        <ele>2303.0</ele>
      </trkpt>
      <trkpt lat="44.34283" lon="6.90009">
        <time>2023-04-16T09:56:23+00:00</time>
        <ele>2304.0</ele>
      </trkpt>
      <trkpt lat="44.34282" lon="6.90012">
        <time>2023-04-16T09:56:26+00:00</time>
        <ele>2304.0</ele>
      </trkpt>
      <trkpt lat="44.34282" lon="6.90015">
        <time>2023-04-16T09:56:28+00:00</time>
        <ele>2304.0</ele>
      </trkpt>
      <trkpt lat="44.34281" lon="6.90019">
        <time>2023-04-16T09:56:32+00:00</time>
        <ele>2305.0</ele>
      </trkpt>
      <trkpt lat="44.3428" lon="6.90019">
        <time>2023-04-16T09:56:33+00:00</time>
        <ele>2305.0</ele>
      </trkpt>
      <trkpt lat="44.3428" lon="6.90022">
        <time>2023-04-16T09:56:36+00:00</time>
        <ele>2305.0</ele>
      </trkpt>
      <trkpt lat="44.34278" lon="6.90027">
        <time>2023-04-16T09:56:41+00:00</time>
        <ele>2306.0</ele>
      </trkpt>
      <trkpt lat="44.34278" lon="6.90028">
        <time>2023-04-16T09:56:42+00:00</time>
        <ele>2306.0</ele>
      </trkpt>
      <trkpt lat="44.34277" lon="6.90031">
        <time>2023-04-16T09:56:44+00:00</time>
        <ele>2306.0</ele>
      </trkpt>
      <trkpt lat="44.34277" lon="6.90033">
        <time>2023-04-16T09:56:46+00:00</time>
        <ele>2306.0</ele>
      </trkpt>
      <trkpt lat="44.34276" lon="6.90038">
        <time>2023-04-16T09:56:51+00:00</time>
        <ele>2307.0</ele>
      </trkpt>
      <trkpt lat="44.34275" lon="6.90044">
        <time>2023-04-16T09:56:57+00:00</time>
        <ele>2307.0</ele>
      </trkpt>
      <trkpt lat="44.34275" lon="6.90046">
        <time>2023-04-16T09:56:59+00:00</time>
        <ele>2308.0</ele>
      </trkpt>
      <trkpt lat="44.34275" lon="6.90047">
        <time>2023-04-16T09:57:00+00:00</time>
        <ele>2308.0</ele>
      </trkpt>
      <trkpt lat="44.34275" lon="6.9005">
        <time>2023-04-16T09:57:02+00:00</time>
        <ele>2308.0</ele>
      </trkpt>
      <trkpt lat="44.34274" lon="6.90057">
        <time>2023-04-16T09:57:08+00:00</time>
        <ele>2310.0</ele>
      </trkpt>
      <trkpt lat="44.34274" lon="6.90058">
        <time>2023-04-16T09:57:09+00:00</time>
        <ele>2310.0</ele>
      </trkpt>
      <trkpt lat="44.34274" lon="6.9006">
        <time>2023-04-16T09:57:11+00:00</time>
        <ele>2310.0</ele>
      </trkpt>
      <trkpt lat="44.34274" lon="6.90061">
        <time>2023-04-16T09:57:12+00:00</time>
        <ele>2310.0</ele>
      </trkpt>
      <trkpt lat="44.34274" lon="6.90063">
        <time>2023-04-16T09:57:14+00:00</time>
        <ele>2311.0</ele>
      </trkpt>
      <trkpt lat="44.34273" lon="6.90066">
        <time>2023-04-16T09:57:17+00:00</time>
        <ele>2311.0</ele>
      </trkpt>
      <trkpt lat="44.34274" lon="6.90073">
        <time>2023-04-16T09:57:23+00:00</time>
        <ele>2312.0</ele>
      </trkpt>
      <trkpt lat="44.34278" lon="6.90085">
        <time>2023-04-16T09:57:34+00:00</time>
        <ele>2314.0</ele>
      </trkpt>
      <trkpt lat="44.34279" lon="6.90087">
        <time>2023-04-16T09:57:36+00:00</time>
        <ele>2314.0</ele>
      </trkpt>
      <trkpt lat="44.34279" lon="6.90092">
        <time>2023-04-16T09:57:41+00:00</time>
        <ele>2315.0</ele>
      </trkpt>
      <trkpt lat="44.34278" lon="6.90097">
        <time>2023-04-16T09:57:46+00:00</time>
        <ele>2315.0</ele>
      </trkpt>
      <trkpt lat="44.34274" lon="6.90105">
        <time>2023-04-16T09:57:54+00:00</time>
        <ele>2316.0</ele>
      </trkpt>
      <trkpt lat="44.34274" lon="6.90106">
        <time>2023-04-16T09:57:55+00:00</time>
        <ele>2316.0</ele>
      </trkpt>
      <trkpt lat="44.34273" lon="6.90109">
        <time>2023-04-16T09:57:59+00:00</time>
        <ele>2316.0</ele>
      </trkpt>
      <trkpt lat="44.34272" lon="6.90112">
        <time>2023-04-16T09:58:02+00:00</time>
        <ele>2317.0</ele>
      </trkpt>
      <trkpt lat="44.3427" lon="6.90116">
        <time>2023-04-16T09:58:06+00:00</time>
        <ele>2317.0</ele>
      </trkpt>
      <trkpt lat="44.34267" lon="6.90123">
        <time>2023-04-16T09:58:12+00:00</time>
        <ele>2317.0</ele>
      </trkpt>
      <trkpt lat="44.34263" lon="6.90127">
        <time>2023-04-16T09:58:18+00:00</time>
        <ele>2318.0</ele>
      </trkpt>
      <trkpt lat="44.34262" lon="6.90129">
        <time>2023-04-16T09:58:20+00:00</time>
        <ele>2318.0</ele>
      </trkpt>
      <trkpt lat="44.34258" lon="6.90139">
        <time>2023-04-16T09:58:30+00:00</time>
        <ele>2319.0</ele>
      </trkpt>
      <trkpt lat="44.34255" lon="6.90145">
        <time>2023-04-16T09:58:36+00:00</time>
        <ele>2320.0</ele>
      </trkpt>
      <trkpt lat="44.34252" lon="6.90151">
        <time>2023-04-16T09:58:42+00:00</time>
        <ele>2320.0</ele>
      </trkpt>
      <trkpt lat="44.34247" lon="6.90161">
        <time>2023-04-16T09:58:52+00:00</time>
        <ele>2321.0</ele>
      </trkpt>
      <trkpt lat="44.34244" lon="6.90169">
        <time>2023-04-16T09:59:00+00:00</time>
        <ele>2321.0</ele>
      </trkpt>
      <trkpt lat="44.34243" lon="6.90171">
        <time>2023-04-16T09:59:02+00:00</time>
        <ele>2321.0</ele>
      </trkpt>
      <trkpt lat="44.34238" lon="6.90181">
        <time>2023-04-16T09:59:12+00:00</time>
        <ele>2321.0</ele>
      </trkpt>
      <trkpt lat="44.34235" lon="6.90187">
        <time>2023-04-16T10:00:05+00:00</time>
        <ele>2321.0</ele>
      </trkpt>
      <trkpt lat="44.34235" lon="6.90187">
        <time>2023-04-16T10:00:11+00:00</time>
        <ele>2321.0</ele>
      </trkpt>
      <trkpt lat="44.34235" lon="6.90187">
        <time>2023-04-16T10:00:16+00:00</time>
        <ele>2321.0</ele>
      </trkpt>
      <trkpt lat="44.34235" lon="6.90187">
        <time>2023-04-16T10:00:32+00:00</time>
        <ele>2321.0</ele>
      </trkpt>
      <trkpt lat="44.34233" lon="6.90194">
        <time>2023-04-16T10:00:40+00:00</time>
        <ele>2321.0</ele>
      </trkpt>
      <trkpt lat="44.34231" lon="6.90203">
        <time>2023-04-16T10:00:45+00:00</time>
        <ele>2321.0</ele>
      </trkpt>
      <trkpt lat="44.34231" lon="6.90204">
        <time>2023-04-16T10:00:47+00:00</time>
        <ele>2321.0</ele>
      </trkpt>
      <trkpt lat="44.34231" lon="6.90205">
        <time>2023-04-16T10:00:49+00:00</time>
        <ele>2321.0</ele>
      </trkpt>
      <trkpt lat="44.34231" lon="6.90205">
        <time>2023-04-16T10:00:50+00:00</time>
        <ele>2321.0</ele>
      </trkpt>
      <trkpt lat="44.34231" lon="6.90205">
        <time>2023-04-16T10:00:51+00:00</time>
        <ele>2321.0</ele>
      </trkpt>
      <trkpt lat="44.34231" lon="6.90204">
        <time>2023-04-16T10:00:52+00:00</time>
        <ele>2321.0</ele>
      </trkpt>
      <trkpt lat="44.34231" lon="6.90204">
        <time>2023-04-16T10:00:53+00:00</time>
        <ele>2321.0</ele>
      </trkpt>
      <trkpt lat="44.34231" lon="6.90203">
        <time>2023-04-16T10:00:54+00:00</time>
        <ele>2321.0</ele>
      </trkpt>
      <trkpt lat="44.34231" lon="6.90203">
        <time>2023-04-16T10:00:55+00:00</time>
        <ele>2321.0</ele>
      </trkpt>
      <trkpt lat="44.34231" lon="6.90204">
        <time>2023-04-16T10:00:56+00:00</time>
        <ele>2321.0</ele>
      </trkpt>
      <trkpt lat="44.34231" lon="6.90204">
        <time>2023-04-16T10:01:02+00:00</time>
        <ele>2321.0</ele>
      </trkpt>
      <trkpt lat="44.3423" lon="6.90208">
        <time>2023-04-16T10:01:04+00:00</time>
        <ele>2321.0</ele>
      </trkpt>
      <trkpt lat="44.34229" lon="6.90209">
        <time>2023-04-16T10:01:05+00:00</time>
        <ele>2321.0</ele>
      </trkpt>
      <trkpt lat="44.34228" lon="6.90212">
        <time>2023-04-16T10:01:06+00:00</time>
        <ele>2321.0</ele>
      </trkpt>
      <trkpt lat="44.34226" lon="6.90216">
        <time>2023-04-16T10:01:08+00:00</time>
        <ele>2321.0</ele>
      </trkpt>
      <trkpt lat="44.34223" lon="6.90224">
        <time>2023-04-16T10:01:12+00:00</time>
        <ele>2320.0</ele>
      </trkpt>
      <trkpt lat="44.34219" lon="6.90236">
        <time>2023-04-16T10:01:17+00:00</time>
        <ele>2319.0</ele>
      </trkpt>
      <trkpt lat="44.34218" lon="6.90244">
        <time>2023-04-16T10:01:21+00:00</time>
        <ele>2320.0</ele>
      </trkpt>
      <trkpt lat="44.34213" lon="6.90262">
        <time>2023-04-16T10:01:29+00:00</time>
        <ele>2319.0</ele>
      </trkpt>
      <trkpt lat="44.34209" lon="6.90276">
        <time>2023-04-16T10:01:35+00:00</time>
        <ele>2318.0</ele>
      </trkpt>
      <trkpt lat="44.34203" lon="6.90291">
        <time>2023-04-16T10:01:42+00:00</time>
        <ele>2317.0</ele>
      </trkpt>
      <trkpt lat="44.34191" lon="6.90313">
        <time>2023-04-16T10:01:54+00:00</time>
        <ele>2317.0</ele>
      </trkpt>
      <trkpt lat="44.3419" lon="6.90314">
        <time>2023-04-16T10:01:55+00:00</time>
        <ele>2317.0</ele>
      </trkpt>
      <trkpt lat="44.34188" lon="6.90316">
        <time>2023-04-16T10:01:57+00:00</time>
        <ele>2317.0</ele>
      </trkpt>
      <trkpt lat="44.34182" lon="6.90324">
        <time>2023-04-16T10:02:04+00:00</time>
        <ele>2317.0</ele>
      </trkpt>
      <trkpt lat="44.34163" lon="6.9035">
        <time>2023-04-16T10:02:30+00:00</time>
        <ele>2319.0</ele>
      </trkpt>
      <trkpt lat="44.34159" lon="6.90354">
        <time>2023-04-16T10:02:34+00:00</time>
        <ele>2319.0</ele>
      </trkpt>
      <trkpt lat="44.34153" lon="6.90363">
        <time>2023-04-16T10:02:44+00:00</time>
        <ele>2320.0</ele>
      </trkpt>
      <trkpt lat="44.34147" lon="6.90368">
        <time>2023-04-16T10:02:51+00:00</time>
        <ele>2321.0</ele>
      </trkpt>
      <trkpt lat="44.34146" lon="6.90369">
        <time>2023-04-16T10:02:53+00:00</time>
        <ele>2321.0</ele>
      </trkpt>
      <trkpt lat="44.34144" lon="6.90371">
        <time>2023-04-16T10:02:56+00:00</time>
        <ele>2321.0</ele>
      </trkpt>
      <trkpt lat="44.34142" lon="6.90374">
        <time>2023-04-16T10:03:00+00:00</time>
        <ele>2322.0</ele>
      </trkpt>
      <trkpt lat="44.34142" lon="6.90376">
        <time>2023-04-16T10:03:02+00:00</time>
        <ele>2323.0</ele>
      </trkpt>
      <trkpt lat="44.3414" lon="6.90377">
        <time>2023-04-16T10:03:04+00:00</time>
        <ele>2323.0</ele>
      </trkpt>
      <trkpt lat="44.34134" lon="6.90383">
        <time>2023-04-16T10:03:11+00:00</time>
        <ele>2324.0</ele>
      </trkpt>
      <trkpt lat="44.34131" lon="6.90387">
        <time>2023-04-16T10:03:15+00:00</time>
        <ele>2324.0</ele>
      </trkpt>
      <trkpt lat="44.34125" lon="6.90395">
        <time>2023-04-16T10:03:26+00:00</time>
        <ele>2325.0</ele>
      </trkpt>
      <trkpt lat="44.34123" lon="6.90397">
        <time>2023-04-16T10:03:28+00:00</time>
        <ele>2326.0</ele>
      </trkpt>
      <trkpt lat="44.34123" lon="6.90396">
        <time>2023-04-16T10:03:35+00:00</time>
        <ele>2325.0</ele>
      </trkpt>
      <trkpt lat="44.34121" lon="6.90397">
        <time>2023-04-16T10:03:46+00:00</time>
        <ele>2325.0</ele>
      </trkpt>
      <trkpt lat="44.34116" lon="6.90401">
        <time>2023-04-16T10:03:53+00:00</time>
        <ele>2326.0</ele>
      </trkpt>
      <trkpt lat="44.34112" lon="6.90405">
        <time>2023-04-16T10:03:58+00:00</time>
        <ele>2326.0</ele>
      </trkpt>
      <trkpt lat="44.34107" lon="6.90415">
        <time>2023-04-16T10:04:08+00:00</time>
        <ele>2328.0</ele>
      </trkpt>
      <trkpt lat="44.34103" lon="6.90422">
        <time>2023-04-16T10:04:16+00:00</time>
        <ele>2329.0</ele>
      </trkpt>
      <trkpt lat="44.34099" lon="6.9043">
        <time>2023-04-16T10:04:23+00:00</time>
        <ele>2330.0</ele>
      </trkpt>
      <trkpt lat="44.34096" lon="6.90435">
        <time>2023-04-16T10:04:29+00:00</time>
        <ele>2331.0</ele>
      </trkpt>
      <trkpt lat="44.34093" lon="6.90441">
        <time>2023-04-16T10:04:35+00:00</time>
        <ele>2332.0</ele>
      </trkpt>
      <trkpt lat="44.34091" lon="6.90446">
        <time>2023-04-16T10:04:41+00:00</time>
        <ele>2332.0</ele>
      </trkpt>
      <trkpt lat="44.3409" lon="6.90448">
        <time>2023-04-16T10:04:43+00:00</time>
        <ele>2333.0</ele>
      </trkpt>
      <trkpt lat="44.3409" lon="6.9045">
        <time>2023-04-16T10:04:45+00:00</time>
        <ele>2333.0</ele>
      </trkpt>
      <trkpt lat="44.34088" lon="6.90454">
        <time>2023-04-16T10:04:50+00:00</time>
        <ele>2333.0</ele>
      </trkpt>
      <trkpt lat="44.34088" lon="6.90455">
        <time>2023-04-16T10:04:51+00:00</time>
        <ele>2334.0</ele>
      </trkpt>
      <trkpt lat="44.34088" lon="6.90456">
        <time>2023-04-16T10:04:52+00:00</time>
        <ele>2334.0</ele>
      </trkpt>
      <trkpt lat="44.34088" lon="6.90457">
        <time>2023-04-16T10:04:53+00:00</time>
        <ele>2334.0</ele>
      </trkpt>
      <trkpt lat="44.34087" lon="6.90458">
        <time>2023-04-16T10:04:54+00:00</time>
        <ele>2334.0</ele>
      </trkpt>
      <trkpt lat="44.34087" lon="6.90458">
        <time>2023-04-16T10:04:55+00:00</time>
        <ele>2334.0</ele>
      </trkpt>
      <trkpt lat="44.34087" lon="6.9046">
        <time>2023-04-16T10:04:56+00:00</time>
        <ele>2334.0</ele>
      </trkpt>
      <trkpt lat="44.34087" lon="6.9046">
        <time>2023-04-16T10:04:57+00:00</time>
        <ele>2334.0</ele>
      </trkpt>
      <trkpt lat="44.34086" lon="6.90462">
        <time>2023-04-16T10:04:58+00:00</time>
        <ele>2334.0</ele>
      </trkpt>
      <trkpt lat="44.34086" lon="6.90463">
        <time>2023-04-16T10:04:59+00:00</time>
        <ele>2335.0</ele>
      </trkpt>
      <trkpt lat="44.34086" lon="6.90464">
        <time>2023-04-16T10:05:00+00:00</time>
        <ele>2335.0</ele>
      </trkpt>
      <trkpt lat="44.34085" lon="6.90465">
        <time>2023-04-16T10:05:02+00:00</time>
        <ele>2335.0</ele>
      </trkpt>
      <trkpt lat="44.34084" lon="6.90469">
        <time>2023-04-16T10:05:06+00:00</time>
        <ele>2335.0</ele>
      </trkpt>
      <trkpt lat="44.34083" lon="6.9047">
        <time>2023-04-16T10:05:07+00:00</time>
        <ele>2335.0</ele>
      </trkpt>
      <trkpt lat="44.34083" lon="6.90474">
        <time>2023-04-16T10:05:10+00:00</time>
        <ele>2336.0</ele>
      </trkpt>
      <trkpt lat="44.34082" lon="6.90477">
        <time>2023-04-16T10:05:13+00:00</time>
        <ele>2336.0</ele>
      </trkpt>
      <trkpt lat="44.34082" lon="6.90482">
        <time>2023-04-16T10:05:17+00:00</time>
        <ele>2336.0</ele>
      </trkpt>
      <trkpt lat="44.34077" lon="6.90492">
        <time>2023-04-16T10:05:26+00:00</time>
        <ele>2337.0</ele>
      </trkpt>
      <trkpt lat="44.34076" lon="6.90493">
        <time>2023-04-16T10:05:28+00:00</time>
        <ele>2337.0</ele>
      </trkpt>
      <trkpt lat="44.34074" lon="6.90496">
        <time>2023-04-16T10:05:32+00:00</time>
        <ele>2337.0</ele>
      </trkpt>
      <trkpt lat="44.34073" lon="6.90497">
        <time>2023-04-16T10:05:33+00:00</time>
        <ele>2337.0</ele>
      </trkpt>
      <trkpt lat="44.34072" lon="6.90499">
        <time>2023-04-16T10:05:35+00:00</time>
        <ele>2337.0</ele>
      </trkpt>
      <trkpt lat="44.34072" lon="6.905">
        <time>2023-04-16T10:05:36+00:00</time>
        <ele>2337.0</ele>
      </trkpt>
      <trkpt lat="44.34072" lon="6.90501">
        <time>2023-04-16T10:05:37+00:00</time>
        <ele>2337.0</ele>
      </trkpt>
      <trkpt lat="44.34071" lon="6.90503">
        <time>2023-04-16T10:05:40+00:00</time>
        <ele>2338.0</ele>
      </trkpt>
      <trkpt lat="44.3407" lon="6.90506">
        <time>2023-04-16T10:05:42+00:00</time>
        <ele>2338.0</ele>
      </trkpt>
      <trkpt lat="44.3407" lon="6.90508">
        <time>2023-04-16T10:05:44+00:00</time>
        <ele>2338.0</ele>
      </trkpt>
      <trkpt lat="44.34068" lon="6.90515">
        <time>2023-04-16T10:05:50+00:00</time>
        <ele>2338.0</ele>
      </trkpt>
      <trkpt lat="44.34067" lon="6.90516">
        <time>2023-04-16T10:05:52+00:00</time>
        <ele>2338.0</ele>
      </trkpt>
      <trkpt lat="44.34067" lon="6.90517">
        <time>2023-04-16T10:05:53+00:00</time>
        <ele>2338.0</ele>
      </trkpt>
      <trkpt lat="44.34066" lon="6.90518">
        <time>2023-04-16T10:05:54+00:00</time>
        <ele>2338.0</ele>
      </trkpt>
      <trkpt lat="44.34066" lon="6.90519">
        <time>2023-04-16T10:05:55+00:00</time>
        <ele>2338.0</ele>
      </trkpt>
      <trkpt lat="44.34065" lon="6.9052">
        <time>2023-04-16T10:05:57+00:00</time>
        <ele>2339.0</ele>
      </trkpt>
      <trkpt lat="44.34064" lon="6.90521">
        <time>2023-04-16T10:05:58+00:00</time>
        <ele>2339.0</ele>
      </trkpt>
      <trkpt lat="44.3406" lon="6.90524">
        <time>2023-04-16T10:06:03+00:00</time>
        <ele>2339.0</ele>
      </trkpt>
      <trkpt lat="44.3406" lon="6.90525">
        <time>2023-04-16T10:06:04+00:00</time>
        <ele>2339.0</ele>
      </trkpt>
      <trkpt lat="44.34056" lon="6.90531">
        <time>2023-04-16T10:06:12+00:00</time>
        <ele>2339.0</ele>
      </trkpt>
      <trkpt lat="44.34054" lon="6.90534">
        <time>2023-04-16T10:06:15+00:00</time>
        <ele>2340.0</ele>
      </trkpt>
      <trkpt lat="44.3405" lon="6.9054">
        <time>2023-04-16T10:06:20+00:00</time>
        <ele>2340.0</ele>
      </trkpt>
      <trkpt lat="44.34049" lon="6.90542">
        <time>2023-04-16T10:06:22+00:00</time>
        <ele>2340.0</ele>
      </trkpt>
      <trkpt lat="44.34048" lon="6.90544">
        <time>2023-04-16T10:06:24+00:00</time>
        <ele>2341.0</ele>
      </trkpt>
      <trkpt lat="44.34045" lon="6.90547">
        <time>2023-04-16T10:06:29+00:00</time>
        <ele>2341.0</ele>
      </trkpt>
      <trkpt lat="44.34043" lon="6.90549">
        <time>2023-04-16T10:06:31+00:00</time>
        <ele>2341.0</ele>
      </trkpt>
      <trkpt lat="44.34043" lon="6.9055">
        <time>2023-04-16T10:06:32+00:00</time>
        <ele>2341.0</ele>
      </trkpt>
      <trkpt lat="44.34041" lon="6.90552">
        <time>2023-04-16T10:06:34+00:00</time>
        <ele>2342.0</ele>
      </trkpt>
      <trkpt lat="44.34039" lon="6.90555">
        <time>2023-04-16T10:06:36+00:00</time>
        <ele>2342.0</ele>
      </trkpt>
      <trkpt lat="44.34037" lon="6.9056">
        <time>2023-04-16T10:06:40+00:00</time>
        <ele>2342.0</ele>
      </trkpt>
      <trkpt lat="44.34035" lon="6.90564">
        <time>2023-04-16T10:06:43+00:00</time>
        <ele>2343.0</ele>
      </trkpt>
      <trkpt lat="44.34032" lon="6.9057">
        <time>2023-04-16T10:06:48+00:00</time>
        <ele>2344.0</ele>
      </trkpt>
      <trkpt lat="44.34028" lon="6.90578">
        <time>2023-04-16T10:06:54+00:00</time>
        <ele>2345.0</ele>
      </trkpt>
      <trkpt lat="44.34026" lon="6.90582">
        <time>2023-04-16T10:06:58+00:00</time>
        <ele>2345.0</ele>
      </trkpt>
      <trkpt lat="44.34024" lon="6.90587">
        <time>2023-04-16T10:07:03+00:00</time>
        <ele>2346.0</ele>
      </trkpt>
      <trkpt lat="44.3402" lon="6.90598">
        <time>2023-04-16T10:07:15+00:00</time>
        <ele>2348.0</ele>
      </trkpt>
      <trkpt lat="44.34019" lon="6.90601">
        <time>2023-04-16T10:07:18+00:00</time>
        <ele>2348.0</ele>
      </trkpt>
      <trkpt lat="44.34018" lon="6.90603">
        <time>2023-04-16T10:07:20+00:00</time>
        <ele>2348.0</ele>
      </trkpt>
      <trkpt lat="44.34018" lon="6.90604">
        <time>2023-04-16T10:07:21+00:00</time>
        <ele>2349.0</ele>
      </trkpt>
      <trkpt lat="44.34017" lon="6.90605">
        <time>2023-04-16T10:07:22+00:00</time>
        <ele>2349.0</ele>
      </trkpt>
      <trkpt lat="44.34016" lon="6.90607">
        <time>2023-04-16T10:07:24+00:00</time>
        <ele>2349.0</ele>
      </trkpt>
      <trkpt lat="44.34012" lon="6.90612">
        <time>2023-04-16T10:07:31+00:00</time>
        <ele>2350.0</ele>
      </trkpt>
      <trkpt lat="44.34012" lon="6.90613">
        <time>2023-04-16T10:07:32+00:00</time>
        <ele>2350.0</ele>
      </trkpt>
      <trkpt lat="44.34012" lon="6.90614">
        <time>2023-04-16T10:07:33+00:00</time>
        <ele>2350.0</ele>
      </trkpt>
      <trkpt lat="44.34011" lon="6.90615">
        <time>2023-04-16T10:07:34+00:00</time>
        <ele>2351.0</ele>
      </trkpt>
      <trkpt lat="44.3401" lon="6.90617">
        <time>2023-04-16T10:07:36+00:00</time>
        <ele>2351.0</ele>
      </trkpt>
      <trkpt lat="44.3401" lon="6.90618">
        <time>2023-04-16T10:07:37+00:00</time>
        <ele>2351.0</ele>
      </trkpt>
      <trkpt lat="44.34009" lon="6.90619">
        <time>2023-04-16T10:07:39+00:00</time>
        <ele>2351.0</ele>
      </trkpt>
      <trkpt lat="44.34007" lon="6.90623">
        <time>2023-04-16T10:07:44+00:00</time>
        <ele>2352.0</ele>
      </trkpt>
      <trkpt lat="44.34006" lon="6.90624">
        <time>2023-04-16T10:07:45+00:00</time>
        <ele>2352.0</ele>
      </trkpt>
      <trkpt lat="44.34006" lon="6.90625">
        <time>2023-04-16T10:07:46+00:00</time>
        <ele>2353.0</ele>
      </trkpt>
      <trkpt lat="44.34003" lon="6.90629">
        <time>2023-04-16T10:07:50+00:00</time>
        <ele>2353.0</ele>
      </trkpt>
      <trkpt lat="44.34002" lon="6.90632">
        <time>2023-04-16T10:07:53+00:00</time>
        <ele>2354.0</ele>
      </trkpt>
      <trkpt lat="44.34001" lon="6.90637">
        <time>2023-04-16T10:07:57+00:00</time>
        <ele>2354.0</ele>
      </trkpt>
      <trkpt lat="44.34" lon="6.90642">
        <time>2023-04-16T10:08:01+00:00</time>
        <ele>2355.0</ele>
      </trkpt>
      <trkpt lat="44.33999" lon="6.90643">
        <time>2023-04-16T10:08:02+00:00</time>
        <ele>2355.0</ele>
      </trkpt>
      <trkpt lat="44.33999" lon="6.90643">
        <time>2023-04-16T10:08:03+00:00</time>
        <ele>2355.0</ele>
      </trkpt>
      <trkpt lat="44.33998" lon="6.90649">
        <time>2023-04-16T10:08:09+00:00</time>
        <ele>2357.0</ele>
      </trkpt>
      <trkpt lat="44.33997" lon="6.9065">
        <time>2023-04-16T10:08:13+00:00</time>
        <ele>2357.0</ele>
      </trkpt>
      <trkpt lat="44.33997" lon="6.90651">
        <time>2023-04-16T10:08:15+00:00</time>
        <ele>2357.0</ele>
      </trkpt>
      <trkpt lat="44.33997" lon="6.90653">
        <time>2023-04-16T10:08:18+00:00</time>
        <ele>2357.0</ele>
      </trkpt>
      <trkpt lat="44.33995" lon="6.90657">
        <time>2023-04-16T10:08:23+00:00</time>
        <ele>2358.0</ele>
      </trkpt>
      <trkpt lat="44.33994" lon="6.90659">
        <time>2023-04-16T10:08:25+00:00</time>
        <ele>2359.0</ele>
      </trkpt>
      <trkpt lat="44.33993" lon="6.9066">
        <time>2023-04-16T10:08:27+00:00</time>
        <ele>2359.0</ele>
      </trkpt>
      <trkpt lat="44.33992" lon="6.90662">
        <time>2023-04-16T10:08:29+00:00</time>
        <ele>2359.0</ele>
      </trkpt>
      <trkpt lat="44.33991" lon="6.90663">
        <time>2023-04-16T10:08:31+00:00</time>
        <ele>2360.0</ele>
      </trkpt>
      <trkpt lat="44.33991" lon="6.90665">
        <time>2023-04-16T10:08:33+00:00</time>
        <ele>2360.0</ele>
      </trkpt>
      <trkpt lat="44.3399" lon="6.90667">
        <time>2023-04-16T10:08:35+00:00</time>
        <ele>2360.0</ele>
      </trkpt>
      <trkpt lat="44.33989" lon="6.90668">
        <time>2023-04-16T10:08:37+00:00</time>
        <ele>2361.0</ele>
      </trkpt>
      <trkpt lat="44.33988" lon="6.9067">
        <time>2023-04-16T10:08:40+00:00</time>
        <ele>2361.0</ele>
      </trkpt>
      <trkpt lat="44.33987" lon="6.90671">
        <time>2023-04-16T10:08:42+00:00</time>
        <ele>2361.0</ele>
      </trkpt>
      <trkpt lat="44.33986" lon="6.90673">
        <time>2023-04-16T10:08:44+00:00</time>
        <ele>2362.0</ele>
      </trkpt>
      <trkpt lat="44.33985" lon="6.90674">
        <time>2023-04-16T10:08:46+00:00</time>
        <ele>2362.0</ele>
      </trkpt>
      <trkpt lat="44.33984" lon="6.90676">
        <time>2023-04-16T10:08:48+00:00</time>
        <ele>2363.0</ele>
      </trkpt>
      <trkpt lat="44.33984" lon="6.90675">
        <time>2023-04-16T10:08:53+00:00</time>
        <ele>2362.0</ele>
      </trkpt>
      <trkpt lat="44.33984" lon="6.90675">
        <time>2023-04-16T10:08:54+00:00</time>
        <ele>2362.0</ele>
      </trkpt>
      <trkpt lat="44.33984" lon="6.90675">
        <time>2023-04-16T10:08:57+00:00</time>
        <ele>2362.0</ele>
      </trkpt>
      <trkpt lat="44.33984" lon="6.90675">
        <time>2023-04-16T10:08:59+00:00</time>
        <ele>2362.0</ele>
      </trkpt>
      <trkpt lat="44.33984" lon="6.90674">
        <time>2023-04-16T10:09:20+00:00</time>
        <ele>2362.0</ele>
      </trkpt>
      <trkpt lat="44.33984" lon="6.90675">
        <time>2023-04-16T10:09:21+00:00</time>
        <ele>2362.0</ele>
      </trkpt>
      <trkpt lat="44.33983" lon="6.90676">
        <time>2023-04-16T10:09:23+00:00</time>
        <ele>2363.0</ele>
      </trkpt>
      <trkpt lat="44.33977" lon="6.90689">
        <time>2023-04-16T10:09:40+00:00</time>
        <ele>2365.0</ele>
      </trkpt>
      <trkpt lat="44.33975" lon="6.90692">
        <time>2023-04-16T10:09:44+00:00</time>
        <ele>2366.0</ele>
      </trkpt>
      <trkpt lat="44.33975" lon="6.90694">
        <time>2023-04-16T10:09:46+00:00</time>
        <ele>2366.0</ele>
      </trkpt>
      <trkpt lat="44.33974" lon="6.90696">
        <time>2023-04-16T10:09:48+00:00</time>
        <ele>2367.0</ele>
      </trkpt>
      <trkpt lat="44.33974" lon="6.90696">
        <time>2023-04-16T10:09:49+00:00</time>
        <ele>2367.0</ele>
      </trkpt>
      <trkpt lat="44.33974" lon="6.90697">
        <time>2023-04-16T10:09:50+00:00</time>
        <ele>2367.0</ele>
      </trkpt>
      <trkpt lat="44.33973" lon="6.90698">
        <time>2023-04-16T10:09:51+00:00</time>
        <ele>2367.0</ele>
      </trkpt>
      <trkpt lat="44.33972" lon="6.90701">
        <time>2023-04-16T10:09:54+00:00</time>
        <ele>2368.0</ele>
      </trkpt>
      <trkpt lat="44.33972" lon="6.90702">
        <time>2023-04-16T10:09:55+00:00</time>
        <ele>2368.0</ele>
      </trkpt>
      <trkpt lat="44.33971" lon="6.90705">
        <time>2023-04-16T10:09:59+00:00</time>
        <ele>2369.0</ele>
      </trkpt>
      <trkpt lat="44.3397" lon="6.90707">
        <time>2023-04-16T10:10:01+00:00</time>
        <ele>2369.0</ele>
      </trkpt>
      <trkpt lat="44.33967" lon="6.90714">
        <time>2023-04-16T10:10:09+00:00</time>
        <ele>2371.0</ele>
      </trkpt>
      <trkpt lat="44.33966" lon="6.90715">
        <time>2023-04-16T10:10:10+00:00</time>
        <ele>2371.0</ele>
      </trkpt>
      <trkpt lat="44.33966" lon="6.90716">
        <time>2023-04-16T10:10:12+00:00</time>
        <ele>2371.0</ele>
      </trkpt>
      <trkpt lat="44.33965" lon="6.90719">
        <time>2023-04-16T10:10:16+00:00</time>
        <ele>2372.0</ele>
      </trkpt>
      <trkpt lat="44.33964" lon="6.9072">
        <time>2023-04-16T10:10:17+00:00</time>
        <ele>2372.0</ele>
      </trkpt>
      <trkpt lat="44.33964" lon="6.90721">
        <time>2023-04-16T10:10:18+00:00</time>
        <ele>2372.0</ele>
      </trkpt>
      <trkpt lat="44.33964" lon="6.90722">
        <time>2023-04-16T10:10:19+00:00</time>
        <ele>2373.0</ele>
      </trkpt>
      <trkpt lat="44.33964" lon="6.90722">
        <time>2023-04-16T10:10:20+00:00</time>
        <ele>2373.0</ele>
      </trkpt>
      <trkpt lat="44.33964" lon="6.90723">
        <time>2023-04-16T10:10:22+00:00</time>
        <ele>2373.0</ele>
      </trkpt>
      <trkpt lat="44.33962" lon="6.90724">
        <time>2023-04-16T10:10:24+00:00</time>
        <ele>2373.0</ele>
      </trkpt>
      <trkpt lat="44.33962" lon="6.90725">
        <time>2023-04-16T10:10:25+00:00</time>
        <ele>2373.0</ele>
      </trkpt>
      <trkpt lat="44.33962" lon="6.90726">
        <time>2023-04-16T10:10:26+00:00</time>
        <ele>2373.0</ele>
      </trkpt>
      <trkpt lat="44.33961" lon="6.90728">
        <time>2023-04-16T10:10:28+00:00</time>
        <ele>2374.0</ele>
      </trkpt>
      <trkpt lat="44.33961" lon="6.90729">
        <time>2023-04-16T10:10:30+00:00</time>
        <ele>2374.0</ele>
      </trkpt>
      <trkpt lat="44.33961" lon="6.9073">
        <time>2023-04-16T10:10:31+00:00</time>
        <ele>2374.0</ele>
      </trkpt>
      <trkpt lat="44.3396" lon="6.90734">
        <time>2023-04-16T10:10:37+00:00</time>
        <ele>2375.0</ele>
      </trkpt>
      <trkpt lat="44.33957" lon="6.90744">
        <time>2023-04-16T10:10:49+00:00</time>
        <ele>2377.0</ele>
      </trkpt>
      <trkpt lat="44.33956" lon="6.90745">
        <time>2023-04-16T10:10:51+00:00</time>
        <ele>2378.0</ele>
      </trkpt>
      <trkpt lat="44.33955" lon="6.90746">
        <time>2023-04-16T10:10:52+00:00</time>
        <ele>2378.0</ele>
      </trkpt>
      <trkpt lat="44.33955" lon="6.90747">
        <time>2023-04-16T10:10:53+00:00</time>
        <ele>2378.0</ele>
      </trkpt>
      <trkpt lat="44.33954" lon="6.90749">
        <time>2023-04-16T10:10:56+00:00</time>
        <ele>2379.0</ele>
      </trkpt>
      <trkpt lat="44.33951" lon="6.90754">
        <time>2023-04-16T10:11:03+00:00</time>
        <ele>2380.0</ele>
      </trkpt>
      <trkpt lat="44.33951" lon="6.90755">
        <time>2023-04-16T10:11:04+00:00</time>
        <ele>2381.0</ele>
      </trkpt>
      <trkpt lat="44.33951" lon="6.90755">
        <time>2023-04-16T10:11:05+00:00</time>
        <ele>2381.0</ele>
      </trkpt>
      <trkpt lat="44.3395" lon="6.90757">
        <time>2023-04-16T10:11:07+00:00</time>
        <ele>2381.0</ele>
      </trkpt>
      <trkpt lat="44.33948" lon="6.9076">
        <time>2023-04-16T10:11:12+00:00</time>
        <ele>2382.0</ele>
      </trkpt>
      <trkpt lat="44.33948" lon="6.9076">
        <time>2023-04-16T10:11:13+00:00</time>
        <ele>2382.0</ele>
      </trkpt>
      <trkpt lat="44.33945" lon="6.90764">
        <time>2023-04-16T10:11:19+00:00</time>
        <ele>2383.0</ele>
      </trkpt>
      <trkpt lat="44.33945" lon="6.90765">
        <time>2023-04-16T10:11:20+00:00</time>
        <ele>2384.0</ele>
      </trkpt>
      <trkpt lat="44.33943" lon="6.90766">
        <time>2023-04-16T10:11:22+00:00</time>
        <ele>2384.0</ele>
      </trkpt>
      <trkpt lat="44.3394" lon="6.9077">
        <time>2023-04-16T10:11:28+00:00</time>
        <ele>2385.0</ele>
      </trkpt>
      <trkpt lat="44.3394" lon="6.90771">
        <time>2023-04-16T10:11:30+00:00</time>
        <ele>2385.0</ele>
      </trkpt>
      <trkpt lat="44.33939" lon="6.90774">
        <time>2023-04-16T10:11:33+00:00</time>
        <ele>2386.0</ele>
      </trkpt>
      <trkpt lat="44.33939" lon="6.90776">
        <time>2023-04-16T10:11:36+00:00</time>
        <ele>2387.0</ele>
      </trkpt>
      <trkpt lat="44.33939" lon="6.90778">
        <time>2023-04-16T10:11:38+00:00</time>
        <ele>2387.0</ele>
      </trkpt>
      <trkpt lat="44.33938" lon="6.9078">
        <time>2023-04-16T10:11:41+00:00</time>
        <ele>2388.0</ele>
      </trkpt>
      <trkpt lat="44.33936" lon="6.9078">
        <time>2023-04-16T10:11:46+00:00</time>
        <ele>2388.0</ele>
      </trkpt>
      <trkpt lat="44.33934" lon="6.9078">
        <time>2023-04-16T10:12:02+00:00</time>
        <ele>2388.0</ele>
      </trkpt>
      <trkpt lat="44.33934" lon="6.9078">
        <time>2023-04-16T10:12:09+00:00</time>
        <ele>2388.0</ele>
      </trkpt>
      <trkpt lat="44.33934" lon="6.9078">
        <time>2023-04-16T10:12:18+00:00</time>
        <ele>2388.0</ele>
      </trkpt>
      <trkpt lat="44.33935" lon="6.90781">
        <time>2023-04-16T10:12:29+00:00</time>
        <ele>2388.0</ele>
      </trkpt>
      <trkpt lat="44.33935" lon="6.90781">
        <time>2023-04-16T10:12:30+00:00</time>
        <ele>2388.0</ele>
      </trkpt>
      <trkpt lat="44.33934" lon="6.90784">
        <time>2023-04-16T10:12:33+00:00</time>
        <ele>2389.0</ele>
      </trkpt>
      <trkpt lat="44.33932" lon="6.90785">
        <time>2023-04-16T10:12:36+00:00</time>
        <ele>2389.0</ele>
      </trkpt>
      <trkpt lat="44.33932" lon="6.90786">
        <time>2023-04-16T10:12:37+00:00</time>
        <ele>2389.0</ele>
      </trkpt>
      <trkpt lat="44.33931" lon="6.90786">
        <time>2023-04-16T10:12:38+00:00</time>
        <ele>2390.0</ele>
      </trkpt>
      <trkpt lat="44.33931" lon="6.90787">
        <time>2023-04-16T10:12:39+00:00</time>
        <ele>2390.0</ele>
      </trkpt>
      <trkpt lat="44.3393" lon="6.90788">
        <time>2023-04-16T10:12:41+00:00</time>
        <ele>2390.0</ele>
      </trkpt>
      <trkpt lat="44.33928" lon="6.9079">
        <time>2023-04-16T10:12:46+00:00</time>
        <ele>2391.0</ele>
      </trkpt>
      <trkpt lat="44.33927" lon="6.90792">
        <time>2023-04-16T10:12:48+00:00</time>
        <ele>2391.0</ele>
      </trkpt>
      <trkpt lat="44.33926" lon="6.90793">
        <time>2023-04-16T10:12:50+00:00</time>
        <ele>2391.0</ele>
      </trkpt>
      <trkpt lat="44.33925" lon="6.90794">
        <time>2023-04-16T10:12:52+00:00</time>
        <ele>2392.0</ele>
      </trkpt>
      <trkpt lat="44.33925" lon="6.90797">
        <time>2023-04-16T10:12:55+00:00</time>
        <ele>2392.0</ele>
      </trkpt>
      <trkpt lat="44.33924" lon="6.908">
        <time>2023-04-16T10:12:58+00:00</time>
        <ele>2393.0</ele>
      </trkpt>
      <trkpt lat="44.33923" lon="6.90801">
        <time>2023-04-16T10:13:00+00:00</time>
        <ele>2393.0</ele>
      </trkpt>
      <trkpt lat="44.33921" lon="6.90806">
        <time>2023-04-16T10:13:05+00:00</time>
        <ele>2394.0</ele>
      </trkpt>
      <trkpt lat="44.3392" lon="6.90808">
        <time>2023-04-16T10:13:07+00:00</time>
        <ele>2394.0</ele>
      </trkpt>
      <trkpt lat="44.3392" lon="6.90808">
        <time>2023-04-16T10:13:08+00:00</time>
        <ele>2394.0</ele>
      </trkpt>
      <trkpt lat="44.33919" lon="6.90809">
        <time>2023-04-16T10:13:09+00:00</time>
        <ele>2394.0</ele>
      </trkpt>
      <trkpt lat="44.33919" lon="6.9081">
        <time>2023-04-16T10:13:10+00:00</time>
        <ele>2394.0</ele>
      </trkpt>
      <trkpt lat="44.33917" lon="6.90815">
        <time>2023-04-16T10:13:17+00:00</time>
        <ele>2395.0</ele>
      </trkpt>
      <trkpt lat="44.33916" lon="6.90816">
        <time>2023-04-16T10:13:18+00:00</time>
        <ele>2395.0</ele>
      </trkpt>
      <trkpt lat="44.33916" lon="6.90817">
        <time>2023-04-16T10:13:19+00:00</time>
        <ele>2395.0</ele>
      </trkpt>
      <trkpt lat="44.33914" lon="6.90825">
        <time>2023-04-16T10:13:33+00:00</time>
        <ele>2396.0</ele>
      </trkpt>
      <trkpt lat="44.33914" lon="6.90825">
        <time>2023-04-16T10:13:42+00:00</time>
        <ele>2396.0</ele>
      </trkpt>
      <trkpt lat="44.33912" lon="6.90833">
        <time>2023-04-16T10:13:57+00:00</time>
        <ele>2396.0</ele>
      </trkpt>
      <trkpt lat="44.33911" lon="6.90835">
        <time>2023-04-16T10:13:59+00:00</time>
        <ele>2397.0</ele>
      </trkpt>
      <trkpt lat="44.33911" lon="6.90837">
        <time>2023-04-16T10:14:01+00:00</time>
        <ele>2397.0</ele>
      </trkpt>
      <trkpt lat="44.3391" lon="6.90841">
        <time>2023-04-16T10:14:04+00:00</time>
        <ele>2397.0</ele>
      </trkpt>
      <trkpt lat="44.33909" lon="6.90845">
        <time>2023-04-16T10:14:08+00:00</time>
        <ele>2397.0</ele>
      </trkpt>
      <trkpt lat="44.33909" lon="6.90846">
        <time>2023-04-16T10:14:09+00:00</time>
        <ele>2397.0</ele>
      </trkpt>
      <trkpt lat="44.33908" lon="6.90848">
        <time>2023-04-16T10:14:11+00:00</time>
        <ele>2397.0</ele>
      </trkpt>
      <trkpt lat="44.33908" lon="6.90849">
        <time>2023-04-16T10:14:12+00:00</time>
        <ele>2398.0</ele>
      </trkpt>
      <trkpt lat="44.33907" lon="6.90851">
        <time>2023-04-16T10:14:14+00:00</time>
        <ele>2397.0</ele>
      </trkpt>
      <trkpt lat="44.33907" lon="6.90856">
        <time>2023-04-16T10:14:18+00:00</time>
        <ele>2398.0</ele>
      </trkpt>
      <trkpt lat="44.33907" lon="6.90857">
        <time>2023-04-16T10:14:19+00:00</time>
        <ele>2398.0</ele>
      </trkpt>
      <trkpt lat="44.33906" lon="6.90864">
        <time>2023-04-16T10:14:25+00:00</time>
        <ele>2400.0</ele>
      </trkpt>
      <trkpt lat="44.33906" lon="6.90869">
        <time>2023-04-16T10:14:29+00:00</time>
        <ele>2400.0</ele>
      </trkpt>
      <trkpt lat="44.33905" lon="6.90873">
        <time>2023-04-16T10:14:32+00:00</time>
        <ele>2401.0</ele>
      </trkpt>
      <trkpt lat="44.33904" lon="6.90878">
        <time>2023-04-16T10:14:36+00:00</time>
        <ele>2402.0</ele>
      </trkpt>
      <trkpt lat="44.33903" lon="6.90885">
        <time>2023-04-16T10:14:42+00:00</time>
        <ele>2403.0</ele>
      </trkpt>
      <trkpt lat="44.33902" lon="6.90889">
        <time>2023-04-16T10:14:47+00:00</time>
        <ele>2403.0</ele>
      </trkpt>
      <trkpt lat="44.339" lon="6.90893">
        <time>2023-04-16T10:14:51+00:00</time>
        <ele>2403.0</ele>
      </trkpt>
      <trkpt lat="44.33898" lon="6.90901">
        <time>2023-04-16T10:14:59+00:00</time>
        <ele>2404.0</ele>
      </trkpt>
      <trkpt lat="44.33898" lon="6.90902">
        <time>2023-04-16T10:15:00+00:00</time>
        <ele>2405.0</ele>
      </trkpt>
      <trkpt lat="44.33897" lon="6.90904">
        <time>2023-04-16T10:15:02+00:00</time>
        <ele>2405.0</ele>
      </trkpt>
      <trkpt lat="44.33897" lon="6.90906">
        <time>2023-04-16T10:15:04+00:00</time>
        <ele>2405.0</ele>
      </trkpt>
      <trkpt lat="44.33897" lon="6.90908">
        <time>2023-04-16T10:15:06+00:00</time>
        <ele>2406.0</ele>
      </trkpt>
      <trkpt lat="44.33897" lon="6.90909">
        <time>2023-04-16T10:15:07+00:00</time>
        <ele>2406.0</ele>
      </trkpt>
      <trkpt lat="44.33897" lon="6.9091">
        <time>2023-04-16T10:15:08+00:00</time>
        <ele>2406.0</ele>
      </trkpt>
      <trkpt lat="44.33897" lon="6.90911">
        <time>2023-04-16T10:15:09+00:00</time>
        <ele>2406.0</ele>
      </trkpt>
      <trkpt lat="44.33897" lon="6.90912">
        <time>2023-04-16T10:15:10+00:00</time>
        <ele>2407.0</ele>
      </trkpt>
      <trkpt lat="44.33898" lon="6.90915">
        <time>2023-04-16T10:15:13+00:00</time>
        <ele>2407.0</ele>
      </trkpt>
      <trkpt lat="44.33898" lon="6.90917">
        <time>2023-04-16T10:15:15+00:00</time>
        <ele>2408.0</ele>
      </trkpt>
      <trkpt lat="44.33899" lon="6.9092">
        <time>2023-04-16T10:15:19+00:00</time>
        <ele>2409.0</ele>
      </trkpt>
      <trkpt lat="44.339" lon="6.90923">
        <time>2023-04-16T10:15:22+00:00</time>
        <ele>2409.0</ele>
      </trkpt>
      <trkpt lat="44.339" lon="6.90924">
        <time>2023-04-16T10:15:23+00:00</time>
        <ele>2410.0</ele>
      </trkpt>
      <trkpt lat="44.33901" lon="6.90926">
        <time>2023-04-16T10:15:25+00:00</time>
        <ele>2410.0</ele>
      </trkpt>
      <trkpt lat="44.33901" lon="6.90928">
        <time>2023-04-16T10:15:27+00:00</time>
        <ele>2411.0</ele>
      </trkpt>
      <trkpt lat="44.33902" lon="6.9093">
        <time>2023-04-16T10:15:29+00:00</time>
        <ele>2411.0</ele>
      </trkpt>
      <trkpt lat="44.33903" lon="6.90934">
        <time>2023-04-16T10:15:33+00:00</time>
        <ele>2413.0</ele>
      </trkpt>
      <trkpt lat="44.33904" lon="6.90936">
        <time>2023-04-16T10:15:35+00:00</time>
        <ele>2413.0</ele>
      </trkpt>
      <trkpt lat="44.33904" lon="6.90942">
        <time>2023-04-16T10:15:41+00:00</time>
        <ele>2415.0</ele>
      </trkpt>
      <trkpt lat="44.33904" lon="6.90945">
        <time>2023-04-16T10:15:45+00:00</time>
        <ele>2415.0</ele>
      </trkpt>
      <trkpt lat="44.33898" lon="6.9096">
        <time>2023-04-16T10:16:05+00:00</time>
        <ele>2417.0</ele>
      </trkpt>
      <trkpt lat="44.33897" lon="6.90964">
        <time>2023-04-16T10:16:10+00:00</time>
        <ele>2418.0</ele>
      </trkpt>
      <trkpt lat="44.33896" lon="6.90965">
        <time>2023-04-16T10:16:12+00:00</time>
        <ele>2418.0</ele>
      </trkpt>
      <trkpt lat="44.33894" lon="6.90966">
        <time>2023-04-16T10:16:14+00:00</time>
        <ele>2418.0</ele>
      </trkpt>
      <trkpt lat="44.33894" lon="6.90967">
        <time>2023-04-16T10:16:16+00:00</time>
        <ele>2419.0</ele>
      </trkpt>
      <trkpt lat="44.33893" lon="6.9097">
        <time>2023-04-16T10:16:20+00:00</time>
        <ele>2419.0</ele>
      </trkpt>
      <trkpt lat="44.33893" lon="6.90972">
        <time>2023-04-16T10:16:22+00:00</time>
        <ele>2420.0</ele>
      </trkpt>
      <trkpt lat="44.33896" lon="6.90974">
        <time>2023-04-16T10:16:30+00:00</time>
        <ele>2421.0</ele>
      </trkpt>
      <trkpt lat="44.33896" lon="6.90974">
        <time>2023-04-16T10:16:32+00:00</time>
        <ele>2421.0</ele>
      </trkpt>
      <trkpt lat="44.33896" lon="6.90974">
        <time>2023-04-16T10:16:35+00:00</time>
        <ele>2421.0</ele>
      </trkpt>
      <trkpt lat="44.33896" lon="6.90974">
        <time>2023-04-16T10:16:36+00:00</time>
        <ele>2421.0</ele>
      </trkpt>
      <trkpt lat="44.33896" lon="6.90974">
        <time>2023-04-16T10:16:37+00:00</time>
        <ele>2421.0</ele>
      </trkpt>
      <trkpt lat="44.33896" lon="6.90974">
        <time>2023-04-16T10:16:39+00:00</time>
        <ele>2421.0</ele>
      </trkpt>
      <trkpt lat="44.33896" lon="6.90974">
        <time>2023-04-16T10:16:41+00:00</time>
        <ele>2421.0</ele>
      </trkpt>
      <trkpt lat="44.33896" lon="6.90974">
        <time>2023-04-16T10:16:42+00:00</time>
        <ele>2421.0</ele>
      </trkpt>
      <trkpt lat="44.33896" lon="6.90974">
        <time>2023-04-16T10:16:44+00:00</time>
        <ele>2421.0</ele>
      </trkpt>
      <trkpt lat="44.33897" lon="6.90978">
        <time>2023-04-16T10:16:51+00:00</time>
        <ele>2422.0</ele>
      </trkpt>
      <trkpt lat="44.33896" lon="6.90979">
        <time>2023-04-16T10:16:53+00:00</time>
        <ele>2422.0</ele>
      </trkpt>
      <trkpt lat="44.33897" lon="6.90981">
        <time>2023-04-16T10:16:55+00:00</time>
        <ele>2423.0</ele>
      </trkpt>
      <trkpt lat="44.33896" lon="6.90982">
        <time>2023-04-16T10:16:56+00:00</time>
        <ele>2423.0</ele>
      </trkpt>
      <trkpt lat="44.33896" lon="6.90983">
        <time>2023-04-16T10:16:57+00:00</time>
        <ele>2423.0</ele>
      </trkpt>
      <trkpt lat="44.33896" lon="6.90984">
        <time>2023-04-16T10:16:59+00:00</time>
        <ele>2423.0</ele>
      </trkpt>
      <trkpt lat="44.33892" lon="6.90991">
        <time>2023-04-16T10:17:07+00:00</time>
        <ele>2425.0</ele>
      </trkpt>
      <trkpt lat="44.33891" lon="6.90992">
        <time>2023-04-16T10:17:09+00:00</time>
        <ele>2425.0</ele>
      </trkpt>
      <trkpt lat="44.33891" lon="6.90993">
        <time>2023-04-16T10:17:10+00:00</time>
        <ele>2426.0</ele>
      </trkpt>
      <trkpt lat="44.3389" lon="6.90995">
        <time>2023-04-16T10:17:12+00:00</time>
        <ele>2426.0</ele>
      </trkpt>
      <trkpt lat="44.33889" lon="6.90996">
        <time>2023-04-16T10:17:13+00:00</time>
        <ele>2427.0</ele>
      </trkpt>
      <trkpt lat="44.33889" lon="6.90998">
        <time>2023-04-16T10:17:16+00:00</time>
        <ele>2427.0</ele>
      </trkpt>
      <trkpt lat="44.33887" lon="6.91">
        <time>2023-04-16T10:17:19+00:00</time>
        <ele>2428.0</ele>
      </trkpt>
      <trkpt lat="44.33884" lon="6.91003">
        <time>2023-04-16T10:17:24+00:00</time>
        <ele>2429.0</ele>
      </trkpt>
      <trkpt lat="44.33883" lon="6.91006">
        <time>2023-04-16T10:17:27+00:00</time>
        <ele>2429.0</ele>
      </trkpt>
      <trkpt lat="44.33882" lon="6.91007">
        <time>2023-04-16T10:17:29+00:00</time>
        <ele>2430.0</ele>
      </trkpt>
      <trkpt lat="44.3388" lon="6.91011">
        <time>2023-04-16T10:17:35+00:00</time>
        <ele>2431.0</ele>
      </trkpt>
      <trkpt lat="44.33879" lon="6.91012">
        <time>2023-04-16T10:17:36+00:00</time>
        <ele>2431.0</ele>
      </trkpt>
      <trkpt lat="44.33879" lon="6.91013">
        <time>2023-04-16T10:17:38+00:00</time>
        <ele>2431.0</ele>
      </trkpt>
      <trkpt lat="44.33878" lon="6.91014">
        <time>2023-04-16T10:17:40+00:00</time>
        <ele>2431.0</ele>
      </trkpt>
      <trkpt lat="44.33876" lon="6.91017">
        <time>2023-04-16T10:17:45+00:00</time>
        <ele>2432.0</ele>
      </trkpt>
      <trkpt lat="44.33876" lon="6.91018">
        <time>2023-04-16T10:17:46+00:00</time>
        <ele>2433.0</ele>
      </trkpt>
      <trkpt lat="44.33874" lon="6.91019">
        <time>2023-04-16T10:17:48+00:00</time>
        <ele>2433.0</ele>
      </trkpt>
      <trkpt lat="44.33873" lon="6.91019">
        <time>2023-04-16T10:17:50+00:00</time>
        <ele>2433.0</ele>
      </trkpt>
      <trkpt lat="44.33873" lon="6.91019">
        <time>2023-04-16T10:17:51+00:00</time>
        <ele>2433.0</ele>
      </trkpt>
      <trkpt lat="44.33872" lon="6.9102">
        <time>2023-04-16T10:17:52+00:00</time>
        <ele>2433.0</ele>
      </trkpt>
      <trkpt lat="44.33872" lon="6.9102">
        <time>2023-04-16T10:17:53+00:00</time>
        <ele>2433.0</ele>
      </trkpt>
      <trkpt lat="44.33871" lon="6.9102">
        <time>2023-04-16T10:17:54+00:00</time>
        <ele>2433.0</ele>
      </trkpt>
      <trkpt lat="44.33871" lon="6.9102">
        <time>2023-04-16T10:17:55+00:00</time>
        <ele>2433.0</ele>
      </trkpt>
      <trkpt lat="44.33872" lon="6.9102">
        <time>2023-04-16T10:17:56+00:00</time>
        <ele>2433.0</ele>
      </trkpt>
      <trkpt lat="44.33872" lon="6.91019">
        <time>2023-04-16T10:17:57+00:00</time>
        <ele>2433.0</ele>
      </trkpt>
      <trkpt lat="44.33872" lon="6.91018">
        <time>2023-04-16T10:17:59+00:00</time>
        <ele>2433.0</ele>
      </trkpt>
      <trkpt lat="44.33873" lon="6.91017">
        <time>2023-04-16T10:18:05+00:00</time>
        <ele>2432.0</ele>
      </trkpt>
      <trkpt lat="44.33873" lon="6.91018">
        <time>2023-04-16T10:18:09+00:00</time>
        <ele>2433.0</ele>
      </trkpt>
      <trkpt lat="44.33873" lon="6.91018">
        <time>2023-04-16T10:18:10+00:00</time>
        <ele>2433.0</ele>
      </trkpt>
      <trkpt lat="44.33872" lon="6.91018">
        <time>2023-04-16T10:18:11+00:00</time>
        <ele>2433.0</ele>
      </trkpt>
      <trkpt lat="44.33872" lon="6.91018">
        <time>2023-04-16T10:18:13+00:00</time>
        <ele>2433.0</ele>
      </trkpt>
      <trkpt lat="44.33872" lon="6.91019">
        <time>2023-04-16T10:18:17+00:00</time>
        <ele>2433.0</ele>
      </trkpt>
      <trkpt lat="44.33872" lon="6.91019">
        <time>2023-04-16T10:18:22+00:00</time>
        <ele>2433.0</ele>
      </trkpt>
      <trkpt lat="44.33872" lon="6.9102">
        <time>2023-04-16T10:18:28+00:00</time>
        <ele>2433.0</ele>
      </trkpt>
      <trkpt lat="44.33871" lon="6.9102">
        <time>2023-04-16T10:18:34+00:00</time>
        <ele>2433.0</ele>
      </trkpt>
      <trkpt lat="44.3387" lon="6.91025">
        <time>2023-04-16T10:18:41+00:00</time>
        <ele>2435.0</ele>
      </trkpt>
      <trkpt lat="44.3387" lon="6.91027">
        <time>2023-04-16T10:18:44+00:00</time>
        <ele>2436.0</ele>
      </trkpt>
      <trkpt lat="44.3387" lon="6.91029">
        <time>2023-04-16T10:18:46+00:00</time>
        <ele>2436.0</ele>
      </trkpt>
      <trkpt lat="44.3387" lon="6.9103">
        <time>2023-04-16T10:18:47+00:00</time>
        <ele>2436.0</ele>
      </trkpt>
      <trkpt lat="44.33869" lon="6.91033">
        <time>2023-04-16T10:18:50+00:00</time>
        <ele>2437.0</ele>
      </trkpt>
      <trkpt lat="44.33869" lon="6.91036">
        <time>2023-04-16T10:18:53+00:00</time>
        <ele>2438.0</ele>
      </trkpt>
      <trkpt lat="44.33869" lon="6.91039">
        <time>2023-04-16T10:18:56+00:00</time>
        <ele>2439.0</ele>
      </trkpt>
      <trkpt lat="44.33868" lon="6.91042">
        <time>2023-04-16T10:18:59+00:00</time>
        <ele>2440.0</ele>
      </trkpt>
      <trkpt lat="44.33867" lon="6.91042">
        <time>2023-04-16T10:19:00+00:00</time>
        <ele>2440.0</ele>
      </trkpt>
      <trkpt lat="44.33867" lon="6.91043">
        <time>2023-04-16T10:19:01+00:00</time>
        <ele>2440.0</ele>
      </trkpt>
      <trkpt lat="44.33867" lon="6.91045">
        <time>2023-04-16T10:19:03+00:00</time>
        <ele>2441.0</ele>
      </trkpt>
      <trkpt lat="44.33867" lon="6.91045">
        <time>2023-04-16T10:19:04+00:00</time>
        <ele>2441.0</ele>
      </trkpt>
      <trkpt lat="44.33866" lon="6.91046">
        <time>2023-04-16T10:19:05+00:00</time>
        <ele>2441.0</ele>
      </trkpt>
      <trkpt lat="44.33865" lon="6.91048">
        <time>2023-04-16T10:19:07+00:00</time>
        <ele>2441.0</ele>
      </trkpt>
      <trkpt lat="44.33865" lon="6.91049">
        <time>2023-04-16T10:19:08+00:00</time>
        <ele>2442.0</ele>
      </trkpt>
      <trkpt lat="44.33865" lon="6.91051">
        <time>2023-04-16T10:19:11+00:00</time>
        <ele>2442.0</ele>
      </trkpt>
      <trkpt lat="44.33865" lon="6.91053">
        <time>2023-04-16T10:19:13+00:00</time>
        <ele>2442.0</ele>
      </trkpt>
      <trkpt lat="44.33864" lon="6.91054">
        <time>2023-04-16T10:19:15+00:00</time>
        <ele>2443.0</ele>
      </trkpt>
      <trkpt lat="44.33864" lon="6.91055">
        <time>2023-04-16T10:19:16+00:00</time>
        <ele>2443.0</ele>
      </trkpt>
      <trkpt lat="44.33864" lon="6.91055">
        <time>2023-04-16T10:19:17+00:00</time>
        <ele>2443.0</ele>
      </trkpt>
      <trkpt lat="44.33863" lon="6.91057">
        <time>2023-04-16T10:19:19+00:00</time>
        <ele>2443.0</ele>
      </trkpt>
      <trkpt lat="44.33862" lon="6.9106">
        <time>2023-04-16T10:19:23+00:00</time>
        <ele>2444.0</ele>
      </trkpt>
      <trkpt lat="44.33862" lon="6.91062">
        <time>2023-04-16T10:19:25+00:00</time>
        <ele>2444.0</ele>
      </trkpt>
      <trkpt lat="44.3386" lon="6.91067">
        <time>2023-04-16T10:19:32+00:00</time>
        <ele>2445.0</ele>
      </trkpt>
      <trkpt lat="44.3386" lon="6.91069">
        <time>2023-04-16T10:19:36+00:00</time>
        <ele>2446.0</ele>
      </trkpt>
      <trkpt lat="44.33859" lon="6.91071">
        <time>2023-04-16T10:19:38+00:00</time>
        <ele>2446.0</ele>
      </trkpt>
      <trkpt lat="44.33858" lon="6.91073">
        <time>2023-04-16T10:19:40+00:00</time>
        <ele>2446.0</ele>
      </trkpt>
      <trkpt lat="44.33855" lon="6.91079">
        <time>2023-04-16T10:19:49+00:00</time>
        <ele>2447.0</ele>
      </trkpt>
      <trkpt lat="44.33853" lon="6.91081">
        <time>2023-04-16T10:19:53+00:00</time>
        <ele>2447.0</ele>
      </trkpt>
      <trkpt lat="44.33851" lon="6.91085">
        <time>2023-04-16T10:19:59+00:00</time>
        <ele>2448.0</ele>
      </trkpt>
      <trkpt lat="44.3385" lon="6.91087">
        <time>2023-04-16T10:20:03+00:00</time>
        <ele>2448.0</ele>
      </trkpt>
      <trkpt lat="44.33847" lon="6.91094">
        <time>2023-04-16T10:20:10+00:00</time>
        <ele>2449.0</ele>
      </trkpt>
      <trkpt lat="44.33846" lon="6.91095">
        <time>2023-04-16T10:20:12+00:00</time>
        <ele>2449.0</ele>
      </trkpt>
      <trkpt lat="44.33845" lon="6.91096">
        <time>2023-04-16T10:20:14+00:00</time>
        <ele>2450.0</ele>
      </trkpt>
      <trkpt lat="44.33842" lon="6.91098">
        <time>2023-04-16T10:20:20+00:00</time>
        <ele>2450.0</ele>
      </trkpt>
      <trkpt lat="44.33839" lon="6.91101">
        <time>2023-04-16T10:20:25+00:00</time>
        <ele>2450.0</ele>
      </trkpt>
      <trkpt lat="44.33835" lon="6.91106">
        <time>2023-04-16T10:20:34+00:00</time>
        <ele>2451.0</ele>
      </trkpt>
      <trkpt lat="44.33834" lon="6.91108">
        <time>2023-04-16T10:20:36+00:00</time>
        <ele>2451.0</ele>
      </trkpt>
      <trkpt lat="44.33833" lon="6.91109">
        <time>2023-04-16T10:20:38+00:00</time>
        <ele>2451.0</ele>
      </trkpt>
      <trkpt lat="44.33832" lon="6.91111">
        <time>2023-04-16T10:20:40+00:00</time>
        <ele>2451.0</ele>
      </trkpt>
      <trkpt lat="44.3383" lon="6.91112">
        <time>2023-04-16T10:20:42+00:00</time>
        <ele>2452.0</ele>
      </trkpt>
      <trkpt lat="44.33827" lon="6.91115">
        <time>2023-04-16T10:20:46+00:00</time>
        <ele>2452.0</ele>
      </trkpt>
      <trkpt lat="44.33827" lon="6.91116">
        <time>2023-04-16T10:20:47+00:00</time>
        <ele>2452.0</ele>
      </trkpt>
      <trkpt lat="44.33826" lon="6.91117">
        <time>2023-04-16T10:20:48+00:00</time>
        <ele>2452.0</ele>
      </trkpt>
      <trkpt lat="44.33826" lon="6.91117">
        <time>2023-04-16T10:20:49+00:00</time>
        <ele>2452.0</ele>
      </trkpt>
      <trkpt lat="44.33824" lon="6.91119">
        <time>2023-04-16T10:20:52+00:00</time>
        <ele>2452.0</ele>
      </trkpt>
      <trkpt lat="44.3382" lon="6.91123">
        <time>2023-04-16T10:20:58+00:00</time>
        <ele>2453.0</ele>
      </trkpt>
      <trkpt lat="44.33819" lon="6.91125">
        <time>2023-04-16T10:21:00+00:00</time>
        <ele>2454.0</ele>
      </trkpt>
      <trkpt lat="44.33818" lon="6.91127">
        <time>2023-04-16T10:21:03+00:00</time>
        <ele>2454.0</ele>
      </trkpt>
      <trkpt lat="44.33817" lon="6.91128">
        <time>2023-04-16T10:21:06+00:00</time>
        <ele>2454.0</ele>
      </trkpt>
      <trkpt lat="44.33815" lon="6.91133">
        <time>2023-04-16T10:21:10+00:00</time>
        <ele>2455.0</ele>
      </trkpt>
      <trkpt lat="44.33814" lon="6.91135">
        <time>2023-04-16T10:21:13+00:00</time>
        <ele>2456.0</ele>
      </trkpt>
      <trkpt lat="44.33809" lon="6.91142">
        <time>2023-04-16T10:21:22+00:00</time>
        <ele>2457.0</ele>
      </trkpt>
      <trkpt lat="44.33808" lon="6.91143">
        <time>2023-04-16T10:21:25+00:00</time>
        <ele>2457.0</ele>
      </trkpt>
      <trkpt lat="44.33806" lon="6.91145">
        <time>2023-04-16T10:21:27+00:00</time>
        <ele>2457.0</ele>
      </trkpt>
      <trkpt lat="44.33804" lon="6.91149">
        <time>2023-04-16T10:21:32+00:00</time>
        <ele>2458.0</ele>
      </trkpt>
      <trkpt lat="44.33803" lon="6.91151">
        <time>2023-04-16T10:21:34+00:00</time>
        <ele>2458.0</ele>
      </trkpt>
      <trkpt lat="44.33801" lon="6.91155">
        <time>2023-04-16T10:21:39+00:00</time>
        <ele>2459.0</ele>
      </trkpt>
      <trkpt lat="44.33801" lon="6.91157">
        <time>2023-04-16T10:21:41+00:00</time>
        <ele>2459.0</ele>
      </trkpt>
      <trkpt lat="44.338" lon="6.91159">
        <time>2023-04-16T10:21:43+00:00</time>
        <ele>2460.0</ele>
      </trkpt>
      <trkpt lat="44.33799" lon="6.91161">
        <time>2023-04-16T10:21:46+00:00</time>
        <ele>2460.0</ele>
      </trkpt>
      <trkpt lat="44.33798" lon="6.91162">
        <time>2023-04-16T10:21:48+00:00</time>
        <ele>2461.0</ele>
      </trkpt>
      <trkpt lat="44.33794" lon="6.91168">
        <time>2023-04-16T10:21:55+00:00</time>
        <ele>2462.0</ele>
      </trkpt>
      <trkpt lat="44.33793" lon="6.91169">
        <time>2023-04-16T10:21:57+00:00</time>
        <ele>2462.0</ele>
      </trkpt>
      <trkpt lat="44.33787" lon="6.91174">
        <time>2023-04-16T10:22:06+00:00</time>
        <ele>2462.0</ele>
      </trkpt>
      <trkpt lat="44.33783" lon="6.91181">
        <time>2023-04-16T10:22:16+00:00</time>
        <ele>2463.0</ele>
      </trkpt>
      <trkpt lat="44.33779" lon="6.91184">
        <time>2023-04-16T10:22:22+00:00</time>
        <ele>2464.0</ele>
      </trkpt>
      <trkpt lat="44.33778" lon="6.91185">
        <time>2023-04-16T10:22:24+00:00</time>
        <ele>2464.0</ele>
      </trkpt>
      <trkpt lat="44.33771" lon="6.91196">
        <time>2023-04-16T10:22:38+00:00</time>
        <ele>2465.0</ele>
      </trkpt>
      <trkpt lat="44.3377" lon="6.91198">
        <time>2023-04-16T10:22:40+00:00</time>
        <ele>2465.0</ele>
      </trkpt>
      <trkpt lat="44.33769" lon="6.91201">
        <time>2023-04-16T10:22:43+00:00</time>
        <ele>2465.0</ele>
      </trkpt>
      <trkpt lat="44.33768" lon="6.91204">
        <time>2023-04-16T10:22:45+00:00</time>
        <ele>2465.0</ele>
      </trkpt>
      <trkpt lat="44.33764" lon="6.9121">
        <time>2023-04-16T10:22:51+00:00</time>
        <ele>2465.0</ele>
      </trkpt>
      <trkpt lat="44.33764" lon="6.91211">
        <time>2023-04-16T10:22:52+00:00</time>
        <ele>2465.0</ele>
      </trkpt>
      <trkpt lat="44.33763" lon="6.91212">
        <time>2023-04-16T10:22:53+00:00</time>
        <ele>2465.0</ele>
      </trkpt>
      <trkpt lat="44.33761" lon="6.91215">
        <time>2023-04-16T10:22:56+00:00</time>
        <ele>2465.0</ele>
      </trkpt>
      <trkpt lat="44.33758" lon="6.91222">
        <time>2023-04-16T10:23:01+00:00</time>
        <ele>2464.0</ele>
      </trkpt>
      <trkpt lat="44.33756" lon="6.91225">
        <time>2023-04-16T10:23:04+00:00</time>
        <ele>2464.0</ele>
      </trkpt>
      <trkpt lat="44.33751" lon="6.91237">
        <time>2023-04-16T10:23:14+00:00</time>
        <ele>2463.0</ele>
      </trkpt>
      <trkpt lat="44.33744" lon="6.91249">
        <time>2023-04-16T10:23:20+00:00</time>
        <ele>2461.0</ele>
      </trkpt>
      <trkpt lat="44.33743" lon="6.9125">
        <time>2023-04-16T10:23:21+00:00</time>
        <ele>2461.0</ele>
      </trkpt>
      <trkpt lat="44.33741" lon="6.91253">
        <time>2023-04-16T10:23:23+00:00</time>
        <ele>2461.0</ele>
      </trkpt>
      <trkpt lat="44.33738" lon="6.91258">
        <time>2023-04-16T10:23:27+00:00</time>
        <ele>2461.0</ele>
      </trkpt>
      <trkpt lat="44.33738" lon="6.91259">
        <time>2023-04-16T10:23:28+00:00</time>
        <ele>2461.0</ele>
      </trkpt>
      <trkpt lat="44.33737" lon="6.91261">
        <time>2023-04-16T10:23:29+00:00</time>
        <ele>2461.0</ele>
      </trkpt>
      <trkpt lat="44.33737" lon="6.91262">
        <time>2023-04-16T10:23:30+00:00</time>
        <ele>2461.0</ele>
      </trkpt>
      <trkpt lat="44.33735" lon="6.91264">
        <time>2023-04-16T10:23:32+00:00</time>
        <ele>2461.0</ele>
      </trkpt>
      <trkpt lat="44.33734" lon="6.91267">
        <time>2023-04-16T10:23:34+00:00</time>
        <ele>2461.0</ele>
      </trkpt>
      <trkpt lat="44.33733" lon="6.91268">
        <time>2023-04-16T10:23:35+00:00</time>
        <ele>2461.0</ele>
      </trkpt>
      <trkpt lat="44.33732" lon="6.91269">
        <time>2023-04-16T10:23:36+00:00</time>
        <ele>2461.0</ele>
      </trkpt>
      <trkpt lat="44.3373" lon="6.91276">
        <time>2023-04-16T10:23:41+00:00</time>
        <ele>2461.0</ele>
      </trkpt>
      <trkpt lat="44.33729" lon="6.91277">
        <time>2023-04-16T10:23:42+00:00</time>
        <ele>2461.0</ele>
      </trkpt>
      <trkpt lat="44.33729" lon="6.91278">
        <time>2023-04-16T10:23:43+00:00</time>
        <ele>2461.0</ele>
      </trkpt>
      <trkpt lat="44.33729" lon="6.9128">
        <time>2023-04-16T10:23:44+00:00</time>
        <ele>2462.0</ele>
      </trkpt>
      <trkpt lat="44.33729" lon="6.91281">
        <time>2023-04-16T10:23:45+00:00</time>
        <ele>2462.0</ele>
      </trkpt>
      <trkpt lat="44.33728" lon="6.91282">
        <time>2023-04-16T10:23:46+00:00</time>
        <ele>2462.0</ele>
      </trkpt>
      <trkpt lat="44.33728" lon="6.91283">
        <time>2023-04-16T10:23:47+00:00</time>
        <ele>2462.0</ele>
      </trkpt>
      <trkpt lat="44.33727" lon="6.91284">
        <time>2023-04-16T10:23:48+00:00</time>
        <ele>2462.0</ele>
      </trkpt>
      <trkpt lat="44.33726" lon="6.91287">
        <time>2023-04-16T10:23:50+00:00</time>
        <ele>2462.0</ele>
      </trkpt>
      <trkpt lat="44.33726" lon="6.91289">
        <time>2023-04-16T10:23:52+00:00</time>
        <ele>2462.0</ele>
      </trkpt>
      <trkpt lat="44.33725" lon="6.91291">
        <time>2023-04-16T10:23:54+00:00</time>
        <ele>2462.0</ele>
      </trkpt>
      <trkpt lat="44.33725" lon="6.91298">
        <time>2023-04-16T10:23:59+00:00</time>
        <ele>2463.0</ele>
      </trkpt>
      <trkpt lat="44.33724" lon="6.91301">
        <time>2023-04-16T10:24:01+00:00</time>
        <ele>2463.0</ele>
      </trkpt>
      <trkpt lat="44.33724" lon="6.91302">
        <time>2023-04-16T10:24:02+00:00</time>
        <ele>2463.0</ele>
      </trkpt>
      <trkpt lat="44.33723" lon="6.9131">
        <time>2023-04-16T10:24:09+00:00</time>
        <ele>2463.0</ele>
      </trkpt>
      <trkpt lat="44.33723" lon="6.91319">
        <time>2023-04-16T10:24:18+00:00</time>
        <ele>2465.0</ele>
      </trkpt>
      <trkpt lat="44.33723" lon="6.91325">
        <time>2023-04-16T10:24:22+00:00</time>
        <ele>2466.0</ele>
      </trkpt>
      <trkpt lat="44.33721" lon="6.91329">
        <time>2023-04-16T10:24:26+00:00</time>
        <ele>2467.0</ele>
      </trkpt>
      <trkpt lat="44.3372" lon="6.91331">
        <time>2023-04-16T10:24:28+00:00</time>
        <ele>2467.0</ele>
      </trkpt>
      <trkpt lat="44.3372" lon="6.91332">
        <time>2023-04-16T10:24:29+00:00</time>
        <ele>2467.0</ele>
      </trkpt>
      <trkpt lat="44.3372" lon="6.91332">
        <time>2023-04-16T10:24:30+00:00</time>
        <ele>2467.0</ele>
      </trkpt>
      <trkpt lat="44.33719" lon="6.91334">
        <time>2023-04-16T10:24:32+00:00</time>
        <ele>2468.0</ele>
      </trkpt>
      <trkpt lat="44.33718" lon="6.91337">
        <time>2023-04-16T10:24:36+00:00</time>
        <ele>2468.0</ele>
      </trkpt>
      <trkpt lat="44.33718" lon="6.91338">
        <time>2023-04-16T10:24:37+00:00</time>
        <ele>2469.0</ele>
      </trkpt>
      <trkpt lat="44.33718" lon="6.9134">
        <time>2023-04-16T10:24:39+00:00</time>
        <ele>2469.0</ele>
      </trkpt>
      <trkpt lat="44.33717" lon="6.91342">
        <time>2023-04-16T10:24:42+00:00</time>
        <ele>2470.0</ele>
      </trkpt>
      <trkpt lat="44.33714" lon="6.91348">
        <time>2023-04-16T10:24:52+00:00</time>
        <ele>2472.0</ele>
      </trkpt>
      <trkpt lat="44.33715" lon="6.91348">
        <time>2023-04-16T10:24:56+00:00</time>
        <ele>2472.0</ele>
      </trkpt>
      <trkpt lat="44.33715" lon="6.91348">
        <time>2023-04-16T10:24:59+00:00</time>
        <ele>2472.0</ele>
      </trkpt>
      <trkpt lat="44.33716" lon="6.91348">
        <time>2023-04-16T10:25:01+00:00</time>
        <ele>2472.0</ele>
      </trkpt>
      <trkpt lat="44.33715" lon="6.91351">
        <time>2023-04-16T10:25:05+00:00</time>
        <ele>2473.0</ele>
      </trkpt>
      <trkpt lat="44.33716" lon="6.91355">
        <time>2023-04-16T10:25:14+00:00</time>
        <ele>2474.0</ele>
      </trkpt>
      <trkpt lat="44.33716" lon="6.91357">
        <time>2023-04-16T10:25:16+00:00</time>
        <ele>2475.0</ele>
      </trkpt>
      <trkpt lat="44.33717" lon="6.91357">
        <time>2023-04-16T10:25:17+00:00</time>
        <ele>2475.0</ele>
      </trkpt>
      <trkpt lat="44.33717" lon="6.91358">
        <time>2023-04-16T10:25:19+00:00</time>
        <ele>2475.0</ele>
      </trkpt>
      <trkpt lat="44.33715" lon="6.91361">
        <time>2023-04-16T10:25:22+00:00</time>
        <ele>2476.0</ele>
      </trkpt>
      <trkpt lat="44.33713" lon="6.91364">
        <time>2023-04-16T10:25:28+00:00</time>
        <ele>2477.0</ele>
      </trkpt>
      <trkpt lat="44.33709" lon="6.91369">
        <time>2023-04-16T10:25:36+00:00</time>
        <ele>2479.0</ele>
      </trkpt>
      <trkpt lat="44.33708" lon="6.9137">
        <time>2023-04-16T10:25:38+00:00</time>
        <ele>2480.0</ele>
      </trkpt>
      <trkpt lat="44.33707" lon="6.91371">
        <time>2023-04-16T10:25:40+00:00</time>
        <ele>2480.0</ele>
      </trkpt>
      <trkpt lat="44.33706" lon="6.91372">
        <time>2023-04-16T10:25:42+00:00</time>
        <ele>2481.0</ele>
      </trkpt>
      <trkpt lat="44.33703" lon="6.91374">
        <time>2023-04-16T10:25:48+00:00</time>
        <ele>2482.0</ele>
      </trkpt>
      <trkpt lat="44.33699" lon="6.91378">
        <time>2023-04-16T10:25:55+00:00</time>
        <ele>2484.0</ele>
      </trkpt>
      <trkpt lat="44.33699" lon="6.91379">
        <time>2023-04-16T10:25:58+00:00</time>
        <ele>2484.0</ele>
      </trkpt>
      <trkpt lat="44.33696" lon="6.91379">
        <time>2023-04-16T10:26:12+00:00</time>
        <ele>2485.0</ele>
      </trkpt>
      <trkpt lat="44.33695" lon="6.91384">
        <time>2023-04-16T10:26:18+00:00</time>
        <ele>2487.0</ele>
      </trkpt>
      <trkpt lat="44.33694" lon="6.91384">
        <time>2023-04-16T10:26:20+00:00</time>
        <ele>2487.0</ele>
      </trkpt>
      <trkpt lat="44.33693" lon="6.91385">
        <time>2023-04-16T10:26:22+00:00</time>
        <ele>2487.0</ele>
      </trkpt>
      <trkpt lat="44.33689" lon="6.91392">
        <time>2023-04-16T10:26:32+00:00</time>
        <ele>2491.0</ele>
      </trkpt>
      <trkpt lat="44.33687" lon="6.91391">
        <time>2023-04-16T10:26:35+00:00</time>
        <ele>2490.0</ele>
      </trkpt>
      <trkpt lat="44.33681" lon="6.91389">
        <time>2023-04-16T10:26:42+00:00</time>
        <ele>2491.0</ele>
      </trkpt>
      <trkpt lat="44.33678" lon="6.91389">
        <time>2023-04-16T10:26:46+00:00</time>
        <ele>2492.0</ele>
      </trkpt>
      <trkpt lat="44.33676" lon="6.9139">
        <time>2023-04-16T10:26:48+00:00</time>
        <ele>2493.0</ele>
      </trkpt>
      <trkpt lat="44.33673" lon="6.91389">
        <time>2023-04-16T10:26:56+00:00</time>
        <ele>2494.0</ele>
      </trkpt>
      <trkpt lat="44.33676" lon="6.9139">
        <time>2023-04-16T10:27:17+00:00</time>
        <ele>2493.0</ele>
      </trkpt>
      <trkpt lat="44.33673" lon="6.91392">
        <time>2023-04-16T10:27:24+00:00</time>
        <ele>2495.0</ele>
      </trkpt>
      <trkpt lat="44.33673" lon="6.91393">
        <time>2023-04-16T10:27:27+00:00</time>
        <ele>2495.0</ele>
      </trkpt>
      <trkpt lat="44.3367" lon="6.91391">
        <time>2023-04-16T10:27:33+00:00</time>
        <ele>2496.0</ele>
      </trkpt>
      <trkpt lat="44.33669" lon="6.91391">
        <time>2023-04-16T10:27:34+00:00</time>
        <ele>2496.0</ele>
      </trkpt>
      <trkpt lat="44.33668" lon="6.9139">
        <time>2023-04-16T10:27:35+00:00</time>
        <ele>2496.0</ele>
      </trkpt>
      <trkpt lat="44.33667" lon="6.9139">
        <time>2023-04-16T10:27:36+00:00</time>
        <ele>2496.0</ele>
      </trkpt>
      <trkpt lat="44.33667" lon="6.9139">
        <time>2023-04-16T10:27:37+00:00</time>
        <ele>2496.0</ele>
      </trkpt>
      <trkpt lat="44.33665" lon="6.9139">
        <time>2023-04-16T10:27:39+00:00</time>
        <ele>2498.0</ele>
      </trkpt>
      <trkpt lat="44.33666" lon="6.91396">
        <time>2023-04-16T10:27:50+00:00</time>
        <ele>2499.0</ele>
      </trkpt>
      <trkpt lat="44.33667" lon="6.91397">
        <time>2023-04-16T10:27:51+00:00</time>
        <ele>2499.0</ele>
      </trkpt>
      <trkpt lat="44.33668" lon="6.91398">
        <time>2023-04-16T10:27:52+00:00</time>
        <ele>2499.0</ele>
      </trkpt>
      <trkpt lat="44.33667" lon="6.914">
        <time>2023-04-16T10:27:54+00:00</time>
        <ele>2500.0</ele>
      </trkpt>
      <trkpt lat="44.33667" lon="6.91401">
        <time>2023-04-16T10:27:56+00:00</time>
        <ele>2500.0</ele>
      </trkpt>
      <trkpt lat="44.33666" lon="6.91401">
        <time>2023-04-16T10:27:57+00:00</time>
        <ele>2501.0</ele>
      </trkpt>
      <trkpt lat="44.33666" lon="6.91401">
        <time>2023-04-16T10:27:58+00:00</time>
        <ele>2501.0</ele>
      </trkpt>
      <trkpt lat="44.33665" lon="6.91401">
        <time>2023-04-16T10:28:00+00:00</time>
        <ele>2501.0</ele>
      </trkpt>
      <trkpt lat="44.33665" lon="6.91401">
        <time>2023-04-16T10:28:01+00:00</time>
        <ele>2501.0</ele>
      </trkpt>
      <trkpt lat="44.33663" lon="6.91401">
        <time>2023-04-16T10:28:03+00:00</time>
        <ele>2502.0</ele>
      </trkpt>
      <trkpt lat="44.33659" lon="6.91403">
        <time>2023-04-16T10:28:13+00:00</time>
        <ele>2505.0</ele>
      </trkpt>
      <trkpt lat="44.33658" lon="6.914">
        <time>2023-04-16T10:28:24+00:00</time>
        <ele>2505.0</ele>
      </trkpt>
      <trkpt lat="44.33659" lon="6.914">
        <time>2023-04-16T10:28:27+00:00</time>
        <ele>2504.0</ele>
      </trkpt>
      <trkpt lat="44.33658" lon="6.91402">
        <time>2023-04-16T10:28:37+00:00</time>
        <ele>2506.0</ele>
      </trkpt>
      <trkpt lat="44.33647" lon="6.91405">
        <time>2023-04-16T10:28:55+00:00</time>
        <ele>2512.0</ele>
      </trkpt>
      <trkpt lat="44.33648" lon="6.91407">
        <time>2023-04-16T10:28:56+00:00</time>
        <ele>2512.0</ele>
      </trkpt>
      <trkpt lat="44.33649" lon="6.91408">
        <time>2023-04-16T10:29:00+00:00</time>
        <ele>2512.0</ele>
      </trkpt>
      <trkpt lat="44.33649" lon="6.91409">
        <time>2023-04-16T10:29:02+00:00</time>
        <ele>2512.0</ele>
      </trkpt>
      <trkpt lat="44.33649" lon="6.9141">
        <time>2023-04-16T10:29:03+00:00</time>
        <ele>2512.0</ele>
      </trkpt>
      <trkpt lat="44.33649" lon="6.9141">
        <time>2023-04-16T10:29:04+00:00</time>
        <ele>2512.0</ele>
      </trkpt>
      <trkpt lat="44.33649" lon="6.9141">
        <time>2023-04-16T10:29:07+00:00</time>
        <ele>2512.0</ele>
      </trkpt>
      <trkpt lat="44.33649" lon="6.9141">
        <time>2023-04-16T10:29:08+00:00</time>
        <ele>2512.0</ele>
      </trkpt>
      <trkpt lat="44.33648" lon="6.9141">
        <time>2023-04-16T10:29:09+00:00</time>
        <ele>2513.0</ele>
      </trkpt>
      <trkpt lat="44.33647" lon="6.9141">
        <time>2023-04-16T10:29:10+00:00</time>
        <ele>2513.0</ele>
      </trkpt>
      <trkpt lat="44.33647" lon="6.91411">
        <time>2023-04-16T10:29:11+00:00</time>
        <ele>2513.0</ele>
      </trkpt>
      <trkpt lat="44.33648" lon="6.91411">
        <time>2023-04-16T10:29:12+00:00</time>
        <ele>2513.0</ele>
      </trkpt>
      <trkpt lat="44.33649" lon="6.91412">
        <time>2023-04-16T10:29:14+00:00</time>
        <ele>2513.0</ele>
      </trkpt>
      <trkpt lat="44.33652" lon="6.91413">
        <time>2023-04-16T10:29:16+00:00</time>
        <ele>2512.0</ele>
      </trkpt>
      <trkpt lat="44.33654" lon="6.91414">
        <time>2023-04-16T10:29:19+00:00</time>
        <ele>2511.0</ele>
      </trkpt>
      <trkpt lat="44.33655" lon="6.91415">
        <time>2023-04-16T10:29:20+00:00</time>
        <ele>2511.0</ele>
      </trkpt>
      <trkpt lat="44.33654" lon="6.91415">
        <time>2023-04-16T10:29:21+00:00</time>
        <ele>2511.0</ele>
      </trkpt>
      <trkpt lat="44.33655" lon="6.91417">
        <time>2023-04-16T10:29:23+00:00</time>
        <ele>2511.0</ele>
      </trkpt>
      <trkpt lat="44.33655" lon="6.91421">
        <time>2023-04-16T10:29:33+00:00</time>
        <ele>2512.0</ele>
      </trkpt>
      <trkpt lat="44.33655" lon="6.91422">
        <time>2023-04-16T10:29:35+00:00</time>
        <ele>2512.0</ele>
      </trkpt>
      <trkpt lat="44.33655" lon="6.91422">
        <time>2023-04-16T10:29:36+00:00</time>
        <ele>2512.0</ele>
      </trkpt>
      <trkpt lat="44.33656" lon="6.91423">
        <time>2023-04-16T10:29:38+00:00</time>
        <ele>2512.0</ele>
      </trkpt>
      <trkpt lat="44.33656" lon="6.91423">
        <time>2023-04-16T10:29:39+00:00</time>
        <ele>2512.0</ele>
      </trkpt>
      <trkpt lat="44.33655" lon="6.91423">
        <time>2023-04-16T10:29:40+00:00</time>
        <ele>2513.0</ele>
      </trkpt>
      <trkpt lat="44.33655" lon="6.91423">
        <time>2023-04-16T10:29:42+00:00</time>
        <ele>2513.0</ele>
      </trkpt>
      <trkpt lat="44.33655" lon="6.91423">
        <time>2023-04-16T10:29:43+00:00</time>
        <ele>2513.0</ele>
      </trkpt>
      <trkpt lat="44.33654" lon="6.91423">
        <time>2023-04-16T10:29:44+00:00</time>
        <ele>2513.0</ele>
      </trkpt>
      <trkpt lat="44.33647" lon="6.91421">
        <time>2023-04-16T10:29:51+00:00</time>
        <ele>2515.0</ele>
      </trkpt>
      <trkpt lat="44.33643" lon="6.91424">
        <time>2023-04-16T10:29:59+00:00</time>
        <ele>2517.0</ele>
      </trkpt>
      <trkpt lat="44.33648" lon="6.91423">
        <time>2023-04-16T10:30:02+00:00</time>
        <ele>2515.0</ele>
      </trkpt>
      <trkpt lat="44.33648" lon="6.91427">
        <time>2023-04-16T10:30:08+00:00</time>
        <ele>2516.0</ele>
      </trkpt>
      <trkpt lat="44.33649" lon="6.91428">
        <time>2023-04-16T10:30:11+00:00</time>
        <ele>2516.0</ele>
      </trkpt>
      <trkpt lat="44.3365" lon="6.9143">
        <time>2023-04-16T10:30:15+00:00</time>
        <ele>2516.0</ele>
      </trkpt>
      <trkpt lat="44.33651" lon="6.9143">
        <time>2023-04-16T10:30:16+00:00</time>
        <ele>2515.0</ele>
      </trkpt>
      <trkpt lat="44.33651" lon="6.91431">
        <time>2023-04-16T10:30:17+00:00</time>
        <ele>2515.0</ele>
      </trkpt>
      <trkpt lat="44.33652" lon="6.91431">
        <time>2023-04-16T10:30:18+00:00</time>
        <ele>2515.0</ele>
      </trkpt>
      <trkpt lat="44.33654" lon="6.91433">
        <time>2023-04-16T10:30:21+00:00</time>
        <ele>2515.0</ele>
      </trkpt>
      <trkpt lat="44.33655" lon="6.91435">
        <time>2023-04-16T10:30:24+00:00</time>
        <ele>2515.0</ele>
      </trkpt>
      <trkpt lat="44.33655" lon="6.91436">
        <time>2023-04-16T10:30:29+00:00</time>
        <ele>2515.0</ele>
      </trkpt>
      <trkpt lat="44.33654" lon="6.91437">
        <time>2023-04-16T10:30:32+00:00</time>
        <ele>2515.0</ele>
      </trkpt>
      <trkpt lat="44.33654" lon="6.91437">
        <time>2023-04-16T10:30:33+00:00</time>
        <ele>2515.0</ele>
      </trkpt>
      <trkpt lat="44.33655" lon="6.91438">
        <time>2023-04-16T10:30:36+00:00</time>
        <ele>2515.0</ele>
      </trkpt>
      <trkpt lat="44.33655" lon="6.91439">
        <time>2023-04-16T10:30:37+00:00</time>
        <ele>2516.0</ele>
      </trkpt>
      <trkpt lat="44.3366" lon="6.91442">
        <time>2023-04-16T10:30:47+00:00</time>
        <ele>2515.0</ele>
      </trkpt>
      <trkpt lat="44.33661" lon="6.91442">
        <time>2023-04-16T10:30:48+00:00</time>
        <ele>2514.0</ele>
      </trkpt>
      <trkpt lat="44.33662" lon="6.91443">
        <time>2023-04-16T10:30:49+00:00</time>
        <ele>2514.0</ele>
      </trkpt>
      <trkpt lat="44.33662" lon="6.91443">
        <time>2023-04-16T10:30:51+00:00</time>
        <ele>2514.0</ele>
      </trkpt>
      <trkpt lat="44.33662" lon="6.91446">
        <time>2023-04-16T10:30:54+00:00</time>
        <ele>2515.0</ele>
      </trkpt>
      <trkpt lat="44.33661" lon="6.91446">
        <time>2023-04-16T10:30:56+00:00</time>
        <ele>2515.0</ele>
      </trkpt>
      <trkpt lat="44.33661" lon="6.91446">
        <time>2023-04-16T10:30:58+00:00</time>
        <ele>2515.0</ele>
      </trkpt>
      <trkpt lat="44.33661" lon="6.91446">
        <time>2023-04-16T10:30:59+00:00</time>
        <ele>2515.0</ele>
      </trkpt>
      <trkpt lat="44.33661" lon="6.91446">
        <time>2023-04-16T10:31:01+00:00</time>
        <ele>2515.0</ele>
      </trkpt>
      <trkpt lat="44.33661" lon="6.91448">
        <time>2023-04-16T10:31:09+00:00</time>
        <ele>2516.0</ele>
      </trkpt>
      <trkpt lat="44.33661" lon="6.91449">
        <time>2023-04-16T10:31:11+00:00</time>
        <ele>2516.0</ele>
      </trkpt>
      <trkpt lat="44.33664" lon="6.91448">
        <time>2023-04-16T10:31:20+00:00</time>
        <ele>2515.0</ele>
      </trkpt>
      <trkpt lat="44.33666" lon="6.91448">
        <time>2023-04-16T10:31:24+00:00</time>
        <ele>2514.0</ele>
      </trkpt>
      <trkpt lat="44.33667" lon="6.91448">
        <time>2023-04-16T10:31:25+00:00</time>
        <ele>2514.0</ele>
      </trkpt>
      <trkpt lat="44.33667" lon="6.91448">
        <time>2023-04-16T10:31:26+00:00</time>
        <ele>2514.0</ele>
      </trkpt>
      <trkpt lat="44.3367" lon="6.91452">
        <time>2023-04-16T10:31:29+00:00</time>
        <ele>2514.0</ele>
      </trkpt>
      <trkpt lat="44.33671" lon="6.91453">
        <time>2023-04-16T10:31:30+00:00</time>
        <ele>2514.0</ele>
      </trkpt>
      <trkpt lat="44.33671" lon="6.91455">
        <time>2023-04-16T10:31:32+00:00</time>
        <ele>2515.0</ele>
      </trkpt>
      <trkpt lat="44.33667" lon="6.91455">
        <time>2023-04-16T10:31:40+00:00</time>
        <ele>2515.0</ele>
      </trkpt>
      <trkpt lat="44.33667" lon="6.91456">
        <time>2023-04-16T10:31:46+00:00</time>
        <ele>2515.0</ele>
      </trkpt>
      <trkpt lat="44.33667" lon="6.91456">
        <time>2023-04-16T10:31:47+00:00</time>
        <ele>2515.0</ele>
      </trkpt>
      <trkpt lat="44.33667" lon="6.91456">
        <time>2023-04-16T10:31:48+00:00</time>
        <ele>2515.0</ele>
      </trkpt>
      <trkpt lat="44.33668" lon="6.91456">
        <time>2023-04-16T10:31:50+00:00</time>
        <ele>2515.0</ele>
      </trkpt>
      <trkpt lat="44.33669" lon="6.91457">
        <time>2023-04-16T10:31:51+00:00</time>
        <ele>2515.0</ele>
      </trkpt>
      <trkpt lat="44.33669" lon="6.91458">
        <time>2023-04-16T10:31:53+00:00</time>
        <ele>2515.0</ele>
      </trkpt>
      <trkpt lat="44.33669" lon="6.91459">
        <time>2023-04-16T10:31:54+00:00</time>
        <ele>2515.0</ele>
      </trkpt>
      <trkpt lat="44.33669" lon="6.9146">
        <time>2023-04-16T10:31:57+00:00</time>
        <ele>2516.0</ele>
      </trkpt>
      <trkpt lat="44.33669" lon="6.91461">
        <time>2023-04-16T10:31:58+00:00</time>
        <ele>2516.0</ele>
      </trkpt>
      <trkpt lat="44.33669" lon="6.91462">
        <time>2023-04-16T10:31:59+00:00</time>
        <ele>2516.0</ele>
      </trkpt>
      <trkpt lat="44.33669" lon="6.91463">
        <time>2023-04-16T10:32:00+00:00</time>
        <ele>2516.0</ele>
      </trkpt>
      <trkpt lat="44.33669" lon="6.91464">
        <time>2023-04-16T10:32:01+00:00</time>
        <ele>2516.0</ele>
      </trkpt>
      <trkpt lat="44.33668" lon="6.91464">
        <time>2023-04-16T10:32:03+00:00</time>
        <ele>2516.0</ele>
      </trkpt>
      <trkpt lat="44.33668" lon="6.91465">
        <time>2023-04-16T10:32:04+00:00</time>
        <ele>2516.0</ele>
      </trkpt>
      <trkpt lat="44.33667" lon="6.91466">
        <time>2023-04-16T10:32:05+00:00</time>
        <ele>2517.0</ele>
      </trkpt>
      <trkpt lat="44.33667" lon="6.91466">
        <time>2023-04-16T10:32:06+00:00</time>
        <ele>2517.0</ele>
      </trkpt>
      <trkpt lat="44.33665" lon="6.91469">
        <time>2023-04-16T10:32:09+00:00</time>
        <ele>2518.0</ele>
      </trkpt>
      <trkpt lat="44.33657" lon="6.91475">
        <time>2023-04-16T10:32:22+00:00</time>
        <ele>2520.0</ele>
      </trkpt>
      <trkpt lat="44.33654" lon="6.91476">
        <time>2023-04-16T10:32:31+00:00</time>
        <ele>2521.0</ele>
      </trkpt>
      <trkpt lat="44.33654" lon="6.91477">
        <time>2023-04-16T10:32:34+00:00</time>
        <ele>2521.0</ele>
      </trkpt>
      <trkpt lat="44.33653" lon="6.91479">
        <time>2023-04-16T10:32:42+00:00</time>
        <ele>2522.0</ele>
      </trkpt>
      <trkpt lat="44.33652" lon="6.91479">
        <time>2023-04-16T10:32:44+00:00</time>
        <ele>2522.0</ele>
      </trkpt>
      <trkpt lat="44.3365" lon="6.9148">
        <time>2023-04-16T10:32:48+00:00</time>
        <ele>2522.0</ele>
      </trkpt>
      <trkpt lat="44.33649" lon="6.9148">
        <time>2023-04-16T10:32:51+00:00</time>
        <ele>2522.0</ele>
      </trkpt>
      <trkpt lat="44.33644" lon="6.91481">
        <time>2023-04-16T10:32:57+00:00</time>
        <ele>2524.0</ele>
      </trkpt>
      <trkpt lat="44.33642" lon="6.91482">
        <time>2023-04-16T10:33:00+00:00</time>
        <ele>2525.0</ele>
      </trkpt>
      <trkpt lat="44.33637" lon="6.91482">
        <time>2023-04-16T10:33:07+00:00</time>
        <ele>2526.0</ele>
      </trkpt>
      <trkpt lat="44.33632" lon="6.91487">
        <time>2023-04-16T10:33:14+00:00</time>
        <ele>2529.0</ele>
      </trkpt>
      <trkpt lat="44.3363" lon="6.91488">
        <time>2023-04-16T10:33:17+00:00</time>
        <ele>2529.0</ele>
      </trkpt>
      <trkpt lat="44.33628" lon="6.91488">
        <time>2023-04-16T10:33:19+00:00</time>
        <ele>2530.0</ele>
      </trkpt>
      <trkpt lat="44.33626" lon="6.91487">
        <time>2023-04-16T10:33:23+00:00</time>
        <ele>2531.0</ele>
      </trkpt>
      <trkpt lat="44.33623" lon="6.9149">
        <time>2023-04-16T10:33:31+00:00</time>
        <ele>2532.0</ele>
      </trkpt>
      <trkpt lat="44.33621" lon="6.91491">
        <time>2023-04-16T10:33:34+00:00</time>
        <ele>2533.0</ele>
      </trkpt>
      <trkpt lat="44.3362" lon="6.91491">
        <time>2023-04-16T10:33:36+00:00</time>
        <ele>2534.0</ele>
      </trkpt>
      <trkpt lat="44.3362" lon="6.91492">
        <time>2023-04-16T10:33:40+00:00</time>
        <ele>2534.0</ele>
      </trkpt>
      <trkpt lat="44.33623" lon="6.91492">
        <time>2023-04-16T10:33:46+00:00</time>
        <ele>2533.0</ele>
      </trkpt>
      <trkpt lat="44.33623" lon="6.91491">
        <time>2023-04-16T10:33:57+00:00</time>
        <ele>2533.0</ele>
      </trkpt>
      <trkpt lat="44.33621" lon="6.91487">
        <time>2023-04-16T10:34:00+00:00</time>
        <ele>2533.0</ele>
      </trkpt>
      <trkpt lat="44.33618" lon="6.91487">
        <time>2023-04-16T10:34:06+00:00</time>
        <ele>2534.0</ele>
      </trkpt>
      <trkpt lat="44.33617" lon="6.91489">
        <time>2023-04-16T10:34:11+00:00</time>
        <ele>2535.0</ele>
      </trkpt>
      <trkpt lat="44.33617" lon="6.91489">
        <time>2023-04-16T10:34:12+00:00</time>
        <ele>2535.0</ele>
      </trkpt>
      <trkpt lat="44.33614" lon="6.9149">
        <time>2023-04-16T10:34:18+00:00</time>
        <ele>2536.0</ele>
      </trkpt>
      <trkpt lat="44.33614" lon="6.9149">
        <time>2023-04-16T10:34:19+00:00</time>
        <ele>2536.0</ele>
      </trkpt>
      <trkpt lat="44.33613" lon="6.91493">
        <time>2023-04-16T10:34:24+00:00</time>
        <ele>2537.0</ele>
      </trkpt>
      <trkpt lat="44.33611" lon="6.91493">
        <time>2023-04-16T10:34:28+00:00</time>
        <ele>2538.0</ele>
      </trkpt>
      <trkpt lat="44.33609" lon="6.91492">
        <time>2023-04-16T10:34:32+00:00</time>
        <ele>2538.0</ele>
      </trkpt>
      <trkpt lat="44.33607" lon="6.9149">
        <time>2023-04-16T10:34:36+00:00</time>
        <ele>2539.0</ele>
      </trkpt>
      <trkpt lat="44.33607" lon="6.9149">
        <time>2023-04-16T10:34:37+00:00</time>
        <ele>2539.0</ele>
      </trkpt>
      <trkpt lat="44.33606" lon="6.9149">
        <time>2023-04-16T10:34:38+00:00</time>
        <ele>2539.0</ele>
      </trkpt>
      <trkpt lat="44.33606" lon="6.91489">
        <time>2023-04-16T10:34:39+00:00</time>
        <ele>2539.0</ele>
      </trkpt>
      <trkpt lat="44.33606" lon="6.91489">
        <time>2023-04-16T10:34:40+00:00</time>
        <ele>2539.0</ele>
      </trkpt>
      <trkpt lat="44.33606" lon="6.9149">
        <time>2023-04-16T10:34:43+00:00</time>
        <ele>2539.0</ele>
      </trkpt>
      <trkpt lat="44.33607" lon="6.9149">
        <time>2023-04-16T10:34:44+00:00</time>
        <ele>2539.0</ele>
      </trkpt>
      <trkpt lat="44.33607" lon="6.91489">
        <time>2023-04-16T10:34:45+00:00</time>
        <ele>2539.0</ele>
      </trkpt>
      <trkpt lat="44.33607" lon="6.91489">
        <time>2023-04-16T10:34:47+00:00</time>
        <ele>2539.0</ele>
      </trkpt>
      <trkpt lat="44.33607" lon="6.91489">
        <time>2023-04-16T10:34:49+00:00</time>
        <ele>2539.0</ele>
      </trkpt>
      <trkpt lat="44.33607" lon="6.91489">
        <time>2023-04-16T10:34:51+00:00</time>
        <ele>2539.0</ele>
      </trkpt>
      <trkpt lat="44.33606" lon="6.91488">
        <time>2023-04-16T10:34:53+00:00</time>
        <ele>2539.0</ele>
      </trkpt>
      <trkpt lat="44.33604" lon="6.91487">
        <time>2023-04-16T10:34:57+00:00</time>
        <ele>2539.0</ele>
      </trkpt>
      <trkpt lat="44.33602" lon="6.91487">
        <time>2023-04-16T10:34:59+00:00</time>
        <ele>2540.0</ele>
      </trkpt>
      <trkpt lat="44.33602" lon="6.91487">
        <time>2023-04-16T10:35:00+00:00</time>
        <ele>2540.0</ele>
      </trkpt>
      <trkpt lat="44.336" lon="6.91487">
        <time>2023-04-16T10:35:02+00:00</time>
        <ele>2541.0</ele>
      </trkpt>
      <trkpt lat="44.33599" lon="6.91487">
        <time>2023-04-16T10:35:04+00:00</time>
        <ele>2541.0</ele>
      </trkpt>
      <trkpt lat="44.33599" lon="6.91487">
        <time>2023-04-16T10:35:05+00:00</time>
        <ele>2541.0</ele>
      </trkpt>
      <trkpt lat="44.33598" lon="6.91487">
        <time>2023-04-16T10:35:06+00:00</time>
        <ele>2541.0</ele>
      </trkpt>
      <trkpt lat="44.33597" lon="6.91488">
        <time>2023-04-16T10:35:09+00:00</time>
        <ele>2542.0</ele>
      </trkpt>
      <trkpt lat="44.33594" lon="6.9149">
        <time>2023-04-16T10:35:17+00:00</time>
        <ele>2543.0</ele>
      </trkpt>
      <trkpt lat="44.33593" lon="6.9149">
        <time>2023-04-16T10:35:22+00:00</time>
        <ele>2544.0</ele>
      </trkpt>
      <trkpt lat="44.33593" lon="6.9149">
        <time>2023-04-16T10:35:25+00:00</time>
        <ele>2544.0</ele>
      </trkpt>
      <trkpt lat="44.33593" lon="6.9149">
        <time>2023-04-16T10:35:27+00:00</time>
        <ele>2544.0</ele>
      </trkpt>
      <trkpt lat="44.33593" lon="6.9149">
        <time>2023-04-16T10:35:33+00:00</time>
        <ele>2544.0</ele>
      </trkpt>
      <trkpt lat="44.33592" lon="6.91492">
        <time>2023-04-16T10:35:39+00:00</time>
        <ele>2545.0</ele>
      </trkpt>
      <trkpt lat="44.33591" lon="6.91492">
        <time>2023-04-16T10:35:40+00:00</time>
        <ele>2545.0</ele>
      </trkpt>
      <trkpt lat="44.33591" lon="6.91492">
        <time>2023-04-16T10:35:41+00:00</time>
        <ele>2545.0</ele>
      </trkpt>
      <trkpt lat="44.3359" lon="6.91493">
        <time>2023-04-16T10:35:44+00:00</time>
        <ele>2545.0</ele>
      </trkpt>
      <trkpt lat="44.33587" lon="6.91496">
        <time>2023-04-16T10:35:49+00:00</time>
        <ele>2547.0</ele>
      </trkpt>
      <trkpt lat="44.33585" lon="6.91497">
        <time>2023-04-16T10:35:52+00:00</time>
        <ele>2548.0</ele>
      </trkpt>
      <trkpt lat="44.33581" lon="6.91501">
        <time>2023-04-16T10:36:00+00:00</time>
        <ele>2549.0</ele>
      </trkpt>
      <trkpt lat="44.3358" lon="6.91502">
        <time>2023-04-16T10:36:01+00:00</time>
        <ele>2550.0</ele>
      </trkpt>
      <trkpt lat="44.3358" lon="6.91502">
        <time>2023-04-16T10:36:02+00:00</time>
        <ele>2550.0</ele>
      </trkpt>
      <trkpt lat="44.33576" lon="6.91505">
        <time>2023-04-16T10:36:10+00:00</time>
        <ele>2551.0</ele>
      </trkpt>
      <trkpt lat="44.33575" lon="6.91505">
        <time>2023-04-16T10:36:11+00:00</time>
        <ele>2552.0</ele>
      </trkpt>
      <trkpt lat="44.33575" lon="6.91507">
        <time>2023-04-16T10:36:12+00:00</time>
        <ele>2552.0</ele>
      </trkpt>
      <trkpt lat="44.33575" lon="6.91507">
        <time>2023-04-16T10:36:13+00:00</time>
        <ele>2552.0</ele>
      </trkpt>
      <trkpt lat="44.33575" lon="6.91507">
        <time>2023-04-16T10:36:14+00:00</time>
        <ele>2552.0</ele>
      </trkpt>
      <trkpt lat="44.33575" lon="6.91507">
        <time>2023-04-16T10:36:15+00:00</time>
        <ele>2552.0</ele>
      </trkpt>
      <trkpt lat="44.33576" lon="6.91506">
        <time>2023-04-16T10:36:17+00:00</time>
        <ele>2552.0</ele>
      </trkpt>
      <trkpt lat="44.33576" lon="6.91506">
        <time>2023-04-16T10:36:19+00:00</time>
        <ele>2552.0</ele>
      </trkpt>
      <trkpt lat="44.33576" lon="6.91506">
        <time>2023-04-16T10:36:22+00:00</time>
        <ele>2552.0</ele>
      </trkpt>
      <trkpt lat="44.33576" lon="6.91505">
        <time>2023-04-16T10:36:27+00:00</time>
        <ele>2551.0</ele>
      </trkpt>
      <trkpt lat="44.33576" lon="6.91505">
        <time>2023-04-16T10:36:34+00:00</time>
        <ele>2551.0</ele>
      </trkpt>
      <trkpt lat="44.33576" lon="6.91504">
        <time>2023-04-16T10:36:41+00:00</time>
        <ele>2551.0</ele>
      </trkpt>
      <trkpt lat="44.33575" lon="6.91507">
        <time>2023-04-16T10:36:45+00:00</time>
        <ele>2552.0</ele>
      </trkpt>
      <trkpt lat="44.33573" lon="6.91509">
        <time>2023-04-16T10:36:48+00:00</time>
        <ele>2553.0</ele>
      </trkpt>
      <trkpt lat="44.33571" lon="6.91512">
        <time>2023-04-16T10:36:53+00:00</time>
        <ele>2554.0</ele>
      </trkpt>
      <trkpt lat="44.33571" lon="6.91513">
        <time>2023-04-16T10:36:56+00:00</time>
        <ele>2554.0</ele>
      </trkpt>
      <trkpt lat="44.33569" lon="6.91516">
        <time>2023-04-16T10:37:00+00:00</time>
        <ele>2555.0</ele>
      </trkpt>
      <trkpt lat="44.33569" lon="6.91517">
        <time>2023-04-16T10:37:04+00:00</time>
        <ele>2555.0</ele>
      </trkpt>
      <trkpt lat="44.33568" lon="6.91517">
        <time>2023-04-16T10:37:06+00:00</time>
        <ele>2555.0</ele>
      </trkpt>
      <trkpt lat="44.33567" lon="6.91518">
        <time>2023-04-16T10:37:08+00:00</time>
        <ele>2556.0</ele>
      </trkpt>
      <trkpt lat="44.33564" lon="6.91521">
        <time>2023-04-16T10:37:13+00:00</time>
        <ele>2557.0</ele>
      </trkpt>
      <trkpt lat="44.33563" lon="6.91524">
        <time>2023-04-16T10:37:17+00:00</time>
        <ele>2557.0</ele>
      </trkpt>
      <trkpt lat="44.33562" lon="6.91524">
        <time>2023-04-16T10:37:20+00:00</time>
        <ele>2558.0</ele>
      </trkpt>
      <trkpt lat="44.33561" lon="6.91524">
        <time>2023-04-16T10:37:22+00:00</time>
        <ele>2558.0</ele>
      </trkpt>
      <trkpt lat="44.3356" lon="6.91526">
        <time>2023-04-16T10:37:25+00:00</time>
        <ele>2558.0</ele>
      </trkpt>
      <trkpt lat="44.33559" lon="6.91527">
        <time>2023-04-16T10:37:28+00:00</time>
        <ele>2559.0</ele>
      </trkpt>
      <trkpt lat="44.33558" lon="6.91527">
        <time>2023-04-16T10:37:33+00:00</time>
        <ele>2559.0</ele>
      </trkpt>
      <trkpt lat="44.33558" lon="6.91527">
        <time>2023-04-16T10:37:34+00:00</time>
        <ele>2559.0</ele>
      </trkpt>
      <trkpt lat="44.33558" lon="6.91527">
        <time>2023-04-16T10:37:36+00:00</time>
        <ele>2559.0</ele>
      </trkpt>
      <trkpt lat="44.33558" lon="6.91527">
        <time>2023-04-16T10:37:41+00:00</time>
        <ele>2559.0</ele>
      </trkpt>
      <trkpt lat="44.33556" lon="6.91529">
        <time>2023-04-16T10:37:54+00:00</time>
        <ele>2560.0</ele>
      </trkpt>
      <trkpt lat="44.33556" lon="6.9153">
        <time>2023-04-16T10:37:55+00:00</time>
        <ele>2560.0</ele>
      </trkpt>
      <trkpt lat="44.33556" lon="6.9153">
        <time>2023-04-16T10:37:56+00:00</time>
        <ele>2560.0</ele>
      </trkpt>
      <trkpt lat="44.33555" lon="6.91532">
        <time>2023-04-16T10:37:58+00:00</time>
        <ele>2561.0</ele>
      </trkpt>
      <trkpt lat="44.33549" lon="6.91535">
        <time>2023-04-16T10:38:08+00:00</time>
        <ele>2563.0</ele>
      </trkpt>
      <trkpt lat="44.33548" lon="6.91535">
        <time>2023-04-16T10:38:09+00:00</time>
        <ele>2563.0</ele>
      </trkpt>
      <trkpt lat="44.33547" lon="6.91536">
        <time>2023-04-16T10:38:12+00:00</time>
        <ele>2563.0</ele>
      </trkpt>
      <trkpt lat="44.33546" lon="6.91537">
        <time>2023-04-16T10:38:16+00:00</time>
        <ele>2563.0</ele>
      </trkpt>
      <trkpt lat="44.33544" lon="6.91539">
        <time>2023-04-16T10:38:19+00:00</time>
        <ele>2564.0</ele>
      </trkpt>
      <trkpt lat="44.33543" lon="6.91541">
        <time>2023-04-16T10:38:21+00:00</time>
        <ele>2564.0</ele>
      </trkpt>
      <trkpt lat="44.33542" lon="6.91542">
        <time>2023-04-16T10:38:22+00:00</time>
        <ele>2565.0</ele>
      </trkpt>
      <trkpt lat="44.33542" lon="6.91543">
        <time>2023-04-16T10:38:24+00:00</time>
        <ele>2565.0</ele>
      </trkpt>
      <trkpt lat="44.33541" lon="6.91543">
        <time>2023-04-16T10:38:25+00:00</time>
        <ele>2565.0</ele>
      </trkpt>
      <trkpt lat="44.33539" lon="6.91548">
        <time>2023-04-16T10:38:30+00:00</time>
        <ele>2566.0</ele>
      </trkpt>
      <trkpt lat="44.33537" lon="6.91549">
        <time>2023-04-16T10:38:33+00:00</time>
        <ele>2566.0</ele>
      </trkpt>
      <trkpt lat="44.33536" lon="6.91552">
        <time>2023-04-16T10:38:36+00:00</time>
        <ele>2567.0</ele>
      </trkpt>
      <trkpt lat="44.33532" lon="6.91556">
        <time>2023-04-16T10:38:44+00:00</time>
        <ele>2567.0</ele>
      </trkpt>
      <trkpt lat="44.33531" lon="6.91558">
        <time>2023-04-16T10:38:46+00:00</time>
        <ele>2568.0</ele>
      </trkpt>
      <trkpt lat="44.3353" lon="6.91558">
        <time>2023-04-16T10:38:47+00:00</time>
        <ele>2568.0</ele>
      </trkpt>
      <trkpt lat="44.33529" lon="6.91561">
        <time>2023-04-16T10:38:51+00:00</time>
        <ele>2569.0</ele>
      </trkpt>
      <trkpt lat="44.33528" lon="6.91562">
        <time>2023-04-16T10:38:53+00:00</time>
        <ele>2569.0</ele>
      </trkpt>
      <trkpt lat="44.33524" lon="6.91563">
        <time>2023-04-16T10:39:08+00:00</time>
        <ele>2570.0</ele>
      </trkpt>
      <trkpt lat="44.33523" lon="6.91565">
        <time>2023-04-16T10:39:10+00:00</time>
        <ele>2570.0</ele>
      </trkpt>
      <trkpt lat="44.33521" lon="6.91569">
        <time>2023-04-16T10:39:17+00:00</time>
        <ele>2571.0</ele>
      </trkpt>
      <trkpt lat="44.33519" lon="6.9157">
        <time>2023-04-16T10:39:21+00:00</time>
        <ele>2572.0</ele>
      </trkpt>
      <trkpt lat="44.33519" lon="6.91571">
        <time>2023-04-16T10:39:23+00:00</time>
        <ele>2572.0</ele>
      </trkpt>
      <trkpt lat="44.33518" lon="6.91572">
        <time>2023-04-16T10:39:24+00:00</time>
        <ele>2572.0</ele>
      </trkpt>
      <trkpt lat="44.33517" lon="6.91574">
        <time>2023-04-16T10:39:27+00:00</time>
        <ele>2573.0</ele>
      </trkpt>
      <trkpt lat="44.33517" lon="6.91574">
        <time>2023-04-16T10:39:28+00:00</time>
        <ele>2573.0</ele>
      </trkpt>
      <trkpt lat="44.33516" lon="6.91577">
        <time>2023-04-16T10:39:31+00:00</time>
        <ele>2574.0</ele>
      </trkpt>
      <trkpt lat="44.33513" lon="6.91581">
        <time>2023-04-16T10:39:37+00:00</time>
        <ele>2575.0</ele>
      </trkpt>
      <trkpt lat="44.33511" lon="6.91584">
        <time>2023-04-16T10:39:41+00:00</time>
        <ele>2576.0</ele>
      </trkpt>
      <trkpt lat="44.3351" lon="6.91585">
        <time>2023-04-16T10:39:43+00:00</time>
        <ele>2576.0</ele>
      </trkpt>
      <trkpt lat="44.3351" lon="6.91586">
        <time>2023-04-16T10:39:44+00:00</time>
        <ele>2577.0</ele>
      </trkpt>
      <trkpt lat="44.33509" lon="6.9159">
        <time>2023-04-16T10:39:48+00:00</time>
        <ele>2577.0</ele>
      </trkpt>
      <trkpt lat="44.33509" lon="6.9159">
        <time>2023-04-16T10:39:49+00:00</time>
        <ele>2577.0</ele>
      </trkpt>
      <trkpt lat="44.33508" lon="6.91591">
        <time>2023-04-16T10:39:50+00:00</time>
        <ele>2578.0</ele>
      </trkpt>
      <trkpt lat="44.33508" lon="6.91592">
        <time>2023-04-16T10:39:52+00:00</time>
        <ele>2578.0</ele>
      </trkpt>
      <trkpt lat="44.33507" lon="6.91594">
        <time>2023-04-16T10:39:55+00:00</time>
        <ele>2578.0</ele>
      </trkpt>
      <trkpt lat="44.33507" lon="6.91597">
        <time>2023-04-16T10:39:58+00:00</time>
        <ele>2579.0</ele>
      </trkpt>
      <trkpt lat="44.33505" lon="6.91603">
        <time>2023-04-16T10:40:05+00:00</time>
        <ele>2580.0</ele>
      </trkpt>
      <trkpt lat="44.33506" lon="6.91604">
        <time>2023-04-16T10:40:07+00:00</time>
        <ele>2580.0</ele>
      </trkpt>
      <trkpt lat="44.33506" lon="6.91606">
        <time>2023-04-16T10:40:10+00:00</time>
        <ele>2580.0</ele>
      </trkpt>
      <trkpt lat="44.33506" lon="6.91609">
        <time>2023-04-16T10:40:13+00:00</time>
        <ele>2580.0</ele>
      </trkpt>
      <trkpt lat="44.33506" lon="6.91611">
        <time>2023-04-16T10:40:15+00:00</time>
        <ele>2580.0</ele>
      </trkpt>
      <trkpt lat="44.33505" lon="6.91613">
        <time>2023-04-16T10:40:17+00:00</time>
        <ele>2581.0</ele>
      </trkpt>
      <trkpt lat="44.33504" lon="6.91615">
        <time>2023-04-16T10:40:19+00:00</time>
        <ele>2582.0</ele>
      </trkpt>
      <trkpt lat="44.33504" lon="6.91615">
        <time>2023-04-16T10:40:20+00:00</time>
        <ele>2582.0</ele>
      </trkpt>
      <trkpt lat="44.33504" lon="6.91616">
        <time>2023-04-16T10:40:21+00:00</time>
        <ele>2582.0</ele>
      </trkpt>
      <trkpt lat="44.33503" lon="6.91618">
        <time>2023-04-16T10:40:23+00:00</time>
        <ele>2582.0</ele>
      </trkpt>
      <trkpt lat="44.33503" lon="6.91619">
        <time>2023-04-16T10:40:25+00:00</time>
        <ele>2583.0</ele>
      </trkpt>
      <trkpt lat="44.33502" lon="6.9162">
        <time>2023-04-16T10:40:26+00:00</time>
        <ele>2583.0</ele>
      </trkpt>
      <trkpt lat="44.33501" lon="6.91621">
        <time>2023-04-16T10:40:28+00:00</time>
        <ele>2584.0</ele>
      </trkpt>
      <trkpt lat="44.33501" lon="6.9162">
        <time>2023-04-16T10:40:29+00:00</time>
        <ele>2583.0</ele>
      </trkpt>
      <trkpt lat="44.33501" lon="6.91621">
        <time>2023-04-16T10:40:32+00:00</time>
        <ele>2584.0</ele>
      </trkpt>
      <trkpt lat="44.33502" lon="6.91622">
        <time>2023-04-16T10:40:39+00:00</time>
        <ele>2583.0</ele>
      </trkpt>
      <trkpt lat="44.33502" lon="6.91622">
        <time>2023-04-16T10:40:40+00:00</time>
        <ele>2583.0</ele>
      </trkpt>
      <trkpt lat="44.33502" lon="6.91623">
        <time>2023-04-16T10:40:43+00:00</time>
        <ele>2584.0</ele>
      </trkpt>
      <trkpt lat="44.33502" lon="6.91623">
        <time>2023-04-16T10:40:44+00:00</time>
        <ele>2584.0</ele>
      </trkpt>
      <trkpt lat="44.33502" lon="6.91623">
        <time>2023-04-16T10:40:45+00:00</time>
        <ele>2584.0</ele>
      </trkpt>
      <trkpt lat="44.33501" lon="6.91623">
        <time>2023-04-16T10:40:47+00:00</time>
        <ele>2584.0</ele>
      </trkpt>
      <trkpt lat="44.33501" lon="6.91624">
        <time>2023-04-16T10:40:51+00:00</time>
        <ele>2584.0</ele>
      </trkpt>
      <trkpt lat="44.335" lon="6.91624">
        <time>2023-04-16T10:40:59+00:00</time>
        <ele>2584.0</ele>
      </trkpt>
      <trkpt lat="44.335" lon="6.91625">
        <time>2023-04-16T10:41:01+00:00</time>
        <ele>2584.0</ele>
      </trkpt>
      <trkpt lat="44.335" lon="6.91624">
        <time>2023-04-16T10:41:03+00:00</time>
        <ele>2584.0</ele>
      </trkpt>
      <trkpt lat="44.33501" lon="6.91621">
        <time>2023-04-16T10:41:20+00:00</time>
        <ele>2584.0</ele>
      </trkpt>
      <trkpt lat="44.33501" lon="6.91621">
        <time>2023-04-16T10:41:21+00:00</time>
        <ele>2584.0</ele>
      </trkpt>
      <trkpt lat="44.33502" lon="6.91621">
        <time>2023-04-16T10:41:22+00:00</time>
        <ele>2583.0</ele>
      </trkpt>
      <trkpt lat="44.33502" lon="6.9162">
        <time>2023-04-16T10:41:23+00:00</time>
        <ele>2583.0</ele>
      </trkpt>
      <trkpt lat="44.33502" lon="6.91619">
        <time>2023-04-16T10:41:24+00:00</time>
        <ele>2583.0</ele>
      </trkpt>
      <trkpt lat="44.33502" lon="6.91619">
        <time>2023-04-16T10:41:25+00:00</time>
        <ele>2583.0</ele>
      </trkpt>
      <trkpt lat="44.33502" lon="6.91619">
        <time>2023-04-16T10:41:26+00:00</time>
        <ele>2583.0</ele>
      </trkpt>
      <trkpt lat="44.33502" lon="6.9162">
        <time>2023-04-16T10:41:33+00:00</time>
        <ele>2583.0</ele>
      </trkpt>
      <trkpt lat="44.33502" lon="6.91621">
        <time>2023-04-16T10:41:34+00:00</time>
        <ele>2583.0</ele>
      </trkpt>
      <trkpt lat="44.33502" lon="6.91622">
        <time>2023-04-16T10:41:35+00:00</time>
        <ele>2583.0</ele>
      </trkpt>
      <trkpt lat="44.33502" lon="6.91623">
        <time>2023-04-16T10:41:36+00:00</time>
        <ele>2584.0</ele>
      </trkpt>
      <trkpt lat="44.33501" lon="6.91624">
        <time>2023-04-16T10:41:37+00:00</time>
        <ele>2584.0</ele>
      </trkpt>
      <trkpt lat="44.33501" lon="6.91627">
        <time>2023-04-16T10:41:39+00:00</time>
        <ele>2585.0</ele>
      </trkpt>
      <trkpt lat="44.335" lon="6.9163">
        <time>2023-04-16T10:41:42+00:00</time>
        <ele>2585.0</ele>
      </trkpt>
      <trkpt lat="44.335" lon="6.91635">
        <time>2023-04-16T10:41:46+00:00</time>
        <ele>2586.0</ele>
      </trkpt>
      <trkpt lat="44.335" lon="6.91637">
        <time>2023-04-16T10:41:48+00:00</time>
        <ele>2587.0</ele>
      </trkpt>
      <trkpt lat="44.33499" lon="6.91641">
        <time>2023-04-16T10:41:52+00:00</time>
        <ele>2588.0</ele>
      </trkpt>
      <trkpt lat="44.33498" lon="6.91645">
        <time>2023-04-16T10:41:55+00:00</time>
        <ele>2589.0</ele>
      </trkpt>
      <trkpt lat="44.33498" lon="6.91646">
        <time>2023-04-16T10:41:56+00:00</time>
        <ele>2589.0</ele>
      </trkpt>
      <trkpt lat="44.33499" lon="6.91649">
        <time>2023-04-16T10:41:58+00:00</time>
        <ele>2590.0</ele>
      </trkpt>
      <trkpt lat="44.335" lon="6.91653">
        <time>2023-04-16T10:42:02+00:00</time>
        <ele>2590.0</ele>
      </trkpt>
      <trkpt lat="44.33501" lon="6.91656">
        <time>2023-04-16T10:42:05+00:00</time>
        <ele>2590.0</ele>
      </trkpt>
      <trkpt lat="44.33501" lon="6.91657">
        <time>2023-04-16T10:42:06+00:00</time>
        <ele>2591.0</ele>
      </trkpt>
      <trkpt lat="44.33502" lon="6.91657">
        <time>2023-04-16T10:42:07+00:00</time>
        <ele>2590.0</ele>
      </trkpt>
      <trkpt lat="44.33502" lon="6.91658">
        <time>2023-04-16T10:42:08+00:00</time>
        <ele>2591.0</ele>
      </trkpt>
      <trkpt lat="44.33502" lon="6.91659">
        <time>2023-04-16T10:42:09+00:00</time>
        <ele>2591.0</ele>
      </trkpt>
      <trkpt lat="44.33502" lon="6.9166">
        <time>2023-04-16T10:42:10+00:00</time>
        <ele>2591.0</ele>
      </trkpt>
      <trkpt lat="44.33503" lon="6.91663">
        <time>2023-04-16T10:42:13+00:00</time>
        <ele>2591.0</ele>
      </trkpt>
      <trkpt lat="44.33503" lon="6.91664">
        <time>2023-04-16T10:42:14+00:00</time>
        <ele>2591.0</ele>
      </trkpt>
      <trkpt lat="44.33504" lon="6.91666">
        <time>2023-04-16T10:42:16+00:00</time>
        <ele>2591.0</ele>
      </trkpt>
      <trkpt lat="44.33505" lon="6.91667">
        <time>2023-04-16T10:42:17+00:00</time>
        <ele>2591.0</ele>
      </trkpt>
      <trkpt lat="44.33505" lon="6.91668">
        <time>2023-04-16T10:42:18+00:00</time>
        <ele>2591.0</ele>
      </trkpt>
      <trkpt lat="44.33506" lon="6.9167">
        <time>2023-04-16T10:42:20+00:00</time>
        <ele>2591.0</ele>
      </trkpt>
      <trkpt lat="44.33508" lon="6.91676">
        <time>2023-04-16T10:42:27+00:00</time>
        <ele>2591.0</ele>
      </trkpt>
      <trkpt lat="44.33509" lon="6.91678">
        <time>2023-04-16T10:42:31+00:00</time>
        <ele>2591.0</ele>
      </trkpt>
      <trkpt lat="44.3351" lon="6.9168">
        <time>2023-04-16T10:42:33+00:00</time>
        <ele>2591.0</ele>
      </trkpt>
      <trkpt lat="44.33511" lon="6.91681">
        <time>2023-04-16T10:42:35+00:00</time>
        <ele>2591.0</ele>
      </trkpt>
      <trkpt lat="44.33512" lon="6.91684">
        <time>2023-04-16T10:42:38+00:00</time>
        <ele>2591.0</ele>
      </trkpt>
      <trkpt lat="44.33513" lon="6.91687">
        <time>2023-04-16T10:42:42+00:00</time>
        <ele>2591.0</ele>
      </trkpt>
      <trkpt lat="44.33515" lon="6.91693">
        <time>2023-04-16T10:42:48+00:00</time>
        <ele>2592.0</ele>
      </trkpt>
      <trkpt lat="44.33516" lon="6.91696">
        <time>2023-04-16T10:42:51+00:00</time>
        <ele>2592.0</ele>
      </trkpt>
      <trkpt lat="44.33516" lon="6.91697">
        <time>2023-04-16T10:42:52+00:00</time>
        <ele>2592.0</ele>
      </trkpt>
      <trkpt lat="44.33518" lon="6.91698">
        <time>2023-04-16T10:42:54+00:00</time>
        <ele>2592.0</ele>
      </trkpt>
      <trkpt lat="44.3352" lon="6.91703">
        <time>2023-04-16T10:42:59+00:00</time>
        <ele>2592.0</ele>
      </trkpt>
      <trkpt lat="44.33522" lon="6.91705">
        <time>2023-04-16T10:43:02+00:00</time>
        <ele>2592.0</ele>
      </trkpt>
      <trkpt lat="44.33523" lon="6.91706">
        <time>2023-04-16T10:43:04+00:00</time>
        <ele>2591.0</ele>
      </trkpt>
      <trkpt lat="44.33525" lon="6.91709">
        <time>2023-04-16T10:43:07+00:00</time>
        <ele>2591.0</ele>
      </trkpt>
      <trkpt lat="44.33525" lon="6.9171">
        <time>2023-04-16T10:43:09+00:00</time>
        <ele>2592.0</ele>
      </trkpt>
      <trkpt lat="44.33525" lon="6.91712">
        <time>2023-04-16T10:43:12+00:00</time>
        <ele>2592.0</ele>
      </trkpt>
      <trkpt lat="44.33525" lon="6.91713">
        <time>2023-04-16T10:43:14+00:00</time>
        <ele>2592.0</ele>
      </trkpt>
      <trkpt lat="44.33526" lon="6.91714">
        <time>2023-04-16T10:43:15+00:00</time>
        <ele>2592.0</ele>
      </trkpt>
      <trkpt lat="44.33526" lon="6.91716">
        <time>2023-04-16T10:43:17+00:00</time>
        <ele>2592.0</ele>
      </trkpt>
      <trkpt lat="44.33527" lon="6.91719">
        <time>2023-04-16T10:43:20+00:00</time>
        <ele>2592.0</ele>
      </trkpt>
      <trkpt lat="44.33527" lon="6.91725">
        <time>2023-04-16T10:43:25+00:00</time>
        <ele>2592.0</ele>
      </trkpt>
      <trkpt lat="44.33527" lon="6.91727">
        <time>2023-04-16T10:43:27+00:00</time>
        <ele>2592.0</ele>
      </trkpt>
      <trkpt lat="44.33526" lon="6.91729">
        <time>2023-04-16T10:43:29+00:00</time>
        <ele>2592.0</ele>
      </trkpt>
      <trkpt lat="44.33526" lon="6.91732">
        <time>2023-04-16T10:43:32+00:00</time>
        <ele>2592.0</ele>
      </trkpt>
      <trkpt lat="44.33526" lon="6.91733">
        <time>2023-04-16T10:43:33+00:00</time>
        <ele>2592.0</ele>
      </trkpt>
      <trkpt lat="44.33526" lon="6.91734">
        <time>2023-04-16T10:43:34+00:00</time>
        <ele>2592.0</ele>
      </trkpt>
      <trkpt lat="44.33526" lon="6.91735">
        <time>2023-04-16T10:43:35+00:00</time>
        <ele>2592.0</ele>
      </trkpt>
      <trkpt lat="44.33526" lon="6.91737">
        <time>2023-04-16T10:43:37+00:00</time>
        <ele>2592.0</ele>
      </trkpt>
      <trkpt lat="44.33526" lon="6.9174">
        <time>2023-04-16T10:43:40+00:00</time>
        <ele>2592.0</ele>
      </trkpt>
      <trkpt lat="44.33525" lon="6.91746">
        <time>2023-04-16T10:43:46+00:00</time>
        <ele>2593.0</ele>
      </trkpt>
      <trkpt lat="44.33523" lon="6.91748">
        <time>2023-04-16T10:43:50+00:00</time>
        <ele>2593.0</ele>
      </trkpt>
      <trkpt lat="44.33521" lon="6.91753">
        <time>2023-04-16T10:43:55+00:00</time>
        <ele>2593.0</ele>
      </trkpt>
      <trkpt lat="44.33521" lon="6.91754">
        <time>2023-04-16T10:43:56+00:00</time>
        <ele>2593.0</ele>
      </trkpt>
      <trkpt lat="44.33521" lon="6.91755">
        <time>2023-04-16T10:43:57+00:00</time>
        <ele>2593.0</ele>
      </trkpt>
      <trkpt lat="44.33522" lon="6.91761">
        <time>2023-04-16T10:44:03+00:00</time>
        <ele>2593.0</ele>
      </trkpt>
      <trkpt lat="44.33523" lon="6.91764">
        <time>2023-04-16T10:44:05+00:00</time>
        <ele>2593.0</ele>
      </trkpt>
      <trkpt lat="44.33523" lon="6.91765">
        <time>2023-04-16T10:44:06+00:00</time>
        <ele>2593.0</ele>
      </trkpt>
      <trkpt lat="44.33521" lon="6.91771">
        <time>2023-04-16T10:44:11+00:00</time>
        <ele>2593.0</ele>
      </trkpt>
      <trkpt lat="44.3352" lon="6.91778">
        <time>2023-04-16T10:44:16+00:00</time>
        <ele>2594.0</ele>
      </trkpt>
      <trkpt lat="44.3352" lon="6.91779">
        <time>2023-04-16T10:44:17+00:00</time>
        <ele>2594.0</ele>
      </trkpt>
      <trkpt lat="44.33519" lon="6.91783">
        <time>2023-04-16T10:44:19+00:00</time>
        <ele>2595.0</ele>
      </trkpt>
      <trkpt lat="44.33519" lon="6.91788">
        <time>2023-04-16T10:44:22+00:00</time>
        <ele>2595.0</ele>
      </trkpt>
      <trkpt lat="44.3352" lon="6.91794">
        <time>2023-04-16T10:44:26+00:00</time>
        <ele>2595.0</ele>
      </trkpt>
      <trkpt lat="44.33522" lon="6.918">
        <time>2023-04-16T10:44:29+00:00</time>
        <ele>2596.0</ele>
      </trkpt>
      <trkpt lat="44.33534" lon="6.91818">
        <time>2023-04-16T10:44:36+00:00</time>
        <ele>2597.0</ele>
      </trkpt>
      <trkpt lat="44.33534" lon="6.91821">
        <time>2023-04-16T10:44:39+00:00</time>
        <ele>2597.0</ele>
      </trkpt>
      <trkpt lat="44.33535" lon="6.91823">
        <time>2023-04-16T10:44:41+00:00</time>
        <ele>2597.0</ele>
      </trkpt>
      <trkpt lat="44.33536" lon="6.91826">
        <time>2023-04-16T10:44:44+00:00</time>
        <ele>2597.0</ele>
      </trkpt>
      <trkpt lat="44.33537" lon="6.91827">
        <time>2023-04-16T10:44:45+00:00</time>
        <ele>2597.0</ele>
      </trkpt>
      <trkpt lat="44.33537" lon="6.91828">
        <time>2023-04-16T10:44:46+00:00</time>
        <ele>2597.0</ele>
      </trkpt>
      <trkpt lat="44.33538" lon="6.91829">
        <time>2023-04-16T10:44:47+00:00</time>
        <ele>2597.0</ele>
      </trkpt>
      <trkpt lat="44.33539" lon="6.91829">
        <time>2023-04-16T10:44:48+00:00</time>
        <ele>2597.0</ele>
      </trkpt>
      <trkpt lat="44.33539" lon="6.91831">
        <time>2023-04-16T10:44:49+00:00</time>
        <ele>2597.0</ele>
      </trkpt>
      <trkpt lat="44.3354" lon="6.91833">
        <time>2023-04-16T10:44:52+00:00</time>
        <ele>2597.0</ele>
      </trkpt>
      <trkpt lat="44.33541" lon="6.91835">
        <time>2023-04-16T10:44:53+00:00</time>
        <ele>2597.0</ele>
      </trkpt>
      <trkpt lat="44.33542" lon="6.91836">
        <time>2023-04-16T10:44:55+00:00</time>
        <ele>2597.0</ele>
      </trkpt>
      <trkpt lat="44.33541" lon="6.91836">
        <time>2023-04-16T10:44:56+00:00</time>
        <ele>2597.0</ele>
      </trkpt>
      <trkpt lat="44.33542" lon="6.91838">
        <time>2023-04-16T10:44:59+00:00</time>
        <ele>2597.0</ele>
      </trkpt>
      <trkpt lat="44.33542" lon="6.9184">
        <time>2023-04-16T10:45:02+00:00</time>
        <ele>2597.0</ele>
      </trkpt>
      <trkpt lat="44.33542" lon="6.9184">
        <time>2023-04-16T10:45:03+00:00</time>
        <ele>2597.0</ele>
      </trkpt>
      <trkpt lat="44.33542" lon="6.91841">
        <time>2023-04-16T10:45:04+00:00</time>
        <ele>2598.0</ele>
      </trkpt>
      <trkpt lat="44.33543" lon="6.91842">
        <time>2023-04-16T10:45:06+00:00</time>
        <ele>2597.0</ele>
      </trkpt>
      <trkpt lat="44.33542" lon="6.91843">
        <time>2023-04-16T10:45:08+00:00</time>
        <ele>2598.0</ele>
      </trkpt>
      <trkpt lat="44.3354" lon="6.91845">
        <time>2023-04-16T10:45:10+00:00</time>
        <ele>2600.0</ele>
      </trkpt>
      <trkpt lat="44.33542" lon="6.91849">
        <time>2023-04-16T10:45:16+00:00</time>
        <ele>2599.0</ele>
      </trkpt>
      <trkpt lat="44.33542" lon="6.9185">
        <time>2023-04-16T10:45:17+00:00</time>
        <ele>2600.0</ele>
      </trkpt>
      <trkpt lat="44.33542" lon="6.91851">
        <time>2023-04-16T10:45:18+00:00</time>
        <ele>2600.0</ele>
      </trkpt>
      <trkpt lat="44.33543" lon="6.91852">
        <time>2023-04-16T10:45:19+00:00</time>
        <ele>2599.0</ele>
      </trkpt>
      <trkpt lat="44.33543" lon="6.91853">
        <time>2023-04-16T10:45:20+00:00</time>
        <ele>2600.0</ele>
      </trkpt>
      <trkpt lat="44.33543" lon="6.91853">
        <time>2023-04-16T10:45:21+00:00</time>
        <ele>2600.0</ele>
      </trkpt>
      <trkpt lat="44.33542" lon="6.91854">
        <time>2023-04-16T10:45:22+00:00</time>
        <ele>2600.0</ele>
      </trkpt>
      <trkpt lat="44.3354" lon="6.91859">
        <time>2023-04-16T10:45:27+00:00</time>
        <ele>2602.0</ele>
      </trkpt>
      <trkpt lat="44.3354" lon="6.9186">
        <time>2023-04-16T10:45:28+00:00</time>
        <ele>2602.0</ele>
      </trkpt>
      <trkpt lat="44.3354" lon="6.91861">
        <time>2023-04-16T10:45:29+00:00</time>
        <ele>2602.0</ele>
      </trkpt>
      <trkpt lat="44.33541" lon="6.91862">
        <time>2023-04-16T10:45:30+00:00</time>
        <ele>2602.0</ele>
      </trkpt>
      <trkpt lat="44.3354" lon="6.91862">
        <time>2023-04-16T10:45:31+00:00</time>
        <ele>2602.0</ele>
      </trkpt>
      <trkpt lat="44.3354" lon="6.91863">
        <time>2023-04-16T10:45:32+00:00</time>
        <ele>2602.0</ele>
      </trkpt>
      <trkpt lat="44.3354" lon="6.91864">
        <time>2023-04-16T10:45:33+00:00</time>
        <ele>2602.0</ele>
      </trkpt>
      <trkpt lat="44.33541" lon="6.91865">
        <time>2023-04-16T10:45:34+00:00</time>
        <ele>2602.0</ele>
      </trkpt>
      <trkpt lat="44.33541" lon="6.91866">
        <time>2023-04-16T10:45:35+00:00</time>
        <ele>2602.0</ele>
      </trkpt>
      <trkpt lat="44.33541" lon="6.91867">
        <time>2023-04-16T10:45:36+00:00</time>
        <ele>2602.0</ele>
      </trkpt>
      <trkpt lat="44.33541" lon="6.91869">
        <time>2023-04-16T10:45:37+00:00</time>
        <ele>2603.0</ele>
      </trkpt>
      <trkpt lat="44.33541" lon="6.9187">
        <time>2023-04-16T10:45:38+00:00</time>
        <ele>2603.0</ele>
      </trkpt>
      <trkpt lat="44.33541" lon="6.91871">
        <time>2023-04-16T10:45:39+00:00</time>
        <ele>2603.0</ele>
      </trkpt>
      <trkpt lat="44.33542" lon="6.91872">
        <time>2023-04-16T10:45:40+00:00</time>
        <ele>2602.0</ele>
      </trkpt>
      <trkpt lat="44.33542" lon="6.91875">
        <time>2023-04-16T10:45:42+00:00</time>
        <ele>2603.0</ele>
      </trkpt>
      <trkpt lat="44.33543" lon="6.91878">
        <time>2023-04-16T10:45:44+00:00</time>
        <ele>2603.0</ele>
      </trkpt>
      <trkpt lat="44.33542" lon="6.91879">
        <time>2023-04-16T10:45:45+00:00</time>
        <ele>2603.0</ele>
      </trkpt>
      <trkpt lat="44.33543" lon="6.91884">
        <time>2023-04-16T10:45:48+00:00</time>
        <ele>2603.0</ele>
      </trkpt>
      <trkpt lat="44.33544" lon="6.91887">
        <time>2023-04-16T10:45:51+00:00</time>
        <ele>2603.0</ele>
      </trkpt>
      <trkpt lat="44.33544" lon="6.91888">
        <time>2023-04-16T10:45:53+00:00</time>
        <ele>2603.0</ele>
      </trkpt>
      <trkpt lat="44.33544" lon="6.91888">
        <time>2023-04-16T10:45:54+00:00</time>
        <ele>2603.0</ele>
      </trkpt>
      <trkpt lat="44.33544" lon="6.91887">
        <time>2023-04-16T10:45:55+00:00</time>
        <ele>2603.0</ele>
      </trkpt>
      <trkpt lat="44.33542" lon="6.91886">
        <time>2023-04-16T10:45:58+00:00</time>
        <ele>2604.0</ele>
      </trkpt>
      <trkpt lat="44.33538" lon="6.91885">
        <time>2023-04-16T10:46:03+00:00</time>
        <ele>2606.0</ele>
      </trkpt>
      <trkpt lat="44.33538" lon="6.91883">
        <time>2023-04-16T10:46:05+00:00</time>
        <ele>2605.0</ele>
      </trkpt>
      <trkpt lat="44.33539" lon="6.91886">
        <time>2023-04-16T10:46:08+00:00</time>
        <ele>2605.0</ele>
      </trkpt>
      <trkpt lat="44.3354" lon="6.91887">
        <time>2023-04-16T10:46:09+00:00</time>
        <ele>2605.0</ele>
      </trkpt>
      <trkpt lat="44.33541" lon="6.91891">
        <time>2023-04-16T10:46:12+00:00</time>
        <ele>2605.0</ele>
      </trkpt>
      <trkpt lat="44.33541" lon="6.91892">
        <time>2023-04-16T10:46:13+00:00</time>
        <ele>2605.0</ele>
      </trkpt>
      <trkpt lat="44.33541" lon="6.91894">
        <time>2023-04-16T10:46:15+00:00</time>
        <ele>2605.0</ele>
      </trkpt>
      <trkpt lat="44.33542" lon="6.91897">
        <time>2023-04-16T10:46:17+00:00</time>
        <ele>2605.0</ele>
      </trkpt>
      <trkpt lat="44.33542" lon="6.91899">
        <time>2023-04-16T10:46:18+00:00</time>
        <ele>2605.0</ele>
      </trkpt>
      <trkpt lat="44.33543" lon="6.91903">
        <time>2023-04-16T10:46:22+00:00</time>
        <ele>2605.0</ele>
      </trkpt>
      <trkpt lat="44.33541" lon="6.91913">
        <time>2023-04-16T10:46:34+00:00</time>
        <ele>2607.0</ele>
      </trkpt>
      <trkpt lat="44.3354" lon="6.91919">
        <time>2023-04-16T10:46:40+00:00</time>
        <ele>2607.0</ele>
      </trkpt>
      <trkpt lat="44.33539" lon="6.91922">
        <time>2023-04-16T10:46:44+00:00</time>
        <ele>2608.0</ele>
      </trkpt>
      <trkpt lat="44.33539" lon="6.91924">
        <time>2023-04-16T10:46:45+00:00</time>
        <ele>2608.0</ele>
      </trkpt>
      <trkpt lat="44.33538" lon="6.91925">
        <time>2023-04-16T10:46:46+00:00</time>
        <ele>2609.0</ele>
      </trkpt>
      <trkpt lat="44.33538" lon="6.91925">
        <time>2023-04-16T10:46:48+00:00</time>
        <ele>2609.0</ele>
      </trkpt>
      <trkpt lat="44.3354" lon="6.91926">
        <time>2023-04-16T10:47:00+00:00</time>
        <ele>2608.0</ele>
      </trkpt>
      <trkpt lat="44.33541" lon="6.91938">
        <time>2023-04-16T10:47:13+00:00</time>
        <ele>2608.0</ele>
      </trkpt>
      <trkpt lat="44.33539" lon="6.91943">
        <time>2023-04-16T10:47:17+00:00</time>
        <ele>2609.0</ele>
      </trkpt>
      <trkpt lat="44.33539" lon="6.91944">
        <time>2023-04-16T10:47:18+00:00</time>
        <ele>2609.0</ele>
      </trkpt>
      <trkpt lat="44.33537" lon="6.91949">
        <time>2023-04-16T10:47:22+00:00</time>
        <ele>2610.0</ele>
      </trkpt>
      <trkpt lat="44.33537" lon="6.91951">
        <time>2023-04-16T10:47:24+00:00</time>
        <ele>2610.0</ele>
      </trkpt>
      <trkpt lat="44.33535" lon="6.91954">
        <time>2023-04-16T10:47:27+00:00</time>
        <ele>2611.0</ele>
      </trkpt>
      <trkpt lat="44.33534" lon="6.91956">
        <time>2023-04-16T10:47:28+00:00</time>
        <ele>2612.0</ele>
      </trkpt>
      <trkpt lat="44.33534" lon="6.91957">
        <time>2023-04-16T10:47:29+00:00</time>
        <ele>2612.0</ele>
      </trkpt>
      <trkpt lat="44.33533" lon="6.91958">
        <time>2023-04-16T10:47:30+00:00</time>
        <ele>2612.0</ele>
      </trkpt>
      <trkpt lat="44.33533" lon="6.91959">
        <time>2023-04-16T10:47:31+00:00</time>
        <ele>2612.0</ele>
      </trkpt>
      <trkpt lat="44.33533" lon="6.9196">
        <time>2023-04-16T10:47:32+00:00</time>
        <ele>2612.0</ele>
      </trkpt>
      <trkpt lat="44.33532" lon="6.91961">
        <time>2023-04-16T10:47:33+00:00</time>
        <ele>2613.0</ele>
      </trkpt>
      <trkpt lat="44.33532" lon="6.91962">
        <time>2023-04-16T10:47:34+00:00</time>
        <ele>2613.0</ele>
      </trkpt>
      <trkpt lat="44.33532" lon="6.91963">
        <time>2023-04-16T10:47:35+00:00</time>
        <ele>2613.0</ele>
      </trkpt>
      <trkpt lat="44.33532" lon="6.91964">
        <time>2023-04-16T10:47:36+00:00</time>
        <ele>2613.0</ele>
      </trkpt>
      <trkpt lat="44.33532" lon="6.91965">
        <time>2023-04-16T10:47:37+00:00</time>
        <ele>2613.0</ele>
      </trkpt>
      <trkpt lat="44.33532" lon="6.91966">
        <time>2023-04-16T10:47:38+00:00</time>
        <ele>2613.0</ele>
      </trkpt>
      <trkpt lat="44.33532" lon="6.91967">
        <time>2023-04-16T10:47:39+00:00</time>
        <ele>2613.0</ele>
      </trkpt>
      <trkpt lat="44.33532" lon="6.9197">
        <time>2023-04-16T10:47:42+00:00</time>
        <ele>2614.0</ele>
      </trkpt>
      <trkpt lat="44.33534" lon="6.91975">
        <time>2023-04-16T10:47:45+00:00</time>
        <ele>2613.0</ele>
      </trkpt>
      <trkpt lat="44.33534" lon="6.91976">
        <time>2023-04-16T10:47:46+00:00</time>
        <ele>2613.0</ele>
      </trkpt>
      <trkpt lat="44.33534" lon="6.91979">
        <time>2023-04-16T10:47:49+00:00</time>
        <ele>2614.0</ele>
      </trkpt>
      <trkpt lat="44.33535" lon="6.91983">
        <time>2023-04-16T10:47:52+00:00</time>
        <ele>2613.0</ele>
      </trkpt>
      <trkpt lat="44.33536" lon="6.91985">
        <time>2023-04-16T10:47:55+00:00</time>
        <ele>2613.0</ele>
      </trkpt>
      <trkpt lat="44.33537" lon="6.9199">
        <time>2023-04-16T10:47:59+00:00</time>
        <ele>2613.0</ele>
      </trkpt>
      <trkpt lat="44.33537" lon="6.91992">
        <time>2023-04-16T10:48:01+00:00</time>
        <ele>2612.0</ele>
      </trkpt>
      <trkpt lat="44.33536" lon="6.91994">
        <time>2023-04-16T10:48:03+00:00</time>
        <ele>2613.0</ele>
      </trkpt>
      <trkpt lat="44.33536" lon="6.91995">
        <time>2023-04-16T10:48:04+00:00</time>
        <ele>2613.0</ele>
      </trkpt>
      <trkpt lat="44.33535" lon="6.91996">
        <time>2023-04-16T10:48:05+00:00</time>
        <ele>2613.0</ele>
      </trkpt>
      <trkpt lat="44.33535" lon="6.91998">
        <time>2023-04-16T10:48:07+00:00</time>
        <ele>2613.0</ele>
      </trkpt>
      <trkpt lat="44.33535" lon="6.91999">
        <time>2023-04-16T10:48:08+00:00</time>
        <ele>2613.0</ele>
      </trkpt>
      <trkpt lat="44.33535" lon="6.92">
        <time>2023-04-16T10:48:09+00:00</time>
        <ele>2613.0</ele>
      </trkpt>
      <trkpt lat="44.33535" lon="6.92001">
        <time>2023-04-16T10:48:10+00:00</time>
        <ele>2613.0</ele>
      </trkpt>
      <trkpt lat="44.33535" lon="6.92004">
        <time>2023-04-16T10:48:12+00:00</time>
        <ele>2612.0</ele>
      </trkpt>
      <trkpt lat="44.33534" lon="6.9201">
        <time>2023-04-16T10:48:19+00:00</time>
        <ele>2612.0</ele>
      </trkpt>
      <trkpt lat="44.33536" lon="6.92021">
        <time>2023-04-16T10:48:29+00:00</time>
        <ele>2611.0</ele>
      </trkpt>
      <trkpt lat="44.33535" lon="6.92028">
        <time>2023-04-16T10:48:35+00:00</time>
        <ele>2611.0</ele>
      </trkpt>
      <trkpt lat="44.33531" lon="6.92044">
        <time>2023-04-16T10:48:47+00:00</time>
        <ele>2611.0</ele>
      </trkpt>
      <trkpt lat="44.33529" lon="6.92047">
        <time>2023-04-16T10:48:49+00:00</time>
        <ele>2611.0</ele>
      </trkpt>
      <trkpt lat="44.33526" lon="6.92051">
        <time>2023-04-16T10:48:54+00:00</time>
        <ele>2611.0</ele>
      </trkpt>
      <trkpt lat="44.33521" lon="6.92061">
        <time>2023-04-16T10:49:03+00:00</time>
        <ele>2611.0</ele>
      </trkpt>
      <trkpt lat="44.3352" lon="6.92063">
        <time>2023-04-16T10:49:05+00:00</time>
        <ele>2611.0</ele>
      </trkpt>
      <trkpt lat="44.33515" lon="6.92073">
        <time>2023-04-16T10:49:15+00:00</time>
        <ele>2611.0</ele>
      </trkpt>
      <trkpt lat="44.33515" lon="6.92075">
        <time>2023-04-16T10:49:17+00:00</time>
        <ele>2611.0</ele>
      </trkpt>
      <trkpt lat="44.33511" lon="6.92081">
        <time>2023-04-16T10:49:22+00:00</time>
        <ele>2611.0</ele>
      </trkpt>
      <trkpt lat="44.3351" lon="6.92082">
        <time>2023-04-16T10:49:23+00:00</time>
        <ele>2611.0</ele>
      </trkpt>
      <trkpt lat="44.33499" lon="6.92093">
        <time>2023-04-16T10:49:33+00:00</time>
        <ele>2612.0</ele>
      </trkpt>
      <trkpt lat="44.33498" lon="6.92096">
        <time>2023-04-16T10:49:35+00:00</time>
        <ele>2613.0</ele>
      </trkpt>
      <trkpt lat="44.33496" lon="6.92101">
        <time>2023-04-16T10:49:38+00:00</time>
        <ele>2614.0</ele>
      </trkpt>
      <trkpt lat="44.33495" lon="6.92101">
        <time>2023-04-16T10:49:39+00:00</time>
        <ele>2614.0</ele>
      </trkpt>
      <trkpt lat="44.33494" lon="6.92104">
        <time>2023-04-16T10:49:42+00:00</time>
        <ele>2614.0</ele>
      </trkpt>
      <trkpt lat="44.33494" lon="6.92105">
        <time>2023-04-16T10:49:43+00:00</time>
        <ele>2614.0</ele>
      </trkpt>
      <trkpt lat="44.33494" lon="6.92108">
        <time>2023-04-16T10:49:45+00:00</time>
        <ele>2615.0</ele>
      </trkpt>
      <trkpt lat="44.33494" lon="6.9211">
        <time>2023-04-16T10:49:46+00:00</time>
        <ele>2615.0</ele>
      </trkpt>
      <trkpt lat="44.33495" lon="6.92112">
        <time>2023-04-16T10:49:47+00:00</time>
        <ele>2615.0</ele>
      </trkpt>
      <trkpt lat="44.33497" lon="6.92115">
        <time>2023-04-16T10:49:49+00:00</time>
        <ele>2616.0</ele>
      </trkpt>
      <trkpt lat="44.33497" lon="6.92115">
        <time>2023-04-16T10:49:50+00:00</time>
        <ele>2616.0</ele>
      </trkpt>
      <trkpt lat="44.335" lon="6.92117">
        <time>2023-04-16T10:49:53+00:00</time>
        <ele>2616.0</ele>
      </trkpt>
      <trkpt lat="44.33501" lon="6.92118">
        <time>2023-04-16T10:49:54+00:00</time>
        <ele>2616.0</ele>
      </trkpt>
      <trkpt lat="44.33503" lon="6.92119">
        <time>2023-04-16T10:49:56+00:00</time>
        <ele>2616.0</ele>
      </trkpt>
      <trkpt lat="44.33504" lon="6.9212">
        <time>2023-04-16T10:49:58+00:00</time>
        <ele>2616.0</ele>
      </trkpt>
      <trkpt lat="44.33507" lon="6.92123">
        <time>2023-04-16T10:50:04+00:00</time>
        <ele>2616.0</ele>
      </trkpt>
      <trkpt lat="44.33508" lon="6.92123">
        <time>2023-04-16T10:50:05+00:00</time>
        <ele>2616.0</ele>
      </trkpt>
      <trkpt lat="44.33508" lon="6.92124">
        <time>2023-04-16T10:50:06+00:00</time>
        <ele>2616.0</ele>
      </trkpt>
      <trkpt lat="44.33509" lon="6.92124">
        <time>2023-04-16T10:50:07+00:00</time>
        <ele>2616.0</ele>
      </trkpt>
      <trkpt lat="44.33509" lon="6.92125">
        <time>2023-04-16T10:50:08+00:00</time>
        <ele>2617.0</ele>
      </trkpt>
      <trkpt lat="44.33509" lon="6.92125">
        <time>2023-04-16T10:50:09+00:00</time>
        <ele>2617.0</ele>
      </trkpt>
      <trkpt lat="44.3351" lon="6.92126">
        <time>2023-04-16T10:50:10+00:00</time>
        <ele>2617.0</ele>
      </trkpt>
      <trkpt lat="44.33512" lon="6.9213">
        <time>2023-04-16T10:50:14+00:00</time>
        <ele>2618.0</ele>
      </trkpt>
      <trkpt lat="44.33513" lon="6.92131">
        <time>2023-04-16T10:50:15+00:00</time>
        <ele>2618.0</ele>
      </trkpt>
      <trkpt lat="44.33513" lon="6.92131">
        <time>2023-04-16T10:50:16+00:00</time>
        <ele>2618.0</ele>
      </trkpt>
      <trkpt lat="44.33513" lon="6.92132">
        <time>2023-04-16T10:50:17+00:00</time>
        <ele>2618.0</ele>
      </trkpt>
      <trkpt lat="44.33515" lon="6.9214">
        <time>2023-04-16T10:50:26+00:00</time>
        <ele>2620.0</ele>
      </trkpt>
      <trkpt lat="44.33515" lon="6.92141">
        <time>2023-04-16T10:50:27+00:00</time>
        <ele>2620.0</ele>
      </trkpt>
      <trkpt lat="44.33515" lon="6.92143">
        <time>2023-04-16T10:50:29+00:00</time>
        <ele>2621.0</ele>
      </trkpt>
      <trkpt lat="44.33515" lon="6.92145">
        <time>2023-04-16T10:50:32+00:00</time>
        <ele>2621.0</ele>
      </trkpt>
      <trkpt lat="44.33513" lon="6.92147">
        <time>2023-04-16T10:50:40+00:00</time>
        <ele>2622.0</ele>
      </trkpt>
      <trkpt lat="44.33513" lon="6.92147">
        <time>2023-04-16T10:50:41+00:00</time>
        <ele>2622.0</ele>
      </trkpt>
      <trkpt lat="44.33514" lon="6.92147">
        <time>2023-04-16T10:50:42+00:00</time>
        <ele>2622.0</ele>
      </trkpt>
      <trkpt lat="44.33514" lon="6.92147">
        <time>2023-04-16T10:50:43+00:00</time>
        <ele>2622.0</ele>
      </trkpt>
      <trkpt lat="44.33514" lon="6.92146">
        <time>2023-04-16T10:50:44+00:00</time>
        <ele>2621.0</ele>
      </trkpt>
      <trkpt lat="44.33514" lon="6.92146">
        <time>2023-04-16T10:50:48+00:00</time>
        <ele>2621.0</ele>
      </trkpt>
      <trkpt lat="44.33514" lon="6.92146">
        <time>2023-04-16T10:50:57+00:00</time>
        <ele>2621.0</ele>
      </trkpt>
      <trkpt lat="44.33514" lon="6.92147">
        <time>2023-04-16T10:50:58+00:00</time>
        <ele>2622.0</ele>
      </trkpt>
      <trkpt lat="44.33514" lon="6.92148">
        <time>2023-04-16T10:50:59+00:00</time>
        <ele>2622.0</ele>
      </trkpt>
      <trkpt lat="44.33514" lon="6.92149">
        <time>2023-04-16T10:51:00+00:00</time>
        <ele>2622.0</ele>
      </trkpt>
      <trkpt lat="44.33514" lon="6.9215">
        <time>2023-04-16T10:51:01+00:00</time>
        <ele>2622.0</ele>
      </trkpt>
      <trkpt lat="44.33514" lon="6.9215">
        <time>2023-04-16T10:51:02+00:00</time>
        <ele>2622.0</ele>
      </trkpt>
      <trkpt lat="44.33515" lon="6.92152">
        <time>2023-04-16T10:51:04+00:00</time>
        <ele>2623.0</ele>
      </trkpt>
      <trkpt lat="44.33515" lon="6.92152">
        <time>2023-04-16T10:51:05+00:00</time>
        <ele>2623.0</ele>
      </trkpt>
      <trkpt lat="44.33515" lon="6.92155">
        <time>2023-04-16T10:51:08+00:00</time>
        <ele>2623.0</ele>
      </trkpt>
      <trkpt lat="44.33515" lon="6.92156">
        <time>2023-04-16T10:51:09+00:00</time>
        <ele>2624.0</ele>
      </trkpt>
      <trkpt lat="44.33515" lon="6.92159">
        <time>2023-04-16T10:51:12+00:00</time>
        <ele>2624.0</ele>
      </trkpt>
      <trkpt lat="44.33515" lon="6.92161">
        <time>2023-04-16T10:51:14+00:00</time>
        <ele>2625.0</ele>
      </trkpt>
      <trkpt lat="44.33514" lon="6.92166">
        <time>2023-04-16T10:51:20+00:00</time>
        <ele>2626.0</ele>
      </trkpt>
      <trkpt lat="44.3351" lon="6.9217">
        <time>2023-04-16T10:51:28+00:00</time>
        <ele>2627.0</ele>
      </trkpt>
      <trkpt lat="44.33509" lon="6.9217">
        <time>2023-04-16T10:51:30+00:00</time>
        <ele>2628.0</ele>
      </trkpt>
      <trkpt lat="44.33508" lon="6.92171">
        <time>2023-04-16T10:51:32+00:00</time>
        <ele>2628.0</ele>
      </trkpt>
      <trkpt lat="44.33508" lon="6.92172">
        <time>2023-04-16T10:51:34+00:00</time>
        <ele>2628.0</ele>
      </trkpt>
      <trkpt lat="44.33506" lon="6.9218">
        <time>2023-04-16T10:51:44+00:00</time>
        <ele>2630.0</ele>
      </trkpt>
      <trkpt lat="44.33506" lon="6.92185">
        <time>2023-04-16T10:51:54+00:00</time>
        <ele>2631.0</ele>
      </trkpt>
      <trkpt lat="44.33506" lon="6.92185">
        <time>2023-04-16T10:51:59+00:00</time>
        <ele>2631.0</ele>
      </trkpt>
      <trkpt lat="44.33507" lon="6.92186">
        <time>2023-04-16T10:52:05+00:00</time>
        <ele>2631.0</ele>
      </trkpt>
      <trkpt lat="44.33507" lon="6.92186">
        <time>2023-04-16T10:52:06+00:00</time>
        <ele>2631.0</ele>
      </trkpt>
      <trkpt lat="44.33506" lon="6.92185">
        <time>2023-04-16T10:52:08+00:00</time>
        <ele>2631.0</ele>
      </trkpt>
      <trkpt lat="44.33506" lon="6.92184">
        <time>2023-04-16T10:52:38+00:00</time>
        <ele>2631.0</ele>
      </trkpt>
      <trkpt lat="44.33507" lon="6.92185">
        <time>2023-04-16T10:52:40+00:00</time>
        <ele>2631.0</ele>
      </trkpt>
      <trkpt lat="44.33507" lon="6.92188">
        <time>2023-04-16T10:52:44+00:00</time>
        <ele>2632.0</ele>
      </trkpt>
      <trkpt lat="44.33507" lon="6.92193">
        <time>2023-04-16T10:52:49+00:00</time>
        <ele>2633.0</ele>
      </trkpt>
      <trkpt lat="44.33507" lon="6.92196">
        <time>2023-04-16T10:52:52+00:00</time>
        <ele>2634.0</ele>
      </trkpt>
      <trkpt lat="44.33506" lon="6.92197">
        <time>2023-04-16T10:52:54+00:00</time>
        <ele>2634.0</ele>
      </trkpt>
      <trkpt lat="44.33506" lon="6.92199">
        <time>2023-04-16T10:52:56+00:00</time>
        <ele>2634.0</ele>
      </trkpt>
      <trkpt lat="44.33506" lon="6.922">
        <time>2023-04-16T10:52:57+00:00</time>
        <ele>2635.0</ele>
      </trkpt>
      <trkpt lat="44.33506" lon="6.922">
        <time>2023-04-16T10:52:58+00:00</time>
        <ele>2635.0</ele>
      </trkpt>
      <trkpt lat="44.33506" lon="6.92203">
        <time>2023-04-16T10:53:02+00:00</time>
        <ele>2635.0</ele>
      </trkpt>
      <trkpt lat="44.33505" lon="6.92204">
        <time>2023-04-16T10:53:03+00:00</time>
        <ele>2636.0</ele>
      </trkpt>
      <trkpt lat="44.33502" lon="6.92206">
        <time>2023-04-16T10:53:05+00:00</time>
        <ele>2637.0</ele>
      </trkpt>
      <trkpt lat="44.33502" lon="6.92207">
        <time>2023-04-16T10:53:06+00:00</time>
        <ele>2637.0</ele>
      </trkpt>
      <trkpt lat="44.335" lon="6.92209">
        <time>2023-04-16T10:53:11+00:00</time>
        <ele>2638.0</ele>
      </trkpt>
      <trkpt lat="44.33499" lon="6.92211">
        <time>2023-04-16T10:53:14+00:00</time>
        <ele>2638.0</ele>
      </trkpt>
      <trkpt lat="44.33498" lon="6.92215">
        <time>2023-04-16T10:53:20+00:00</time>
        <ele>2640.0</ele>
      </trkpt>
      <trkpt lat="44.33497" lon="6.92216">
        <time>2023-04-16T10:53:22+00:00</time>
        <ele>2640.0</ele>
      </trkpt>
      <trkpt lat="44.33494" lon="6.92218">
        <time>2023-04-16T10:53:27+00:00</time>
        <ele>2641.0</ele>
      </trkpt>
      <trkpt lat="44.33493" lon="6.92219">
        <time>2023-04-16T10:53:29+00:00</time>
        <ele>2642.0</ele>
      </trkpt>
      <trkpt lat="44.33492" lon="6.92219">
        <time>2023-04-16T10:53:30+00:00</time>
        <ele>2642.0</ele>
      </trkpt>
      <trkpt lat="44.33492" lon="6.9222">
        <time>2023-04-16T10:53:31+00:00</time>
        <ele>2642.0</ele>
      </trkpt>
      <trkpt lat="44.33491" lon="6.92221">
        <time>2023-04-16T10:53:32+00:00</time>
        <ele>2643.0</ele>
      </trkpt>
      <trkpt lat="44.3349" lon="6.92224">
        <time>2023-04-16T10:53:35+00:00</time>
        <ele>2644.0</ele>
      </trkpt>
      <trkpt lat="44.33489" lon="6.92225">
        <time>2023-04-16T10:53:40+00:00</time>
        <ele>2644.0</ele>
      </trkpt>
      <trkpt lat="44.33489" lon="6.92224">
        <time>2023-04-16T10:53:47+00:00</time>
        <ele>2644.0</ele>
      </trkpt>
      <trkpt lat="44.33489" lon="6.92224">
        <time>2023-04-16T10:53:49+00:00</time>
        <ele>2644.0</ele>
      </trkpt>
      <trkpt lat="44.33489" lon="6.92224">
        <time>2023-04-16T10:53:51+00:00</time>
        <ele>2644.0</ele>
      </trkpt>
      <trkpt lat="44.33489" lon="6.92224">
        <time>2023-04-16T10:53:56+00:00</time>
        <ele>2644.0</ele>
      </trkpt>
      <trkpt lat="44.33489" lon="6.92224">
        <time>2023-04-16T10:54:00+00:00</time>
        <ele>2644.0</ele>
      </trkpt>
      <trkpt lat="44.33489" lon="6.92221">
        <time>2023-04-16T10:54:14+00:00</time>
        <ele>2643.0</ele>
      </trkpt>
      <trkpt lat="44.33489" lon="6.92221">
        <time>2023-04-16T10:54:16+00:00</time>
        <ele>2643.0</ele>
      </trkpt>
      <trkpt lat="44.33489" lon="6.92222">
        <time>2023-04-16T10:54:24+00:00</time>
        <ele>2643.0</ele>
      </trkpt>
      <trkpt lat="44.33489" lon="6.92223">
        <time>2023-04-16T10:54:38+00:00</time>
        <ele>2644.0</ele>
      </trkpt>
      <trkpt lat="44.3349" lon="6.92224">
        <time>2023-04-16T10:54:44+00:00</time>
        <ele>2644.0</ele>
      </trkpt>
      <trkpt lat="44.3349" lon="6.92224">
        <time>2023-04-16T10:54:46+00:00</time>
        <ele>2644.0</ele>
      </trkpt>
      <trkpt lat="44.33491" lon="6.92224">
        <time>2023-04-16T10:54:54+00:00</time>
        <ele>2643.0</ele>
      </trkpt>
      <trkpt lat="44.33491" lon="6.92224">
        <time>2023-04-16T10:54:56+00:00</time>
        <ele>2643.0</ele>
      </trkpt>
      <trkpt lat="44.3349" lon="6.92223">
        <time>2023-04-16T10:54:59+00:00</time>
        <ele>2643.0</ele>
      </trkpt>
      <trkpt lat="44.33488" lon="6.92228">
        <time>2023-04-16T10:55:16+00:00</time>
        <ele>2645.0</ele>
      </trkpt>
      <trkpt lat="44.33486" lon="6.9223">
        <time>2023-04-16T10:55:20+00:00</time>
        <ele>2646.0</ele>
      </trkpt>
      <trkpt lat="44.33484" lon="6.92231">
        <time>2023-04-16T10:55:24+00:00</time>
        <ele>2646.0</ele>
      </trkpt>
      <trkpt lat="44.33482" lon="6.92231">
        <time>2023-04-16T10:55:28+00:00</time>
        <ele>2647.0</ele>
      </trkpt>
      <trkpt lat="44.33482" lon="6.92232">
        <time>2023-04-16T10:55:29+00:00</time>
        <ele>2647.0</ele>
      </trkpt>
      <trkpt lat="44.3348" lon="6.92235">
        <time>2023-04-16T10:55:33+00:00</time>
        <ele>2648.0</ele>
      </trkpt>
      <trkpt lat="44.33479" lon="6.92235">
        <time>2023-04-16T10:55:34+00:00</time>
        <ele>2648.0</ele>
      </trkpt>
      <trkpt lat="44.33478" lon="6.92236">
        <time>2023-04-16T10:55:36+00:00</time>
        <ele>2649.0</ele>
      </trkpt>
      <trkpt lat="44.33477" lon="6.92237">
        <time>2023-04-16T10:55:38+00:00</time>
        <ele>2649.0</ele>
      </trkpt>
      <trkpt lat="44.33476" lon="6.92238">
        <time>2023-04-16T10:55:40+00:00</time>
        <ele>2649.0</ele>
      </trkpt>
      <trkpt lat="44.33475" lon="6.92239">
        <time>2023-04-16T10:55:43+00:00</time>
        <ele>2650.0</ele>
      </trkpt>
      <trkpt lat="44.33472" lon="6.92241">
        <time>2023-04-16T10:55:47+00:00</time>
        <ele>2651.0</ele>
      </trkpt>
      <trkpt lat="44.33471" lon="6.92241">
        <time>2023-04-16T10:55:48+00:00</time>
        <ele>2651.0</ele>
      </trkpt>
      <trkpt lat="44.33469" lon="6.92242">
        <time>2023-04-16T10:55:51+00:00</time>
        <ele>2651.0</ele>
      </trkpt>
      <trkpt lat="44.33468" lon="6.92243">
        <time>2023-04-16T10:55:53+00:00</time>
        <ele>2651.0</ele>
      </trkpt>
      <trkpt lat="44.33466" lon="6.92244">
        <time>2023-04-16T10:55:56+00:00</time>
        <ele>2652.0</ele>
      </trkpt>
      <trkpt lat="44.33466" lon="6.92244">
        <time>2023-04-16T10:55:57+00:00</time>
        <ele>2652.0</ele>
      </trkpt>
      <trkpt lat="44.33466" lon="6.92244">
        <time>2023-04-16T10:55:58+00:00</time>
        <ele>2652.0</ele>
      </trkpt>
      <trkpt lat="44.33466" lon="6.92243">
        <time>2023-04-16T10:56:00+00:00</time>
        <ele>2652.0</ele>
      </trkpt>
      <trkpt lat="44.33466" lon="6.92243">
        <time>2023-04-16T10:56:02+00:00</time>
        <ele>2652.0</ele>
      </trkpt>
      <trkpt lat="44.33466" lon="6.92245">
        <time>2023-04-16T10:56:21+00:00</time>
        <ele>2652.0</ele>
      </trkpt>
      <trkpt lat="44.33463" lon="6.92248">
        <time>2023-04-16T10:56:28+00:00</time>
        <ele>2653.0</ele>
      </trkpt>
      <trkpt lat="44.3346" lon="6.9225">
        <time>2023-04-16T10:56:32+00:00</time>
        <ele>2654.0</ele>
      </trkpt>
      <trkpt lat="44.33458" lon="6.92255">
        <time>2023-04-16T10:56:40+00:00</time>
        <ele>2654.0</ele>
      </trkpt>
      <trkpt lat="44.33458" lon="6.92257">
        <time>2023-04-16T10:56:43+00:00</time>
        <ele>2655.0</ele>
      </trkpt>
      <trkpt lat="44.33455" lon="6.92262">
        <time>2023-04-16T10:56:49+00:00</time>
        <ele>2655.0</ele>
      </trkpt>
      <trkpt lat="44.3345" lon="6.92266">
        <time>2023-04-16T10:56:57+00:00</time>
        <ele>2656.0</ele>
      </trkpt>
      <trkpt lat="44.33448" lon="6.92267">
        <time>2023-04-16T10:56:59+00:00</time>
        <ele>2657.0</ele>
      </trkpt>
      <trkpt lat="44.33448" lon="6.92268">
        <time>2023-04-16T10:57:00+00:00</time>
        <ele>2657.0</ele>
      </trkpt>
      <trkpt lat="44.33447" lon="6.92269">
        <time>2023-04-16T10:57:01+00:00</time>
        <ele>2657.0</ele>
      </trkpt>
      <trkpt lat="44.33447" lon="6.9227">
        <time>2023-04-16T10:57:02+00:00</time>
        <ele>2657.0</ele>
      </trkpt>
      <trkpt lat="44.33447" lon="6.92271">
        <time>2023-04-16T10:57:03+00:00</time>
        <ele>2657.0</ele>
      </trkpt>
      <trkpt lat="44.33447" lon="6.92272">
        <time>2023-04-16T10:57:04+00:00</time>
        <ele>2657.0</ele>
      </trkpt>
      <trkpt lat="44.33446" lon="6.92273">
        <time>2023-04-16T10:57:05+00:00</time>
        <ele>2657.0</ele>
      </trkpt>
      <trkpt lat="44.33446" lon="6.92274">
        <time>2023-04-16T10:57:06+00:00</time>
        <ele>2657.0</ele>
      </trkpt>
      <trkpt lat="44.33445" lon="6.92275">
        <time>2023-04-16T10:57:07+00:00</time>
        <ele>2658.0</ele>
      </trkpt>
      <trkpt lat="44.33445" lon="6.92275">
        <time>2023-04-16T10:57:08+00:00</time>
        <ele>2658.0</ele>
      </trkpt>
      <trkpt lat="44.33444" lon="6.92276">
        <time>2023-04-16T10:57:09+00:00</time>
        <ele>2658.0</ele>
      </trkpt>
      <trkpt lat="44.33444" lon="6.92277">
        <time>2023-04-16T10:57:10+00:00</time>
        <ele>2658.0</ele>
      </trkpt>
      <trkpt lat="44.33443" lon="6.9228">
        <time>2023-04-16T10:57:15+00:00</time>
        <ele>2658.0</ele>
      </trkpt>
      <trkpt lat="44.33443" lon="6.92281">
        <time>2023-04-16T10:57:16+00:00</time>
        <ele>2658.0</ele>
      </trkpt>
      <trkpt lat="44.33441" lon="6.92283">
        <time>2023-04-16T10:57:19+00:00</time>
        <ele>2659.0</ele>
      </trkpt>
      <trkpt lat="44.3344" lon="6.92285">
        <time>2023-04-16T10:57:22+00:00</time>
        <ele>2659.0</ele>
      </trkpt>
      <trkpt lat="44.33438" lon="6.92287">
        <time>2023-04-16T10:57:24+00:00</time>
        <ele>2660.0</ele>
      </trkpt>
      <trkpt lat="44.33437" lon="6.92288">
        <time>2023-04-16T10:57:26+00:00</time>
        <ele>2660.0</ele>
      </trkpt>
      <trkpt lat="44.33436" lon="6.92289">
        <time>2023-04-16T10:57:28+00:00</time>
        <ele>2660.0</ele>
      </trkpt>
      <trkpt lat="44.33435" lon="6.9229">
        <time>2023-04-16T10:57:29+00:00</time>
        <ele>2661.0</ele>
      </trkpt>
      <trkpt lat="44.33434" lon="6.9229">
        <time>2023-04-16T10:57:30+00:00</time>
        <ele>2661.0</ele>
      </trkpt>
      <trkpt lat="44.3343" lon="6.92293">
        <time>2023-04-16T10:57:37+00:00</time>
        <ele>2662.0</ele>
      </trkpt>
      <trkpt lat="44.33428" lon="6.92296">
        <time>2023-04-16T10:57:41+00:00</time>
        <ele>2663.0</ele>
      </trkpt>
      <trkpt lat="44.33427" lon="6.92297">
        <time>2023-04-16T10:57:43+00:00</time>
        <ele>2663.0</ele>
      </trkpt>
      <trkpt lat="44.33426" lon="6.92299">
        <time>2023-04-16T10:57:46+00:00</time>
        <ele>2663.0</ele>
      </trkpt>
      <trkpt lat="44.33425" lon="6.92299">
        <time>2023-04-16T10:57:47+00:00</time>
        <ele>2663.0</ele>
      </trkpt>
      <trkpt lat="44.33425" lon="6.92299">
        <time>2023-04-16T10:57:48+00:00</time>
        <ele>2663.0</ele>
      </trkpt>
      <trkpt lat="44.33424" lon="6.92299">
        <time>2023-04-16T10:57:49+00:00</time>
        <ele>2664.0</ele>
      </trkpt>
      <trkpt lat="44.33421" lon="6.923">
        <time>2023-04-16T10:57:54+00:00</time>
        <ele>2664.0</ele>
      </trkpt>
      <trkpt lat="44.33419" lon="6.92302">
        <time>2023-04-16T10:57:58+00:00</time>
        <ele>2664.0</ele>
      </trkpt>
      <trkpt lat="44.33418" lon="6.92303">
        <time>2023-04-16T10:58:00+00:00</time>
        <ele>2665.0</ele>
      </trkpt>
      <trkpt lat="44.33415" lon="6.92305">
        <time>2023-04-16T10:58:04+00:00</time>
        <ele>2665.0</ele>
      </trkpt>
      <trkpt lat="44.33414" lon="6.92305">
        <time>2023-04-16T10:58:06+00:00</time>
        <ele>2665.0</ele>
      </trkpt>
      <trkpt lat="44.33412" lon="6.92307">
        <time>2023-04-16T10:58:09+00:00</time>
        <ele>2666.0</ele>
      </trkpt>
      <trkpt lat="44.33409" lon="6.9231">
        <time>2023-04-16T10:58:13+00:00</time>
        <ele>2667.0</ele>
      </trkpt>
      <trkpt lat="44.33408" lon="6.92311">
        <time>2023-04-16T10:58:15+00:00</time>
        <ele>2667.0</ele>
      </trkpt>
      <trkpt lat="44.33405" lon="6.92312">
        <time>2023-04-16T10:58:19+00:00</time>
        <ele>2668.0</ele>
      </trkpt>
      <trkpt lat="44.33404" lon="6.92313">
        <time>2023-04-16T10:58:20+00:00</time>
        <ele>2668.0</ele>
      </trkpt>
      <trkpt lat="44.33401" lon="6.92315">
        <time>2023-04-16T10:58:29+00:00</time>
        <ele>2669.0</ele>
      </trkpt>
      <trkpt lat="44.334" lon="6.92316">
        <time>2023-04-16T10:58:31+00:00</time>
        <ele>2669.0</ele>
      </trkpt>
      <trkpt lat="44.33399" lon="6.92317">
        <time>2023-04-16T10:58:32+00:00</time>
        <ele>2669.0</ele>
      </trkpt>
      <trkpt lat="44.33398" lon="6.92317">
        <time>2023-04-16T10:58:33+00:00</time>
        <ele>2670.0</ele>
      </trkpt>
      <trkpt lat="44.33397" lon="6.92321">
        <time>2023-04-16T10:58:38+00:00</time>
        <ele>2671.0</ele>
      </trkpt>
      <trkpt lat="44.33397" lon="6.92322">
        <time>2023-04-16T10:58:40+00:00</time>
        <ele>2671.0</ele>
      </trkpt>
      <trkpt lat="44.33396" lon="6.92323">
        <time>2023-04-16T10:58:41+00:00</time>
        <ele>2671.0</ele>
      </trkpt>
      <trkpt lat="44.33396" lon="6.92324">
        <time>2023-04-16T10:58:42+00:00</time>
        <ele>2671.0</ele>
      </trkpt>
      <trkpt lat="44.33394" lon="6.92327">
        <time>2023-04-16T10:58:46+00:00</time>
        <ele>2672.0</ele>
      </trkpt>
      <trkpt lat="44.33393" lon="6.92329">
        <time>2023-04-16T10:58:49+00:00</time>
        <ele>2673.0</ele>
      </trkpt>
      <trkpt lat="44.33392" lon="6.92333">
        <time>2023-04-16T10:58:52+00:00</time>
        <ele>2673.0</ele>
      </trkpt>
      <trkpt lat="44.33388" lon="6.92336">
        <time>2023-04-16T10:58:58+00:00</time>
        <ele>2674.0</ele>
      </trkpt>
      <trkpt lat="44.33387" lon="6.92337">
        <time>2023-04-16T10:59:00+00:00</time>
        <ele>2674.0</ele>
      </trkpt>
      <trkpt lat="44.33386" lon="6.92338">
        <time>2023-04-16T10:59:02+00:00</time>
        <ele>2675.0</ele>
      </trkpt>
      <trkpt lat="44.33385" lon="6.92338">
        <time>2023-04-16T10:59:04+00:00</time>
        <ele>2675.0</ele>
      </trkpt>
      <trkpt lat="44.33384" lon="6.92338">
        <time>2023-04-16T10:59:05+00:00</time>
        <ele>2675.0</ele>
      </trkpt>
      <trkpt lat="44.33384" lon="6.92339">
        <time>2023-04-16T10:59:09+00:00</time>
        <ele>2675.0</ele>
      </trkpt>
      <trkpt lat="44.33383" lon="6.9234">
        <time>2023-04-16T10:59:11+00:00</time>
        <ele>2675.0</ele>
      </trkpt>
      <trkpt lat="44.33383" lon="6.9234">
        <time>2023-04-16T10:59:12+00:00</time>
        <ele>2675.0</ele>
      </trkpt>
      <trkpt lat="44.33381" lon="6.92345">
        <time>2023-04-16T10:59:18+00:00</time>
        <ele>2676.0</ele>
      </trkpt>
      <trkpt lat="44.33377" lon="6.92348">
        <time>2023-04-16T10:59:24+00:00</time>
        <ele>2677.0</ele>
      </trkpt>
      <trkpt lat="44.33376" lon="6.9235">
        <time>2023-04-16T10:59:28+00:00</time>
        <ele>2677.0</ele>
      </trkpt>
      <trkpt lat="44.33375" lon="6.92351">
        <time>2023-04-16T10:59:29+00:00</time>
        <ele>2678.0</ele>
      </trkpt>
      <trkpt lat="44.33374" lon="6.92352">
        <time>2023-04-16T10:59:31+00:00</time>
        <ele>2678.0</ele>
      </trkpt>
      <trkpt lat="44.33373" lon="6.92353">
        <time>2023-04-16T10:59:33+00:00</time>
        <ele>2678.0</ele>
      </trkpt>
      <trkpt lat="44.33372" lon="6.92356">
        <time>2023-04-16T10:59:38+00:00</time>
        <ele>2679.0</ele>
      </trkpt>
      <trkpt lat="44.33372" lon="6.92357">
        <time>2023-04-16T10:59:39+00:00</time>
        <ele>2679.0</ele>
      </trkpt>
      <trkpt lat="44.33371" lon="6.92359">
        <time>2023-04-16T10:59:41+00:00</time>
        <ele>2679.0</ele>
      </trkpt>
      <trkpt lat="44.33366" lon="6.92365">
        <time>2023-04-16T10:59:50+00:00</time>
        <ele>2681.0</ele>
      </trkpt>
      <trkpt lat="44.33365" lon="6.92366">
        <time>2023-04-16T10:59:52+00:00</time>
        <ele>2681.0</ele>
      </trkpt>
      <trkpt lat="44.33364" lon="6.92369">
        <time>2023-04-16T10:59:55+00:00</time>
        <ele>2681.0</ele>
      </trkpt>
      <trkpt lat="44.33363" lon="6.9237">
        <time>2023-04-16T10:59:56+00:00</time>
        <ele>2681.0</ele>
      </trkpt>
      <trkpt lat="44.33363" lon="6.92371">
        <time>2023-04-16T10:59:57+00:00</time>
        <ele>2681.0</ele>
      </trkpt>
      <trkpt lat="44.33362" lon="6.92373">
        <time>2023-04-16T11:00:00+00:00</time>
        <ele>2682.0</ele>
      </trkpt>
      <trkpt lat="44.33362" lon="6.92374">
        <time>2023-04-16T11:00:02+00:00</time>
        <ele>2682.0</ele>
      </trkpt>
      <trkpt lat="44.33361" lon="6.92375">
        <time>2023-04-16T11:00:04+00:00</time>
        <ele>2682.0</ele>
      </trkpt>
      <trkpt lat="44.33359" lon="6.92376">
        <time>2023-04-16T11:00:08+00:00</time>
        <ele>2682.0</ele>
      </trkpt>
      <trkpt lat="44.33358" lon="6.92377">
        <time>2023-04-16T11:00:09+00:00</time>
        <ele>2682.0</ele>
      </trkpt>
      <trkpt lat="44.33356" lon="6.9238">
        <time>2023-04-16T11:00:15+00:00</time>
        <ele>2683.0</ele>
      </trkpt>
      <trkpt lat="44.33356" lon="6.9238">
        <time>2023-04-16T11:00:16+00:00</time>
        <ele>2683.0</ele>
      </trkpt>
      <trkpt lat="44.33355" lon="6.92381">
        <time>2023-04-16T11:00:18+00:00</time>
        <ele>2683.0</ele>
      </trkpt>
      <trkpt lat="44.33353" lon="6.92389">
        <time>2023-04-16T11:00:27+00:00</time>
        <ele>2684.0</ele>
      </trkpt>
      <trkpt lat="44.3335" lon="6.924">
        <time>2023-04-16T11:00:40+00:00</time>
        <ele>2686.0</ele>
      </trkpt>
      <trkpt lat="44.3335" lon="6.92401">
        <time>2023-04-16T11:00:41+00:00</time>
        <ele>2686.0</ele>
      </trkpt>
      <trkpt lat="44.3335" lon="6.92402">
        <time>2023-04-16T11:00:42+00:00</time>
        <ele>2686.0</ele>
      </trkpt>
      <trkpt lat="44.3335" lon="6.92403">
        <time>2023-04-16T11:00:43+00:00</time>
        <ele>2686.0</ele>
      </trkpt>
      <trkpt lat="44.3335" lon="6.92404">
        <time>2023-04-16T11:00:45+00:00</time>
        <ele>2686.0</ele>
      </trkpt>
      <trkpt lat="44.33347" lon="6.92412">
        <time>2023-04-16T11:00:53+00:00</time>
        <ele>2687.0</ele>
      </trkpt>
      <trkpt lat="44.33347" lon="6.92414">
        <time>2023-04-16T11:00:55+00:00</time>
        <ele>2687.0</ele>
      </trkpt>
      <trkpt lat="44.33346" lon="6.92416">
        <time>2023-04-16T11:00:57+00:00</time>
        <ele>2687.0</ele>
      </trkpt>
      <trkpt lat="44.33346" lon="6.92417">
        <time>2023-04-16T11:00:58+00:00</time>
        <ele>2687.0</ele>
      </trkpt>
      <trkpt lat="44.33346" lon="6.92418">
        <time>2023-04-16T11:01:00+00:00</time>
        <ele>2687.0</ele>
      </trkpt>
      <trkpt lat="44.33345" lon="6.92419">
        <time>2023-04-16T11:01:02+00:00</time>
        <ele>2687.0</ele>
      </trkpt>
      <trkpt lat="44.33343" lon="6.92423">
        <time>2023-04-16T11:01:07+00:00</time>
        <ele>2688.0</ele>
      </trkpt>
      <trkpt lat="44.3334" lon="6.92428">
        <time>2023-04-16T11:01:16+00:00</time>
        <ele>2688.0</ele>
      </trkpt>
      <trkpt lat="44.33339" lon="6.92429">
        <time>2023-04-16T11:01:18+00:00</time>
        <ele>2688.0</ele>
      </trkpt>
      <trkpt lat="44.33338" lon="6.9243">
        <time>2023-04-16T11:01:20+00:00</time>
        <ele>2689.0</ele>
      </trkpt>
      <trkpt lat="44.33338" lon="6.92431">
        <time>2023-04-16T11:01:21+00:00</time>
        <ele>2689.0</ele>
      </trkpt>
      <trkpt lat="44.33338" lon="6.92432">
        <time>2023-04-16T11:01:22+00:00</time>
        <ele>2689.0</ele>
      </trkpt>
      <trkpt lat="44.33334" lon="6.92437">
        <time>2023-04-16T11:01:29+00:00</time>
        <ele>2690.0</ele>
      </trkpt>
      <trkpt lat="44.33333" lon="6.92439">
        <time>2023-04-16T11:01:31+00:00</time>
        <ele>2690.0</ele>
      </trkpt>
      <trkpt lat="44.33333" lon="6.92444">
        <time>2023-04-16T11:01:38+00:00</time>
        <ele>2691.0</ele>
      </trkpt>
      <trkpt lat="44.33331" lon="6.92446">
        <time>2023-04-16T11:01:43+00:00</time>
        <ele>2691.0</ele>
      </trkpt>
      <trkpt lat="44.3333" lon="6.92447">
        <time>2023-04-16T11:01:45+00:00</time>
        <ele>2692.0</ele>
      </trkpt>
      <trkpt lat="44.33328" lon="6.92449">
        <time>2023-04-16T11:01:47+00:00</time>
        <ele>2693.0</ele>
      </trkpt>
      <trkpt lat="44.33326" lon="6.92451">
        <time>2023-04-16T11:01:51+00:00</time>
        <ele>2694.0</ele>
      </trkpt>
      <trkpt lat="44.33325" lon="6.92452">
        <time>2023-04-16T11:01:53+00:00</time>
        <ele>2694.0</ele>
      </trkpt>
      <trkpt lat="44.33322" lon="6.92455">
        <time>2023-04-16T11:02:00+00:00</time>
        <ele>2695.0</ele>
      </trkpt>
      <trkpt lat="44.33321" lon="6.92456">
        <time>2023-04-16T11:02:02+00:00</time>
        <ele>2695.0</ele>
      </trkpt>
      <trkpt lat="44.33321" lon="6.92457">
        <time>2023-04-16T11:02:03+00:00</time>
        <ele>2696.0</ele>
      </trkpt>
      <trkpt lat="44.3332" lon="6.92458">
        <time>2023-04-16T11:02:05+00:00</time>
        <ele>2696.0</ele>
      </trkpt>
      <trkpt lat="44.33319" lon="6.92459">
        <time>2023-04-16T11:02:10+00:00</time>
        <ele>2697.0</ele>
      </trkpt>
      <trkpt lat="44.33319" lon="6.92459">
        <time>2023-04-16T11:02:11+00:00</time>
        <ele>2697.0</ele>
      </trkpt>
      <trkpt lat="44.33319" lon="6.92458">
        <time>2023-04-16T11:02:13+00:00</time>
        <ele>2696.0</ele>
      </trkpt>
      <trkpt lat="44.33318" lon="6.92458">
        <time>2023-04-16T11:02:20+00:00</time>
        <ele>2697.0</ele>
      </trkpt>
      <trkpt lat="44.33319" lon="6.92459">
        <time>2023-04-16T11:02:22+00:00</time>
        <ele>2697.0</ele>
      </trkpt>
      <trkpt lat="44.33319" lon="6.9246">
        <time>2023-04-16T11:02:23+00:00</time>
        <ele>2697.0</ele>
      </trkpt>
      <trkpt lat="44.33318" lon="6.92459">
        <time>2023-04-16T11:02:26+00:00</time>
        <ele>2697.0</ele>
      </trkpt>
      <trkpt lat="44.33318" lon="6.92459">
        <time>2023-04-16T11:02:28+00:00</time>
        <ele>2697.0</ele>
      </trkpt>
      <trkpt lat="44.33318" lon="6.92458">
        <time>2023-04-16T11:02:34+00:00</time>
        <ele>2697.0</ele>
      </trkpt>
      <trkpt lat="44.33318" lon="6.92458">
        <time>2023-04-16T11:02:39+00:00</time>
        <ele>2697.0</ele>
      </trkpt>
      <trkpt lat="44.33317" lon="6.9246">
        <time>2023-04-16T11:02:45+00:00</time>
        <ele>2697.0</ele>
      </trkpt>
      <trkpt lat="44.33316" lon="6.92462">
        <time>2023-04-16T11:02:48+00:00</time>
        <ele>2698.0</ele>
      </trkpt>
      <trkpt lat="44.33314" lon="6.92465">
        <time>2023-04-16T11:02:53+00:00</time>
        <ele>2699.0</ele>
      </trkpt>
      <trkpt lat="44.33313" lon="6.92468">
        <time>2023-04-16T11:02:56+00:00</time>
        <ele>2700.0</ele>
      </trkpt>
      <trkpt lat="44.33313" lon="6.92469">
        <time>2023-04-16T11:02:57+00:00</time>
        <ele>2700.0</ele>
      </trkpt>
      <trkpt lat="44.33313" lon="6.9247">
        <time>2023-04-16T11:02:58+00:00</time>
        <ele>2700.0</ele>
      </trkpt>
      <trkpt lat="44.33313" lon="6.92474">
        <time>2023-04-16T11:03:01+00:00</time>
        <ele>2701.0</ele>
      </trkpt>
      <trkpt lat="44.33312" lon="6.92475">
        <time>2023-04-16T11:03:03+00:00</time>
        <ele>2702.0</ele>
      </trkpt>
      <trkpt lat="44.3331" lon="6.92477">
        <time>2023-04-16T11:03:05+00:00</time>
        <ele>2703.0</ele>
      </trkpt>
      <trkpt lat="44.33309" lon="6.92479">
        <time>2023-04-16T11:03:07+00:00</time>
        <ele>2704.0</ele>
      </trkpt>
      <trkpt lat="44.33309" lon="6.92479">
        <time>2023-04-16T11:03:08+00:00</time>
        <ele>2704.0</ele>
      </trkpt>
      <trkpt lat="44.33308" lon="6.9248">
        <time>2023-04-16T11:03:09+00:00</time>
        <ele>2704.0</ele>
      </trkpt>
      <trkpt lat="44.33308" lon="6.92481">
        <time>2023-04-16T11:03:10+00:00</time>
        <ele>2704.0</ele>
      </trkpt>
      <trkpt lat="44.33308" lon="6.92482">
        <time>2023-04-16T11:03:11+00:00</time>
        <ele>2704.0</ele>
      </trkpt>
      <trkpt lat="44.33308" lon="6.92483">
        <time>2023-04-16T11:03:13+00:00</time>
        <ele>2705.0</ele>
      </trkpt>
      <trkpt lat="44.33307" lon="6.92485">
        <time>2023-04-16T11:03:16+00:00</time>
        <ele>2705.0</ele>
      </trkpt>
      <trkpt lat="44.33306" lon="6.92486">
        <time>2023-04-16T11:03:17+00:00</time>
        <ele>2706.0</ele>
      </trkpt>
      <trkpt lat="44.33306" lon="6.92486">
        <time>2023-04-16T11:03:18+00:00</time>
        <ele>2706.0</ele>
      </trkpt>
      <trkpt lat="44.33306" lon="6.92488">
        <time>2023-04-16T11:03:20+00:00</time>
        <ele>2706.0</ele>
      </trkpt>
      <trkpt lat="44.33305" lon="6.9249">
        <time>2023-04-16T11:03:22+00:00</time>
        <ele>2707.0</ele>
      </trkpt>
      <trkpt lat="44.33304" lon="6.92492">
        <time>2023-04-16T11:03:24+00:00</time>
        <ele>2707.0</ele>
      </trkpt>
      <trkpt lat="44.33304" lon="6.92493">
        <time>2023-04-16T11:03:25+00:00</time>
        <ele>2707.0</ele>
      </trkpt>
      <trkpt lat="44.33304" lon="6.92495">
        <time>2023-04-16T11:03:26+00:00</time>
        <ele>2708.0</ele>
      </trkpt>
      <trkpt lat="44.33304" lon="6.92496">
        <time>2023-04-16T11:03:27+00:00</time>
        <ele>2708.0</ele>
      </trkpt>
      <trkpt lat="44.33304" lon="6.92497">
        <time>2023-04-16T11:03:28+00:00</time>
        <ele>2708.0</ele>
      </trkpt>
      <trkpt lat="44.33304" lon="6.92498">
        <time>2023-04-16T11:03:29+00:00</time>
        <ele>2708.0</ele>
      </trkpt>
      <trkpt lat="44.33304" lon="6.92499">
        <time>2023-04-16T11:03:30+00:00</time>
        <ele>2708.0</ele>
      </trkpt>
      <trkpt lat="44.33304" lon="6.92499">
        <time>2023-04-16T11:03:31+00:00</time>
        <ele>2708.0</ele>
      </trkpt>
      <trkpt lat="44.33304" lon="6.92501">
        <time>2023-04-16T11:03:33+00:00</time>
        <ele>2709.0</ele>
      </trkpt>
      <trkpt lat="44.33304" lon="6.92501">
        <time>2023-04-16T11:03:34+00:00</time>
        <ele>2709.0</ele>
      </trkpt>
      <trkpt lat="44.33304" lon="6.92502">
        <time>2023-04-16T11:03:36+00:00</time>
        <ele>2709.0</ele>
      </trkpt>
      <trkpt lat="44.33304" lon="6.92505">
        <time>2023-04-16T11:03:39+00:00</time>
        <ele>2710.0</ele>
      </trkpt>
      <trkpt lat="44.33304" lon="6.92505">
        <time>2023-04-16T11:03:40+00:00</time>
        <ele>2710.0</ele>
      </trkpt>
      <trkpt lat="44.33303" lon="6.92506">
        <time>2023-04-16T11:03:41+00:00</time>
        <ele>2710.0</ele>
      </trkpt>
      <trkpt lat="44.33303" lon="6.92507">
        <time>2023-04-16T11:03:43+00:00</time>
        <ele>2710.0</ele>
      </trkpt>
      <trkpt lat="44.33303" lon="6.92508">
        <time>2023-04-16T11:03:50+00:00</time>
        <ele>2710.0</ele>
      </trkpt>
      <trkpt lat="44.33303" lon="6.92508">
        <time>2023-04-16T11:03:52+00:00</time>
        <ele>2710.0</ele>
      </trkpt>
      <trkpt lat="44.33303" lon="6.92508">
        <time>2023-04-16T11:03:54+00:00</time>
        <ele>2710.0</ele>
      </trkpt>
      <trkpt lat="44.33303" lon="6.92508">
        <time>2023-04-16T11:03:59+00:00</time>
        <ele>2710.0</ele>
      </trkpt>
      <trkpt lat="44.33303" lon="6.92507">
        <time>2023-04-16T11:04:03+00:00</time>
        <ele>2710.0</ele>
      </trkpt>
      <trkpt lat="44.33303" lon="6.92507">
        <time>2023-04-16T11:04:06+00:00</time>
        <ele>2710.0</ele>
      </trkpt>
      <trkpt lat="44.33302" lon="6.92507">
        <time>2023-04-16T11:04:10+00:00</time>
        <ele>2710.0</ele>
      </trkpt>
      <trkpt lat="44.33302" lon="6.92507">
        <time>2023-04-16T11:04:16+00:00</time>
        <ele>2710.0</ele>
      </trkpt>
      <trkpt lat="44.33302" lon="6.92513">
        <time>2023-04-16T11:04:21+00:00</time>
        <ele>2711.0</ele>
      </trkpt>
      <trkpt lat="44.33302" lon="6.92517">
        <time>2023-04-16T11:04:26+00:00</time>
        <ele>2712.0</ele>
      </trkpt>
      <trkpt lat="44.33302" lon="6.92518">
        <time>2023-04-16T11:04:27+00:00</time>
        <ele>2712.0</ele>
      </trkpt>
      <trkpt lat="44.33302" lon="6.92519">
        <time>2023-04-16T11:04:29+00:00</time>
        <ele>2713.0</ele>
      </trkpt>
      <trkpt lat="44.33302" lon="6.9252">
        <time>2023-04-16T11:04:30+00:00</time>
        <ele>2713.0</ele>
      </trkpt>
      <trkpt lat="44.33302" lon="6.92521">
        <time>2023-04-16T11:04:31+00:00</time>
        <ele>2713.0</ele>
      </trkpt>
      <trkpt lat="44.33302" lon="6.92523">
        <time>2023-04-16T11:04:33+00:00</time>
        <ele>2713.0</ele>
      </trkpt>
      <trkpt lat="44.33302" lon="6.92527">
        <time>2023-04-16T11:04:36+00:00</time>
        <ele>2714.0</ele>
      </trkpt>
      <trkpt lat="44.33303" lon="6.92528">
        <time>2023-04-16T11:04:37+00:00</time>
        <ele>2714.0</ele>
      </trkpt>
      <trkpt lat="44.33303" lon="6.9253">
        <time>2023-04-16T11:04:38+00:00</time>
        <ele>2714.0</ele>
      </trkpt>
      <trkpt lat="44.33305" lon="6.92534">
        <time>2023-04-16T11:04:44+00:00</time>
        <ele>2715.0</ele>
      </trkpt>
      <trkpt lat="44.33306" lon="6.92538">
        <time>2023-04-16T11:04:49+00:00</time>
        <ele>2716.0</ele>
      </trkpt>
      <trkpt lat="44.33306" lon="6.92541">
        <time>2023-04-16T11:04:51+00:00</time>
        <ele>2716.0</ele>
      </trkpt>
      <trkpt lat="44.33305" lon="6.92542">
        <time>2023-04-16T11:04:53+00:00</time>
        <ele>2716.0</ele>
      </trkpt>
      <trkpt lat="44.33303" lon="6.92543">
        <time>2023-04-16T11:04:55+00:00</time>
        <ele>2716.0</ele>
      </trkpt>
      <trkpt lat="44.33302" lon="6.92544">
        <time>2023-04-16T11:04:56+00:00</time>
        <ele>2717.0</ele>
      </trkpt>
      <trkpt lat="44.333" lon="6.92544">
        <time>2023-04-16T11:04:58+00:00</time>
        <ele>2716.0</ele>
      </trkpt>
      <trkpt lat="44.33299" lon="6.92545">
        <time>2023-04-16T11:05:00+00:00</time>
        <ele>2716.0</ele>
      </trkpt>
      <trkpt lat="44.33298" lon="6.92545">
        <time>2023-04-16T11:05:01+00:00</time>
        <ele>2716.0</ele>
      </trkpt>
      <trkpt lat="44.33297" lon="6.92546">
        <time>2023-04-16T11:05:02+00:00</time>
        <ele>2716.0</ele>
      </trkpt>
      <trkpt lat="44.33297" lon="6.92547">
        <time>2023-04-16T11:05:03+00:00</time>
        <ele>2716.0</ele>
      </trkpt>
      <trkpt lat="44.33297" lon="6.92548">
        <time>2023-04-16T11:05:04+00:00</time>
        <ele>2716.0</ele>
      </trkpt>
      <trkpt lat="44.33296" lon="6.92549">
        <time>2023-04-16T11:05:05+00:00</time>
        <ele>2716.0</ele>
      </trkpt>
      <trkpt lat="44.33296" lon="6.9255">
        <time>2023-04-16T11:05:06+00:00</time>
        <ele>2716.0</ele>
      </trkpt>
      <trkpt lat="44.33294" lon="6.92553">
        <time>2023-04-16T11:05:11+00:00</time>
        <ele>2716.0</ele>
      </trkpt>
      <trkpt lat="44.33293" lon="6.92554">
        <time>2023-04-16T11:05:13+00:00</time>
        <ele>2715.0</ele>
      </trkpt>
      <trkpt lat="44.33292" lon="6.92555">
        <time>2023-04-16T11:05:15+00:00</time>
        <ele>2715.0</ele>
      </trkpt>
      <trkpt lat="44.33291" lon="6.92556">
        <time>2023-04-16T11:05:17+00:00</time>
        <ele>2715.0</ele>
      </trkpt>
      <trkpt lat="44.3329" lon="6.92557">
        <time>2023-04-16T11:05:18+00:00</time>
        <ele>2714.0</ele>
      </trkpt>
      <trkpt lat="44.33289" lon="6.92557">
        <time>2023-04-16T11:05:19+00:00</time>
        <ele>2714.0</ele>
      </trkpt>
      <trkpt lat="44.33286" lon="6.92558">
        <time>2023-04-16T11:05:23+00:00</time>
        <ele>2713.0</ele>
      </trkpt>
      <trkpt lat="44.33284" lon="6.92558">
        <time>2023-04-16T11:05:31+00:00</time>
        <ele>2712.0</ele>
      </trkpt>
      <trkpt lat="44.33285" lon="6.92558">
        <time>2023-04-16T11:05:36+00:00</time>
        <ele>2713.0</ele>
      </trkpt>
      <trkpt lat="44.33286" lon="6.92559">
        <time>2023-04-16T11:05:53+00:00</time>
        <ele>2713.0</ele>
      </trkpt>
      <trkpt lat="44.33285" lon="6.92558">
        <time>2023-04-16T11:06:04+00:00</time>
        <ele>2713.0</ele>
      </trkpt>
      <trkpt lat="44.33285" lon="6.92559">
        <time>2023-04-16T11:06:06+00:00</time>
        <ele>2713.0</ele>
      </trkpt>
      <trkpt lat="44.33285" lon="6.92559">
        <time>2023-04-16T11:06:08+00:00</time>
        <ele>2713.0</ele>
      </trkpt>
      <trkpt lat="44.33285" lon="6.92558">
        <time>2023-04-16T11:06:10+00:00</time>
        <ele>2713.0</ele>
      </trkpt>
      <trkpt lat="44.33284" lon="6.92558">
        <time>2023-04-16T11:06:18+00:00</time>
        <ele>2712.0</ele>
      </trkpt>
      <trkpt lat="44.33284" lon="6.92558">
        <time>2023-04-16T11:06:24+00:00</time>
        <ele>2712.0</ele>
      </trkpt>
      <trkpt lat="44.33283" lon="6.92556">
        <time>2023-04-16T11:06:28+00:00</time>
        <ele>2712.0</ele>
      </trkpt>
      <trkpt lat="44.33283" lon="6.92555">
        <time>2023-04-16T11:06:29+00:00</time>
        <ele>2712.0</ele>
      </trkpt>
      <trkpt lat="44.33284" lon="6.92555">
        <time>2023-04-16T11:06:30+00:00</time>
        <ele>2712.0</ele>
      </trkpt>
      <trkpt lat="44.33285" lon="6.92555">
        <time>2023-04-16T11:06:32+00:00</time>
        <ele>2713.0</ele>
      </trkpt>
      <trkpt lat="44.33286" lon="6.92554">
        <time>2023-04-16T11:06:35+00:00</time>
        <ele>2713.0</ele>
      </trkpt>
      <trkpt lat="44.33286" lon="6.92553">
        <time>2023-04-16T11:06:36+00:00</time>
        <ele>2713.0</ele>
      </trkpt>
      <trkpt lat="44.33286" lon="6.92551">
        <time>2023-04-16T11:06:38+00:00</time>
        <ele>2713.0</ele>
      </trkpt>
      <trkpt lat="44.33286" lon="6.92551">
        <time>2023-04-16T11:06:39+00:00</time>
        <ele>2713.0</ele>
      </trkpt>
      <trkpt lat="44.33286" lon="6.9255">
        <time>2023-04-16T11:06:42+00:00</time>
        <ele>2713.0</ele>
      </trkpt>
      <trkpt lat="44.33285" lon="6.9255">
        <time>2023-04-16T11:06:43+00:00</time>
        <ele>2712.0</ele>
      </trkpt>
      <trkpt lat="44.33285" lon="6.92549">
        <time>2023-04-16T11:06:44+00:00</time>
        <ele>2713.0</ele>
      </trkpt>
      <trkpt lat="44.33285" lon="6.92549">
        <time>2023-04-16T11:06:46+00:00</time>
        <ele>2713.0</ele>
      </trkpt>
      <trkpt lat="44.33284" lon="6.92549">
        <time>2023-04-16T11:06:48+00:00</time>
        <ele>2712.0</ele>
      </trkpt>
      <trkpt lat="44.33285" lon="6.92549">
        <time>2023-04-16T11:06:50+00:00</time>
        <ele>2713.0</ele>
      </trkpt>
      <trkpt lat="44.33286" lon="6.92549">
        <time>2023-04-16T11:06:56+00:00</time>
        <ele>2713.0</ele>
      </trkpt>
      <trkpt lat="44.33286" lon="6.92549">
        <time>2023-04-16T11:06:57+00:00</time>
        <ele>2713.0</ele>
      </trkpt>
      <trkpt lat="44.33286" lon="6.92549">
        <time>2023-04-16T11:06:59+00:00</time>
        <ele>2713.0</ele>
      </trkpt>
      <trkpt lat="44.33286" lon="6.92549">
        <time>2023-04-16T11:07:02+00:00</time>
        <ele>2713.0</ele>
      </trkpt>
      <trkpt lat="44.33287" lon="6.9255">
        <time>2023-04-16T11:07:04+00:00</time>
        <ele>2713.0</ele>
      </trkpt>
      <trkpt lat="44.33286" lon="6.9255">
        <time>2023-04-16T11:07:07+00:00</time>
        <ele>2713.0</ele>
      </trkpt>
      <trkpt lat="44.33286" lon="6.9255">
        <time>2023-04-16T11:07:09+00:00</time>
        <ele>2713.0</ele>
      </trkpt>
      <trkpt lat="44.33286" lon="6.92551">
        <time>2023-04-16T11:07:11+00:00</time>
        <ele>2713.0</ele>
      </trkpt>
      <trkpt lat="44.33286" lon="6.92551">
        <time>2023-04-16T11:07:12+00:00</time>
        <ele>2713.0</ele>
      </trkpt>
      <trkpt lat="44.33286" lon="6.92551">
        <time>2023-04-16T11:07:13+00:00</time>
        <ele>2713.0</ele>
      </trkpt>
      <trkpt lat="44.33286" lon="6.9255">
        <time>2023-04-16T11:07:15+00:00</time>
        <ele>2713.0</ele>
      </trkpt>
      <trkpt lat="44.33286" lon="6.9255">
        <time>2023-04-16T11:07:17+00:00</time>
        <ele>2713.0</ele>
      </trkpt>
      <trkpt lat="44.33286" lon="6.9255">
        <time>2023-04-16T11:07:21+00:00</time>
        <ele>2713.0</ele>
      </trkpt>
      <trkpt lat="44.33287" lon="6.9255">
        <time>2023-04-16T11:07:23+00:00</time>
        <ele>2713.0</ele>
      </trkpt>
      <trkpt lat="44.33287" lon="6.9255">
        <time>2023-04-16T11:07:40+00:00</time>
        <ele>2713.0</ele>
      </trkpt>
      <trkpt lat="44.33287" lon="6.9255">
        <time>2023-04-16T11:07:47+00:00</time>
        <ele>2713.0</ele>
      </trkpt>
      <trkpt lat="44.33287" lon="6.9255">
        <time>2023-04-16T11:07:49+00:00</time>
        <ele>2713.0</ele>
      </trkpt>
      <trkpt lat="44.33287" lon="6.9255">
        <time>2023-04-16T11:07:52+00:00</time>
        <ele>2713.0</ele>
      </trkpt>
      <trkpt lat="44.33287" lon="6.9255">
        <time>2023-04-16T11:07:59+00:00</time>
        <ele>2713.0</ele>
      </trkpt>
      <trkpt lat="44.33287" lon="6.92549">
        <time>2023-04-16T11:08:06+00:00</time>
        <ele>2713.0</ele>
      </trkpt>
      <trkpt lat="44.33286" lon="6.92549">
        <time>2023-04-16T11:08:08+00:00</time>
        <ele>2713.0</ele>
      </trkpt>
      <trkpt lat="44.33286" lon="6.92548">
        <time>2023-04-16T11:08:09+00:00</time>
        <ele>2713.0</ele>
      </trkpt>
      <trkpt lat="44.33286" lon="6.92548">
        <time>2023-04-16T11:08:10+00:00</time>
        <ele>2713.0</ele>
      </trkpt>
      <trkpt lat="44.33286" lon="6.92549">
        <time>2023-04-16T11:08:12+00:00</time>
        <ele>2713.0</ele>
      </trkpt>
      <trkpt lat="44.33286" lon="6.92549">
        <time>2023-04-16T11:08:13+00:00</time>
        <ele>2713.0</ele>
      </trkpt>
      <trkpt lat="44.33287" lon="6.9255">
        <time>2023-04-16T11:08:31+00:00</time>
        <ele>2713.0</ele>
      </trkpt>
      <trkpt lat="44.33287" lon="6.9255">
        <time>2023-04-16T11:08:33+00:00</time>
        <ele>2713.0</ele>
      </trkpt>
      <trkpt lat="44.33286" lon="6.9255">
        <time>2023-04-16T11:08:46+00:00</time>
        <ele>2713.0</ele>
      </trkpt>
      <trkpt lat="44.33286" lon="6.92551">
        <time>2023-04-16T11:08:48+00:00</time>
        <ele>2713.0</ele>
      </trkpt>
      <trkpt lat="44.33286" lon="6.9255">
        <time>2023-04-16T11:08:55+00:00</time>
        <ele>2713.0</ele>
      </trkpt>
      <trkpt lat="44.33285" lon="6.9255">
        <time>2023-04-16T11:08:58+00:00</time>
        <ele>2712.0</ele>
      </trkpt>
      <trkpt lat="44.33286" lon="6.92549">
        <time>2023-04-16T11:09:03+00:00</time>
        <ele>2713.0</ele>
      </trkpt>
      <trkpt lat="44.33286" lon="6.92551">
        <time>2023-04-16T11:09:22+00:00</time>
        <ele>2713.0</ele>
      </trkpt>
      <trkpt lat="44.33285" lon="6.9255">
        <time>2023-04-16T11:09:36+00:00</time>
        <ele>2712.0</ele>
      </trkpt>
      <trkpt lat="44.33285" lon="6.92549">
        <time>2023-04-16T11:09:56+00:00</time>
        <ele>2713.0</ele>
      </trkpt>
      <trkpt lat="44.33285" lon="6.92549">
        <time>2023-04-16T11:09:58+00:00</time>
        <ele>2713.0</ele>
      </trkpt>
      <trkpt lat="44.33285" lon="6.92549">
        <time>2023-04-16T11:09:59+00:00</time>
        <ele>2713.0</ele>
      </trkpt>
      <trkpt lat="44.33285" lon="6.92549">
        <time>2023-04-16T11:10:01+00:00</time>
        <ele>2713.0</ele>
      </trkpt>
      <trkpt lat="44.33285" lon="6.92549">
        <time>2023-04-16T11:10:04+00:00</time>
        <ele>2713.0</ele>
      </trkpt>
      <trkpt lat="44.33285" lon="6.92549">
        <time>2023-04-16T11:10:06+00:00</time>
        <ele>2713.0</ele>
      </trkpt>
      <trkpt lat="44.33285" lon="6.92549">
        <time>2023-04-16T11:10:09+00:00</time>
        <ele>2713.0</ele>
      </trkpt>
      <trkpt lat="44.33286" lon="6.9255">
        <time>2023-04-16T11:10:18+00:00</time>
        <ele>2713.0</ele>
      </trkpt>
      <trkpt lat="44.33285" lon="6.9255">
        <time>2023-04-16T11:10:25+00:00</time>
        <ele>2712.0</ele>
      </trkpt>
      <trkpt lat="44.33286" lon="6.9255">
        <time>2023-04-16T11:10:28+00:00</time>
        <ele>2713.0</ele>
      </trkpt>
      <trkpt lat="44.33286" lon="6.9255">
        <time>2023-04-16T11:10:33+00:00</time>
        <ele>2713.0</ele>
      </trkpt>
      <trkpt lat="44.33286" lon="6.9255">
        <time>2023-04-16T11:10:36+00:00</time>
        <ele>2713.0</ele>
      </trkpt>
      <trkpt lat="44.33286" lon="6.92549">
        <time>2023-04-16T11:10:37+00:00</time>
        <ele>2713.0</ele>
      </trkpt>
      <trkpt lat="44.33286" lon="6.92549">
        <time>2023-04-16T11:10:38+00:00</time>
        <ele>2713.0</ele>
      </trkpt>
      <trkpt lat="44.33286" lon="6.92549">
        <time>2023-04-16T11:10:39+00:00</time>
        <ele>2713.0</ele>
      </trkpt>
      <trkpt lat="44.33286" lon="6.92549">
        <time>2023-04-16T11:10:40+00:00</time>
        <ele>2713.0</ele>
      </trkpt>
      <trkpt lat="44.33286" lon="6.92549">
        <time>2023-04-16T11:10:45+00:00</time>
        <ele>2713.0</ele>
      </trkpt>
      <trkpt lat="44.33286" lon="6.92549">
        <time>2023-04-16T11:11:06+00:00</time>
        <ele>2713.0</ele>
      </trkpt>
      <trkpt lat="44.33286" lon="6.92549">
        <time>2023-04-16T11:11:08+00:00</time>
        <ele>2713.0</ele>
      </trkpt>
      <trkpt lat="44.33286" lon="6.92549">
        <time>2023-04-16T11:11:09+00:00</time>
        <ele>2713.0</ele>
      </trkpt>
      <trkpt lat="44.33286" lon="6.92549">
        <time>2023-04-16T11:11:10+00:00</time>
        <ele>2713.0</ele>
      </trkpt>
      <trkpt lat="44.33286" lon="6.92549">
        <time>2023-04-16T11:11:12+00:00</time>
        <ele>2713.0</ele>
      </trkpt>
      <trkpt lat="44.33286" lon="6.92549">
        <time>2023-04-16T11:11:13+00:00</time>
        <ele>2713.0</ele>
      </trkpt>
      <trkpt lat="44.33286" lon="6.92549">
        <time>2023-04-16T11:11:14+00:00</time>
        <ele>2713.0</ele>
      </trkpt>
      <trkpt lat="44.33286" lon="6.92549">
        <time>2023-04-16T11:11:18+00:00</time>
        <ele>2713.0</ele>
      </trkpt>
      <trkpt lat="44.33286" lon="6.92549">
        <time>2023-04-16T11:11:23+00:00</time>
        <ele>2713.0</ele>
      </trkpt>
      <trkpt lat="44.33286" lon="6.92549">
        <time>2023-04-16T11:11:31+00:00</time>
        <ele>2713.0</ele>
      </trkpt>
      <trkpt lat="44.33286" lon="6.92549">
        <time>2023-04-16T11:11:32+00:00</time>
        <ele>2713.0</ele>
      </trkpt>
      <trkpt lat="44.33286" lon="6.92549">
        <time>2023-04-16T11:11:35+00:00</time>
        <ele>2713.0</ele>
      </trkpt>
      <trkpt lat="44.33286" lon="6.92549">
        <time>2023-04-16T11:11:40+00:00</time>
        <ele>2713.0</ele>
      </trkpt>
      <trkpt lat="44.33286" lon="6.92549">
        <time>2023-04-16T11:11:43+00:00</time>
        <ele>2713.0</ele>
      </trkpt>
      <trkpt lat="44.33286" lon="6.92549">
        <time>2023-04-16T11:11:48+00:00</time>
        <ele>2713.0</ele>
      </trkpt>
      <trkpt lat="44.33286" lon="6.92549">
        <time>2023-04-16T11:11:56+00:00</time>
        <ele>2713.0</ele>
      </trkpt>
      <trkpt lat="44.33286" lon="6.92549">
        <time>2023-04-16T11:11:59+00:00</time>
        <ele>2713.0</ele>
      </trkpt>
      <trkpt lat="44.33286" lon="6.92549">
        <time>2023-04-16T11:12:00+00:00</time>
        <ele>2713.0</ele>
      </trkpt>
      <trkpt lat="44.33286" lon="6.92549">
        <time>2023-04-16T11:12:02+00:00</time>
        <ele>2713.0</ele>
      </trkpt>
      <trkpt lat="44.33286" lon="6.92549">
        <time>2023-04-16T11:12:05+00:00</time>
        <ele>2713.0</ele>
      </trkpt>
      <trkpt lat="44.33286" lon="6.92549">
        <time>2023-04-16T11:12:09+00:00</time>
        <ele>2713.0</ele>
      </trkpt>
      <trkpt lat="44.33286" lon="6.92549">
        <time>2023-04-16T11:12:17+00:00</time>
        <ele>2713.0</ele>
      </trkpt>
      <trkpt lat="44.33286" lon="6.92549">
        <time>2023-04-16T11:12:20+00:00</time>
        <ele>2713.0</ele>
      </trkpt>
      <trkpt lat="44.33286" lon="6.92549">
        <time>2023-04-16T11:12:24+00:00</time>
        <ele>2713.0</ele>
      </trkpt>
      <trkpt lat="44.33286" lon="6.92549">
        <time>2023-04-16T11:12:28+00:00</time>
        <ele>2713.0</ele>
      </trkpt>
      <trkpt lat="44.33286" lon="6.92549">
        <time>2023-04-16T11:12:31+00:00</time>
        <ele>2713.0</ele>
      </trkpt>
      <trkpt lat="44.33286" lon="6.92549">
        <time>2023-04-16T11:12:33+00:00</time>
        <ele>2713.0</ele>
      </trkpt>
      <trkpt lat="44.33286" lon="6.92549">
        <time>2023-04-16T11:12:41+00:00</time>
        <ele>2713.0</ele>
      </trkpt>
      <trkpt lat="44.33286" lon="6.92549">
        <time>2023-04-16T11:12:43+00:00</time>
        <ele>2713.0</ele>
      </trkpt>
      <trkpt lat="44.33287" lon="6.92549">
        <time>2023-04-16T11:12:49+00:00</time>
        <ele>2713.0</ele>
      </trkpt>
      <trkpt lat="44.33287" lon="6.9255">
        <time>2023-04-16T11:12:53+00:00</time>
        <ele>2713.0</ele>
      </trkpt>
      <trkpt lat="44.33287" lon="6.92549">
        <time>2023-04-16T11:12:54+00:00</time>
        <ele>2713.0</ele>
      </trkpt>
      <trkpt lat="44.33286" lon="6.92549">
        <time>2023-04-16T11:12:59+00:00</time>
        <ele>2713.0</ele>
      </trkpt>
      <trkpt lat="44.33286" lon="6.9255">
        <time>2023-04-16T11:13:15+00:00</time>
        <ele>2713.0</ele>
      </trkpt>
      <trkpt lat="44.33286" lon="6.9255">
        <time>2023-04-16T11:13:16+00:00</time>
        <ele>2713.0</ele>
      </trkpt>
      <trkpt lat="44.33286" lon="6.9255">
        <time>2023-04-16T11:13:17+00:00</time>
        <ele>2713.0</ele>
      </trkpt>
      <trkpt lat="44.33286" lon="6.9255">
        <time>2023-04-16T11:13:18+00:00</time>
        <ele>2713.0</ele>
      </trkpt>
      <trkpt lat="44.33286" lon="6.9255">
        <time>2023-04-16T11:13:20+00:00</time>
        <ele>2713.0</ele>
      </trkpt>
      <trkpt lat="44.33286" lon="6.9255">
        <time>2023-04-16T11:13:22+00:00</time>
        <ele>2713.0</ele>
      </trkpt>
      <trkpt lat="44.33286" lon="6.9255">
        <time>2023-04-16T11:13:25+00:00</time>
        <ele>2713.0</ele>
      </trkpt>
      <trkpt lat="44.33286" lon="6.9255">
        <time>2023-04-16T11:13:28+00:00</time>
        <ele>2713.0</ele>
      </trkpt>
      <trkpt lat="44.33286" lon="6.9255">
        <time>2023-04-16T11:13:35+00:00</time>
        <ele>2713.0</ele>
      </trkpt>
      <trkpt lat="44.33286" lon="6.9255">
        <time>2023-04-16T11:13:51+00:00</time>
        <ele>2713.0</ele>
      </trkpt>
      <trkpt lat="44.33286" lon="6.92551">
        <time>2023-04-16T11:14:07+00:00</time>
        <ele>2713.0</ele>
      </trkpt>
      <trkpt lat="44.33286" lon="6.92551">
        <time>2023-04-16T11:14:08+00:00</time>
        <ele>2713.0</ele>
      </trkpt>
      <trkpt lat="44.33286" lon="6.92551">
        <time>2023-04-16T11:14:09+00:00</time>
        <ele>2713.0</ele>
      </trkpt>
      <trkpt lat="44.33286" lon="6.92551">
        <time>2023-04-16T11:14:16+00:00</time>
        <ele>2713.0</ele>
      </trkpt>
      <trkpt lat="44.33286" lon="6.92551">
        <time>2023-04-16T11:14:39+00:00</time>
        <ele>2713.0</ele>
      </trkpt>
      <trkpt lat="44.33286" lon="6.92551">
        <time>2023-04-16T11:14:43+00:00</time>
        <ele>2713.0</ele>
      </trkpt>
      <trkpt lat="44.33286" lon="6.92551">
        <time>2023-04-16T11:14:44+00:00</time>
        <ele>2713.0</ele>
      </trkpt>
      <trkpt lat="44.33286" lon="6.92551">
        <time>2023-04-16T11:14:47+00:00</time>
        <ele>2713.0</ele>
      </trkpt>
      <trkpt lat="44.33286" lon="6.92551">
        <time>2023-04-16T11:14:49+00:00</time>
        <ele>2713.0</ele>
      </trkpt>
      <trkpt lat="44.33286" lon="6.92551">
        <time>2023-04-16T11:14:58+00:00</time>
        <ele>2713.0</ele>
      </trkpt>
      <trkpt lat="44.33286" lon="6.92552">
        <time>2023-04-16T11:15:11+00:00</time>
        <ele>2713.0</ele>
      </trkpt>
      <trkpt lat="44.33286" lon="6.92552">
        <time>2023-04-16T11:15:12+00:00</time>
        <ele>2713.0</ele>
      </trkpt>
      <trkpt lat="44.33286" lon="6.92552">
        <time>2023-04-16T11:15:26+00:00</time>
        <ele>2713.0</ele>
      </trkpt>
      <trkpt lat="44.33286" lon="6.92552">
        <time>2023-04-16T11:15:32+00:00</time>
        <ele>2713.0</ele>
      </trkpt>
      <trkpt lat="44.33285" lon="6.92553">
        <time>2023-04-16T11:16:17+00:00</time>
        <ele>2713.0</ele>
      </trkpt>
      <trkpt lat="44.33286" lon="6.92555">
        <time>2023-04-16T11:17:09+00:00</time>
        <ele>2713.0</ele>
      </trkpt>
      <trkpt lat="44.33285" lon="6.92554">
        <time>2023-04-16T11:17:36+00:00</time>
        <ele>2713.0</ele>
      </trkpt>
      <trkpt lat="44.33285" lon="6.92554">
        <time>2023-04-16T11:17:45+00:00</time>
        <ele>2713.0</ele>
      </trkpt>
      <trkpt lat="44.33285" lon="6.92554">
        <time>2023-04-16T11:18:02+00:00</time>
        <ele>2713.0</ele>
      </trkpt>
      <trkpt lat="44.33285" lon="6.92553">
        <time>2023-04-16T11:18:21+00:00</time>
        <ele>2713.0</ele>
      </trkpt>
      <trkpt lat="44.33285" lon="6.92553">
        <time>2023-04-16T11:18:49+00:00</time>
        <ele>2713.0</ele>
      </trkpt>
      <trkpt lat="44.33285" lon="6.92552">
        <time>2023-04-16T11:19:03+00:00</time>
        <ele>2712.0</ele>
      </trkpt>
      <trkpt lat="44.33284" lon="6.92552">
        <time>2023-04-16T11:19:25+00:00</time>
        <ele>2712.0</ele>
      </trkpt>
      <trkpt lat="44.33284" lon="6.92553">
        <time>2023-04-16T11:19:30+00:00</time>
        <ele>2712.0</ele>
      </trkpt>
      <trkpt lat="44.33284" lon="6.92551">
        <time>2023-04-16T11:19:35+00:00</time>
        <ele>2712.0</ele>
      </trkpt>
      <trkpt lat="44.33284" lon="6.9255">
        <time>2023-04-16T11:19:38+00:00</time>
        <ele>2712.0</ele>
      </trkpt>
      <trkpt lat="44.33285" lon="6.92551">
        <time>2023-04-16T11:19:39+00:00</time>
        <ele>2712.0</ele>
      </trkpt>
      <trkpt lat="44.33284" lon="6.92551">
        <time>2023-04-16T11:19:40+00:00</time>
        <ele>2712.0</ele>
      </trkpt>
      <trkpt lat="44.33284" lon="6.92551">
        <time>2023-04-16T11:19:41+00:00</time>
        <ele>2712.0</ele>
      </trkpt>
      <trkpt lat="44.33283" lon="6.92552">
        <time>2023-04-16T11:19:51+00:00</time>
        <ele>2712.0</ele>
      </trkpt>
      <trkpt lat="44.33283" lon="6.92553">
        <time>2023-04-16T11:19:52+00:00</time>
        <ele>2712.0</ele>
      </trkpt>
      <trkpt lat="44.33283" lon="6.92553">
        <time>2023-04-16T11:19:55+00:00</time>
        <ele>2712.0</ele>
      </trkpt>
      <trkpt lat="44.33284" lon="6.92553">
        <time>2023-04-16T11:19:56+00:00</time>
        <ele>2712.0</ele>
      </trkpt>
      <trkpt lat="44.33284" lon="6.92553">
        <time>2023-04-16T11:19:58+00:00</time>
        <ele>2712.0</ele>
      </trkpt>
      <trkpt lat="44.33283" lon="6.92554">
        <time>2023-04-16T11:20:06+00:00</time>
        <ele>2712.0</ele>
      </trkpt>
      <trkpt lat="44.33283" lon="6.92553">
        <time>2023-04-16T11:20:25+00:00</time>
        <ele>2712.0</ele>
      </trkpt>
      <trkpt lat="44.33283" lon="6.92553">
        <time>2023-04-16T11:20:38+00:00</time>
        <ele>2712.0</ele>
      </trkpt>
      <trkpt lat="44.33283" lon="6.92554">
        <time>2023-04-16T11:20:45+00:00</time>
        <ele>2712.0</ele>
      </trkpt>
      <trkpt lat="44.33283" lon="6.92554">
        <time>2023-04-16T11:20:52+00:00</time>
        <ele>2712.0</ele>
      </trkpt>
      <trkpt lat="44.33283" lon="6.92555">
        <time>2023-04-16T11:21:00+00:00</time>
        <ele>2712.0</ele>
      </trkpt>
      <trkpt lat="44.33283" lon="6.92555">
        <time>2023-04-16T11:21:03+00:00</time>
        <ele>2712.0</ele>
      </trkpt>
      <trkpt lat="44.33283" lon="6.92555">
        <time>2023-04-16T11:21:10+00:00</time>
        <ele>2712.0</ele>
      </trkpt>
      <trkpt lat="44.33283" lon="6.92555">
        <time>2023-04-16T11:21:13+00:00</time>
        <ele>2712.0</ele>
      </trkpt>
      <trkpt lat="44.33283" lon="6.92555">
        <time>2023-04-16T11:21:14+00:00</time>
        <ele>2712.0</ele>
      </trkpt>
      <trkpt lat="44.33283" lon="6.92556">
        <time>2023-04-16T11:21:15+00:00</time>
        <ele>2712.0</ele>
      </trkpt>
      <trkpt lat="44.33283" lon="6.92556">
        <time>2023-04-16T11:21:17+00:00</time>
        <ele>2712.0</ele>
      </trkpt>
      <trkpt lat="44.33284" lon="6.92555">
        <time>2023-04-16T11:21:35+00:00</time>
        <ele>2712.0</ele>
      </trkpt>
      <trkpt lat="44.33284" lon="6.92555">
        <time>2023-04-16T11:21:41+00:00</time>
        <ele>2712.0</ele>
      </trkpt>
      <trkpt lat="44.33284" lon="6.92555">
        <time>2023-04-16T11:21:48+00:00</time>
        <ele>2712.0</ele>
      </trkpt>
      <trkpt lat="44.33284" lon="6.92555">
        <time>2023-04-16T11:21:58+00:00</time>
        <ele>2712.0</ele>
      </trkpt>
      <trkpt lat="44.33284" lon="6.92555">
        <time>2023-04-16T11:22:07+00:00</time>
        <ele>2712.0</ele>
      </trkpt>
      <trkpt lat="44.33284" lon="6.92555">
        <time>2023-04-16T11:22:24+00:00</time>
        <ele>2712.0</ele>
      </trkpt>
      <trkpt lat="44.33284" lon="6.92556">
        <time>2023-04-16T11:22:33+00:00</time>
        <ele>2712.0</ele>
      </trkpt>
      <trkpt lat="44.33284" lon="6.92556">
        <time>2023-04-16T11:22:41+00:00</time>
        <ele>2712.0</ele>
      </trkpt>
      <trkpt lat="44.33284" lon="6.92556">
        <time>2023-04-16T11:22:45+00:00</time>
        <ele>2712.0</ele>
      </trkpt>
      <trkpt lat="44.33284" lon="6.92555">
        <time>2023-04-16T11:22:51+00:00</time>
        <ele>2712.0</ele>
      </trkpt>
      <trkpt lat="44.33284" lon="6.92555">
        <time>2023-04-16T11:23:00+00:00</time>
        <ele>2712.0</ele>
      </trkpt>
      <trkpt lat="44.33284" lon="6.92553">
        <time>2023-04-16T11:23:09+00:00</time>
        <ele>2712.0</ele>
      </trkpt>
      <trkpt lat="44.33284" lon="6.92553">
        <time>2023-04-16T11:23:23+00:00</time>
        <ele>2712.0</ele>
      </trkpt>
      <trkpt lat="44.33284" lon="6.92553">
        <time>2023-04-16T11:23:34+00:00</time>
        <ele>2712.0</ele>
      </trkpt>
      <trkpt lat="44.33284" lon="6.92555">
        <time>2023-04-16T11:23:45+00:00</time>
        <ele>2712.0</ele>
      </trkpt>
      <trkpt lat="44.33284" lon="6.92555">
        <time>2023-04-16T11:23:50+00:00</time>
        <ele>2712.0</ele>
      </trkpt>
      <trkpt lat="44.33284" lon="6.92555">
        <time>2023-04-16T11:23:51+00:00</time>
        <ele>2712.0</ele>
      </trkpt>
      <trkpt lat="44.33284" lon="6.92555">
        <time>2023-04-16T11:23:52+00:00</time>
        <ele>2712.0</ele>
      </trkpt>
      <trkpt lat="44.33284" lon="6.92555">
        <time>2023-04-16T11:23:55+00:00</time>
        <ele>2712.0</ele>
      </trkpt>
      <trkpt lat="44.33284" lon="6.92556">
        <time>2023-04-16T11:24:04+00:00</time>
        <ele>2712.0</ele>
      </trkpt>
      <trkpt lat="44.33284" lon="6.92555">
        <time>2023-04-16T11:24:10+00:00</time>
        <ele>2712.0</ele>
      </trkpt>
      <trkpt lat="44.33284" lon="6.92558">
        <time>2023-04-16T11:24:18+00:00</time>
        <ele>2712.0</ele>
      </trkpt>
      <trkpt lat="44.33284" lon="6.92558">
        <time>2023-04-16T11:24:19+00:00</time>
        <ele>2712.0</ele>
      </trkpt>
      <trkpt lat="44.33285" lon="6.92558">
        <time>2023-04-16T11:24:20+00:00</time>
        <ele>2713.0</ele>
      </trkpt>
      <trkpt lat="44.33285" lon="6.92558">
        <time>2023-04-16T11:24:21+00:00</time>
        <ele>2713.0</ele>
      </trkpt>
      <trkpt lat="44.33284" lon="6.92559">
        <time>2023-04-16T11:24:30+00:00</time>
        <ele>2712.0</ele>
      </trkpt>
      <trkpt lat="44.33284" lon="6.92559">
        <time>2023-04-16T11:24:43+00:00</time>
        <ele>2712.0</ele>
      </trkpt>
      <trkpt lat="44.33284" lon="6.92559">
        <time>2023-04-16T11:24:47+00:00</time>
        <ele>2712.0</ele>
      </trkpt>
      <trkpt lat="44.33284" lon="6.92559">
        <time>2023-04-16T11:24:49+00:00</time>
        <ele>2712.0</ele>
      </trkpt>
      <trkpt lat="44.33284" lon="6.9256">
        <time>2023-04-16T11:24:52+00:00</time>
        <ele>2712.0</ele>
      </trkpt>
      <trkpt lat="44.33284" lon="6.9256">
        <time>2023-04-16T11:24:53+00:00</time>
        <ele>2712.0</ele>
      </trkpt>
      <trkpt lat="44.33283" lon="6.92559">
        <time>2023-04-16T11:24:58+00:00</time>
        <ele>2712.0</ele>
      </trkpt>
      <trkpt lat="44.33283" lon="6.92559">
        <time>2023-04-16T11:24:59+00:00</time>
        <ele>2712.0</ele>
      </trkpt>
      <trkpt lat="44.33283" lon="6.92559">
        <time>2023-04-16T11:25:00+00:00</time>
        <ele>2712.0</ele>
      </trkpt>
      <trkpt lat="44.33283" lon="6.92558">
        <time>2023-04-16T11:25:02+00:00</time>
        <ele>2712.0</ele>
      </trkpt>
      <trkpt lat="44.33283" lon="6.92558">
        <time>2023-04-16T11:25:03+00:00</time>
        <ele>2712.0</ele>
      </trkpt>
      <trkpt lat="44.33283" lon="6.92558">
        <time>2023-04-16T11:25:04+00:00</time>
        <ele>2712.0</ele>
      </trkpt>
      <trkpt lat="44.33283" lon="6.92557">
        <time>2023-04-16T11:25:06+00:00</time>
        <ele>2712.0</ele>
      </trkpt>
      <trkpt lat="44.33283" lon="6.92556">
        <time>2023-04-16T11:25:07+00:00</time>
        <ele>2712.0</ele>
      </trkpt>
      <trkpt lat="44.33284" lon="6.92555">
        <time>2023-04-16T11:25:08+00:00</time>
        <ele>2712.0</ele>
      </trkpt>
      <trkpt lat="44.33285" lon="6.92554">
        <time>2023-04-16T11:25:09+00:00</time>
        <ele>2713.0</ele>
      </trkpt>
      <trkpt lat="44.33285" lon="6.92553">
        <time>2023-04-16T11:25:10+00:00</time>
        <ele>2713.0</ele>
      </trkpt>
      <trkpt lat="44.33285" lon="6.92552">
        <time>2023-04-16T11:25:11+00:00</time>
        <ele>2712.0</ele>
      </trkpt>
      <trkpt lat="44.33286" lon="6.9255">
        <time>2023-04-16T11:25:13+00:00</time>
        <ele>2713.0</ele>
      </trkpt>
      <trkpt lat="44.33286" lon="6.92549">
        <time>2023-04-16T11:25:14+00:00</time>
        <ele>2713.0</ele>
      </trkpt>
      <trkpt lat="44.33287" lon="6.92548">
        <time>2023-04-16T11:25:21+00:00</time>
        <ele>2713.0</ele>
      </trkpt>
      <trkpt lat="44.33287" lon="6.92549">
        <time>2023-04-16T11:25:22+00:00</time>
        <ele>2713.0</ele>
      </trkpt>
      <trkpt lat="44.33288" lon="6.9255">
        <time>2023-04-16T11:25:27+00:00</time>
        <ele>2713.0</ele>
      </trkpt>
      <trkpt lat="44.33289" lon="6.92551">
        <time>2023-04-16T11:25:30+00:00</time>
        <ele>2714.0</ele>
      </trkpt>
      <trkpt lat="44.3329" lon="6.9255">
        <time>2023-04-16T11:25:37+00:00</time>
        <ele>2714.0</ele>
      </trkpt>
      <trkpt lat="44.33289" lon="6.92549">
        <time>2023-04-16T11:25:39+00:00</time>
        <ele>2714.0</ele>
      </trkpt>
      <trkpt lat="44.3329" lon="6.92549">
        <time>2023-04-16T11:25:41+00:00</time>
        <ele>2714.0</ele>
      </trkpt>
      <trkpt lat="44.33291" lon="6.9255">
        <time>2023-04-16T11:25:46+00:00</time>
        <ele>2714.0</ele>
      </trkpt>
      <trkpt lat="44.33291" lon="6.9255">
        <time>2023-04-16T11:25:56+00:00</time>
        <ele>2714.0</ele>
      </trkpt>
      <trkpt lat="44.33291" lon="6.9255">
        <time>2023-04-16T11:26:05+00:00</time>
        <ele>2714.0</ele>
      </trkpt>
      <trkpt lat="44.33291" lon="6.92549">
        <time>2023-04-16T11:26:12+00:00</time>
        <ele>2714.0</ele>
      </trkpt>
      <trkpt lat="44.33292" lon="6.92548">
        <time>2023-04-16T11:26:19+00:00</time>
        <ele>2715.0</ele>
      </trkpt>
      <trkpt lat="44.33291" lon="6.92548">
        <time>2023-04-16T11:26:26+00:00</time>
        <ele>2714.0</ele>
      </trkpt>
      <trkpt lat="44.33292" lon="6.92548">
        <time>2023-04-16T11:26:27+00:00</time>
        <ele>2715.0</ele>
      </trkpt>
      <trkpt lat="44.33292" lon="6.92548">
        <time>2023-04-16T11:26:28+00:00</time>
        <ele>2715.0</ele>
      </trkpt>
      <trkpt lat="44.33292" lon="6.92548">
        <time>2023-04-16T11:26:32+00:00</time>
        <ele>2715.0</ele>
      </trkpt>
      <trkpt lat="44.33291" lon="6.92549">
        <time>2023-04-16T11:26:35+00:00</time>
        <ele>2714.0</ele>
      </trkpt>
      <trkpt lat="44.33289" lon="6.92549">
        <time>2023-04-16T11:26:38+00:00</time>
        <ele>2714.0</ele>
      </trkpt>
      <trkpt lat="44.33289" lon="6.92549">
        <time>2023-04-16T11:26:55+00:00</time>
        <ele>2714.0</ele>
      </trkpt>
      <trkpt lat="44.33289" lon="6.9255">
        <time>2023-04-16T11:26:58+00:00</time>
        <ele>2714.0</ele>
      </trkpt>
      <trkpt lat="44.33289" lon="6.92551">
        <time>2023-04-16T11:27:00+00:00</time>
        <ele>2714.0</ele>
      </trkpt>
      <trkpt lat="44.33289" lon="6.92551">
        <time>2023-04-16T11:27:01+00:00</time>
        <ele>2714.0</ele>
      </trkpt>
      <trkpt lat="44.33288" lon="6.92553">
        <time>2023-04-16T11:27:03+00:00</time>
        <ele>2714.0</ele>
      </trkpt>
      <trkpt lat="44.33287" lon="6.92555">
        <time>2023-04-16T11:27:05+00:00</time>
        <ele>2713.0</ele>
      </trkpt>
      <trkpt lat="44.33284" lon="6.92561">
        <time>2023-04-16T11:27:12+00:00</time>
        <ele>2712.0</ele>
      </trkpt>
      <trkpt lat="44.33285" lon="6.9256">
        <time>2023-04-16T11:27:15+00:00</time>
        <ele>2713.0</ele>
      </trkpt>
      <trkpt lat="44.33286" lon="6.92557">
        <time>2023-04-16T11:27:20+00:00</time>
        <ele>2713.0</ele>
      </trkpt>
      <trkpt lat="44.33286" lon="6.92558">
        <time>2023-04-16T11:27:22+00:00</time>
        <ele>2713.0</ele>
      </trkpt>
      <trkpt lat="44.33286" lon="6.92557">
        <time>2023-04-16T11:27:29+00:00</time>
        <ele>2713.0</ele>
      </trkpt>
      <trkpt lat="44.33286" lon="6.92557">
        <time>2023-04-16T11:27:30+00:00</time>
        <ele>2713.0</ele>
      </trkpt>
      <trkpt lat="44.33285" lon="6.92559">
        <time>2023-04-16T11:27:43+00:00</time>
        <ele>2713.0</ele>
      </trkpt>
      <trkpt lat="44.33285" lon="6.92559">
        <time>2023-04-16T11:27:44+00:00</time>
        <ele>2713.0</ele>
      </trkpt>
      <trkpt lat="44.33285" lon="6.92558">
        <time>2023-04-16T11:27:48+00:00</time>
        <ele>2713.0</ele>
      </trkpt>
      <trkpt lat="44.33285" lon="6.92559">
        <time>2023-04-16T11:27:58+00:00</time>
        <ele>2713.0</ele>
      </trkpt>
      <trkpt lat="44.33285" lon="6.92559">
        <time>2023-04-16T11:28:01+00:00</time>
        <ele>2713.0</ele>
      </trkpt>
      <trkpt lat="44.33286" lon="6.92559">
        <time>2023-04-16T11:28:03+00:00</time>
        <ele>2713.0</ele>
      </trkpt>
      <trkpt lat="44.33286" lon="6.92558">
        <time>2023-04-16T11:28:09+00:00</time>
        <ele>2713.0</ele>
      </trkpt>
      <trkpt lat="44.33285" lon="6.92558">
        <time>2023-04-16T11:28:12+00:00</time>
        <ele>2713.0</ele>
      </trkpt>
      <trkpt lat="44.33287" lon="6.92558">
        <time>2023-04-16T11:28:25+00:00</time>
        <ele>2713.0</ele>
      </trkpt>
      <trkpt lat="44.33287" lon="6.92557">
        <time>2023-04-16T11:28:32+00:00</time>
        <ele>2713.0</ele>
      </trkpt>
      <trkpt lat="44.33288" lon="6.92557">
        <time>2023-04-16T11:28:36+00:00</time>
        <ele>2714.0</ele>
      </trkpt>
      <trkpt lat="44.33287" lon="6.92558">
        <time>2023-04-16T11:28:41+00:00</time>
        <ele>2713.0</ele>
      </trkpt>
      <trkpt lat="44.33287" lon="6.92557">
        <time>2023-04-16T11:28:50+00:00</time>
        <ele>2713.0</ele>
      </trkpt>
      <trkpt lat="44.33286" lon="6.92558">
        <time>2023-04-16T11:28:54+00:00</time>
        <ele>2713.0</ele>
      </trkpt>
      <trkpt lat="44.33285" lon="6.92559">
        <time>2023-04-16T11:29:02+00:00</time>
        <ele>2713.0</ele>
      </trkpt>
      <trkpt lat="44.33285" lon="6.92559">
        <time>2023-04-16T11:29:07+00:00</time>
        <ele>2713.0</ele>
      </trkpt>
      <trkpt lat="44.33285" lon="6.9256">
        <time>2023-04-16T11:29:11+00:00</time>
        <ele>2713.0</ele>
      </trkpt>
      <trkpt lat="44.33286" lon="6.9256">
        <time>2023-04-16T11:29:14+00:00</time>
        <ele>2713.0</ele>
      </trkpt>
      <trkpt lat="44.33286" lon="6.92559">
        <time>2023-04-16T11:29:17+00:00</time>
        <ele>2713.0</ele>
      </trkpt>
      <trkpt lat="44.33287" lon="6.92558">
        <time>2023-04-16T11:29:24+00:00</time>
        <ele>2713.0</ele>
      </trkpt>
      <trkpt lat="44.33287" lon="6.92558">
        <time>2023-04-16T11:29:25+00:00</time>
        <ele>2713.0</ele>
      </trkpt>
      <trkpt lat="44.33287" lon="6.92558">
        <time>2023-04-16T11:29:27+00:00</time>
        <ele>2713.0</ele>
      </trkpt>
      <trkpt lat="44.33288" lon="6.92558">
        <time>2023-04-16T11:29:30+00:00</time>
        <ele>2714.0</ele>
      </trkpt>
      <trkpt lat="44.33288" lon="6.92558">
        <time>2023-04-16T11:29:33+00:00</time>
        <ele>2714.0</ele>
      </trkpt>
      <trkpt lat="44.33288" lon="6.92559">
        <time>2023-04-16T11:29:34+00:00</time>
        <ele>2714.0</ele>
      </trkpt>
      <trkpt lat="44.33288" lon="6.92559">
        <time>2023-04-16T11:29:35+00:00</time>
        <ele>2714.0</ele>
      </trkpt>
      <trkpt lat="44.33288" lon="6.92559">
        <time>2023-04-16T11:29:36+00:00</time>
        <ele>2714.0</ele>
      </trkpt>
      <trkpt lat="44.33288" lon="6.92559">
        <time>2023-04-16T11:29:37+00:00</time>
        <ele>2714.0</ele>
      </trkpt>
      <trkpt lat="44.33288" lon="6.92558">
        <time>2023-04-16T11:29:48+00:00</time>
        <ele>2714.0</ele>
      </trkpt>
      <trkpt lat="44.33288" lon="6.92559">
        <time>2023-04-16T11:29:50+00:00</time>
        <ele>2714.0</ele>
      </trkpt>
      <trkpt lat="44.33289" lon="6.92558">
        <time>2023-04-16T11:29:51+00:00</time>
        <ele>2714.0</ele>
      </trkpt>
      <trkpt lat="44.33288" lon="6.92558">
        <time>2023-04-16T11:29:52+00:00</time>
        <ele>2714.0</ele>
      </trkpt>
      <trkpt lat="44.33288" lon="6.92558">
        <time>2023-04-16T11:29:58+00:00</time>
        <ele>2714.0</ele>
      </trkpt>
      <trkpt lat="44.33288" lon="6.92558">
        <time>2023-04-16T11:29:59+00:00</time>
        <ele>2714.0</ele>
      </trkpt>
      <trkpt lat="44.33288" lon="6.92558">
        <time>2023-04-16T11:30:00+00:00</time>
        <ele>2714.0</ele>
      </trkpt>
      <trkpt lat="44.33289" lon="6.92557">
        <time>2023-04-16T11:30:06+00:00</time>
        <ele>2714.0</ele>
      </trkpt>
      <trkpt lat="44.33288" lon="6.92557">
        <time>2023-04-16T11:30:08+00:00</time>
        <ele>2714.0</ele>
      </trkpt>
      <trkpt lat="44.33288" lon="6.92556">
        <time>2023-04-16T11:30:11+00:00</time>
        <ele>2714.0</ele>
      </trkpt>
      <trkpt lat="44.33288" lon="6.92556">
        <time>2023-04-16T11:30:15+00:00</time>
        <ele>2714.0</ele>
      </trkpt>
      <trkpt lat="44.3329" lon="6.92554">
        <time>2023-04-16T11:30:23+00:00</time>
        <ele>2714.0</ele>
      </trkpt>
      <trkpt lat="44.3329" lon="6.92553">
        <time>2023-04-16T11:30:24+00:00</time>
        <ele>2714.0</ele>
      </trkpt>
      <trkpt lat="44.3329" lon="6.92554">
        <time>2023-04-16T11:30:25+00:00</time>
        <ele>2714.0</ele>
      </trkpt>
      <trkpt lat="44.3329" lon="6.92554">
        <time>2023-04-16T11:30:26+00:00</time>
        <ele>2714.0</ele>
      </trkpt>
      <trkpt lat="44.33289" lon="6.92556">
        <time>2023-04-16T11:30:34+00:00</time>
        <ele>2714.0</ele>
      </trkpt>
      <trkpt lat="44.33284" lon="6.92556">
        <time>2023-04-16T11:30:39+00:00</time>
        <ele>2712.0</ele>
      </trkpt>
      <trkpt lat="44.33284" lon="6.92556">
        <time>2023-04-16T11:30:44+00:00</time>
        <ele>2712.0</ele>
      </trkpt>
      <trkpt lat="44.33284" lon="6.92556">
        <time>2023-04-16T11:30:45+00:00</time>
        <ele>2712.0</ele>
      </trkpt>
      <trkpt lat="44.33284" lon="6.92557">
        <time>2023-04-16T11:30:48+00:00</time>
        <ele>2712.0</ele>
      </trkpt>
      <trkpt lat="44.33285" lon="6.92557">
        <time>2023-04-16T11:30:50+00:00</time>
        <ele>2713.0</ele>
      </trkpt>
      <trkpt lat="44.33285" lon="6.92556">
        <time>2023-04-16T11:30:54+00:00</time>
        <ele>2713.0</ele>
      </trkpt>
      <trkpt lat="44.33285" lon="6.92556">
        <time>2023-04-16T11:30:55+00:00</time>
        <ele>2713.0</ele>
      </trkpt>
      <trkpt lat="44.33286" lon="6.92556">
        <time>2023-04-16T11:30:56+00:00</time>
        <ele>2713.0</ele>
      </trkpt>
      <trkpt lat="44.33286" lon="6.92556">
        <time>2023-04-16T11:30:57+00:00</time>
        <ele>2713.0</ele>
      </trkpt>
      <trkpt lat="44.33287" lon="6.92556">
        <time>2023-04-16T11:30:58+00:00</time>
        <ele>2713.0</ele>
      </trkpt>
      <trkpt lat="44.33287" lon="6.92556">
        <time>2023-04-16T11:31:01+00:00</time>
        <ele>2713.0</ele>
      </trkpt>
      <trkpt lat="44.33288" lon="6.92556">
        <time>2023-04-16T11:31:03+00:00</time>
        <ele>2714.0</ele>
      </trkpt>
      <trkpt lat="44.33289" lon="6.92555">
        <time>2023-04-16T11:31:05+00:00</time>
        <ele>2714.0</ele>
      </trkpt>
      <trkpt lat="44.3329" lon="6.92554">
        <time>2023-04-16T11:31:08+00:00</time>
        <ele>2714.0</ele>
      </trkpt>
      <trkpt lat="44.33288" lon="6.92556">
        <time>2023-04-16T11:31:12+00:00</time>
        <ele>2714.0</ele>
      </trkpt>
      <trkpt lat="44.33287" lon="6.92557">
        <time>2023-04-16T11:31:15+00:00</time>
        <ele>2713.0</ele>
      </trkpt>
      <trkpt lat="44.33287" lon="6.92557">
        <time>2023-04-16T11:31:17+00:00</time>
        <ele>2713.0</ele>
      </trkpt>
      <trkpt lat="44.33287" lon="6.92557">
        <time>2023-04-16T11:31:20+00:00</time>
        <ele>2713.0</ele>
      </trkpt>
      <trkpt lat="44.33287" lon="6.92557">
        <time>2023-04-16T11:31:23+00:00</time>
        <ele>2713.0</ele>
      </trkpt>
      <trkpt lat="44.33287" lon="6.92558">
        <time>2023-04-16T11:31:26+00:00</time>
        <ele>2713.0</ele>
      </trkpt>
      <trkpt lat="44.33287" lon="6.92558">
        <time>2023-04-16T11:31:29+00:00</time>
        <ele>2713.0</ele>
      </trkpt>
      <trkpt lat="44.33286" lon="6.92558">
        <time>2023-04-16T11:31:31+00:00</time>
        <ele>2713.0</ele>
      </trkpt>
      <trkpt lat="44.33286" lon="6.92558">
        <time>2023-04-16T11:31:35+00:00</time>
        <ele>2713.0</ele>
      </trkpt>
      <trkpt lat="44.33284" lon="6.92559">
        <time>2023-04-16T11:31:41+00:00</time>
        <ele>2712.0</ele>
      </trkpt>
      <trkpt lat="44.33284" lon="6.92559">
        <time>2023-04-16T11:31:45+00:00</time>
        <ele>2712.0</ele>
      </trkpt>
      <trkpt lat="44.33284" lon="6.92559">
        <time>2023-04-16T11:31:50+00:00</time>
        <ele>2712.0</ele>
      </trkpt>
      <trkpt lat="44.33284" lon="6.92559">
        <time>2023-04-16T11:31:54+00:00</time>
        <ele>2712.0</ele>
      </trkpt>
      <trkpt lat="44.33284" lon="6.92559">
        <time>2023-04-16T11:31:55+00:00</time>
        <ele>2712.0</ele>
      </trkpt>
      <trkpt lat="44.33284" lon="6.92559">
        <time>2023-04-16T11:31:56+00:00</time>
        <ele>2712.0</ele>
      </trkpt>
      <trkpt lat="44.33285" lon="6.92559">
        <time>2023-04-16T11:31:57+00:00</time>
        <ele>2713.0</ele>
      </trkpt>
      <trkpt lat="44.33285" lon="6.92559">
        <time>2023-04-16T11:31:58+00:00</time>
        <ele>2713.0</ele>
      </trkpt>
      <trkpt lat="44.33285" lon="6.92559">
        <time>2023-04-16T11:32:02+00:00</time>
        <ele>2713.0</ele>
      </trkpt>
      <trkpt lat="44.33286" lon="6.92559">
        <time>2023-04-16T11:32:13+00:00</time>
        <ele>2713.0</ele>
      </trkpt>
      <trkpt lat="44.33286" lon="6.92559">
        <time>2023-04-16T11:32:20+00:00</time>
        <ele>2713.0</ele>
      </trkpt>
      <trkpt lat="44.33285" lon="6.92559">
        <time>2023-04-16T11:32:26+00:00</time>
        <ele>2713.0</ele>
      </trkpt>
      <trkpt lat="44.33286" lon="6.92559">
        <time>2023-04-16T11:32:29+00:00</time>
        <ele>2713.0</ele>
      </trkpt>
      <trkpt lat="44.33286" lon="6.9256">
        <time>2023-04-16T11:32:31+00:00</time>
        <ele>2713.0</ele>
      </trkpt>
      <trkpt lat="44.33288" lon="6.92562">
        <time>2023-04-16T11:32:35+00:00</time>
        <ele>2714.0</ele>
      </trkpt>
      <trkpt lat="44.33288" lon="6.92563">
        <time>2023-04-16T11:32:37+00:00</time>
        <ele>2714.0</ele>
      </trkpt>
      <trkpt lat="44.33287" lon="6.92564">
        <time>2023-04-16T11:32:40+00:00</time>
        <ele>2714.0</ele>
      </trkpt>
      <trkpt lat="44.33286" lon="6.92564">
        <time>2023-04-16T11:32:47+00:00</time>
        <ele>2713.0</ele>
      </trkpt>
      <trkpt lat="44.33286" lon="6.92563">
        <time>2023-04-16T11:32:48+00:00</time>
        <ele>2713.0</ele>
      </trkpt>
      <trkpt lat="44.33286" lon="6.92563">
        <time>2023-04-16T11:32:49+00:00</time>
        <ele>2713.0</ele>
      </trkpt>
      <trkpt lat="44.33286" lon="6.92563">
        <time>2023-04-16T11:32:50+00:00</time>
        <ele>2713.0</ele>
      </trkpt>
      <trkpt lat="44.33286" lon="6.92563">
        <time>2023-04-16T11:32:51+00:00</time>
        <ele>2713.0</ele>
      </trkpt>
      <trkpt lat="44.33286" lon="6.92563">
        <time>2023-04-16T11:32:52+00:00</time>
        <ele>2713.0</ele>
      </trkpt>
      <trkpt lat="44.33286" lon="6.92563">
        <time>2023-04-16T11:32:53+00:00</time>
        <ele>2713.0</ele>
      </trkpt>
      <trkpt lat="44.33286" lon="6.92563">
        <time>2023-04-16T11:32:54+00:00</time>
        <ele>2713.0</ele>
      </trkpt>
      <trkpt lat="44.33289" lon="6.92562">
        <time>2023-04-16T11:32:56+00:00</time>
        <ele>2714.0</ele>
      </trkpt>
      <trkpt lat="44.33294" lon="6.92558">
        <time>2023-04-16T11:32:58+00:00</time>
        <ele>2716.0</ele>
      </trkpt>
      <trkpt lat="44.33307" lon="6.92549">
        <time>2023-04-16T11:33:01+00:00</time>
        <ele>2718.0</ele>
      </trkpt>
      <trkpt lat="44.33312" lon="6.92547">
        <time>2023-04-16T11:33:02+00:00</time>
        <ele>2718.0</ele>
      </trkpt>
      <trkpt lat="44.33317" lon="6.92546">
        <time>2023-04-16T11:33:03+00:00</time>
        <ele>2718.0</ele>
      </trkpt>
      <trkpt lat="44.3332" lon="6.92542">
        <time>2023-04-16T11:33:04+00:00</time>
        <ele>2717.0</ele>
      </trkpt>
      <trkpt lat="44.33322" lon="6.92536">
        <time>2023-04-16T11:33:05+00:00</time>
        <ele>2715.0</ele>
      </trkpt>
      <trkpt lat="44.33323" lon="6.92529">
        <time>2023-04-16T11:33:06+00:00</time>
        <ele>2713.0</ele>
      </trkpt>
      <trkpt lat="44.33324" lon="6.92523">
        <time>2023-04-16T11:33:07+00:00</time>
        <ele>2711.0</ele>
      </trkpt>
      <trkpt lat="44.33324" lon="6.92516">
        <time>2023-04-16T11:33:08+00:00</time>
        <ele>2709.0</ele>
      </trkpt>
      <trkpt lat="44.33324" lon="6.92509">
        <time>2023-04-16T11:33:09+00:00</time>
        <ele>2707.0</ele>
      </trkpt>
      <trkpt lat="44.33323" lon="6.92502">
        <time>2023-04-16T11:33:10+00:00</time>
        <ele>2706.0</ele>
      </trkpt>
      <trkpt lat="44.33324" lon="6.92495">
        <time>2023-04-16T11:33:11+00:00</time>
        <ele>2704.0</ele>
      </trkpt>
      <trkpt lat="44.33325" lon="6.92489">
        <time>2023-04-16T11:33:12+00:00</time>
        <ele>2702.0</ele>
      </trkpt>
      <trkpt lat="44.33328" lon="6.92482">
        <time>2023-04-16T11:33:13+00:00</time>
        <ele>2700.0</ele>
      </trkpt>
      <trkpt lat="44.3333" lon="6.92475">
        <time>2023-04-16T11:33:14+00:00</time>
        <ele>2697.0</ele>
      </trkpt>
      <trkpt lat="44.33333" lon="6.92467">
        <time>2023-04-16T11:33:15+00:00</time>
        <ele>2695.0</ele>
      </trkpt>
      <trkpt lat="44.33337" lon="6.9246">
        <time>2023-04-16T11:33:16+00:00</time>
        <ele>2693.0</ele>
      </trkpt>
      <trkpt lat="44.3334" lon="6.92453">
        <time>2023-04-16T11:33:17+00:00</time>
        <ele>2691.0</ele>
      </trkpt>
      <trkpt lat="44.33343" lon="6.92447">
        <time>2023-04-16T11:33:18+00:00</time>
        <ele>2690.0</ele>
      </trkpt>
      <trkpt lat="44.33344" lon="6.9244">
        <time>2023-04-16T11:33:19+00:00</time>
        <ele>2689.0</ele>
      </trkpt>
      <trkpt lat="44.33346" lon="6.92435">
        <time>2023-04-16T11:33:20+00:00</time>
        <ele>2688.0</ele>
      </trkpt>
      <trkpt lat="44.33348" lon="6.92429">
        <time>2023-04-16T11:33:21+00:00</time>
        <ele>2688.0</ele>
      </trkpt>
      <trkpt lat="44.33353" lon="6.92421">
        <time>2023-04-16T11:33:23+00:00</time>
        <ele>2687.0</ele>
      </trkpt>
      <trkpt lat="44.33358" lon="6.92412">
        <time>2023-04-16T11:33:25+00:00</time>
        <ele>2685.0</ele>
      </trkpt>
      <trkpt lat="44.3336" lon="6.92408">
        <time>2023-04-16T11:33:26+00:00</time>
        <ele>2685.0</ele>
      </trkpt>
      <trkpt lat="44.33363" lon="6.92403">
        <time>2023-04-16T11:33:27+00:00</time>
        <ele>2684.0</ele>
      </trkpt>
      <trkpt lat="44.33369" lon="6.92391">
        <time>2023-04-16T11:33:29+00:00</time>
        <ele>2683.0</ele>
      </trkpt>
      <trkpt lat="44.33373" lon="6.92375">
        <time>2023-04-16T11:33:31+00:00</time>
        <ele>2681.0</ele>
      </trkpt>
      <trkpt lat="44.3338" lon="6.92363">
        <time>2023-04-16T11:33:33+00:00</time>
        <ele>2679.0</ele>
      </trkpt>
      <trkpt lat="44.33384" lon="6.92356">
        <time>2023-04-16T11:33:34+00:00</time>
        <ele>2678.0</ele>
      </trkpt>
      <trkpt lat="44.33387" lon="6.9235">
        <time>2023-04-16T11:33:35+00:00</time>
        <ele>2677.0</ele>
      </trkpt>
      <trkpt lat="44.3339" lon="6.92346">
        <time>2023-04-16T11:33:36+00:00</time>
        <ele>2676.0</ele>
      </trkpt>
      <trkpt lat="44.33394" lon="6.92343">
        <time>2023-04-16T11:33:37+00:00</time>
        <ele>2675.0</ele>
      </trkpt>
      <trkpt lat="44.33397" lon="6.92339">
        <time>2023-04-16T11:33:38+00:00</time>
        <ele>2674.0</ele>
      </trkpt>
      <trkpt lat="44.334" lon="6.92333">
        <time>2023-04-16T11:33:39+00:00</time>
        <ele>2673.0</ele>
      </trkpt>
      <trkpt lat="44.33404" lon="6.92326">
        <time>2023-04-16T11:33:40+00:00</time>
        <ele>2671.0</ele>
      </trkpt>
      <trkpt lat="44.33408" lon="6.9232">
        <time>2023-04-16T11:33:41+00:00</time>
        <ele>2670.0</ele>
      </trkpt>
      <trkpt lat="44.33412" lon="6.92315">
        <time>2023-04-16T11:33:42+00:00</time>
        <ele>2668.0</ele>
      </trkpt>
      <trkpt lat="44.33416" lon="6.9231">
        <time>2023-04-16T11:33:43+00:00</time>
        <ele>2666.0</ele>
      </trkpt>
      <trkpt lat="44.3342" lon="6.92305">
        <time>2023-04-16T11:33:44+00:00</time>
        <ele>2665.0</ele>
      </trkpt>
      <trkpt lat="44.33424" lon="6.92301">
        <time>2023-04-16T11:33:45+00:00</time>
        <ele>2664.0</ele>
      </trkpt>
      <trkpt lat="44.33429" lon="6.92297">
        <time>2023-04-16T11:33:46+00:00</time>
        <ele>2663.0</ele>
      </trkpt>
      <trkpt lat="44.33434" lon="6.92294">
        <time>2023-04-16T11:33:47+00:00</time>
        <ele>2662.0</ele>
      </trkpt>
      <trkpt lat="44.33446" lon="6.92286">
        <time>2023-04-16T11:33:49+00:00</time>
        <ele>2659.0</ele>
      </trkpt>
      <trkpt lat="44.33452" lon="6.92283">
        <time>2023-04-16T11:33:50+00:00</time>
        <ele>2658.0</ele>
      </trkpt>
      <trkpt lat="44.33457" lon="6.92281">
        <time>2023-04-16T11:33:51+00:00</time>
        <ele>2657.0</ele>
      </trkpt>
      <trkpt lat="44.33461" lon="6.92278">
        <time>2023-04-16T11:33:52+00:00</time>
        <ele>2657.0</ele>
      </trkpt>
      <trkpt lat="44.33466" lon="6.92274">
        <time>2023-04-16T11:33:53+00:00</time>
        <ele>2656.0</ele>
      </trkpt>
      <trkpt lat="44.33471" lon="6.92271">
        <time>2023-04-16T11:33:54+00:00</time>
        <ele>2655.0</ele>
      </trkpt>
      <trkpt lat="44.33477" lon="6.92268">
        <time>2023-04-16T11:33:55+00:00</time>
        <ele>2654.0</ele>
      </trkpt>
      <trkpt lat="44.33481" lon="6.92265">
        <time>2023-04-16T11:33:56+00:00</time>
        <ele>2652.0</ele>
      </trkpt>
      <trkpt lat="44.33485" lon="6.92259">
        <time>2023-04-16T11:33:57+00:00</time>
        <ele>2651.0</ele>
      </trkpt>
      <trkpt lat="44.33489" lon="6.92253">
        <time>2023-04-16T11:33:58+00:00</time>
        <ele>2650.0</ele>
      </trkpt>
      <trkpt lat="44.33494" lon="6.9225">
        <time>2023-04-16T11:33:59+00:00</time>
        <ele>2649.0</ele>
      </trkpt>
      <trkpt lat="44.33498" lon="6.92247">
        <time>2023-04-16T11:34:00+00:00</time>
        <ele>2647.0</ele>
      </trkpt>
      <trkpt lat="44.33504" lon="6.92242">
        <time>2023-04-16T11:34:01+00:00</time>
        <ele>2644.0</ele>
      </trkpt>
      <trkpt lat="44.3351" lon="6.92238">
        <time>2023-04-16T11:34:02+00:00</time>
        <ele>2642.0</ele>
      </trkpt>
      <trkpt lat="44.33516" lon="6.92237">
        <time>2023-04-16T11:34:03+00:00</time>
        <ele>2641.0</ele>
      </trkpt>
      <trkpt lat="44.33522" lon="6.92236">
        <time>2023-04-16T11:34:04+00:00</time>
        <ele>2640.0</ele>
      </trkpt>
      <trkpt lat="44.33528" lon="6.92233">
        <time>2023-04-16T11:34:05+00:00</time>
        <ele>2638.0</ele>
      </trkpt>
      <trkpt lat="44.33534" lon="6.92229">
        <time>2023-04-16T11:34:06+00:00</time>
        <ele>2636.0</ele>
      </trkpt>
      <trkpt lat="44.3354" lon="6.92226">
        <time>2023-04-16T11:34:07+00:00</time>
        <ele>2635.0</ele>
      </trkpt>
      <trkpt lat="44.33545" lon="6.92225">
        <time>2023-04-16T11:34:08+00:00</time>
        <ele>2634.0</ele>
      </trkpt>
      <trkpt lat="44.3355" lon="6.92226">
        <time>2023-04-16T11:34:09+00:00</time>
        <ele>2634.0</ele>
      </trkpt>
      <trkpt lat="44.33554" lon="6.92227">
        <time>2023-04-16T11:34:10+00:00</time>
        <ele>2633.0</ele>
      </trkpt>
      <trkpt lat="44.33557" lon="6.92226">
        <time>2023-04-16T11:34:11+00:00</time>
        <ele>2632.0</ele>
      </trkpt>
      <trkpt lat="44.33559" lon="6.92225">
        <time>2023-04-16T11:34:12+00:00</time>
        <ele>2632.0</ele>
      </trkpt>
      <trkpt lat="44.33558" lon="6.92222">
        <time>2023-04-16T11:34:15+00:00</time>
        <ele>2632.0</ele>
      </trkpt>
      <trkpt lat="44.33558" lon="6.92222">
        <time>2023-04-16T11:34:16+00:00</time>
        <ele>2632.0</ele>
      </trkpt>
      <trkpt lat="44.33561" lon="6.92211">
        <time>2023-04-16T11:34:24+00:00</time>
        <ele>2630.0</ele>
      </trkpt>
      <trkpt lat="44.33565" lon="6.92208">
        <time>2023-04-16T11:34:25+00:00</time>
        <ele>2629.0</ele>
      </trkpt>
      <trkpt lat="44.33575" lon="6.92204">
        <time>2023-04-16T11:34:27+00:00</time>
        <ele>2627.0</ele>
      </trkpt>
      <trkpt lat="44.33579" lon="6.92201">
        <time>2023-04-16T11:34:28+00:00</time>
        <ele>2626.0</ele>
      </trkpt>
      <trkpt lat="44.33584" lon="6.92196">
        <time>2023-04-16T11:34:29+00:00</time>
        <ele>2625.0</ele>
      </trkpt>
      <trkpt lat="44.33588" lon="6.92191">
        <time>2023-04-16T11:34:30+00:00</time>
        <ele>2623.0</ele>
      </trkpt>
      <trkpt lat="44.33593" lon="6.92186">
        <time>2023-04-16T11:34:31+00:00</time>
        <ele>2622.0</ele>
      </trkpt>
      <trkpt lat="44.33602" lon="6.92176">
        <time>2023-04-16T11:34:33+00:00</time>
        <ele>2618.0</ele>
      </trkpt>
      <trkpt lat="44.33607" lon="6.9217">
        <time>2023-04-16T11:34:34+00:00</time>
        <ele>2617.0</ele>
      </trkpt>
      <trkpt lat="44.33612" lon="6.92163">
        <time>2023-04-16T11:34:35+00:00</time>
        <ele>2615.0</ele>
      </trkpt>
      <trkpt lat="44.33618" lon="6.92157">
        <time>2023-04-16T11:34:36+00:00</time>
        <ele>2613.0</ele>
      </trkpt>
      <trkpt lat="44.33623" lon="6.92151">
        <time>2023-04-16T11:34:37+00:00</time>
        <ele>2612.0</ele>
      </trkpt>
      <trkpt lat="44.33628" lon="6.92145">
        <time>2023-04-16T11:34:38+00:00</time>
        <ele>2611.0</ele>
      </trkpt>
      <trkpt lat="44.33632" lon="6.92139">
        <time>2023-04-16T11:34:39+00:00</time>
        <ele>2609.0</ele>
      </trkpt>
      <trkpt lat="44.33636" lon="6.92133">
        <time>2023-04-16T11:34:40+00:00</time>
        <ele>2608.0</ele>
      </trkpt>
      <trkpt lat="44.33641" lon="6.92128">
        <time>2023-04-16T11:34:41+00:00</time>
        <ele>2607.0</ele>
      </trkpt>
      <trkpt lat="44.33646" lon="6.92122">
        <time>2023-04-16T11:34:42+00:00</time>
        <ele>2606.0</ele>
      </trkpt>
      <trkpt lat="44.33651" lon="6.92117">
        <time>2023-04-16T11:34:43+00:00</time>
        <ele>2605.0</ele>
      </trkpt>
      <trkpt lat="44.33656" lon="6.92111">
        <time>2023-04-16T11:34:44+00:00</time>
        <ele>2604.0</ele>
      </trkpt>
      <trkpt lat="44.33661" lon="6.92105">
        <time>2023-04-16T11:34:45+00:00</time>
        <ele>2602.0</ele>
      </trkpt>
      <trkpt lat="44.33665" lon="6.92099">
        <time>2023-04-16T11:34:46+00:00</time>
        <ele>2600.0</ele>
      </trkpt>
      <trkpt lat="44.33671" lon="6.92093">
        <time>2023-04-16T11:34:47+00:00</time>
        <ele>2598.0</ele>
      </trkpt>
      <trkpt lat="44.33676" lon="6.92087">
        <time>2023-04-16T11:34:48+00:00</time>
        <ele>2597.0</ele>
      </trkpt>
      <trkpt lat="44.33682" lon="6.92081">
        <time>2023-04-16T11:34:49+00:00</time>
        <ele>2595.0</ele>
      </trkpt>
      <trkpt lat="44.33687" lon="6.92076">
        <time>2023-04-16T11:34:50+00:00</time>
        <ele>2593.0</ele>
      </trkpt>
      <trkpt lat="44.33692" lon="6.92071">
        <time>2023-04-16T11:34:51+00:00</time>
        <ele>2592.0</ele>
      </trkpt>
      <trkpt lat="44.33697" lon="6.92066">
        <time>2023-04-16T11:34:52+00:00</time>
        <ele>2591.0</ele>
      </trkpt>
      <trkpt lat="44.33701" lon="6.9206">
        <time>2023-04-16T11:34:53+00:00</time>
        <ele>2589.0</ele>
      </trkpt>
      <trkpt lat="44.33705" lon="6.92052">
        <time>2023-04-16T11:34:54+00:00</time>
        <ele>2588.0</ele>
      </trkpt>
      <trkpt lat="44.33709" lon="6.92046">
        <time>2023-04-16T11:34:55+00:00</time>
        <ele>2586.0</ele>
      </trkpt>
      <trkpt lat="44.33714" lon="6.92041">
        <time>2023-04-16T11:34:56+00:00</time>
        <ele>2585.0</ele>
      </trkpt>
      <trkpt lat="44.33718" lon="6.92036">
        <time>2023-04-16T11:34:57+00:00</time>
        <ele>2583.0</ele>
      </trkpt>
      <trkpt lat="44.33723" lon="6.92031">
        <time>2023-04-16T11:34:58+00:00</time>
        <ele>2582.0</ele>
      </trkpt>
      <trkpt lat="44.33726" lon="6.92027">
        <time>2023-04-16T11:34:59+00:00</time>
        <ele>2581.0</ele>
      </trkpt>
      <trkpt lat="44.3373" lon="6.92024">
        <time>2023-04-16T11:35:00+00:00</time>
        <ele>2581.0</ele>
      </trkpt>
      <trkpt lat="44.33734" lon="6.9202">
        <time>2023-04-16T11:35:01+00:00</time>
        <ele>2580.0</ele>
      </trkpt>
      <trkpt lat="44.33736" lon="6.92017">
        <time>2023-04-16T11:35:02+00:00</time>
        <ele>2580.0</ele>
      </trkpt>
      <trkpt lat="44.33736" lon="6.92015">
        <time>2023-04-16T11:35:03+00:00</time>
        <ele>2580.0</ele>
      </trkpt>
      <trkpt lat="44.33737" lon="6.92014">
        <time>2023-04-16T11:35:04+00:00</time>
        <ele>2579.0</ele>
      </trkpt>
      <trkpt lat="44.33736" lon="6.92014">
        <time>2023-04-16T11:35:05+00:00</time>
        <ele>2579.0</ele>
      </trkpt>
      <trkpt lat="44.33735" lon="6.92013">
        <time>2023-04-16T11:35:06+00:00</time>
        <ele>2579.0</ele>
      </trkpt>
      <trkpt lat="44.33735" lon="6.92013">
        <time>2023-04-16T11:35:07+00:00</time>
        <ele>2579.0</ele>
      </trkpt>
      <trkpt lat="44.33735" lon="6.92013">
        <time>2023-04-16T11:35:08+00:00</time>
        <ele>2579.0</ele>
      </trkpt>
      <trkpt lat="44.33736" lon="6.92013">
        <time>2023-04-16T11:35:09+00:00</time>
        <ele>2579.0</ele>
      </trkpt>
      <trkpt lat="44.33735" lon="6.92013">
        <time>2023-04-16T11:35:10+00:00</time>
        <ele>2579.0</ele>
      </trkpt>
      <trkpt lat="44.33735" lon="6.92012">
        <time>2023-04-16T11:35:11+00:00</time>
        <ele>2579.0</ele>
      </trkpt>
      <trkpt lat="44.33735" lon="6.92012">
        <time>2023-04-16T11:35:13+00:00</time>
        <ele>2579.0</ele>
      </trkpt>
      <trkpt lat="44.33735" lon="6.92012">
        <time>2023-04-16T11:35:14+00:00</time>
        <ele>2579.0</ele>
      </trkpt>
      <trkpt lat="44.33735" lon="6.92012">
        <time>2023-04-16T11:35:18+00:00</time>
        <ele>2579.0</ele>
      </trkpt>
      <trkpt lat="44.33735" lon="6.92012">
        <time>2023-04-16T11:35:19+00:00</time>
        <ele>2579.0</ele>
      </trkpt>
      <trkpt lat="44.33735" lon="6.92012">
        <time>2023-04-16T11:35:23+00:00</time>
        <ele>2579.0</ele>
      </trkpt>
      <trkpt lat="44.33741" lon="6.92006">
        <time>2023-04-16T11:35:29+00:00</time>
        <ele>2578.0</ele>
      </trkpt>
      <trkpt lat="44.33751" lon="6.91993">
        <time>2023-04-16T11:35:33+00:00</time>
        <ele>2576.0</ele>
      </trkpt>
      <trkpt lat="44.33758" lon="6.91985">
        <time>2023-04-16T11:35:35+00:00</time>
        <ele>2573.0</ele>
      </trkpt>
      <trkpt lat="44.33763" lon="6.91977">
        <time>2023-04-16T11:35:37+00:00</time>
        <ele>2572.0</ele>
      </trkpt>
      <trkpt lat="44.33767" lon="6.91976">
        <time>2023-04-16T11:35:38+00:00</time>
        <ele>2571.0</ele>
      </trkpt>
      <trkpt lat="44.33771" lon="6.91976">
        <time>2023-04-16T11:35:39+00:00</time>
        <ele>2570.0</ele>
      </trkpt>
      <trkpt lat="44.33774" lon="6.91973">
        <time>2023-04-16T11:35:40+00:00</time>
        <ele>2568.0</ele>
      </trkpt>
      <trkpt lat="44.33781" lon="6.91966">
        <time>2023-04-16T11:35:42+00:00</time>
        <ele>2565.0</ele>
      </trkpt>
      <trkpt lat="44.33789" lon="6.91954">
        <time>2023-04-16T11:35:44+00:00</time>
        <ele>2561.0</ele>
      </trkpt>
      <trkpt lat="44.33793" lon="6.91945">
        <time>2023-04-16T11:35:45+00:00</time>
        <ele>2559.0</ele>
      </trkpt>
      <trkpt lat="44.33799" lon="6.91935">
        <time>2023-04-16T11:35:46+00:00</time>
        <ele>2555.0</ele>
      </trkpt>
      <trkpt lat="44.33806" lon="6.91926">
        <time>2023-04-16T11:35:47+00:00</time>
        <ele>2553.0</ele>
      </trkpt>
      <trkpt lat="44.33813" lon="6.91916">
        <time>2023-04-16T11:35:48+00:00</time>
        <ele>2550.0</ele>
      </trkpt>
      <trkpt lat="44.3382" lon="6.91906">
        <time>2023-04-16T11:35:49+00:00</time>
        <ele>2547.0</ele>
      </trkpt>
      <trkpt lat="44.33828" lon="6.91898">
        <time>2023-04-16T11:35:50+00:00</time>
        <ele>2546.0</ele>
      </trkpt>
      <trkpt lat="44.33833" lon="6.91888">
        <time>2023-04-16T11:35:51+00:00</time>
        <ele>2545.0</ele>
      </trkpt>
      <trkpt lat="44.33834" lon="6.91877">
        <time>2023-04-16T11:35:52+00:00</time>
        <ele>2545.0</ele>
      </trkpt>
      <trkpt lat="44.33833" lon="6.91865">
        <time>2023-04-16T11:35:53+00:00</time>
        <ele>2544.0</ele>
      </trkpt>
      <trkpt lat="44.33834" lon="6.91855">
        <time>2023-04-16T11:35:54+00:00</time>
        <ele>2542.0</ele>
      </trkpt>
      <trkpt lat="44.33838" lon="6.91849">
        <time>2023-04-16T11:35:55+00:00</time>
        <ele>2540.0</ele>
      </trkpt>
      <trkpt lat="44.33844" lon="6.91844">
        <time>2023-04-16T11:35:56+00:00</time>
        <ele>2539.0</ele>
      </trkpt>
      <trkpt lat="44.3385" lon="6.91839">
        <time>2023-04-16T11:35:57+00:00</time>
        <ele>2538.0</ele>
      </trkpt>
      <trkpt lat="44.33856" lon="6.91834">
        <time>2023-04-16T11:35:58+00:00</time>
        <ele>2536.0</ele>
      </trkpt>
      <trkpt lat="44.33863" lon="6.91829">
        <time>2023-04-16T11:35:59+00:00</time>
        <ele>2534.0</ele>
      </trkpt>
      <trkpt lat="44.33869" lon="6.91822">
        <time>2023-04-16T11:36:00+00:00</time>
        <ele>2532.0</ele>
      </trkpt>
      <trkpt lat="44.33875" lon="6.91814">
        <time>2023-04-16T11:36:01+00:00</time>
        <ele>2531.0</ele>
      </trkpt>
      <trkpt lat="44.33881" lon="6.91808">
        <time>2023-04-16T11:36:02+00:00</time>
        <ele>2529.0</ele>
      </trkpt>
      <trkpt lat="44.33888" lon="6.91802">
        <time>2023-04-16T11:36:03+00:00</time>
        <ele>2528.0</ele>
      </trkpt>
      <trkpt lat="44.33894" lon="6.91797">
        <time>2023-04-16T11:36:04+00:00</time>
        <ele>2526.0</ele>
      </trkpt>
      <trkpt lat="44.339" lon="6.91792">
        <time>2023-04-16T11:36:05+00:00</time>
        <ele>2524.0</ele>
      </trkpt>
      <trkpt lat="44.33905" lon="6.91786">
        <time>2023-04-16T11:36:06+00:00</time>
        <ele>2523.0</ele>
      </trkpt>
      <trkpt lat="44.33908" lon="6.91778">
        <time>2023-04-16T11:36:07+00:00</time>
        <ele>2522.0</ele>
      </trkpt>
      <trkpt lat="44.33911" lon="6.91769">
        <time>2023-04-16T11:36:08+00:00</time>
        <ele>2521.0</ele>
      </trkpt>
      <trkpt lat="44.33918" lon="6.91748">
        <time>2023-04-16T11:36:10+00:00</time>
        <ele>2518.0</ele>
      </trkpt>
      <trkpt lat="44.33922" lon="6.91738">
        <time>2023-04-16T11:36:11+00:00</time>
        <ele>2517.0</ele>
      </trkpt>
      <trkpt lat="44.33927" lon="6.91729">
        <time>2023-04-16T11:36:12+00:00</time>
        <ele>2515.0</ele>
      </trkpt>
      <trkpt lat="44.33931" lon="6.9172">
        <time>2023-04-16T11:36:13+00:00</time>
        <ele>2514.0</ele>
      </trkpt>
      <trkpt lat="44.33936" lon="6.9171">
        <time>2023-04-16T11:36:14+00:00</time>
        <ele>2512.0</ele>
      </trkpt>
      <trkpt lat="44.33941" lon="6.917">
        <time>2023-04-16T11:36:15+00:00</time>
        <ele>2511.0</ele>
      </trkpt>
      <trkpt lat="44.33946" lon="6.9169">
        <time>2023-04-16T11:36:16+00:00</time>
        <ele>2509.0</ele>
      </trkpt>
      <trkpt lat="44.33951" lon="6.91679">
        <time>2023-04-16T11:36:17+00:00</time>
        <ele>2507.0</ele>
      </trkpt>
      <trkpt lat="44.33956" lon="6.91669">
        <time>2023-04-16T11:36:18+00:00</time>
        <ele>2505.0</ele>
      </trkpt>
      <trkpt lat="44.33961" lon="6.91658">
        <time>2023-04-16T11:36:19+00:00</time>
        <ele>2503.0</ele>
      </trkpt>
      <trkpt lat="44.33966" lon="6.91648">
        <time>2023-04-16T11:36:20+00:00</time>
        <ele>2503.0</ele>
      </trkpt>
      <trkpt lat="44.33971" lon="6.91639">
        <time>2023-04-16T11:36:21+00:00</time>
        <ele>2501.0</ele>
      </trkpt>
      <trkpt lat="44.33976" lon="6.91629">
        <time>2023-04-16T11:36:22+00:00</time>
        <ele>2500.0</ele>
      </trkpt>
      <trkpt lat="44.33982" lon="6.9162">
        <time>2023-04-16T11:36:23+00:00</time>
        <ele>2499.0</ele>
      </trkpt>
      <trkpt lat="44.33987" lon="6.91611">
        <time>2023-04-16T11:36:24+00:00</time>
        <ele>2497.0</ele>
      </trkpt>
      <trkpt lat="44.33992" lon="6.91603">
        <time>2023-04-16T11:36:25+00:00</time>
        <ele>2496.0</ele>
      </trkpt>
      <trkpt lat="44.33996" lon="6.91594">
        <time>2023-04-16T11:36:26+00:00</time>
        <ele>2495.0</ele>
      </trkpt>
      <trkpt lat="44.34005" lon="6.91578">
        <time>2023-04-16T11:36:28+00:00</time>
        <ele>2493.0</ele>
      </trkpt>
      <trkpt lat="44.34013" lon="6.91563">
        <time>2023-04-16T11:36:30+00:00</time>
        <ele>2492.0</ele>
      </trkpt>
      <trkpt lat="44.3402" lon="6.91548">
        <time>2023-04-16T11:36:32+00:00</time>
        <ele>2492.0</ele>
      </trkpt>
      <trkpt lat="44.34026" lon="6.91536">
        <time>2023-04-16T11:36:34+00:00</time>
        <ele>2492.0</ele>
      </trkpt>
      <trkpt lat="44.34032" lon="6.91524">
        <time>2023-04-16T11:36:36+00:00</time>
        <ele>2491.0</ele>
      </trkpt>
      <trkpt lat="44.34037" lon="6.91512">
        <time>2023-04-16T11:36:38+00:00</time>
        <ele>2490.0</ele>
      </trkpt>
      <trkpt lat="44.34038" lon="6.91505">
        <time>2023-04-16T11:36:39+00:00</time>
        <ele>2490.0</ele>
      </trkpt>
      <trkpt lat="44.34039" lon="6.91498">
        <time>2023-04-16T11:36:40+00:00</time>
        <ele>2490.0</ele>
      </trkpt>
      <trkpt lat="44.34042" lon="6.91484">
        <time>2023-04-16T11:36:42+00:00</time>
        <ele>2489.0</ele>
      </trkpt>
      <trkpt lat="44.34045" lon="6.91472">
        <time>2023-04-16T11:36:44+00:00</time>
        <ele>2488.0</ele>
      </trkpt>
      <trkpt lat="44.34047" lon="6.91461">
        <time>2023-04-16T11:36:46+00:00</time>
        <ele>2487.0</ele>
      </trkpt>
      <trkpt lat="44.34048" lon="6.91456">
        <time>2023-04-16T11:36:47+00:00</time>
        <ele>2487.0</ele>
      </trkpt>
      <trkpt lat="44.34049" lon="6.91441">
        <time>2023-04-16T11:36:51+00:00</time>
        <ele>2486.0</ele>
      </trkpt>
      <trkpt lat="44.34049" lon="6.91438">
        <time>2023-04-16T11:36:52+00:00</time>
        <ele>2486.0</ele>
      </trkpt>
      <trkpt lat="44.3405" lon="6.9143">
        <time>2023-04-16T11:36:55+00:00</time>
        <ele>2486.0</ele>
      </trkpt>
      <trkpt lat="44.34051" lon="6.91426">
        <time>2023-04-16T11:36:56+00:00</time>
        <ele>2485.0</ele>
      </trkpt>
      <trkpt lat="44.34054" lon="6.91401">
        <time>2023-04-16T11:37:02+00:00</time>
        <ele>2482.0</ele>
      </trkpt>
      <trkpt lat="44.34054" lon="6.91378">
        <time>2023-04-16T11:37:07+00:00</time>
        <ele>2481.0</ele>
      </trkpt>
      <trkpt lat="44.34053" lon="6.91353">
        <time>2023-04-16T11:37:12+00:00</time>
        <ele>2480.0</ele>
      </trkpt>
      <trkpt lat="44.34052" lon="6.91339">
        <time>2023-04-16T11:37:15+00:00</time>
        <ele>2479.0</ele>
      </trkpt>
      <trkpt lat="44.34051" lon="6.91335">
        <time>2023-04-16T11:37:16+00:00</time>
        <ele>2479.0</ele>
      </trkpt>
      <trkpt lat="44.3405" lon="6.91315">
        <time>2023-04-16T11:37:21+00:00</time>
        <ele>2478.0</ele>
      </trkpt>
      <trkpt lat="44.34048" lon="6.91308">
        <time>2023-04-16T11:37:23+00:00</time>
        <ele>2479.0</ele>
      </trkpt>
      <trkpt lat="44.34047" lon="6.91276">
        <time>2023-04-16T11:37:32+00:00</time>
        <ele>2479.0</ele>
      </trkpt>
      <trkpt lat="44.34047" lon="6.91272">
        <time>2023-04-16T11:37:33+00:00</time>
        <ele>2479.0</ele>
      </trkpt>
      <trkpt lat="44.34047" lon="6.91254">
        <time>2023-04-16T11:37:41+00:00</time>
        <ele>2478.0</ele>
      </trkpt>
      <trkpt lat="44.34047" lon="6.91242">
        <time>2023-04-16T11:37:51+00:00</time>
        <ele>2478.0</ele>
      </trkpt>
      <trkpt lat="44.34047" lon="6.91237">
        <time>2023-04-16T11:37:53+00:00</time>
        <ele>2477.0</ele>
      </trkpt>
      <trkpt lat="44.34046" lon="6.9122">
        <time>2023-04-16T11:38:01+00:00</time>
        <ele>2476.0</ele>
      </trkpt>
      <trkpt lat="44.34041" lon="6.91212">
        <time>2023-04-16T11:38:24+00:00</time>
        <ele>2475.0</ele>
      </trkpt>
      <trkpt lat="44.34041" lon="6.91212">
        <time>2023-04-16T11:38:28+00:00</time>
        <ele>2475.0</ele>
      </trkpt>
      <trkpt lat="44.34042" lon="6.91211">
        <time>2023-04-16T11:38:35+00:00</time>
        <ele>2475.0</ele>
      </trkpt>
      <trkpt lat="44.34043" lon="6.9121">
        <time>2023-04-16T11:38:42+00:00</time>
        <ele>2475.0</ele>
      </trkpt>
      <trkpt lat="44.34043" lon="6.91209">
        <time>2023-04-16T11:38:49+00:00</time>
        <ele>2475.0</ele>
      </trkpt>
      <trkpt lat="44.34043" lon="6.91209">
        <time>2023-04-16T11:38:56+00:00</time>
        <ele>2475.0</ele>
      </trkpt>
      <trkpt lat="44.34031" lon="6.91212">
        <time>2023-04-16T11:39:00+00:00</time>
        <ele>2475.0</ele>
      </trkpt>
      <trkpt lat="44.34024" lon="6.91209">
        <time>2023-04-16T11:39:02+00:00</time>
        <ele>2475.0</ele>
      </trkpt>
      <trkpt lat="44.34023" lon="6.912">
        <time>2023-04-16T11:39:04+00:00</time>
        <ele>2474.0</ele>
      </trkpt>
      <trkpt lat="44.34024" lon="6.91187">
        <time>2023-04-16T11:39:06+00:00</time>
        <ele>2472.0</ele>
      </trkpt>
      <trkpt lat="44.34025" lon="6.91181">
        <time>2023-04-16T11:39:07+00:00</time>
        <ele>2471.0</ele>
      </trkpt>
      <trkpt lat="44.34026" lon="6.91174">
        <time>2023-04-16T11:39:08+00:00</time>
        <ele>2470.0</ele>
      </trkpt>
      <trkpt lat="44.34026" lon="6.91168">
        <time>2023-04-16T11:39:09+00:00</time>
        <ele>2469.0</ele>
      </trkpt>
      <trkpt lat="44.34025" lon="6.91163">
        <time>2023-04-16T11:39:10+00:00</time>
        <ele>2468.0</ele>
      </trkpt>
      <trkpt lat="44.34023" lon="6.91155">
        <time>2023-04-16T11:39:12+00:00</time>
        <ele>2467.0</ele>
      </trkpt>
      <trkpt lat="44.34024" lon="6.91154">
        <time>2023-04-16T11:39:13+00:00</time>
        <ele>2467.0</ele>
      </trkpt>
      <trkpt lat="44.34031" lon="6.91149">
        <time>2023-04-16T11:39:18+00:00</time>
        <ele>2466.0</ele>
      </trkpt>
      <trkpt lat="44.34032" lon="6.91146">
        <time>2023-04-16T11:39:20+00:00</time>
        <ele>2465.0</ele>
      </trkpt>
      <trkpt lat="44.34032" lon="6.91145">
        <time>2023-04-16T11:39:21+00:00</time>
        <ele>2465.0</ele>
      </trkpt>
      <trkpt lat="44.34032" lon="6.91145">
        <time>2023-04-16T11:39:25+00:00</time>
        <ele>2465.0</ele>
      </trkpt>
      <trkpt lat="44.34032" lon="6.91145">
        <time>2023-04-16T11:39:28+00:00</time>
        <ele>2465.0</ele>
      </trkpt>
      <trkpt lat="44.34032" lon="6.91145">
        <time>2023-04-16T11:39:29+00:00</time>
        <ele>2465.0</ele>
      </trkpt>
      <trkpt lat="44.34032" lon="6.91145">
        <time>2023-04-16T11:39:30+00:00</time>
        <ele>2465.0</ele>
      </trkpt>
      <trkpt lat="44.34032" lon="6.91145">
        <time>2023-04-16T11:39:33+00:00</time>
        <ele>2465.0</ele>
      </trkpt>
      <trkpt lat="44.34032" lon="6.91145">
        <time>2023-04-16T11:39:34+00:00</time>
        <ele>2465.0</ele>
      </trkpt>
      <trkpt lat="44.34032" lon="6.91145">
        <time>2023-04-16T11:39:38+00:00</time>
        <ele>2465.0</ele>
      </trkpt>
      <trkpt lat="44.34033" lon="6.91144">
        <time>2023-04-16T11:39:46+00:00</time>
        <ele>2465.0</ele>
      </trkpt>
      <trkpt lat="44.34036" lon="6.91152">
        <time>2023-04-16T11:39:52+00:00</time>
        <ele>2466.0</ele>
      </trkpt>
      <trkpt lat="44.34041" lon="6.91161">
        <time>2023-04-16T11:39:55+00:00</time>
        <ele>2468.0</ele>
      </trkpt>
      <trkpt lat="44.34048" lon="6.91148">
        <time>2023-04-16T11:39:58+00:00</time>
        <ele>2465.0</ele>
      </trkpt>
      <trkpt lat="44.3405" lon="6.91143">
        <time>2023-04-16T11:39:59+00:00</time>
        <ele>2464.0</ele>
      </trkpt>
      <trkpt lat="44.34051" lon="6.91138">
        <time>2023-04-16T11:40:00+00:00</time>
        <ele>2463.0</ele>
      </trkpt>
      <trkpt lat="44.34053" lon="6.91134">
        <time>2023-04-16T11:40:01+00:00</time>
        <ele>2462.0</ele>
      </trkpt>
      <trkpt lat="44.34054" lon="6.91132">
        <time>2023-04-16T11:40:02+00:00</time>
        <ele>2462.0</ele>
      </trkpt>
      <trkpt lat="44.34054" lon="6.91131">
        <time>2023-04-16T11:40:03+00:00</time>
        <ele>2462.0</ele>
      </trkpt>
      <trkpt lat="44.34053" lon="6.91127">
        <time>2023-04-16T11:40:04+00:00</time>
        <ele>2461.0</ele>
      </trkpt>
      <trkpt lat="44.34054" lon="6.91117">
        <time>2023-04-16T11:40:06+00:00</time>
        <ele>2458.0</ele>
      </trkpt>
      <trkpt lat="44.34057" lon="6.91111">
        <time>2023-04-16T11:40:07+00:00</time>
        <ele>2457.0</ele>
      </trkpt>
      <trkpt lat="44.34059" lon="6.91106">
        <time>2023-04-16T11:40:08+00:00</time>
        <ele>2456.0</ele>
      </trkpt>
      <trkpt lat="44.34061" lon="6.91101">
        <time>2023-04-16T11:40:09+00:00</time>
        <ele>2454.0</ele>
      </trkpt>
      <trkpt lat="44.34063" lon="6.91097">
        <time>2023-04-16T11:40:10+00:00</time>
        <ele>2453.0</ele>
      </trkpt>
      <trkpt lat="44.34066" lon="6.91095">
        <time>2023-04-16T11:40:11+00:00</time>
        <ele>2452.0</ele>
      </trkpt>
      <trkpt lat="44.34067" lon="6.91091">
        <time>2023-04-16T11:40:12+00:00</time>
        <ele>2451.0</ele>
      </trkpt>
      <trkpt lat="44.34066" lon="6.91084">
        <time>2023-04-16T11:40:13+00:00</time>
        <ele>2449.0</ele>
      </trkpt>
      <trkpt lat="44.34066" lon="6.91078">
        <time>2023-04-16T11:40:14+00:00</time>
        <ele>2448.0</ele>
      </trkpt>
      <trkpt lat="44.34069" lon="6.91076">
        <time>2023-04-16T11:40:15+00:00</time>
        <ele>2446.0</ele>
      </trkpt>
      <trkpt lat="44.34072" lon="6.91077">
        <time>2023-04-16T11:40:16+00:00</time>
        <ele>2446.0</ele>
      </trkpt>
      <trkpt lat="44.34075" lon="6.91075">
        <time>2023-04-16T11:40:17+00:00</time>
        <ele>2444.0</ele>
      </trkpt>
      <trkpt lat="44.34076" lon="6.91069">
        <time>2023-04-16T11:40:18+00:00</time>
        <ele>2441.0</ele>
      </trkpt>
      <trkpt lat="44.34078" lon="6.91064">
        <time>2023-04-16T11:40:19+00:00</time>
        <ele>2440.0</ele>
      </trkpt>
      <trkpt lat="44.34082" lon="6.91063">
        <time>2023-04-16T11:40:20+00:00</time>
        <ele>2438.0</ele>
      </trkpt>
      <trkpt lat="44.34088" lon="6.91066">
        <time>2023-04-16T11:40:21+00:00</time>
        <ele>2436.0</ele>
      </trkpt>
      <trkpt lat="44.34093" lon="6.9107">
        <time>2023-04-16T11:40:22+00:00</time>
        <ele>2435.0</ele>
      </trkpt>
      <trkpt lat="44.34097" lon="6.9107">
        <time>2023-04-16T11:40:23+00:00</time>
        <ele>2433.0</ele>
      </trkpt>
      <trkpt lat="44.34099" lon="6.91065">
        <time>2023-04-16T11:40:24+00:00</time>
        <ele>2431.0</ele>
      </trkpt>
      <trkpt lat="44.341" lon="6.91059">
        <time>2023-04-16T11:40:25+00:00</time>
        <ele>2429.0</ele>
      </trkpt>
      <trkpt lat="44.34104" lon="6.91056">
        <time>2023-04-16T11:40:26+00:00</time>
        <ele>2427.0</ele>
      </trkpt>
      <trkpt lat="44.34108" lon="6.91054">
        <time>2023-04-16T11:40:27+00:00</time>
        <ele>2425.0</ele>
      </trkpt>
      <trkpt lat="44.34111" lon="6.9105">
        <time>2023-04-16T11:40:28+00:00</time>
        <ele>2422.0</ele>
      </trkpt>
      <trkpt lat="44.34111" lon="6.91043">
        <time>2023-04-16T11:40:29+00:00</time>
        <ele>2420.0</ele>
      </trkpt>
      <trkpt lat="44.3411" lon="6.91037">
        <time>2023-04-16T11:40:30+00:00</time>
        <ele>2419.0</ele>
      </trkpt>
      <trkpt lat="44.34109" lon="6.9103">
        <time>2023-04-16T11:40:31+00:00</time>
        <ele>2419.0</ele>
      </trkpt>
      <trkpt lat="44.34108" lon="6.91024">
        <time>2023-04-16T11:40:32+00:00</time>
        <ele>2418.0</ele>
      </trkpt>
      <trkpt lat="44.34107" lon="6.91016">
        <time>2023-04-16T11:40:33+00:00</time>
        <ele>2418.0</ele>
      </trkpt>
      <trkpt lat="44.34106" lon="6.90998">
        <time>2023-04-16T11:40:35+00:00</time>
        <ele>2417.0</ele>
      </trkpt>
      <trkpt lat="44.34107" lon="6.9099">
        <time>2023-04-16T11:40:36+00:00</time>
        <ele>2415.0</ele>
      </trkpt>
      <trkpt lat="44.3411" lon="6.90982">
        <time>2023-04-16T11:40:37+00:00</time>
        <ele>2411.0</ele>
      </trkpt>
      <trkpt lat="44.34113" lon="6.90974">
        <time>2023-04-16T11:40:38+00:00</time>
        <ele>2409.0</ele>
      </trkpt>
      <trkpt lat="44.34115" lon="6.90965">
        <time>2023-04-16T11:40:39+00:00</time>
        <ele>2407.0</ele>
      </trkpt>
      <trkpt lat="44.34115" lon="6.90955">
        <time>2023-04-16T11:40:40+00:00</time>
        <ele>2406.0</ele>
      </trkpt>
      <trkpt lat="44.34115" lon="6.90945">
        <time>2023-04-16T11:40:41+00:00</time>
        <ele>2405.0</ele>
      </trkpt>
      <trkpt lat="44.34115" lon="6.90935">
        <time>2023-04-16T11:40:42+00:00</time>
        <ele>2404.0</ele>
      </trkpt>
      <trkpt lat="44.34115" lon="6.90925">
        <time>2023-04-16T11:40:43+00:00</time>
        <ele>2402.0</ele>
      </trkpt>
      <trkpt lat="44.34117" lon="6.90916">
        <time>2023-04-16T11:40:44+00:00</time>
        <ele>2401.0</ele>
      </trkpt>
      <trkpt lat="44.34119" lon="6.90908">
        <time>2023-04-16T11:40:45+00:00</time>
        <ele>2399.0</ele>
      </trkpt>
      <trkpt lat="44.34123" lon="6.90892">
        <time>2023-04-16T11:40:47+00:00</time>
        <ele>2397.0</ele>
      </trkpt>
      <trkpt lat="44.34127" lon="6.90877">
        <time>2023-04-16T11:40:49+00:00</time>
        <ele>2395.0</ele>
      </trkpt>
      <trkpt lat="44.34133" lon="6.90854">
        <time>2023-04-16T11:40:52+00:00</time>
        <ele>2393.0</ele>
      </trkpt>
      <trkpt lat="44.34139" lon="6.90834">
        <time>2023-04-16T11:40:55+00:00</time>
        <ele>2391.0</ele>
      </trkpt>
      <trkpt lat="44.34143" lon="6.90819">
        <time>2023-04-16T11:40:57+00:00</time>
        <ele>2390.0</ele>
      </trkpt>
      <trkpt lat="44.34147" lon="6.90803">
        <time>2023-04-16T11:40:59+00:00</time>
        <ele>2388.0</ele>
      </trkpt>
      <trkpt lat="44.34152" lon="6.9079">
        <time>2023-04-16T11:41:01+00:00</time>
        <ele>2387.0</ele>
      </trkpt>
      <trkpt lat="44.34155" lon="6.90782">
        <time>2023-04-16T11:41:03+00:00</time>
        <ele>2386.0</ele>
      </trkpt>
      <trkpt lat="44.3416" lon="6.90769">
        <time>2023-04-16T11:41:08+00:00</time>
        <ele>2384.0</ele>
      </trkpt>
      <trkpt lat="44.34165" lon="6.90749">
        <time>2023-04-16T11:41:12+00:00</time>
        <ele>2383.0</ele>
      </trkpt>
      <trkpt lat="44.3417" lon="6.90726">
        <time>2023-04-16T11:41:15+00:00</time>
        <ele>2382.0</ele>
      </trkpt>
      <trkpt lat="44.34173" lon="6.90712">
        <time>2023-04-16T11:41:17+00:00</time>
        <ele>2380.0</ele>
      </trkpt>
      <trkpt lat="44.34178" lon="6.90697">
        <time>2023-04-16T11:41:19+00:00</time>
        <ele>2377.0</ele>
      </trkpt>
      <trkpt lat="44.3418" lon="6.90689">
        <time>2023-04-16T11:41:20+00:00</time>
        <ele>2376.0</ele>
      </trkpt>
      <trkpt lat="44.34183" lon="6.90681">
        <time>2023-04-16T11:41:21+00:00</time>
        <ele>2375.0</ele>
      </trkpt>
      <trkpt lat="44.34189" lon="6.90666">
        <time>2023-04-16T11:41:23+00:00</time>
        <ele>2372.0</ele>
      </trkpt>
      <trkpt lat="44.34195" lon="6.9065">
        <time>2023-04-16T11:41:25+00:00</time>
        <ele>2369.0</ele>
      </trkpt>
      <trkpt lat="44.34198" lon="6.90642">
        <time>2023-04-16T11:41:26+00:00</time>
        <ele>2368.0</ele>
      </trkpt>
      <trkpt lat="44.342" lon="6.90634">
        <time>2023-04-16T11:41:27+00:00</time>
        <ele>2367.0</ele>
      </trkpt>
      <trkpt lat="44.34203" lon="6.90618">
        <time>2023-04-16T11:41:29+00:00</time>
        <ele>2366.0</ele>
      </trkpt>
      <trkpt lat="44.34205" lon="6.9061">
        <time>2023-04-16T11:41:30+00:00</time>
        <ele>2366.0</ele>
      </trkpt>
      <trkpt lat="44.34206" lon="6.90602">
        <time>2023-04-16T11:41:31+00:00</time>
        <ele>2365.0</ele>
      </trkpt>
      <trkpt lat="44.34208" lon="6.90594">
        <time>2023-04-16T11:41:32+00:00</time>
        <ele>2364.0</ele>
      </trkpt>
      <trkpt lat="44.34211" lon="6.90587">
        <time>2023-04-16T11:41:33+00:00</time>
        <ele>2363.0</ele>
      </trkpt>
      <trkpt lat="44.34217" lon="6.90573">
        <time>2023-04-16T11:41:35+00:00</time>
        <ele>2362.0</ele>
      </trkpt>
      <trkpt lat="44.34222" lon="6.90561">
        <time>2023-04-16T11:41:37+00:00</time>
        <ele>2360.0</ele>
      </trkpt>
      <trkpt lat="44.34226" lon="6.90544">
        <time>2023-04-16T11:41:40+00:00</time>
        <ele>2359.0</ele>
      </trkpt>
      <trkpt lat="44.34226" lon="6.9054">
        <time>2023-04-16T11:41:41+00:00</time>
        <ele>2358.0</ele>
      </trkpt>
      <trkpt lat="44.34226" lon="6.90541">
        <time>2023-04-16T11:41:43+00:00</time>
        <ele>2358.0</ele>
      </trkpt>
      <trkpt lat="44.34227" lon="6.90542">
        <time>2023-04-16T11:41:48+00:00</time>
        <ele>2358.0</ele>
      </trkpt>
      <trkpt lat="44.34227" lon="6.90542">
        <time>2023-04-16T11:42:03+00:00</time>
        <ele>2358.0</ele>
      </trkpt>
      <trkpt lat="44.34227" lon="6.90542">
        <time>2023-04-16T11:42:09+00:00</time>
        <ele>2358.0</ele>
      </trkpt>
      <trkpt lat="44.34227" lon="6.90542">
        <time>2023-04-16T11:42:21+00:00</time>
        <ele>2358.0</ele>
      </trkpt>
      <trkpt lat="44.34225" lon="6.90537">
        <time>2023-04-16T11:42:27+00:00</time>
        <ele>2358.0</ele>
      </trkpt>
      <trkpt lat="44.34225" lon="6.90535">
        <time>2023-04-16T11:42:28+00:00</time>
        <ele>2358.0</ele>
      </trkpt>
      <trkpt lat="44.34212" lon="6.90511">
        <time>2023-04-16T11:42:35+00:00</time>
        <ele>2356.0</ele>
      </trkpt>
      <trkpt lat="44.34206" lon="6.90508">
        <time>2023-04-16T11:42:37+00:00</time>
        <ele>2355.0</ele>
      </trkpt>
      <trkpt lat="44.34198" lon="6.90504">
        <time>2023-04-16T11:42:39+00:00</time>
        <ele>2353.0</ele>
      </trkpt>
      <trkpt lat="44.34194" lon="6.905">
        <time>2023-04-16T11:42:40+00:00</time>
        <ele>2352.0</ele>
      </trkpt>
      <trkpt lat="44.34192" lon="6.90493">
        <time>2023-04-16T11:42:41+00:00</time>
        <ele>2350.0</ele>
      </trkpt>
      <trkpt lat="44.34189" lon="6.90486">
        <time>2023-04-16T11:42:42+00:00</time>
        <ele>2349.0</ele>
      </trkpt>
      <trkpt lat="44.34186" lon="6.90478">
        <time>2023-04-16T11:42:43+00:00</time>
        <ele>2347.0</ele>
      </trkpt>
      <trkpt lat="44.34182" lon="6.9047">
        <time>2023-04-16T11:42:44+00:00</time>
        <ele>2344.0</ele>
      </trkpt>
      <trkpt lat="44.34179" lon="6.90459">
        <time>2023-04-16T11:42:45+00:00</time>
        <ele>2341.0</ele>
      </trkpt>
      <trkpt lat="44.34181" lon="6.90448">
        <time>2023-04-16T11:42:46+00:00</time>
        <ele>2338.0</ele>
      </trkpt>
      <trkpt lat="44.34185" lon="6.90437">
        <time>2023-04-16T11:42:47+00:00</time>
        <ele>2335.0</ele>
      </trkpt>
      <trkpt lat="44.3419" lon="6.90427">
        <time>2023-04-16T11:42:48+00:00</time>
        <ele>2334.0</ele>
      </trkpt>
      <trkpt lat="44.34193" lon="6.90418">
        <time>2023-04-16T11:42:49+00:00</time>
        <ele>2333.0</ele>
      </trkpt>
      <trkpt lat="44.34196" lon="6.90408">
        <time>2023-04-16T11:42:50+00:00</time>
        <ele>2332.0</ele>
      </trkpt>
      <trkpt lat="44.34197" lon="6.90399">
        <time>2023-04-16T11:42:51+00:00</time>
        <ele>2331.0</ele>
      </trkpt>
      <trkpt lat="44.34198" lon="6.90389">
        <time>2023-04-16T11:42:52+00:00</time>
        <ele>2329.0</ele>
      </trkpt>
      <trkpt lat="44.34199" lon="6.9038">
        <time>2023-04-16T11:42:53+00:00</time>
        <ele>2328.0</ele>
      </trkpt>
      <trkpt lat="44.34199" lon="6.90371">
        <time>2023-04-16T11:42:54+00:00</time>
        <ele>2326.0</ele>
      </trkpt>
      <trkpt lat="44.34199" lon="6.90363">
        <time>2023-04-16T11:42:55+00:00</time>
        <ele>2325.0</ele>
      </trkpt>
      <trkpt lat="44.342" lon="6.90355">
        <time>2023-04-16T11:42:56+00:00</time>
        <ele>2324.0</ele>
      </trkpt>
      <trkpt lat="44.342" lon="6.90348">
        <time>2023-04-16T11:42:57+00:00</time>
        <ele>2323.0</ele>
      </trkpt>
      <trkpt lat="44.342" lon="6.90341">
        <time>2023-04-16T11:42:58+00:00</time>
        <ele>2322.0</ele>
      </trkpt>
      <trkpt lat="44.342" lon="6.90328">
        <time>2023-04-16T11:43:00+00:00</time>
        <ele>2320.0</ele>
      </trkpt>
      <trkpt lat="44.34199" lon="6.90321">
        <time>2023-04-16T11:43:01+00:00</time>
        <ele>2319.0</ele>
      </trkpt>
      <trkpt lat="44.34198" lon="6.90315">
        <time>2023-04-16T11:43:02+00:00</time>
        <ele>2318.0</ele>
      </trkpt>
      <trkpt lat="44.34197" lon="6.90306">
        <time>2023-04-16T11:43:04+00:00</time>
        <ele>2317.0</ele>
      </trkpt>
      <trkpt lat="44.34196" lon="6.90299">
        <time>2023-04-16T11:43:06+00:00</time>
        <ele>2317.0</ele>
      </trkpt>
      <trkpt lat="44.34194" lon="6.90292">
        <time>2023-04-16T11:43:11+00:00</time>
        <ele>2316.0</ele>
      </trkpt>
      <trkpt lat="44.34194" lon="6.90288">
        <time>2023-04-16T11:43:14+00:00</time>
        <ele>2316.0</ele>
      </trkpt>
      <trkpt lat="44.3419" lon="6.90274">
        <time>2023-04-16T11:43:22+00:00</time>
        <ele>2314.0</ele>
      </trkpt>
      <trkpt lat="44.34189" lon="6.9027">
        <time>2023-04-16T11:43:24+00:00</time>
        <ele>2314.0</ele>
      </trkpt>
      <trkpt lat="44.34189" lon="6.90268">
        <time>2023-04-16T11:43:25+00:00</time>
        <ele>2314.0</ele>
      </trkpt>
      <trkpt lat="44.34187" lon="6.90263">
        <time>2023-04-16T11:43:27+00:00</time>
        <ele>2314.0</ele>
      </trkpt>
      <trkpt lat="44.34185" lon="6.90249">
        <time>2023-04-16T11:43:34+00:00</time>
        <ele>2314.0</ele>
      </trkpt>
      <trkpt lat="44.34186" lon="6.90246">
        <time>2023-04-16T11:43:37+00:00</time>
        <ele>2314.0</ele>
      </trkpt>
      <trkpt lat="44.34186" lon="6.90244">
        <time>2023-04-16T11:43:38+00:00</time>
        <ele>2314.0</ele>
      </trkpt>
      <trkpt lat="44.34186" lon="6.90242">
        <time>2023-04-16T11:43:39+00:00</time>
        <ele>2314.0</ele>
      </trkpt>
      <trkpt lat="44.34186" lon="6.90239">
        <time>2023-04-16T11:43:41+00:00</time>
        <ele>2314.0</ele>
      </trkpt>
      <trkpt lat="44.34186" lon="6.9023">
        <time>2023-04-16T11:43:45+00:00</time>
        <ele>2313.0</ele>
      </trkpt>
      <trkpt lat="44.34184" lon="6.90207">
        <time>2023-04-16T11:43:56+00:00</time>
        <ele>2313.0</ele>
      </trkpt>
      <trkpt lat="44.34185" lon="6.902">
        <time>2023-04-16T11:44:01+00:00</time>
        <ele>2313.0</ele>
      </trkpt>
      <trkpt lat="44.34185" lon="6.90186">
        <time>2023-04-16T11:44:08+00:00</time>
        <ele>2313.0</ele>
      </trkpt>
      <trkpt lat="44.34186" lon="6.90184">
        <time>2023-04-16T11:44:09+00:00</time>
        <ele>2313.0</ele>
      </trkpt>
      <trkpt lat="44.34195" lon="6.9015">
        <time>2023-04-16T11:44:23+00:00</time>
        <ele>2312.0</ele>
      </trkpt>
      <trkpt lat="44.34196" lon="6.90128">
        <time>2023-04-16T11:44:28+00:00</time>
        <ele>2312.0</ele>
      </trkpt>
      <trkpt lat="44.34197" lon="6.90107">
        <time>2023-04-16T11:44:32+00:00</time>
        <ele>2311.0</ele>
      </trkpt>
      <trkpt lat="44.34196" lon="6.90092">
        <time>2023-04-16T11:44:35+00:00</time>
        <ele>2310.0</ele>
      </trkpt>
      <trkpt lat="44.34194" lon="6.90069">
        <time>2023-04-16T11:44:39+00:00</time>
        <ele>2308.0</ele>
      </trkpt>
      <trkpt lat="44.34189" lon="6.90047">
        <time>2023-04-16T11:44:42+00:00</time>
        <ele>2306.0</ele>
      </trkpt>
      <trkpt lat="44.34186" lon="6.9003">
        <time>2023-04-16T11:44:44+00:00</time>
        <ele>2304.0</ele>
      </trkpt>
      <trkpt lat="44.34184" lon="6.90014">
        <time>2023-04-16T11:44:46+00:00</time>
        <ele>2303.0</ele>
      </trkpt>
      <trkpt lat="44.34184" lon="6.90006">
        <time>2023-04-16T11:44:47+00:00</time>
        <ele>2302.0</ele>
      </trkpt>
      <trkpt lat="44.34185" lon="6.89997">
        <time>2023-04-16T11:44:48+00:00</time>
        <ele>2301.0</ele>
      </trkpt>
      <trkpt lat="44.34186" lon="6.89988">
        <time>2023-04-16T11:44:49+00:00</time>
        <ele>2300.0</ele>
      </trkpt>
      <trkpt lat="44.34187" lon="6.8998">
        <time>2023-04-16T11:44:50+00:00</time>
        <ele>2299.0</ele>
      </trkpt>
      <trkpt lat="44.34189" lon="6.89971">
        <time>2023-04-16T11:44:51+00:00</time>
        <ele>2298.0</ele>
      </trkpt>
      <trkpt lat="44.34191" lon="6.89963">
        <time>2023-04-16T11:44:52+00:00</time>
        <ele>2297.0</ele>
      </trkpt>
      <trkpt lat="44.34196" lon="6.89945">
        <time>2023-04-16T11:44:54+00:00</time>
        <ele>2294.0</ele>
      </trkpt>
      <trkpt lat="44.34198" lon="6.89936">
        <time>2023-04-16T11:44:55+00:00</time>
        <ele>2293.0</ele>
      </trkpt>
      <trkpt lat="44.342" lon="6.89927">
        <time>2023-04-16T11:44:56+00:00</time>
        <ele>2292.0</ele>
      </trkpt>
      <trkpt lat="44.342" lon="6.89918">
        <time>2023-04-16T11:44:57+00:00</time>
        <ele>2291.0</ele>
      </trkpt>
      <trkpt lat="44.34202" lon="6.8991">
        <time>2023-04-16T11:44:58+00:00</time>
        <ele>2290.0</ele>
      </trkpt>
      <trkpt lat="44.34203" lon="6.89901">
        <time>2023-04-16T11:44:59+00:00</time>
        <ele>2289.0</ele>
      </trkpt>
      <trkpt lat="44.34205" lon="6.89886">
        <time>2023-04-16T11:45:01+00:00</time>
        <ele>2287.0</ele>
      </trkpt>
      <trkpt lat="44.34207" lon="6.89872">
        <time>2023-04-16T11:45:03+00:00</time>
        <ele>2285.0</ele>
      </trkpt>
      <trkpt lat="44.34211" lon="6.89859">
        <time>2023-04-16T11:45:05+00:00</time>
        <ele>2284.0</ele>
      </trkpt>
      <trkpt lat="44.34217" lon="6.89848">
        <time>2023-04-16T11:45:07+00:00</time>
        <ele>2282.0</ele>
      </trkpt>
      <trkpt lat="44.34218" lon="6.89834">
        <time>2023-04-16T11:45:09+00:00</time>
        <ele>2281.0</ele>
      </trkpt>
      <trkpt lat="44.34219" lon="6.89818">
        <time>2023-04-16T11:45:11+00:00</time>
        <ele>2279.0</ele>
      </trkpt>
      <trkpt lat="44.34228" lon="6.89802">
        <time>2023-04-16T11:45:13+00:00</time>
        <ele>2277.0</ele>
      </trkpt>
      <trkpt lat="44.3423" lon="6.89782">
        <time>2023-04-16T11:45:15+00:00</time>
        <ele>2275.0</ele>
      </trkpt>
      <trkpt lat="44.34229" lon="6.89772">
        <time>2023-04-16T11:45:16+00:00</time>
        <ele>2274.0</ele>
      </trkpt>
      <trkpt lat="44.3423" lon="6.89761">
        <time>2023-04-16T11:45:17+00:00</time>
        <ele>2272.0</ele>
      </trkpt>
      <trkpt lat="44.3423" lon="6.8975">
        <time>2023-04-16T11:45:18+00:00</time>
        <ele>2271.0</ele>
      </trkpt>
      <trkpt lat="44.3423" lon="6.89738">
        <time>2023-04-16T11:45:19+00:00</time>
        <ele>2270.0</ele>
      </trkpt>
      <trkpt lat="44.3423" lon="6.89726">
        <time>2023-04-16T11:45:20+00:00</time>
        <ele>2269.0</ele>
      </trkpt>
      <trkpt lat="44.34232" lon="6.89715">
        <time>2023-04-16T11:45:21+00:00</time>
        <ele>2268.0</ele>
      </trkpt>
      <trkpt lat="44.34233" lon="6.89704">
        <time>2023-04-16T11:45:22+00:00</time>
        <ele>2267.0</ele>
      </trkpt>
      <trkpt lat="44.34232" lon="6.89692">
        <time>2023-04-16T11:45:23+00:00</time>
        <ele>2266.0</ele>
      </trkpt>
      <trkpt lat="44.3423" lon="6.89667">
        <time>2023-04-16T11:45:25+00:00</time>
        <ele>2264.0</ele>
      </trkpt>
      <trkpt lat="44.3423" lon="6.89647">
        <time>2023-04-16T11:45:27+00:00</time>
        <ele>2263.0</ele>
      </trkpt>
      <trkpt lat="44.34231" lon="6.89639">
        <time>2023-04-16T11:45:28+00:00</time>
        <ele>2263.0</ele>
      </trkpt>
      <trkpt lat="44.3423" lon="6.89632">
        <time>2023-04-16T11:45:29+00:00</time>
        <ele>2263.0</ele>
      </trkpt>
      <trkpt lat="44.34229" lon="6.89626">
        <time>2023-04-16T11:45:30+00:00</time>
        <ele>2263.0</ele>
      </trkpt>
      <trkpt lat="44.34226" lon="6.89614">
        <time>2023-04-16T11:45:33+00:00</time>
        <ele>2264.0</ele>
      </trkpt>
      <trkpt lat="44.34227" lon="6.89612">
        <time>2023-04-16T11:45:34+00:00</time>
        <ele>2263.0</ele>
      </trkpt>
      <trkpt lat="44.34228" lon="6.89614">
        <time>2023-04-16T11:45:37+00:00</time>
        <ele>2263.0</ele>
      </trkpt>
      <trkpt lat="44.34228" lon="6.89615">
        <time>2023-04-16T11:45:38+00:00</time>
        <ele>2263.0</ele>
      </trkpt>
      <trkpt lat="44.34228" lon="6.89614">
        <time>2023-04-16T11:45:42+00:00</time>
        <ele>2263.0</ele>
      </trkpt>
      <trkpt lat="44.34228" lon="6.89614">
        <time>2023-04-16T11:45:47+00:00</time>
        <ele>2263.0</ele>
      </trkpt>
      <trkpt lat="44.3424" lon="6.89605">
        <time>2023-04-16T11:45:54+00:00</time>
        <ele>2260.0</ele>
      </trkpt>
      <trkpt lat="44.34242" lon="6.89597">
        <time>2023-04-16T11:45:55+00:00</time>
        <ele>2259.0</ele>
      </trkpt>
      <trkpt lat="44.34243" lon="6.89589">
        <time>2023-04-16T11:45:56+00:00</time>
        <ele>2258.0</ele>
      </trkpt>
      <trkpt lat="44.34244" lon="6.8958">
        <time>2023-04-16T11:45:57+00:00</time>
        <ele>2257.0</ele>
      </trkpt>
      <trkpt lat="44.34246" lon="6.8957">
        <time>2023-04-16T11:45:58+00:00</time>
        <ele>2256.0</ele>
      </trkpt>
      <trkpt lat="44.34247" lon="6.8956">
        <time>2023-04-16T11:45:59+00:00</time>
        <ele>2254.0</ele>
      </trkpt>
      <trkpt lat="44.34246" lon="6.89551">
        <time>2023-04-16T11:46:00+00:00</time>
        <ele>2253.0</ele>
      </trkpt>
      <trkpt lat="44.34245" lon="6.89542">
        <time>2023-04-16T11:46:01+00:00</time>
        <ele>2252.0</ele>
      </trkpt>
      <trkpt lat="44.34246" lon="6.89533">
        <time>2023-04-16T11:46:02+00:00</time>
        <ele>2251.0</ele>
      </trkpt>
      <trkpt lat="44.34247" lon="6.89524">
        <time>2023-04-16T11:46:03+00:00</time>
        <ele>2249.0</ele>
      </trkpt>
      <trkpt lat="44.34248" lon="6.89516">
        <time>2023-04-16T11:46:04+00:00</time>
        <ele>2248.0</ele>
      </trkpt>
      <trkpt lat="44.3425" lon="6.89508">
        <time>2023-04-16T11:46:05+00:00</time>
        <ele>2246.0</ele>
      </trkpt>
      <trkpt lat="44.34252" lon="6.895">
        <time>2023-04-16T11:46:06+00:00</time>
        <ele>2245.0</ele>
      </trkpt>
      <trkpt lat="44.34254" lon="6.89492">
        <time>2023-04-16T11:46:07+00:00</time>
        <ele>2244.0</ele>
      </trkpt>
      <trkpt lat="44.34256" lon="6.89484">
        <time>2023-04-16T11:46:08+00:00</time>
        <ele>2242.0</ele>
      </trkpt>
      <trkpt lat="44.34256" lon="6.89477">
        <time>2023-04-16T11:46:09+00:00</time>
        <ele>2242.0</ele>
      </trkpt>
      <trkpt lat="44.34258" lon="6.89471">
        <time>2023-04-16T11:46:10+00:00</time>
        <ele>2241.0</ele>
      </trkpt>
      <trkpt lat="44.34258" lon="6.89467">
        <time>2023-04-16T11:46:11+00:00</time>
        <ele>2240.0</ele>
      </trkpt>
      <trkpt lat="44.34258" lon="6.89464">
        <time>2023-04-16T11:46:12+00:00</time>
        <ele>2239.0</ele>
      </trkpt>
      <trkpt lat="44.34257" lon="6.89459">
        <time>2023-04-16T11:46:14+00:00</time>
        <ele>2239.0</ele>
      </trkpt>
      <trkpt lat="44.34256" lon="6.89447">
        <time>2023-04-16T11:46:17+00:00</time>
        <ele>2237.0</ele>
      </trkpt>
      <trkpt lat="44.34255" lon="6.89436">
        <time>2023-04-16T11:46:19+00:00</time>
        <ele>2235.0</ele>
      </trkpt>
      <trkpt lat="44.34255" lon="6.89429">
        <time>2023-04-16T11:46:20+00:00</time>
        <ele>2234.0</ele>
      </trkpt>
      <trkpt lat="44.34256" lon="6.89425">
        <time>2023-04-16T11:46:21+00:00</time>
        <ele>2233.0</ele>
      </trkpt>
      <trkpt lat="44.3426" lon="6.89421">
        <time>2023-04-16T11:46:22+00:00</time>
        <ele>2231.0</ele>
      </trkpt>
      <trkpt lat="44.34263" lon="6.89418">
        <time>2023-04-16T11:46:23+00:00</time>
        <ele>2230.0</ele>
      </trkpt>
      <trkpt lat="44.34266" lon="6.89412">
        <time>2023-04-16T11:46:24+00:00</time>
        <ele>2228.0</ele>
      </trkpt>
      <trkpt lat="44.34266" lon="6.89404">
        <time>2023-04-16T11:46:25+00:00</time>
        <ele>2225.0</ele>
      </trkpt>
      <trkpt lat="44.34265" lon="6.89396">
        <time>2023-04-16T11:46:26+00:00</time>
        <ele>2223.0</ele>
      </trkpt>
      <trkpt lat="44.34266" lon="6.89388">
        <time>2023-04-16T11:46:27+00:00</time>
        <ele>2220.0</ele>
      </trkpt>
      <trkpt lat="44.34267" lon="6.89381">
        <time>2023-04-16T11:46:28+00:00</time>
        <ele>2217.0</ele>
      </trkpt>
      <trkpt lat="44.34265" lon="6.89374">
        <time>2023-04-16T11:46:29+00:00</time>
        <ele>2214.0</ele>
      </trkpt>
      <trkpt lat="44.34261" lon="6.89368">
        <time>2023-04-16T11:46:30+00:00</time>
        <ele>2212.0</ele>
      </trkpt>
      <trkpt lat="44.34256" lon="6.89363">
        <time>2023-04-16T11:46:31+00:00</time>
        <ele>2210.0</ele>
      </trkpt>
      <trkpt lat="44.3425" lon="6.8936">
        <time>2023-04-16T11:46:32+00:00</time>
        <ele>2210.0</ele>
      </trkpt>
      <trkpt lat="44.34245" lon="6.89356">
        <time>2023-04-16T11:46:33+00:00</time>
        <ele>2208.0</ele>
      </trkpt>
      <trkpt lat="44.34243" lon="6.8935">
        <time>2023-04-16T11:46:34+00:00</time>
        <ele>2205.0</ele>
      </trkpt>
      <trkpt lat="44.34244" lon="6.89342">
        <time>2023-04-16T11:46:35+00:00</time>
        <ele>2201.0</ele>
      </trkpt>
      <trkpt lat="44.34249" lon="6.89334">
        <time>2023-04-16T11:46:36+00:00</time>
        <ele>2198.0</ele>
      </trkpt>
      <trkpt lat="44.34252" lon="6.89324">
        <time>2023-04-16T11:46:37+00:00</time>
        <ele>2194.0</ele>
      </trkpt>
      <trkpt lat="44.34251" lon="6.89314">
        <time>2023-04-16T11:46:38+00:00</time>
        <ele>2191.0</ele>
      </trkpt>
      <trkpt lat="44.34245" lon="6.89305">
        <time>2023-04-16T11:46:39+00:00</time>
        <ele>2189.0</ele>
      </trkpt>
      <trkpt lat="44.34238" lon="6.89301">
        <time>2023-04-16T11:46:40+00:00</time>
        <ele>2187.0</ele>
      </trkpt>
      <trkpt lat="44.3423" lon="6.89299">
        <time>2023-04-16T11:46:41+00:00</time>
        <ele>2187.0</ele>
      </trkpt>
      <trkpt lat="44.34223" lon="6.89299">
        <time>2023-04-16T11:46:42+00:00</time>
        <ele>2187.0</ele>
      </trkpt>
      <trkpt lat="44.34215" lon="6.89299">
        <time>2023-04-16T11:46:43+00:00</time>
        <ele>2186.0</ele>
      </trkpt>
      <trkpt lat="44.34208" lon="6.89301">
        <time>2023-04-16T11:46:44+00:00</time>
        <ele>2186.0</ele>
      </trkpt>
      <trkpt lat="44.34201" lon="6.893">
        <time>2023-04-16T11:46:45+00:00</time>
        <ele>2185.0</ele>
      </trkpt>
      <trkpt lat="44.34189" lon="6.89298">
        <time>2023-04-16T11:46:47+00:00</time>
        <ele>2183.0</ele>
      </trkpt>
      <trkpt lat="44.34179" lon="6.89296">
        <time>2023-04-16T11:46:49+00:00</time>
        <ele>2182.0</ele>
      </trkpt>
      <trkpt lat="44.34174" lon="6.89295">
        <time>2023-04-16T11:46:50+00:00</time>
        <ele>2181.0</ele>
      </trkpt>
      <trkpt lat="44.34169" lon="6.89294">
        <time>2023-04-16T11:46:51+00:00</time>
        <ele>2181.0</ele>
      </trkpt>
      <trkpt lat="44.3416" lon="6.89291">
        <time>2023-04-16T11:46:53+00:00</time>
        <ele>2179.0</ele>
      </trkpt>
      <trkpt lat="44.34149" lon="6.89291">
        <time>2023-04-16T11:46:56+00:00</time>
        <ele>2179.0</ele>
      </trkpt>
      <trkpt lat="44.34138" lon="6.89289">
        <time>2023-04-16T11:46:59+00:00</time>
        <ele>2178.0</ele>
      </trkpt>
      <trkpt lat="44.34134" lon="6.89289">
        <time>2023-04-16T11:47:01+00:00</time>
        <ele>2178.0</ele>
      </trkpt>
      <trkpt lat="44.3413" lon="6.89288">
        <time>2023-04-16T11:47:03+00:00</time>
        <ele>2177.0</ele>
      </trkpt>
      <trkpt lat="44.34128" lon="6.89288">
        <time>2023-04-16T11:47:05+00:00</time>
        <ele>2177.0</ele>
      </trkpt>
      <trkpt lat="44.34123" lon="6.89289">
        <time>2023-04-16T11:47:10+00:00</time>
        <ele>2178.0</ele>
      </trkpt>
      <trkpt lat="44.34115" lon="6.8929">
        <time>2023-04-16T11:47:19+00:00</time>
        <ele>2178.0</ele>
      </trkpt>
      <trkpt lat="44.34114" lon="6.8929">
        <time>2023-04-16T11:47:20+00:00</time>
        <ele>2178.0</ele>
      </trkpt>
      <trkpt lat="44.34113" lon="6.8929">
        <time>2023-04-16T11:47:21+00:00</time>
        <ele>2178.0</ele>
      </trkpt>
      <trkpt lat="44.34112" lon="6.89289">
        <time>2023-04-16T11:47:26+00:00</time>
        <ele>2178.0</ele>
      </trkpt>
      <trkpt lat="44.34112" lon="6.89289">
        <time>2023-04-16T11:47:30+00:00</time>
        <ele>2178.0</ele>
      </trkpt>
      <trkpt lat="44.34111" lon="6.89288">
        <time>2023-04-16T11:47:35+00:00</time>
        <ele>2178.0</ele>
      </trkpt>
      <trkpt lat="44.34105" lon="6.89281">
        <time>2023-04-16T11:47:49+00:00</time>
        <ele>2178.0</ele>
      </trkpt>
      <trkpt lat="44.341" lon="6.89274">
        <time>2023-04-16T11:47:53+00:00</time>
        <ele>2178.0</ele>
      </trkpt>
      <trkpt lat="44.34083" lon="6.89255">
        <time>2023-04-16T11:48:02+00:00</time>
        <ele>2176.0</ele>
      </trkpt>
      <trkpt lat="44.34063" lon="6.89242">
        <time>2023-04-16T11:48:09+00:00</time>
        <ele>2177.0</ele>
      </trkpt>
      <trkpt lat="44.34058" lon="6.89237">
        <time>2023-04-16T11:48:11+00:00</time>
        <ele>2176.0</ele>
      </trkpt>
      <trkpt lat="44.34056" lon="6.89235">
        <time>2023-04-16T11:48:12+00:00</time>
        <ele>2176.0</ele>
      </trkpt>
      <trkpt lat="44.34054" lon="6.89233">
        <time>2023-04-16T11:48:13+00:00</time>
        <ele>2176.0</ele>
      </trkpt>
      <trkpt lat="44.34049" lon="6.89229">
        <time>2023-04-16T11:48:15+00:00</time>
        <ele>2176.0</ele>
      </trkpt>
      <trkpt lat="44.34045" lon="6.89226">
        <time>2023-04-16T11:48:17+00:00</time>
        <ele>2176.0</ele>
      </trkpt>
      <trkpt lat="44.34031" lon="6.89207">
        <time>2023-04-16T11:48:24+00:00</time>
        <ele>2173.0</ele>
      </trkpt>
      <trkpt lat="44.34016" lon="6.89185">
        <time>2023-04-16T11:48:30+00:00</time>
        <ele>2169.0</ele>
      </trkpt>
      <trkpt lat="44.34001" lon="6.89169">
        <time>2023-04-16T11:48:34+00:00</time>
        <ele>2166.0</ele>
      </trkpt>
      <trkpt lat="44.33985" lon="6.89162">
        <time>2023-04-16T11:48:37+00:00</time>
        <ele>2164.0</ele>
      </trkpt>
      <trkpt lat="44.33971" lon="6.89159">
        <time>2023-04-16T11:48:39+00:00</time>
        <ele>2163.0</ele>
      </trkpt>
      <trkpt lat="44.33966" lon="6.89154">
        <time>2023-04-16T11:48:40+00:00</time>
        <ele>2164.0</ele>
      </trkpt>
      <trkpt lat="44.33962" lon="6.89147">
        <time>2023-04-16T11:48:41+00:00</time>
        <ele>2164.0</ele>
      </trkpt>
      <trkpt lat="44.3396" lon="6.89139">
        <time>2023-04-16T11:48:42+00:00</time>
        <ele>2164.0</ele>
      </trkpt>
      <trkpt lat="44.33959" lon="6.89132">
        <time>2023-04-16T11:48:43+00:00</time>
        <ele>2164.0</ele>
      </trkpt>
      <trkpt lat="44.33958" lon="6.89126">
        <time>2023-04-16T11:48:44+00:00</time>
        <ele>2164.0</ele>
      </trkpt>
      <trkpt lat="44.33957" lon="6.89115">
        <time>2023-04-16T11:48:46+00:00</time>
        <ele>2163.0</ele>
      </trkpt>
      <trkpt lat="44.33956" lon="6.8911">
        <time>2023-04-16T11:48:47+00:00</time>
        <ele>2163.0</ele>
      </trkpt>
      <trkpt lat="44.33953" lon="6.891">
        <time>2023-04-16T11:48:49+00:00</time>
        <ele>2162.0</ele>
      </trkpt>
      <trkpt lat="44.33945" lon="6.89089">
        <time>2023-04-16T11:48:52+00:00</time>
        <ele>2161.0</ele>
      </trkpt>
      <trkpt lat="44.33933" lon="6.89071">
        <time>2023-04-16T11:48:57+00:00</time>
        <ele>2157.0</ele>
      </trkpt>
      <trkpt lat="44.33919" lon="6.89056">
        <time>2023-04-16T11:49:02+00:00</time>
        <ele>2156.0</ele>
      </trkpt>
      <trkpt lat="44.33906" lon="6.89047">
        <time>2023-04-16T11:49:06+00:00</time>
        <ele>2156.0</ele>
      </trkpt>
      <trkpt lat="44.33895" lon="6.8904">
        <time>2023-04-16T11:49:09+00:00</time>
        <ele>2157.0</ele>
      </trkpt>
      <trkpt lat="44.33889" lon="6.89032">
        <time>2023-04-16T11:49:11+00:00</time>
        <ele>2158.0</ele>
      </trkpt>
      <trkpt lat="44.33879" lon="6.89018">
        <time>2023-04-16T11:49:15+00:00</time>
        <ele>2157.0</ele>
      </trkpt>
      <trkpt lat="44.33868" lon="6.88992">
        <time>2023-04-16T11:49:23+00:00</time>
        <ele>2155.0</ele>
      </trkpt>
      <trkpt lat="44.33868" lon="6.8899">
        <time>2023-04-16T11:49:26+00:00</time>
        <ele>2155.0</ele>
      </trkpt>
      <trkpt lat="44.33867" lon="6.8897">
        <time>2023-04-16T11:49:42+00:00</time>
        <ele>2153.0</ele>
      </trkpt>
      <trkpt lat="44.33867" lon="6.88967">
        <time>2023-04-16T11:49:43+00:00</time>
        <ele>2153.0</ele>
      </trkpt>
      <trkpt lat="44.33863" lon="6.88937">
        <time>2023-04-16T11:49:54+00:00</time>
        <ele>2152.0</ele>
      </trkpt>
      <trkpt lat="44.3386" lon="6.88914">
        <time>2023-04-16T11:50:01+00:00</time>
        <ele>2153.0</ele>
      </trkpt>
      <trkpt lat="44.33859" lon="6.8891">
        <time>2023-04-16T11:50:02+00:00</time>
        <ele>2153.0</ele>
      </trkpt>
      <trkpt lat="44.33857" lon="6.88895">
        <time>2023-04-16T11:50:09+00:00</time>
        <ele>2152.0</ele>
      </trkpt>
      <trkpt lat="44.33858" lon="6.88894">
        <time>2023-04-16T11:50:10+00:00</time>
        <ele>2152.0</ele>
      </trkpt>
      <trkpt lat="44.33858" lon="6.88889">
        <time>2023-04-16T11:50:12+00:00</time>
        <ele>2151.0</ele>
      </trkpt>
      <trkpt lat="44.33865" lon="6.88858">
        <time>2023-04-16T11:50:20+00:00</time>
        <ele>2148.0</ele>
      </trkpt>
      <trkpt lat="44.33869" lon="6.88846">
        <time>2023-04-16T11:50:22+00:00</time>
        <ele>2147.0</ele>
      </trkpt>
      <trkpt lat="44.33876" lon="6.88831">
        <time>2023-04-16T11:50:24+00:00</time>
        <ele>2145.0</ele>
      </trkpt>
      <trkpt lat="44.33884" lon="6.88825">
        <time>2023-04-16T11:50:26+00:00</time>
        <ele>2145.0</ele>
      </trkpt>
      <trkpt lat="44.33891" lon="6.88822">
        <time>2023-04-16T11:50:28+00:00</time>
        <ele>2144.0</ele>
      </trkpt>
      <trkpt lat="44.33896" lon="6.88816">
        <time>2023-04-16T11:50:31+00:00</time>
        <ele>2144.0</ele>
      </trkpt>
      <trkpt lat="44.33899" lon="6.88786">
        <time>2023-04-16T11:50:38+00:00</time>
        <ele>2142.0</ele>
      </trkpt>
      <trkpt lat="44.33901" lon="6.8877">
        <time>2023-04-16T11:50:42+00:00</time>
        <ele>2142.0</ele>
      </trkpt>
      <trkpt lat="44.33905" lon="6.88751">
        <time>2023-04-16T11:50:45+00:00</time>
        <ele>2141.0</ele>
      </trkpt>
      <trkpt lat="44.33907" lon="6.88746">
        <time>2023-04-16T11:50:46+00:00</time>
        <ele>2140.0</ele>
      </trkpt>
      <trkpt lat="44.33911" lon="6.88734">
        <time>2023-04-16T11:50:50+00:00</time>
        <ele>2139.0</ele>
      </trkpt>
      <trkpt lat="44.33914" lon="6.88706">
        <time>2023-04-16T11:50:55+00:00</time>
        <ele>2137.0</ele>
      </trkpt>
      <trkpt lat="44.33912" lon="6.8869">
        <time>2023-04-16T11:50:57+00:00</time>
        <ele>2136.0</ele>
      </trkpt>
      <trkpt lat="44.33912" lon="6.88681">
        <time>2023-04-16T11:50:59+00:00</time>
        <ele>2136.0</ele>
      </trkpt>
      <trkpt lat="44.33917" lon="6.88642">
        <time>2023-04-16T11:51:08+00:00</time>
        <ele>2134.0</ele>
      </trkpt>
      <trkpt lat="44.33918" lon="6.88623">
        <time>2023-04-16T11:51:12+00:00</time>
        <ele>2134.0</ele>
      </trkpt>
      <trkpt lat="44.3392" lon="6.88594">
        <time>2023-04-16T11:51:17+00:00</time>
        <ele>2134.0</ele>
      </trkpt>
      <trkpt lat="44.33922" lon="6.88575">
        <time>2023-04-16T11:51:21+00:00</time>
        <ele>2132.0</ele>
      </trkpt>
      <trkpt lat="44.33919" lon="6.88539">
        <time>2023-04-16T11:51:29+00:00</time>
        <ele>2132.0</ele>
      </trkpt>
      <trkpt lat="44.33917" lon="6.88519">
        <time>2023-04-16T11:51:33+00:00</time>
        <ele>2131.0</ele>
      </trkpt>
      <trkpt lat="44.33918" lon="6.88502">
        <time>2023-04-16T11:51:37+00:00</time>
        <ele>2128.0</ele>
      </trkpt>
      <trkpt lat="44.33919" lon="6.88501">
        <time>2023-04-16T11:51:39+00:00</time>
        <ele>2127.0</ele>
      </trkpt>
      <trkpt lat="44.33919" lon="6.88502">
        <time>2023-04-16T11:51:41+00:00</time>
        <ele>2128.0</ele>
      </trkpt>
      <trkpt lat="44.33919" lon="6.88502">
        <time>2023-04-16T11:51:51+00:00</time>
        <ele>2128.0</ele>
      </trkpt>
      <trkpt lat="44.33919" lon="6.88502">
        <time>2023-04-16T11:51:53+00:00</time>
        <ele>2128.0</ele>
      </trkpt>
      <trkpt lat="44.33928" lon="6.88488">
        <time>2023-04-16T11:52:08+00:00</time>
        <ele>2123.0</ele>
      </trkpt>
      <trkpt lat="44.3393" lon="6.88483">
        <time>2023-04-16T11:52:09+00:00</time>
        <ele>2122.0</ele>
      </trkpt>
      <trkpt lat="44.33932" lon="6.88477">
        <time>2023-04-16T11:52:10+00:00</time>
        <ele>2121.0</ele>
      </trkpt>
      <trkpt lat="44.33935" lon="6.8847">
        <time>2023-04-16T11:52:11+00:00</time>
        <ele>2118.0</ele>
      </trkpt>
      <trkpt lat="44.33938" lon="6.88463">
        <time>2023-04-16T11:52:12+00:00</time>
        <ele>2116.0</ele>
      </trkpt>
      <trkpt lat="44.33939" lon="6.88457">
        <time>2023-04-16T11:52:13+00:00</time>
        <ele>2115.0</ele>
      </trkpt>
      <trkpt lat="44.33942" lon="6.8845">
        <time>2023-04-16T11:52:14+00:00</time>
        <ele>2113.0</ele>
      </trkpt>
      <trkpt lat="44.33945" lon="6.88442">
        <time>2023-04-16T11:52:15+00:00</time>
        <ele>2111.0</ele>
      </trkpt>
      <trkpt lat="44.33945" lon="6.88433">
        <time>2023-04-16T11:52:16+00:00</time>
        <ele>2110.0</ele>
      </trkpt>
      <trkpt lat="44.33946" lon="6.88425">
        <time>2023-04-16T11:52:17+00:00</time>
        <ele>2109.0</ele>
      </trkpt>
      <trkpt lat="44.33951" lon="6.88421">
        <time>2023-04-16T11:52:18+00:00</time>
        <ele>2107.0</ele>
      </trkpt>
      <trkpt lat="44.33956" lon="6.88417">
        <time>2023-04-16T11:52:19+00:00</time>
        <ele>2105.0</ele>
      </trkpt>
      <trkpt lat="44.3396" lon="6.88411">
        <time>2023-04-16T11:52:20+00:00</time>
        <ele>2103.0</ele>
      </trkpt>
      <trkpt lat="44.33962" lon="6.88403">
        <time>2023-04-16T11:52:21+00:00</time>
        <ele>2102.0</ele>
      </trkpt>
      <trkpt lat="44.33963" lon="6.88398">
        <time>2023-04-16T11:52:22+00:00</time>
        <ele>2100.0</ele>
      </trkpt>
      <trkpt lat="44.33962" lon="6.88398">
        <time>2023-04-16T11:52:23+00:00</time>
        <ele>2101.0</ele>
      </trkpt>
      <trkpt lat="44.33962" lon="6.88399">
        <time>2023-04-16T11:52:25+00:00</time>
        <ele>2101.0</ele>
      </trkpt>
      <trkpt lat="44.33968" lon="6.88411">
        <time>2023-04-16T11:52:28+00:00</time>
        <ele>2102.0</ele>
      </trkpt>
      <trkpt lat="44.33978" lon="6.88416">
        <time>2023-04-16T11:52:30+00:00</time>
        <ele>2102.0</ele>
      </trkpt>
      <trkpt lat="44.33982" lon="6.88415">
        <time>2023-04-16T11:52:31+00:00</time>
        <ele>2102.0</ele>
      </trkpt>
      <trkpt lat="44.33986" lon="6.88412">
        <time>2023-04-16T11:52:32+00:00</time>
        <ele>2101.0</ele>
      </trkpt>
      <trkpt lat="44.33989" lon="6.88408">
        <time>2023-04-16T11:52:33+00:00</time>
        <ele>2100.0</ele>
      </trkpt>
      <trkpt lat="44.33991" lon="6.88403">
        <time>2023-04-16T11:52:34+00:00</time>
        <ele>2098.0</ele>
      </trkpt>
      <trkpt lat="44.33991" lon="6.88396">
        <time>2023-04-16T11:52:35+00:00</time>
        <ele>2096.0</ele>
      </trkpt>
      <trkpt lat="44.3399" lon="6.88388">
        <time>2023-04-16T11:52:36+00:00</time>
        <ele>2094.0</ele>
      </trkpt>
      <trkpt lat="44.33987" lon="6.88383">
        <time>2023-04-16T11:52:37+00:00</time>
        <ele>2093.0</ele>
      </trkpt>
      <trkpt lat="44.33985" lon="6.88381">
        <time>2023-04-16T11:52:38+00:00</time>
        <ele>2092.0</ele>
      </trkpt>
      <trkpt lat="44.3398" lon="6.88374">
        <time>2023-04-16T11:52:40+00:00</time>
        <ele>2091.0</ele>
      </trkpt>
      <trkpt lat="44.33972" lon="6.88368">
        <time>2023-04-16T11:52:42+00:00</time>
        <ele>2091.0</ele>
      </trkpt>
      <trkpt lat="44.33964" lon="6.88365">
        <time>2023-04-16T11:52:44+00:00</time>
        <ele>2093.0</ele>
      </trkpt>
      <trkpt lat="44.33962" lon="6.88364">
        <time>2023-04-16T11:52:45+00:00</time>
        <ele>2094.0</ele>
      </trkpt>
      <trkpt lat="44.33961" lon="6.88362">
        <time>2023-04-16T11:52:46+00:00</time>
        <ele>2093.0</ele>
      </trkpt>
      <trkpt lat="44.3396" lon="6.88359">
        <time>2023-04-16T11:52:47+00:00</time>
        <ele>2093.0</ele>
      </trkpt>
      <trkpt lat="44.33956" lon="6.88346">
        <time>2023-04-16T11:52:50+00:00</time>
        <ele>2090.0</ele>
      </trkpt>
      <trkpt lat="44.33956" lon="6.88331">
        <time>2023-04-16T11:52:53+00:00</time>
        <ele>2087.0</ele>
      </trkpt>
      <trkpt lat="44.33955" lon="6.88326">
        <time>2023-04-16T11:52:54+00:00</time>
        <ele>2087.0</ele>
      </trkpt>
      <trkpt lat="44.33953" lon="6.88321">
        <time>2023-04-16T11:52:55+00:00</time>
        <ele>2087.0</ele>
      </trkpt>
      <trkpt lat="44.33947" lon="6.88312">
        <time>2023-04-16T11:52:57+00:00</time>
        <ele>2087.0</ele>
      </trkpt>
      <trkpt lat="44.33941" lon="6.88301">
        <time>2023-04-16T11:52:59+00:00</time>
        <ele>2086.0</ele>
      </trkpt>
      <trkpt lat="44.33938" lon="6.88297">
        <time>2023-04-16T11:53:00+00:00</time>
        <ele>2085.0</ele>
      </trkpt>
      <trkpt lat="44.3393" lon="6.88288">
        <time>2023-04-16T11:53:03+00:00</time>
        <ele>2085.0</ele>
      </trkpt>
      <trkpt lat="44.33925" lon="6.88285">
        <time>2023-04-16T11:53:05+00:00</time>
        <ele>2084.0</ele>
      </trkpt>
      <trkpt lat="44.33912" lon="6.88281">
        <time>2023-04-16T11:53:09+00:00</time>
        <ele>2085.0</ele>
      </trkpt>
      <trkpt lat="44.33905" lon="6.8828">
        <time>2023-04-16T11:53:11+00:00</time>
        <ele>2087.0</ele>
      </trkpt>
      <trkpt lat="44.33901" lon="6.88278">
        <time>2023-04-16T11:53:12+00:00</time>
        <ele>2087.0</ele>
      </trkpt>
      <trkpt lat="44.33896" lon="6.88276">
        <time>2023-04-16T11:53:13+00:00</time>
        <ele>2087.0</ele>
      </trkpt>
      <trkpt lat="44.33889" lon="6.88268">
        <time>2023-04-16T11:53:15+00:00</time>
        <ele>2086.0</ele>
      </trkpt>
      <trkpt lat="44.33885" lon="6.88263">
        <time>2023-04-16T11:53:17+00:00</time>
        <ele>2086.0</ele>
      </trkpt>
      <trkpt lat="44.33884" lon="6.88263">
        <time>2023-04-16T11:53:19+00:00</time>
        <ele>2086.0</ele>
      </trkpt>
      <trkpt lat="44.33884" lon="6.88263">
        <time>2023-04-16T11:53:20+00:00</time>
        <ele>2086.0</ele>
      </trkpt>
      <trkpt lat="44.33881" lon="6.88253">
        <time>2023-04-16T11:53:28+00:00</time>
        <ele>2083.0</ele>
      </trkpt>
      <trkpt lat="44.3388" lon="6.88248">
        <time>2023-04-16T11:53:52+00:00</time>
        <ele>2081.0</ele>
      </trkpt>
      <trkpt lat="44.33861" lon="6.88242">
        <time>2023-04-16T11:54:30+00:00</time>
        <ele>2083.0</ele>
      </trkpt>
      <trkpt lat="44.33857" lon="6.88238">
        <time>2023-04-16T11:54:32+00:00</time>
        <ele>2083.0</ele>
      </trkpt>
      <trkpt lat="44.33852" lon="6.88228">
        <time>2023-04-16T11:54:36+00:00</time>
        <ele>2082.0</ele>
      </trkpt>
      <trkpt lat="44.33845" lon="6.88213">
        <time>2023-04-16T11:54:42+00:00</time>
        <ele>2080.0</ele>
      </trkpt>
      <trkpt lat="44.33845" lon="6.88209">
        <time>2023-04-16T11:54:44+00:00</time>
        <ele>2079.0</ele>
      </trkpt>
      <trkpt lat="44.33844" lon="6.88206">
        <time>2023-04-16T11:54:48+00:00</time>
        <ele>2079.0</ele>
      </trkpt>
      <trkpt lat="44.33844" lon="6.88201">
        <time>2023-04-16T11:54:52+00:00</time>
        <ele>2078.0</ele>
      </trkpt>
      <trkpt lat="44.33845" lon="6.88196">
        <time>2023-04-16T11:54:54+00:00</time>
        <ele>2077.0</ele>
      </trkpt>
      <trkpt lat="44.33845" lon="6.88173">
        <time>2023-04-16T11:55:01+00:00</time>
        <ele>2074.0</ele>
      </trkpt>
      <trkpt lat="44.33842" lon="6.88151">
        <time>2023-04-16T11:55:07+00:00</time>
        <ele>2072.0</ele>
      </trkpt>
      <trkpt lat="44.33837" lon="6.88138">
        <time>2023-04-16T11:55:10+00:00</time>
        <ele>2072.0</ele>
      </trkpt>
      <trkpt lat="44.33832" lon="6.88127">
        <time>2023-04-16T11:55:13+00:00</time>
        <ele>2071.0</ele>
      </trkpt>
      <trkpt lat="44.33822" lon="6.88115">
        <time>2023-04-16T11:55:18+00:00</time>
        <ele>2071.0</ele>
      </trkpt>
      <trkpt lat="44.33809" lon="6.88089">
        <time>2023-04-16T11:55:25+00:00</time>
        <ele>2072.0</ele>
      </trkpt>
      <trkpt lat="44.33806" lon="6.88074">
        <time>2023-04-16T11:55:28+00:00</time>
        <ele>2070.0</ele>
      </trkpt>
      <trkpt lat="44.33809" lon="6.88055">
        <time>2023-04-16T11:55:32+00:00</time>
        <ele>2067.0</ele>
      </trkpt>
      <trkpt lat="44.33808" lon="6.88023">
        <time>2023-04-16T11:55:39+00:00</time>
        <ele>2062.0</ele>
      </trkpt>
      <trkpt lat="44.33805" lon="6.88013">
        <time>2023-04-16T11:55:41+00:00</time>
        <ele>2061.0</ele>
      </trkpt>
      <trkpt lat="44.33802" lon="6.88009">
        <time>2023-04-16T11:55:42+00:00</time>
        <ele>2060.0</ele>
      </trkpt>
      <trkpt lat="44.33794" lon="6.88">
        <time>2023-04-16T11:55:45+00:00</time>
        <ele>2058.0</ele>
      </trkpt>
      <trkpt lat="44.33783" lon="6.87996">
        <time>2023-04-16T11:55:49+00:00</time>
        <ele>2057.0</ele>
      </trkpt>
      <trkpt lat="44.3376" lon="6.87977">
        <time>2023-04-16T11:56:01+00:00</time>
        <ele>2059.0</ele>
      </trkpt>
      <trkpt lat="44.33751" lon="6.87966">
        <time>2023-04-16T11:56:05+00:00</time>
        <ele>2061.0</ele>
      </trkpt>
      <trkpt lat="44.33748" lon="6.87957">
        <time>2023-04-16T11:56:08+00:00</time>
        <ele>2059.0</ele>
      </trkpt>
      <trkpt lat="44.33744" lon="6.87952">
        <time>2023-04-16T11:56:10+00:00</time>
        <ele>2058.0</ele>
      </trkpt>
      <trkpt lat="44.3374" lon="6.87946">
        <time>2023-04-16T11:56:13+00:00</time>
        <ele>2058.0</ele>
      </trkpt>
      <trkpt lat="44.33736" lon="6.87946">
        <time>2023-04-16T11:56:17+00:00</time>
        <ele>2060.0</ele>
      </trkpt>
      <trkpt lat="44.33735" lon="6.87949">
        <time>2023-04-16T11:56:19+00:00</time>
        <ele>2061.0</ele>
      </trkpt>
      <trkpt lat="44.33731" lon="6.87949">
        <time>2023-04-16T11:56:24+00:00</time>
        <ele>2063.0</ele>
      </trkpt>
      <trkpt lat="44.33722" lon="6.87935">
        <time>2023-04-16T11:56:32+00:00</time>
        <ele>2062.0</ele>
      </trkpt>
      <trkpt lat="44.33717" lon="6.87929">
        <time>2023-04-16T11:56:35+00:00</time>
        <ele>2063.0</ele>
      </trkpt>
      <trkpt lat="44.33712" lon="6.87924">
        <time>2023-04-16T11:56:38+00:00</time>
        <ele>2064.0</ele>
      </trkpt>
      <trkpt lat="44.3371" lon="6.87922">
        <time>2023-04-16T11:56:39+00:00</time>
        <ele>2064.0</ele>
      </trkpt>
      <trkpt lat="44.33709" lon="6.8792">
        <time>2023-04-16T11:56:40+00:00</time>
        <ele>2064.0</ele>
      </trkpt>
      <trkpt lat="44.33707" lon="6.87918">
        <time>2023-04-16T11:56:43+00:00</time>
        <ele>2064.0</ele>
      </trkpt>
      <trkpt lat="44.33706" lon="6.87917">
        <time>2023-04-16T11:56:45+00:00</time>
        <ele>2064.0</ele>
      </trkpt>
      <trkpt lat="44.33706" lon="6.87916">
        <time>2023-04-16T11:56:46+00:00</time>
        <ele>2064.0</ele>
      </trkpt>
      <trkpt lat="44.33706" lon="6.87915">
        <time>2023-04-16T11:56:47+00:00</time>
        <ele>2063.0</ele>
      </trkpt>
      <trkpt lat="44.33704" lon="6.87913">
        <time>2023-04-16T11:56:49+00:00</time>
        <ele>2063.0</ele>
      </trkpt>
      <trkpt lat="44.33701" lon="6.87912">
        <time>2023-04-16T11:56:51+00:00</time>
        <ele>2064.0</ele>
      </trkpt>
      <trkpt lat="44.33698" lon="6.87906">
        <time>2023-04-16T11:56:58+00:00</time>
        <ele>2063.0</ele>
      </trkpt>
      <trkpt lat="44.33696" lon="6.87902">
        <time>2023-04-16T11:57:01+00:00</time>
        <ele>2062.0</ele>
      </trkpt>
      <trkpt lat="44.3369" lon="6.87865">
        <time>2023-04-16T11:57:12+00:00</time>
        <ele>2054.0</ele>
      </trkpt>
      <trkpt lat="44.33684" lon="6.87842">
        <time>2023-04-16T11:57:17+00:00</time>
        <ele>2052.0</ele>
      </trkpt>
      <trkpt lat="44.33677" lon="6.87817">
        <time>2023-04-16T11:57:21+00:00</time>
        <ele>2051.0</ele>
      </trkpt>
      <trkpt lat="44.33676" lon="6.87811">
        <time>2023-04-16T11:57:22+00:00</time>
        <ele>2050.0</ele>
      </trkpt>
      <trkpt lat="44.33676" lon="6.87806">
        <time>2023-04-16T11:57:23+00:00</time>
        <ele>2050.0</ele>
      </trkpt>
      <trkpt lat="44.33677" lon="6.87801">
        <time>2023-04-16T11:57:24+00:00</time>
        <ele>2049.0</ele>
      </trkpt>
      <trkpt lat="44.33681" lon="6.87793">
        <time>2023-04-16T11:57:26+00:00</time>
        <ele>2047.0</ele>
      </trkpt>
      <trkpt lat="44.33683" lon="6.87775">
        <time>2023-04-16T11:57:30+00:00</time>
        <ele>2044.0</ele>
      </trkpt>
      <trkpt lat="44.33683" lon="6.87769">
        <time>2023-04-16T11:57:32+00:00</time>
        <ele>2044.0</ele>
      </trkpt>
      <trkpt lat="44.3368" lon="6.87761">
        <time>2023-04-16T11:57:34+00:00</time>
        <ele>2045.0</ele>
      </trkpt>
      <trkpt lat="44.33677" lon="6.87759">
        <time>2023-04-16T11:57:36+00:00</time>
        <ele>2045.0</ele>
      </trkpt>
      <trkpt lat="44.33676" lon="6.87759">
        <time>2023-04-16T11:57:38+00:00</time>
        <ele>2046.0</ele>
      </trkpt>
      <trkpt lat="44.33675" lon="6.87761">
        <time>2023-04-16T11:57:41+00:00</time>
        <ele>2046.0</ele>
      </trkpt>
      <trkpt lat="44.33672" lon="6.87748">
        <time>2023-04-16T11:57:55+00:00</time>
        <ele>2046.0</ele>
      </trkpt>
      <trkpt lat="44.33668" lon="6.87732">
        <time>2023-04-16T11:58:00+00:00</time>
        <ele>2044.0</ele>
      </trkpt>
      <trkpt lat="44.33666" lon="6.87716">
        <time>2023-04-16T11:58:06+00:00</time>
        <ele>2041.0</ele>
      </trkpt>
      <trkpt lat="44.33661" lon="6.87702">
        <time>2023-04-16T11:58:10+00:00</time>
        <ele>2040.0</ele>
      </trkpt>
      <trkpt lat="44.33658" lon="6.87703">
        <time>2023-04-16T11:58:13+00:00</time>
        <ele>2041.0</ele>
      </trkpt>
      <trkpt lat="44.33656" lon="6.87706">
        <time>2023-04-16T11:58:49+00:00</time>
        <ele>2042.0</ele>
      </trkpt>
      <trkpt lat="44.33658" lon="6.87705">
        <time>2023-04-16T11:59:06+00:00</time>
        <ele>2041.0</ele>
      </trkpt>
      <trkpt lat="44.33657" lon="6.87707">
        <time>2023-04-16T11:59:16+00:00</time>
        <ele>2042.0</ele>
      </trkpt>
      <trkpt lat="44.33657" lon="6.87708">
        <time>2023-04-16T11:59:18+00:00</time>
        <ele>2043.0</ele>
      </trkpt>
      <trkpt lat="44.33657" lon="6.87709">
        <time>2023-04-16T11:59:19+00:00</time>
        <ele>2043.0</ele>
      </trkpt>
      <trkpt lat="44.33656" lon="6.8771">
        <time>2023-04-16T11:59:21+00:00</time>
        <ele>2044.0</ele>
      </trkpt>
      <trkpt lat="44.33656" lon="6.8771">
        <time>2023-04-16T11:59:22+00:00</time>
        <ele>2044.0</ele>
      </trkpt>
      <trkpt lat="44.33656" lon="6.87711">
        <time>2023-04-16T11:59:23+00:00</time>
        <ele>2044.0</ele>
      </trkpt>
      <trkpt lat="44.33658" lon="6.87706">
        <time>2023-04-16T11:59:30+00:00</time>
        <ele>2042.0</ele>
      </trkpt>
      <trkpt lat="44.33659" lon="6.87706">
        <time>2023-04-16T11:59:37+00:00</time>
        <ele>2041.0</ele>
      </trkpt>
      <trkpt lat="44.3366" lon="6.87705">
        <time>2023-04-16T11:59:45+00:00</time>
        <ele>2041.0</ele>
      </trkpt>
      <trkpt lat="44.3366" lon="6.87704">
        <time>2023-04-16T11:59:49+00:00</time>
        <ele>2041.0</ele>
      </trkpt>
      <trkpt lat="44.3366" lon="6.87704">
        <time>2023-04-16T11:59:55+00:00</time>
        <ele>2041.0</ele>
      </trkpt>
      <trkpt lat="44.3366" lon="6.87703">
        <time>2023-04-16T11:59:57+00:00</time>
        <ele>2040.0</ele>
      </trkpt>
      <trkpt lat="44.33661" lon="6.87703">
        <time>2023-04-16T11:59:58+00:00</time>
        <ele>2040.0</ele>
      </trkpt>
      <trkpt lat="44.33661" lon="6.87702">
        <time>2023-04-16T12:00:00+00:00</time>
        <ele>2040.0</ele>
      </trkpt>
      <trkpt lat="44.33662" lon="6.87699">
        <time>2023-04-16T12:00:27+00:00</time>
        <ele>2039.0</ele>
      </trkpt>
      <trkpt lat="44.33662" lon="6.877">
        <time>2023-04-16T12:00:32+00:00</time>
        <ele>2039.0</ele>
      </trkpt>
      <trkpt lat="44.33661" lon="6.87701">
        <time>2023-04-16T12:00:40+00:00</time>
        <ele>2040.0</ele>
      </trkpt>
      <trkpt lat="44.33659" lon="6.87704">
        <time>2023-04-16T12:00:57+00:00</time>
        <ele>2041.0</ele>
      </trkpt>
      <trkpt lat="44.3366" lon="6.87701">
        <time>2023-04-16T12:01:22+00:00</time>
        <ele>2040.0</ele>
      </trkpt>
      <trkpt lat="44.3366" lon="6.87703">
        <time>2023-04-16T12:01:28+00:00</time>
        <ele>2040.0</ele>
      </trkpt>
      <trkpt lat="44.33661" lon="6.87702">
        <time>2023-04-16T12:01:32+00:00</time>
        <ele>2040.0</ele>
      </trkpt>
      <trkpt lat="44.33659" lon="6.87702">
        <time>2023-04-16T12:01:51+00:00</time>
        <ele>2040.0</ele>
      </trkpt>
      <trkpt lat="44.3366" lon="6.87704">
        <time>2023-04-16T12:02:14+00:00</time>
        <ele>2041.0</ele>
      </trkpt>
      <trkpt lat="44.3366" lon="6.87702">
        <time>2023-04-16T12:02:24+00:00</time>
        <ele>2040.0</ele>
      </trkpt>
      <trkpt lat="44.33659" lon="6.87702">
        <time>2023-04-16T12:02:28+00:00</time>
        <ele>2040.0</ele>
      </trkpt>
      <trkpt lat="44.33658" lon="6.877">
        <time>2023-04-16T12:02:31+00:00</time>
        <ele>2040.0</ele>
      </trkpt>
      <trkpt lat="44.33658" lon="6.87698">
        <time>2023-04-16T12:02:38+00:00</time>
        <ele>2040.0</ele>
      </trkpt>
      <trkpt lat="44.33659" lon="6.87703">
        <time>2023-04-16T12:02:57+00:00</time>
        <ele>2041.0</ele>
      </trkpt>
      <trkpt lat="44.3366" lon="6.87704">
        <time>2023-04-16T12:03:03+00:00</time>
        <ele>2041.0</ele>
      </trkpt>
      <trkpt lat="44.3366" lon="6.87704">
        <time>2023-04-16T12:03:06+00:00</time>
        <ele>2041.0</ele>
      </trkpt>
      <trkpt lat="44.3366" lon="6.87704">
        <time>2023-04-16T12:03:09+00:00</time>
        <ele>2041.0</ele>
      </trkpt>
      <trkpt lat="44.3366" lon="6.87704">
        <time>2023-04-16T12:03:10+00:00</time>
        <ele>2041.0</ele>
      </trkpt>
      <trkpt lat="44.33661" lon="6.87704">
        <time>2023-04-16T12:03:11+00:00</time>
        <ele>2040.0</ele>
      </trkpt>
      <trkpt lat="44.33661" lon="6.87703">
        <time>2023-04-16T12:03:14+00:00</time>
        <ele>2040.0</ele>
      </trkpt>
      <trkpt lat="44.33662" lon="6.87702">
        <time>2023-04-16T12:03:16+00:00</time>
        <ele>2040.0</ele>
      </trkpt>
      <trkpt lat="44.33663" lon="6.87701">
        <time>2023-04-16T12:03:17+00:00</time>
        <ele>2039.0</ele>
      </trkpt>
      <trkpt lat="44.33664" lon="6.87696">
        <time>2023-04-16T12:03:21+00:00</time>
        <ele>2038.0</ele>
      </trkpt>
      <trkpt lat="44.33663" lon="6.87697">
        <time>2023-04-16T12:03:39+00:00</time>
        <ele>2038.0</ele>
      </trkpt>
      <trkpt lat="44.33661" lon="6.877">
        <time>2023-04-16T12:03:58+00:00</time>
        <ele>2039.0</ele>
      </trkpt>
      <trkpt lat="44.33661" lon="6.87702">
        <time>2023-04-16T12:04:08+00:00</time>
        <ele>2040.0</ele>
      </trkpt>
      <trkpt lat="44.33659" lon="6.87704">
        <time>2023-04-16T12:04:37+00:00</time>
        <ele>2041.0</ele>
      </trkpt>
      <trkpt lat="44.3366" lon="6.87703">
        <time>2023-04-16T12:05:02+00:00</time>
        <ele>2040.0</ele>
      </trkpt>
      <trkpt lat="44.33662" lon="6.87701">
        <time>2023-04-16T12:05:16+00:00</time>
        <ele>2039.0</ele>
      </trkpt>
      <trkpt lat="44.33663" lon="6.87694">
        <time>2023-04-16T12:05:22+00:00</time>
        <ele>2038.0</ele>
      </trkpt>
      <trkpt lat="44.33668" lon="6.87688">
        <time>2023-04-16T12:05:27+00:00</time>
        <ele>2036.0</ele>
      </trkpt>
      <trkpt lat="44.33665" lon="6.87682">
        <time>2023-04-16T12:05:34+00:00</time>
        <ele>2035.0</ele>
      </trkpt>
      <trkpt lat="44.33661" lon="6.87678">
        <time>2023-04-16T12:05:39+00:00</time>
        <ele>2035.0</ele>
      </trkpt>
      <trkpt lat="44.33658" lon="6.87676">
        <time>2023-04-16T12:05:44+00:00</time>
        <ele>2034.0</ele>
      </trkpt>
      <trkpt lat="44.33654" lon="6.87677">
        <time>2023-04-16T12:05:47+00:00</time>
        <ele>2035.0</ele>
      </trkpt>
      <trkpt lat="44.33652" lon="6.87676">
        <time>2023-04-16T12:05:49+00:00</time>
        <ele>2035.0</ele>
      </trkpt>
      <trkpt lat="44.33651" lon="6.87673">
        <time>2023-04-16T12:05:54+00:00</time>
        <ele>2034.0</ele>
      </trkpt>
      <trkpt lat="44.3365" lon="6.87666">
        <time>2023-04-16T12:05:59+00:00</time>
        <ele>2033.0</ele>
      </trkpt>
      <trkpt lat="44.33649" lon="6.87658">
        <time>2023-04-16T12:06:07+00:00</time>
        <ele>2032.0</ele>
      </trkpt>
      <trkpt lat="44.33648" lon="6.87656">
        <time>2023-04-16T12:06:08+00:00</time>
        <ele>2032.0</ele>
      </trkpt>
      <trkpt lat="44.33646" lon="6.87653">
        <time>2023-04-16T12:06:12+00:00</time>
        <ele>2031.0</ele>
      </trkpt>
      <trkpt lat="44.33642" lon="6.87648">
        <time>2023-04-16T12:06:18+00:00</time>
        <ele>2031.0</ele>
      </trkpt>
      <trkpt lat="44.33638" lon="6.87653">
        <time>2023-04-16T12:06:28+00:00</time>
        <ele>2031.0</ele>
      </trkpt>
      <trkpt lat="44.33635" lon="6.87652">
        <time>2023-04-16T12:06:30+00:00</time>
        <ele>2031.0</ele>
      </trkpt>
      <trkpt lat="44.33633" lon="6.8765">
        <time>2023-04-16T12:06:32+00:00</time>
        <ele>2031.0</ele>
      </trkpt>
      <trkpt lat="44.33631" lon="6.8764">
        <time>2023-04-16T12:06:47+00:00</time>
        <ele>2032.0</ele>
      </trkpt>
      <trkpt lat="44.3363" lon="6.8764">
        <time>2023-04-16T12:06:51+00:00</time>
        <ele>2032.0</ele>
      </trkpt>
      <trkpt lat="44.33627" lon="6.87644">
        <time>2023-04-16T12:07:00+00:00</time>
        <ele>2032.0</ele>
      </trkpt>
      <trkpt lat="44.33624" lon="6.87648">
        <time>2023-04-16T12:07:15+00:00</time>
        <ele>2032.0</ele>
      </trkpt>
      <trkpt lat="44.33624" lon="6.8765">
        <time>2023-04-16T12:07:18+00:00</time>
        <ele>2032.0</ele>
      </trkpt>
      <trkpt lat="44.33622" lon="6.87652">
        <time>2023-04-16T12:07:21+00:00</time>
        <ele>2032.0</ele>
      </trkpt>
      <trkpt lat="44.33618" lon="6.87652">
        <time>2023-04-16T12:07:31+00:00</time>
        <ele>2033.0</ele>
      </trkpt>
      <trkpt lat="44.33616" lon="6.8765">
        <time>2023-04-16T12:07:37+00:00</time>
        <ele>2034.0</ele>
      </trkpt>
      <trkpt lat="44.33615" lon="6.87648">
        <time>2023-04-16T12:07:55+00:00</time>
        <ele>2034.0</ele>
      </trkpt>
      <trkpt lat="44.33617" lon="6.87648">
        <time>2023-04-16T12:08:44+00:00</time>
        <ele>2034.0</ele>
      </trkpt>
      <trkpt lat="44.33617" lon="6.87648">
        <time>2023-04-16T12:08:51+00:00</time>
        <ele>2034.0</ele>
      </trkpt>
      <trkpt lat="44.33617" lon="6.87647">
        <time>2023-04-16T12:09:10+00:00</time>
        <ele>2034.0</ele>
      </trkpt>
      <trkpt lat="44.33617" lon="6.87646">
        <time>2023-04-16T12:09:26+00:00</time>
        <ele>2034.0</ele>
      </trkpt>
      <trkpt lat="44.3361" lon="6.87647">
        <time>2023-04-16T12:09:36+00:00</time>
        <ele>2036.0</ele>
      </trkpt>
      <trkpt lat="44.33607" lon="6.87647">
        <time>2023-04-16T12:09:41+00:00</time>
        <ele>2038.0</ele>
      </trkpt>
      <trkpt lat="44.33601" lon="6.87646">
        <time>2023-04-16T12:09:56+00:00</time>
        <ele>2041.0</ele>
      </trkpt>
      <trkpt lat="44.336" lon="6.87646">
        <time>2023-04-16T12:09:57+00:00</time>
        <ele>2042.0</ele>
      </trkpt>
      <trkpt lat="44.33597" lon="6.87646">
        <time>2023-04-16T12:10:01+00:00</time>
        <ele>2044.0</ele>
      </trkpt>
      <trkpt lat="44.33595" lon="6.87645">
        <time>2023-04-16T12:10:04+00:00</time>
        <ele>2045.0</ele>
      </trkpt>
      <trkpt lat="44.33594" lon="6.87644">
        <time>2023-04-16T12:10:06+00:00</time>
        <ele>2046.0</ele>
      </trkpt>
      <trkpt lat="44.33591" lon="6.87643">
        <time>2023-04-16T12:10:11+00:00</time>
        <ele>2048.0</ele>
      </trkpt>
      <trkpt lat="44.33591" lon="6.8764">
        <time>2023-04-16T12:10:15+00:00</time>
        <ele>2048.0</ele>
      </trkpt>
      <trkpt lat="44.33589" lon="6.87638">
        <time>2023-04-16T12:10:19+00:00</time>
        <ele>2049.0</ele>
      </trkpt>
      <trkpt lat="44.33588" lon="6.87634">
        <time>2023-04-16T12:10:24+00:00</time>
        <ele>2051.0</ele>
      </trkpt>
      <trkpt lat="44.33586" lon="6.87634">
        <time>2023-04-16T12:10:29+00:00</time>
        <ele>2051.0</ele>
      </trkpt>
      <trkpt lat="44.33586" lon="6.87633">
        <time>2023-04-16T12:10:30+00:00</time>
        <ele>2051.0</ele>
      </trkpt>
      <trkpt lat="44.33585" lon="6.87632">
        <time>2023-04-16T12:10:34+00:00</time>
        <ele>2052.0</ele>
      </trkpt>
      <trkpt lat="44.33584" lon="6.87631">
        <time>2023-04-16T12:10:38+00:00</time>
        <ele>2052.0</ele>
      </trkpt>
      <trkpt lat="44.33586" lon="6.87628">
        <time>2023-04-16T12:10:50+00:00</time>
        <ele>2052.0</ele>
      </trkpt>
      <trkpt lat="44.33586" lon="6.87615">
        <time>2023-04-16T12:11:04+00:00</time>
        <ele>2055.0</ele>
      </trkpt>
      <trkpt lat="44.33586" lon="6.87611">
        <time>2023-04-16T12:11:09+00:00</time>
        <ele>2055.0</ele>
      </trkpt>
      <trkpt lat="44.33585" lon="6.87608">
        <time>2023-04-16T12:11:14+00:00</time>
        <ele>2056.0</ele>
      </trkpt>
      <trkpt lat="44.33584" lon="6.87605">
        <time>2023-04-16T12:11:19+00:00</time>
        <ele>2057.0</ele>
      </trkpt>
      <trkpt lat="44.33582" lon="6.87604">
        <time>2023-04-16T12:11:22+00:00</time>
        <ele>2058.0</ele>
      </trkpt>
      <trkpt lat="44.33581" lon="6.87602">
        <time>2023-04-16T12:11:26+00:00</time>
        <ele>2058.0</ele>
      </trkpt>
      <trkpt lat="44.33578" lon="6.87599">
        <time>2023-04-16T12:11:31+00:00</time>
        <ele>2059.0</ele>
      </trkpt>
      <trkpt lat="44.33577" lon="6.87599">
        <time>2023-04-16T12:11:33+00:00</time>
        <ele>2060.0</ele>
      </trkpt>
      <trkpt lat="44.33577" lon="6.87596">
        <time>2023-04-16T12:11:36+00:00</time>
        <ele>2060.0</ele>
      </trkpt>
      <trkpt lat="44.33576" lon="6.87591">
        <time>2023-04-16T12:11:42+00:00</time>
        <ele>2061.0</ele>
      </trkpt>
      <trkpt lat="44.33576" lon="6.87589">
        <time>2023-04-16T12:11:45+00:00</time>
        <ele>2061.0</ele>
      </trkpt>
      <trkpt lat="44.33574" lon="6.87588">
        <time>2023-04-16T12:11:49+00:00</time>
        <ele>2062.0</ele>
      </trkpt>
      <trkpt lat="44.3357" lon="6.87588">
        <time>2023-04-16T12:11:55+00:00</time>
        <ele>2063.0</ele>
      </trkpt>
      <trkpt lat="44.33569" lon="6.87584">
        <time>2023-04-16T12:12:01+00:00</time>
        <ele>2064.0</ele>
      </trkpt>
      <trkpt lat="44.33569" lon="6.87584">
        <time>2023-04-16T12:12:02+00:00</time>
        <ele>2064.0</ele>
      </trkpt>
      <trkpt lat="44.33568" lon="6.87576">
        <time>2023-04-16T12:12:23+00:00</time>
        <ele>2066.0</ele>
      </trkpt>
      <trkpt lat="44.33567" lon="6.87576">
        <time>2023-04-16T12:12:24+00:00</time>
        <ele>2066.0</ele>
      </trkpt>
      <trkpt lat="44.33565" lon="6.87574">
        <time>2023-04-16T12:12:29+00:00</time>
        <ele>2067.0</ele>
      </trkpt>
      <trkpt lat="44.33561" lon="6.87573">
        <time>2023-04-16T12:12:35+00:00</time>
        <ele>2069.0</ele>
      </trkpt>
      <trkpt lat="44.3356" lon="6.87568">
        <time>2023-04-16T12:12:41+00:00</time>
        <ele>2070.0</ele>
      </trkpt>
      <trkpt lat="44.3356" lon="6.87567">
        <time>2023-04-16T12:12:42+00:00</time>
        <ele>2070.0</ele>
      </trkpt>
      <trkpt lat="44.33559" lon="6.87564">
        <time>2023-04-16T12:12:45+00:00</time>
        <ele>2071.0</ele>
      </trkpt>
      <trkpt lat="44.33558" lon="6.87563">
        <time>2023-04-16T12:12:47+00:00</time>
        <ele>2072.0</ele>
      </trkpt>
      <trkpt lat="44.33557" lon="6.87563">
        <time>2023-04-16T12:12:48+00:00</time>
        <ele>2072.0</ele>
      </trkpt>
      <trkpt lat="44.33557" lon="6.87563">
        <time>2023-04-16T12:12:49+00:00</time>
        <ele>2072.0</ele>
      </trkpt>
      <trkpt lat="44.33556" lon="6.87562">
        <time>2023-04-16T12:12:52+00:00</time>
        <ele>2073.0</ele>
      </trkpt>
      <trkpt lat="44.33555" lon="6.8756">
        <time>2023-04-16T12:12:57+00:00</time>
        <ele>2073.0</ele>
      </trkpt>
      <trkpt lat="44.33555" lon="6.87559">
        <time>2023-04-16T12:12:58+00:00</time>
        <ele>2074.0</ele>
      </trkpt>
      <trkpt lat="44.33555" lon="6.87559">
        <time>2023-04-16T12:12:59+00:00</time>
        <ele>2074.0</ele>
      </trkpt>
      <trkpt lat="44.33552" lon="6.87555">
        <time>2023-04-16T12:13:07+00:00</time>
        <ele>2075.0</ele>
      </trkpt>
      <trkpt lat="44.33552" lon="6.87554">
        <time>2023-04-16T12:13:09+00:00</time>
        <ele>2075.0</ele>
      </trkpt>
      <trkpt lat="44.33551" lon="6.87551">
        <time>2023-04-16T12:13:11+00:00</time>
        <ele>2076.0</ele>
      </trkpt>
      <trkpt lat="44.33552" lon="6.8755">
        <time>2023-04-16T12:13:16+00:00</time>
        <ele>2076.0</ele>
      </trkpt>
      <trkpt lat="44.3355" lon="6.87551">
        <time>2023-04-16T12:13:20+00:00</time>
        <ele>2077.0</ele>
      </trkpt>
      <trkpt lat="44.33547" lon="6.87558">
        <time>2023-04-16T12:13:36+00:00</time>
        <ele>2077.0</ele>
      </trkpt>
      <trkpt lat="44.3355" lon="6.87549">
        <time>2023-04-16T12:13:42+00:00</time>
        <ele>2077.0</ele>
      </trkpt>
      <trkpt lat="44.33553" lon="6.87541">
        <time>2023-04-16T12:13:50+00:00</time>
        <ele>2078.0</ele>
      </trkpt>
      <trkpt lat="44.33554" lon="6.87535">
        <time>2023-04-16T12:13:56+00:00</time>
        <ele>2078.0</ele>
      </trkpt>
      <trkpt lat="44.33556" lon="6.87529">
        <time>2023-04-16T12:14:04+00:00</time>
        <ele>2079.0</ele>
      </trkpt>
      <trkpt lat="44.33556" lon="6.87526">
        <time>2023-04-16T12:14:08+00:00</time>
        <ele>2080.0</ele>
      </trkpt>
      <trkpt lat="44.33557" lon="6.87525">
        <time>2023-04-16T12:14:09+00:00</time>
        <ele>2080.0</ele>
      </trkpt>
      <trkpt lat="44.33557" lon="6.87525">
        <time>2023-04-16T12:14:10+00:00</time>
        <ele>2080.0</ele>
      </trkpt>
      <trkpt lat="44.33557" lon="6.87524">
        <time>2023-04-16T12:14:11+00:00</time>
        <ele>2080.0</ele>
      </trkpt>
      <trkpt lat="44.33558" lon="6.87521">
        <time>2023-04-16T12:14:14+00:00</time>
        <ele>2081.0</ele>
      </trkpt>
      <trkpt lat="44.33559" lon="6.87519">
        <time>2023-04-16T12:14:16+00:00</time>
        <ele>2081.0</ele>
      </trkpt>
      <trkpt lat="44.33559" lon="6.87518">
        <time>2023-04-16T12:14:17+00:00</time>
        <ele>2081.0</ele>
      </trkpt>
      <trkpt lat="44.3356" lon="6.87514">
        <time>2023-04-16T12:14:24+00:00</time>
        <ele>2082.0</ele>
      </trkpt>
      <trkpt lat="44.33561" lon="6.87511">
        <time>2023-04-16T12:14:28+00:00</time>
        <ele>2082.0</ele>
      </trkpt>
      <trkpt lat="44.33561" lon="6.87508">
        <time>2023-04-16T12:14:32+00:00</time>
        <ele>2083.0</ele>
      </trkpt>
      <trkpt lat="44.33559" lon="6.87507">
        <time>2023-04-16T12:14:35+00:00</time>
        <ele>2084.0</ele>
      </trkpt>
      <trkpt lat="44.33558" lon="6.87506">
        <time>2023-04-16T12:14:38+00:00</time>
        <ele>2084.0</ele>
      </trkpt>
      <trkpt lat="44.33557" lon="6.87505">
        <time>2023-04-16T12:14:40+00:00</time>
        <ele>2085.0</ele>
      </trkpt>
      <trkpt lat="44.33556" lon="6.87505">
        <time>2023-04-16T12:14:42+00:00</time>
        <ele>2085.0</ele>
      </trkpt>
      <trkpt lat="44.33554" lon="6.87504">
        <time>2023-04-16T12:14:45+00:00</time>
        <ele>2085.0</ele>
      </trkpt>
      <trkpt lat="44.33553" lon="6.87503">
        <time>2023-04-16T12:14:47+00:00</time>
        <ele>2085.0</ele>
      </trkpt>
      <trkpt lat="44.3355" lon="6.87502">
        <time>2023-04-16T12:14:54+00:00</time>
        <ele>2087.0</ele>
      </trkpt>
      <trkpt lat="44.33545" lon="6.87501">
        <time>2023-04-16T12:15:01+00:00</time>
        <ele>2089.0</ele>
      </trkpt>
      <trkpt lat="44.33541" lon="6.875">
        <time>2023-04-16T12:15:07+00:00</time>
        <ele>2091.0</ele>
      </trkpt>
      <trkpt lat="44.3354" lon="6.875">
        <time>2023-04-16T12:15:09+00:00</time>
        <ele>2092.0</ele>
      </trkpt>
      <trkpt lat="44.33539" lon="6.87497">
        <time>2023-04-16T12:15:17+00:00</time>
        <ele>2093.0</ele>
      </trkpt>
      <trkpt lat="44.33539" lon="6.87495">
        <time>2023-04-16T12:15:28+00:00</time>
        <ele>2093.0</ele>
      </trkpt>
      <trkpt lat="44.33539" lon="6.87494">
        <time>2023-04-16T12:15:54+00:00</time>
        <ele>2093.0</ele>
      </trkpt>
      <trkpt lat="44.33539" lon="6.87492">
        <time>2023-04-16T12:15:56+00:00</time>
        <ele>2094.0</ele>
      </trkpt>
      <trkpt lat="44.33543" lon="6.87486">
        <time>2023-04-16T12:16:04+00:00</time>
        <ele>2094.0</ele>
      </trkpt>
      <trkpt lat="44.33544" lon="6.87485">
        <time>2023-04-16T12:16:06+00:00</time>
        <ele>2093.0</ele>
      </trkpt>
      <trkpt lat="44.33546" lon="6.87482">
        <time>2023-04-16T12:16:10+00:00</time>
        <ele>2093.0</ele>
      </trkpt>
      <trkpt lat="44.33547" lon="6.87481">
        <time>2023-04-16T12:16:13+00:00</time>
        <ele>2093.0</ele>
      </trkpt>
      <trkpt lat="44.33547" lon="6.87479">
        <time>2023-04-16T12:16:16+00:00</time>
        <ele>2094.0</ele>
      </trkpt>
      <trkpt lat="44.33547" lon="6.87479">
        <time>2023-04-16T12:16:17+00:00</time>
        <ele>2094.0</ele>
      </trkpt>
      <trkpt lat="44.33547" lon="6.87478">
        <time>2023-04-16T12:16:18+00:00</time>
        <ele>2094.0</ele>
      </trkpt>
      <trkpt lat="44.33545" lon="6.87477">
        <time>2023-04-16T12:16:22+00:00</time>
        <ele>2095.0</ele>
      </trkpt>
      <trkpt lat="44.33544" lon="6.87477">
        <time>2023-04-16T12:16:23+00:00</time>
        <ele>2095.0</ele>
      </trkpt>
      <trkpt lat="44.33543" lon="6.87476">
        <time>2023-04-16T12:16:25+00:00</time>
        <ele>2096.0</ele>
      </trkpt>
      <trkpt lat="44.33543" lon="6.87475">
        <time>2023-04-16T12:16:26+00:00</time>
        <ele>2096.0</ele>
      </trkpt>
      <trkpt lat="44.33542" lon="6.87475">
        <time>2023-04-16T12:16:27+00:00</time>
        <ele>2097.0</ele>
      </trkpt>
      <trkpt lat="44.33541" lon="6.87473">
        <time>2023-04-16T12:16:29+00:00</time>
        <ele>2098.0</ele>
      </trkpt>
      <trkpt lat="44.33537" lon="6.87473">
        <time>2023-04-16T12:16:32+00:00</time>
        <ele>2099.0</ele>
      </trkpt>
      <trkpt lat="44.33537" lon="6.87473">
        <time>2023-04-16T12:16:33+00:00</time>
        <ele>2099.0</ele>
      </trkpt>
      <trkpt lat="44.33534" lon="6.8747">
        <time>2023-04-16T12:16:38+00:00</time>
        <ele>2101.0</ele>
      </trkpt>
      <trkpt lat="44.33533" lon="6.87468">
        <time>2023-04-16T12:16:42+00:00</time>
        <ele>2102.0</ele>
      </trkpt>
      <trkpt lat="44.33534" lon="6.87467">
        <time>2023-04-16T12:16:43+00:00</time>
        <ele>2102.0</ele>
      </trkpt>
      <trkpt lat="44.33538" lon="6.87461">
        <time>2023-04-16T12:16:53+00:00</time>
        <ele>2102.0</ele>
      </trkpt>
      <trkpt lat="44.3354" lon="6.87457">
        <time>2023-04-16T12:16:59+00:00</time>
        <ele>2102.0</ele>
      </trkpt>
      <trkpt lat="44.3354" lon="6.87454">
        <time>2023-04-16T12:17:07+00:00</time>
        <ele>2103.0</ele>
      </trkpt>
      <trkpt lat="44.3354" lon="6.87452">
        <time>2023-04-16T12:17:12+00:00</time>
        <ele>2103.0</ele>
      </trkpt>
      <trkpt lat="44.3354" lon="6.87452">
        <time>2023-04-16T12:17:23+00:00</time>
        <ele>2103.0</ele>
      </trkpt>
      <trkpt lat="44.3354" lon="6.8745">
        <time>2023-04-16T12:17:25+00:00</time>
        <ele>2104.0</ele>
      </trkpt>
      <trkpt lat="44.33537" lon="6.87447">
        <time>2023-04-16T12:17:33+00:00</time>
        <ele>2106.0</ele>
      </trkpt>
      <trkpt lat="44.33534" lon="6.87447">
        <time>2023-04-16T12:17:38+00:00</time>
        <ele>2107.0</ele>
      </trkpt>
      <trkpt lat="44.33533" lon="6.87449">
        <time>2023-04-16T12:17:40+00:00</time>
        <ele>2107.0</ele>
      </trkpt>
      <trkpt lat="44.33532" lon="6.87449">
        <time>2023-04-16T12:17:41+00:00</time>
        <ele>2107.0</ele>
      </trkpt>
      <trkpt lat="44.3353" lon="6.8745">
        <time>2023-04-16T12:17:42+00:00</time>
        <ele>2108.0</ele>
      </trkpt>
      <trkpt lat="44.33529" lon="6.8745">
        <time>2023-04-16T12:17:43+00:00</time>
        <ele>2109.0</ele>
      </trkpt>
      <trkpt lat="44.33528" lon="6.8745">
        <time>2023-04-16T12:17:44+00:00</time>
        <ele>2110.0</ele>
      </trkpt>
      <trkpt lat="44.33529" lon="6.87449">
        <time>2023-04-16T12:17:45+00:00</time>
        <ele>2109.0</ele>
      </trkpt>
      <trkpt lat="44.33529" lon="6.87449">
        <time>2023-04-16T12:17:46+00:00</time>
        <ele>2109.0</ele>
      </trkpt>
      <trkpt lat="44.33529" lon="6.87449">
        <time>2023-04-16T12:17:47+00:00</time>
        <ele>2109.0</ele>
      </trkpt>
      <trkpt lat="44.33529" lon="6.87449">
        <time>2023-04-16T12:17:48+00:00</time>
        <ele>2109.0</ele>
      </trkpt>
      <trkpt lat="44.33529" lon="6.87448">
        <time>2023-04-16T12:17:50+00:00</time>
        <ele>2110.0</ele>
      </trkpt>
      <trkpt lat="44.3353" lon="6.87447">
        <time>2023-04-16T12:17:51+00:00</time>
        <ele>2109.0</ele>
      </trkpt>
      <trkpt lat="44.33532" lon="6.87443">
        <time>2023-04-16T12:17:56+00:00</time>
        <ele>2109.0</ele>
      </trkpt>
      <trkpt lat="44.33532" lon="6.87442">
        <time>2023-04-16T12:17:57+00:00</time>
        <ele>2109.0</ele>
      </trkpt>
      <trkpt lat="44.33534" lon="6.87439">
        <time>2023-04-16T12:18:01+00:00</time>
        <ele>2109.0</ele>
      </trkpt>
      <trkpt lat="44.33536" lon="6.87436">
        <time>2023-04-16T12:18:04+00:00</time>
        <ele>2110.0</ele>
      </trkpt>
      <trkpt lat="44.33535" lon="6.87436">
        <time>2023-04-16T12:18:05+00:00</time>
        <ele>2110.0</ele>
      </trkpt>
      <trkpt lat="44.33535" lon="6.87435">
        <time>2023-04-16T12:18:06+00:00</time>
        <ele>2110.0</ele>
      </trkpt>
      <trkpt lat="44.33533" lon="6.87435">
        <time>2023-04-16T12:18:10+00:00</time>
        <ele>2111.0</ele>
      </trkpt>
      <trkpt lat="44.33532" lon="6.87433">
        <time>2023-04-16T12:18:12+00:00</time>
        <ele>2112.0</ele>
      </trkpt>
      <trkpt lat="44.3353" lon="6.8743">
        <time>2023-04-16T12:18:17+00:00</time>
        <ele>2114.0</ele>
      </trkpt>
      <trkpt lat="44.33529" lon="6.8743">
        <time>2023-04-16T12:18:19+00:00</time>
        <ele>2115.0</ele>
      </trkpt>
      <trkpt lat="44.33526" lon="6.87428">
        <time>2023-04-16T12:18:23+00:00</time>
        <ele>2118.0</ele>
      </trkpt>
      <trkpt lat="44.33525" lon="6.87425">
        <time>2023-04-16T12:18:26+00:00</time>
        <ele>2119.0</ele>
      </trkpt>
      <trkpt lat="44.33525" lon="6.87422">
        <time>2023-04-16T12:18:29+00:00</time>
        <ele>2119.0</ele>
      </trkpt>
      <trkpt lat="44.33525" lon="6.87421">
        <time>2023-04-16T12:18:30+00:00</time>
        <ele>2119.0</ele>
      </trkpt>
      <trkpt lat="44.33525" lon="6.8742">
        <time>2023-04-16T12:18:31+00:00</time>
        <ele>2120.0</ele>
      </trkpt>
      <trkpt lat="44.33526" lon="6.8742">
        <time>2023-04-16T12:18:32+00:00</time>
        <ele>2119.0</ele>
      </trkpt>
      <trkpt lat="44.33525" lon="6.87414">
        <time>2023-04-16T12:18:43+00:00</time>
        <ele>2121.0</ele>
      </trkpt>
      <trkpt lat="44.33524" lon="6.87413">
        <time>2023-04-16T12:18:45+00:00</time>
        <ele>2121.0</ele>
      </trkpt>
      <trkpt lat="44.33523" lon="6.87413">
        <time>2023-04-16T12:18:48+00:00</time>
        <ele>2122.0</ele>
      </trkpt>
      <trkpt lat="44.3352" lon="6.87413">
        <time>2023-04-16T12:18:51+00:00</time>
        <ele>2124.0</ele>
      </trkpt>
      <trkpt lat="44.33518" lon="6.87412">
        <time>2023-04-16T12:18:54+00:00</time>
        <ele>2125.0</ele>
      </trkpt>
      <trkpt lat="44.33518" lon="6.87412">
        <time>2023-04-16T12:18:55+00:00</time>
        <ele>2125.0</ele>
      </trkpt>
      <trkpt lat="44.33514" lon="6.87409">
        <time>2023-04-16T12:19:01+00:00</time>
        <ele>2128.0</ele>
      </trkpt>
      <trkpt lat="44.33513" lon="6.8741">
        <time>2023-04-16T12:19:02+00:00</time>
        <ele>2128.0</ele>
      </trkpt>
      <trkpt lat="44.33511" lon="6.8741">
        <time>2023-04-16T12:19:04+00:00</time>
        <ele>2130.0</ele>
      </trkpt>
      <trkpt lat="44.3351" lon="6.87408">
        <time>2023-04-16T12:19:07+00:00</time>
        <ele>2130.0</ele>
      </trkpt>
      <trkpt lat="44.33511" lon="6.87408">
        <time>2023-04-16T12:19:10+00:00</time>
        <ele>2130.0</ele>
      </trkpt>
      <trkpt lat="44.33512" lon="6.87405">
        <time>2023-04-16T12:19:16+00:00</time>
        <ele>2129.0</ele>
      </trkpt>
      <trkpt lat="44.33512" lon="6.87404">
        <time>2023-04-16T12:19:18+00:00</time>
        <ele>2129.0</ele>
      </trkpt>
      <trkpt lat="44.33509" lon="6.87403">
        <time>2023-04-16T12:19:22+00:00</time>
        <ele>2132.0</ele>
      </trkpt>
      <trkpt lat="44.33505" lon="6.8741">
        <time>2023-04-16T12:19:33+00:00</time>
        <ele>2134.0</ele>
      </trkpt>
      <trkpt lat="44.33504" lon="6.87404">
        <time>2023-04-16T12:19:39+00:00</time>
        <ele>2135.0</ele>
      </trkpt>
      <trkpt lat="44.33506" lon="6.87398">
        <time>2023-04-16T12:19:44+00:00</time>
        <ele>2134.0</ele>
      </trkpt>
      <trkpt lat="44.33506" lon="6.87398">
        <time>2023-04-16T12:19:45+00:00</time>
        <ele>2134.0</ele>
      </trkpt>
      <trkpt lat="44.33506" lon="6.87397">
        <time>2023-04-16T12:19:48+00:00</time>
        <ele>2134.0</ele>
      </trkpt>
      <trkpt lat="44.33507" lon="6.87395">
        <time>2023-04-16T12:19:51+00:00</time>
        <ele>2133.0</ele>
      </trkpt>
      <trkpt lat="44.33509" lon="6.87392">
        <time>2023-04-16T12:19:54+00:00</time>
        <ele>2132.0</ele>
      </trkpt>
      <trkpt lat="44.3351" lon="6.87389">
        <time>2023-04-16T12:19:57+00:00</time>
        <ele>2131.0</ele>
      </trkpt>
      <trkpt lat="44.33509" lon="6.87387">
        <time>2023-04-16T12:20:01+00:00</time>
        <ele>2132.0</ele>
      </trkpt>
      <trkpt lat="44.33508" lon="6.87386">
        <time>2023-04-16T12:20:02+00:00</time>
        <ele>2133.0</ele>
      </trkpt>
      <trkpt lat="44.33507" lon="6.87386">
        <time>2023-04-16T12:20:03+00:00</time>
        <ele>2134.0</ele>
      </trkpt>
      <trkpt lat="44.33507" lon="6.87385">
        <time>2023-04-16T12:20:04+00:00</time>
        <ele>2134.0</ele>
      </trkpt>
      <trkpt lat="44.33507" lon="6.87384">
        <time>2023-04-16T12:20:05+00:00</time>
        <ele>2134.0</ele>
      </trkpt>
      <trkpt lat="44.33506" lon="6.87384">
        <time>2023-04-16T12:20:06+00:00</time>
        <ele>2134.0</ele>
      </trkpt>
      <trkpt lat="44.33506" lon="6.87383">
        <time>2023-04-16T12:20:07+00:00</time>
        <ele>2134.0</ele>
      </trkpt>
      <trkpt lat="44.33503" lon="6.87382">
        <time>2023-04-16T12:20:12+00:00</time>
        <ele>2137.0</ele>
      </trkpt>
      <trkpt lat="44.33503" lon="6.87382">
        <time>2023-04-16T12:20:13+00:00</time>
        <ele>2137.0</ele>
      </trkpt>
      <trkpt lat="44.33501" lon="6.87381">
        <time>2023-04-16T12:20:17+00:00</time>
        <ele>2138.0</ele>
      </trkpt>
      <trkpt lat="44.33501" lon="6.87379">
        <time>2023-04-16T12:20:18+00:00</time>
        <ele>2138.0</ele>
      </trkpt>
      <trkpt lat="44.335" lon="6.87379">
        <time>2023-04-16T12:20:19+00:00</time>
        <ele>2139.0</ele>
      </trkpt>
      <trkpt lat="44.33499" lon="6.87379">
        <time>2023-04-16T12:20:20+00:00</time>
        <ele>2140.0</ele>
      </trkpt>
      <trkpt lat="44.33499" lon="6.87379">
        <time>2023-04-16T12:20:21+00:00</time>
        <ele>2140.0</ele>
      </trkpt>
      <trkpt lat="44.33499" lon="6.87377">
        <time>2023-04-16T12:20:24+00:00</time>
        <ele>2140.0</ele>
      </trkpt>
      <trkpt lat="44.335" lon="6.87376">
        <time>2023-04-16T12:20:25+00:00</time>
        <ele>2139.0</ele>
      </trkpt>
      <trkpt lat="44.33502" lon="6.87373">
        <time>2023-04-16T12:20:28+00:00</time>
        <ele>2138.0</ele>
      </trkpt>
      <trkpt lat="44.33503" lon="6.87371">
        <time>2023-04-16T12:20:32+00:00</time>
        <ele>2138.0</ele>
      </trkpt>
      <trkpt lat="44.33503" lon="6.8737">
        <time>2023-04-16T12:20:33+00:00</time>
        <ele>2138.0</ele>
      </trkpt>
      <trkpt lat="44.33502" lon="6.87369">
        <time>2023-04-16T12:20:38+00:00</time>
        <ele>2139.0</ele>
      </trkpt>
      <trkpt lat="44.33502" lon="6.87369">
        <time>2023-04-16T12:20:40+00:00</time>
        <ele>2139.0</ele>
      </trkpt>
      <trkpt lat="44.33502" lon="6.87372">
        <time>2023-04-16T12:21:00+00:00</time>
        <ele>2138.0</ele>
      </trkpt>
      <trkpt lat="44.33502" lon="6.87364">
        <time>2023-04-16T12:21:09+00:00</time>
        <ele>2140.0</ele>
      </trkpt>
      <trkpt lat="44.33502" lon="6.87363">
        <time>2023-04-16T12:21:11+00:00</time>
        <ele>2140.0</ele>
      </trkpt>
      <trkpt lat="44.33503" lon="6.87359">
        <time>2023-04-16T12:21:16+00:00</time>
        <ele>2140.0</ele>
      </trkpt>
      <trkpt lat="44.33504" lon="6.87356">
        <time>2023-04-16T12:21:20+00:00</time>
        <ele>2140.0</ele>
      </trkpt>
      <trkpt lat="44.33504" lon="6.87353">
        <time>2023-04-16T12:21:24+00:00</time>
        <ele>2140.0</ele>
      </trkpt>
      <trkpt lat="44.33504" lon="6.87352">
        <time>2023-04-16T12:21:26+00:00</time>
        <ele>2141.0</ele>
      </trkpt>
      <trkpt lat="44.33504" lon="6.8735">
        <time>2023-04-16T12:21:28+00:00</time>
        <ele>2141.0</ele>
      </trkpt>
      <trkpt lat="44.33503" lon="6.8735">
        <time>2023-04-16T12:21:29+00:00</time>
        <ele>2142.0</ele>
      </trkpt>
      <trkpt lat="44.33502" lon="6.87349">
        <time>2023-04-16T12:21:31+00:00</time>
        <ele>2143.0</ele>
      </trkpt>
      <trkpt lat="44.33502" lon="6.87348">
        <time>2023-04-16T12:21:32+00:00</time>
        <ele>2143.0</ele>
      </trkpt>
      <trkpt lat="44.33502" lon="6.87346">
        <time>2023-04-16T12:21:35+00:00</time>
        <ele>2143.0</ele>
      </trkpt>
      <trkpt lat="44.33501" lon="6.87345">
        <time>2023-04-16T12:21:37+00:00</time>
        <ele>2144.0</ele>
      </trkpt>
      <trkpt lat="44.33501" lon="6.87344">
        <time>2023-04-16T12:21:38+00:00</time>
        <ele>2144.0</ele>
      </trkpt>
      <trkpt lat="44.33501" lon="6.87343">
        <time>2023-04-16T12:21:39+00:00</time>
        <ele>2145.0</ele>
      </trkpt>
      <trkpt lat="44.33501" lon="6.87341">
        <time>2023-04-16T12:21:40+00:00</time>
        <ele>2145.0</ele>
      </trkpt>
      <trkpt lat="44.33502" lon="6.87339">
        <time>2023-04-16T12:21:43+00:00</time>
        <ele>2145.0</ele>
      </trkpt>
      <trkpt lat="44.33502" lon="6.87338">
        <time>2023-04-16T12:21:44+00:00</time>
        <ele>2145.0</ele>
      </trkpt>
      <trkpt lat="44.33502" lon="6.87338">
        <time>2023-04-16T12:21:46+00:00</time>
        <ele>2145.0</ele>
      </trkpt>
      <trkpt lat="44.33502" lon="6.87338">
        <time>2023-04-16T12:21:47+00:00</time>
        <ele>2145.0</ele>
      </trkpt>
      <trkpt lat="44.33503" lon="6.87338">
        <time>2023-04-16T12:21:58+00:00</time>
        <ele>2144.0</ele>
      </trkpt>
      <trkpt lat="44.33505" lon="6.87335">
        <time>2023-04-16T12:22:03+00:00</time>
        <ele>2143.0</ele>
      </trkpt>
      <trkpt lat="44.33506" lon="6.87336">
        <time>2023-04-16T12:22:06+00:00</time>
        <ele>2143.0</ele>
      </trkpt>
      <trkpt lat="44.33507" lon="6.87335">
        <time>2023-04-16T12:22:11+00:00</time>
        <ele>2142.0</ele>
      </trkpt>
      <trkpt lat="44.33507" lon="6.87334">
        <time>2023-04-16T12:22:21+00:00</time>
        <ele>2142.0</ele>
      </trkpt>
      <trkpt lat="44.33506" lon="6.87333">
        <time>2023-04-16T12:22:27+00:00</time>
        <ele>2143.0</ele>
      </trkpt>
      <trkpt lat="44.33501" lon="6.87332">
        <time>2023-04-16T12:22:33+00:00</time>
        <ele>2147.0</ele>
      </trkpt>
      <trkpt lat="44.335" lon="6.87332">
        <time>2023-04-16T12:22:35+00:00</time>
        <ele>2147.0</ele>
      </trkpt>
      <trkpt lat="44.335" lon="6.87332">
        <time>2023-04-16T12:22:36+00:00</time>
        <ele>2147.0</ele>
      </trkpt>
      <trkpt lat="44.33498" lon="6.87331">
        <time>2023-04-16T12:22:38+00:00</time>
        <ele>2149.0</ele>
      </trkpt>
      <trkpt lat="44.33498" lon="6.8733">
        <time>2023-04-16T12:22:39+00:00</time>
        <ele>2149.0</ele>
      </trkpt>
      <trkpt lat="44.33497" lon="6.8733">
        <time>2023-04-16T12:22:40+00:00</time>
        <ele>2149.0</ele>
      </trkpt>
      <trkpt lat="44.33496" lon="6.87329">
        <time>2023-04-16T12:22:41+00:00</time>
        <ele>2150.0</ele>
      </trkpt>
      <trkpt lat="44.33496" lon="6.87329">
        <time>2023-04-16T12:22:42+00:00</time>
        <ele>2150.0</ele>
      </trkpt>
      <trkpt lat="44.33495" lon="6.87329">
        <time>2023-04-16T12:22:44+00:00</time>
        <ele>2151.0</ele>
      </trkpt>
      <trkpt lat="44.33495" lon="6.87328">
        <time>2023-04-16T12:22:45+00:00</time>
        <ele>2151.0</ele>
      </trkpt>
      <trkpt lat="44.33494" lon="6.87329">
        <time>2023-04-16T12:22:46+00:00</time>
        <ele>2151.0</ele>
      </trkpt>
      <trkpt lat="44.33493" lon="6.87329">
        <time>2023-04-16T12:22:47+00:00</time>
        <ele>2152.0</ele>
      </trkpt>
      <trkpt lat="44.33493" lon="6.87327">
        <time>2023-04-16T12:22:48+00:00</time>
        <ele>2153.0</ele>
      </trkpt>
      <trkpt lat="44.33494" lon="6.87325">
        <time>2023-04-16T12:22:50+00:00</time>
        <ele>2152.0</ele>
      </trkpt>
      <trkpt lat="44.33494" lon="6.87324">
        <time>2023-04-16T12:22:51+00:00</time>
        <ele>2152.0</ele>
      </trkpt>
      <trkpt lat="44.33494" lon="6.87323">
        <time>2023-04-16T12:22:52+00:00</time>
        <ele>2152.0</ele>
      </trkpt>
      <trkpt lat="44.33494" lon="6.87322">
        <time>2023-04-16T12:22:53+00:00</time>
        <ele>2153.0</ele>
      </trkpt>
      <trkpt lat="44.33496" lon="6.87319">
        <time>2023-04-16T12:22:58+00:00</time>
        <ele>2152.0</ele>
      </trkpt>
      <trkpt lat="44.33498" lon="6.87316">
        <time>2023-04-16T12:23:04+00:00</time>
        <ele>2152.0</ele>
      </trkpt>
      <trkpt lat="44.33499" lon="6.87315">
        <time>2023-04-16T12:23:05+00:00</time>
        <ele>2151.0</ele>
      </trkpt>
      <trkpt lat="44.335" lon="6.87314">
        <time>2023-04-16T12:23:07+00:00</time>
        <ele>2151.0</ele>
      </trkpt>
      <trkpt lat="44.33501" lon="6.87314">
        <time>2023-04-16T12:23:09+00:00</time>
        <ele>2150.0</ele>
      </trkpt>
      <trkpt lat="44.33502" lon="6.87312">
        <time>2023-04-16T12:23:12+00:00</time>
        <ele>2150.0</ele>
      </trkpt>
      <trkpt lat="44.33502" lon="6.87312">
        <time>2023-04-16T12:23:15+00:00</time>
        <ele>2150.0</ele>
      </trkpt>
      <trkpt lat="44.33502" lon="6.8731">
        <time>2023-04-16T12:23:30+00:00</time>
        <ele>2151.0</ele>
      </trkpt>
      <trkpt lat="44.33503" lon="6.87309">
        <time>2023-04-16T12:23:34+00:00</time>
        <ele>2151.0</ele>
      </trkpt>
      <trkpt lat="44.33501" lon="6.8731">
        <time>2023-04-16T12:23:49+00:00</time>
        <ele>2151.0</ele>
      </trkpt>
      <trkpt lat="44.33504" lon="6.87308">
        <time>2023-04-16T12:23:53+00:00</time>
        <ele>2150.0</ele>
      </trkpt>
      <trkpt lat="44.33503" lon="6.87306">
        <time>2023-04-16T12:23:57+00:00</time>
        <ele>2151.0</ele>
      </trkpt>
      <trkpt lat="44.33502" lon="6.87306">
        <time>2023-04-16T12:23:58+00:00</time>
        <ele>2152.0</ele>
      </trkpt>
      <trkpt lat="44.33501" lon="6.87306">
        <time>2023-04-16T12:24:00+00:00</time>
        <ele>2152.0</ele>
      </trkpt>
      <trkpt lat="44.33495" lon="6.87309">
        <time>2023-04-16T12:24:03+00:00</time>
        <ele>2154.0</ele>
      </trkpt>
      <trkpt lat="44.33495" lon="6.87308">
        <time>2023-04-16T12:24:05+00:00</time>
        <ele>2155.0</ele>
      </trkpt>
      <trkpt lat="44.33496" lon="6.87306">
        <time>2023-04-16T12:24:07+00:00</time>
        <ele>2155.0</ele>
      </trkpt>
      <trkpt lat="44.33497" lon="6.87303">
        <time>2023-04-16T12:24:09+00:00</time>
        <ele>2155.0</ele>
      </trkpt>
      <trkpt lat="44.33497" lon="6.873">
        <time>2023-04-16T12:24:11+00:00</time>
        <ele>2155.0</ele>
      </trkpt>
      <trkpt lat="44.33498" lon="6.87298">
        <time>2023-04-16T12:24:14+00:00</time>
        <ele>2155.0</ele>
      </trkpt>
      <trkpt lat="44.33499" lon="6.87297">
        <time>2023-04-16T12:24:16+00:00</time>
        <ele>2155.0</ele>
      </trkpt>
      <trkpt lat="44.33499" lon="6.87296">
        <time>2023-04-16T12:24:17+00:00</time>
        <ele>2155.0</ele>
      </trkpt>
      <trkpt lat="44.335" lon="6.87296">
        <time>2023-04-16T12:24:18+00:00</time>
        <ele>2155.0</ele>
      </trkpt>
      <trkpt lat="44.335" lon="6.87296">
        <time>2023-04-16T12:24:19+00:00</time>
        <ele>2155.0</ele>
      </trkpt>
      <trkpt lat="44.33501" lon="6.87294">
        <time>2023-04-16T12:24:21+00:00</time>
        <ele>2155.0</ele>
      </trkpt>
      <trkpt lat="44.33501" lon="6.87294">
        <time>2023-04-16T12:24:24+00:00</time>
        <ele>2155.0</ele>
      </trkpt>
      <trkpt lat="44.33501" lon="6.87294">
        <time>2023-04-16T12:24:25+00:00</time>
        <ele>2155.0</ele>
      </trkpt>
      <trkpt lat="44.33502" lon="6.87293">
        <time>2023-04-16T12:24:26+00:00</time>
        <ele>2155.0</ele>
      </trkpt>
      <trkpt lat="44.33502" lon="6.87293">
        <time>2023-04-16T12:24:31+00:00</time>
        <ele>2155.0</ele>
      </trkpt>
      <trkpt lat="44.33502" lon="6.87293">
        <time>2023-04-16T12:24:32+00:00</time>
        <ele>2155.0</ele>
      </trkpt>
      <trkpt lat="44.33503" lon="6.87292">
        <time>2023-04-16T12:24:35+00:00</time>
        <ele>2155.0</ele>
      </trkpt>
      <trkpt lat="44.33501" lon="6.87294">
        <time>2023-04-16T12:24:43+00:00</time>
        <ele>2155.0</ele>
      </trkpt>
      <trkpt lat="44.33502" lon="6.87293">
        <time>2023-04-16T12:24:55+00:00</time>
        <ele>2155.0</ele>
      </trkpt>
      <trkpt lat="44.33505" lon="6.87288">
        <time>2023-04-16T12:25:02+00:00</time>
        <ele>2156.0</ele>
      </trkpt>
      <trkpt lat="44.33504" lon="6.87288">
        <time>2023-04-16T12:25:03+00:00</time>
        <ele>2157.0</ele>
      </trkpt>
      <trkpt lat="44.33502" lon="6.87286">
        <time>2023-04-16T12:25:08+00:00</time>
        <ele>2158.0</ele>
      </trkpt>
      <trkpt lat="44.33502" lon="6.87284">
        <time>2023-04-16T12:25:10+00:00</time>
        <ele>2159.0</ele>
      </trkpt>
      <trkpt lat="44.33501" lon="6.87282">
        <time>2023-04-16T12:25:15+00:00</time>
        <ele>2160.0</ele>
      </trkpt>
      <trkpt lat="44.33501" lon="6.87281">
        <time>2023-04-16T12:25:16+00:00</time>
        <ele>2160.0</ele>
      </trkpt>
      <trkpt lat="44.33503" lon="6.87278">
        <time>2023-04-16T12:25:19+00:00</time>
        <ele>2161.0</ele>
      </trkpt>
      <trkpt lat="44.33503" lon="6.87277">
        <time>2023-04-16T12:25:20+00:00</time>
        <ele>2161.0</ele>
      </trkpt>
      <trkpt lat="44.33504" lon="6.87276">
        <time>2023-04-16T12:25:22+00:00</time>
        <ele>2161.0</ele>
      </trkpt>
      <trkpt lat="44.33502" lon="6.87273">
        <time>2023-04-16T12:25:30+00:00</time>
        <ele>2163.0</ele>
      </trkpt>
      <trkpt lat="44.335" lon="6.87272">
        <time>2023-04-16T12:25:32+00:00</time>
        <ele>2164.0</ele>
      </trkpt>
      <trkpt lat="44.335" lon="6.87272">
        <time>2023-04-16T12:25:33+00:00</time>
        <ele>2164.0</ele>
      </trkpt>
      <trkpt lat="44.33498" lon="6.87269">
        <time>2023-04-16T12:25:37+00:00</time>
        <ele>2165.0</ele>
      </trkpt>
      <trkpt lat="44.33496" lon="6.87268">
        <time>2023-04-16T12:25:39+00:00</time>
        <ele>2166.0</ele>
      </trkpt>
      <trkpt lat="44.33495" lon="6.87269">
        <time>2023-04-16T12:25:40+00:00</time>
        <ele>2166.0</ele>
      </trkpt>
      <trkpt lat="44.33493" lon="6.87268">
        <time>2023-04-16T12:25:42+00:00</time>
        <ele>2167.0</ele>
      </trkpt>
      <trkpt lat="44.33493" lon="6.87266">
        <time>2023-04-16T12:25:46+00:00</time>
        <ele>2168.0</ele>
      </trkpt>
      <trkpt lat="44.33494" lon="6.87266">
        <time>2023-04-16T12:25:47+00:00</time>
        <ele>2167.0</ele>
      </trkpt>
      <trkpt lat="44.33494" lon="6.87265">
        <time>2023-04-16T12:25:49+00:00</time>
        <ele>2167.0</ele>
      </trkpt>
      <trkpt lat="44.33498" lon="6.87261">
        <time>2023-04-16T12:26:00+00:00</time>
        <ele>2168.0</ele>
      </trkpt>
      <trkpt lat="44.33498" lon="6.87263">
        <time>2023-04-16T12:26:03+00:00</time>
        <ele>2167.0</ele>
      </trkpt>
      <trkpt lat="44.33498" lon="6.87263">
        <time>2023-04-16T12:26:04+00:00</time>
        <ele>2167.0</ele>
      </trkpt>
      <trkpt lat="44.33498" lon="6.87263">
        <time>2023-04-16T12:26:05+00:00</time>
        <ele>2167.0</ele>
      </trkpt>
      <trkpt lat="44.33498" lon="6.87263">
        <time>2023-04-16T12:26:06+00:00</time>
        <ele>2167.0</ele>
      </trkpt>
      <trkpt lat="44.33498" lon="6.87263">
        <time>2023-04-16T12:26:08+00:00</time>
        <ele>2167.0</ele>
      </trkpt>
      <trkpt lat="44.335" lon="6.87264">
        <time>2023-04-16T12:26:10+00:00</time>
        <ele>2166.0</ele>
      </trkpt>
      <trkpt lat="44.335" lon="6.87265">
        <time>2023-04-16T12:26:12+00:00</time>
        <ele>2166.0</ele>
      </trkpt>
      <trkpt lat="44.33495" lon="6.87262">
        <time>2023-04-16T12:26:15+00:00</time>
        <ele>2168.0</ele>
      </trkpt>
      <trkpt lat="44.33495" lon="6.87263">
        <time>2023-04-16T12:26:16+00:00</time>
        <ele>2168.0</ele>
      </trkpt>
      <trkpt lat="44.33495" lon="6.87264">
        <time>2023-04-16T12:26:17+00:00</time>
        <ele>2168.0</ele>
      </trkpt>
      <trkpt lat="44.33495" lon="6.87265">
        <time>2023-04-16T12:26:18+00:00</time>
        <ele>2167.0</ele>
      </trkpt>
      <trkpt lat="44.33495" lon="6.87265">
        <time>2023-04-16T12:26:19+00:00</time>
        <ele>2167.0</ele>
      </trkpt>
      <trkpt lat="44.33495" lon="6.87264">
        <time>2023-04-16T12:26:23+00:00</time>
        <ele>2168.0</ele>
      </trkpt>
      <trkpt lat="44.33495" lon="6.87263">
        <time>2023-04-16T12:26:27+00:00</time>
        <ele>2168.0</ele>
      </trkpt>
      <trkpt lat="44.33496" lon="6.87261">
        <time>2023-04-16T12:26:29+00:00</time>
        <ele>2168.0</ele>
      </trkpt>
      <trkpt lat="44.33498" lon="6.8726">
        <time>2023-04-16T12:26:31+00:00</time>
        <ele>2168.0</ele>
      </trkpt>
      <trkpt lat="44.33503" lon="6.87252">
        <time>2023-04-16T12:26:41+00:00</time>
        <ele>2170.0</ele>
      </trkpt>
      <trkpt lat="44.33507" lon="6.87248">
        <time>2023-04-16T12:26:48+00:00</time>
        <ele>2170.0</ele>
      </trkpt>
      <trkpt lat="44.33507" lon="6.87247">
        <time>2023-04-16T12:26:52+00:00</time>
        <ele>2170.0</ele>
      </trkpt>
      <trkpt lat="44.33503" lon="6.87241">
        <time>2023-04-16T12:27:02+00:00</time>
        <ele>2173.0</ele>
      </trkpt>
      <trkpt lat="44.33503" lon="6.87239">
        <time>2023-04-16T12:27:03+00:00</time>
        <ele>2174.0</ele>
      </trkpt>
      <trkpt lat="44.33503" lon="6.87239">
        <time>2023-04-16T12:27:09+00:00</time>
        <ele>2174.0</ele>
      </trkpt>
      <trkpt lat="44.33503" lon="6.87239">
        <time>2023-04-16T12:27:11+00:00</time>
        <ele>2174.0</ele>
      </trkpt>
      <trkpt lat="44.33502" lon="6.87239">
        <time>2023-04-16T12:27:15+00:00</time>
        <ele>2174.0</ele>
      </trkpt>
      <trkpt lat="44.33503" lon="6.8724">
        <time>2023-04-16T12:27:23+00:00</time>
        <ele>2173.0</ele>
      </trkpt>
      <trkpt lat="44.33504" lon="6.87242">
        <time>2023-04-16T12:27:25+00:00</time>
        <ele>2173.0</ele>
      </trkpt>
      <trkpt lat="44.33504" lon="6.87241">
        <time>2023-04-16T12:27:32+00:00</time>
        <ele>2173.0</ele>
      </trkpt>
      <trkpt lat="44.33505" lon="6.87238">
        <time>2023-04-16T12:27:39+00:00</time>
        <ele>2174.0</ele>
      </trkpt>
      <trkpt lat="44.33505" lon="6.87236">
        <time>2023-04-16T12:27:43+00:00</time>
        <ele>2174.0</ele>
      </trkpt>
      <trkpt lat="44.33506" lon="6.87235">
        <time>2023-04-16T12:27:45+00:00</time>
        <ele>2174.0</ele>
      </trkpt>
      <trkpt lat="44.33507" lon="6.87235">
        <time>2023-04-16T12:27:48+00:00</time>
        <ele>2174.0</ele>
      </trkpt>
      <trkpt lat="44.33508" lon="6.87234">
        <time>2023-04-16T12:27:50+00:00</time>
        <ele>2174.0</ele>
      </trkpt>
      <trkpt lat="44.3351" lon="6.87231">
        <time>2023-04-16T12:27:56+00:00</time>
        <ele>2175.0</ele>
      </trkpt>
      <trkpt lat="44.33511" lon="6.8723">
        <time>2023-04-16T12:27:58+00:00</time>
        <ele>2175.0</ele>
      </trkpt>
      <trkpt lat="44.33512" lon="6.87229">
        <time>2023-04-16T12:28:00+00:00</time>
        <ele>2175.0</ele>
      </trkpt>
      <trkpt lat="44.33512" lon="6.87227">
        <time>2023-04-16T12:28:05+00:00</time>
        <ele>2175.0</ele>
      </trkpt>
      <trkpt lat="44.33512" lon="6.87226">
        <time>2023-04-16T12:28:06+00:00</time>
        <ele>2176.0</ele>
      </trkpt>
      <trkpt lat="44.33512" lon="6.87224">
        <time>2023-04-16T12:28:08+00:00</time>
        <ele>2176.0</ele>
      </trkpt>
      <trkpt lat="44.33511" lon="6.87223">
        <time>2023-04-16T12:28:09+00:00</time>
        <ele>2177.0</ele>
      </trkpt>
      <trkpt lat="44.33511" lon="6.8722">
        <time>2023-04-16T12:28:12+00:00</time>
        <ele>2178.0</ele>
      </trkpt>
      <trkpt lat="44.3351" lon="6.87217">
        <time>2023-04-16T12:28:16+00:00</time>
        <ele>2179.0</ele>
      </trkpt>
      <trkpt lat="44.33507" lon="6.87216">
        <time>2023-04-16T12:28:20+00:00</time>
        <ele>2180.0</ele>
      </trkpt>
      <trkpt lat="44.33506" lon="6.87215">
        <time>2023-04-16T12:28:22+00:00</time>
        <ele>2180.0</ele>
      </trkpt>
      <trkpt lat="44.33508" lon="6.87214">
        <time>2023-04-16T12:28:26+00:00</time>
        <ele>2180.0</ele>
      </trkpt>
      <trkpt lat="44.33508" lon="6.87214">
        <time>2023-04-16T12:28:28+00:00</time>
        <ele>2180.0</ele>
      </trkpt>
      <trkpt lat="44.33508" lon="6.87214">
        <time>2023-04-16T12:28:30+00:00</time>
        <ele>2180.0</ele>
      </trkpt>
      <trkpt lat="44.33508" lon="6.87214">
        <time>2023-04-16T12:28:39+00:00</time>
        <ele>2180.0</ele>
      </trkpt>
      <trkpt lat="44.33508" lon="6.87214">
        <time>2023-04-16T12:28:42+00:00</time>
        <ele>2180.0</ele>
      </trkpt>
      <trkpt lat="44.33508" lon="6.87215">
        <time>2023-04-16T12:28:44+00:00</time>
        <ele>2180.0</ele>
      </trkpt>
      <trkpt lat="44.33508" lon="6.87215">
        <time>2023-04-16T12:28:46+00:00</time>
        <ele>2180.0</ele>
      </trkpt>
      <trkpt lat="44.33508" lon="6.87216">
        <time>2023-04-16T12:28:48+00:00</time>
        <ele>2179.0</ele>
      </trkpt>
      <trkpt lat="44.3351" lon="6.87216">
        <time>2023-04-16T12:29:05+00:00</time>
        <ele>2179.0</ele>
      </trkpt>
      <trkpt lat="44.33515" lon="6.87213">
        <time>2023-04-16T12:29:13+00:00</time>
        <ele>2180.0</ele>
      </trkpt>
      <trkpt lat="44.33516" lon="6.87211">
        <time>2023-04-16T12:29:17+00:00</time>
        <ele>2181.0</ele>
      </trkpt>
      <trkpt lat="44.33518" lon="6.87211">
        <time>2023-04-16T12:29:21+00:00</time>
        <ele>2181.0</ele>
      </trkpt>
      <trkpt lat="44.33519" lon="6.87211">
        <time>2023-04-16T12:29:22+00:00</time>
        <ele>2182.0</ele>
      </trkpt>
      <trkpt lat="44.3352" lon="6.87211">
        <time>2023-04-16T12:29:23+00:00</time>
        <ele>2182.0</ele>
      </trkpt>
      <trkpt lat="44.3352" lon="6.87211">
        <time>2023-04-16T12:29:24+00:00</time>
        <ele>2182.0</ele>
      </trkpt>
      <trkpt lat="44.33521" lon="6.87208">
        <time>2023-04-16T12:29:29+00:00</time>
        <ele>2184.0</ele>
      </trkpt>
      <trkpt lat="44.33521" lon="6.87207">
        <time>2023-04-16T12:29:30+00:00</time>
        <ele>2184.0</ele>
      </trkpt>
      <trkpt lat="44.33521" lon="6.87206">
        <time>2023-04-16T12:29:31+00:00</time>
        <ele>2184.0</ele>
      </trkpt>
      <trkpt lat="44.33521" lon="6.87204">
        <time>2023-04-16T12:29:33+00:00</time>
        <ele>2185.0</ele>
      </trkpt>
      <trkpt lat="44.3352" lon="6.87202">
        <time>2023-04-16T12:29:36+00:00</time>
        <ele>2185.0</ele>
      </trkpt>
      <trkpt lat="44.3352" lon="6.87202">
        <time>2023-04-16T12:29:37+00:00</time>
        <ele>2185.0</ele>
      </trkpt>
      <trkpt lat="44.33519" lon="6.872">
        <time>2023-04-16T12:29:39+00:00</time>
        <ele>2186.0</ele>
      </trkpt>
      <trkpt lat="44.33519" lon="6.87198">
        <time>2023-04-16T12:29:41+00:00</time>
        <ele>2187.0</ele>
      </trkpt>
      <trkpt lat="44.33518" lon="6.87196">
        <time>2023-04-16T12:29:44+00:00</time>
        <ele>2187.0</ele>
      </trkpt>
      <trkpt lat="44.33517" lon="6.87195">
        <time>2023-04-16T12:29:46+00:00</time>
        <ele>2187.0</ele>
      </trkpt>
      <trkpt lat="44.33515" lon="6.87193">
        <time>2023-04-16T12:29:52+00:00</time>
        <ele>2188.0</ele>
      </trkpt>
      <trkpt lat="44.33514" lon="6.87193">
        <time>2023-04-16T12:29:54+00:00</time>
        <ele>2187.0</ele>
      </trkpt>
      <trkpt lat="44.33514" lon="6.87194">
        <time>2023-04-16T12:29:55+00:00</time>
        <ele>2187.0</ele>
      </trkpt>
      <trkpt lat="44.33513" lon="6.87194">
        <time>2023-04-16T12:30:02+00:00</time>
        <ele>2187.0</ele>
      </trkpt>
      <trkpt lat="44.33514" lon="6.87194">
        <time>2023-04-16T12:30:11+00:00</time>
        <ele>2187.0</ele>
      </trkpt>
      <trkpt lat="44.33514" lon="6.87193">
        <time>2023-04-16T12:30:18+00:00</time>
        <ele>2187.0</ele>
      </trkpt>
      <trkpt lat="44.33514" lon="6.87193">
        <time>2023-04-16T12:30:26+00:00</time>
        <ele>2187.0</ele>
      </trkpt>
      <trkpt lat="44.33514" lon="6.87193">
        <time>2023-04-16T12:30:33+00:00</time>
        <ele>2187.0</ele>
      </trkpt>
      <trkpt lat="44.33514" lon="6.87193">
        <time>2023-04-16T12:30:39+00:00</time>
        <ele>2187.0</ele>
      </trkpt>
      <trkpt lat="44.33514" lon="6.87192">
        <time>2023-04-16T12:30:40+00:00</time>
        <ele>2188.0</ele>
      </trkpt>
      <trkpt lat="44.33516" lon="6.8719">
        <time>2023-04-16T12:30:43+00:00</time>
        <ele>2189.0</ele>
      </trkpt>
      <trkpt lat="44.33516" lon="6.87189">
        <time>2023-04-16T12:30:45+00:00</time>
        <ele>2189.0</ele>
      </trkpt>
      <trkpt lat="44.33518" lon="6.87187">
        <time>2023-04-16T12:30:49+00:00</time>
        <ele>2190.0</ele>
      </trkpt>
      <trkpt lat="44.3352" lon="6.87186">
        <time>2023-04-16T12:30:51+00:00</time>
        <ele>2191.0</ele>
      </trkpt>
      <trkpt lat="44.3352" lon="6.87186">
        <time>2023-04-16T12:30:52+00:00</time>
        <ele>2191.0</ele>
      </trkpt>
      <trkpt lat="44.33522" lon="6.87185">
        <time>2023-04-16T12:30:54+00:00</time>
        <ele>2192.0</ele>
      </trkpt>
      <trkpt lat="44.33524" lon="6.87184">
        <time>2023-04-16T12:30:57+00:00</time>
        <ele>2192.0</ele>
      </trkpt>
      <trkpt lat="44.33526" lon="6.87182">
        <time>2023-04-16T12:31:01+00:00</time>
        <ele>2193.0</ele>
      </trkpt>
      <trkpt lat="44.33529" lon="6.8718">
        <time>2023-04-16T12:31:09+00:00</time>
        <ele>2194.0</ele>
      </trkpt>
      <trkpt lat="44.33529" lon="6.8718">
        <time>2023-04-16T12:31:12+00:00</time>
        <ele>2194.0</ele>
      </trkpt>
      <trkpt lat="44.33529" lon="6.8718">
        <time>2023-04-16T12:31:14+00:00</time>
        <ele>2194.0</ele>
      </trkpt>
      <trkpt lat="44.33529" lon="6.87181">
        <time>2023-04-16T12:31:16+00:00</time>
        <ele>2194.0</ele>
      </trkpt>
      <trkpt lat="44.33529" lon="6.87181">
        <time>2023-04-16T12:31:20+00:00</time>
        <ele>2194.0</ele>
      </trkpt>
      <trkpt lat="44.33529" lon="6.87181">
        <time>2023-04-16T12:31:23+00:00</time>
        <ele>2194.0</ele>
      </trkpt>
      <trkpt lat="44.33529" lon="6.8718">
        <time>2023-04-16T12:31:25+00:00</time>
        <ele>2194.0</ele>
      </trkpt>
      <trkpt lat="44.33529" lon="6.87179">
        <time>2023-04-16T12:31:27+00:00</time>
        <ele>2195.0</ele>
      </trkpt>
      <trkpt lat="44.33529" lon="6.87178">
        <time>2023-04-16T12:31:28+00:00</time>
        <ele>2195.0</ele>
      </trkpt>
      <trkpt lat="44.33529" lon="6.87177">
        <time>2023-04-16T12:31:29+00:00</time>
        <ele>2195.0</ele>
      </trkpt>
      <trkpt lat="44.33529" lon="6.87176">
        <time>2023-04-16T12:31:30+00:00</time>
        <ele>2196.0</ele>
      </trkpt>
      <trkpt lat="44.33529" lon="6.87174">
        <time>2023-04-16T12:31:32+00:00</time>
        <ele>2196.0</ele>
      </trkpt>
      <trkpt lat="44.33528" lon="6.87172">
        <time>2023-04-16T12:31:34+00:00</time>
        <ele>2197.0</ele>
      </trkpt>
      <trkpt lat="44.33528" lon="6.8717">
        <time>2023-04-16T12:31:36+00:00</time>
        <ele>2197.0</ele>
      </trkpt>
      <trkpt lat="44.33525" lon="6.87163">
        <time>2023-04-16T12:31:48+00:00</time>
        <ele>2200.0</ele>
      </trkpt>
      <trkpt lat="44.33525" lon="6.87162">
        <time>2023-04-16T12:31:49+00:00</time>
        <ele>2200.0</ele>
      </trkpt>
      <trkpt lat="44.33524" lon="6.8716">
        <time>2023-04-16T12:31:54+00:00</time>
        <ele>2201.0</ele>
      </trkpt>
      <trkpt lat="44.33523" lon="6.8716">
        <time>2023-04-16T12:31:55+00:00</time>
        <ele>2201.0</ele>
      </trkpt>
      <trkpt lat="44.33523" lon="6.8716">
        <time>2023-04-16T12:31:56+00:00</time>
        <ele>2201.0</ele>
      </trkpt>
      <trkpt lat="44.3352" lon="6.8716">
        <time>2023-04-16T12:32:00+00:00</time>
        <ele>2201.0</ele>
      </trkpt>
      <trkpt lat="44.33519" lon="6.87159">
        <time>2023-04-16T12:32:02+00:00</time>
        <ele>2201.0</ele>
      </trkpt>
      <trkpt lat="44.33517" lon="6.87158">
        <time>2023-04-16T12:32:07+00:00</time>
        <ele>2202.0</ele>
      </trkpt>
      <trkpt lat="44.33508" lon="6.87158">
        <time>2023-04-16T12:32:21+00:00</time>
        <ele>2203.0</ele>
      </trkpt>
      <trkpt lat="44.33507" lon="6.87158">
        <time>2023-04-16T12:32:23+00:00</time>
        <ele>2203.0</ele>
      </trkpt>
      <trkpt lat="44.33506" lon="6.87158">
        <time>2023-04-16T12:32:26+00:00</time>
        <ele>2204.0</ele>
      </trkpt>
      <trkpt lat="44.33507" lon="6.87157">
        <time>2023-04-16T12:32:30+00:00</time>
        <ele>2204.0</ele>
      </trkpt>
      <trkpt lat="44.33507" lon="6.87157">
        <time>2023-04-16T12:32:32+00:00</time>
        <ele>2204.0</ele>
      </trkpt>
      <trkpt lat="44.33507" lon="6.87157">
        <time>2023-04-16T12:32:34+00:00</time>
        <ele>2204.0</ele>
      </trkpt>
      <trkpt lat="44.33507" lon="6.87157">
        <time>2023-04-16T12:32:36+00:00</time>
        <ele>2204.0</ele>
      </trkpt>
      <trkpt lat="44.33507" lon="6.87157">
        <time>2023-04-16T12:32:38+00:00</time>
        <ele>2204.0</ele>
      </trkpt>
      <trkpt lat="44.33507" lon="6.87157">
        <time>2023-04-16T12:32:40+00:00</time>
        <ele>2204.0</ele>
      </trkpt>
      <trkpt lat="44.33507" lon="6.87157">
        <time>2023-04-16T12:32:43+00:00</time>
        <ele>2204.0</ele>
      </trkpt>
      <trkpt lat="44.33507" lon="6.87157">
        <time>2023-04-16T12:32:44+00:00</time>
        <ele>2204.0</ele>
      </trkpt>
      <trkpt lat="44.33507" lon="6.87157">
        <time>2023-04-16T12:32:45+00:00</time>
        <ele>2204.0</ele>
      </trkpt>
      <trkpt lat="44.33507" lon="6.87157">
        <time>2023-04-16T12:32:46+00:00</time>
        <ele>2204.0</ele>
      </trkpt>
      <trkpt lat="44.33507" lon="6.87157">
        <time>2023-04-16T12:32:47+00:00</time>
        <ele>2204.0</ele>
      </trkpt>
      <trkpt lat="44.33507" lon="6.87157">
        <time>2023-04-16T12:32:49+00:00</time>
        <ele>2204.0</ele>
      </trkpt>
      <trkpt lat="44.33507" lon="6.87157">
        <time>2023-04-16T12:32:53+00:00</time>
        <ele>2204.0</ele>
      </trkpt>
      <trkpt lat="44.33507" lon="6.87157">
        <time>2023-04-16T12:32:55+00:00</time>
        <ele>2204.0</ele>
      </trkpt>
      <trkpt lat="44.33505" lon="6.87157">
        <time>2023-04-16T12:32:58+00:00</time>
        <ele>2204.0</ele>
      </trkpt>
      <trkpt lat="44.33503" lon="6.87157">
        <time>2023-04-16T12:33:02+00:00</time>
        <ele>2205.0</ele>
      </trkpt>
      <trkpt lat="44.33503" lon="6.87157">
        <time>2023-04-16T12:33:03+00:00</time>
        <ele>2205.0</ele>
      </trkpt>
      <trkpt lat="44.33499" lon="6.87156">
        <time>2023-04-16T12:33:08+00:00</time>
        <ele>2207.0</ele>
      </trkpt>
      <trkpt lat="44.33497" lon="6.87157">
        <time>2023-04-16T12:33:10+00:00</time>
        <ele>2207.0</ele>
      </trkpt>
      <trkpt lat="44.33497" lon="6.87157">
        <time>2023-04-16T12:33:11+00:00</time>
        <ele>2207.0</ele>
      </trkpt>
      <trkpt lat="44.33496" lon="6.87157">
        <time>2023-04-16T12:33:12+00:00</time>
        <ele>2207.0</ele>
      </trkpt>
      <trkpt lat="44.33495" lon="6.87158">
        <time>2023-04-16T12:33:14+00:00</time>
        <ele>2207.0</ele>
      </trkpt>
      <trkpt lat="44.33494" lon="6.87158">
        <time>2023-04-16T12:33:15+00:00</time>
        <ele>2207.0</ele>
      </trkpt>
      <trkpt lat="44.33493" lon="6.87158">
        <time>2023-04-16T12:33:16+00:00</time>
        <ele>2208.0</ele>
      </trkpt>
      <trkpt lat="44.33493" lon="6.87159">
        <time>2023-04-16T12:33:17+00:00</time>
        <ele>2208.0</ele>
      </trkpt>
      <trkpt lat="44.33491" lon="6.8716">
        <time>2023-04-16T12:33:19+00:00</time>
        <ele>2208.0</ele>
      </trkpt>
      <trkpt lat="44.3349" lon="6.8716">
        <time>2023-04-16T12:33:21+00:00</time>
        <ele>2209.0</ele>
      </trkpt>
      <trkpt lat="44.33489" lon="6.87161">
        <time>2023-04-16T12:33:23+00:00</time>
        <ele>2209.0</ele>
      </trkpt>
      <trkpt lat="44.33489" lon="6.87162">
        <time>2023-04-16T12:33:25+00:00</time>
        <ele>2208.0</ele>
      </trkpt>
      <trkpt lat="44.33487" lon="6.87163">
        <time>2023-04-16T12:33:28+00:00</time>
        <ele>2209.0</ele>
      </trkpt>
      <trkpt lat="44.33486" lon="6.87163">
        <time>2023-04-16T12:33:29+00:00</time>
        <ele>2210.0</ele>
      </trkpt>
      <trkpt lat="44.33486" lon="6.87163">
        <time>2023-04-16T12:33:30+00:00</time>
        <ele>2210.0</ele>
      </trkpt>
      <trkpt lat="44.33486" lon="6.87163">
        <time>2023-04-16T12:33:31+00:00</time>
        <ele>2210.0</ele>
      </trkpt>
      <trkpt lat="44.33485" lon="6.87164">
        <time>2023-04-16T12:33:32+00:00</time>
        <ele>2210.0</ele>
      </trkpt>
      <trkpt lat="44.33484" lon="6.87164">
        <time>2023-04-16T12:33:33+00:00</time>
        <ele>2210.0</ele>
      </trkpt>
      <trkpt lat="44.33483" lon="6.87164">
        <time>2023-04-16T12:33:36+00:00</time>
        <ele>2211.0</ele>
      </trkpt>
      <trkpt lat="44.33483" lon="6.87165">
        <time>2023-04-16T12:33:37+00:00</time>
        <ele>2211.0</ele>
      </trkpt>
      <trkpt lat="44.33481" lon="6.87166">
        <time>2023-04-16T12:33:38+00:00</time>
        <ele>2211.0</ele>
      </trkpt>
      <trkpt lat="44.33481" lon="6.87167">
        <time>2023-04-16T12:33:39+00:00</time>
        <ele>2211.0</ele>
      </trkpt>
      <trkpt lat="44.3348" lon="6.87168">
        <time>2023-04-16T12:33:41+00:00</time>
        <ele>2211.0</ele>
      </trkpt>
      <trkpt lat="44.33479" lon="6.87169">
        <time>2023-04-16T12:33:42+00:00</time>
        <ele>2211.0</ele>
      </trkpt>
      <trkpt lat="44.33479" lon="6.87169">
        <time>2023-04-16T12:33:43+00:00</time>
        <ele>2211.0</ele>
      </trkpt>
      <trkpt lat="44.33478" lon="6.8717">
        <time>2023-04-16T12:33:44+00:00</time>
        <ele>2211.0</ele>
      </trkpt>
      <trkpt lat="44.33478" lon="6.87171">
        <time>2023-04-16T12:33:45+00:00</time>
        <ele>2211.0</ele>
      </trkpt>
      <trkpt lat="44.33478" lon="6.87171">
        <time>2023-04-16T12:33:46+00:00</time>
        <ele>2211.0</ele>
      </trkpt>
      <trkpt lat="44.33477" lon="6.87171">
        <time>2023-04-16T12:33:47+00:00</time>
        <ele>2212.0</ele>
      </trkpt>
      <trkpt lat="44.33477" lon="6.87171">
        <time>2023-04-16T12:33:48+00:00</time>
        <ele>2212.0</ele>
      </trkpt>
      <trkpt lat="44.33477" lon="6.87172">
        <time>2023-04-16T12:33:49+00:00</time>
        <ele>2211.0</ele>
      </trkpt>
      <trkpt lat="44.33477" lon="6.87171">
        <time>2023-04-16T12:33:53+00:00</time>
        <ele>2212.0</ele>
      </trkpt>
      <trkpt lat="44.33477" lon="6.87171">
        <time>2023-04-16T12:33:55+00:00</time>
        <ele>2212.0</ele>
      </trkpt>
      <trkpt lat="44.33476" lon="6.87171">
        <time>2023-04-16T12:33:58+00:00</time>
        <ele>2212.0</ele>
      </trkpt>
      <trkpt lat="44.33476" lon="6.87171">
        <time>2023-04-16T12:34:00+00:00</time>
        <ele>2212.0</ele>
      </trkpt>
      <trkpt lat="44.33476" lon="6.87171">
        <time>2023-04-16T12:34:01+00:00</time>
        <ele>2212.0</ele>
      </trkpt>
      <trkpt lat="44.33476" lon="6.8717">
        <time>2023-04-16T12:34:09+00:00</time>
        <ele>2213.0</ele>
      </trkpt>
      <trkpt lat="44.33473" lon="6.87172">
        <time>2023-04-16T12:34:32+00:00</time>
        <ele>2214.0</ele>
      </trkpt>
      <trkpt lat="44.33472" lon="6.87173">
        <time>2023-04-16T12:34:34+00:00</time>
        <ele>2214.0</ele>
      </trkpt>
      <trkpt lat="44.33467" lon="6.87175">
        <time>2023-04-16T12:34:41+00:00</time>
        <ele>2216.0</ele>
      </trkpt>
      <trkpt lat="44.33466" lon="6.87176">
        <time>2023-04-16T12:34:43+00:00</time>
        <ele>2216.0</ele>
      </trkpt>
      <trkpt lat="44.33466" lon="6.87176">
        <time>2023-04-16T12:34:44+00:00</time>
        <ele>2216.0</ele>
      </trkpt>
      <trkpt lat="44.33461" lon="6.87177">
        <time>2023-04-16T12:34:52+00:00</time>
        <ele>2219.0</ele>
      </trkpt>
      <trkpt lat="44.33459" lon="6.87179">
        <time>2023-04-16T12:34:55+00:00</time>
        <ele>2219.0</ele>
      </trkpt>
      <trkpt lat="44.33457" lon="6.87181">
        <time>2023-04-16T12:35:00+00:00</time>
        <ele>2220.0</ele>
      </trkpt>
      <trkpt lat="44.33455" lon="6.87183">
        <time>2023-04-16T12:35:04+00:00</time>
        <ele>2220.0</ele>
      </trkpt>
      <trkpt lat="44.33454" lon="6.87186">
        <time>2023-04-16T12:35:07+00:00</time>
        <ele>2220.0</ele>
      </trkpt>
      <trkpt lat="44.33454" lon="6.87187">
        <time>2023-04-16T12:35:08+00:00</time>
        <ele>2219.0</ele>
      </trkpt>
      <trkpt lat="44.33454" lon="6.87187">
        <time>2023-04-16T12:35:09+00:00</time>
        <ele>2219.0</ele>
      </trkpt>
      <trkpt lat="44.33454" lon="6.87187">
        <time>2023-04-16T12:35:10+00:00</time>
        <ele>2219.0</ele>
      </trkpt>
      <trkpt lat="44.33453" lon="6.87188">
        <time>2023-04-16T12:35:11+00:00</time>
        <ele>2219.0</ele>
      </trkpt>
      <trkpt lat="44.33451" lon="6.8719">
        <time>2023-04-16T12:35:15+00:00</time>
        <ele>2219.0</ele>
      </trkpt>
      <trkpt lat="44.3345" lon="6.8719">
        <time>2023-04-16T12:35:17+00:00</time>
        <ele>2220.0</ele>
      </trkpt>
      <trkpt lat="44.33447" lon="6.87189">
        <time>2023-04-16T12:35:20+00:00</time>
        <ele>2222.0</ele>
      </trkpt>
      <trkpt lat="44.33447" lon="6.87187">
        <time>2023-04-16T12:35:21+00:00</time>
        <ele>2223.0</ele>
      </trkpt>
      <trkpt lat="44.33446" lon="6.87185">
        <time>2023-04-16T12:35:23+00:00</time>
        <ele>2224.0</ele>
      </trkpt>
      <trkpt lat="44.33446" lon="6.87185">
        <time>2023-04-16T12:35:25+00:00</time>
        <ele>2224.0</ele>
      </trkpt>
      <trkpt lat="44.33445" lon="6.87185">
        <time>2023-04-16T12:35:30+00:00</time>
        <ele>2224.0</ele>
      </trkpt>
      <trkpt lat="44.33445" lon="6.87184">
        <time>2023-04-16T12:35:33+00:00</time>
        <ele>2224.0</ele>
      </trkpt>
      <trkpt lat="44.33445" lon="6.87184">
        <time>2023-04-16T12:35:40+00:00</time>
        <ele>2224.0</ele>
      </trkpt>
      <trkpt lat="44.33445" lon="6.87181">
        <time>2023-04-16T12:35:46+00:00</time>
        <ele>2225.0</ele>
      </trkpt>
      <trkpt lat="44.33445" lon="6.87176">
        <time>2023-04-16T12:35:51+00:00</time>
        <ele>2227.0</ele>
      </trkpt>
      <trkpt lat="44.33445" lon="6.87174">
        <time>2023-04-16T12:35:53+00:00</time>
        <ele>2227.0</ele>
      </trkpt>
      <trkpt lat="44.33445" lon="6.87173">
        <time>2023-04-16T12:35:55+00:00</time>
        <ele>2228.0</ele>
      </trkpt>
      <trkpt lat="44.33444" lon="6.87172">
        <time>2023-04-16T12:35:56+00:00</time>
        <ele>2228.0</ele>
      </trkpt>
      <trkpt lat="44.33443" lon="6.87169">
        <time>2023-04-16T12:36:00+00:00</time>
        <ele>2230.0</ele>
      </trkpt>
      <trkpt lat="44.33443" lon="6.87167">
        <time>2023-04-16T12:36:02+00:00</time>
        <ele>2230.0</ele>
      </trkpt>
      <trkpt lat="44.33442" lon="6.87167">
        <time>2023-04-16T12:36:05+00:00</time>
        <ele>2231.0</ele>
      </trkpt>
      <trkpt lat="44.33441" lon="6.87168">
        <time>2023-04-16T12:36:07+00:00</time>
        <ele>2231.0</ele>
      </trkpt>
      <trkpt lat="44.33441" lon="6.87172">
        <time>2023-04-16T12:36:11+00:00</time>
        <ele>2230.0</ele>
      </trkpt>
      <trkpt lat="44.3344" lon="6.87172">
        <time>2023-04-16T12:36:12+00:00</time>
        <ele>2230.0</ele>
      </trkpt>
      <trkpt lat="44.33439" lon="6.87173">
        <time>2023-04-16T12:36:14+00:00</time>
        <ele>2230.0</ele>
      </trkpt>
      <trkpt lat="44.33439" lon="6.87174">
        <time>2023-04-16T12:36:15+00:00</time>
        <ele>2230.0</ele>
      </trkpt>
      <trkpt lat="44.33438" lon="6.87174">
        <time>2023-04-16T12:36:16+00:00</time>
        <ele>2231.0</ele>
      </trkpt>
      <trkpt lat="44.33437" lon="6.87175">
        <time>2023-04-16T12:36:18+00:00</time>
        <ele>2231.0</ele>
      </trkpt>
      <trkpt lat="44.33436" lon="6.87176">
        <time>2023-04-16T12:36:20+00:00</time>
        <ele>2231.0</ele>
      </trkpt>
      <trkpt lat="44.33434" lon="6.87177">
        <time>2023-04-16T12:36:23+00:00</time>
        <ele>2232.0</ele>
      </trkpt>
      <trkpt lat="44.33433" lon="6.87177">
        <time>2023-04-16T12:36:24+00:00</time>
        <ele>2232.0</ele>
      </trkpt>
      <trkpt lat="44.33433" lon="6.87177">
        <time>2023-04-16T12:36:27+00:00</time>
        <ele>2232.0</ele>
      </trkpt>
      <trkpt lat="44.33433" lon="6.87177">
        <time>2023-04-16T12:36:28+00:00</time>
        <ele>2232.0</ele>
      </trkpt>
      <trkpt lat="44.33433" lon="6.87177">
        <time>2023-04-16T12:36:29+00:00</time>
        <ele>2232.0</ele>
      </trkpt>
      <trkpt lat="44.33433" lon="6.87177">
        <time>2023-04-16T12:36:36+00:00</time>
        <ele>2232.0</ele>
      </trkpt>
      <trkpt lat="44.33433" lon="6.87177">
        <time>2023-04-16T12:36:39+00:00</time>
        <ele>2232.0</ele>
      </trkpt>
      <trkpt lat="44.33433" lon="6.87177">
        <time>2023-04-16T12:36:45+00:00</time>
        <ele>2232.0</ele>
      </trkpt>
      <trkpt lat="44.33433" lon="6.87177">
        <time>2023-04-16T12:36:47+00:00</time>
        <ele>2232.0</ele>
      </trkpt>
      <trkpt lat="44.33433" lon="6.87177">
        <time>2023-04-16T12:36:48+00:00</time>
        <ele>2232.0</ele>
      </trkpt>
      <trkpt lat="44.33433" lon="6.87177">
        <time>2023-04-16T12:36:50+00:00</time>
        <ele>2232.0</ele>
      </trkpt>
      <trkpt lat="44.33433" lon="6.87177">
        <time>2023-04-16T12:36:51+00:00</time>
        <ele>2232.0</ele>
      </trkpt>
      <trkpt lat="44.33433" lon="6.87178">
        <time>2023-04-16T12:37:00+00:00</time>
        <ele>2232.0</ele>
      </trkpt>
      <trkpt lat="44.33432" lon="6.87178">
        <time>2023-04-16T12:37:03+00:00</time>
        <ele>2232.0</ele>
      </trkpt>
      <trkpt lat="44.33431" lon="6.87178">
        <time>2023-04-16T12:37:04+00:00</time>
        <ele>2233.0</ele>
      </trkpt>
      <trkpt lat="44.33431" lon="6.87179">
        <time>2023-04-16T12:37:05+00:00</time>
        <ele>2232.0</ele>
      </trkpt>
      <trkpt lat="44.33429" lon="6.87179">
        <time>2023-04-16T12:37:07+00:00</time>
        <ele>2233.0</ele>
      </trkpt>
      <trkpt lat="44.33429" lon="6.87179">
        <time>2023-04-16T12:37:08+00:00</time>
        <ele>2233.0</ele>
      </trkpt>
      <trkpt lat="44.33428" lon="6.8718">
        <time>2023-04-16T12:37:15+00:00</time>
        <ele>2233.0</ele>
      </trkpt>
      <trkpt lat="44.33426" lon="6.87181">
        <time>2023-04-16T12:37:18+00:00</time>
        <ele>2234.0</ele>
      </trkpt>
      <trkpt lat="44.33423" lon="6.87182">
        <time>2023-04-16T12:37:20+00:00</time>
        <ele>2235.0</ele>
      </trkpt>
      <trkpt lat="44.33422" lon="6.87181">
        <time>2023-04-16T12:37:23+00:00</time>
        <ele>2236.0</ele>
      </trkpt>
      <trkpt lat="44.33422" lon="6.87178">
        <time>2023-04-16T12:37:25+00:00</time>
        <ele>2237.0</ele>
      </trkpt>
      <trkpt lat="44.33422" lon="6.87178">
        <time>2023-04-16T12:37:26+00:00</time>
        <ele>2237.0</ele>
      </trkpt>
      <trkpt lat="44.33422" lon="6.87175">
        <time>2023-04-16T12:37:30+00:00</time>
        <ele>2238.0</ele>
      </trkpt>
      <trkpt lat="44.33423" lon="6.87173">
        <time>2023-04-16T12:37:32+00:00</time>
        <ele>2238.0</ele>
      </trkpt>
      <trkpt lat="44.33423" lon="6.87171">
        <time>2023-04-16T12:37:34+00:00</time>
        <ele>2238.0</ele>
      </trkpt>
      <trkpt lat="44.33423" lon="6.8717">
        <time>2023-04-16T12:37:35+00:00</time>
        <ele>2239.0</ele>
      </trkpt>
      <trkpt lat="44.33423" lon="6.87169">
        <time>2023-04-16T12:37:37+00:00</time>
        <ele>2239.0</ele>
      </trkpt>
      <trkpt lat="44.33422" lon="6.87167">
        <time>2023-04-16T12:37:40+00:00</time>
        <ele>2240.0</ele>
      </trkpt>
      <trkpt lat="44.33421" lon="6.87167">
        <time>2023-04-16T12:37:42+00:00</time>
        <ele>2241.0</ele>
      </trkpt>
      <trkpt lat="44.3342" lon="6.87167">
        <time>2023-04-16T12:37:43+00:00</time>
        <ele>2241.0</ele>
      </trkpt>
      <trkpt lat="44.3342" lon="6.87167">
        <time>2023-04-16T12:37:44+00:00</time>
        <ele>2241.0</ele>
      </trkpt>
      <trkpt lat="44.33419" lon="6.87168">
        <time>2023-04-16T12:37:46+00:00</time>
        <ele>2241.0</ele>
      </trkpt>
      <trkpt lat="44.33418" lon="6.87168">
        <time>2023-04-16T12:37:48+00:00</time>
        <ele>2242.0</ele>
      </trkpt>
      <trkpt lat="44.33417" lon="6.87168">
        <time>2023-04-16T12:37:49+00:00</time>
        <ele>2242.0</ele>
      </trkpt>
      <trkpt lat="44.33416" lon="6.87169">
        <time>2023-04-16T12:37:51+00:00</time>
        <ele>2242.0</ele>
      </trkpt>
      <trkpt lat="44.33416" lon="6.87169">
        <time>2023-04-16T12:37:52+00:00</time>
        <ele>2242.0</ele>
      </trkpt>
      <trkpt lat="44.33415" lon="6.87171">
        <time>2023-04-16T12:37:54+00:00</time>
        <ele>2242.0</ele>
      </trkpt>
      <trkpt lat="44.33414" lon="6.87171">
        <time>2023-04-16T12:37:56+00:00</time>
        <ele>2243.0</ele>
      </trkpt>
      <trkpt lat="44.33413" lon="6.87172">
        <time>2023-04-16T12:37:57+00:00</time>
        <ele>2243.0</ele>
      </trkpt>
      <trkpt lat="44.33412" lon="6.87173">
        <time>2023-04-16T12:37:58+00:00</time>
        <ele>2243.0</ele>
      </trkpt>
      <trkpt lat="44.33411" lon="6.87173">
        <time>2023-04-16T12:38:00+00:00</time>
        <ele>2244.0</ele>
      </trkpt>
      <trkpt lat="44.33411" lon="6.87174">
        <time>2023-04-16T12:38:01+00:00</time>
        <ele>2243.0</ele>
      </trkpt>
      <trkpt lat="44.33409" lon="6.87176">
        <time>2023-04-16T12:38:05+00:00</time>
        <ele>2244.0</ele>
      </trkpt>
      <trkpt lat="44.33408" lon="6.87176">
        <time>2023-04-16T12:38:06+00:00</time>
        <ele>2244.0</ele>
      </trkpt>
      <trkpt lat="44.33406" lon="6.87178">
        <time>2023-04-16T12:38:08+00:00</time>
        <ele>2245.0</ele>
      </trkpt>
      <trkpt lat="44.33405" lon="6.87177">
        <time>2023-04-16T12:38:10+00:00</time>
        <ele>2245.0</ele>
      </trkpt>
      <trkpt lat="44.33405" lon="6.87176">
        <time>2023-04-16T12:38:11+00:00</time>
        <ele>2246.0</ele>
      </trkpt>
      <trkpt lat="44.33405" lon="6.87175">
        <time>2023-04-16T12:38:14+00:00</time>
        <ele>2246.0</ele>
      </trkpt>
      <trkpt lat="44.33405" lon="6.87174">
        <time>2023-04-16T12:38:16+00:00</time>
        <ele>2246.0</ele>
      </trkpt>
      <trkpt lat="44.33405" lon="6.87175">
        <time>2023-04-16T12:38:17+00:00</time>
        <ele>2246.0</ele>
      </trkpt>
      <trkpt lat="44.33405" lon="6.87175">
        <time>2023-04-16T12:38:18+00:00</time>
        <ele>2246.0</ele>
      </trkpt>
      <trkpt lat="44.33405" lon="6.87175">
        <time>2023-04-16T12:38:20+00:00</time>
        <ele>2246.0</ele>
      </trkpt>
      <trkpt lat="44.33405" lon="6.87175">
        <time>2023-04-16T12:38:22+00:00</time>
        <ele>2246.0</ele>
      </trkpt>
      <trkpt lat="44.33405" lon="6.87175">
        <time>2023-04-16T12:38:23+00:00</time>
        <ele>2246.0</ele>
      </trkpt>
      <trkpt lat="44.33405" lon="6.87174">
        <time>2023-04-16T12:38:25+00:00</time>
        <ele>2246.0</ele>
      </trkpt>
      <trkpt lat="44.33406" lon="6.87172">
        <time>2023-04-16T12:38:31+00:00</time>
        <ele>2246.0</ele>
      </trkpt>
      <trkpt lat="44.33405" lon="6.87169">
        <time>2023-04-16T12:38:34+00:00</time>
        <ele>2248.0</ele>
      </trkpt>
      <trkpt lat="44.33405" lon="6.87166">
        <time>2023-04-16T12:38:38+00:00</time>
        <ele>2249.0</ele>
      </trkpt>
      <trkpt lat="44.33404" lon="6.87161">
        <time>2023-04-16T12:38:44+00:00</time>
        <ele>2250.0</ele>
      </trkpt>
      <trkpt lat="44.33404" lon="6.8716">
        <time>2023-04-16T12:38:46+00:00</time>
        <ele>2251.0</ele>
      </trkpt>
      <trkpt lat="44.33405" lon="6.8715">
        <time>2023-04-16T12:38:59+00:00</time>
        <ele>2252.0</ele>
      </trkpt>
      <trkpt lat="44.33404" lon="6.87148">
        <time>2023-04-16T12:39:14+00:00</time>
        <ele>2253.0</ele>
      </trkpt>
      <trkpt lat="44.33405" lon="6.87144">
        <time>2023-04-16T12:39:20+00:00</time>
        <ele>2254.0</ele>
      </trkpt>
      <trkpt lat="44.33406" lon="6.87143">
        <time>2023-04-16T12:39:22+00:00</time>
        <ele>2253.0</ele>
      </trkpt>
      <trkpt lat="44.33407" lon="6.87141">
        <time>2023-04-16T12:39:24+00:00</time>
        <ele>2253.0</ele>
      </trkpt>
      <trkpt lat="44.33407" lon="6.87138">
        <time>2023-04-16T12:39:27+00:00</time>
        <ele>2254.0</ele>
      </trkpt>
      <trkpt lat="44.33408" lon="6.87136">
        <time>2023-04-16T12:39:29+00:00</time>
        <ele>2254.0</ele>
      </trkpt>
      <trkpt lat="44.33408" lon="6.87135">
        <time>2023-04-16T12:39:30+00:00</time>
        <ele>2254.0</ele>
      </trkpt>
      <trkpt lat="44.33409" lon="6.87129">
        <time>2023-04-16T12:39:37+00:00</time>
        <ele>2255.0</ele>
      </trkpt>
      <trkpt lat="44.3341" lon="6.87127">
        <time>2023-04-16T12:39:39+00:00</time>
        <ele>2256.0</ele>
      </trkpt>
      <trkpt lat="44.3341" lon="6.87126">
        <time>2023-04-16T12:39:41+00:00</time>
        <ele>2256.0</ele>
      </trkpt>
      <trkpt lat="44.33408" lon="6.87124">
        <time>2023-04-16T12:39:44+00:00</time>
        <ele>2257.0</ele>
      </trkpt>
      <trkpt lat="44.33406" lon="6.87123">
        <time>2023-04-16T12:39:47+00:00</time>
        <ele>2258.0</ele>
      </trkpt>
      <trkpt lat="44.33403" lon="6.87123">
        <time>2023-04-16T12:39:49+00:00</time>
        <ele>2258.0</ele>
      </trkpt>
      <trkpt lat="44.33396" lon="6.8712">
        <time>2023-04-16T12:39:57+00:00</time>
        <ele>2260.0</ele>
      </trkpt>
      <trkpt lat="44.3339" lon="6.87115">
        <time>2023-04-16T12:40:05+00:00</time>
        <ele>2261.0</ele>
      </trkpt>
      <trkpt lat="44.33388" lon="6.87114">
        <time>2023-04-16T12:40:07+00:00</time>
        <ele>2261.0</ele>
      </trkpt>
      <trkpt lat="44.33386" lon="6.87113">
        <time>2023-04-16T12:40:09+00:00</time>
        <ele>2261.0</ele>
      </trkpt>
      <trkpt lat="44.33385" lon="6.87104">
        <time>2023-04-16T12:40:15+00:00</time>
        <ele>2261.0</ele>
      </trkpt>
      <trkpt lat="44.33385" lon="6.87102">
        <time>2023-04-16T12:40:16+00:00</time>
        <ele>2261.0</ele>
      </trkpt>
      <trkpt lat="44.33385" lon="6.871">
        <time>2023-04-16T12:40:17+00:00</time>
        <ele>2261.0</ele>
      </trkpt>
      <trkpt lat="44.33384" lon="6.87096">
        <time>2023-04-16T12:40:19+00:00</time>
        <ele>2261.0</ele>
      </trkpt>
      <trkpt lat="44.33382" lon="6.87078">
        <time>2023-04-16T12:40:30+00:00</time>
        <ele>2261.0</ele>
      </trkpt>
      <trkpt lat="44.33382" lon="6.87073">
        <time>2023-04-16T12:40:33+00:00</time>
        <ele>2261.0</ele>
      </trkpt>
      <trkpt lat="44.33382" lon="6.87069">
        <time>2023-04-16T12:40:36+00:00</time>
        <ele>2261.0</ele>
      </trkpt>
      <trkpt lat="44.33381" lon="6.87066">
        <time>2023-04-16T12:40:38+00:00</time>
        <ele>2261.0</ele>
      </trkpt>
      <trkpt lat="44.33381" lon="6.87064">
        <time>2023-04-16T12:40:39+00:00</time>
        <ele>2261.0</ele>
      </trkpt>
      <trkpt lat="44.3338" lon="6.87057">
        <time>2023-04-16T12:40:42+00:00</time>
        <ele>2261.0</ele>
      </trkpt>
      <trkpt lat="44.3338" lon="6.87055">
        <time>2023-04-16T12:40:43+00:00</time>
        <ele>2261.0</ele>
      </trkpt>
      <trkpt lat="44.3338" lon="6.87053">
        <time>2023-04-16T12:40:44+00:00</time>
        <ele>2261.0</ele>
      </trkpt>
      <trkpt lat="44.33379" lon="6.8705">
        <time>2023-04-16T12:40:45+00:00</time>
        <ele>2261.0</ele>
      </trkpt>
      <trkpt lat="44.33379" lon="6.87048">
        <time>2023-04-16T12:40:46+00:00</time>
        <ele>2260.0</ele>
      </trkpt>
      <trkpt lat="44.33379" lon="6.87044">
        <time>2023-04-16T12:40:48+00:00</time>
        <ele>2260.0</ele>
      </trkpt>
      <trkpt lat="44.33378" lon="6.87042">
        <time>2023-04-16T12:40:49+00:00</time>
        <ele>2260.0</ele>
      </trkpt>
      <trkpt lat="44.33378" lon="6.87041">
        <time>2023-04-16T12:40:50+00:00</time>
        <ele>2260.0</ele>
      </trkpt>
      <trkpt lat="44.33377" lon="6.87038">
        <time>2023-04-16T12:40:51+00:00</time>
        <ele>2260.0</ele>
      </trkpt>
      <trkpt lat="44.33377" lon="6.87036">
        <time>2023-04-16T12:40:52+00:00</time>
        <ele>2260.0</ele>
      </trkpt>
      <trkpt lat="44.33377" lon="6.87034">
        <time>2023-04-16T12:40:53+00:00</time>
        <ele>2260.0</ele>
      </trkpt>
      <trkpt lat="44.33377" lon="6.87032">
        <time>2023-04-16T12:40:54+00:00</time>
        <ele>2259.0</ele>
      </trkpt>
      <trkpt lat="44.33376" lon="6.8703">
        <time>2023-04-16T12:40:55+00:00</time>
        <ele>2259.0</ele>
      </trkpt>
      <trkpt lat="44.33376" lon="6.87029">
        <time>2023-04-16T12:40:56+00:00</time>
        <ele>2259.0</ele>
      </trkpt>
      <trkpt lat="44.33376" lon="6.87026">
        <time>2023-04-16T12:40:57+00:00</time>
        <ele>2259.0</ele>
      </trkpt>
      <trkpt lat="44.33376" lon="6.87024">
        <time>2023-04-16T12:40:58+00:00</time>
        <ele>2259.0</ele>
      </trkpt>
      <trkpt lat="44.33376" lon="6.87022">
        <time>2023-04-16T12:40:59+00:00</time>
        <ele>2259.0</ele>
      </trkpt>
      <trkpt lat="44.33375" lon="6.8702">
        <time>2023-04-16T12:41:00+00:00</time>
        <ele>2258.0</ele>
      </trkpt>
      <trkpt lat="44.33374" lon="6.87014">
        <time>2023-04-16T12:41:03+00:00</time>
        <ele>2258.0</ele>
      </trkpt>
      <trkpt lat="44.33374" lon="6.87012">
        <time>2023-04-16T12:41:04+00:00</time>
        <ele>2258.0</ele>
      </trkpt>
      <trkpt lat="44.33369" lon="6.86999">
        <time>2023-04-16T12:41:12+00:00</time>
        <ele>2256.0</ele>
      </trkpt>
      <trkpt lat="44.33368" lon="6.86994">
        <time>2023-04-16T12:41:15+00:00</time>
        <ele>2256.0</ele>
      </trkpt>
      <trkpt lat="44.33367" lon="6.86992">
        <time>2023-04-16T12:41:16+00:00</time>
        <ele>2256.0</ele>
      </trkpt>
      <trkpt lat="44.33367" lon="6.8699">
        <time>2023-04-16T12:41:17+00:00</time>
        <ele>2256.0</ele>
      </trkpt>
      <trkpt lat="44.33366" lon="6.86988">
        <time>2023-04-16T12:41:18+00:00</time>
        <ele>2256.0</ele>
      </trkpt>
      <trkpt lat="44.33365" lon="6.86986">
        <time>2023-04-16T12:41:19+00:00</time>
        <ele>2255.0</ele>
      </trkpt>
      <trkpt lat="44.33365" lon="6.86984">
        <time>2023-04-16T12:41:20+00:00</time>
        <ele>2255.0</ele>
      </trkpt>
      <trkpt lat="44.33362" lon="6.86977">
        <time>2023-04-16T12:41:25+00:00</time>
        <ele>2255.0</ele>
      </trkpt>
      <trkpt lat="44.3336" lon="6.86973">
        <time>2023-04-16T12:41:28+00:00</time>
        <ele>2255.0</ele>
      </trkpt>
      <trkpt lat="44.33359" lon="6.86969">
        <time>2023-04-16T12:41:31+00:00</time>
        <ele>2255.0</ele>
      </trkpt>
      <trkpt lat="44.33359" lon="6.86967">
        <time>2023-04-16T12:41:33+00:00</time>
        <ele>2255.0</ele>
      </trkpt>
      <trkpt lat="44.33358" lon="6.86966">
        <time>2023-04-16T12:41:34+00:00</time>
        <ele>2255.0</ele>
      </trkpt>
      <trkpt lat="44.33358" lon="6.86965">
        <time>2023-04-16T12:41:35+00:00</time>
        <ele>2255.0</ele>
      </trkpt>
      <trkpt lat="44.33357" lon="6.86962">
        <time>2023-04-16T12:41:37+00:00</time>
        <ele>2255.0</ele>
      </trkpt>
      <trkpt lat="44.33356" lon="6.8696">
        <time>2023-04-16T12:41:38+00:00</time>
        <ele>2255.0</ele>
      </trkpt>
      <trkpt lat="44.33356" lon="6.86958">
        <time>2023-04-16T12:41:39+00:00</time>
        <ele>2255.0</ele>
      </trkpt>
      <trkpt lat="44.33355" lon="6.86956">
        <time>2023-04-16T12:41:40+00:00</time>
        <ele>2255.0</ele>
      </trkpt>
      <trkpt lat="44.33355" lon="6.86955">
        <time>2023-04-16T12:41:41+00:00</time>
        <ele>2255.0</ele>
      </trkpt>
      <trkpt lat="44.33354" lon="6.86953">
        <time>2023-04-16T12:41:42+00:00</time>
        <ele>2255.0</ele>
      </trkpt>
      <trkpt lat="44.33353" lon="6.8695">
        <time>2023-04-16T12:41:44+00:00</time>
        <ele>2255.0</ele>
      </trkpt>
      <trkpt lat="44.33353" lon="6.86948">
        <time>2023-04-16T12:41:45+00:00</time>
        <ele>2255.0</ele>
      </trkpt>
      <trkpt lat="44.33352" lon="6.86947">
        <time>2023-04-16T12:41:46+00:00</time>
        <ele>2255.0</ele>
      </trkpt>
      <trkpt lat="44.33352" lon="6.86946">
        <time>2023-04-16T12:41:47+00:00</time>
        <ele>2255.0</ele>
      </trkpt>
      <trkpt lat="44.33351" lon="6.86944">
        <time>2023-04-16T12:41:48+00:00</time>
        <ele>2255.0</ele>
      </trkpt>
      <trkpt lat="44.33351" lon="6.86943">
        <time>2023-04-16T12:41:49+00:00</time>
        <ele>2255.0</ele>
      </trkpt>
      <trkpt lat="44.33351" lon="6.8694">
        <time>2023-04-16T12:41:51+00:00</time>
        <ele>2255.0</ele>
      </trkpt>
      <trkpt lat="44.3335" lon="6.86939">
        <time>2023-04-16T12:41:52+00:00</time>
        <ele>2255.0</ele>
      </trkpt>
      <trkpt lat="44.3335" lon="6.86933">
        <time>2023-04-16T12:41:55+00:00</time>
        <ele>2255.0</ele>
      </trkpt>
      <trkpt lat="44.3335" lon="6.86931">
        <time>2023-04-16T12:41:56+00:00</time>
        <ele>2255.0</ele>
      </trkpt>
      <trkpt lat="44.3335" lon="6.86929">
        <time>2023-04-16T12:41:57+00:00</time>
        <ele>2255.0</ele>
      </trkpt>
      <trkpt lat="44.3335" lon="6.86926">
        <time>2023-04-16T12:41:58+00:00</time>
        <ele>2255.0</ele>
      </trkpt>
      <trkpt lat="44.3335" lon="6.86925">
        <time>2023-04-16T12:41:59+00:00</time>
        <ele>2255.0</ele>
      </trkpt>
      <trkpt lat="44.3335" lon="6.86923">
        <time>2023-04-16T12:42:00+00:00</time>
        <ele>2255.0</ele>
      </trkpt>
      <trkpt lat="44.3335" lon="6.86921">
        <time>2023-04-16T12:42:01+00:00</time>
        <ele>2256.0</ele>
      </trkpt>
      <trkpt lat="44.33351" lon="6.86908">
        <time>2023-04-16T12:42:10+00:00</time>
        <ele>2256.0</ele>
      </trkpt>
      <trkpt lat="44.33352" lon="6.86902">
        <time>2023-04-16T12:42:16+00:00</time>
        <ele>2256.0</ele>
      </trkpt>
      <trkpt lat="44.33352" lon="6.86901">
        <time>2023-04-16T12:42:17+00:00</time>
        <ele>2256.0</ele>
      </trkpt>
      <trkpt lat="44.33353" lon="6.86894">
        <time>2023-04-16T12:42:22+00:00</time>
        <ele>2256.0</ele>
      </trkpt>
      <trkpt lat="44.33353" lon="6.86894">
        <time>2023-04-16T12:42:23+00:00</time>
        <ele>2256.0</ele>
      </trkpt>
      <trkpt lat="44.33353" lon="6.86894">
        <time>2023-04-16T12:42:24+00:00</time>
        <ele>2256.0</ele>
      </trkpt>
      <trkpt lat="44.33353" lon="6.86895">
        <time>2023-04-16T12:42:25+00:00</time>
        <ele>2256.0</ele>
      </trkpt>
      <trkpt lat="44.33352" lon="6.86895">
        <time>2023-04-16T12:42:26+00:00</time>
        <ele>2256.0</ele>
      </trkpt>
      <trkpt lat="44.33352" lon="6.86896">
        <time>2023-04-16T12:42:27+00:00</time>
        <ele>2256.0</ele>
      </trkpt>
      <trkpt lat="44.33352" lon="6.86897">
        <time>2023-04-16T12:42:29+00:00</time>
        <ele>2256.0</ele>
      </trkpt>
      <trkpt lat="44.33353" lon="6.86897">
        <time>2023-04-16T12:42:30+00:00</time>
        <ele>2256.0</ele>
      </trkpt>
      <trkpt lat="44.33353" lon="6.86897">
        <time>2023-04-16T12:42:31+00:00</time>
        <ele>2256.0</ele>
      </trkpt>
      <trkpt lat="44.33354" lon="6.86897">
        <time>2023-04-16T12:42:33+00:00</time>
        <ele>2256.0</ele>
      </trkpt>
      <trkpt lat="44.33354" lon="6.86897">
        <time>2023-04-16T12:42:34+00:00</time>
        <ele>2256.0</ele>
      </trkpt>
      <trkpt lat="44.33354" lon="6.86897">
        <time>2023-04-16T12:42:37+00:00</time>
        <ele>2256.0</ele>
      </trkpt>
      <trkpt lat="44.33353" lon="6.86897">
        <time>2023-04-16T12:42:39+00:00</time>
        <ele>2256.0</ele>
      </trkpt>
      <trkpt lat="44.33352" lon="6.86896">
        <time>2023-04-16T12:42:47+00:00</time>
        <ele>2256.0</ele>
      </trkpt>
      <trkpt lat="44.33352" lon="6.86896">
        <time>2023-04-16T12:42:48+00:00</time>
        <ele>2256.0</ele>
      </trkpt>
      <trkpt lat="44.33352" lon="6.86896">
        <time>2023-04-16T12:42:49+00:00</time>
        <ele>2256.0</ele>
      </trkpt>
      <trkpt lat="44.33352" lon="6.86896">
        <time>2023-04-16T12:42:51+00:00</time>
        <ele>2256.0</ele>
      </trkpt>
      <trkpt lat="44.33352" lon="6.86896">
        <time>2023-04-16T12:43:00+00:00</time>
        <ele>2256.0</ele>
      </trkpt>
      <trkpt lat="44.33352" lon="6.8689">
        <time>2023-04-16T12:43:04+00:00</time>
        <ele>2256.0</ele>
      </trkpt>
      <trkpt lat="44.33353" lon="6.86881">
        <time>2023-04-16T12:43:10+00:00</time>
        <ele>2255.0</ele>
      </trkpt>
      <trkpt lat="44.33354" lon="6.86873">
        <time>2023-04-16T12:43:15+00:00</time>
        <ele>2255.0</ele>
      </trkpt>
      <trkpt lat="44.33355" lon="6.86871">
        <time>2023-04-16T12:43:16+00:00</time>
        <ele>2256.0</ele>
      </trkpt>
      <trkpt lat="44.33356" lon="6.86866">
        <time>2023-04-16T12:43:19+00:00</time>
        <ele>2256.0</ele>
      </trkpt>
      <trkpt lat="44.33356" lon="6.86862">
        <time>2023-04-16T12:43:21+00:00</time>
        <ele>2255.0</ele>
      </trkpt>
      <trkpt lat="44.33356" lon="6.86858">
        <time>2023-04-16T12:43:23+00:00</time>
        <ele>2255.0</ele>
      </trkpt>
      <trkpt lat="44.33357" lon="6.86854">
        <time>2023-04-16T12:43:25+00:00</time>
        <ele>2255.0</ele>
      </trkpt>
      <trkpt lat="44.33357" lon="6.86853">
        <time>2023-04-16T12:43:26+00:00</time>
        <ele>2255.0</ele>
      </trkpt>
      <trkpt lat="44.33357" lon="6.86851">
        <time>2023-04-16T12:43:27+00:00</time>
        <ele>2254.0</ele>
      </trkpt>
      <trkpt lat="44.33358" lon="6.8685">
        <time>2023-04-16T12:43:28+00:00</time>
        <ele>2255.0</ele>
      </trkpt>
      <trkpt lat="44.33359" lon="6.86847">
        <time>2023-04-16T12:43:30+00:00</time>
        <ele>2255.0</ele>
      </trkpt>
      <trkpt lat="44.33359" lon="6.86846">
        <time>2023-04-16T12:43:31+00:00</time>
        <ele>2254.0</ele>
      </trkpt>
      <trkpt lat="44.3336" lon="6.86844">
        <time>2023-04-16T12:43:32+00:00</time>
        <ele>2255.0</ele>
      </trkpt>
      <trkpt lat="44.3336" lon="6.86843">
        <time>2023-04-16T12:43:33+00:00</time>
        <ele>2255.0</ele>
      </trkpt>
      <trkpt lat="44.33361" lon="6.86842">
        <time>2023-04-16T12:43:34+00:00</time>
        <ele>2255.0</ele>
      </trkpt>
      <trkpt lat="44.33361" lon="6.86841">
        <time>2023-04-16T12:43:35+00:00</time>
        <ele>2255.0</ele>
      </trkpt>
      <trkpt lat="44.33362" lon="6.86836">
        <time>2023-04-16T12:43:38+00:00</time>
        <ele>2255.0</ele>
      </trkpt>
      <trkpt lat="44.33362" lon="6.86835">
        <time>2023-04-16T12:43:39+00:00</time>
        <ele>2255.0</ele>
      </trkpt>
      <trkpt lat="44.33362" lon="6.86833">
        <time>2023-04-16T12:43:40+00:00</time>
        <ele>2255.0</ele>
      </trkpt>
      <trkpt lat="44.33363" lon="6.86832">
        <time>2023-04-16T12:43:41+00:00</time>
        <ele>2255.0</ele>
      </trkpt>
      <trkpt lat="44.33363" lon="6.8683">
        <time>2023-04-16T12:43:42+00:00</time>
        <ele>2255.0</ele>
      </trkpt>
      <trkpt lat="44.33364" lon="6.86826">
        <time>2023-04-16T12:43:44+00:00</time>
        <ele>2255.0</ele>
      </trkpt>
      <trkpt lat="44.33365" lon="6.86824">
        <time>2023-04-16T12:43:45+00:00</time>
        <ele>2255.0</ele>
      </trkpt>
      <trkpt lat="44.33365" lon="6.86822">
        <time>2023-04-16T12:43:46+00:00</time>
        <ele>2255.0</ele>
      </trkpt>
      <trkpt lat="44.33365" lon="6.86821">
        <time>2023-04-16T12:43:47+00:00</time>
        <ele>2255.0</ele>
      </trkpt>
      <trkpt lat="44.33366" lon="6.8682">
        <time>2023-04-16T12:43:48+00:00</time>
        <ele>2256.0</ele>
      </trkpt>
      <trkpt lat="44.33367" lon="6.86818">
        <time>2023-04-16T12:43:49+00:00</time>
        <ele>2256.0</ele>
      </trkpt>
      <trkpt lat="44.33371" lon="6.86812">
        <time>2023-04-16T12:43:52+00:00</time>
        <ele>2257.0</ele>
      </trkpt>
      <trkpt lat="44.33373" lon="6.86807">
        <time>2023-04-16T12:43:55+00:00</time>
        <ele>2258.0</ele>
      </trkpt>
      <trkpt lat="44.33373" lon="6.86803">
        <time>2023-04-16T12:43:59+00:00</time>
        <ele>2258.0</ele>
      </trkpt>
      <trkpt lat="44.33372" lon="6.86802">
        <time>2023-04-16T12:44:00+00:00</time>
        <ele>2258.0</ele>
      </trkpt>
      <trkpt lat="44.33371" lon="6.868">
        <time>2023-04-16T12:44:01+00:00</time>
        <ele>2257.0</ele>
      </trkpt>
      <trkpt lat="44.3337" lon="6.86797">
        <time>2023-04-16T12:44:02+00:00</time>
        <ele>2257.0</ele>
      </trkpt>
      <trkpt lat="44.33369" lon="6.86795">
        <time>2023-04-16T12:44:03+00:00</time>
        <ele>2257.0</ele>
      </trkpt>
      <trkpt lat="44.33368" lon="6.86793">
        <time>2023-04-16T12:44:04+00:00</time>
        <ele>2256.0</ele>
      </trkpt>
      <trkpt lat="44.33365" lon="6.86791">
        <time>2023-04-16T12:44:07+00:00</time>
        <ele>2255.0</ele>
      </trkpt>
      <trkpt lat="44.33362" lon="6.86783">
        <time>2023-04-16T12:44:13+00:00</time>
        <ele>2255.0</ele>
      </trkpt>
      <trkpt lat="44.33361" lon="6.8678">
        <time>2023-04-16T12:44:15+00:00</time>
        <ele>2255.0</ele>
      </trkpt>
      <trkpt lat="44.33359" lon="6.86771">
        <time>2023-04-16T12:44:21+00:00</time>
        <ele>2255.0</ele>
      </trkpt>
      <trkpt lat="44.33358" lon="6.86769">
        <time>2023-04-16T12:44:23+00:00</time>
        <ele>2255.0</ele>
      </trkpt>
      <trkpt lat="44.33357" lon="6.86765">
        <time>2023-04-16T12:44:26+00:00</time>
        <ele>2255.0</ele>
      </trkpt>
      <trkpt lat="44.33356" lon="6.86763">
        <time>2023-04-16T12:44:28+00:00</time>
        <ele>2255.0</ele>
      </trkpt>
      <trkpt lat="44.33356" lon="6.86762">
        <time>2023-04-16T12:44:29+00:00</time>
        <ele>2255.0</ele>
      </trkpt>
      <trkpt lat="44.33356" lon="6.8676">
        <time>2023-04-16T12:44:30+00:00</time>
        <ele>2256.0</ele>
      </trkpt>
      <trkpt lat="44.33355" lon="6.86759">
        <time>2023-04-16T12:44:31+00:00</time>
        <ele>2255.0</ele>
      </trkpt>
      <trkpt lat="44.33355" lon="6.86758">
        <time>2023-04-16T12:44:32+00:00</time>
        <ele>2256.0</ele>
      </trkpt>
      <trkpt lat="44.33355" lon="6.86756">
        <time>2023-04-16T12:44:33+00:00</time>
        <ele>2256.0</ele>
      </trkpt>
      <trkpt lat="44.33354" lon="6.86754">
        <time>2023-04-16T12:44:34+00:00</time>
        <ele>2256.0</ele>
      </trkpt>
      <trkpt lat="44.33355" lon="6.86749">
        <time>2023-04-16T12:44:38+00:00</time>
        <ele>2257.0</ele>
      </trkpt>
      <trkpt lat="44.33354" lon="6.86744">
        <time>2023-04-16T12:44:41+00:00</time>
        <ele>2257.0</ele>
      </trkpt>
      <trkpt lat="44.33354" lon="6.86742">
        <time>2023-04-16T12:44:42+00:00</time>
        <ele>2257.0</ele>
      </trkpt>
      <trkpt lat="44.33354" lon="6.8674">
        <time>2023-04-16T12:44:43+00:00</time>
        <ele>2257.0</ele>
      </trkpt>
      <trkpt lat="44.33353" lon="6.86737">
        <time>2023-04-16T12:44:45+00:00</time>
        <ele>2257.0</ele>
      </trkpt>
      <trkpt lat="44.33352" lon="6.86733">
        <time>2023-04-16T12:44:48+00:00</time>
        <ele>2257.0</ele>
      </trkpt>
      <trkpt lat="44.33352" lon="6.86733">
        <time>2023-04-16T12:44:49+00:00</time>
        <ele>2257.0</ele>
      </trkpt>
      <trkpt lat="44.33352" lon="6.86731">
        <time>2023-04-16T12:44:50+00:00</time>
        <ele>2257.0</ele>
      </trkpt>
      <trkpt lat="44.33349" lon="6.86713">
        <time>2023-04-16T12:45:00+00:00</time>
        <ele>2258.0</ele>
      </trkpt>
      <trkpt lat="44.33347" lon="6.86709">
        <time>2023-04-16T12:45:06+00:00</time>
        <ele>2257.0</ele>
      </trkpt>
      <trkpt lat="44.33344" lon="6.86707">
        <time>2023-04-16T12:45:09+00:00</time>
        <ele>2256.0</ele>
      </trkpt>
      <trkpt lat="44.33343" lon="6.86703">
        <time>2023-04-16T12:45:12+00:00</time>
        <ele>2256.0</ele>
      </trkpt>
      <trkpt lat="44.33343" lon="6.86701">
        <time>2023-04-16T12:45:13+00:00</time>
        <ele>2257.0</ele>
      </trkpt>
      <trkpt lat="44.33343" lon="6.867">
        <time>2023-04-16T12:45:14+00:00</time>
        <ele>2257.0</ele>
      </trkpt>
      <trkpt lat="44.33343" lon="6.86698">
        <time>2023-04-16T12:45:15+00:00</time>
        <ele>2257.0</ele>
      </trkpt>
      <trkpt lat="44.33342" lon="6.86696">
        <time>2023-04-16T12:45:16+00:00</time>
        <ele>2256.0</ele>
      </trkpt>
      <trkpt lat="44.33343" lon="6.86694">
        <time>2023-04-16T12:45:17+00:00</time>
        <ele>2257.0</ele>
      </trkpt>
      <trkpt lat="44.33344" lon="6.86687">
        <time>2023-04-16T12:45:22+00:00</time>
        <ele>2257.0</ele>
      </trkpt>
      <trkpt lat="44.33344" lon="6.86686">
        <time>2023-04-16T12:45:23+00:00</time>
        <ele>2257.0</ele>
      </trkpt>
      <trkpt lat="44.33346" lon="6.86684">
        <time>2023-04-16T12:45:25+00:00</time>
        <ele>2257.0</ele>
      </trkpt>
      <trkpt lat="44.33347" lon="6.86682">
        <time>2023-04-16T12:45:26+00:00</time>
        <ele>2258.0</ele>
      </trkpt>
      <trkpt lat="44.33348" lon="6.86681">
        <time>2023-04-16T12:45:28+00:00</time>
        <ele>2258.0</ele>
      </trkpt>
      <trkpt lat="44.3335" lon="6.86681">
        <time>2023-04-16T12:45:30+00:00</time>
        <ele>2259.0</ele>
      </trkpt>
      <trkpt lat="44.33351" lon="6.8668">
        <time>2023-04-16T12:45:31+00:00</time>
        <ele>2259.0</ele>
      </trkpt>
      <trkpt lat="44.33354" lon="6.86676">
        <time>2023-04-16T12:45:37+00:00</time>
        <ele>2260.0</ele>
      </trkpt>
      <trkpt lat="44.33358" lon="6.86671">
        <time>2023-04-16T12:45:42+00:00</time>
        <ele>2261.0</ele>
      </trkpt>
      <trkpt lat="44.33363" lon="6.86662">
        <time>2023-04-16T12:45:50+00:00</time>
        <ele>2262.0</ele>
      </trkpt>
      <trkpt lat="44.33366" lon="6.86655">
        <time>2023-04-16T12:45:55+00:00</time>
        <ele>2263.0</ele>
      </trkpt>
      <trkpt lat="44.33367" lon="6.8665">
        <time>2023-04-16T12:46:00+00:00</time>
        <ele>2263.0</ele>
      </trkpt>
      <trkpt lat="44.33369" lon="6.86647">
        <time>2023-04-16T12:46:02+00:00</time>
        <ele>2264.0</ele>
      </trkpt>
      <trkpt lat="44.33373" lon="6.86639">
        <time>2023-04-16T12:46:09+00:00</time>
        <ele>2264.0</ele>
      </trkpt>
      <trkpt lat="44.33376" lon="6.86633">
        <time>2023-04-16T12:46:14+00:00</time>
        <ele>2266.0</ele>
      </trkpt>
      <trkpt lat="44.33377" lon="6.86631">
        <time>2023-04-16T12:46:16+00:00</time>
        <ele>2266.0</ele>
      </trkpt>
      <trkpt lat="44.3338" lon="6.86615">
        <time>2023-04-16T12:46:25+00:00</time>
        <ele>2266.0</ele>
      </trkpt>
      <trkpt lat="44.33381" lon="6.86607">
        <time>2023-04-16T12:46:30+00:00</time>
        <ele>2265.0</ele>
      </trkpt>
      <trkpt lat="44.33385" lon="6.86595">
        <time>2023-04-16T12:46:38+00:00</time>
        <ele>2266.0</ele>
      </trkpt>
      <trkpt lat="44.33387" lon="6.86587">
        <time>2023-04-16T12:46:42+00:00</time>
        <ele>2266.0</ele>
      </trkpt>
      <trkpt lat="44.33389" lon="6.86574">
        <time>2023-04-16T12:46:51+00:00</time>
        <ele>2265.0</ele>
      </trkpt>
      <trkpt lat="44.33389" lon="6.86572">
        <time>2023-04-16T12:46:53+00:00</time>
        <ele>2265.0</ele>
      </trkpt>
      <trkpt lat="44.33389" lon="6.86572">
        <time>2023-04-16T12:46:55+00:00</time>
        <ele>2265.0</ele>
      </trkpt>
      <trkpt lat="44.33385" lon="6.86573">
        <time>2023-04-16T12:46:59+00:00</time>
        <ele>2264.0</ele>
      </trkpt>
      <trkpt lat="44.33383" lon="6.86585">
        <time>2023-04-16T12:47:05+00:00</time>
        <ele>2264.0</ele>
      </trkpt>
      <trkpt lat="44.33383" lon="6.86588">
        <time>2023-04-16T12:47:07+00:00</time>
        <ele>2264.0</ele>
      </trkpt>
      <trkpt lat="44.33382" lon="6.86588">
        <time>2023-04-16T12:47:10+00:00</time>
        <ele>2264.0</ele>
      </trkpt>
      <trkpt lat="44.33381" lon="6.8658">
        <time>2023-04-16T12:47:18+00:00</time>
        <ele>2263.0</ele>
      </trkpt>
      <trkpt lat="44.33381" lon="6.86581">
        <time>2023-04-16T12:47:19+00:00</time>
        <ele>2263.0</ele>
      </trkpt>
      <trkpt lat="44.33381" lon="6.86582">
        <time>2023-04-16T12:47:20+00:00</time>
        <ele>2263.0</ele>
      </trkpt>
      <trkpt lat="44.33381" lon="6.86583">
        <time>2023-04-16T12:47:21+00:00</time>
        <ele>2263.0</ele>
      </trkpt>
    </trkseg>
  </trk>
</gpx>
